<?xml version='1.0' encoding='UTF-8'?><gpx version="1.1" creator="JPX - https://github.com/jenetics/jpx" xmlns="http://www.topografix.com/GPX/1/1"><trk><trkseg><trkpt lat="44.523186" lon="11.3743052"><ele>36.00000000000001</ele><time>2026-05-01T05:54:45.24Z</time></trkpt><trkpt lat="44.5232633" lon="11.3743677"><ele>36.0</ele><time>2026-05-01T05:59:24.239Z</time></trkpt><trkpt lat="44.5232821" lon="11.3744791"><ele>36.0</ele><time>2026-05-01T06:08:51.24Z</time></trkpt><trkpt lat="44.5233103" lon="11.3745589"><ele>36.0</ele><time>2026-05-01T06:08:59.241Z</time></trkpt><trkpt lat="44.5233839" lon="11.3745826"><ele>36.0</ele><time>2026-05-01T06:09:04.239Z</time></trkpt><trkpt lat="44.5234487" lon="11.3745793"><ele>36.00000000000001</ele><time>2026-05-01T06:09:09.241Z</time></trkpt><trkpt lat="44.5235138" lon="11.3745327"><ele>36.0</ele><time>2026-05-01T06:09:17.248Z</time></trkpt><trkpt lat="44.5235523" lon="11.3744566"><ele>36.00000000000001</ele><time>2026-05-01T06:09:27.28Z</time></trkpt><trkpt lat="44.5235787" lon="11.3743677"><ele>36.0</ele><time>2026-05-01T06:09:37.24Z</time></trkpt><trkpt lat="44.5236186" lon="11.3742857"><ele>36.0</ele><time>2026-05-01T06:10:02.25Z</time></trkpt><trkpt lat="44.5236287" lon="11.3741859"><ele>36.0</ele><time>2026-05-01T06:10:10.242Z</time></trkpt><trkpt lat="44.5235881" lon="11.374117"><ele>36.0</ele><time>2026-05-01T06:10:18.249Z</time></trkpt><trkpt lat="44.5235253" lon="11.374082"><ele>36.00000000000001</ele><time>2026-05-01T06:10:25.247Z</time></trkpt><trkpt lat="44.5234614" lon="11.3740586"><ele>36.0</ele><time>2026-05-01T06:10:29.237Z</time></trkpt><trkpt lat="44.5233879" lon="11.3740139"><ele>36.0</ele><time>2026-05-01T06:10:33.245Z</time></trkpt><trkpt lat="44.5233719" lon="11.3739236"><ele>36.0</ele><time>2026-05-01T06:10:36.173Z</time></trkpt><trkpt lat="44.5233834" lon="11.3738192"><ele>36.0</ele><time>2026-05-01T06:10:38.964Z</time></trkpt><trkpt lat="44.5234144" lon="11.3737145"><ele>36.0</ele><time>2026-05-01T06:10:41.964Z</time></trkpt><trkpt lat="44.5234258" lon="11.3736036"><ele>36.0</ele><time>2026-05-01T06:10:44.961Z</time></trkpt><trkpt lat="44.5233739" lon="11.3735032"><ele>36.0</ele><time>2026-05-01T06:10:47.971Z</time></trkpt><trkpt lat="44.5232973" lon="11.3734431"><ele>36.28571428571429</ele><time>2026-05-01T06:10:50.963Z</time></trkpt><trkpt lat="44.5232415" lon="11.3734013"><ele>36.57142857142857</ele><time>2026-05-01T06:10:52.957Z</time></trkpt><trkpt lat="44.523184" lon="11.373356"><ele>36.85714285714286</ele><time>2026-05-01T06:10:54.972Z</time></trkpt><trkpt lat="44.5231" lon="11.3733002"><ele>37.142857142857146</ele><time>2026-05-01T06:10:57.964Z</time></trkpt><trkpt lat="44.5230391" lon="11.3732529"><ele>37.42857142857143</ele><time>2026-05-01T06:10:59.948Z</time></trkpt><trkpt lat="44.5229792" lon="11.3732213"><ele>37.714285714285715</ele><time>2026-05-01T06:11:01.989Z</time></trkpt><trkpt lat="44.5229157" lon="11.3731843"><ele>38.0</ele><time>2026-05-01T06:11:03.961Z</time></trkpt><trkpt lat="44.5228544" lon="11.3731378"><ele>38.0</ele><time>2026-05-01T06:11:05.963Z</time></trkpt><trkpt lat="44.5227897" lon="11.3730949"><ele>38.0</ele><time>2026-05-01T06:11:07.961Z</time></trkpt><trkpt lat="44.5227229" lon="11.3730491"><ele>38.0</ele><time>2026-05-01T06:11:09.958Z</time></trkpt><trkpt lat="44.5226627" lon="11.3730032"><ele>38.0</ele><time>2026-05-01T06:11:11.965Z</time></trkpt><trkpt lat="44.5225986" lon="11.372965"><ele>38.0</ele><time>2026-05-01T06:11:13.968Z</time></trkpt><trkpt lat="44.5225382" lon="11.3729273"><ele>38.0</ele><time>2026-05-01T06:11:15.972Z</time></trkpt><trkpt lat="44.5224814" lon="11.3728727"><ele>38.0</ele><time>2026-05-01T06:11:17.964Z</time></trkpt><trkpt lat="44.5224917" lon="11.3727393"><ele>38.0</ele><time>2026-05-01T06:11:20.958Z</time></trkpt><trkpt lat="44.5225257" lon="11.3726469"><ele>38.0</ele><time>2026-05-01T06:11:22.958Z</time></trkpt><trkpt lat="44.5225647" lon="11.372558"><ele>38.0</ele><time>2026-05-01T06:11:24.953Z</time></trkpt><trkpt lat="44.5225906" lon="11.3724604"><ele>38.0</ele><time>2026-05-01T06:11:26.965Z</time></trkpt><trkpt lat="44.5226131" lon="11.3723687"><ele>38.0</ele><time>2026-05-01T06:11:28.961Z</time></trkpt><trkpt lat="44.5226359" lon="11.3722803"><ele>38.0</ele><time>2026-05-01T06:11:30.951Z</time></trkpt><trkpt lat="44.5226649" lon="11.3721915"><ele>38.0</ele><time>2026-05-01T06:11:32.962Z</time></trkpt><trkpt lat="44.5227123" lon="11.3721163"><ele>38.0</ele><time>2026-05-01T06:11:34.963Z</time></trkpt><trkpt lat="44.522787" lon="11.3720543"><ele>38.0</ele><time>2026-05-01T06:11:36.962Z</time></trkpt><trkpt lat="44.5228707" lon="11.3720143"><ele>38.0</ele><time>2026-05-01T06:11:38.959Z</time></trkpt><trkpt lat="44.5229676" lon="11.3719977"><ele>38.0</ele><time>2026-05-01T06:11:40.955Z</time></trkpt><trkpt lat="44.5230548" lon="11.3719777"><ele>38.0</ele><time>2026-05-01T06:11:42.95Z</time></trkpt><trkpt lat="44.5231442" lon="11.3719622"><ele>37.83333333333333</ele><time>2026-05-01T06:11:44.961Z</time></trkpt><trkpt lat="44.523235" lon="11.3719465"><ele>37.666666666666664</ele><time>2026-05-01T06:11:46.964Z</time></trkpt><trkpt lat="44.5233256" lon="11.3719192"><ele>37.5</ele><time>2026-05-01T06:11:48.957Z</time></trkpt><trkpt lat="44.5234124" lon="11.371869"><ele>37.333333333333336</ele><time>2026-05-01T06:11:50.962Z</time></trkpt><trkpt lat="44.5234916" lon="11.3718098"><ele>37.16666666666667</ele><time>2026-05-01T06:11:52.966Z</time></trkpt><trkpt lat="44.5235599" lon="11.3717527"><ele>37.0</ele><time>2026-05-01T06:11:54.945Z</time></trkpt><trkpt lat="44.5236205" lon="11.371706"><ele>37.0</ele><time>2026-05-01T06:11:56.957Z</time></trkpt><trkpt lat="44.5236795" lon="11.3716627"><ele>37.0</ele><time>2026-05-01T06:11:58.952Z</time></trkpt><trkpt lat="44.5237508" lon="11.3716147"><ele>37.0</ele><time>2026-05-01T06:12:00.956Z</time></trkpt><trkpt lat="44.5238344" lon="11.3715452"><ele>37.0</ele><time>2026-05-01T06:12:02.958Z</time></trkpt><trkpt lat="44.5239202" lon="11.3714855"><ele>37.0</ele><time>2026-05-01T06:12:04.962Z</time></trkpt><trkpt lat="44.5239965" lon="11.3714332"><ele>37.0</ele><time>2026-05-01T06:12:06.957Z</time></trkpt><trkpt lat="44.5240814" lon="11.3713681"><ele>36.800000000000004</ele><time>2026-05-01T06:12:08.966Z</time></trkpt><trkpt lat="44.524155" lon="11.3712875"><ele>36.6</ele><time>2026-05-01T06:12:10.952Z</time></trkpt><trkpt lat="44.5242019" lon="11.3711756"><ele>36.400000000000006</ele><time>2026-05-01T06:12:12.96Z</time></trkpt><trkpt lat="44.5242071" lon="11.3710435"><ele>36.2</ele><time>2026-05-01T06:12:14.953Z</time></trkpt><trkpt lat="44.5241953" lon="11.3709141"><ele>36.0</ele><time>2026-05-01T06:12:16.96Z</time></trkpt><trkpt lat="44.5241575" lon="11.3707965"><ele>36.0</ele><time>2026-05-01T06:12:18.966Z</time></trkpt><trkpt lat="44.5241219" lon="11.3706826"><ele>36.0</ele><time>2026-05-01T06:12:20.946Z</time></trkpt><trkpt lat="44.5240985" lon="11.370564"><ele>36.0</ele><time>2026-05-01T06:12:22.958Z</time></trkpt><trkpt lat="44.5240696" lon="11.3704459"><ele>36.0</ele><time>2026-05-01T06:12:24.959Z</time></trkpt><trkpt lat="44.5240366" lon="11.3703427"><ele>36.0</ele><time>2026-05-01T06:12:26.959Z</time></trkpt><trkpt lat="44.5240032" lon="11.3702371"><ele>36.0</ele><time>2026-05-01T06:12:28.974Z</time></trkpt><trkpt lat="44.5239846" lon="11.3701154"><ele>35.6</ele><time>2026-05-01T06:12:30.981Z</time></trkpt><trkpt lat="44.5239746" lon="11.3699861"><ele>35.2</ele><time>2026-05-01T06:12:32.954Z</time></trkpt><trkpt lat="44.5239985" lon="11.3698452"><ele>34.8</ele><time>2026-05-01T06:12:34.962Z</time></trkpt><trkpt lat="44.5240535" lon="11.3697175"><ele>34.4</ele><time>2026-05-01T06:12:36.958Z</time></trkpt><trkpt lat="44.5241301" lon="11.3696359"><ele>34.0</ele><time>2026-05-01T06:12:38.961Z</time></trkpt><trkpt lat="44.5242208" lon="11.3695762"><ele>34.0</ele><time>2026-05-01T06:12:40.961Z</time></trkpt><trkpt lat="44.5243198" lon="11.3695273"><ele>34.0</ele><time>2026-05-01T06:12:42.961Z</time></trkpt><trkpt lat="44.5244272" lon="11.3695175"><ele>34.0</ele><time>2026-05-01T06:12:44.962Z</time></trkpt><trkpt lat="44.5245359" lon="11.3695062"><ele>34.0</ele><time>2026-05-01T06:12:46.959Z</time></trkpt><trkpt lat="44.5246456" lon="11.3694985"><ele>34.0</ele><time>2026-05-01T06:12:48.959Z</time></trkpt><trkpt lat="44.5247512" lon="11.3694818"><ele>34.6</ele><time>2026-05-01T06:12:50.957Z</time></trkpt><trkpt lat="44.5248517" lon="11.3694641"><ele>35.2</ele><time>2026-05-01T06:12:52.964Z</time></trkpt><trkpt lat="44.5249514" lon="11.369453"><ele>35.800000000000004</ele><time>2026-05-01T06:12:54.964Z</time></trkpt><trkpt lat="44.5250583" lon="11.3694406"><ele>36.4</ele><time>2026-05-01T06:12:56.967Z</time></trkpt><trkpt lat="44.5251604" lon="11.3694297"><ele>37.0</ele><time>2026-05-01T06:12:58.959Z</time></trkpt><trkpt lat="44.525261" lon="11.3694088"><ele>37.0</ele><time>2026-05-01T06:13:00.973Z</time></trkpt><trkpt lat="44.525363" lon="11.3693788"><ele>37.0</ele><time>2026-05-01T06:13:02.949Z</time></trkpt><trkpt lat="44.5254649" lon="11.3693521"><ele>37.0</ele><time>2026-05-01T06:13:04.958Z</time></trkpt><trkpt lat="44.5255667" lon="11.369323"><ele>37.0</ele><time>2026-05-01T06:13:06.945Z</time></trkpt><trkpt lat="44.5256511" lon="11.3692667"><ele>37.0</ele><time>2026-05-01T06:13:08.939Z</time></trkpt><trkpt lat="44.5257344" lon="11.3691885"><ele>37.2</ele><time>2026-05-01T06:13:10.95Z</time></trkpt><trkpt lat="44.5258198" lon="11.3691206"><ele>37.400000000000006</ele><time>2026-05-01T06:13:12.953Z</time></trkpt><trkpt lat="44.5259161" lon="11.369055"><ele>37.599999999999994</ele><time>2026-05-01T06:13:14.958Z</time></trkpt><trkpt lat="44.5260128" lon="11.368987"><ele>37.8</ele><time>2026-05-01T06:13:16.964Z</time></trkpt><trkpt lat="44.5261078" lon="11.368928"><ele>38.0</ele><time>2026-05-01T06:13:18.975Z</time></trkpt><trkpt lat="44.5262058" lon="11.3688754"><ele>38.0</ele><time>2026-05-01T06:13:20.96Z</time></trkpt><trkpt lat="44.5263055" lon="11.3688257"><ele>38.0</ele><time>2026-05-01T06:13:22.967Z</time></trkpt><trkpt lat="44.5263932" lon="11.3688132"><ele>38.0</ele><time>2026-05-01T06:13:24.958Z</time></trkpt><trkpt lat="44.5264891" lon="11.3688121"><ele>38.0</ele><time>2026-05-01T06:13:26.97Z</time></trkpt><trkpt lat="44.526587" lon="11.3688084"><ele>38.0</ele><time>2026-05-01T06:13:28.968Z</time></trkpt><trkpt lat="44.5266733" lon="11.3688146"><ele>38.0</ele><time>2026-05-01T06:13:30.966Z</time></trkpt><trkpt lat="44.5267789" lon="11.368809"><ele>38.0</ele><time>2026-05-01T06:13:32.953Z</time></trkpt><trkpt lat="44.5268851" lon="11.3688007"><ele>38.0</ele><time>2026-05-01T06:13:34.968Z</time></trkpt><trkpt lat="44.5269903" lon="11.3687741"><ele>38.0</ele><time>2026-05-01T06:13:36.966Z</time></trkpt><trkpt lat="44.5270829" lon="11.3687101"><ele>38.0</ele><time>2026-05-01T06:13:38.959Z</time></trkpt><trkpt lat="44.5271703" lon="11.3686364"><ele>37.8</ele><time>2026-05-01T06:13:40.971Z</time></trkpt><trkpt lat="44.5272612" lon="11.3685645"><ele>37.599999999999994</ele><time>2026-05-01T06:13:42.96Z</time></trkpt><trkpt lat="44.527342" lon="11.3684759"><ele>37.400000000000006</ele><time>2026-05-01T06:13:44.961Z</time></trkpt><trkpt lat="44.5274346" lon="11.3683967"><ele>37.2</ele><time>2026-05-01T06:13:46.974Z</time></trkpt><trkpt lat="44.5275188" lon="11.3683163"><ele>37.0</ele><time>2026-05-01T06:13:48.945Z</time></trkpt><trkpt lat="44.5275989" lon="11.3682408"><ele>37.0</ele><time>2026-05-01T06:13:50.96Z</time></trkpt><trkpt lat="44.5276689" lon="11.3681632"><ele>37.0</ele><time>2026-05-01T06:13:52.953Z</time></trkpt><trkpt lat="44.5277371" lon="11.3680801"><ele>37.0</ele><time>2026-05-01T06:13:54.961Z</time></trkpt><trkpt lat="44.527785" lon="11.3679661"><ele>37.0</ele><time>2026-05-01T06:13:56.973Z</time></trkpt><trkpt lat="44.5277904" lon="11.3678406"><ele>37.0</ele><time>2026-05-01T06:13:58.957Z</time></trkpt><trkpt lat="44.5277531" lon="11.3677399"><ele>37.0</ele><time>2026-05-01T06:14:00.967Z</time></trkpt><trkpt lat="44.5277225" lon="11.3676321"><ele>36.833333333333336</ele><time>2026-05-01T06:14:02.967Z</time></trkpt><trkpt lat="44.5276777" lon="11.3675292"><ele>36.66666666666667</ele><time>2026-05-01T06:14:04.956Z</time></trkpt><trkpt lat="44.5276441" lon="11.367427"><ele>36.5</ele><time>2026-05-01T06:14:06.956Z</time></trkpt><trkpt lat="44.5276174" lon="11.3673146"><ele>36.333333333333336</ele><time>2026-05-01T06:14:08.969Z</time></trkpt><trkpt lat="44.5276023" lon="11.3671971"><ele>36.166666666666664</ele><time>2026-05-01T06:14:10.963Z</time></trkpt><trkpt lat="44.527632" lon="11.3671055"><ele>36.0</ele><time>2026-05-01T06:14:12.956Z</time></trkpt><trkpt lat="44.5277088" lon="11.3670593"><ele>36.0</ele><time>2026-05-01T06:14:15.954Z</time></trkpt><trkpt lat="44.5277857" lon="11.3670353"><ele>36.0</ele><time>2026-05-01T06:14:18.963Z</time></trkpt><trkpt lat="44.5278601" lon="11.3669804"><ele>36.0</ele><time>2026-05-01T06:14:21.943Z</time></trkpt><trkpt lat="44.5278839" lon="11.3668957"><ele>36.0</ele><time>2026-05-01T06:14:25.953Z</time></trkpt><trkpt lat="44.5278402" lon="11.366803"><ele>36.0</ele><time>2026-05-01T06:14:40.967Z</time></trkpt><trkpt lat="44.5277766" lon="11.3667537"><ele>36.0</ele><time>2026-05-01T06:14:43.954Z</time></trkpt><trkpt lat="44.5277654" lon="11.3666487"><ele>36.00000000000001</ele><time>2026-05-01T06:14:46.97Z</time></trkpt><trkpt lat="44.5277992" lon="11.3665732"><ele>36.0</ele><time>2026-05-01T06:14:48.976Z</time></trkpt><trkpt lat="44.5278367" lon="11.3664945"><ele>36.0</ele><time>2026-05-01T06:14:50.945Z</time></trkpt><trkpt lat="44.5278759" lon="11.3664063"><ele>36.0</ele><time>2026-05-01T06:14:52.945Z</time></trkpt><trkpt lat="44.5278996" lon="11.3662945"><ele>36.0</ele><time>2026-05-01T06:14:54.953Z</time></trkpt><trkpt lat="44.5279115" lon="11.3661813"><ele>36.00000000000001</ele><time>2026-05-01T06:14:56.947Z</time></trkpt><trkpt lat="44.5278959" lon="11.3660727"><ele>36.0</ele><time>2026-05-01T06:14:59.956Z</time></trkpt><trkpt lat="44.5278573" lon="11.3659657"><ele>35.833333333333336</ele><time>2026-05-01T06:15:02.951Z</time></trkpt><trkpt lat="44.5278267" lon="11.3658668"><ele>35.666666666666664</ele><time>2026-05-01T06:15:04.953Z</time></trkpt><trkpt lat="44.5277808" lon="11.3657879"><ele>35.5</ele><time>2026-05-01T06:15:06.954Z</time></trkpt><trkpt lat="44.5277235" lon="11.3656986"><ele>35.33333333333333</ele><time>2026-05-01T06:15:08.955Z</time></trkpt><trkpt lat="44.5276673" lon="11.3656028"><ele>35.166666666666664</ele><time>2026-05-01T06:15:10.95Z</time></trkpt><trkpt lat="44.5276058" lon="11.3655032"><ele>35.0</ele><time>2026-05-01T06:15:12.95Z</time></trkpt><trkpt lat="44.5275474" lon="11.3654082"><ele>35.0</ele><time>2026-05-01T06:15:14.957Z</time></trkpt><trkpt lat="44.5274876" lon="11.3653077"><ele>35.0</ele><time>2026-05-01T06:15:16.955Z</time></trkpt><trkpt lat="44.5274239" lon="11.3652031"><ele>35.0</ele><time>2026-05-01T06:15:18.956Z</time></trkpt><trkpt lat="44.5273615" lon="11.365102"><ele>35.0</ele><time>2026-05-01T06:15:20.953Z</time></trkpt><trkpt lat="44.5272974" lon="11.3650017"><ele>35.0</ele><time>2026-05-01T06:15:22.963Z</time></trkpt><trkpt lat="44.5272425" lon="11.3648956"><ele>35.0</ele><time>2026-05-01T06:15:24.954Z</time></trkpt><trkpt lat="44.5271833" lon="11.3648001"><ele>35.0</ele><time>2026-05-01T06:15:26.954Z</time></trkpt><trkpt lat="44.5271211" lon="11.3646992"><ele>35.0</ele><time>2026-05-01T06:15:28.956Z</time></trkpt><trkpt lat="44.5270664" lon="11.3646005"><ele>35.0</ele><time>2026-05-01T06:15:30.965Z</time></trkpt><trkpt lat="44.5270123" lon="11.364501"><ele>35.0</ele><time>2026-05-01T06:15:32.967Z</time></trkpt><trkpt lat="44.5269569" lon="11.3643903"><ele>35.166666666666664</ele><time>2026-05-01T06:15:34.969Z</time></trkpt><trkpt lat="44.526896" lon="11.3642813"><ele>35.33333333333333</ele><time>2026-05-01T06:15:36.959Z</time></trkpt><trkpt lat="44.5268359" lon="11.3641707"><ele>35.5</ele><time>2026-05-01T06:15:38.966Z</time></trkpt><trkpt lat="44.5267803" lon="11.3640847"><ele>35.666666666666664</ele><time>2026-05-01T06:15:40.966Z</time></trkpt><trkpt lat="44.526723" lon="11.3640044"><ele>35.833333333333336</ele><time>2026-05-01T06:15:42.959Z</time></trkpt><trkpt lat="44.5266663" lon="11.3639204"><ele>36.0</ele><time>2026-05-01T06:15:44.95Z</time></trkpt><trkpt lat="44.5266084" lon="11.3638314"><ele>36.0</ele><time>2026-05-01T06:15:46.957Z</time></trkpt><trkpt lat="44.5265276" lon="11.3637663"><ele>36.0</ele><time>2026-05-01T06:15:48.963Z</time></trkpt><trkpt lat="44.5264773" lon="11.3636603"><ele>36.0</ele><time>2026-05-01T06:15:50.953Z</time></trkpt><trkpt lat="44.5264471" lon="11.3635299"><ele>36.0</ele><time>2026-05-01T06:15:52.968Z</time></trkpt><trkpt lat="44.5264399" lon="11.3633864"><ele>36.0</ele><time>2026-05-01T06:15:54.961Z</time></trkpt><trkpt lat="44.5264194" lon="11.3632591"><ele>36.0</ele><time>2026-05-01T06:15:56.965Z</time></trkpt><trkpt lat="44.5263638" lon="11.3631455"><ele>36.0</ele><time>2026-05-01T06:15:58.962Z</time></trkpt><trkpt lat="44.5262737" lon="11.3630866"><ele>36.0</ele><time>2026-05-01T06:16:00.962Z</time></trkpt><trkpt lat="44.5261615" lon="11.3630321"><ele>36.0</ele><time>2026-05-01T06:16:02.962Z</time></trkpt><trkpt lat="44.526077" lon="11.3629672"><ele>36.0</ele><time>2026-05-01T06:16:04.961Z</time></trkpt><trkpt lat="44.5259931" lon="11.3629449"><ele>36.166666666666664</ele><time>2026-05-01T06:16:07.962Z</time></trkpt><trkpt lat="44.5259115" lon="11.3629762"><ele>36.333333333333336</ele><time>2026-05-01T06:16:10.968Z</time></trkpt><trkpt lat="44.5258578" lon="11.3628934"><ele>36.5</ele><time>2026-05-01T06:16:12.957Z</time></trkpt><trkpt lat="44.5258343" lon="11.3627776"><ele>36.66666666666667</ele><time>2026-05-01T06:16:14.941Z</time></trkpt><trkpt lat="44.5257833" lon="11.3626564"><ele>36.833333333333336</ele><time>2026-05-01T06:16:16.954Z</time></trkpt><trkpt lat="44.5257225" lon="11.3625531"><ele>37.0</ele><time>2026-05-01T06:16:18.954Z</time></trkpt><trkpt lat="44.5256633" lon="11.362461"><ele>37.0</ele><time>2026-05-01T06:16:20.955Z</time></trkpt><trkpt lat="44.5256021" lon="11.3623582"><ele>37.0</ele><time>2026-05-01T06:16:22.962Z</time></trkpt><trkpt lat="44.5255373" lon="11.3622617"><ele>37.0</ele><time>2026-05-01T06:16:24.962Z</time></trkpt><trkpt lat="44.525474" lon="11.3621654"><ele>37.0</ele><time>2026-05-01T06:16:26.953Z</time></trkpt><trkpt lat="44.5253936" lon="11.3621008"><ele>37.0</ele><time>2026-05-01T06:16:28.954Z</time></trkpt><trkpt lat="44.5253188" lon="11.3620101"><ele>36.6</ele><time>2026-05-01T06:16:30.97Z</time></trkpt><trkpt lat="44.5252416" lon="11.3619299"><ele>36.2</ele><time>2026-05-01T06:16:32.952Z</time></trkpt><trkpt lat="44.525171" lon="11.3618472"><ele>35.8</ele><time>2026-05-01T06:16:34.951Z</time></trkpt><trkpt lat="44.5251019" lon="11.3617512"><ele>35.4</ele><time>2026-05-01T06:16:36.952Z</time></trkpt><trkpt lat="44.5250233" lon="11.3616676"><ele>35.0</ele><time>2026-05-01T06:16:38.951Z</time></trkpt><trkpt lat="44.5249359" lon="11.3615624"><ele>35.0</ele><time>2026-05-01T06:16:40.95Z</time></trkpt><trkpt lat="44.5248551" lon="11.3614636"><ele>35.0</ele><time>2026-05-01T06:16:42.957Z</time></trkpt><trkpt lat="44.524782" lon="11.3613756"><ele>35.0</ele><time>2026-05-01T06:16:44.952Z</time></trkpt><trkpt lat="44.524707" lon="11.3612885"><ele>35.0</ele><time>2026-05-01T06:16:46.952Z</time></trkpt><trkpt lat="44.5246275" lon="11.3612072"><ele>35.0</ele><time>2026-05-01T06:16:48.954Z</time></trkpt><trkpt lat="44.5245447" lon="11.3611181"><ele>35.4</ele><time>2026-05-01T06:16:50.95Z</time></trkpt><trkpt lat="44.5244709" lon="11.3610072"><ele>35.8</ele><time>2026-05-01T06:16:52.953Z</time></trkpt><trkpt lat="44.5243979" lon="11.3609081"><ele>36.2</ele><time>2026-05-01T06:16:54.941Z</time></trkpt><trkpt lat="44.5242987" lon="11.360828"><ele>36.6</ele><time>2026-05-01T06:16:56.947Z</time></trkpt><trkpt lat="44.5242128" lon="11.360767"><ele>37.0</ele><time>2026-05-01T06:16:58.947Z</time></trkpt><trkpt lat="44.5241315" lon="11.3606827"><ele>37.0</ele><time>2026-05-01T06:17:00.952Z</time></trkpt><trkpt lat="44.5240504" lon="11.3606335"><ele>37.0</ele><time>2026-05-01T06:17:02.95Z</time></trkpt><trkpt lat="44.5239987" lon="11.3605819"><ele>37.0</ele><time>2026-05-01T06:17:03.963Z</time></trkpt><trkpt lat="44.5239173" lon="11.360485"><ele>37.0</ele><time>2026-05-01T06:17:05.956Z</time></trkpt><trkpt lat="44.5238469" lon="11.3603982"><ele>37.0</ele><time>2026-05-01T06:17:07.959Z</time></trkpt><trkpt lat="44.5237808" lon="11.3603321"><ele>37.0</ele><time>2026-05-01T06:17:09.955Z</time></trkpt><trkpt lat="44.5236945" lon="11.3602561"><ele>36.4</ele><time>2026-05-01T06:17:11.954Z</time></trkpt><trkpt lat="44.5236123" lon="11.3601826"><ele>35.800000000000004</ele><time>2026-05-01T06:17:13.962Z</time></trkpt><trkpt lat="44.5235383" lon="11.360111"><ele>35.2</ele><time>2026-05-01T06:17:15.953Z</time></trkpt><trkpt lat="44.5234673" lon="11.3600367"><ele>34.6</ele><time>2026-05-01T06:17:17.953Z</time></trkpt><trkpt lat="44.5233893" lon="11.359965"><ele>34.0</ele><time>2026-05-01T06:17:19.96Z</time></trkpt><trkpt lat="44.5233083" lon="11.3599036"><ele>34.0</ele><time>2026-05-01T06:17:21.957Z</time></trkpt><trkpt lat="44.5232272" lon="11.3598378"><ele>34.0</ele><time>2026-05-01T06:17:23.958Z</time></trkpt><trkpt lat="44.5231495" lon="11.3597687"><ele>34.0</ele><time>2026-05-01T06:17:25.956Z</time></trkpt><trkpt lat="44.5230607" lon="11.3596969"><ele>34.0</ele><time>2026-05-01T06:17:27.949Z</time></trkpt><trkpt lat="44.5229756" lon="11.3596261"><ele>34.0</ele><time>2026-05-01T06:17:29.951Z</time></trkpt><trkpt lat="44.5228873" lon="11.3595244"><ele>34.25</ele><time>2026-05-01T06:17:31.953Z</time></trkpt><trkpt lat="44.5228081" lon="11.3594114"><ele>34.5</ele><time>2026-05-01T06:17:33.955Z</time></trkpt><trkpt lat="44.5227157" lon="11.3593119"><ele>34.75</ele><time>2026-05-01T06:17:35.958Z</time></trkpt><trkpt lat="44.5226153" lon="11.3592325"><ele>35.0</ele><time>2026-05-01T06:17:37.956Z</time></trkpt><trkpt lat="44.5225216" lon="11.3591539"><ele>35.0</ele><time>2026-05-01T06:17:39.959Z</time></trkpt><trkpt lat="44.5224334" lon="11.3590724"><ele>35.0</ele><time>2026-05-01T06:17:41.955Z</time></trkpt><trkpt lat="44.5223508" lon="11.3589896"><ele>35.0</ele><time>2026-05-01T06:17:43.958Z</time></trkpt><trkpt lat="44.5222645" lon="11.3589181"><ele>35.0</ele><time>2026-05-01T06:17:45.951Z</time></trkpt><trkpt lat="44.522171" lon="11.3588484"><ele>35.0</ele><time>2026-05-01T06:17:47.953Z</time></trkpt><trkpt lat="44.5220793" lon="11.3587867"><ele>35.4</ele><time>2026-05-01T06:17:49.958Z</time></trkpt><trkpt lat="44.521988" lon="11.3587207"><ele>35.8</ele><time>2026-05-01T06:17:51.958Z</time></trkpt><trkpt lat="44.5218939" lon="11.3586629"><ele>36.2</ele><time>2026-05-01T06:17:53.965Z</time></trkpt><trkpt lat="44.5217985" lon="11.3586001"><ele>36.6</ele><time>2026-05-01T06:17:55.958Z</time></trkpt><trkpt lat="44.5217055" lon="11.3585355"><ele>37.0</ele><time>2026-05-01T06:17:57.962Z</time></trkpt><trkpt lat="44.5216116" lon="11.3584813"><ele>37.0</ele><time>2026-05-01T06:17:59.953Z</time></trkpt><trkpt lat="44.5215215" lon="11.3584177"><ele>37.0</ele><time>2026-05-01T06:18:01.952Z</time></trkpt><trkpt lat="44.521425" lon="11.3583585"><ele>37.0</ele><time>2026-05-01T06:18:03.954Z</time></trkpt><trkpt lat="44.521332" lon="11.3582913"><ele>37.0</ele><time>2026-05-01T06:18:05.951Z</time></trkpt><trkpt lat="44.5212432" lon="11.3582333"><ele>37.0</ele><time>2026-05-01T06:18:07.949Z</time></trkpt><trkpt lat="44.5211521" lon="11.3581821"><ele>37.2</ele><time>2026-05-01T06:18:09.952Z</time></trkpt><trkpt lat="44.5210621" lon="11.3581234"><ele>37.400000000000006</ele><time>2026-05-01T06:18:11.954Z</time></trkpt><trkpt lat="44.5209787" lon="11.3580711"><ele>37.599999999999994</ele><time>2026-05-01T06:18:13.947Z</time></trkpt><trkpt lat="44.5208873" lon="11.3580094"><ele>37.8</ele><time>2026-05-01T06:18:15.95Z</time></trkpt><trkpt lat="44.5207978" lon="11.3579517"><ele>38.0</ele><time>2026-05-01T06:18:17.95Z</time></trkpt><trkpt lat="44.5207115" lon="11.3578955"><ele>38.0</ele><time>2026-05-01T06:18:19.952Z</time></trkpt><trkpt lat="44.5206206" lon="11.3578277"><ele>38.0</ele><time>2026-05-01T06:18:21.955Z</time></trkpt><trkpt lat="44.5205286" lon="11.3577634"><ele>38.0</ele><time>2026-05-01T06:18:23.944Z</time></trkpt><trkpt lat="44.5204239" lon="11.3577015"><ele>38.0</ele><time>2026-05-01T06:18:25.952Z</time></trkpt><trkpt lat="44.5203244" lon="11.3576386"><ele>38.0</ele><time>2026-05-01T06:18:27.953Z</time></trkpt><trkpt lat="44.5202346" lon="11.3575692"><ele>37.6</ele><time>2026-05-01T06:18:29.949Z</time></trkpt><trkpt lat="44.5201404" lon="11.3575135"><ele>37.199999999999996</ele><time>2026-05-01T06:18:31.951Z</time></trkpt><trkpt lat="44.5200401" lon="11.3574497"><ele>36.8</ele><time>2026-05-01T06:18:33.952Z</time></trkpt><trkpt lat="44.5199459" lon="11.3573824"><ele>36.4</ele><time>2026-05-01T06:18:35.959Z</time></trkpt><trkpt lat="44.5198459" lon="11.3573112"><ele>36.0</ele><time>2026-05-01T06:18:37.952Z</time></trkpt><trkpt lat="44.5197568" lon="11.3572479"><ele>36.0</ele><time>2026-05-01T06:18:39.94Z</time></trkpt><trkpt lat="44.5196646" lon="11.3572167"><ele>36.0</ele><time>2026-05-01T06:18:41.952Z</time></trkpt><trkpt lat="44.51957" lon="11.3571611"><ele>36.0</ele><time>2026-05-01T06:18:43.945Z</time></trkpt><trkpt lat="44.5194805" lon="11.3570817"><ele>36.0</ele><time>2026-05-01T06:18:45.953Z</time></trkpt><trkpt lat="44.5193907" lon="11.3570042"><ele>36.0</ele><time>2026-05-01T06:18:47.951Z</time></trkpt><trkpt lat="44.5192922" lon="11.3569601"><ele>36.8</ele><time>2026-05-01T06:18:49.95Z</time></trkpt><trkpt lat="44.5192032" lon="11.3569071"><ele>37.6</ele><time>2026-05-01T06:18:51.95Z</time></trkpt><trkpt lat="44.5191146" lon="11.3568556"><ele>38.4</ele><time>2026-05-01T06:18:53.942Z</time></trkpt><trkpt lat="44.5190267" lon="11.3568029"><ele>39.2</ele><time>2026-05-01T06:18:55.946Z</time></trkpt><trkpt lat="44.5189399" lon="11.3567538"><ele>40.0</ele><time>2026-05-01T06:18:57.955Z</time></trkpt><trkpt lat="44.5188498" lon="11.3567053"><ele>40.0</ele><time>2026-05-01T06:18:59.96Z</time></trkpt><trkpt lat="44.5187704" lon="11.3566595"><ele>40.0</ele><time>2026-05-01T06:19:01.965Z</time></trkpt><trkpt lat="44.5186924" lon="11.3566119"><ele>40.0</ele><time>2026-05-01T06:19:03.961Z</time></trkpt><trkpt lat="44.5186323" lon="11.3565725"><ele>40.0</ele><time>2026-05-01T06:19:05.963Z</time></trkpt><trkpt lat="44.5185671" lon="11.3565347"><ele>40.0</ele><time>2026-05-01T06:19:08.959Z</time></trkpt><trkpt lat="44.5185054" lon="11.3565124"><ele>40.0</ele><time>2026-05-01T06:19:58.964Z</time></trkpt><trkpt lat="44.5184401" lon="11.3564525"><ele>40.2</ele><time>2026-05-01T06:20:02.975Z</time></trkpt><trkpt lat="44.5183836" lon="11.3563956"><ele>40.4</ele><time>2026-05-01T06:20:04.956Z</time></trkpt><trkpt lat="44.5183228" lon="11.3563341"><ele>40.599999999999994</ele><time>2026-05-01T06:20:06.967Z</time></trkpt><trkpt lat="44.5182325" lon="11.3562648"><ele>40.8</ele><time>2026-05-01T06:20:08.95Z</time></trkpt><trkpt lat="44.5181417" lon="11.3561939"><ele>41.0</ele><time>2026-05-01T06:20:10.961Z</time></trkpt><trkpt lat="44.5180502" lon="11.3561212"><ele>40.599999999999994</ele><time>2026-05-01T06:20:12.97Z</time></trkpt><trkpt lat="44.5179661" lon="11.3560483"><ele>40.199999999999996</ele><time>2026-05-01T06:20:14.959Z</time></trkpt><trkpt lat="44.5178823" lon="11.3559769"><ele>39.8</ele><time>2026-05-01T06:20:16.97Z</time></trkpt><trkpt lat="44.5178024" lon="11.3558994"><ele>39.4</ele><time>2026-05-01T06:20:18.952Z</time></trkpt><trkpt lat="44.5177238" lon="11.3558117"><ele>39.0</ele><time>2026-05-01T06:20:20.959Z</time></trkpt><trkpt lat="44.5176366" lon="11.3557371"><ele>39.0</ele><time>2026-05-01T06:20:22.957Z</time></trkpt><trkpt lat="44.5175462" lon="11.3556607"><ele>39.0</ele><time>2026-05-01T06:20:24.96Z</time></trkpt><trkpt lat="44.5174525" lon="11.3555763"><ele>39.0</ele><time>2026-05-01T06:20:26.964Z</time></trkpt><trkpt lat="44.5173587" lon="11.355499"><ele>39.0</ele><time>2026-05-01T06:20:28.962Z</time></trkpt><trkpt lat="44.5172641" lon="11.3554328"><ele>39.0</ele><time>2026-05-01T06:20:30.955Z</time></trkpt><trkpt lat="44.5171673" lon="11.3553548"><ele>39.2</ele><time>2026-05-01T06:20:32.964Z</time></trkpt><trkpt lat="44.5170714" lon="11.3552801"><ele>39.4</ele><time>2026-05-01T06:20:34.96Z</time></trkpt><trkpt lat="44.5169734" lon="11.355212"><ele>39.6</ele><time>2026-05-01T06:20:36.969Z</time></trkpt><trkpt lat="44.5168718" lon="11.3551413"><ele>39.8</ele><time>2026-05-01T06:20:38.969Z</time></trkpt><trkpt lat="44.5167843" lon="11.355063"><ele>40.0</ele><time>2026-05-01T06:20:40.965Z</time></trkpt><trkpt lat="44.5166925" lon="11.3549874"><ele>40.0</ele><time>2026-05-01T06:20:42.97Z</time></trkpt><trkpt lat="44.5165985" lon="11.3549175"><ele>40.0</ele><time>2026-05-01T06:20:44.976Z</time></trkpt><trkpt lat="44.5165079" lon="11.3548288"><ele>40.0</ele><time>2026-05-01T06:20:46.968Z</time></trkpt><trkpt lat="44.5164089" lon="11.3547462"><ele>40.0</ele><time>2026-05-01T06:20:48.96Z</time></trkpt><trkpt lat="44.5163155" lon="11.3546621"><ele>40.0</ele><time>2026-05-01T06:20:50.955Z</time></trkpt><trkpt lat="44.5162142" lon="11.3546036"><ele>40.0</ele><time>2026-05-01T06:20:52.959Z</time></trkpt><trkpt lat="44.5161072" lon="11.3545757"><ele>40.0</ele><time>2026-05-01T06:20:54.952Z</time></trkpt><trkpt lat="44.5159968" lon="11.3545529"><ele>40.0</ele><time>2026-05-01T06:20:56.952Z</time></trkpt><trkpt lat="44.5158791" lon="11.354529"><ele>40.0</ele><time>2026-05-01T06:20:58.955Z</time></trkpt><trkpt lat="44.5157698" lon="11.3545259"><ele>40.0</ele><time>2026-05-01T06:21:00.952Z</time></trkpt><trkpt lat="44.5156525" lon="11.354526"><ele>40.0</ele><time>2026-05-01T06:21:02.954Z</time></trkpt><trkpt lat="44.5155369" lon="11.3545126"><ele>40.0</ele><time>2026-05-01T06:21:04.95Z</time></trkpt><trkpt lat="44.5154312" lon="11.3544919"><ele>40.0</ele><time>2026-05-01T06:21:06.954Z</time></trkpt><trkpt lat="44.5153191" lon="11.354465"><ele>40.0</ele><time>2026-05-01T06:21:08.949Z</time></trkpt><trkpt lat="44.5152044" lon="11.3544627"><ele>40.4</ele><time>2026-05-01T06:21:10.955Z</time></trkpt><trkpt lat="44.5150947" lon="11.3544624"><ele>40.8</ele><time>2026-05-01T06:21:12.964Z</time></trkpt><trkpt lat="44.5149857" lon="11.3544548"><ele>41.2</ele><time>2026-05-01T06:21:14.956Z</time></trkpt><trkpt lat="44.5148814" lon="11.3544373"><ele>41.6</ele><time>2026-05-01T06:21:16.96Z</time></trkpt><trkpt lat="44.5147734" lon="11.3544242"><ele>42.0</ele><time>2026-05-01T06:21:18.952Z</time></trkpt><trkpt lat="44.5146603" lon="11.354419"><ele>42.2</ele><time>2026-05-01T06:21:20.957Z</time></trkpt><trkpt lat="44.5145519" lon="11.354412"><ele>42.400000000000006</ele><time>2026-05-01T06:21:22.956Z</time></trkpt><trkpt lat="44.5144415" lon="11.3543982"><ele>42.599999999999994</ele><time>2026-05-01T06:21:24.957Z</time></trkpt><trkpt lat="44.5143374" lon="11.3543802"><ele>42.8</ele><time>2026-05-01T06:21:26.954Z</time></trkpt><trkpt lat="44.5142335" lon="11.3543451"><ele>43.0</ele><time>2026-05-01T06:21:28.961Z</time></trkpt><trkpt lat="44.5141263" lon="11.3543192"><ele>43.0</ele><time>2026-05-01T06:21:30.947Z</time></trkpt><trkpt lat="44.5140258" lon="11.3542797"><ele>43.0</ele><time>2026-05-01T06:21:32.95Z</time></trkpt><trkpt lat="44.5139246" lon="11.3542381"><ele>43.0</ele><time>2026-05-01T06:21:34.954Z</time></trkpt><trkpt lat="44.5138258" lon="11.3541888"><ele>43.0</ele><time>2026-05-01T06:21:36.962Z</time></trkpt><trkpt lat="44.5137217" lon="11.3541334"><ele>43.0</ele><time>2026-05-01T06:21:38.948Z</time></trkpt><trkpt lat="44.5136231" lon="11.3540806"><ele>43.0</ele><time>2026-05-01T06:21:40.95Z</time></trkpt><trkpt lat="44.5135276" lon="11.3540401"><ele>43.0</ele><time>2026-05-01T06:21:42.953Z</time></trkpt><trkpt lat="44.5134317" lon="11.3539965"><ele>43.0</ele><time>2026-05-01T06:21:44.953Z</time></trkpt><trkpt lat="44.5133312" lon="11.3539493"><ele>43.0</ele><time>2026-05-01T06:21:46.952Z</time></trkpt><trkpt lat="44.5132349" lon="11.3539015"><ele>43.0</ele><time>2026-05-01T06:21:48.948Z</time></trkpt><trkpt lat="44.5131372" lon="11.3538576"><ele>43.0</ele><time>2026-05-01T06:21:50.945Z</time></trkpt><trkpt lat="44.5130398" lon="11.3538186"><ele>43.0</ele><time>2026-05-01T06:21:52.945Z</time></trkpt><trkpt lat="44.5129375" lon="11.3537738"><ele>43.0</ele><time>2026-05-01T06:21:54.95Z</time></trkpt><trkpt lat="44.5128314" lon="11.353711"><ele>43.0</ele><time>2026-05-01T06:21:56.952Z</time></trkpt><trkpt lat="44.5127359" lon="11.35366"><ele>43.0</ele><time>2026-05-01T06:21:58.946Z</time></trkpt><trkpt lat="44.51263" lon="11.3536186"><ele>43.0</ele><time>2026-05-01T06:22:00.957Z</time></trkpt><trkpt lat="44.5125146" lon="11.3535883"><ele>43.0</ele><time>2026-05-01T06:22:02.951Z</time></trkpt><trkpt lat="44.5124084" lon="11.3535454"><ele>43.0</ele><time>2026-05-01T06:22:04.949Z</time></trkpt><trkpt lat="44.5123131" lon="11.353497"><ele>43.0</ele><time>2026-05-01T06:22:06.953Z</time></trkpt><trkpt lat="44.5122063" lon="11.3534423"><ele>43.0</ele><time>2026-05-01T06:22:08.951Z</time></trkpt><trkpt lat="44.5120949" lon="11.3533782"><ele>43.25</ele><time>2026-05-01T06:22:10.957Z</time></trkpt><trkpt lat="44.5119846" lon="11.3533152"><ele>43.5</ele><time>2026-05-01T06:22:12.957Z</time></trkpt><trkpt lat="44.5118739" lon="11.3532466"><ele>43.75</ele><time>2026-05-01T06:22:14.953Z</time></trkpt><trkpt lat="44.5117688" lon="11.3531934"><ele>44.0</ele><time>2026-05-01T06:22:16.952Z</time></trkpt><trkpt lat="44.5116705" lon="11.3531373"><ele>44.0</ele><time>2026-05-01T06:22:18.95Z</time></trkpt><trkpt lat="44.5115613" lon="11.3530916"><ele>44.0</ele><time>2026-05-01T06:22:20.954Z</time></trkpt><trkpt lat="44.5114571" lon="11.3530321"><ele>44.0</ele><time>2026-05-01T06:22:22.95Z</time></trkpt><trkpt lat="44.5113523" lon="11.3529841"><ele>44.0</ele><time>2026-05-01T06:22:24.957Z</time></trkpt><trkpt lat="44.5112528" lon="11.35294"><ele>44.0</ele><time>2026-05-01T06:22:26.956Z</time></trkpt><trkpt lat="44.5111693" lon="11.3528983"><ele>44.166666666666664</ele><time>2026-05-01T06:22:28.957Z</time></trkpt><trkpt lat="44.5111026" lon="11.3528786"><ele>44.33333333333333</ele><time>2026-05-01T06:22:30.952Z</time></trkpt><trkpt lat="44.5110366" lon="11.3528372"><ele>44.5</ele><time>2026-05-01T06:22:32.954Z</time></trkpt><trkpt lat="44.5109484" lon="11.3528159"><ele>44.666666666666664</ele><time>2026-05-01T06:22:34.951Z</time></trkpt><trkpt lat="44.510859" lon="11.3527714"><ele>44.833333333333336</ele><time>2026-05-01T06:22:36.951Z</time></trkpt><trkpt lat="44.510773" lon="11.3527123"><ele>45.0</ele><time>2026-05-01T06:22:38.945Z</time></trkpt><trkpt lat="44.510681" lon="11.3526597"><ele>45.0</ele><time>2026-05-01T06:22:40.946Z</time></trkpt><trkpt lat="44.5105849" lon="11.3526175"><ele>45.0</ele><time>2026-05-01T06:22:42.951Z</time></trkpt><trkpt lat="44.5104927" lon="11.3525676"><ele>45.0</ele><time>2026-05-01T06:22:44.953Z</time></trkpt><trkpt lat="44.5103938" lon="11.3525241"><ele>45.0</ele><time>2026-05-01T06:22:46.951Z</time></trkpt><trkpt lat="44.5103137" lon="11.3524947"><ele>45.0</ele><time>2026-05-01T06:22:48.954Z</time></trkpt><trkpt lat="44.5102485" lon="11.3524616"><ele>45.166666666666664</ele><time>2026-05-01T06:22:50.951Z</time></trkpt><trkpt lat="44.5101685" lon="11.3524233"><ele>45.333333333333336</ele><time>2026-05-01T06:22:52.951Z</time></trkpt><trkpt lat="44.5100832" lon="11.3523829"><ele>45.5</ele><time>2026-05-01T06:22:54.946Z</time></trkpt><trkpt lat="44.5100014" lon="11.3523535"><ele>45.66666666666667</ele><time>2026-05-01T06:22:56.953Z</time></trkpt><trkpt lat="44.5099306" lon="11.3523114"><ele>45.833333333333336</ele><time>2026-05-01T06:22:58.953Z</time></trkpt><trkpt lat="44.5098487" lon="11.3522689"><ele>46.0</ele><time>2026-05-01T06:23:00.953Z</time></trkpt><trkpt lat="44.5097546" lon="11.3522366"><ele>45.8</ele><time>2026-05-01T06:23:02.947Z</time></trkpt><trkpt lat="44.5096608" lon="11.3521973"><ele>45.599999999999994</ele><time>2026-05-01T06:23:04.953Z</time></trkpt><trkpt lat="44.5095596" lon="11.3521495"><ele>45.4</ele><time>2026-05-01T06:23:06.956Z</time></trkpt><trkpt lat="44.5094572" lon="11.3520869"><ele>45.2</ele><time>2026-05-01T06:23:08.957Z</time></trkpt><trkpt lat="44.5093591" lon="11.3520161"><ele>45.0</ele><time>2026-05-01T06:23:10.953Z</time></trkpt><trkpt lat="44.5092604" lon="11.3519674"><ele>45.0</ele><time>2026-05-01T06:23:12.954Z</time></trkpt><trkpt lat="44.5091684" lon="11.3519339"><ele>45.0</ele><time>2026-05-01T06:23:14.957Z</time></trkpt><trkpt lat="44.5090685" lon="11.3518957"><ele>45.0</ele><time>2026-05-01T06:23:16.951Z</time></trkpt><trkpt lat="44.5089734" lon="11.351853"><ele>45.0</ele><time>2026-05-01T06:23:18.963Z</time></trkpt><trkpt lat="44.5088775" lon="11.3518095"><ele>45.0</ele><time>2026-05-01T06:23:20.951Z</time></trkpt><trkpt lat="44.5087754" lon="11.3517582"><ele>45.0</ele><time>2026-05-01T06:23:22.953Z</time></trkpt><trkpt lat="44.5086834" lon="11.3517334"><ele>45.0</ele><time>2026-05-01T06:23:24.952Z</time></trkpt><trkpt lat="44.5085816" lon="11.3516963"><ele>45.0</ele><time>2026-05-01T06:23:26.949Z</time></trkpt><trkpt lat="44.5084832" lon="11.3516621"><ele>45.0</ele><time>2026-05-01T06:23:28.95Z</time></trkpt><trkpt lat="44.5083842" lon="11.3516333"><ele>45.0</ele><time>2026-05-01T06:23:30.953Z</time></trkpt><trkpt lat="44.5083047" lon="11.3516028"><ele>45.0</ele><time>2026-05-01T06:23:32.955Z</time></trkpt><trkpt lat="44.5082234" lon="11.3516282"><ele>45.0</ele><time>2026-05-01T06:23:35.949Z</time></trkpt><trkpt lat="44.5081943" lon="11.3517124"><ele>45.0</ele><time>2026-05-01T06:23:37.95Z</time></trkpt><trkpt lat="44.5081946" lon="11.3518329"><ele>45.0</ele><time>2026-05-01T06:23:39.95Z</time></trkpt><trkpt lat="44.508191" lon="11.351957"><ele>45.0</ele><time>2026-05-01T06:23:41.952Z</time></trkpt><trkpt lat="44.5081695" lon="11.3520859"><ele>45.0</ele><time>2026-05-01T06:23:43.952Z</time></trkpt><trkpt lat="44.5081544" lon="11.3522305"><ele>44.6</ele><time>2026-05-01T06:23:45.956Z</time></trkpt><trkpt lat="44.508135" lon="11.3523766"><ele>44.2</ele><time>2026-05-01T06:23:47.953Z</time></trkpt><trkpt lat="44.5081094" lon="11.3525226"><ele>43.8</ele><time>2026-05-01T06:23:49.954Z</time></trkpt><trkpt lat="44.5080768" lon="11.3526672"><ele>43.4</ele><time>2026-05-01T06:23:51.959Z</time></trkpt><trkpt lat="44.5080561" lon="11.3528052"><ele>43.0</ele><time>2026-05-01T06:23:53.962Z</time></trkpt><trkpt lat="44.508032" lon="11.3529558"><ele>42.8</ele><time>2026-05-01T06:23:55.961Z</time></trkpt><trkpt lat="44.5080134" lon="11.3531126"><ele>42.599999999999994</ele><time>2026-05-01T06:23:57.955Z</time></trkpt><trkpt lat="44.507988" lon="11.353267"><ele>42.400000000000006</ele><time>2026-05-01T06:23:59.963Z</time></trkpt><trkpt lat="44.5079632" lon="11.353415"><ele>42.2</ele><time>2026-05-01T06:24:01.962Z</time></trkpt><trkpt lat="44.5079363" lon="11.3535642"><ele>42.0</ele><time>2026-05-01T06:24:03.962Z</time></trkpt><trkpt lat="44.507916" lon="11.353711"><ele>42.6</ele><time>2026-05-01T06:24:05.963Z</time></trkpt><trkpt lat="44.5078958" lon="11.3538563"><ele>43.2</ele><time>2026-05-01T06:24:07.966Z</time></trkpt><trkpt lat="44.507879" lon="11.35401"><ele>43.8</ele><time>2026-05-01T06:24:09.962Z</time></trkpt><trkpt lat="44.5078624" lon="11.3541708"><ele>44.4</ele><time>2026-05-01T06:24:11.949Z</time></trkpt><trkpt lat="44.5078309" lon="11.3543216"><ele>45.0</ele><time>2026-05-01T06:24:13.961Z</time></trkpt><trkpt lat="44.5077993" lon="11.3544574"><ele>45.0</ele><time>2026-05-01T06:24:15.965Z</time></trkpt><trkpt lat="44.5077836" lon="11.3546062"><ele>45.0</ele><time>2026-05-01T06:24:17.964Z</time></trkpt><trkpt lat="44.5077825" lon="11.3547535"><ele>45.0</ele><time>2026-05-01T06:24:19.962Z</time></trkpt><trkpt lat="44.5077676" lon="11.3548943"><ele>45.0</ele><time>2026-05-01T06:24:21.956Z</time></trkpt><trkpt lat="44.5077439" lon="11.3550055"><ele>45.0</ele><time>2026-05-01T06:24:23.965Z</time></trkpt><trkpt lat="44.5077205" lon="11.3551278"><ele>45.14285714285714</ele><time>2026-05-01T06:24:26.963Z</time></trkpt><trkpt lat="44.5077054" lon="11.3552293"><ele>45.28571428571429</ele><time>2026-05-01T06:24:29.955Z</time></trkpt><trkpt lat="44.5076857" lon="11.3553391"><ele>45.42857142857143</ele><time>2026-05-01T06:24:32.961Z</time></trkpt><trkpt lat="44.5076118" lon="11.3553524"><ele>45.57142857142857</ele><time>2026-05-01T06:24:35.953Z</time></trkpt><trkpt lat="44.5075441" lon="11.3553213"><ele>45.71428571428571</ele><time>2026-05-01T06:24:37.961Z</time></trkpt><trkpt lat="44.5074792" lon="11.3552901"><ele>45.85714285714286</ele><time>2026-05-01T06:24:39.96Z</time></trkpt><trkpt lat="44.5074131" lon="11.3552626"><ele>46.0</ele><time>2026-05-01T06:24:41.954Z</time></trkpt><trkpt lat="44.5073357" lon="11.3552211"><ele>46.0</ele><time>2026-05-01T06:24:43.963Z</time></trkpt><trkpt lat="44.5072553" lon="11.3551885"><ele>46.0</ele><time>2026-05-01T06:24:45.964Z</time></trkpt><trkpt lat="44.5071742" lon="11.3551448"><ele>46.0</ele><time>2026-05-01T06:24:47.956Z</time></trkpt><trkpt lat="44.5070897" lon="11.3550952"><ele>46.0</ele><time>2026-05-01T06:24:49.963Z</time></trkpt><trkpt lat="44.507" lon="11.3550537"><ele>46.0</ele><time>2026-05-01T06:24:51.969Z</time></trkpt><trkpt lat="44.5069081" lon="11.3550058"><ele>45.4</ele><time>2026-05-01T06:24:53.953Z</time></trkpt><trkpt lat="44.5068124" lon="11.3549602"><ele>44.8</ele><time>2026-05-01T06:24:55.957Z</time></trkpt><trkpt lat="44.5067183" lon="11.3549145"><ele>44.199999999999996</ele><time>2026-05-01T06:24:57.963Z</time></trkpt><trkpt lat="44.5066348" lon="11.3548648"><ele>43.599999999999994</ele><time>2026-05-01T06:24:59.965Z</time></trkpt><trkpt lat="44.5065509" lon="11.3548193"><ele>43.0</ele><time>2026-05-01T06:25:01.964Z</time></trkpt><trkpt lat="44.506461" lon="11.3547761"><ele>43.0</ele><time>2026-05-01T06:25:03.949Z</time></trkpt><trkpt lat="44.5063698" lon="11.3547331"><ele>43.0</ele><time>2026-05-01T06:25:05.965Z</time></trkpt><trkpt lat="44.5062758" lon="11.3546942"><ele>43.0</ele><time>2026-05-01T06:25:07.97Z</time></trkpt><trkpt lat="44.5061738" lon="11.3546444"><ele>43.0</ele><time>2026-05-01T06:25:09.971Z</time></trkpt><trkpt lat="44.5060747" lon="11.3546034"><ele>43.0</ele><time>2026-05-01T06:25:11.958Z</time></trkpt><trkpt lat="44.5059789" lon="11.3545589"><ele>43.0</ele><time>2026-05-01T06:25:13.962Z</time></trkpt><trkpt lat="44.5058802" lon="11.3545168"><ele>43.0</ele><time>2026-05-01T06:25:15.966Z</time></trkpt><trkpt lat="44.5057867" lon="11.3544673"><ele>43.0</ele><time>2026-05-01T06:25:17.966Z</time></trkpt><trkpt lat="44.5056911" lon="11.3544286"><ele>43.0</ele><time>2026-05-01T06:25:19.951Z</time></trkpt><trkpt lat="44.5055895" lon="11.3543838"><ele>43.0</ele><time>2026-05-01T06:25:21.959Z</time></trkpt><trkpt lat="44.5054976" lon="11.3543295"><ele>43.4</ele><time>2026-05-01T06:25:23.961Z</time></trkpt><trkpt lat="44.5054007" lon="11.3542705"><ele>43.8</ele><time>2026-05-01T06:25:25.958Z</time></trkpt><trkpt lat="44.5053028" lon="11.3542224"><ele>44.2</ele><time>2026-05-01T06:25:27.964Z</time></trkpt><trkpt lat="44.5052048" lon="11.3541862"><ele>44.6</ele><time>2026-05-01T06:25:29.942Z</time></trkpt><trkpt lat="44.5051109" lon="11.3541479"><ele>45.0</ele><time>2026-05-01T06:25:31.944Z</time></trkpt><trkpt lat="44.505012" lon="11.3540969"><ele>45.0</ele><time>2026-05-01T06:25:33.951Z</time></trkpt><trkpt lat="44.5049198" lon="11.354045"><ele>45.0</ele><time>2026-05-01T06:25:35.96Z</time></trkpt><trkpt lat="44.5048257" lon="11.3539976"><ele>45.0</ele><time>2026-05-01T06:25:37.977Z</time></trkpt><trkpt lat="44.5047363" lon="11.3539529"><ele>45.0</ele><time>2026-05-01T06:25:39.973Z</time></trkpt><trkpt lat="44.50465" lon="11.3539001"><ele>45.0</ele><time>2026-05-01T06:25:41.965Z</time></trkpt><trkpt lat="44.5045571" lon="11.3538481"><ele>44.833333333333336</ele><time>2026-05-01T06:25:43.962Z</time></trkpt><trkpt lat="44.5044623" lon="11.3538052"><ele>44.666666666666664</ele><time>2026-05-01T06:25:45.974Z</time></trkpt><trkpt lat="44.5043732" lon="11.3537643"><ele>44.5</ele><time>2026-05-01T06:25:47.97Z</time></trkpt><trkpt lat="44.5042903" lon="11.3537276"><ele>44.33333333333333</ele><time>2026-05-01T06:25:49.964Z</time></trkpt><trkpt lat="44.5042179" lon="11.3536845"><ele>44.166666666666664</ele><time>2026-05-01T06:25:51.969Z</time></trkpt><trkpt lat="44.5041403" lon="11.3536547"><ele>44.0</ele><time>2026-05-01T06:25:53.954Z</time></trkpt><trkpt lat="44.5040693" lon="11.3536181"><ele>44.0</ele><time>2026-05-01T06:25:55.971Z</time></trkpt><trkpt lat="44.5040023" lon="11.3535817"><ele>44.0</ele><time>2026-05-01T06:25:57.954Z</time></trkpt><trkpt lat="44.5039245" lon="11.3535433"><ele>44.0</ele><time>2026-05-01T06:25:59.959Z</time></trkpt><trkpt lat="44.5038379" lon="11.353503"><ele>44.0</ele><time>2026-05-01T06:26:01.985Z</time></trkpt><trkpt lat="44.5037336" lon="11.3534529"><ele>44.0</ele><time>2026-05-01T06:26:04.031Z</time></trkpt><trkpt lat="44.5036193" lon="11.3534018"><ele>44.42857142857143</ele><time>2026-05-01T06:26:05.977Z</time></trkpt><trkpt lat="44.5035576" lon="11.3533717"><ele>44.857142857142854</ele><time>2026-05-01T06:26:06.967Z</time></trkpt><trkpt lat="44.5034941" lon="11.3533421"><ele>45.285714285714285</ele><time>2026-05-01T06:26:07.974Z</time></trkpt><trkpt lat="44.5034276" lon="11.3533045"><ele>45.714285714285715</ele><time>2026-05-01T06:26:08.966Z</time></trkpt><trkpt lat="44.5033642" lon="11.3532767"><ele>46.14285714285714</ele><time>2026-05-01T06:26:09.966Z</time></trkpt><trkpt lat="44.5032972" lon="11.353246"><ele>46.57142857142857</ele><time>2026-05-01T06:26:10.968Z</time></trkpt><trkpt lat="44.5032289" lon="11.3532132"><ele>47.0</ele><time>2026-05-01T06:26:11.978Z</time></trkpt><trkpt lat="44.5031569" lon="11.3531741"><ele>47.0</ele><time>2026-05-01T06:26:12.975Z</time></trkpt><trkpt lat="44.5030852" lon="11.3531376"><ele>47.0</ele><time>2026-05-01T06:26:14.033Z</time></trkpt><trkpt lat="44.5030136" lon="11.3531038"><ele>47.0</ele><time>2026-05-01T06:26:14.963Z</time></trkpt><trkpt lat="44.5029411" lon="11.353064"><ele>47.0</ele><time>2026-05-01T06:26:16.024Z</time></trkpt><trkpt lat="44.5028694" lon="11.3530232"><ele>47.0</ele><time>2026-05-01T06:26:16.963Z</time></trkpt><trkpt lat="44.5027957" lon="11.3529851"><ele>47.0</ele><time>2026-05-01T06:26:18.032Z</time></trkpt><trkpt lat="44.5027252" lon="11.352951"><ele>47.2</ele><time>2026-05-01T06:26:19.025Z</time></trkpt><trkpt lat="44.5026632" lon="11.3529188"><ele>47.400000000000006</ele><time>2026-05-01T06:26:19.993Z</time></trkpt><trkpt lat="44.5025571" lon="11.3528628"><ele>47.599999999999994</ele><time>2026-05-01T06:26:21.958Z</time></trkpt><trkpt lat="44.502487" lon="11.3527669"><ele>47.8</ele><time>2026-05-01T06:26:23.966Z</time></trkpt><trkpt lat="44.5024671" lon="11.3526284"><ele>48.0</ele><time>2026-05-01T06:26:25.961Z</time></trkpt><trkpt lat="44.5024998" lon="11.3524792"><ele>48.0</ele><time>2026-05-01T06:26:28.033Z</time></trkpt><trkpt lat="44.5025546" lon="11.3523477"><ele>48.0</ele><time>2026-05-01T06:26:29.955Z</time></trkpt><trkpt lat="44.5026085" lon="11.3522222"><ele>48.0</ele><time>2026-05-01T06:26:31.951Z</time></trkpt><trkpt lat="44.5026669" lon="11.3520921"><ele>48.0</ele><time>2026-05-01T06:26:34.032Z</time></trkpt><trkpt lat="44.5027203" lon="11.3519558"><ele>48.0</ele><time>2026-05-01T06:26:36.028Z</time></trkpt><trkpt lat="44.5027713" lon="11.351822"><ele>48.0</ele><time>2026-05-01T06:26:37.963Z</time></trkpt><trkpt lat="44.5028182" lon="11.3516961"><ele>48.0</ele><time>2026-05-01T06:26:39.965Z</time></trkpt><trkpt lat="44.5028649" lon="11.3515658"><ele>48.0</ele><time>2026-05-01T06:26:41.966Z</time></trkpt><trkpt lat="44.502911" lon="11.3514435"><ele>48.0</ele><time>2026-05-01T06:26:44.034Z</time></trkpt><trkpt lat="44.5029464" lon="11.3513479"><ele>48.0</ele><time>2026-05-01T06:26:45.956Z</time></trkpt><trkpt lat="44.5029864" lon="11.3512712"><ele>48.0</ele><time>2026-05-01T06:26:47.961Z</time></trkpt><trkpt lat="44.5030157" lon="11.3511557"><ele>48.0</ele><time>2026-05-01T06:26:50.962Z</time></trkpt><trkpt lat="44.5030149" lon="11.3510482"><ele>48.0</ele><time>2026-05-01T06:26:53.96Z</time></trkpt><trkpt lat="44.5029903" lon="11.3509526"><ele>48.0</ele><time>2026-05-01T06:26:57.954Z</time></trkpt><trkpt lat="44.5029415" lon="11.3508915"><ele>48.0</ele><time>2026-05-01T06:27:00.968Z</time></trkpt><trkpt lat="44.5029256" lon="11.3507615"><ele>48.0</ele><time>2026-05-01T06:27:03.965Z</time></trkpt><trkpt lat="44.5029218" lon="11.350648"><ele>48.0</ele><time>2026-05-01T06:27:05.96Z</time></trkpt><trkpt lat="44.5028798" lon="11.3505611"><ele>48.833333333333336</ele><time>2026-05-01T06:27:07.958Z</time></trkpt><trkpt lat="44.502814" lon="11.3505141"><ele>49.66666666666667</ele><time>2026-05-01T06:27:09.958Z</time></trkpt><trkpt lat="44.5027276" lon="11.350504"><ele>50.5</ele><time>2026-05-01T06:27:12.962Z</time></trkpt><trkpt lat="44.502647" lon="11.3505289"><ele>51.333333333333336</ele><time>2026-05-01T06:27:14.96Z</time></trkpt><trkpt lat="44.5025496" lon="11.350575"><ele>52.16666666666667</ele><time>2026-05-01T06:27:16.968Z</time></trkpt><trkpt lat="44.5024562" lon="11.3505963"><ele>53.0</ele><time>2026-05-01T06:27:18.963Z</time></trkpt><trkpt lat="44.5023484" lon="11.3505893"><ele>53.00000000000001</ele><time>2026-05-01T06:27:20.963Z</time></trkpt><trkpt lat="44.5022448" lon="11.350531"><ele>53.0</ele><time>2026-05-01T06:27:22.959Z</time></trkpt><trkpt lat="44.5021576" lon="11.3504906"><ele>53.0</ele><time>2026-05-01T06:27:24.958Z</time></trkpt><trkpt lat="44.5020876" lon="11.3504603"><ele>53.0</ele><time>2026-05-01T06:27:26.953Z</time></trkpt><trkpt lat="44.5020231" lon="11.3504021"><ele>53.00000000000001</ele><time>2026-05-01T06:27:28.962Z</time></trkpt><trkpt lat="44.5019505" lon="11.3503291"><ele>53.0</ele><time>2026-05-01T06:27:30.961Z</time></trkpt><trkpt lat="44.5018703" lon="11.3502757"><ele>53.00000000000001</ele><time>2026-05-01T06:27:32.959Z</time></trkpt><trkpt lat="44.5017938" lon="11.3502287"><ele>53.0</ele><time>2026-05-01T06:27:34.958Z</time></trkpt><trkpt lat="44.50171" lon="11.3501909"><ele>53.0</ele><time>2026-05-01T06:27:36.962Z</time></trkpt><trkpt lat="44.5016316" lon="11.3501377"><ele>53.0</ele><time>2026-05-01T06:27:38.961Z</time></trkpt><trkpt lat="44.5015747" lon="11.3500741"><ele>53.00000000000001</ele><time>2026-05-01T06:27:40.955Z</time></trkpt><trkpt lat="44.5015049" lon="11.3500292"><ele>53.0</ele><time>2026-05-01T06:27:42.966Z</time></trkpt><trkpt lat="44.5014276" lon="11.3499971"><ele>53.00000000000001</ele><time>2026-05-01T06:27:44.964Z</time></trkpt><trkpt lat="44.5013488" lon="11.3499491"><ele>53.0</ele><time>2026-05-01T06:27:46.967Z</time></trkpt><trkpt lat="44.5012719" lon="11.3499083"><ele>53.0</ele><time>2026-05-01T06:27:48.96Z</time></trkpt><trkpt lat="44.5011961" lon="11.3498654"><ele>53.0</ele><time>2026-05-01T06:27:50.963Z</time></trkpt><trkpt lat="44.5011106" lon="11.3498177"><ele>53.00000000000001</ele><time>2026-05-01T06:27:52.956Z</time></trkpt><trkpt lat="44.5010292" lon="11.3497685"><ele>53.0</ele><time>2026-05-01T06:27:54.964Z</time></trkpt><trkpt lat="44.5009482" lon="11.3497226"><ele>54.0</ele><time>2026-05-01T06:27:56.956Z</time></trkpt><trkpt lat="44.5008611" lon="11.3496802"><ele>55.0</ele><time>2026-05-01T06:27:58.959Z</time></trkpt><trkpt lat="44.5007689" lon="11.3496305"><ele>56.0</ele><time>2026-05-01T06:28:00.959Z</time></trkpt><trkpt lat="44.5006883" lon="11.3495575"><ele>57.0</ele><time>2026-05-01T06:28:02.96Z</time></trkpt><trkpt lat="44.5005944" lon="11.3494932"><ele>58.0</ele><time>2026-05-01T06:28:04.957Z</time></trkpt><trkpt lat="44.5005044" lon="11.3494333"><ele>57.99999999999999</ele><time>2026-05-01T06:28:06.959Z</time></trkpt><trkpt lat="44.5004199" lon="11.3493803"><ele>58.0</ele><time>2026-05-01T06:28:08.969Z</time></trkpt><trkpt lat="44.5003428" lon="11.3493439"><ele>58.0</ele><time>2026-05-01T06:28:10.956Z</time></trkpt><trkpt lat="44.5002714" lon="11.3493011"><ele>58.0</ele><time>2026-05-01T06:28:12.959Z</time></trkpt><trkpt lat="44.5002054" lon="11.3492601"><ele>57.99999999999999</ele><time>2026-05-01T06:28:14.961Z</time></trkpt><trkpt lat="44.5001175" lon="11.3492137"><ele>58.0</ele><time>2026-05-01T06:28:17.96Z</time></trkpt><trkpt lat="44.5000578" lon="11.3491751"><ele>58.2</ele><time>2026-05-01T06:28:19.965Z</time></trkpt><trkpt lat="44.5000464" lon="11.3490814"><ele>58.4</ele><time>2026-05-01T06:28:21.954Z</time></trkpt><trkpt lat="44.5000648" lon="11.3489414"><ele>58.60000000000001</ele><time>2026-05-01T06:28:23.96Z</time></trkpt><trkpt lat="44.5000895" lon="11.3487924"><ele>58.800000000000004</ele><time>2026-05-01T06:28:25.957Z</time></trkpt><trkpt lat="44.5001167" lon="11.3486546"><ele>59.0</ele><time>2026-05-01T06:28:27.953Z</time></trkpt><trkpt lat="44.5001484" lon="11.3485159"><ele>59.00000000000001</ele><time>2026-05-01T06:28:29.954Z</time></trkpt><trkpt lat="44.5001805" lon="11.3483827"><ele>59.0</ele><time>2026-05-01T06:28:32.024Z</time></trkpt><trkpt lat="44.5002123" lon="11.3482545"><ele>59.0</ele><time>2026-05-01T06:28:33.958Z</time></trkpt><trkpt lat="44.5002486" lon="11.3481438"><ele>59.0</ele><time>2026-05-01T06:28:35.962Z</time></trkpt><trkpt lat="44.5002702" lon="11.348034"><ele>59.00000000000001</ele><time>2026-05-01T06:28:37.959Z</time></trkpt><trkpt lat="44.5002925" lon="11.3479227"><ele>59.0</ele><time>2026-05-01T06:28:39.964Z</time></trkpt><trkpt lat="44.5003123" lon="11.3478271"><ele>59.285714285714285</ele><time>2026-05-01T06:28:41.964Z</time></trkpt><trkpt lat="44.5003304" lon="11.3477373"><ele>59.57142857142857</ele><time>2026-05-01T06:28:43.96Z</time></trkpt><trkpt lat="44.5003555" lon="11.3476467"><ele>59.857142857142854</ele><time>2026-05-01T06:28:46.022Z</time></trkpt><trkpt lat="44.5003866" lon="11.3475526"><ele>60.14285714285714</ele><time>2026-05-01T06:28:47.967Z</time></trkpt><trkpt lat="44.5004096" lon="11.3474578"><ele>60.42857142857143</ele><time>2026-05-01T06:28:49.95Z</time></trkpt><trkpt lat="44.5004354" lon="11.3473618"><ele>60.71428571428571</ele><time>2026-05-01T06:28:51.961Z</time></trkpt><trkpt lat="44.5004593" lon="11.347253"><ele>60.99999999999999</ele><time>2026-05-01T06:28:53.967Z</time></trkpt><trkpt lat="44.5005043" lon="11.3471496"><ele>60.166666666666664</ele><time>2026-05-01T06:28:56.006Z</time></trkpt><trkpt lat="44.5005416" lon="11.3470354"><ele>59.33333333333333</ele><time>2026-05-01T06:28:57.961Z</time></trkpt><trkpt lat="44.5005668" lon="11.3469322"><ele>58.5</ele><time>2026-05-01T06:28:59.963Z</time></trkpt><trkpt lat="44.5005965" lon="11.3468293"><ele>57.66666666666667</ele><time>2026-05-01T06:29:01.964Z</time></trkpt><trkpt lat="44.5006267" lon="11.3467309"><ele>56.833333333333336</ele><time>2026-05-01T06:29:03.958Z</time></trkpt><trkpt lat="44.500656" lon="11.3466331"><ele>56.0</ele><time>2026-05-01T06:29:05.966Z</time></trkpt><trkpt lat="44.5006856" lon="11.3465418"><ele>56.0</ele><time>2026-05-01T06:29:07.964Z</time></trkpt><trkpt lat="44.5007102" lon="11.34645"><ele>56.0</ele><time>2026-05-01T06:29:09.965Z</time></trkpt><trkpt lat="44.5007307" lon="11.3463594"><ele>56.0</ele><time>2026-05-01T06:29:11.963Z</time></trkpt><trkpt lat="44.5007541" lon="11.3462616"><ele>56.0</ele><time>2026-05-01T06:29:13.971Z</time></trkpt><trkpt lat="44.5007744" lon="11.3461637"><ele>56.0</ele><time>2026-05-01T06:29:15.962Z</time></trkpt><trkpt lat="44.5007999" lon="11.3460574"><ele>56.0</ele><time>2026-05-01T06:29:17.962Z</time></trkpt><trkpt lat="44.500832" lon="11.3459476"><ele>56.0</ele><time>2026-05-01T06:29:19.971Z</time></trkpt><trkpt lat="44.5008653" lon="11.3458371"><ele>55.16666666666667</ele><time>2026-05-01T06:29:21.957Z</time></trkpt><trkpt lat="44.5008966" lon="11.3457114"><ele>54.333333333333336</ele><time>2026-05-01T06:29:23.961Z</time></trkpt><trkpt lat="44.500926" lon="11.3455928"><ele>53.5</ele><time>2026-05-01T06:29:25.965Z</time></trkpt><trkpt lat="44.5009531" lon="11.3454786"><ele>52.66666666666667</ele><time>2026-05-01T06:29:27.966Z</time></trkpt><trkpt lat="44.5009811" lon="11.34538"><ele>51.833333333333336</ele><time>2026-05-01T06:29:29.955Z</time></trkpt><trkpt lat="44.5009963" lon="11.3452927"><ele>51.0</ele><time>2026-05-01T06:29:31.965Z</time></trkpt><trkpt lat="44.5010033" lon="11.34519"><ele>51.0</ele><time>2026-05-01T06:29:34.962Z</time></trkpt><trkpt lat="44.5010158" lon="11.3450735"><ele>51.0</ele><time>2026-05-01T06:29:38.969Z</time></trkpt><trkpt lat="44.5010227" lon="11.3449415"><ele>51.0</ele><time>2026-05-01T06:29:41.962Z</time></trkpt><trkpt lat="44.5010316" lon="11.3448456"><ele>51.0</ele><time>2026-05-01T06:29:43.96Z</time></trkpt><trkpt lat="44.5010772" lon="11.3447265"><ele>51.0</ele><time>2026-05-01T06:29:46.955Z</time></trkpt><trkpt lat="44.5010992" lon="11.3446191"><ele>51.0</ele><time>2026-05-01T06:29:48.956Z</time></trkpt><trkpt lat="44.501093" lon="11.344511"><ele>51.85714285714286</ele><time>2026-05-01T06:29:52.966Z</time></trkpt><trkpt lat="44.5010499" lon="11.34444"><ele>52.714285714285715</ele><time>2026-05-01T06:29:56.961Z</time></trkpt><trkpt lat="44.5009953" lon="11.3443838"><ele>53.57142857142857</ele><time>2026-05-01T06:30:01.968Z</time></trkpt><trkpt lat="44.5009209" lon="11.3443783"><ele>54.42857142857143</ele><time>2026-05-01T06:30:04.971Z</time></trkpt><trkpt lat="44.5008554" lon="11.3443719"><ele>55.28571428571428</ele><time>2026-05-01T06:30:06.956Z</time></trkpt><trkpt lat="44.5007801" lon="11.3443557"><ele>56.14285714285714</ele><time>2026-05-01T06:30:08.957Z</time></trkpt><trkpt lat="44.5007075" lon="11.3443363"><ele>57.0</ele><time>2026-05-01T06:30:11.032Z</time></trkpt><trkpt lat="44.5006288" lon="11.3443328"><ele>57.0</ele><time>2026-05-01T06:30:12.957Z</time></trkpt><trkpt lat="44.5005473" lon="11.344333"><ele>57.0</ele><time>2026-05-01T06:30:14.961Z</time></trkpt><trkpt lat="44.5004734" lon="11.3443221"><ele>57.0</ele><time>2026-05-01T06:30:16.96Z</time></trkpt><trkpt lat="44.5003873" lon="11.3442953"><ele>57.0</ele><time>2026-05-01T06:30:19.969Z</time></trkpt><trkpt lat="44.5003159" lon="11.3442728"><ele>57.0</ele><time>2026-05-01T06:30:21.969Z</time></trkpt><trkpt lat="44.5002403" lon="11.3442354"><ele>57.0</ele><time>2026-05-01T06:30:23.965Z</time></trkpt><trkpt lat="44.5001763" lon="11.3442177"><ele>57.5</ele><time>2026-05-01T06:30:26.057Z</time></trkpt><trkpt lat="44.5001103" lon="11.3442128"><ele>58.0</ele><time>2026-05-01T06:30:28.028Z</time></trkpt><trkpt lat="44.5000435" lon="11.3441581"><ele>58.5</ele><time>2026-05-01T06:30:31.95Z</time></trkpt><trkpt lat="44.4999716" lon="11.3441216"><ele>59.0</ele><time>2026-05-01T06:30:34.951Z</time></trkpt><trkpt lat="44.4999115" lon="11.344089"><ele>59.5</ele><time>2026-05-01T06:30:36.954Z</time></trkpt><trkpt lat="44.4998348" lon="11.3440662"><ele>60.0</ele><time>2026-05-01T06:30:38.951Z</time></trkpt><trkpt lat="44.4997446" lon="11.3440456"><ele>60.0</ele><time>2026-05-01T06:30:40.953Z</time></trkpt><trkpt lat="44.4996552" lon="11.3440266"><ele>60.0</ele><time>2026-05-01T06:30:42.954Z</time></trkpt><trkpt lat="44.4995741" lon="11.3439966"><ele>60.0</ele><time>2026-05-01T06:30:44.955Z</time></trkpt><trkpt lat="44.4994977" lon="11.3439673"><ele>60.0</ele><time>2026-05-01T06:30:46.948Z</time></trkpt><trkpt lat="44.4994215" lon="11.3439326"><ele>60.0</ele><time>2026-05-01T06:30:48.95Z</time></trkpt><trkpt lat="44.4993299" lon="11.3439274"><ele>60.0</ele><time>2026-05-01T06:30:50.958Z</time></trkpt><trkpt lat="44.4992524" lon="11.3439153"><ele>60.0</ele><time>2026-05-01T06:30:52.955Z</time></trkpt><trkpt lat="44.4991661" lon="11.3438938"><ele>60.0</ele><time>2026-05-01T06:30:55.027Z</time></trkpt><trkpt lat="44.499092" lon="11.34386"><ele>60.0</ele><time>2026-05-01T06:30:57.031Z</time></trkpt><trkpt lat="44.49902" lon="11.3438264"><ele>60.0</ele><time>2026-05-01T06:30:58.962Z</time></trkpt><trkpt lat="44.4989464" lon="11.3437977"><ele>60.0</ele><time>2026-05-01T06:31:00.961Z</time></trkpt><trkpt lat="44.4988832" lon="11.3438082"><ele>60.0</ele><time>2026-05-01T06:31:02.957Z</time></trkpt><trkpt lat="44.4987895" lon="11.3438176"><ele>60.8</ele><time>2026-05-01T06:31:04.975Z</time></trkpt><trkpt lat="44.4986889" lon="11.3438064"><ele>61.6</ele><time>2026-05-01T06:31:06.96Z</time></trkpt><trkpt lat="44.4985779" lon="11.343775"><ele>62.400000000000006</ele><time>2026-05-01T06:31:08.973Z</time></trkpt><trkpt lat="44.4984735" lon="11.3437328"><ele>63.2</ele><time>2026-05-01T06:31:10.957Z</time></trkpt><trkpt lat="44.4983598" lon="11.3436907"><ele>64.0</ele><time>2026-05-01T06:31:12.984Z</time></trkpt><trkpt lat="44.4983012" lon="11.3436572"><ele>64.0</ele><time>2026-05-01T06:31:13.955Z</time></trkpt><trkpt lat="44.4981889" lon="11.3435987"><ele>64.0</ele><time>2026-05-01T06:31:15.976Z</time></trkpt><trkpt lat="44.4980861" lon="11.3435601"><ele>64.0</ele><time>2026-05-01T06:31:17.97Z</time></trkpt><trkpt lat="44.4979862" lon="11.3435026"><ele>64.0</ele><time>2026-05-01T06:31:19.97Z</time></trkpt><trkpt lat="44.4978927" lon="11.3434702"><ele>64.0</ele><time>2026-05-01T06:31:21.957Z</time></trkpt><trkpt lat="44.4978034" lon="11.3434496"><ele>64.60000000000001</ele><time>2026-05-01T06:31:23.964Z</time></trkpt><trkpt lat="44.4977022" lon="11.3434205"><ele>65.2</ele><time>2026-05-01T06:31:25.963Z</time></trkpt><trkpt lat="44.497609" lon="11.3433934"><ele>65.80000000000001</ele><time>2026-05-01T06:31:27.962Z</time></trkpt><trkpt lat="44.4975361" lon="11.3433724"><ele>66.4</ele><time>2026-05-01T06:31:29.964Z</time></trkpt><trkpt lat="44.4974538" lon="11.3433292"><ele>67.0</ele><time>2026-05-01T06:31:32.959Z</time></trkpt><trkpt lat="44.4973581" lon="11.3432935"><ele>67.0</ele><time>2026-05-01T06:31:35.958Z</time></trkpt><trkpt lat="44.4972893" lon="11.3432726"><ele>67.0</ele><time>2026-05-01T06:31:37.968Z</time></trkpt><trkpt lat="44.4972117" lon="11.3432331"><ele>67.0</ele><time>2026-05-01T06:31:39.959Z</time></trkpt><trkpt lat="44.4971211" lon="11.3432104"><ele>67.0</ele><time>2026-05-01T06:31:41.957Z</time></trkpt><trkpt lat="44.4970486" lon="11.343178"><ele>67.0</ele><time>2026-05-01T06:31:43.96Z</time></trkpt><trkpt lat="44.4969843" lon="11.3431435"><ele>67.0</ele><time>2026-05-01T06:31:45.957Z</time></trkpt><trkpt lat="44.4969123" lon="11.3431074"><ele>67.16666666666666</ele><time>2026-05-01T06:31:47.961Z</time></trkpt><trkpt lat="44.4968364" lon="11.3430959"><ele>67.33333333333333</ele><time>2026-05-01T06:31:49.959Z</time></trkpt><trkpt lat="44.4967554" lon="11.3430768"><ele>67.5</ele><time>2026-05-01T06:31:51.967Z</time></trkpt><trkpt lat="44.4966638" lon="11.3430597"><ele>67.66666666666667</ele><time>2026-05-01T06:31:53.969Z</time></trkpt><trkpt lat="44.4965734" lon="11.3430407"><ele>67.83333333333334</ele><time>2026-05-01T06:31:55.961Z</time></trkpt><trkpt lat="44.4964991" lon="11.343021"><ele>68.0</ele><time>2026-05-01T06:31:57.966Z</time></trkpt><trkpt lat="44.4964153" lon="11.343012"><ele>68.5</ele><time>2026-05-01T06:31:59.962Z</time></trkpt><trkpt lat="44.496336" lon="11.3430029"><ele>69.0</ele><time>2026-05-01T06:32:01.958Z</time></trkpt><trkpt lat="44.4962593" lon="11.3429921"><ele>69.5</ele><time>2026-05-01T06:32:03.967Z</time></trkpt><trkpt lat="44.4961515" lon="11.3429705"><ele>70.0</ele><time>2026-05-01T06:32:06.966Z</time></trkpt><trkpt lat="44.4960805" lon="11.3429312"><ele>70.5</ele><time>2026-05-01T06:32:08.965Z</time></trkpt><trkpt lat="44.4960122" lon="11.342887"><ele>71.0</ele><time>2026-05-01T06:32:10.979Z</time></trkpt><trkpt lat="44.4959415" lon="11.3428627"><ele>71.0</ele><time>2026-05-01T06:32:12.963Z</time></trkpt><trkpt lat="44.4958695" lon="11.3428406"><ele>71.0</ele><time>2026-05-01T06:32:14.96Z</time></trkpt><trkpt lat="44.4958016" lon="11.3428291"><ele>71.0</ele><time>2026-05-01T06:32:16.967Z</time></trkpt><trkpt lat="44.4957321" lon="11.342822"><ele>71.0</ele><time>2026-05-01T06:32:18.964Z</time></trkpt><trkpt lat="44.4956524" lon="11.3428043"><ele>71.0</ele><time>2026-05-01T06:32:20.96Z</time></trkpt><trkpt lat="44.4955607" lon="11.3427771"><ele>71.0</ele><time>2026-05-01T06:32:22.963Z</time></trkpt><trkpt lat="44.4954756" lon="11.3427292"><ele>71.16666666666667</ele><time>2026-05-01T06:32:24.964Z</time></trkpt><trkpt lat="44.4953819" lon="11.3427095"><ele>71.33333333333334</ele><time>2026-05-01T06:32:26.966Z</time></trkpt><trkpt lat="44.4952982" lon="11.342724"><ele>71.5</ele><time>2026-05-01T06:32:28.959Z</time></trkpt><trkpt lat="44.4952195" lon="11.3427134"><ele>71.66666666666667</ele><time>2026-05-01T06:32:30.974Z</time></trkpt><trkpt lat="44.495148" lon="11.3427146"><ele>71.83333333333333</ele><time>2026-05-01T06:32:32.969Z</time></trkpt><trkpt lat="44.4950685" lon="11.3426977"><ele>72.0</ele><time>2026-05-01T06:32:34.972Z</time></trkpt><trkpt lat="44.4949954" lon="11.3426697"><ele>72.0</ele><time>2026-05-01T06:32:36.963Z</time></trkpt><trkpt lat="44.4949283" lon="11.3426483"><ele>72.0</ele><time>2026-05-01T06:32:38.958Z</time></trkpt><trkpt lat="44.4948421" lon="11.3426302"><ele>72.0</ele><time>2026-05-01T06:32:41.966Z</time></trkpt><trkpt lat="44.494775" lon="11.342656"><ele>72.0</ele><time>2026-05-01T06:32:44.976Z</time></trkpt><trkpt lat="44.4947555" lon="11.3427806"><ele>72.0</ele><time>2026-05-01T06:32:47.966Z</time></trkpt><trkpt lat="44.494744" lon="11.3429105"><ele>72.0</ele><time>2026-05-01T06:32:50.955Z</time></trkpt><trkpt lat="44.4947368" lon="11.3430058"><ele>72.16666666666667</ele><time>2026-05-01T06:32:52.964Z</time></trkpt><trkpt lat="44.4947284" lon="11.3431176"><ele>72.33333333333333</ele><time>2026-05-01T06:32:55.963Z</time></trkpt><trkpt lat="44.4947184" lon="11.3432529"><ele>72.5</ele><time>2026-05-01T06:32:57.958Z</time></trkpt><trkpt lat="44.4947031" lon="11.3433583"><ele>72.66666666666666</ele><time>2026-05-01T06:32:59.956Z</time></trkpt><trkpt lat="44.4946767" lon="11.3434471"><ele>72.83333333333333</ele><time>2026-05-01T06:33:01.96Z</time></trkpt><trkpt lat="44.4946567" lon="11.3435375"><ele>73.0</ele><time>2026-05-01T06:33:03.958Z</time></trkpt><trkpt lat="44.4946325" lon="11.3436305"><ele>73.0</ele><time>2026-05-01T06:33:05.974Z</time></trkpt><trkpt lat="44.49463" lon="11.3437248"><ele>73.0</ele><time>2026-05-01T06:33:07.964Z</time></trkpt><trkpt lat="44.4946086" lon="11.3438145"><ele>73.0</ele><time>2026-05-01T06:33:09.966Z</time></trkpt><trkpt lat="44.4945252" lon="11.3438744"><ele>73.0</ele><time>2026-05-01T06:33:12.967Z</time></trkpt><trkpt lat="44.4944576" lon="11.3438766"><ele>73.0</ele><time>2026-05-01T06:33:14.959Z</time></trkpt><trkpt lat="44.4943741" lon="11.343855"><ele>73.0</ele><time>2026-05-01T06:33:16.964Z</time></trkpt><trkpt lat="44.4943017" lon="11.3438369"><ele>72.66666666666666</ele><time>2026-05-01T06:33:18.962Z</time></trkpt><trkpt lat="44.4942231" lon="11.3438203"><ele>72.33333333333333</ele><time>2026-05-01T06:33:20.963Z</time></trkpt><trkpt lat="44.4941316" lon="11.3437934"><ele>72.0</ele><time>2026-05-01T06:33:22.964Z</time></trkpt><trkpt lat="44.4940528" lon="11.3437647"><ele>71.66666666666667</ele><time>2026-05-01T06:33:24.967Z</time></trkpt><trkpt lat="44.4939775" lon="11.3437573"><ele>71.33333333333334</ele><time>2026-05-01T06:33:26.962Z</time></trkpt><trkpt lat="44.4939058" lon="11.3437484"><ele>71.0</ele><time>2026-05-01T06:33:28.961Z</time></trkpt><trkpt lat="44.4938428" lon="11.3437231"><ele>71.0</ele><time>2026-05-01T06:33:30.966Z</time></trkpt><trkpt lat="44.4937783" lon="11.3436892"><ele>71.0</ele><time>2026-05-01T06:33:33.958Z</time></trkpt><trkpt lat="44.4937184" lon="11.34365"><ele>71.0</ele><time>2026-05-01T06:33:37.964Z</time></trkpt><trkpt lat="44.493673" lon="11.3435811"><ele>71.0</ele><time>2026-05-01T06:33:41.968Z</time></trkpt><trkpt lat="44.4936269" lon="11.3436476"><ele>71.0</ele><time>2026-05-01T06:35:52.96Z</time></trkpt><trkpt lat="44.4935558" lon="11.3436612"><ele>71.0</ele><time>2026-05-01T06:35:56.963Z</time></trkpt><trkpt lat="44.4934727" lon="11.343673"><ele>71.0</ele><time>2026-05-01T06:36:00.97Z</time></trkpt><trkpt lat="44.4933916" lon="11.343715"><ele>71.71428571428571</ele><time>2026-05-01T06:36:03.97Z</time></trkpt><trkpt lat="44.4933306" lon="11.3437383"><ele>72.42857142857142</ele><time>2026-05-01T06:36:05.976Z</time></trkpt><trkpt lat="44.49326" lon="11.343741"><ele>73.14285714285714</ele><time>2026-05-01T06:36:07.971Z</time></trkpt><trkpt lat="44.4931929" lon="11.3437219"><ele>73.85714285714286</ele><time>2026-05-01T06:36:09.985Z</time></trkpt><trkpt lat="44.4931259" lon="11.343701"><ele>74.57142857142858</ele><time>2026-05-01T06:36:11.965Z</time></trkpt><trkpt lat="44.4930544" lon="11.3436595"><ele>75.28571428571428</ele><time>2026-05-01T06:36:13.972Z</time></trkpt><trkpt lat="44.4929826" lon="11.343614"><ele>76.0</ele><time>2026-05-01T06:36:15.978Z</time></trkpt><trkpt lat="44.4929082" lon="11.3435907"><ele>76.33333333333333</ele><time>2026-05-01T06:36:17.977Z</time></trkpt><trkpt lat="44.4928352" lon="11.3435563"><ele>76.66666666666666</ele><time>2026-05-01T06:36:19.984Z</time></trkpt><trkpt lat="44.4927564" lon="11.3435236"><ele>77.0</ele><time>2026-05-01T06:36:21.958Z</time></trkpt><trkpt lat="44.4926856" lon="11.3434833"><ele>77.33333333333333</ele><time>2026-05-01T06:36:23.97Z</time></trkpt><trkpt lat="44.4926117" lon="11.3434378"><ele>77.66666666666667</ele><time>2026-05-01T06:36:25.976Z</time></trkpt><trkpt lat="44.4925425" lon="11.343393"><ele>78.0</ele><time>2026-05-01T06:36:27.976Z</time></trkpt><trkpt lat="44.4924739" lon="11.3433541"><ele>78.0</ele><time>2026-05-01T06:36:29.969Z</time></trkpt><trkpt lat="44.4924079" lon="11.3433256"><ele>78.0</ele><time>2026-05-01T06:36:31.971Z</time></trkpt><trkpt lat="44.4923368" lon="11.343288"><ele>78.0</ele><time>2026-05-01T06:36:33.975Z</time></trkpt><trkpt lat="44.4922701" lon="11.3432457"><ele>78.0</ele><time>2026-05-01T06:36:35.972Z</time></trkpt><trkpt lat="44.4922017" lon="11.3432099"><ele>78.0</ele><time>2026-05-01T06:36:37.971Z</time></trkpt><trkpt lat="44.492129" lon="11.3431806"><ele>78.0</ele><time>2026-05-01T06:36:39.971Z</time></trkpt><trkpt lat="44.4920582" lon="11.3431604"><ele>78.0</ele><time>2026-05-01T06:36:41.97Z</time></trkpt><trkpt lat="44.4919805" lon="11.3431551"><ele>76.83333333333333</ele><time>2026-05-01T06:36:43.957Z</time></trkpt><trkpt lat="44.4919009" lon="11.3431468"><ele>75.66666666666667</ele><time>2026-05-01T06:36:45.97Z</time></trkpt><trkpt lat="44.4918275" lon="11.3431518"><ele>74.5</ele><time>2026-05-01T06:36:47.97Z</time></trkpt><trkpt lat="44.4917462" lon="11.3431485"><ele>73.33333333333334</ele><time>2026-05-01T06:36:49.969Z</time></trkpt><trkpt lat="44.4916721" lon="11.3431302"><ele>72.16666666666667</ele><time>2026-05-01T06:36:51.986Z</time></trkpt><trkpt lat="44.4916015" lon="11.3431345"><ele>71.0</ele><time>2026-05-01T06:36:53.973Z</time></trkpt><trkpt lat="44.4915208" lon="11.3431483"><ele>71.0</ele><time>2026-05-01T06:36:55.969Z</time></trkpt><trkpt lat="44.4914421" lon="11.343157"><ele>71.0</ele><time>2026-05-01T06:36:57.978Z</time></trkpt><trkpt lat="44.4913779" lon="11.3431591"><ele>71.0</ele><time>2026-05-01T06:37:07.992Z</time></trkpt><trkpt lat="44.4913223" lon="11.3432432"><ele>71.0</ele><time>2026-05-01T06:37:11.982Z</time></trkpt><trkpt lat="44.4913294" lon="11.3433549"><ele>71.0</ele><time>2026-05-01T06:37:15.971Z</time></trkpt><trkpt lat="44.4913399" lon="11.3434449"><ele>71.0</ele><time>2026-05-01T06:37:17.967Z</time></trkpt><trkpt lat="44.4913632" lon="11.3435313"><ele>71.0</ele><time>2026-05-01T06:37:19.972Z</time></trkpt><trkpt lat="44.4913861" lon="11.3436217"><ele>71.0</ele><time>2026-05-01T06:37:21.968Z</time></trkpt><trkpt lat="44.4913853" lon="11.343743"><ele>71.0</ele><time>2026-05-01T06:37:24.968Z</time></trkpt><trkpt lat="44.4913791" lon="11.343838"><ele>71.0</ele><time>2026-05-01T06:37:26.959Z</time></trkpt><trkpt lat="44.4913729" lon="11.3439562"><ele>71.0</ele><time>2026-05-01T06:37:28.983Z</time></trkpt><trkpt lat="44.4913843" lon="11.344088"><ele>71.0</ele><time>2026-05-01T06:37:30.972Z</time></trkpt><trkpt lat="44.4914006" lon="11.344232"><ele>71.0</ele><time>2026-05-01T06:37:32.974Z</time></trkpt><trkpt lat="44.4914166" lon="11.3443828"><ele>71.0</ele><time>2026-05-01T06:37:34.968Z</time></trkpt><trkpt lat="44.4914272" lon="11.3445291"><ele>71.0</ele><time>2026-05-01T06:37:36.969Z</time></trkpt><trkpt lat="44.491438" lon="11.3446777"><ele>71.0</ele><time>2026-05-01T06:37:38.981Z</time></trkpt><trkpt lat="44.4914498" lon="11.344828"><ele>71.0</ele><time>2026-05-01T06:37:40.972Z</time></trkpt><trkpt lat="44.4914616" lon="11.3449919"><ele>71.0</ele><time>2026-05-01T06:37:42.972Z</time></trkpt><trkpt lat="44.4914589" lon="11.3451403"><ele>71.0</ele><time>2026-05-01T06:37:44.974Z</time></trkpt><trkpt lat="44.4914667" lon="11.3452836"><ele>71.0</ele><time>2026-05-01T06:37:47.037Z</time></trkpt><trkpt lat="44.4914722" lon="11.3454333"><ele>71.0</ele><time>2026-05-01T06:37:48.965Z</time></trkpt><trkpt lat="44.4914727" lon="11.3455786"><ele>71.0</ele><time>2026-05-01T06:37:50.957Z</time></trkpt><trkpt lat="44.4914832" lon="11.3457388"><ele>71.0</ele><time>2026-05-01T06:37:52.958Z</time></trkpt><trkpt lat="44.4914958" lon="11.345885"><ele>71.39999999999999</ele><time>2026-05-01T06:37:54.976Z</time></trkpt><trkpt lat="44.4915047" lon="11.3460276"><ele>71.8</ele><time>2026-05-01T06:37:56.959Z</time></trkpt><trkpt lat="44.4915134" lon="11.346159"><ele>72.19999999999999</ele><time>2026-05-01T06:37:58.963Z</time></trkpt><trkpt lat="44.4915194" lon="11.346295"><ele>72.6</ele><time>2026-05-01T06:38:00.968Z</time></trkpt><trkpt lat="44.4915313" lon="11.346419"><ele>73.0</ele><time>2026-05-01T06:38:02.959Z</time></trkpt><trkpt lat="44.4914833" lon="11.3465178"><ele>73.0</ele><time>2026-05-01T06:38:05.959Z</time></trkpt><trkpt lat="44.491392" lon="11.3465275"><ele>73.0</ele><time>2026-05-01T06:38:07.956Z</time></trkpt><trkpt lat="44.4913106" lon="11.3465385"><ele>73.0</ele><time>2026-05-01T06:38:09.952Z</time></trkpt><trkpt lat="44.4912451" lon="11.3465572"><ele>73.0</ele><time>2026-05-01T06:38:11.961Z</time></trkpt><trkpt lat="44.4911821" lon="11.3465922"><ele>73.0</ele><time>2026-05-01T06:38:13.964Z</time></trkpt><trkpt lat="44.4910903" lon="11.3465962"><ele>73.0</ele><time>2026-05-01T06:38:15.961Z</time></trkpt><trkpt lat="44.4909916" lon="11.346586"><ele>72.66666666666666</ele><time>2026-05-01T06:38:17.957Z</time></trkpt><trkpt lat="44.4909026" lon="11.346595"><ele>72.33333333333333</ele><time>2026-05-01T06:38:19.959Z</time></trkpt><trkpt lat="44.4908133" lon="11.3465999"><ele>72.0</ele><time>2026-05-01T06:38:21.956Z</time></trkpt><trkpt lat="44.4907314" lon="11.3466051"><ele>71.66666666666667</ele><time>2026-05-01T06:38:23.96Z</time></trkpt><trkpt lat="44.4906572" lon="11.3466156"><ele>71.33333333333334</ele><time>2026-05-01T06:38:26.057Z</time></trkpt><trkpt lat="44.4905837" lon="11.3466145"><ele>71.0</ele><time>2026-05-01T06:38:27.963Z</time></trkpt><trkpt lat="44.4905141" lon="11.3466196"><ele>71.0</ele><time>2026-05-01T06:38:29.967Z</time></trkpt><trkpt lat="44.4904346" lon="11.3466066"><ele>71.0</ele><time>2026-05-01T06:38:31.964Z</time></trkpt><trkpt lat="44.4903557" lon="11.3466241"><ele>71.0</ele><time>2026-05-01T06:38:34.027Z</time></trkpt><trkpt lat="44.4902878" lon="11.3466501"><ele>71.0</ele><time>2026-05-01T06:38:35.967Z</time></trkpt><trkpt lat="44.4902172" lon="11.3466505"><ele>71.0</ele><time>2026-05-01T06:38:37.972Z</time></trkpt><trkpt lat="44.4901521" lon="11.3466473"><ele>71.0</ele><time>2026-05-01T06:38:39.957Z</time></trkpt><trkpt lat="44.4900738" lon="11.346632"><ele>71.0</ele><time>2026-05-01T06:38:43.029Z</time></trkpt><trkpt lat="44.4900032" lon="11.3466343"><ele>71.0</ele><time>2026-05-01T06:38:45.968Z</time></trkpt><trkpt lat="44.4899247" lon="11.3466699"><ele>71.0</ele><time>2026-05-01T06:38:49.97Z</time></trkpt><trkpt lat="44.4898504" lon="11.3467166"><ele>71.0</ele><time>2026-05-01T06:38:53.06Z</time></trkpt><trkpt lat="44.4897799" lon="11.3467891"><ele>71.0</ele><time>2026-05-01T06:38:56.054Z</time></trkpt><trkpt lat="44.4897093" lon="11.3468539"><ele>71.0</ele><time>2026-05-01T06:38:59.122Z</time></trkpt><trkpt lat="44.48964" lon="11.3468812"><ele>71.0</ele><time>2026-05-01T06:39:02.056Z</time></trkpt><trkpt lat="44.489584" lon="11.3469356"><ele>71.0</ele><time>2026-05-01T06:39:04.046Z</time></trkpt><trkpt lat="44.4895134" lon="11.3470122"><ele>71.0</ele><time>2026-05-01T06:39:07.049Z</time></trkpt><trkpt lat="44.4894844" lon="11.3470983"><ele>71.0</ele><time>2026-05-01T06:39:10.057Z</time></trkpt><trkpt lat="44.4894252" lon="11.3471561"><ele>71.0</ele><time>2026-05-01T06:39:12.055Z</time></trkpt><trkpt lat="44.4893593" lon="11.3472243"><ele>71.0</ele><time>2026-05-01T06:39:14.056Z</time></trkpt><trkpt lat="44.4892972" lon="11.3472487"><ele>71.0</ele><time>2026-05-01T06:39:15.051Z</time></trkpt><trkpt lat="44.4891869" lon="11.3472921"><ele>71.2</ele><time>2026-05-01T06:39:17.052Z</time></trkpt><trkpt lat="44.489082" lon="11.3473445"><ele>71.39999999999999</ele><time>2026-05-01T06:39:19.025Z</time></trkpt><trkpt lat="44.4889906" lon="11.3473833"><ele>71.6</ele><time>2026-05-01T06:39:20.975Z</time></trkpt><trkpt lat="44.488901" lon="11.3474302"><ele>71.8</ele><time>2026-05-01T06:39:22.952Z</time></trkpt><trkpt lat="44.4888206" lon="11.347472"><ele>72.0</ele><time>2026-05-01T06:39:24.952Z</time></trkpt><trkpt lat="44.4887349" lon="11.3475156"><ele>72.33333333333333</ele><time>2026-05-01T06:39:26.957Z</time></trkpt><trkpt lat="44.4886693" lon="11.3475657"><ele>72.66666666666667</ele><time>2026-05-01T06:39:28.957Z</time></trkpt><trkpt lat="44.4885968" lon="11.3476038"><ele>73.0</ele><time>2026-05-01T06:39:30.957Z</time></trkpt><trkpt lat="44.4885271" lon="11.347628"><ele>73.33333333333334</ele><time>2026-05-01T06:39:32.959Z</time></trkpt><trkpt lat="44.4884606" lon="11.3476539"><ele>73.66666666666667</ele><time>2026-05-01T06:39:34.961Z</time></trkpt><trkpt lat="44.4883727" lon="11.3477012"><ele>74.0</ele><time>2026-05-01T06:39:37.96Z</time></trkpt><trkpt lat="44.4883016" lon="11.3477162"><ele>74.0</ele><time>2026-05-01T06:39:40.964Z</time></trkpt><trkpt lat="44.4882411" lon="11.3477735"><ele>74.0</ele><time>2026-05-01T06:39:43.961Z</time></trkpt><trkpt lat="44.4881665" lon="11.3478008"><ele>74.0</ele><time>2026-05-01T06:39:45.96Z</time></trkpt><trkpt lat="44.488098" lon="11.347832"><ele>74.0</ele><time>2026-05-01T06:39:47.954Z</time></trkpt><trkpt lat="44.4880362" lon="11.3478672"><ele>74.0</ele><time>2026-05-01T06:39:49.962Z</time></trkpt><trkpt lat="44.4879509" lon="11.3478947"><ele>74.0</ele><time>2026-05-01T06:39:51.955Z</time></trkpt><trkpt lat="44.4878658" lon="11.3479274"><ele>74.0</ele><time>2026-05-01T06:39:53.956Z</time></trkpt><trkpt lat="44.4877804" lon="11.3479531"><ele>74.0</ele><time>2026-05-01T06:39:55.956Z</time></trkpt><trkpt lat="44.487687" lon="11.3479735"><ele>74.0</ele><time>2026-05-01T06:39:57.957Z</time></trkpt><trkpt lat="44.4875988" lon="11.3479964"><ele>74.0</ele><time>2026-05-01T06:39:59.955Z</time></trkpt><trkpt lat="44.4875131" lon="11.3480234"><ele>74.0</ele><time>2026-05-01T06:40:01.959Z</time></trkpt><trkpt lat="44.4874347" lon="11.3480611"><ele>74.0</ele><time>2026-05-01T06:40:03.955Z</time></trkpt><trkpt lat="44.4873486" lon="11.3480891"><ele>74.0</ele><time>2026-05-01T06:40:05.961Z</time></trkpt><trkpt lat="44.4872668" lon="11.3481233"><ele>74.0</ele><time>2026-05-01T06:40:07.965Z</time></trkpt><trkpt lat="44.4871802" lon="11.3481466"><ele>74.0</ele><time>2026-05-01T06:40:09.952Z</time></trkpt><trkpt lat="44.4870971" lon="11.3481606"><ele>74.0</ele><time>2026-05-01T06:40:12.033Z</time></trkpt><trkpt lat="44.4870031" lon="11.3481748"><ele>74.0</ele><time>2026-05-01T06:40:14.03Z</time></trkpt><trkpt lat="44.4869196" lon="11.3481989"><ele>74.0</ele><time>2026-05-01T06:40:15.958Z</time></trkpt><trkpt lat="44.4868519" lon="11.348222"><ele>74.16666666666667</ele><time>2026-05-01T06:40:17.958Z</time></trkpt><trkpt lat="44.4867821" lon="11.348239"><ele>74.33333333333334</ele><time>2026-05-01T06:40:19.971Z</time></trkpt><trkpt lat="44.4866945" lon="11.3482604"><ele>74.5</ele><time>2026-05-01T06:40:21.958Z</time></trkpt><trkpt lat="44.4866093" lon="11.3482726"><ele>74.66666666666667</ele><time>2026-05-01T06:40:23.965Z</time></trkpt><trkpt lat="44.4865324" lon="11.3482789"><ele>74.83333333333333</ele><time>2026-05-01T06:40:25.962Z</time></trkpt><trkpt lat="44.4864573" lon="11.3482804"><ele>75.0</ele><time>2026-05-01T06:40:27.964Z</time></trkpt><trkpt lat="44.4863724" lon="11.3482871"><ele>75.0</ele><time>2026-05-01T06:40:29.959Z</time></trkpt><trkpt lat="44.4862855" lon="11.3482922"><ele>75.0</ele><time>2026-05-01T06:40:31.962Z</time></trkpt><trkpt lat="44.486201" lon="11.3482847"><ele>75.0</ele><time>2026-05-01T06:40:33.963Z</time></trkpt><trkpt lat="44.4861167" lon="11.348277"><ele>75.0</ele><time>2026-05-01T06:40:35.965Z</time></trkpt><trkpt lat="44.486037" lon="11.3482694"><ele>75.0</ele><time>2026-05-01T06:40:37.964Z</time></trkpt><trkpt lat="44.4859608" lon="11.3482445"><ele>75.0</ele><time>2026-05-01T06:40:39.967Z</time></trkpt><trkpt lat="44.4858894" lon="11.3482283"><ele>74.85714285714285</ele><time>2026-05-01T06:40:41.965Z</time></trkpt><trkpt lat="44.4858158" lon="11.3482201"><ele>74.71428571428571</ele><time>2026-05-01T06:40:43.959Z</time></trkpt><trkpt lat="44.4857456" lon="11.3482108"><ele>74.57142857142857</ele><time>2026-05-01T06:40:45.963Z</time></trkpt><trkpt lat="44.4856754" lon="11.348193"><ele>74.42857142857142</ele><time>2026-05-01T06:40:47.969Z</time></trkpt><trkpt lat="44.4856202" lon="11.3481489"><ele>74.28571428571428</ele><time>2026-05-01T06:40:49.963Z</time></trkpt><trkpt lat="44.4855692" lon="11.3480752"><ele>74.14285714285714</ele><time>2026-05-01T06:40:53.96Z</time></trkpt><trkpt lat="44.4855071" lon="11.3480461"><ele>74.0</ele><time>2026-05-01T06:40:59.963Z</time></trkpt><trkpt lat="44.4854244" lon="11.3481071"><ele>74.0</ele><time>2026-05-01T06:41:10.959Z</time></trkpt><trkpt lat="44.4853786" lon="11.3482104"><ele>74.0</ele><time>2026-05-01T06:41:12.977Z</time></trkpt><trkpt lat="44.4853469" lon="11.3483486"><ele>74.0</ele><time>2026-05-01T06:41:14.973Z</time></trkpt><trkpt lat="44.4853387" lon="11.3484921"><ele>74.0</ele><time>2026-05-01T06:41:17.03Z</time></trkpt><trkpt lat="44.4853146" lon="11.348616"><ele>74.0</ele><time>2026-05-01T06:41:19.035Z</time></trkpt><trkpt lat="44.4852985" lon="11.3487138"><ele>74.0</ele><time>2026-05-01T06:41:20.972Z</time></trkpt><trkpt lat="44.4852834" lon="11.3488315"><ele>74.0</ele><time>2026-05-01T06:41:23.968Z</time></trkpt><trkpt lat="44.4852719" lon="11.3489435"><ele>74.0</ele><time>2026-05-01T06:41:26.973Z</time></trkpt><trkpt lat="44.4851999" lon="11.3490132"><ele>74.0</ele><time>2026-05-01T06:41:31.975Z</time></trkpt><trkpt lat="44.4851573" lon="11.3490789"><ele>74.0</ele><time>2026-05-01T06:41:33.967Z</time></trkpt><trkpt lat="44.4851181" lon="11.3491714"><ele>74.0</ele><time>2026-05-01T06:41:35.972Z</time></trkpt><trkpt lat="44.4850384" lon="11.3491878"><ele>73.71428571428572</ele><time>2026-05-01T06:41:37.973Z</time></trkpt><trkpt lat="44.4849635" lon="11.3491511"><ele>73.42857142857143</ele><time>2026-05-01T06:41:39.972Z</time></trkpt><trkpt lat="44.4848924" lon="11.3491158"><ele>73.14285714285714</ele><time>2026-05-01T06:41:41.972Z</time></trkpt><trkpt lat="44.4848326" lon="11.3490748"><ele>72.85714285714286</ele><time>2026-05-01T06:41:45.967Z</time></trkpt><trkpt lat="44.4848911" lon="11.3491397"><ele>72.57142857142857</ele><time>2026-05-01T06:41:49.964Z</time></trkpt><trkpt lat="44.484928" lon="11.3492155"><ele>72.28571428571429</ele><time>2026-05-01T06:41:51.969Z</time></trkpt><trkpt lat="44.4849121" lon="11.349308"><ele>72.0</ele><time>2026-05-01T06:41:53.971Z</time></trkpt><trkpt lat="44.4848906" lon="11.3493973"><ele>72.00000000000001</ele><time>2026-05-01T06:41:55.96Z</time></trkpt><trkpt lat="44.4848734" lon="11.3494903"><ele>72.0</ele><time>2026-05-01T06:41:57.977Z</time></trkpt><trkpt lat="44.4848344" lon="11.3496092"><ele>72.0</ele><time>2026-05-01T06:42:00.958Z</time></trkpt><trkpt lat="44.4848057" lon="11.3497009"><ele>72.0</ele><time>2026-05-01T06:42:02.959Z</time></trkpt><trkpt lat="44.4847618" lon="11.3497875"><ele>72.0</ele><time>2026-05-01T06:42:05.962Z</time></trkpt><trkpt lat="44.4847307" lon="11.3498679"><ele>72.00000000000001</ele><time>2026-05-01T06:42:07.972Z</time></trkpt><trkpt lat="44.4847159" lon="11.3499588"><ele>72.0</ele><time>2026-05-01T06:42:09.96Z</time></trkpt><trkpt lat="44.4847085" lon="11.3500514"><ele>72.16666666666667</ele><time>2026-05-01T06:42:11.977Z</time></trkpt><trkpt lat="44.4846829" lon="11.3501823"><ele>72.33333333333333</ele><time>2026-05-01T06:42:14.976Z</time></trkpt><trkpt lat="44.4846427" lon="11.3502751"><ele>72.5</ele><time>2026-05-01T06:42:17.034Z</time></trkpt><trkpt lat="44.4845809" lon="11.3503393"><ele>72.66666666666666</ele><time>2026-05-01T06:42:18.97Z</time></trkpt><trkpt lat="44.4845198" lon="11.3503945"><ele>72.83333333333333</ele><time>2026-05-01T06:42:20.988Z</time></trkpt><trkpt lat="44.4844598" lon="11.3504434"><ele>73.0</ele><time>2026-05-01T06:42:22.972Z</time></trkpt><trkpt lat="44.4843933" lon="11.3504304"><ele>73.42857142857143</ele><time>2026-05-01T06:42:24.967Z</time></trkpt><trkpt lat="44.484316" lon="11.3503916"><ele>73.85714285714286</ele><time>2026-05-01T06:42:26.974Z</time></trkpt><trkpt lat="44.4842559" lon="11.3503639"><ele>74.28571428571428</ele><time>2026-05-01T06:42:29.038Z</time></trkpt><trkpt lat="44.4841856" lon="11.3503344"><ele>74.71428571428572</ele><time>2026-05-01T06:42:30.964Z</time></trkpt><trkpt lat="44.4841162" lon="11.350294"><ele>75.14285714285715</ele><time>2026-05-01T06:42:32.979Z</time></trkpt><trkpt lat="44.4840521" lon="11.3502583"><ele>75.57142857142857</ele><time>2026-05-01T06:42:34.969Z</time></trkpt><trkpt lat="44.4839791" lon="11.3502439"><ele>76.0</ele><time>2026-05-01T06:42:36.971Z</time></trkpt><trkpt lat="44.4839134" lon="11.3502333"><ele>76.0</ele><time>2026-05-01T06:42:38.973Z</time></trkpt><trkpt lat="44.4838439" lon="11.3502194"><ele>76.0</ele><time>2026-05-01T06:42:40.974Z</time></trkpt><trkpt lat="44.48378" lon="11.3502206"><ele>76.0</ele><time>2026-05-01T06:42:42.972Z</time></trkpt><trkpt lat="44.4837085" lon="11.3502252"><ele>76.0</ele><time>2026-05-01T06:42:44.976Z</time></trkpt><trkpt lat="44.4836312" lon="11.3502226"><ele>76.0</ele><time>2026-05-01T06:42:48.04Z</time></trkpt><trkpt lat="44.4835632" lon="11.3502524"><ele>76.0</ele><time>2026-05-01T06:42:50.96Z</time></trkpt><trkpt lat="44.4835051" lon="11.3503293"><ele>76.0</ele><time>2026-05-01T06:42:53.974Z</time></trkpt><trkpt lat="44.4834739" lon="11.3504482"><ele>76.33333333333333</ele><time>2026-05-01T06:42:56.958Z</time></trkpt><trkpt lat="44.4834678" lon="11.3505687"><ele>76.66666666666666</ele><time>2026-05-01T06:42:59.952Z</time></trkpt><trkpt lat="44.4834848" lon="11.3506965"><ele>77.0</ele><time>2026-05-01T06:43:02.972Z</time></trkpt><trkpt lat="44.4835112" lon="11.3508187"><ele>77.33333333333333</ele><time>2026-05-01T06:43:05.966Z</time></trkpt><trkpt lat="44.483525" lon="11.3509075"><ele>77.66666666666667</ele><time>2026-05-01T06:43:07.972Z</time></trkpt><trkpt lat="44.483537" lon="11.3510008"><ele>78.0</ele><time>2026-05-01T06:43:09.968Z</time></trkpt><trkpt lat="44.4835518" lon="11.3511086"><ele>78.0</ele><time>2026-05-01T06:43:11.974Z</time></trkpt><trkpt lat="44.4835528" lon="11.3512083"><ele>78.0</ele><time>2026-05-01T06:43:14.047Z</time></trkpt><trkpt lat="44.4835514" lon="11.3513121"><ele>78.0</ele><time>2026-05-01T06:43:15.97Z</time></trkpt><trkpt lat="44.4835398" lon="11.3514334"><ele>78.0</ele><time>2026-05-01T06:43:17.974Z</time></trkpt><trkpt lat="44.4835295" lon="11.3515373"><ele>78.0</ele><time>2026-05-01T06:43:19.965Z</time></trkpt><trkpt lat="44.4835001" lon="11.3516763"><ele>78.0</ele><time>2026-05-01T06:43:22.975Z</time></trkpt><trkpt lat="44.4834899" lon="11.3518235"><ele>78.0</ele><time>2026-05-01T06:43:24.967Z</time></trkpt><trkpt lat="44.4834509" lon="11.3519435"><ele>78.0</ele><time>2026-05-01T06:43:26.968Z</time></trkpt><trkpt lat="44.4834075" lon="11.3520792"><ele>78.0</ele><time>2026-05-01T06:43:28.973Z</time></trkpt><trkpt lat="44.4833529" lon="11.3522119"><ele>78.0</ele><time>2026-05-01T06:43:30.97Z</time></trkpt><trkpt lat="44.4832975" lon="11.3523409"><ele>78.0</ele><time>2026-05-01T06:43:33.031Z</time></trkpt><trkpt lat="44.4832436" lon="11.3524662"><ele>78.0</ele><time>2026-05-01T06:43:34.966Z</time></trkpt><trkpt lat="44.483181" lon="11.3525828"><ele>78.0</ele><time>2026-05-01T06:43:36.985Z</time></trkpt><trkpt lat="44.4831211" lon="11.3526926"><ele>78.0</ele><time>2026-05-01T06:43:38.975Z</time></trkpt><trkpt lat="44.4830637" lon="11.3528007"><ele>78.0</ele><time>2026-05-01T06:43:40.957Z</time></trkpt><trkpt lat="44.4829983" lon="11.3529045"><ele>78.0</ele><time>2026-05-01T06:43:43.032Z</time></trkpt><trkpt lat="44.482938" lon="11.3530138"><ele>78.2</ele><time>2026-05-01T06:43:44.976Z</time></trkpt><trkpt lat="44.4828854" lon="11.3531266"><ele>78.4</ele><time>2026-05-01T06:43:47.067Z</time></trkpt><trkpt lat="44.4828338" lon="11.3532259"><ele>78.60000000000001</ele><time>2026-05-01T06:43:48.974Z</time></trkpt><trkpt lat="44.4827867" lon="11.3533396"><ele>78.8</ele><time>2026-05-01T06:43:50.98Z</time></trkpt><trkpt lat="44.4827521" lon="11.3534587"><ele>79.0</ele><time>2026-05-01T06:43:53.001Z</time></trkpt><trkpt lat="44.4827291" lon="11.3535933"><ele>79.0</ele><time>2026-05-01T06:43:54.968Z</time></trkpt><trkpt lat="44.4827125" lon="11.353736"><ele>79.0</ele><time>2026-05-01T06:43:56.972Z</time></trkpt><trkpt lat="44.4827051" lon="11.3538894"><ele>79.0</ele><time>2026-05-01T06:43:58.976Z</time></trkpt><trkpt lat="44.4827085" lon="11.354029"><ele>79.0</ele><time>2026-05-01T06:44:00.968Z</time></trkpt><trkpt lat="44.4827147" lon="11.3541757"><ele>79.0</ele><time>2026-05-01T06:44:02.969Z</time></trkpt><trkpt lat="44.4827165" lon="11.3543159"><ele>79.0</ele><time>2026-05-01T06:44:04.981Z</time></trkpt><trkpt lat="44.4827235" lon="11.3544502"><ele>79.0</ele><time>2026-05-01T06:44:06.967Z</time></trkpt><trkpt lat="44.4827188" lon="11.3545884"><ele>79.0</ele><time>2026-05-01T06:44:08.968Z</time></trkpt><trkpt lat="44.4827136" lon="11.3547158"><ele>79.0</ele><time>2026-05-01T06:44:10.976Z</time></trkpt><trkpt lat="44.4826829" lon="11.3548271"><ele>79.0</ele><time>2026-05-01T06:44:12.968Z</time></trkpt><trkpt lat="44.4826268" lon="11.354926"><ele>78.33333333333333</ele><time>2026-05-01T06:44:14.967Z</time></trkpt><trkpt lat="44.4825562" lon="11.3550014"><ele>77.66666666666666</ele><time>2026-05-01T06:44:16.964Z</time></trkpt><trkpt lat="44.4824865" lon="11.3550658"><ele>77.0</ele><time>2026-05-01T06:44:18.966Z</time></trkpt><trkpt lat="44.4824157" lon="11.3551192"><ele>76.33333333333333</ele><time>2026-05-01T06:44:20.961Z</time></trkpt><trkpt lat="44.4823373" lon="11.3551449"><ele>75.66666666666667</ele><time>2026-05-01T06:44:22.961Z</time></trkpt><trkpt lat="44.4822587" lon="11.3551385"><ele>75.0</ele><time>2026-05-01T06:44:24.958Z</time></trkpt><trkpt lat="44.4821744" lon="11.3551407"><ele>75.66666666666667</ele><time>2026-05-01T06:44:26.964Z</time></trkpt><trkpt lat="44.482088" lon="11.3551406"><ele>76.33333333333333</ele><time>2026-05-01T06:44:28.964Z</time></trkpt><trkpt lat="44.4820079" lon="11.3551491"><ele>77.0</ele><time>2026-05-01T06:44:30.965Z</time></trkpt><trkpt lat="44.4819285" lon="11.3551656"><ele>77.66666666666666</ele><time>2026-05-01T06:44:32.963Z</time></trkpt><trkpt lat="44.4818478" lon="11.3551908"><ele>78.33333333333333</ele><time>2026-05-01T06:44:34.966Z</time></trkpt><trkpt lat="44.4817724" lon="11.3552242"><ele>79.0</ele><time>2026-05-01T06:44:36.961Z</time></trkpt><trkpt lat="44.4816947" lon="11.3552708"><ele>79.0</ele><time>2026-05-01T06:44:38.958Z</time></trkpt><trkpt lat="44.4816254" lon="11.3553131"><ele>79.0</ele><time>2026-05-01T06:44:40.968Z</time></trkpt><trkpt lat="44.4815563" lon="11.3553672"><ele>79.0</ele><time>2026-05-01T06:44:42.963Z</time></trkpt><trkpt lat="44.4814789" lon="11.3554322"><ele>79.0</ele><time>2026-05-01T06:44:44.97Z</time></trkpt><trkpt lat="44.4814077" lon="11.3554805"><ele>79.0</ele><time>2026-05-01T06:44:46.962Z</time></trkpt><trkpt lat="44.4813332" lon="11.3555202"><ele>79.0</ele><time>2026-05-01T06:44:48.968Z</time></trkpt><trkpt lat="44.4812646" lon="11.3555557"><ele>78.85714285714286</ele><time>2026-05-01T06:44:50.961Z</time></trkpt><trkpt lat="44.4811978" lon="11.355579"><ele>78.71428571428572</ele><time>2026-05-01T06:44:52.96Z</time></trkpt><trkpt lat="44.4811323" lon="11.3555927"><ele>78.57142857142858</ele><time>2026-05-01T06:44:54.975Z</time></trkpt><trkpt lat="44.4810674" lon="11.3555848"><ele>78.42857142857143</ele><time>2026-05-01T06:44:56.968Z</time></trkpt><trkpt lat="44.4809904" lon="11.3555833"><ele>78.28571428571428</ele><time>2026-05-01T06:44:58.974Z</time></trkpt><trkpt lat="44.480926" lon="11.3556321"><ele>78.14285714285715</ele><time>2026-05-01T06:45:00.969Z</time></trkpt><trkpt lat="44.4808937" lon="11.3557256"><ele>78.0</ele><time>2026-05-01T06:45:03.965Z</time></trkpt><trkpt lat="44.480871" lon="11.3558166"><ele>78.0</ele><time>2026-05-01T06:45:06.97Z</time></trkpt><trkpt lat="44.4808522" lon="11.3559063"><ele>78.0</ele><time>2026-05-01T06:45:09.979Z</time></trkpt><trkpt lat="44.4808351" lon="11.3559996"><ele>78.0</ele><time>2026-05-01T06:45:15.971Z</time></trkpt><trkpt lat="44.4807698" lon="11.3560157"><ele>78.0</ele><time>2026-05-01T06:45:26.976Z</time></trkpt><trkpt lat="44.4807167" lon="11.3559342"><ele>78.0</ele><time>2026-05-01T06:45:29.042Z</time></trkpt><trkpt lat="44.4806722" lon="11.3558494"><ele>78.0</ele><time>2026-05-01T06:45:30.966Z</time></trkpt><trkpt lat="44.480624" lon="11.3557545"><ele>78.0</ele><time>2026-05-01T06:45:32.967Z</time></trkpt><trkpt lat="44.4805674" lon="11.3556765"><ele>78.0</ele><time>2026-05-01T06:45:34.976Z</time></trkpt><trkpt lat="44.4805157" lon="11.3556008"><ele>78.0</ele><time>2026-05-01T06:45:36.961Z</time></trkpt><trkpt lat="44.4804774" lon="11.3555127"><ele>78.0</ele><time>2026-05-01T06:45:38.967Z</time></trkpt><trkpt lat="44.480421" lon="11.3554505"><ele>78.0</ele><time>2026-05-01T06:45:40.957Z</time></trkpt><trkpt lat="44.4803585" lon="11.3553979"><ele>78.0</ele><time>2026-05-01T06:45:42.953Z</time></trkpt><trkpt lat="44.4802896" lon="11.3554166"><ele>78.0</ele><time>2026-05-01T06:45:44.971Z</time></trkpt><trkpt lat="44.4802342" lon="11.3554899"><ele>78.0</ele><time>2026-05-01T06:45:46.978Z</time></trkpt><trkpt lat="44.480179" lon="11.3555579"><ele>78.5</ele><time>2026-05-01T06:45:48.976Z</time></trkpt><trkpt lat="44.4801345" lon="11.3556438"><ele>79.0</ele><time>2026-05-01T06:45:50.973Z</time></trkpt><trkpt lat="44.4800907" lon="11.3557308"><ele>79.5</ele><time>2026-05-01T06:45:52.96Z</time></trkpt><trkpt lat="44.4800434" lon="11.3558145"><ele>80.0</ele><time>2026-05-01T06:45:54.993Z</time></trkpt><trkpt lat="44.4799949" lon="11.3559016"><ele>80.5</ele><time>2026-05-01T06:45:56.976Z</time></trkpt><trkpt lat="44.4799425" lon="11.3559859"><ele>81.0</ele><time>2026-05-01T06:45:58.974Z</time></trkpt><trkpt lat="44.479885" lon="11.3560782"><ele>81.0</ele><time>2026-05-01T06:46:00.971Z</time></trkpt><trkpt lat="44.4798258" lon="11.3561731"><ele>81.0</ele><time>2026-05-01T06:46:02.983Z</time></trkpt><trkpt lat="44.4797642" lon="11.3562573"><ele>81.0</ele><time>2026-05-01T06:46:04.965Z</time></trkpt><trkpt lat="44.4797078" lon="11.3563457"><ele>81.0</ele><time>2026-05-01T06:46:06.974Z</time></trkpt><trkpt lat="44.4796546" lon="11.3564296"><ele>81.0</ele><time>2026-05-01T06:46:08.971Z</time></trkpt><trkpt lat="44.4796066" lon="11.3565133"><ele>81.0</ele><time>2026-05-01T06:46:10.964Z</time></trkpt><trkpt lat="44.4795514" lon="11.3566125"><ele>81.16666666666667</ele><time>2026-05-01T06:46:12.975Z</time></trkpt><trkpt lat="44.4794886" lon="11.3567081"><ele>81.33333333333333</ele><time>2026-05-01T06:46:14.979Z</time></trkpt><trkpt lat="44.4794351" lon="11.3567979"><ele>81.5</ele><time>2026-05-01T06:46:16.975Z</time></trkpt><trkpt lat="44.4793774" lon="11.3568911"><ele>81.66666666666666</ele><time>2026-05-01T06:46:18.968Z</time></trkpt><trkpt lat="44.4793238" lon="11.3569723"><ele>81.83333333333333</ele><time>2026-05-01T06:46:20.974Z</time></trkpt><trkpt lat="44.4792719" lon="11.3570554"><ele>82.0</ele><time>2026-05-01T06:46:22.973Z</time></trkpt><trkpt lat="44.4792301" lon="11.3571494"><ele>82.0</ele><time>2026-05-01T06:46:24.964Z</time></trkpt><trkpt lat="44.4791747" lon="11.3572461"><ele>82.0</ele><time>2026-05-01T06:46:26.972Z</time></trkpt><trkpt lat="44.4791187" lon="11.357326"><ele>82.0</ele><time>2026-05-01T06:46:28.982Z</time></trkpt><trkpt lat="44.4790695" lon="11.3574091"><ele>82.0</ele><time>2026-05-01T06:46:30.982Z</time></trkpt><trkpt lat="44.4790186" lon="11.3574848"><ele>82.0</ele><time>2026-05-01T06:46:32.955Z</time></trkpt><trkpt lat="44.4789554" lon="11.3575365"><ele>82.0</ele><time>2026-05-01T06:46:34.971Z</time></trkpt><trkpt lat="44.4788767" lon="11.3575118"><ele>82.0</ele><time>2026-05-01T06:46:36.966Z</time></trkpt><trkpt lat="44.4788113" lon="11.3574374"><ele>82.0</ele><time>2026-05-01T06:46:38.976Z</time></trkpt><trkpt lat="44.4787559" lon="11.35736"><ele>82.0</ele><time>2026-05-01T06:46:40.968Z</time></trkpt><trkpt lat="44.4786995" lon="11.3572793"><ele>82.0</ele><time>2026-05-01T06:46:42.969Z</time></trkpt><trkpt lat="44.4786439" lon="11.3572159"><ele>82.0</ele><time>2026-05-01T06:46:44.982Z</time></trkpt><trkpt lat="44.4785856" lon="11.3571615"><ele>82.0</ele><time>2026-05-01T06:46:46.973Z</time></trkpt><trkpt lat="44.478532" lon="11.3570856"><ele>82.83333333333333</ele><time>2026-05-01T06:46:48.971Z</time></trkpt><trkpt lat="44.4784795" lon="11.3570182"><ele>83.66666666666666</ele><time>2026-05-01T06:46:50.968Z</time></trkpt><trkpt lat="44.4784189" lon="11.3569429"><ele>84.5</ele><time>2026-05-01T06:46:52.971Z</time></trkpt><trkpt lat="44.4783604" lon="11.3568627"><ele>85.33333333333333</ele><time>2026-05-01T06:46:54.97Z</time></trkpt><trkpt lat="44.4783052" lon="11.3567781"><ele>86.16666666666667</ele><time>2026-05-01T06:46:56.972Z</time></trkpt><trkpt lat="44.4782462" lon="11.3567068"><ele>87.0</ele><time>2026-05-01T06:46:58.967Z</time></trkpt><trkpt lat="44.4781866" lon="11.3566298"><ele>87.0</ele><time>2026-05-01T06:47:00.964Z</time></trkpt><trkpt lat="44.4781244" lon="11.3565579"><ele>87.0</ele><time>2026-05-01T06:47:02.969Z</time></trkpt><trkpt lat="44.4780726" lon="11.3564834"><ele>87.0</ele><time>2026-05-01T06:47:04.974Z</time></trkpt><trkpt lat="44.4780093" lon="11.356409"><ele>87.0</ele><time>2026-05-01T06:47:06.973Z</time></trkpt><trkpt lat="44.4779491" lon="11.3563418"><ele>87.0</ele><time>2026-05-01T06:47:08.966Z</time></trkpt><trkpt lat="44.4779009" lon="11.3562682"><ele>87.0</ele><time>2026-05-01T06:47:10.971Z</time></trkpt><trkpt lat="44.4778421" lon="11.3561852"><ele>87.83333333333333</ele><time>2026-05-01T06:47:12.987Z</time></trkpt><trkpt lat="44.477781" lon="11.3561078"><ele>88.66666666666667</ele><time>2026-05-01T06:47:14.982Z</time></trkpt><trkpt lat="44.4777137" lon="11.3560283"><ele>89.5</ele><time>2026-05-01T06:47:16.976Z</time></trkpt><trkpt lat="44.4776538" lon="11.3559566"><ele>90.33333333333334</ele><time>2026-05-01T06:47:18.967Z</time></trkpt><trkpt lat="44.4775958" lon="11.355886"><ele>91.16666666666667</ele><time>2026-05-01T06:47:20.983Z</time></trkpt><trkpt lat="44.4775475" lon="11.3558175"><ele>92.0</ele><time>2026-05-01T06:47:22.976Z</time></trkpt><trkpt lat="44.4774876" lon="11.3557551"><ele>92.0</ele><time>2026-05-01T06:47:24.975Z</time></trkpt><trkpt lat="44.4774226" lon="11.3556908"><ele>92.0</ele><time>2026-05-01T06:47:26.982Z</time></trkpt><trkpt lat="44.4773727" lon="11.3556155"><ele>92.0</ele><time>2026-05-01T06:47:28.957Z</time></trkpt><trkpt lat="44.4773164" lon="11.3555515"><ele>92.0</ele><time>2026-05-01T06:47:30.977Z</time></trkpt><trkpt lat="44.4772573" lon="11.3555038"><ele>92.0</ele><time>2026-05-01T06:47:32.981Z</time></trkpt><trkpt lat="44.4771927" lon="11.3555078"><ele>92.0</ele><time>2026-05-01T06:47:35.97Z</time></trkpt><trkpt lat="44.4771635" lon="11.3555994"><ele>92.0</ele><time>2026-05-01T06:47:38.975Z</time></trkpt><trkpt lat="44.4771216" lon="11.3557096"><ele>91.5</ele><time>2026-05-01T06:47:41.035Z</time></trkpt><trkpt lat="44.4770807" lon="11.3558363"><ele>91.0</ele><time>2026-05-01T06:47:42.979Z</time></trkpt><trkpt lat="44.4770307" lon="11.3559835"><ele>90.5</ele><time>2026-05-01T06:47:44.977Z</time></trkpt><trkpt lat="44.4769762" lon="11.3561387"><ele>90.0</ele><time>2026-05-01T06:47:46.968Z</time></trkpt><trkpt lat="44.4769216" lon="11.356298"><ele>89.75</ele><time>2026-05-01T06:47:48.984Z</time></trkpt><trkpt lat="44.4768743" lon="11.3564624"><ele>89.5</ele><time>2026-05-01T06:47:51.043Z</time></trkpt><trkpt lat="44.476826" lon="11.3566207"><ele>89.25</ele><time>2026-05-01T06:47:52.954Z</time></trkpt><trkpt lat="44.476786" lon="11.3567861"><ele>89.0</ele><time>2026-05-01T06:47:54.967Z</time></trkpt><trkpt lat="44.4767511" lon="11.3569464"><ele>89.0</ele><time>2026-05-01T06:47:56.975Z</time></trkpt><trkpt lat="44.4767161" lon="11.3571055"><ele>89.0</ele><time>2026-05-01T06:47:58.966Z</time></trkpt><trkpt lat="44.4766935" lon="11.3572783"><ele>89.0</ele><time>2026-05-01T06:48:00.961Z</time></trkpt><trkpt lat="44.4766892" lon="11.3573709"><ele>89.0</ele><time>2026-05-01T06:48:01.985Z</time></trkpt><trkpt lat="44.476669" lon="11.3575212"><ele>89.0</ele><time>2026-05-01T06:48:04.052Z</time></trkpt><trkpt lat="44.4766481" lon="11.3576697"><ele>89.2</ele><time>2026-05-01T06:48:05.974Z</time></trkpt><trkpt lat="44.4766346" lon="11.3578199"><ele>89.4</ele><time>2026-05-01T06:48:08.035Z</time></trkpt><trkpt lat="44.4766252" lon="11.3579659"><ele>89.6</ele><time>2026-05-01T06:48:09.974Z</time></trkpt><trkpt lat="44.4766156" lon="11.3581096"><ele>89.8</ele><time>2026-05-01T06:48:11.976Z</time></trkpt><trkpt lat="44.4766053" lon="11.3582741"><ele>90.0</ele><time>2026-05-01T06:48:13.977Z</time></trkpt><trkpt lat="44.4765952" lon="11.3584465"><ele>90.0</ele><time>2026-05-01T06:48:15.975Z</time></trkpt><trkpt lat="44.4765847" lon="11.3585385"><ele>90.0</ele><time>2026-05-01T06:48:17.105Z</time></trkpt><trkpt lat="44.4765654" lon="11.3587316"><ele>90.0</ele><time>2026-05-01T06:48:18.97Z</time></trkpt><trkpt lat="44.4765598" lon="11.35883"><ele>90.0</ele><time>2026-05-01T06:48:19.982Z</time></trkpt><trkpt lat="44.4765559" lon="11.3589222"><ele>90.0</ele><time>2026-05-01T06:48:21.045Z</time></trkpt><trkpt lat="44.4765492" lon="11.3590833"><ele>90.0</ele><time>2026-05-01T06:48:23.067Z</time></trkpt><trkpt lat="44.4765447" lon="11.3592399"><ele>90.0</ele><time>2026-05-01T06:48:24.989Z</time></trkpt><trkpt lat="44.4765229" lon="11.3593871"><ele>90.0</ele><time>2026-05-01T06:48:26.991Z</time></trkpt><trkpt lat="44.4764941" lon="11.3595251"><ele>90.0</ele><time>2026-05-01T06:48:28.978Z</time></trkpt><trkpt lat="44.4764626" lon="11.3596599"><ele>90.0</ele><time>2026-05-01T06:48:31.022Z</time></trkpt><trkpt lat="44.4764215" lon="11.3597945"><ele>89.8</ele><time>2026-05-01T06:48:33.036Z</time></trkpt><trkpt lat="44.4763745" lon="11.3599108"><ele>89.6</ele><time>2026-05-01T06:48:34.974Z</time></trkpt><trkpt lat="44.4763282" lon="11.3600192"><ele>89.4</ele><time>2026-05-01T06:48:36.982Z</time></trkpt><trkpt lat="44.4762721" lon="11.3601205"><ele>89.2</ele><time>2026-05-01T06:48:38.973Z</time></trkpt><trkpt lat="44.4762103" lon="11.3602227"><ele>89.0</ele><time>2026-05-01T06:48:40.968Z</time></trkpt><trkpt lat="44.4761487" lon="11.3603281"><ele>89.5</ele><time>2026-05-01T06:48:42.965Z</time></trkpt><trkpt lat="44.4761012" lon="11.3604313"><ele>90.0</ele><time>2026-05-01T06:48:44.982Z</time></trkpt><trkpt lat="44.4760619" lon="11.3605266"><ele>90.5</ele><time>2026-05-01T06:48:46.97Z</time></trkpt><trkpt lat="44.4760076" lon="11.3606202"><ele>91.0</ele><time>2026-05-01T06:48:48.966Z</time></trkpt><trkpt lat="44.4759473" lon="11.3607226"><ele>91.5</ele><time>2026-05-01T06:48:50.976Z</time></trkpt><trkpt lat="44.4758846" lon="11.3608296"><ele>92.0</ele><time>2026-05-01T06:48:52.974Z</time></trkpt><trkpt lat="44.4758257" lon="11.360937"><ele>92.0</ele><time>2026-05-01T06:48:54.973Z</time></trkpt><trkpt lat="44.4757763" lon="11.3610477"><ele>92.0</ele><time>2026-05-01T06:48:56.964Z</time></trkpt><trkpt lat="44.4757297" lon="11.3611669"><ele>92.0</ele><time>2026-05-01T06:48:58.974Z</time></trkpt><trkpt lat="44.4756764" lon="11.3612904"><ele>92.0</ele><time>2026-05-01T06:49:01.037Z</time></trkpt><trkpt lat="44.4756087" lon="11.3614218"><ele>92.0</ele><time>2026-05-01T06:49:02.975Z</time></trkpt><trkpt lat="44.4755304" lon="11.3615527"><ele>91.39999999999999</ele><time>2026-05-01T06:49:04.978Z</time></trkpt><trkpt lat="44.4754831" lon="11.3616168"><ele>90.8</ele><time>2026-05-01T06:49:06.041Z</time></trkpt><trkpt lat="44.4754432" lon="11.3616873"><ele>90.2</ele><time>2026-05-01T06:49:06.98Z</time></trkpt><trkpt lat="44.4753759" lon="11.3618272"><ele>89.6</ele><time>2026-05-01T06:49:09.037Z</time></trkpt><trkpt lat="44.4753007" lon="11.3619557"><ele>89.0</ele><time>2026-05-01T06:49:10.974Z</time></trkpt><trkpt lat="44.4752356" lon="11.3621038"><ele>90.75</ele><time>2026-05-01T06:49:12.97Z</time></trkpt><trkpt lat="44.4751666" lon="11.3622339"><ele>92.5</ele><time>2026-05-01T06:49:14.976Z</time></trkpt><trkpt lat="44.475091" lon="11.3623597"><ele>94.25</ele><time>2026-05-01T06:49:16.973Z</time></trkpt><trkpt lat="44.4750219" lon="11.3624798"><ele>96.0</ele><time>2026-05-01T06:49:18.975Z</time></trkpt><trkpt lat="44.4749459" lon="11.3626032"><ele>96.0</ele><time>2026-05-01T06:49:20.974Z</time></trkpt><trkpt lat="44.4748779" lon="11.3627335"><ele>96.0</ele><time>2026-05-01T06:49:23.039Z</time></trkpt><trkpt lat="44.4748085" lon="11.3628614"><ele>96.0</ele><time>2026-05-01T06:49:24.969Z</time></trkpt><trkpt lat="44.4747451" lon="11.3629848"><ele>96.0</ele><time>2026-05-01T06:49:26.983Z</time></trkpt><trkpt lat="44.4746758" lon="11.3631119"><ele>96.19999999999999</ele><time>2026-05-01T06:49:28.971Z</time></trkpt><trkpt lat="44.4745999" lon="11.3632435"><ele>96.39999999999999</ele><time>2026-05-01T06:49:30.974Z</time></trkpt><trkpt lat="44.4745289" lon="11.3633571"><ele>96.6</ele><time>2026-05-01T06:49:32.973Z</time></trkpt><trkpt lat="44.4744597" lon="11.3634775"><ele>96.8</ele><time>2026-05-01T06:49:34.971Z</time></trkpt><trkpt lat="44.4743812" lon="11.3635833"><ele>97.0</ele><time>2026-05-01T06:49:36.98Z</time></trkpt><trkpt lat="44.474306" lon="11.3636835"><ele>97.00000000000001</ele><time>2026-05-01T06:49:39.031Z</time></trkpt><trkpt lat="44.4742399" lon="11.3637632"><ele>97.0</ele><time>2026-05-01T06:49:40.967Z</time></trkpt><trkpt lat="44.4741757" lon="11.363845"><ele>97.0</ele><time>2026-05-01T06:49:42.967Z</time></trkpt><trkpt lat="44.4741196" lon="11.363924"><ele>97.0</ele><time>2026-05-01T06:49:44.962Z</time></trkpt><trkpt lat="44.4740669" lon="11.3639871"><ele>97.00000000000001</ele><time>2026-05-01T06:49:47.036Z</time></trkpt><trkpt lat="44.4740174" lon="11.3640425"><ele>97.0</ele><time>2026-05-01T06:49:48.967Z</time></trkpt><trkpt lat="44.4739447" lon="11.3641151"><ele>96.57142857142857</ele><time>2026-05-01T06:49:51.981Z</time></trkpt><trkpt lat="44.4738704" lon="11.3641745"><ele>96.14285714285715</ele><time>2026-05-01T06:49:54.97Z</time></trkpt><trkpt lat="44.4738111" lon="11.3642217"><ele>95.71428571428572</ele><time>2026-05-01T06:49:56.969Z</time></trkpt><trkpt lat="44.4737529" lon="11.364266"><ele>95.28571428571428</ele><time>2026-05-01T06:49:58.968Z</time></trkpt><trkpt lat="44.4736914" lon="11.3643114"><ele>94.85714285714286</ele><time>2026-05-01T06:50:00.978Z</time></trkpt><trkpt lat="44.4736258" lon="11.3643515"><ele>94.42857142857143</ele><time>2026-05-01T06:50:03.031Z</time></trkpt><trkpt lat="44.4735683" lon="11.3643969"><ele>94.0</ele><time>2026-05-01T06:50:04.966Z</time></trkpt><trkpt lat="44.4735112" lon="11.364443"><ele>94.83333333333333</ele><time>2026-05-01T06:50:06.97Z</time></trkpt><trkpt lat="44.4734318" lon="11.364506"><ele>95.66666666666666</ele><time>2026-05-01T06:50:09.978Z</time></trkpt><trkpt lat="44.4733655" lon="11.3645606"><ele>96.5</ele><time>2026-05-01T06:50:12.971Z</time></trkpt><trkpt lat="44.4732945" lon="11.3646208"><ele>97.33333333333333</ele><time>2026-05-01T06:50:15.972Z</time></trkpt><trkpt lat="44.4732255" lon="11.3646735"><ele>98.16666666666667</ele><time>2026-05-01T06:50:18.973Z</time></trkpt><trkpt lat="44.4731696" lon="11.3647194"><ele>99.0</ele><time>2026-05-01T06:50:20.974Z</time></trkpt><trkpt lat="44.4731163" lon="11.3647804"><ele>99.0</ele><time>2026-05-01T06:50:22.97Z</time></trkpt><trkpt lat="44.4730657" lon="11.364842"><ele>99.0</ele><time>2026-05-01T06:50:24.973Z</time></trkpt><trkpt lat="44.4730114" lon="11.3649301"><ele>99.0</ele><time>2026-05-01T06:50:26.97Z</time></trkpt><trkpt lat="44.4729652" lon="11.3650217"><ele>99.0</ele><time>2026-05-01T06:50:28.968Z</time></trkpt><trkpt lat="44.4729223" lon="11.3651223"><ele>99.0</ele><time>2026-05-01T06:50:30.971Z</time></trkpt><trkpt lat="44.4728861" lon="11.3652352"><ele>99.0</ele><time>2026-05-01T06:50:32.97Z</time></trkpt><trkpt lat="44.4728472" lon="11.3653497"><ele>100.33333333333333</ele><time>2026-05-01T06:50:34.968Z</time></trkpt><trkpt lat="44.4728083" lon="11.3654638"><ele>101.66666666666666</ele><time>2026-05-01T06:50:36.975Z</time></trkpt><trkpt lat="44.4727746" lon="11.3655656"><ele>103.0</ele><time>2026-05-01T06:50:38.965Z</time></trkpt><trkpt lat="44.4727335" lon="11.3656691"><ele>104.33333333333333</ele><time>2026-05-01T06:50:40.973Z</time></trkpt><trkpt lat="44.4726979" lon="11.3657729"><ele>105.66666666666666</ele><time>2026-05-01T06:50:42.97Z</time></trkpt><trkpt lat="44.472651" lon="11.3658568"><ele>107.0</ele><time>2026-05-01T06:50:44.963Z</time></trkpt><trkpt lat="44.4726011" lon="11.3659566"><ele>106.99999999999999</ele><time>2026-05-01T06:50:46.972Z</time></trkpt><trkpt lat="44.4725655" lon="11.3660531"><ele>107.0</ele><time>2026-05-01T06:50:48.971Z</time></trkpt><trkpt lat="44.4725307" lon="11.366168"><ele>107.0</ele><time>2026-05-01T06:50:50.968Z</time></trkpt><trkpt lat="44.4724917" lon="11.3662884"><ele>107.0</ele><time>2026-05-01T06:50:52.969Z</time></trkpt><trkpt lat="44.4724556" lon="11.3664066"><ele>106.99999999999999</ele><time>2026-05-01T06:50:54.962Z</time></trkpt><trkpt lat="44.4724091" lon="11.3665256"><ele>107.0</ele><time>2026-05-01T06:50:57.087Z</time></trkpt><trkpt lat="44.4723428" lon="11.3666637"><ele>106.42857142857143</ele><time>2026-05-01T06:50:58.97Z</time></trkpt><trkpt lat="44.4723141" lon="11.366744"><ele>105.85714285714286</ele><time>2026-05-01T06:50:59.969Z</time></trkpt><trkpt lat="44.4722795" lon="11.366834"><ele>105.28571428571428</ele><time>2026-05-01T06:51:00.972Z</time></trkpt><trkpt lat="44.4722439" lon="11.3669218"><ele>104.71428571428572</ele><time>2026-05-01T06:51:01.975Z</time></trkpt><trkpt lat="44.4722088" lon="11.3670189"><ele>104.14285714285714</ele><time>2026-05-01T06:51:02.969Z</time></trkpt><trkpt lat="44.4721721" lon="11.3671177"><ele>103.57142857142857</ele><time>2026-05-01T06:51:03.971Z</time></trkpt><trkpt lat="44.472132" lon="11.367219"><ele>103.0</ele><time>2026-05-01T06:51:04.97Z</time></trkpt><trkpt lat="44.4720896" lon="11.367327"><ele>102.80000000000001</ele><time>2026-05-01T06:51:05.973Z</time></trkpt><trkpt lat="44.472049" lon="11.3674419"><ele>102.6</ele><time>2026-05-01T06:51:06.995Z</time></trkpt><trkpt lat="44.472004" lon="11.3675615"><ele>102.4</ele><time>2026-05-01T06:51:07.973Z</time></trkpt><trkpt lat="44.4719629" lon="11.36769"><ele>102.19999999999999</ele><time>2026-05-01T06:51:08.964Z</time></trkpt><trkpt lat="44.4719393" lon="11.367817"><ele>102.0</ele><time>2026-05-01T06:51:09.97Z</time></trkpt><trkpt lat="44.4719374" lon="11.3679373"><ele>100.39999999999999</ele><time>2026-05-01T06:51:11.034Z</time></trkpt><trkpt lat="44.4719508" lon="11.3680597"><ele>98.8</ele><time>2026-05-01T06:51:12.032Z</time></trkpt><trkpt lat="44.4719856" lon="11.3681788"><ele>97.2</ele><time>2026-05-01T06:51:13.044Z</time></trkpt><trkpt lat="44.4720613" lon="11.3682885"><ele>95.6</ele><time>2026-05-01T06:51:13.962Z</time></trkpt><trkpt lat="44.4721577" lon="11.3683788"><ele>94.0</ele><time>2026-05-01T06:51:14.958Z</time></trkpt><trkpt lat="44.4722557" lon="11.3684433"><ele>93.0</ele><time>2026-05-01T06:51:15.958Z</time></trkpt><trkpt lat="44.4723399" lon="11.3684999"><ele>92.0</ele><time>2026-05-01T06:51:17.034Z</time></trkpt><trkpt lat="44.4724149" lon="11.3685526"><ele>91.0</ele><time>2026-05-01T06:51:18.032Z</time></trkpt><trkpt lat="44.4724796" lon="11.3686178"><ele>90.0</ele><time>2026-05-01T06:51:18.963Z</time></trkpt><trkpt lat="44.4725284" lon="11.3687072"><ele>89.0</ele><time>2026-05-01T06:51:19.96Z</time></trkpt><trkpt lat="44.4725526" lon="11.3688172"><ele>88.0</ele><time>2026-05-01T06:51:20.959Z</time></trkpt><trkpt lat="44.4725612" lon="11.3689145"><ele>87.33333333333333</ele><time>2026-05-01T06:51:22.049Z</time></trkpt><trkpt lat="44.4725539" lon="11.3690835"><ele>86.66666666666666</ele><time>2026-05-01T06:51:23.96Z</time></trkpt><trkpt lat="44.4725536" lon="11.3692052"><ele>86.0</ele><time>2026-05-01T06:51:25.965Z</time></trkpt><trkpt lat="44.4725503" lon="11.3692982"><ele>85.33333333333333</ele><time>2026-05-01T06:51:29.962Z</time></trkpt><trkpt lat="44.4725767" lon="11.3694028"><ele>84.66666666666667</ele><time>2026-05-01T06:51:44.965Z</time></trkpt><trkpt lat="44.4725762" lon="11.3695071"><ele>84.0</ele><time>2026-05-01T06:51:46.958Z</time></trkpt><trkpt lat="44.4725728" lon="11.3696207"><ele>83.2</ele><time>2026-05-01T06:51:48.966Z</time></trkpt><trkpt lat="44.4725788" lon="11.3697326"><ele>82.4</ele><time>2026-05-01T06:51:50.964Z</time></trkpt><trkpt lat="44.4726177" lon="11.3698459"><ele>81.6</ele><time>2026-05-01T06:51:52.973Z</time></trkpt><trkpt lat="44.4726572" lon="11.3699676"><ele>80.8</ele><time>2026-05-01T06:51:54.963Z</time></trkpt><trkpt lat="44.472634" lon="11.3700992"><ele>80.0</ele><time>2026-05-01T06:51:56.962Z</time></trkpt><trkpt lat="44.4725647" lon="11.3701802"><ele>80.0</ele><time>2026-05-01T06:51:58.967Z</time></trkpt><trkpt lat="44.4725281" lon="11.3702617"><ele>80.0</ele><time>2026-05-01T06:52:00.964Z</time></trkpt><trkpt lat="44.4725101" lon="11.3703535"><ele>80.0</ele><time>2026-05-01T06:52:02.961Z</time></trkpt><trkpt lat="44.4725008" lon="11.3704433"><ele>80.0</ele><time>2026-05-01T06:52:04.956Z</time></trkpt><trkpt lat="44.4724955" lon="11.3705459"><ele>80.0</ele><time>2026-05-01T06:52:06.957Z</time></trkpt><trkpt lat="44.472464" lon="11.3706453"><ele>80.0</ele><time>2026-05-01T06:52:08.96Z</time></trkpt><trkpt lat="44.4724007" lon="11.3706961"><ele>80.0</ele><time>2026-05-01T06:52:10.958Z</time></trkpt><trkpt lat="44.4723121" lon="11.370684"><ele>79.8</ele><time>2026-05-01T06:52:13.033Z</time></trkpt><trkpt lat="44.4722375" lon="11.370705"><ele>79.6</ele><time>2026-05-01T06:52:14.963Z</time></trkpt><trkpt lat="44.4721888" lon="11.3707986"><ele>79.4</ele><time>2026-05-01T06:52:16.968Z</time></trkpt><trkpt lat="44.4721509" lon="11.370925"><ele>79.2</ele><time>2026-05-01T06:52:18.966Z</time></trkpt><trkpt lat="44.4721086" lon="11.3710571"><ele>79.0</ele><time>2026-05-01T06:52:20.963Z</time></trkpt><trkpt lat="44.4720737" lon="11.3711908"><ele>79.0</ele><time>2026-05-01T06:52:22.961Z</time></trkpt><trkpt lat="44.4720262" lon="11.3713218"><ele>79.0</ele><time>2026-05-01T06:52:24.967Z</time></trkpt><trkpt lat="44.4719797" lon="11.371445"><ele>79.0</ele><time>2026-05-01T06:52:26.967Z</time></trkpt><trkpt lat="44.4719062" lon="11.3715487"><ele>79.0</ele><time>2026-05-01T06:52:28.96Z</time></trkpt><trkpt lat="44.4718219" lon="11.3716489"><ele>79.0</ele><time>2026-05-01T06:52:30.964Z</time></trkpt><trkpt lat="44.4717394" lon="11.3717545"><ele>79.0</ele><time>2026-05-01T06:52:32.976Z</time></trkpt><trkpt lat="44.4716579" lon="11.3718533"><ele>79.0</ele><time>2026-05-01T06:52:34.981Z</time></trkpt><trkpt lat="44.4715785" lon="11.3719549"><ele>79.0</ele><time>2026-05-01T06:52:36.965Z</time></trkpt><trkpt lat="44.471494" lon="11.372061"><ele>79.0</ele><time>2026-05-01T06:52:39.038Z</time></trkpt><trkpt lat="44.4714195" lon="11.3721651"><ele>79.0</ele><time>2026-05-01T06:52:40.967Z</time></trkpt><trkpt lat="44.4713465" lon="11.372258"><ele>79.80000000000001</ele><time>2026-05-01T06:52:43.03Z</time></trkpt><trkpt lat="44.4712625" lon="11.3723582"><ele>80.60000000000001</ele><time>2026-05-01T06:52:44.974Z</time></trkpt><trkpt lat="44.4711843" lon="11.3724713"><ele>81.4</ele><time>2026-05-01T06:52:46.954Z</time></trkpt><trkpt lat="44.4711066" lon="11.3725867"><ele>82.2</ele><time>2026-05-01T06:52:48.959Z</time></trkpt><trkpt lat="44.4710281" lon="11.3726948"><ele>83.0</ele><time>2026-05-01T06:52:50.96Z</time></trkpt><trkpt lat="44.4709525" lon="11.3728063"><ele>83.0</ele><time>2026-05-01T06:52:52.963Z</time></trkpt><trkpt lat="44.4708829" lon="11.3729139"><ele>83.0</ele><time>2026-05-01T06:52:54.955Z</time></trkpt><trkpt lat="44.4708031" lon="11.3730114"><ele>83.0</ele><time>2026-05-01T06:52:56.955Z</time></trkpt><trkpt lat="44.4707209" lon="11.3731083"><ele>83.0</ele><time>2026-05-01T06:52:58.956Z</time></trkpt><trkpt lat="44.4706358" lon="11.3732119"><ele>83.0</ele><time>2026-05-01T06:53:00.96Z</time></trkpt><trkpt lat="44.4705605" lon="11.3733297"><ele>83.2</ele><time>2026-05-01T06:53:02.96Z</time></trkpt><trkpt lat="44.4704803" lon="11.3734556"><ele>83.4</ele><time>2026-05-01T06:53:04.957Z</time></trkpt><trkpt lat="44.4704095" lon="11.3735715"><ele>83.60000000000001</ele><time>2026-05-01T06:53:06.956Z</time></trkpt><trkpt lat="44.4703357" lon="11.3736834"><ele>83.80000000000001</ele><time>2026-05-01T06:53:09.037Z</time></trkpt><trkpt lat="44.470261" lon="11.3737912"><ele>84.0</ele><time>2026-05-01T06:53:10.969Z</time></trkpt><trkpt lat="44.4701917" lon="11.3739119"><ele>83.4</ele><time>2026-05-01T06:53:12.959Z</time></trkpt><trkpt lat="44.4701253" lon="11.3740212"><ele>82.80000000000001</ele><time>2026-05-01T06:53:14.961Z</time></trkpt><trkpt lat="44.4700625" lon="11.3741312"><ele>82.19999999999999</ele><time>2026-05-01T06:53:16.968Z</time></trkpt><trkpt lat="44.4699903" lon="11.3742418"><ele>81.6</ele><time>2026-05-01T06:53:19.031Z</time></trkpt><trkpt lat="44.4699428" lon="11.3743634"><ele>81.0</ele><time>2026-05-01T06:53:20.966Z</time></trkpt><trkpt lat="44.4699186" lon="11.374508"><ele>81.0</ele><time>2026-05-01T06:53:22.973Z</time></trkpt><trkpt lat="44.4698947" lon="11.3746589"><ele>81.0</ele><time>2026-05-01T06:53:24.964Z</time></trkpt><trkpt lat="44.4698783" lon="11.3748156"><ele>81.0</ele><time>2026-05-01T06:53:26.967Z</time></trkpt><trkpt lat="44.4698681" lon="11.3749627"><ele>81.0</ele><time>2026-05-01T06:53:28.962Z</time></trkpt><trkpt lat="44.4698532" lon="11.375109"><ele>81.0</ele><time>2026-05-01T06:53:30.958Z</time></trkpt><trkpt lat="44.4698275" lon="11.3752387"><ele>81.19999999999999</ele><time>2026-05-01T06:53:32.964Z</time></trkpt><trkpt lat="44.4697546" lon="11.3753191"><ele>81.39999999999999</ele><time>2026-05-01T06:53:34.956Z</time></trkpt><trkpt lat="44.4696622" lon="11.3752982"><ele>81.6</ele><time>2026-05-01T06:53:36.957Z</time></trkpt><trkpt lat="44.4695668" lon="11.3752591"><ele>81.8</ele><time>2026-05-01T06:53:38.963Z</time></trkpt><trkpt lat="44.4694723" lon="11.3752362"><ele>82.0</ele><time>2026-05-01T06:53:40.967Z</time></trkpt><trkpt lat="44.4693779" lon="11.3752428"><ele>82.0</ele><time>2026-05-01T06:53:43.03Z</time></trkpt><trkpt lat="44.4692781" lon="11.3752205"><ele>82.0</ele><time>2026-05-01T06:53:44.957Z</time></trkpt><trkpt lat="44.4691839" lon="11.3751845"><ele>82.0</ele><time>2026-05-01T06:53:47.032Z</time></trkpt><trkpt lat="44.4690834" lon="11.3751504"><ele>82.0</ele><time>2026-05-01T06:53:49.03Z</time></trkpt><trkpt lat="44.4689801" lon="11.3751194"><ele>82.0</ele><time>2026-05-01T06:53:51.01Z</time></trkpt><trkpt lat="44.4688739" lon="11.3750922"><ele>82.39999999999999</ele><time>2026-05-01T06:53:53.012Z</time></trkpt><trkpt lat="44.4687668" lon="11.3750672"><ele>82.8</ele><time>2026-05-01T06:53:55.009Z</time></trkpt><trkpt lat="44.4686616" lon="11.3750319"><ele>83.2</ele><time>2026-05-01T06:53:57.011Z</time></trkpt><trkpt lat="44.4685652" lon="11.3749982"><ele>83.6</ele><time>2026-05-01T06:53:58.977Z</time></trkpt><trkpt lat="44.4684714" lon="11.3749595"><ele>84.0</ele><time>2026-05-01T06:54:00.976Z</time></trkpt><trkpt lat="44.4683766" lon="11.3749223"><ele>84.0</ele><time>2026-05-01T06:54:02.957Z</time></trkpt><trkpt lat="44.4682789" lon="11.3748886"><ele>84.0</ele><time>2026-05-01T06:54:04.96Z</time></trkpt><trkpt lat="44.468196" lon="11.3748695"><ele>84.0</ele><time>2026-05-01T06:54:06.955Z</time></trkpt><trkpt lat="44.4681252" lon="11.3748489"><ele>84.0</ele><time>2026-05-01T06:54:08.954Z</time></trkpt><trkpt lat="44.468048" lon="11.3748288"><ele>84.0</ele><time>2026-05-01T06:54:10.979Z</time></trkpt><trkpt lat="44.4679552" lon="11.3748054"><ele>84.0</ele><time>2026-05-01T06:54:13.959Z</time></trkpt><trkpt lat="44.4678759" lon="11.3748704"><ele>83.80000000000001</ele><time>2026-05-01T06:54:16.956Z</time></trkpt><trkpt lat="44.4678295" lon="11.3749671"><ele>83.60000000000001</ele><time>2026-05-01T06:54:18.954Z</time></trkpt><trkpt lat="44.4677988" lon="11.3751101"><ele>83.4</ele><time>2026-05-01T06:54:20.961Z</time></trkpt><trkpt lat="44.4677978" lon="11.3752867"><ele>83.2</ele><time>2026-05-01T06:54:22.952Z</time></trkpt><trkpt lat="44.4678086" lon="11.3754478"><ele>83.0</ele><time>2026-05-01T06:54:24.97Z</time></trkpt><trkpt lat="44.4678066" lon="11.3756131"><ele>82.80000000000001</ele><time>2026-05-01T06:54:26.964Z</time></trkpt><trkpt lat="44.4677973" lon="11.3757841"><ele>82.6</ele><time>2026-05-01T06:54:28.963Z</time></trkpt><trkpt lat="44.4677818" lon="11.3759423"><ele>82.4</ele><time>2026-05-01T06:54:30.959Z</time></trkpt><trkpt lat="44.4677726" lon="11.3760509"><ele>82.19999999999999</ele><time>2026-05-01T06:54:32.967Z</time></trkpt><trkpt lat="44.4677603" lon="11.3761536"><ele>82.0</ele><time>2026-05-01T06:54:35.963Z</time></trkpt><trkpt lat="44.467753" lon="11.3762563"><ele>82.39999999999999</ele><time>2026-05-01T06:55:39.965Z</time></trkpt><trkpt lat="44.4677276" lon="11.3763942"><ele>82.8</ele><time>2026-05-01T06:55:42.965Z</time></trkpt><trkpt lat="44.4676984" lon="11.3765004"><ele>83.2</ele><time>2026-05-01T06:55:44.97Z</time></trkpt><trkpt lat="44.4676673" lon="11.3766035"><ele>83.6</ele><time>2026-05-01T06:55:46.969Z</time></trkpt><trkpt lat="44.467632" lon="11.3767312"><ele>84.0</ele><time>2026-05-01T06:55:48.97Z</time></trkpt><trkpt lat="44.4676179" lon="11.3768632"><ele>84.0</ele><time>2026-05-01T06:55:50.964Z</time></trkpt><trkpt lat="44.4675839" lon="11.3769835"><ele>84.0</ele><time>2026-05-01T06:55:52.974Z</time></trkpt><trkpt lat="44.4675298" lon="11.377108"><ele>84.0</ele><time>2026-05-01T06:55:54.966Z</time></trkpt><trkpt lat="44.4674739" lon="11.3772366"><ele>84.0</ele><time>2026-05-01T06:55:56.979Z</time></trkpt><trkpt lat="44.4674205" lon="11.3773696"><ele>84.0</ele><time>2026-05-01T06:55:58.955Z</time></trkpt><trkpt lat="44.467371" lon="11.3775032"><ele>84.0</ele><time>2026-05-01T06:56:00.963Z</time></trkpt><trkpt lat="44.4673262" lon="11.377636"><ele>84.0</ele><time>2026-05-01T06:56:02.963Z</time></trkpt><trkpt lat="44.4672772" lon="11.3777622"><ele>84.0</ele><time>2026-05-01T06:56:04.997Z</time></trkpt><trkpt lat="44.4672368" lon="11.3778928"><ele>84.0</ele><time>2026-05-01T06:56:06.963Z</time></trkpt><trkpt lat="44.4671916" lon="11.3780213"><ele>84.0</ele><time>2026-05-01T06:56:09.033Z</time></trkpt><trkpt lat="44.4671216" lon="11.3781058"><ele>83.80000000000001</ele><time>2026-05-01T06:56:10.997Z</time></trkpt><trkpt lat="44.4670187" lon="11.3781041"><ele>83.60000000000001</ele><time>2026-05-01T06:56:12.989Z</time></trkpt><trkpt lat="44.4669238" lon="11.3780334"><ele>83.4</ele><time>2026-05-01T06:56:14.965Z</time></trkpt><trkpt lat="44.466844" lon="11.3779688"><ele>83.2</ele><time>2026-05-01T06:56:16.967Z</time></trkpt><trkpt lat="44.4667683" lon="11.3779087"><ele>83.0</ele><time>2026-05-01T06:56:18.973Z</time></trkpt><trkpt lat="44.4666929" lon="11.3778503"><ele>83.0</ele><time>2026-05-01T06:56:20.964Z</time></trkpt><trkpt lat="44.4665997" lon="11.3777954"><ele>83.0</ele><time>2026-05-01T06:56:22.971Z</time></trkpt><trkpt lat="44.4665036" lon="11.377738"><ele>83.0</ele><time>2026-05-01T06:56:24.965Z</time></trkpt><trkpt lat="44.4664109" lon="11.3776862"><ele>83.0</ele><time>2026-05-01T06:56:26.966Z</time></trkpt><trkpt lat="44.46632" lon="11.377622"><ele>83.0</ele><time>2026-05-01T06:56:28.965Z</time></trkpt><trkpt lat="44.466226" lon="11.3775503"><ele>83.0</ele><time>2026-05-01T06:56:30.974Z</time></trkpt><trkpt lat="44.4661346" lon="11.3774795"><ele>83.0</ele><time>2026-05-01T06:56:32.969Z</time></trkpt><trkpt lat="44.4660479" lon="11.3774121"><ele>83.0</ele><time>2026-05-01T06:56:34.969Z</time></trkpt><trkpt lat="44.4659748" lon="11.3773702"><ele>83.0</ele><time>2026-05-01T06:56:36.966Z</time></trkpt><trkpt lat="44.4659007" lon="11.3773679"><ele>83.0</ele><time>2026-05-01T06:56:40.969Z</time></trkpt><trkpt lat="44.4658134" lon="11.3774185"><ele>83.0</ele><time>2026-05-01T06:56:43.956Z</time></trkpt><trkpt lat="44.4657453" lon="11.3774937"><ele>83.0</ele><time>2026-05-01T06:56:45.964Z</time></trkpt><trkpt lat="44.4656676" lon="11.377582"><ele>83.0</ele><time>2026-05-01T06:56:47.97Z</time></trkpt><trkpt lat="44.4655807" lon="11.3776698"><ele>83.0</ele><time>2026-05-01T06:56:49.97Z</time></trkpt><trkpt lat="44.4654958" lon="11.3777514"><ele>83.0</ele><time>2026-05-01T06:56:51.975Z</time></trkpt><trkpt lat="44.4654124" lon="11.3777568"><ele>82.4</ele><time>2026-05-01T06:56:53.968Z</time></trkpt><trkpt lat="44.4653271" lon="11.3776898"><ele>81.80000000000001</ele><time>2026-05-01T06:56:55.969Z</time></trkpt><trkpt lat="44.4652429" lon="11.3776081"><ele>81.2</ele><time>2026-05-01T06:56:58.031Z</time></trkpt><trkpt lat="44.4651508" lon="11.3775276"><ele>80.6</ele><time>2026-05-01T06:56:59.966Z</time></trkpt><trkpt lat="44.4650714" lon="11.3774596"><ele>80.0</ele><time>2026-05-01T06:57:02.03Z</time></trkpt><trkpt lat="44.4650082" lon="11.3774075"><ele>80.0</ele><time>2026-05-01T06:57:03.972Z</time></trkpt><trkpt lat="44.4649599" lon="11.3773447"><ele>80.0</ele><time>2026-05-01T06:57:05.968Z</time></trkpt><trkpt lat="44.4649379" lon="11.3772588"><ele>80.0</ele><time>2026-05-01T06:57:07.969Z</time></trkpt><trkpt lat="44.4649203" lon="11.3771684"><ele>80.0</ele><time>2026-05-01T06:57:09.966Z</time></trkpt><trkpt lat="44.4648781" lon="11.3770645"><ele>80.0</ele><time>2026-05-01T06:57:12.967Z</time></trkpt><trkpt lat="44.4648234" lon="11.3770173"><ele>80.0</ele><time>2026-05-01T06:57:14.965Z</time></trkpt><trkpt lat="44.4647476" lon="11.3769713"><ele>80.0</ele><time>2026-05-01T06:57:16.968Z</time></trkpt><trkpt lat="44.4646754" lon="11.3769223"><ele>80.4</ele><time>2026-05-01T06:57:18.964Z</time></trkpt><trkpt lat="44.4645881" lon="11.376871"><ele>80.8</ele><time>2026-05-01T06:57:20.978Z</time></trkpt><trkpt lat="44.4644878" lon="11.376819"><ele>81.19999999999999</ele><time>2026-05-01T06:57:22.965Z</time></trkpt><trkpt lat="44.4643958" lon="11.3767756"><ele>81.6</ele><time>2026-05-01T06:57:24.967Z</time></trkpt><trkpt lat="44.4643114" lon="11.3767278"><ele>82.0</ele><time>2026-05-01T06:57:26.969Z</time></trkpt><trkpt lat="44.4642241" lon="11.3766821"><ele>82.0</ele><time>2026-05-01T06:57:28.977Z</time></trkpt><trkpt lat="44.464141" lon="11.3766371"><ele>82.0</ele><time>2026-05-01T06:57:30.969Z</time></trkpt><trkpt lat="44.4640645" lon="11.3765878"><ele>82.0</ele><time>2026-05-01T06:57:32.966Z</time></trkpt><trkpt lat="44.4639935" lon="11.3765673"><ele>82.0</ele><time>2026-05-01T06:57:34.96Z</time></trkpt><trkpt lat="44.4639197" lon="11.3766474"><ele>82.0</ele><time>2026-05-01T06:57:37.965Z</time></trkpt><trkpt lat="44.4638938" lon="11.3767523"><ele>82.0</ele><time>2026-05-01T06:57:39.971Z</time></trkpt><trkpt lat="44.4638667" lon="11.3768676"><ele>82.0</ele><time>2026-05-01T06:57:41.973Z</time></trkpt><trkpt lat="44.4638441" lon="11.3769872"><ele>82.0</ele><time>2026-05-01T06:57:43.959Z</time></trkpt><trkpt lat="44.463796" lon="11.3771089"><ele>82.0</ele><time>2026-05-01T06:57:45.957Z</time></trkpt><trkpt lat="44.4637421" lon="11.3772227"><ele>82.0</ele><time>2026-05-01T06:57:47.962Z</time></trkpt><trkpt lat="44.4636839" lon="11.3773387"><ele>82.0</ele><time>2026-05-01T06:57:49.965Z</time></trkpt><trkpt lat="44.4636188" lon="11.377464"><ele>81.6</ele><time>2026-05-01T06:57:51.975Z</time></trkpt><trkpt lat="44.4635323" lon="11.3775357"><ele>81.19999999999999</ele><time>2026-05-01T06:57:53.978Z</time></trkpt><trkpt lat="44.4634423" lon="11.377518"><ele>80.8</ele><time>2026-05-01T06:57:55.971Z</time></trkpt><trkpt lat="44.4633563" lon="11.3774603"><ele>80.4</ele><time>2026-05-01T06:57:57.979Z</time></trkpt><trkpt lat="44.4632609" lon="11.3773927"><ele>80.0</ele><time>2026-05-01T06:57:59.966Z</time></trkpt><trkpt lat="44.463164" lon="11.3773126"><ele>80.0</ele><time>2026-05-01T06:58:01.981Z</time></trkpt><trkpt lat="44.4630634" lon="11.3772528"><ele>80.0</ele><time>2026-05-01T06:58:03.985Z</time></trkpt><trkpt lat="44.4629603" lon="11.3771891"><ele>80.0</ele><time>2026-05-01T06:58:05.976Z</time></trkpt><trkpt lat="44.4628656" lon="11.3771166"><ele>80.0</ele><time>2026-05-01T06:58:07.978Z</time></trkpt><trkpt lat="44.4627755" lon="11.3770311"><ele>80.0</ele><time>2026-05-01T06:58:09.972Z</time></trkpt><trkpt lat="44.4626924" lon="11.3769566"><ele>80.0</ele><time>2026-05-01T06:58:11.989Z</time></trkpt><trkpt lat="44.4626071" lon="11.3768961"><ele>80.0</ele><time>2026-05-01T06:58:13.987Z</time></trkpt><trkpt lat="44.462525" lon="11.3768368"><ele>80.0</ele><time>2026-05-01T06:58:15.976Z</time></trkpt><trkpt lat="44.4624411" lon="11.3768189"><ele>80.0</ele><time>2026-05-01T06:58:17.963Z</time></trkpt><trkpt lat="44.4623724" lon="11.3768901"><ele>80.0</ele><time>2026-05-01T06:58:19.96Z</time></trkpt><trkpt lat="44.4623377" lon="11.3770065"><ele>80.0</ele><time>2026-05-01T06:58:21.956Z</time></trkpt><trkpt lat="44.4622888" lon="11.3771251"><ele>79.83333333333334</ele><time>2026-05-01T06:58:23.972Z</time></trkpt><trkpt lat="44.4622359" lon="11.3772334"><ele>79.66666666666667</ele><time>2026-05-01T06:58:25.962Z</time></trkpt><trkpt lat="44.4621852" lon="11.3773386"><ele>79.5</ele><time>2026-05-01T06:58:27.981Z</time></trkpt><trkpt lat="44.4621385" lon="11.3774396"><ele>79.33333333333333</ele><time>2026-05-01T06:58:29.973Z</time></trkpt><trkpt lat="44.4621166" lon="11.3775359"><ele>79.16666666666666</ele><time>2026-05-01T06:58:31.969Z</time></trkpt><trkpt lat="44.4620635" lon="11.377596"><ele>79.0</ele><time>2026-05-01T06:58:33.967Z</time></trkpt><trkpt lat="44.4620018" lon="11.3776627"><ele>78.83333333333333</ele><time>2026-05-01T06:58:35.975Z</time></trkpt><trkpt lat="44.4619478" lon="11.3777438"><ele>78.66666666666666</ele><time>2026-05-01T06:58:37.979Z</time></trkpt><trkpt lat="44.4618914" lon="11.3778221"><ele>78.5</ele><time>2026-05-01T06:58:40.966Z</time></trkpt><trkpt lat="44.4618371" lon="11.3778701"><ele>78.33333333333333</ele><time>2026-05-01T06:58:43.977Z</time></trkpt><trkpt lat="44.4617848" lon="11.3779476"><ele>78.16666666666667</ele><time>2026-05-01T06:58:47.98Z</time></trkpt><trkpt lat="44.4617648" lon="11.3780495"><ele>78.0</ele><time>2026-05-01T06:58:50.983Z</time></trkpt><trkpt lat="44.461734" lon="11.3781544"><ele>77.83333333333333</ele><time>2026-05-01T06:58:53.966Z</time></trkpt><trkpt lat="44.461742" lon="11.3782686"><ele>77.66666666666667</ele><time>2026-05-01T06:58:56.983Z</time></trkpt><trkpt lat="44.4617663" lon="11.3783911"><ele>77.5</ele><time>2026-05-01T06:58:59.987Z</time></trkpt><trkpt lat="44.4617711" lon="11.3784859"><ele>77.33333333333334</ele><time>2026-05-01T06:59:01.972Z</time></trkpt><trkpt lat="44.4617822" lon="11.3785749"><ele>77.16666666666667</ele><time>2026-05-01T06:59:03.973Z</time></trkpt><trkpt lat="44.4617646" lon="11.3786641"><ele>77.0</ele><time>2026-05-01T06:59:05.973Z</time></trkpt><trkpt lat="44.4616848" lon="11.3787034"><ele>77.0</ele><time>2026-05-01T06:59:08.976Z</time></trkpt><trkpt lat="44.4616269" lon="11.3786662"><ele>77.0</ele><time>2026-05-01T06:59:10.981Z</time></trkpt><trkpt lat="44.4615486" lon="11.3785993"><ele>77.0</ele><time>2026-05-01T06:59:13.979Z</time></trkpt><trkpt lat="44.4614787" lon="11.3785351"><ele>77.0</ele><time>2026-05-01T06:59:16.977Z</time></trkpt><trkpt lat="44.4613923" lon="11.378528"><ele>77.0</ele><time>2026-05-01T06:59:19.984Z</time></trkpt><trkpt lat="44.4613275" lon="11.3786147"><ele>77.0</ele><time>2026-05-01T06:59:22.977Z</time></trkpt><trkpt lat="44.4612764" lon="11.378673"><ele>76.71428571428571</ele><time>2026-05-01T06:59:25.98Z</time></trkpt><trkpt lat="44.4612399" lon="11.3787539"><ele>76.42857142857143</ele><time>2026-05-01T06:59:30.967Z</time></trkpt><trkpt lat="44.4612545" lon="11.3788623"><ele>76.14285714285714</ele><time>2026-05-01T06:59:33.966Z</time></trkpt><trkpt lat="44.4612773" lon="11.3789537"><ele>75.85714285714286</ele><time>2026-05-01T06:59:35.968Z</time></trkpt><trkpt lat="44.4612927" lon="11.3790485"><ele>75.57142857142857</ele><time>2026-05-01T06:59:37.972Z</time></trkpt><trkpt lat="44.4612987" lon="11.3791424"><ele>75.28571428571428</ele><time>2026-05-01T06:59:39.988Z</time></trkpt><trkpt lat="44.4612922" lon="11.3792418"><ele>75.0</ele><time>2026-05-01T06:59:41.976Z</time></trkpt><trkpt lat="44.4612824" lon="11.3793346"><ele>75.0</ele><time>2026-05-01T06:59:43.979Z</time></trkpt><trkpt lat="44.461249" lon="11.3794453"><ele>75.0</ele><time>2026-05-01T06:59:46.975Z</time></trkpt><trkpt lat="44.4612093" lon="11.3795271"><ele>75.0</ele><time>2026-05-01T06:59:50.981Z</time></trkpt><trkpt lat="44.4611911" lon="11.379624"><ele>75.0</ele><time>2026-05-01T06:59:54.034Z</time></trkpt><trkpt lat="44.4611861" lon="11.3797298"><ele>75.0</ele><time>2026-05-01T06:59:56.963Z</time></trkpt><trkpt lat="44.4611941" lon="11.379859"><ele>75.0</ele><time>2026-05-01T06:59:59.963Z</time></trkpt><trkpt lat="44.4612743" lon="11.3799286"><ele>74.5</ele><time>2026-05-01T07:00:02.969Z</time></trkpt><trkpt lat="44.4613557" lon="11.3799587"><ele>74.0</ele><time>2026-05-01T07:00:04.983Z</time></trkpt><trkpt lat="44.4614386" lon="11.3799876"><ele>73.5</ele><time>2026-05-01T07:00:06.968Z</time></trkpt><trkpt lat="44.4615106" lon="11.3800327"><ele>73.0</ele><time>2026-05-01T07:00:08.977Z</time></trkpt><trkpt lat="44.4615726" lon="11.3800785"><ele>72.5</ele><time>2026-05-01T07:00:10.973Z</time></trkpt><trkpt lat="44.461588" lon="11.3801646"><ele>72.0</ele><time>2026-05-01T07:00:12.972Z</time></trkpt><trkpt lat="44.4615732" lon="11.3802575"><ele>72.0</ele><time>2026-05-01T07:00:14.97Z</time></trkpt><trkpt lat="44.4615416" lon="11.3803511"><ele>72.0</ele><time>2026-05-01T07:00:17.032Z</time></trkpt><trkpt lat="44.4615154" lon="11.3804455"><ele>72.0</ele><time>2026-05-01T07:00:18.977Z</time></trkpt><trkpt lat="44.4614803" lon="11.3805551"><ele>72.0</ele><time>2026-05-01T07:00:20.974Z</time></trkpt><trkpt lat="44.4614427" lon="11.3806703"><ele>72.0</ele><time>2026-05-01T07:00:22.973Z</time></trkpt><trkpt lat="44.4614002" lon="11.38079"><ele>72.0</ele><time>2026-05-01T07:00:24.971Z</time></trkpt><trkpt lat="44.4613629" lon="11.3808858"><ele>71.66666666666667</ele><time>2026-05-01T07:00:26.978Z</time></trkpt><trkpt lat="44.4613258" lon="11.3809767"><ele>71.33333333333333</ele><time>2026-05-01T07:00:28.984Z</time></trkpt><trkpt lat="44.461285" lon="11.3810645"><ele>71.0</ele><time>2026-05-01T07:00:30.977Z</time></trkpt><trkpt lat="44.4612442" lon="11.3811633"><ele>70.66666666666666</ele><time>2026-05-01T07:00:32.984Z</time></trkpt><trkpt lat="44.461205" lon="11.3812624"><ele>70.33333333333333</ele><time>2026-05-01T07:00:34.983Z</time></trkpt><trkpt lat="44.4611595" lon="11.3813701"><ele>70.0</ele><time>2026-05-01T07:00:36.979Z</time></trkpt><trkpt lat="44.4611178" lon="11.3814692"><ele>70.83333333333333</ele><time>2026-05-01T07:00:38.979Z</time></trkpt><trkpt lat="44.4610795" lon="11.3815589"><ele>71.66666666666666</ele><time>2026-05-01T07:00:40.98Z</time></trkpt><trkpt lat="44.4610394" lon="11.381656"><ele>72.5</ele><time>2026-05-01T07:00:42.977Z</time></trkpt><trkpt lat="44.4609985" lon="11.3817592"><ele>73.33333333333333</ele><time>2026-05-01T07:00:44.98Z</time></trkpt><trkpt lat="44.4609425" lon="11.3818034"><ele>74.16666666666667</ele><time>2026-05-01T07:00:47.004Z</time></trkpt><trkpt lat="44.4608621" lon="11.3817552"><ele>75.0</ele><time>2026-05-01T07:00:49.985Z</time></trkpt><trkpt lat="44.4608059" lon="11.3816748"><ele>75.0</ele><time>2026-05-01T07:00:52.978Z</time></trkpt><trkpt lat="44.460754" lon="11.3815903"><ele>75.0</ele><time>2026-05-01T07:00:55.973Z</time></trkpt><trkpt lat="44.4606856" lon="11.3815302"><ele>75.0</ele><time>2026-05-01T07:00:58.973Z</time></trkpt><trkpt lat="44.4606137" lon="11.3814823"><ele>75.0</ele><time>2026-05-01T07:01:01.981Z</time></trkpt><trkpt lat="44.4605354" lon="11.3815018"><ele>75.0</ele><time>2026-05-01T07:01:05.973Z</time></trkpt><trkpt lat="44.4604961" lon="11.3815831"><ele>75.0</ele><time>2026-05-01T07:01:08.976Z</time></trkpt><trkpt lat="44.4605061" lon="11.3816862"><ele>75.0</ele><time>2026-05-01T07:01:12.036Z</time></trkpt><trkpt lat="44.4605342" lon="11.3817972"><ele>75.0</ele><time>2026-05-01T07:01:14.966Z</time></trkpt><trkpt lat="44.4605905" lon="11.3818843"><ele>75.0</ele><time>2026-05-01T07:01:17.973Z</time></trkpt><trkpt lat="44.4606321" lon="11.381952"><ele>75.0</ele><time>2026-05-01T07:01:19.961Z</time></trkpt><trkpt lat="44.4606728" lon="11.3820793"><ele>75.0</ele><time>2026-05-01T07:01:22.974Z</time></trkpt><trkpt lat="44.4606937" lon="11.382177"><ele>75.0</ele><time>2026-05-01T07:01:24.971Z</time></trkpt><trkpt lat="44.4606845" lon="11.3822643"><ele>75.57142857142857</ele><time>2026-05-01T07:01:26.999Z</time></trkpt><trkpt lat="44.4606764" lon="11.3823579"><ele>76.14285714285714</ele><time>2026-05-01T07:01:28.974Z</time></trkpt><trkpt lat="44.4606688" lon="11.3824465"><ele>76.71428571428572</ele><time>2026-05-01T07:01:30.961Z</time></trkpt><trkpt lat="44.4606588" lon="11.3825683"><ele>77.28571428571428</ele><time>2026-05-01T07:01:33.982Z</time></trkpt><trkpt lat="44.4606553" lon="11.3826595"><ele>77.85714285714286</ele><time>2026-05-01T07:01:35.967Z</time></trkpt><trkpt lat="44.4606569" lon="11.3827809"><ele>78.42857142857143</ele><time>2026-05-01T07:01:38.973Z</time></trkpt><trkpt lat="44.460666" lon="11.3828816"><ele>79.0</ele><time>2026-05-01T07:01:41.974Z</time></trkpt><trkpt lat="44.4606938" lon="11.3829672"><ele>79.83333333333333</ele><time>2026-05-01T07:01:44.973Z</time></trkpt><trkpt lat="44.4607266" lon="11.3830652"><ele>80.66666666666666</ele><time>2026-05-01T07:01:47.979Z</time></trkpt><trkpt lat="44.4607828" lon="11.3831448"><ele>81.5</ele><time>2026-05-01T07:01:50.971Z</time></trkpt><trkpt lat="44.4608419" lon="11.3831863"><ele>82.33333333333333</ele><time>2026-05-01T07:01:52.982Z</time></trkpt><trkpt lat="44.4609038" lon="11.3832497"><ele>83.16666666666667</ele><time>2026-05-01T07:01:54.975Z</time></trkpt><trkpt lat="44.4609701" lon="11.3833319"><ele>84.0</ele><time>2026-05-01T07:01:56.98Z</time></trkpt><trkpt lat="44.461051" lon="11.3834037"><ele>84.0</ele><time>2026-05-01T07:01:58.971Z</time></trkpt><trkpt lat="44.4611239" lon="11.3834871"><ele>84.0</ele><time>2026-05-01T07:02:00.975Z</time></trkpt><trkpt lat="44.4611518" lon="11.3836024"><ele>84.0</ele><time>2026-05-01T07:02:02.975Z</time></trkpt><trkpt lat="44.461192" lon="11.3836892"><ele>84.0</ele><time>2026-05-01T07:02:04.972Z</time></trkpt><trkpt lat="44.4612667" lon="11.3837671"><ele>84.0</ele><time>2026-05-01T07:02:06.982Z</time></trkpt><trkpt lat="44.4613498" lon="11.3838328"><ele>84.0</ele><time>2026-05-01T07:02:08.993Z</time></trkpt><trkpt lat="44.4614009" lon="11.3838872"><ele>84.0</ele><time>2026-05-01T07:02:10.973Z</time></trkpt><trkpt lat="44.4614196" lon="11.383972"><ele>84.0</ele><time>2026-05-01T07:02:14.969Z</time></trkpt><trkpt lat="44.4613864" lon="11.383881"><ele>84.0</ele><time>2026-05-01T07:02:26.982Z</time></trkpt><trkpt lat="44.4613344" lon="11.3838188"><ele>84.0</ele><time>2026-05-01T07:02:29.969Z</time></trkpt><trkpt lat="44.4612821" lon="11.3837583"><ele>84.0</ele><time>2026-05-01T07:02:32.978Z</time></trkpt><trkpt lat="44.4612091" lon="11.3836904"><ele>84.0</ele><time>2026-05-01T07:02:35.973Z</time></trkpt><trkpt lat="44.4611366" lon="11.3836193"><ele>84.0</ele><time>2026-05-01T07:02:38.966Z</time></trkpt><trkpt lat="44.4610837" lon="11.3835544"><ele>84.0</ele><time>2026-05-01T07:02:41.971Z</time></trkpt><trkpt lat="44.4610487" lon="11.3836328"><ele>84.0</ele><time>2026-05-01T07:02:46.964Z</time></trkpt><trkpt lat="44.4610748" lon="11.3837263"><ele>84.0</ele><time>2026-05-01T07:02:49.974Z</time></trkpt><trkpt lat="44.4610922" lon="11.3838356"><ele>84.0</ele><time>2026-05-01T07:02:52.977Z</time></trkpt><trkpt lat="44.4610994" lon="11.3839316"><ele>84.0</ele><time>2026-05-01T07:02:55.978Z</time></trkpt><trkpt lat="44.4611028" lon="11.3840351"><ele>84.0</ele><time>2026-05-01T07:02:58.977Z</time></trkpt><trkpt lat="44.4611062" lon="11.3841558"><ele>84.0</ele><time>2026-05-01T07:03:02.963Z</time></trkpt><trkpt lat="44.4611225" lon="11.3842665"><ele>84.71428571428571</ele><time>2026-05-01T07:03:05.972Z</time></trkpt><trkpt lat="44.4611363" lon="11.3843638"><ele>85.42857142857143</ele><time>2026-05-01T07:03:08.971Z</time></trkpt><trkpt lat="44.4611559" lon="11.3844582"><ele>86.14285714285714</ele><time>2026-05-01T07:03:11.97Z</time></trkpt><trkpt lat="44.4611738" lon="11.3845536"><ele>86.85714285714286</ele><time>2026-05-01T07:03:14.978Z</time></trkpt><trkpt lat="44.4612091" lon="11.3846591"><ele>87.57142857142857</ele><time>2026-05-01T07:03:17.977Z</time></trkpt><trkpt lat="44.4612453" lon="11.3847441"><ele>88.28571428571428</ele><time>2026-05-01T07:03:19.97Z</time></trkpt><trkpt lat="44.4612833" lon="11.3848223"><ele>89.0</ele><time>2026-05-01T07:03:21.968Z</time></trkpt><trkpt lat="44.4613338" lon="11.3848916"><ele>88.99999999999999</ele><time>2026-05-01T07:03:23.967Z</time></trkpt><trkpt lat="44.4613971" lon="11.3849537"><ele>89.0</ele><time>2026-05-01T07:03:25.96Z</time></trkpt><trkpt lat="44.461463" lon="11.3850068"><ele>89.0</ele><time>2026-05-01T07:03:27.977Z</time></trkpt><trkpt lat="44.4615241" lon="11.3850633"><ele>89.0</ele><time>2026-05-01T07:03:29.97Z</time></trkpt><trkpt lat="44.4615894" lon="11.385111"><ele>89.0</ele><time>2026-05-01T07:03:31.983Z</time></trkpt><trkpt lat="44.4616488" lon="11.3851511"><ele>88.99999999999999</ele><time>2026-05-01T07:03:33.979Z</time></trkpt><trkpt lat="44.4617189" lon="11.3852001"><ele>89.0</ele><time>2026-05-01T07:03:36.974Z</time></trkpt><trkpt lat="44.4617799" lon="11.3852373"><ele>88.99999999999999</ele><time>2026-05-01T07:03:39.979Z</time></trkpt><trkpt lat="44.4618434" lon="11.3852733"><ele>89.0</ele><time>2026-05-01T07:03:42.955Z</time></trkpt><trkpt lat="44.4619055" lon="11.3853067"><ele>89.0</ele><time>2026-05-01T07:03:45.972Z</time></trkpt><trkpt lat="44.4619638" lon="11.3853416"><ele>89.0</ele><time>2026-05-01T07:03:48.973Z</time></trkpt><trkpt lat="44.4620386" lon="11.3853941"><ele>89.0</ele><time>2026-05-01T07:03:52.976Z</time></trkpt><trkpt lat="44.4621132" lon="11.3854416"><ele>88.99999999999999</ele><time>2026-05-01T07:03:56.964Z</time></trkpt><trkpt lat="44.4621826" lon="11.3854956"><ele>89.0</ele><time>2026-05-01T07:04:00.973Z</time></trkpt><trkpt lat="44.4622373" lon="11.3855599"><ele>89.16666666666667</ele><time>2026-05-01T07:04:04.973Z</time></trkpt><trkpt lat="44.4622622" lon="11.3856671"><ele>89.33333333333334</ele><time>2026-05-01T07:04:10.97Z</time></trkpt><trkpt lat="44.4622383" lon="11.3857798"><ele>89.5</ele><time>2026-05-01T07:04:14.965Z</time></trkpt><trkpt lat="44.4622237" lon="11.3858752"><ele>89.66666666666667</ele><time>2026-05-01T07:04:18.97Z</time></trkpt><trkpt lat="44.4622086" lon="11.3859785"><ele>89.83333333333333</ele><time>2026-05-01T07:04:22.975Z</time></trkpt><trkpt lat="44.4621868" lon="11.3860715"><ele>90.0</ele><time>2026-05-01T07:04:25.977Z</time></trkpt><trkpt lat="44.4621671" lon="11.3861839"><ele>90.0</ele><time>2026-05-01T07:04:28.964Z</time></trkpt><trkpt lat="44.462134" lon="11.3863114"><ele>90.0</ele><time>2026-05-01T07:04:31.968Z</time></trkpt><trkpt lat="44.4620995" lon="11.386405"><ele>90.0</ele><time>2026-05-01T07:04:33.979Z</time></trkpt><trkpt lat="44.4620668" lon="11.3865096"><ele>90.0</ele><time>2026-05-01T07:04:35.974Z</time></trkpt><trkpt lat="44.46204" lon="11.3866286"><ele>90.0</ele><time>2026-05-01T07:04:37.985Z</time></trkpt><trkpt lat="44.4620155" lon="11.3867521"><ele>90.0</ele><time>2026-05-01T07:04:39.974Z</time></trkpt><trkpt lat="44.46198" lon="11.3868767"><ele>91.33333333333333</ele><time>2026-05-01T07:04:41.975Z</time></trkpt><trkpt lat="44.4619412" lon="11.3869978"><ele>92.66666666666666</ele><time>2026-05-01T07:04:43.972Z</time></trkpt><trkpt lat="44.4619065" lon="11.3871126"><ele>94.0</ele><time>2026-05-01T07:04:45.975Z</time></trkpt><trkpt lat="44.4618801" lon="11.3872244"><ele>95.33333333333333</ele><time>2026-05-01T07:04:47.97Z</time></trkpt><trkpt lat="44.4618507" lon="11.3873328"><ele>96.66666666666666</ele><time>2026-05-01T07:04:49.964Z</time></trkpt><trkpt lat="44.4618093" lon="11.3874366"><ele>98.0</ele><time>2026-05-01T07:04:51.979Z</time></trkpt><trkpt lat="44.4617473" lon="11.3875363"><ele>97.99999999999999</ele><time>2026-05-01T07:04:53.986Z</time></trkpt><trkpt lat="44.4616858" lon="11.3876283"><ele>98.0</ele><time>2026-05-01T07:04:55.978Z</time></trkpt><trkpt lat="44.4616265" lon="11.3877132"><ele>98.0</ele><time>2026-05-01T07:04:57.981Z</time></trkpt><trkpt lat="44.4615636" lon="11.3878073"><ele>98.0</ele><time>2026-05-01T07:04:59.975Z</time></trkpt><trkpt lat="44.4615089" lon="11.3879072"><ele>97.99999999999999</ele><time>2026-05-01T07:05:01.972Z</time></trkpt><trkpt lat="44.4614596" lon="11.3880067"><ele>98.0</ele><time>2026-05-01T07:05:03.973Z</time></trkpt><trkpt lat="44.4613833" lon="11.3880664"><ele>97.99999999999999</ele><time>2026-05-01T07:05:05.983Z</time></trkpt><trkpt lat="44.4612952" lon="11.388066"><ele>98.0</ele><time>2026-05-01T07:05:07.976Z</time></trkpt><trkpt lat="44.4612085" lon="11.3880907"><ele>98.0</ele><time>2026-05-01T07:05:09.975Z</time></trkpt><trkpt lat="44.4611376" lon="11.3881339"><ele>98.0</ele><time>2026-05-01T07:05:11.966Z</time></trkpt><trkpt lat="44.4610945" lon="11.3882283"><ele>97.99999999999999</ele><time>2026-05-01T07:05:13.969Z</time></trkpt><trkpt lat="44.4610734" lon="11.3883321"><ele>98.0</ele><time>2026-05-01T07:05:15.972Z</time></trkpt><trkpt lat="44.4610561" lon="11.3884384"><ele>97.99999999999999</ele><time>2026-05-01T07:05:17.975Z</time></trkpt><trkpt lat="44.4610396" lon="11.3885596"><ele>98.0</ele><time>2026-05-01T07:05:19.972Z</time></trkpt><trkpt lat="44.4610217" lon="11.3886731"><ele>98.0</ele><time>2026-05-01T07:05:21.966Z</time></trkpt><trkpt lat="44.4610037" lon="11.388785"><ele>98.0</ele><time>2026-05-01T07:05:23.983Z</time></trkpt><trkpt lat="44.4610123" lon="11.3888983"><ele>97.99999999999999</ele><time>2026-05-01T07:05:25.983Z</time></trkpt><trkpt lat="44.4610042" lon="11.3890084"><ele>98.0</ele><time>2026-05-01T07:05:27.981Z</time></trkpt><trkpt lat="44.4610077" lon="11.3891335"><ele>97.99999999999999</ele><time>2026-05-01T07:05:29.971Z</time></trkpt><trkpt lat="44.4610122" lon="11.3892516"><ele>98.0</ele><time>2026-05-01T07:05:31.97Z</time></trkpt><trkpt lat="44.461039" lon="11.3893781"><ele>98.0</ele><time>2026-05-01T07:05:33.973Z</time></trkpt><trkpt lat="44.4610542" lon="11.3894901"><ele>98.0</ele><time>2026-05-01T07:05:35.969Z</time></trkpt><trkpt lat="44.4610734" lon="11.3896049"><ele>97.99999999999999</ele><time>2026-05-01T07:05:37.977Z</time></trkpt><trkpt lat="44.4610947" lon="11.389723"><ele>98.0</ele><time>2026-05-01T07:05:39.972Z</time></trkpt><trkpt lat="44.4611293" lon="11.3898356"><ele>98.2</ele><time>2026-05-01T07:05:41.969Z</time></trkpt><trkpt lat="44.4611693" lon="11.3899474"><ele>98.4</ele><time>2026-05-01T07:05:43.972Z</time></trkpt><trkpt lat="44.4612128" lon="11.3900645"><ele>98.60000000000001</ele><time>2026-05-01T07:05:45.974Z</time></trkpt><trkpt lat="44.4612628" lon="11.3901681"><ele>98.80000000000001</ele><time>2026-05-01T07:05:47.969Z</time></trkpt><trkpt lat="44.4613135" lon="11.3902644"><ele>99.0</ele><time>2026-05-01T07:05:49.971Z</time></trkpt><trkpt lat="44.4613702" lon="11.3903678"><ele>98.6</ele><time>2026-05-01T07:05:51.972Z</time></trkpt><trkpt lat="44.4614266" lon="11.3904498"><ele>98.2</ele><time>2026-05-01T07:05:53.971Z</time></trkpt><trkpt lat="44.4614978" lon="11.3904996"><ele>97.8</ele><time>2026-05-01T07:05:55.976Z</time></trkpt><trkpt lat="44.4616028" lon="11.3905198"><ele>97.39999999999999</ele><time>2026-05-01T07:05:57.977Z</time></trkpt><trkpt lat="44.4617142" lon="11.3905007"><ele>97.0</ele><time>2026-05-01T07:05:59.978Z</time></trkpt><trkpt lat="44.4618292" lon="11.3904467"><ele>97.0</ele><time>2026-05-01T07:06:01.98Z</time></trkpt><trkpt lat="44.4618973" lon="11.3904159"><ele>97.0</ele><time>2026-05-01T07:06:02.985Z</time></trkpt><trkpt lat="44.4619694" lon="11.3903911"><ele>97.0</ele><time>2026-05-01T07:06:03.974Z</time></trkpt><trkpt lat="44.4620395" lon="11.3903756"><ele>97.0</ele><time>2026-05-01T07:06:04.965Z</time></trkpt><trkpt lat="44.462111" lon="11.390397"><ele>97.0</ele><time>2026-05-01T07:06:05.98Z</time></trkpt><trkpt lat="44.4621769" lon="11.3904342"><ele>97.0</ele><time>2026-05-01T07:06:06.979Z</time></trkpt><trkpt lat="44.4622247" lon="11.3904944"><ele>97.0</ele><time>2026-05-01T07:06:07.955Z</time></trkpt><trkpt lat="44.4622533" lon="11.3905763"><ele>97.6</ele><time>2026-05-01T07:06:08.976Z</time></trkpt><trkpt lat="44.4622732" lon="11.3906702"><ele>98.19999999999999</ele><time>2026-05-01T07:06:09.979Z</time></trkpt><trkpt lat="44.4622994" lon="11.3908225"><ele>98.8</ele><time>2026-05-01T07:06:11.965Z</time></trkpt><trkpt lat="44.4623314" lon="11.3909751"><ele>99.4</ele><time>2026-05-01T07:06:13.975Z</time></trkpt><trkpt lat="44.4623696" lon="11.3911133"><ele>100.0</ele><time>2026-05-01T07:06:15.968Z</time></trkpt><trkpt lat="44.4624279" lon="11.3912368"><ele>100.4</ele><time>2026-05-01T07:06:17.976Z</time></trkpt><trkpt lat="44.4624876" lon="11.3913507"><ele>100.8</ele><time>2026-05-01T07:06:19.971Z</time></trkpt><trkpt lat="44.46254" lon="11.3914527"><ele>101.19999999999999</ele><time>2026-05-01T07:06:21.973Z</time></trkpt><trkpt lat="44.462576" lon="11.3915724"><ele>101.6</ele><time>2026-05-01T07:06:23.992Z</time></trkpt><trkpt lat="44.4625904" lon="11.391696"><ele>102.0</ele><time>2026-05-01T07:06:25.973Z</time></trkpt><trkpt lat="44.462611" lon="11.3918167"><ele>102.0</ele><time>2026-05-01T07:06:27.974Z</time></trkpt><trkpt lat="44.4626584" lon="11.3919297"><ele>102.0</ele><time>2026-05-01T07:06:29.965Z</time></trkpt><trkpt lat="44.4627397" lon="11.3920227"><ele>102.0</ele><time>2026-05-01T07:06:31.967Z</time></trkpt><trkpt lat="44.4628285" lon="11.3920981"><ele>102.0</ele><time>2026-05-01T07:06:33.979Z</time></trkpt><trkpt lat="44.4629188" lon="11.3921653"><ele>102.0</ele><time>2026-05-01T07:06:35.969Z</time></trkpt><trkpt lat="44.4630176" lon="11.3922215"><ele>100.39999999999999</ele><time>2026-05-01T07:06:37.969Z</time></trkpt><trkpt lat="44.4631172" lon="11.3922719"><ele>98.8</ele><time>2026-05-01T07:06:39.969Z</time></trkpt><trkpt lat="44.4632201" lon="11.39232"><ele>97.2</ele><time>2026-05-01T07:06:41.97Z</time></trkpt><trkpt lat="44.4632715" lon="11.3923737"><ele>95.6</ele><time>2026-05-01T07:06:42.977Z</time></trkpt><trkpt lat="44.463357" lon="11.3924655"><ele>94.0</ele><time>2026-05-01T07:06:44.983Z</time></trkpt><trkpt lat="44.4634279" lon="11.3925892"><ele>94.0</ele><time>2026-05-01T07:06:46.964Z</time></trkpt><trkpt lat="44.4635029" lon="11.392722"><ele>94.0</ele><time>2026-05-01T07:06:48.965Z</time></trkpt><trkpt lat="44.463548" lon="11.3927879"><ele>94.0</ele><time>2026-05-01T07:06:49.972Z</time></trkpt><trkpt lat="44.4636349" lon="11.3929049"><ele>94.0</ele><time>2026-05-01T07:06:51.967Z</time></trkpt><trkpt lat="44.4637084" lon="11.3930295"><ele>94.0</ele><time>2026-05-01T07:06:53.971Z</time></trkpt><trkpt lat="44.4637783" lon="11.3931665"><ele>93.80000000000001</ele><time>2026-05-01T07:06:55.965Z</time></trkpt><trkpt lat="44.4638549" lon="11.3932981"><ele>93.60000000000001</ele><time>2026-05-01T07:06:57.971Z</time></trkpt><trkpt lat="44.4639263" lon="11.3934133"><ele>93.4</ele><time>2026-05-01T07:06:59.969Z</time></trkpt><trkpt lat="44.4639784" lon="11.3935002"><ele>93.2</ele><time>2026-05-01T07:07:01.968Z</time></trkpt><trkpt lat="44.4640072" lon="11.3935945"><ele>93.0</ele><time>2026-05-01T07:07:04.962Z</time></trkpt><trkpt lat="44.4639319" lon="11.3936281"><ele>93.00000000000001</ele><time>2026-05-01T07:07:07.955Z</time></trkpt><trkpt lat="44.4638535" lon="11.3936726"><ele>93.0</ele><time>2026-05-01T07:07:10.962Z</time></trkpt><trkpt lat="44.4638056" lon="11.3937382"><ele>93.0</ele><time>2026-05-01T07:07:12.964Z</time></trkpt><trkpt lat="44.4637528" lon="11.3938355"><ele>93.0</ele><time>2026-05-01T07:07:15.961Z</time></trkpt><trkpt lat="44.4637193" lon="11.3939128"><ele>93.0</ele><time>2026-05-01T07:07:17.964Z</time></trkpt><trkpt lat="44.4636787" lon="11.3939925"><ele>93.00000000000001</ele><time>2026-05-01T07:07:19.96Z</time></trkpt><trkpt lat="44.4636257" lon="11.3940666"><ele>93.0</ele><time>2026-05-01T07:07:22.96Z</time></trkpt><trkpt lat="44.4636551" lon="11.3941645"><ele>93.16666666666667</ele><time>2026-05-01T07:07:25.955Z</time></trkpt><trkpt lat="44.4636991" lon="11.3942462"><ele>93.33333333333333</ele><time>2026-05-01T07:07:27.968Z</time></trkpt><trkpt lat="44.4637626" lon="11.3943262"><ele>93.5</ele><time>2026-05-01T07:07:29.963Z</time></trkpt><trkpt lat="44.4638318" lon="11.3944126"><ele>93.66666666666666</ele><time>2026-05-01T07:07:31.967Z</time></trkpt><trkpt lat="44.4638967" lon="11.3945175"><ele>93.83333333333333</ele><time>2026-05-01T07:07:33.964Z</time></trkpt><trkpt lat="44.4639255" lon="11.3946423"><ele>94.0</ele><time>2026-05-01T07:07:35.96Z</time></trkpt><trkpt lat="44.4638917" lon="11.394757"><ele>93.66666666666666</ele><time>2026-05-01T07:07:37.964Z</time></trkpt><trkpt lat="44.4638211" lon="11.3948119"><ele>93.33333333333333</ele><time>2026-05-01T07:07:39.964Z</time></trkpt><trkpt lat="44.4637539" lon="11.394877"><ele>93.0</ele><time>2026-05-01T07:07:41.966Z</time></trkpt><trkpt lat="44.4636913" lon="11.3949426"><ele>92.66666666666667</ele><time>2026-05-01T07:07:43.964Z</time></trkpt><trkpt lat="44.4636116" lon="11.395011"><ele>92.33333333333334</ele><time>2026-05-01T07:07:45.969Z</time></trkpt><trkpt lat="44.4635355" lon="11.3950806"><ele>92.0</ele><time>2026-05-01T07:07:47.962Z</time></trkpt><trkpt lat="44.4634704" lon="11.3951594"><ele>92.0</ele><time>2026-05-01T07:07:49.966Z</time></trkpt><trkpt lat="44.4634148" lon="11.3952495"><ele>92.0</ele><time>2026-05-01T07:07:51.963Z</time></trkpt><trkpt lat="44.4633693" lon="11.3953663"><ele>92.0</ele><time>2026-05-01T07:07:53.964Z</time></trkpt><trkpt lat="44.4633051" lon="11.3954592"><ele>92.0</ele><time>2026-05-01T07:07:55.978Z</time></trkpt><trkpt lat="44.4632415" lon="11.3955424"><ele>92.0</ele><time>2026-05-01T07:07:57.961Z</time></trkpt><trkpt lat="44.4632003" lon="11.3956571"><ele>91.8</ele><time>2026-05-01T07:07:59.969Z</time></trkpt><trkpt lat="44.4631571" lon="11.3957833"><ele>91.6</ele><time>2026-05-01T07:08:01.963Z</time></trkpt><trkpt lat="44.4631049" lon="11.3958985"><ele>91.39999999999999</ele><time>2026-05-01T07:08:03.97Z</time></trkpt><trkpt lat="44.4630367" lon="11.3959865"><ele>91.19999999999999</ele><time>2026-05-01T07:08:05.975Z</time></trkpt><trkpt lat="44.4629625" lon="11.3960738"><ele>91.0</ele><time>2026-05-01T07:08:07.96Z</time></trkpt><trkpt lat="44.4628867" lon="11.3961679"><ele>91.4</ele><time>2026-05-01T07:08:09.964Z</time></trkpt><trkpt lat="44.4628143" lon="11.396261"><ele>91.8</ele><time>2026-05-01T07:08:11.965Z</time></trkpt><trkpt lat="44.4627472" lon="11.3963642"><ele>92.2</ele><time>2026-05-01T07:08:13.962Z</time></trkpt><trkpt lat="44.4626816" lon="11.396477"><ele>92.60000000000001</ele><time>2026-05-01T07:08:15.963Z</time></trkpt><trkpt lat="44.4626187" lon="11.3965769"><ele>93.0</ele><time>2026-05-01T07:08:17.96Z</time></trkpt><trkpt lat="44.4625526" lon="11.3966803"><ele>92.2</ele><time>2026-05-01T07:08:19.965Z</time></trkpt><trkpt lat="44.4624711" lon="11.3967819"><ele>91.4</ele><time>2026-05-01T07:08:21.962Z</time></trkpt><trkpt lat="44.4623911" lon="11.3968789"><ele>90.60000000000001</ele><time>2026-05-01T07:08:23.966Z</time></trkpt><trkpt lat="44.4623055" lon="11.3969844"><ele>89.80000000000001</ele><time>2026-05-01T07:08:25.967Z</time></trkpt><trkpt lat="44.4622296" lon="11.3970892"><ele>89.0</ele><time>2026-05-01T07:08:27.967Z</time></trkpt><trkpt lat="44.4621471" lon="11.3972121"><ele>89.16666666666667</ele><time>2026-05-01T07:08:29.963Z</time></trkpt><trkpt lat="44.4620699" lon="11.3973254"><ele>89.33333333333334</ele><time>2026-05-01T07:08:31.961Z</time></trkpt><trkpt lat="44.4620012" lon="11.3974146"><ele>89.5</ele><time>2026-05-01T07:08:33.965Z</time></trkpt><trkpt lat="44.4619392" lon="11.3974803"><ele>89.66666666666667</ele><time>2026-05-01T07:08:35.966Z</time></trkpt><trkpt lat="44.4619254" lon="11.3975665"><ele>89.83333333333333</ele><time>2026-05-01T07:08:37.968Z</time></trkpt><trkpt lat="44.4619685" lon="11.3976728"><ele>90.0</ele><time>2026-05-01T07:08:39.964Z</time></trkpt><trkpt lat="44.4620365" lon="11.3977834"><ele>89.5</ele><time>2026-05-01T07:08:41.966Z</time></trkpt><trkpt lat="44.4621236" lon="11.3979066"><ele>89.0</ele><time>2026-05-01T07:08:43.965Z</time></trkpt><trkpt lat="44.4621729" lon="11.3979715"><ele>88.5</ele><time>2026-05-01T07:08:44.963Z</time></trkpt><trkpt lat="44.4622246" lon="11.3980385"><ele>88.0</ele><time>2026-05-01T07:08:45.967Z</time></trkpt><trkpt lat="44.462276" lon="11.3981053"><ele>87.5</ele><time>2026-05-01T07:08:46.968Z</time></trkpt><trkpt lat="44.4623319" lon="11.3981725"><ele>87.0</ele><time>2026-05-01T07:08:47.963Z</time></trkpt><trkpt lat="44.4623903" lon="11.3982462"><ele>86.83333333333333</ele><time>2026-05-01T07:08:48.965Z</time></trkpt><trkpt lat="44.4624497" lon="11.3983147"><ele>86.66666666666667</ele><time>2026-05-01T07:08:49.962Z</time></trkpt><trkpt lat="44.4625105" lon="11.3983819"><ele>86.5</ele><time>2026-05-01T07:08:50.965Z</time></trkpt><trkpt lat="44.4625747" lon="11.398449"><ele>86.33333333333334</ele><time>2026-05-01T07:08:51.966Z</time></trkpt><trkpt lat="44.4626377" lon="11.3985208"><ele>86.16666666666667</ele><time>2026-05-01T07:08:52.965Z</time></trkpt><trkpt lat="44.4627013" lon="11.3985928"><ele>86.0</ele><time>2026-05-01T07:08:53.959Z</time></trkpt><trkpt lat="44.4627672" lon="11.3986679"><ele>86.0</ele><time>2026-05-01T07:08:54.96Z</time></trkpt><trkpt lat="44.4628325" lon="11.3987396"><ele>86.0</ele><time>2026-05-01T07:08:55.959Z</time></trkpt><trkpt lat="44.4629004" lon="11.3988121"><ele>86.0</ele><time>2026-05-01T07:08:56.97Z</time></trkpt><trkpt lat="44.4629694" lon="11.3988819"><ele>86.0</ele><time>2026-05-01T07:08:57.958Z</time></trkpt><trkpt lat="44.463036" lon="11.3989483"><ele>86.0</ele><time>2026-05-01T07:08:58.968Z</time></trkpt><trkpt lat="44.4631002" lon="11.399026"><ele>86.0</ele><time>2026-05-01T07:08:59.959Z</time></trkpt><trkpt lat="44.4631706" lon="11.3991038"><ele>85.83333333333334</ele><time>2026-05-01T07:09:00.967Z</time></trkpt><trkpt lat="44.463238" lon="11.3991766"><ele>85.66666666666667</ele><time>2026-05-01T07:09:01.96Z</time></trkpt><trkpt lat="44.4633044" lon="11.3992511"><ele>85.5</ele><time>2026-05-01T07:09:02.966Z</time></trkpt><trkpt lat="44.4633749" lon="11.3993235"><ele>85.33333333333333</ele><time>2026-05-01T07:09:03.966Z</time></trkpt><trkpt lat="44.4634406" lon="11.3993954"><ele>85.16666666666666</ele><time>2026-05-01T07:09:04.961Z</time></trkpt><trkpt lat="44.463509" lon="11.3994704"><ele>85.0</ele><time>2026-05-01T07:09:05.971Z</time></trkpt><trkpt lat="44.4635727" lon="11.3995422"><ele>85.0</ele><time>2026-05-01T07:09:06.965Z</time></trkpt><trkpt lat="44.4636426" lon="11.3996157"><ele>85.0</ele><time>2026-05-01T07:09:07.961Z</time></trkpt><trkpt lat="44.4637105" lon="11.3996844"><ele>85.0</ele><time>2026-05-01T07:09:08.971Z</time></trkpt><trkpt lat="44.4637745" lon="11.3997533"><ele>85.0</ele><time>2026-05-01T07:09:09.963Z</time></trkpt><trkpt lat="44.4638288" lon="11.3998151"><ele>85.0</ele><time>2026-05-01T07:09:10.987Z</time></trkpt><trkpt lat="44.4639197" lon="11.399917"><ele>85.0</ele><time>2026-05-01T07:09:12.967Z</time></trkpt><trkpt lat="44.4639995" lon="11.4000257"><ele>84.0</ele><time>2026-05-01T07:09:14.965Z</time></trkpt><trkpt lat="44.4640913" lon="11.4001223"><ele>83.0</ele><time>2026-05-01T07:09:16.962Z</time></trkpt><trkpt lat="44.46417" lon="11.4002083"><ele>82.0</ele><time>2026-05-01T07:09:18.962Z</time></trkpt><trkpt lat="44.4642154" lon="11.4002893"><ele>81.0</ele><time>2026-05-01T07:09:20.965Z</time></trkpt><trkpt lat="44.4641914" lon="11.4003976"><ele>80.0</ele><time>2026-05-01T07:09:22.972Z</time></trkpt><trkpt lat="44.4641337" lon="11.4004928"><ele>80.0</ele><time>2026-05-01T07:09:24.967Z</time></trkpt><trkpt lat="44.4640718" lon="11.4005821"><ele>80.0</ele><time>2026-05-01T07:09:26.963Z</time></trkpt><trkpt lat="44.464012" lon="11.4006647"><ele>80.0</ele><time>2026-05-01T07:09:28.96Z</time></trkpt><trkpt lat="44.4639495" lon="11.4007338"><ele>80.0</ele><time>2026-05-01T07:09:30.964Z</time></trkpt><trkpt lat="44.463899" lon="11.4007987"><ele>80.0</ele><time>2026-05-01T07:09:32.969Z</time></trkpt><trkpt lat="44.4638441" lon="11.4008723"><ele>80.0</ele><time>2026-05-01T07:09:34.969Z</time></trkpt><trkpt lat="44.4637906" lon="11.4009445"><ele>80.2</ele><time>2026-05-01T07:09:36.972Z</time></trkpt><trkpt lat="44.4637237" lon="11.4010287"><ele>80.4</ele><time>2026-05-01T07:09:38.965Z</time></trkpt><trkpt lat="44.4636469" lon="11.4011334"><ele>80.6</ele><time>2026-05-01T07:09:40.967Z</time></trkpt><trkpt lat="44.4635676" lon="11.4012372"><ele>80.8</ele><time>2026-05-01T07:09:42.968Z</time></trkpt><trkpt lat="44.4634913" lon="11.4013604"><ele>81.0</ele><time>2026-05-01T07:09:44.963Z</time></trkpt><trkpt lat="44.4634104" lon="11.4014969"><ele>80.5</ele><time>2026-05-01T07:09:46.975Z</time></trkpt><trkpt lat="44.4633327" lon="11.401632"><ele>80.0</ele><time>2026-05-01T07:09:48.968Z</time></trkpt><trkpt lat="44.4632933" lon="11.4017047"><ele>79.5</ele><time>2026-05-01T07:09:49.974Z</time></trkpt><trkpt lat="44.4632571" lon="11.4017773"><ele>79.0</ele><time>2026-05-01T07:09:50.967Z</time></trkpt><trkpt lat="44.4632209" lon="11.4018548"><ele>78.5</ele><time>2026-05-01T07:09:51.963Z</time></trkpt><trkpt lat="44.4631858" lon="11.40193"><ele>78.0</ele><time>2026-05-01T07:09:52.964Z</time></trkpt><trkpt lat="44.4631139" lon="11.4020774"><ele>78.0</ele><time>2026-05-01T07:09:54.97Z</time></trkpt><trkpt lat="44.4630767" lon="11.4021584"><ele>78.0</ele><time>2026-05-01T07:09:55.965Z</time></trkpt><trkpt lat="44.4630452" lon="11.4022354"><ele>78.0</ele><time>2026-05-01T07:09:56.967Z</time></trkpt><trkpt lat="44.4629808" lon="11.4023728"><ele>78.0</ele><time>2026-05-01T07:09:58.969Z</time></trkpt><trkpt lat="44.4629224" lon="11.402479"><ele>78.0</ele><time>2026-05-01T07:10:00.964Z</time></trkpt><trkpt lat="44.4628759" lon="11.4025791"><ele>78.0</ele><time>2026-05-01T07:10:02.967Z</time></trkpt><trkpt lat="44.4628283" lon="11.4026697"><ele>78.0</ele><time>2026-05-01T07:10:04.969Z</time></trkpt><trkpt lat="44.4627826" lon="11.4027688"><ele>78.0</ele><time>2026-05-01T07:10:07.954Z</time></trkpt><trkpt lat="44.462748" lon="11.4028497"><ele>78.0</ele><time>2026-05-01T07:10:09.959Z</time></trkpt><trkpt lat="44.4627131" lon="11.4029421"><ele>78.0</ele><time>2026-05-01T07:10:11.97Z</time></trkpt><trkpt lat="44.4626692" lon="11.4030463"><ele>78.0</ele><time>2026-05-01T07:10:13.961Z</time></trkpt><trkpt lat="44.4626226" lon="11.4031598"><ele>78.0</ele><time>2026-05-01T07:10:15.961Z</time></trkpt><trkpt lat="44.4625661" lon="11.4032591"><ele>78.2</ele><time>2026-05-01T07:10:17.955Z</time></trkpt><trkpt lat="44.4625171" lon="11.4033542"><ele>78.4</ele><time>2026-05-01T07:10:19.961Z</time></trkpt><trkpt lat="44.4624408" lon="11.4034472"><ele>78.60000000000001</ele><time>2026-05-01T07:10:21.975Z</time></trkpt><trkpt lat="44.4623658" lon="11.4035134"><ele>78.8</ele><time>2026-05-01T07:10:23.987Z</time></trkpt><trkpt lat="44.4622874" lon="11.4035819"><ele>79.0</ele><time>2026-05-01T07:10:25.983Z</time></trkpt><trkpt lat="44.4622055" lon="11.4036432"><ele>79.0</ele><time>2026-05-01T07:10:27.983Z</time></trkpt><trkpt lat="44.4621226" lon="11.4036974"><ele>79.0</ele><time>2026-05-01T07:10:29.968Z</time></trkpt><trkpt lat="44.4620326" lon="11.4037311"><ele>79.0</ele><time>2026-05-01T07:10:31.973Z</time></trkpt><trkpt lat="44.4619428" lon="11.4037627"><ele>79.0</ele><time>2026-05-01T07:10:33.978Z</time></trkpt><trkpt lat="44.4618609" lon="11.4037937"><ele>79.0</ele><time>2026-05-01T07:10:35.976Z</time></trkpt><trkpt lat="44.4617781" lon="11.4038276"><ele>79.0</ele><time>2026-05-01T07:10:37.973Z</time></trkpt><trkpt lat="44.4616875" lon="11.4038693"><ele>80.2</ele><time>2026-05-01T07:10:39.963Z</time></trkpt><trkpt lat="44.461596" lon="11.403913"><ele>81.4</ele><time>2026-05-01T07:10:41.969Z</time></trkpt><trkpt lat="44.461508" lon="11.4039554"><ele>82.6</ele><time>2026-05-01T07:10:43.98Z</time></trkpt><trkpt lat="44.4614102" lon="11.4039962"><ele>83.8</ele><time>2026-05-01T07:10:45.985Z</time></trkpt><trkpt lat="44.4613144" lon="11.4040308"><ele>85.0</ele><time>2026-05-01T07:10:47.963Z</time></trkpt><trkpt lat="44.4612237" lon="11.4040746"><ele>85.0</ele><time>2026-05-01T07:10:49.985Z</time></trkpt><trkpt lat="44.4611353" lon="11.4041156"><ele>85.0</ele><time>2026-05-01T07:10:51.972Z</time></trkpt><trkpt lat="44.4610421" lon="11.4041555"><ele>85.0</ele><time>2026-05-01T07:10:53.969Z</time></trkpt><trkpt lat="44.4609522" lon="11.404211"><ele>85.0</ele><time>2026-05-01T07:10:55.974Z</time></trkpt><trkpt lat="44.46086" lon="11.4042661"><ele>85.0</ele><time>2026-05-01T07:10:57.97Z</time></trkpt><trkpt lat="44.4607694" lon="11.4043317"><ele>85.0</ele><time>2026-05-01T07:10:59.971Z</time></trkpt><trkpt lat="44.4606843" lon="11.4043914"><ele>85.0</ele><time>2026-05-01T07:11:01.984Z</time></trkpt><trkpt lat="44.4605978" lon="11.4044489"><ele>85.0</ele><time>2026-05-01T07:11:03.973Z</time></trkpt><trkpt lat="44.460509" lon="11.4045107"><ele>85.0</ele><time>2026-05-01T07:11:05.972Z</time></trkpt><trkpt lat="44.4604226" lon="11.4045765"><ele>85.0</ele><time>2026-05-01T07:11:07.974Z</time></trkpt><trkpt lat="44.4603387" lon="11.4046498"><ele>85.4</ele><time>2026-05-01T07:11:09.96Z</time></trkpt><trkpt lat="44.4602567" lon="11.4047162"><ele>85.8</ele><time>2026-05-01T07:11:11.96Z</time></trkpt><trkpt lat="44.4601776" lon="11.4047842"><ele>86.19999999999999</ele><time>2026-05-01T07:11:13.958Z</time></trkpt><trkpt lat="44.4601007" lon="11.4048563"><ele>86.6</ele><time>2026-05-01T07:11:15.981Z</time></trkpt><trkpt lat="44.4600172" lon="11.4049334"><ele>87.0</ele><time>2026-05-01T07:11:17.971Z</time></trkpt><trkpt lat="44.4599295" lon="11.4049992"><ele>87.0</ele><time>2026-05-01T07:11:19.976Z</time></trkpt><trkpt lat="44.4598373" lon="11.4050612"><ele>87.0</ele><time>2026-05-01T07:11:21.982Z</time></trkpt><trkpt lat="44.4597285" lon="11.4051254"><ele>87.0</ele><time>2026-05-01T07:11:23.983Z</time></trkpt><trkpt lat="44.4596089" lon="11.4051941"><ele>87.0</ele><time>2026-05-01T07:11:25.979Z</time></trkpt><trkpt lat="44.4595498" lon="11.4052251"><ele>87.0</ele><time>2026-05-01T07:11:26.968Z</time></trkpt><trkpt lat="44.4594872" lon="11.4052554"><ele>87.42857142857143</ele><time>2026-05-01T07:11:27.983Z</time></trkpt><trkpt lat="44.4594227" lon="11.4052752"><ele>87.85714285714286</ele><time>2026-05-01T07:11:28.983Z</time></trkpt><trkpt lat="44.4593549" lon="11.4052924"><ele>88.28571428571428</ele><time>2026-05-01T07:11:29.973Z</time></trkpt><trkpt lat="44.4592856" lon="11.4053069"><ele>88.71428571428572</ele><time>2026-05-01T07:11:30.977Z</time></trkpt><trkpt lat="44.4592205" lon="11.4053212"><ele>89.14285714285715</ele><time>2026-05-01T07:11:31.98Z</time></trkpt><trkpt lat="44.4591511" lon="11.4053351"><ele>89.57142857142857</ele><time>2026-05-01T07:11:32.977Z</time></trkpt><trkpt lat="44.4590793" lon="11.4053463"><ele>90.0</ele><time>2026-05-01T07:11:33.967Z</time></trkpt><trkpt lat="44.4590116" lon="11.4053597"><ele>90.0</ele><time>2026-05-01T07:11:34.978Z</time></trkpt><trkpt lat="44.4589411" lon="11.4053653"><ele>90.0</ele><time>2026-05-01T07:11:35.972Z</time></trkpt><trkpt lat="44.4588687" lon="11.4053784"><ele>90.0</ele><time>2026-05-01T07:11:36.967Z</time></trkpt><trkpt lat="44.4587961" lon="11.405395"><ele>90.0</ele><time>2026-05-01T07:11:37.974Z</time></trkpt><trkpt lat="44.4587279" lon="11.4054067"><ele>90.0</ele><time>2026-05-01T07:11:38.981Z</time></trkpt><trkpt lat="44.4586614" lon="11.4054229"><ele>90.0</ele><time>2026-05-01T07:11:39.975Z</time></trkpt><trkpt lat="44.4585926" lon="11.4054411"><ele>90.0</ele><time>2026-05-01T07:11:40.975Z</time></trkpt><trkpt lat="44.4585249" lon="11.4054587"><ele>90.0</ele><time>2026-05-01T07:11:41.975Z</time></trkpt><trkpt lat="44.4584574" lon="11.4054706"><ele>90.0</ele><time>2026-05-01T07:11:42.975Z</time></trkpt><trkpt lat="44.4583914" lon="11.4054876"><ele>90.0</ele><time>2026-05-01T07:11:43.977Z</time></trkpt><trkpt lat="44.4583235" lon="11.405502"><ele>90.0</ele><time>2026-05-01T07:11:44.981Z</time></trkpt><trkpt lat="44.4582558" lon="11.4055129"><ele>90.0</ele><time>2026-05-01T07:11:45.974Z</time></trkpt><trkpt lat="44.4581895" lon="11.4055266"><ele>90.0</ele><time>2026-05-01T07:11:46.972Z</time></trkpt><trkpt lat="44.458125" lon="11.4055376"><ele>90.0</ele><time>2026-05-01T07:11:47.966Z</time></trkpt><trkpt lat="44.4580629" lon="11.4055567"><ele>89.66666666666667</ele><time>2026-05-01T07:11:48.976Z</time></trkpt><trkpt lat="44.4579427" lon="11.4055904"><ele>89.33333333333333</ele><time>2026-05-01T07:11:50.979Z</time></trkpt><trkpt lat="44.4578825" lon="11.4056178"><ele>89.0</ele><time>2026-05-01T07:11:51.977Z</time></trkpt><trkpt lat="44.4578224" lon="11.4056501"><ele>88.66666666666666</ele><time>2026-05-01T07:11:52.971Z</time></trkpt><trkpt lat="44.4577075" lon="11.4056897"><ele>88.33333333333333</ele><time>2026-05-01T07:11:54.975Z</time></trkpt><trkpt lat="44.4576437" lon="11.4057016"><ele>88.0</ele><time>2026-05-01T07:11:55.977Z</time></trkpt><trkpt lat="44.4575283" lon="11.4057277"><ele>88.0</ele><time>2026-05-01T07:11:57.975Z</time></trkpt><trkpt lat="44.4574131" lon="11.4057919"><ele>88.0</ele><time>2026-05-01T07:11:59.976Z</time></trkpt><trkpt lat="44.4572919" lon="11.4057918"><ele>88.0</ele><time>2026-05-01T07:12:01.981Z</time></trkpt><trkpt lat="44.4571707" lon="11.4057784"><ele>88.0</ele><time>2026-05-01T07:12:03.973Z</time></trkpt><trkpt lat="44.4570502" lon="11.4057689"><ele>87.75</ele><time>2026-05-01T07:12:05.972Z</time></trkpt><trkpt lat="44.456929" lon="11.405778"><ele>87.5</ele><time>2026-05-01T07:12:07.969Z</time></trkpt><trkpt lat="44.4568048" lon="11.4058003"><ele>87.25</ele><time>2026-05-01T07:12:09.971Z</time></trkpt><trkpt lat="44.4566829" lon="11.4058254"><ele>87.0</ele><time>2026-05-01T07:12:11.974Z</time></trkpt><trkpt lat="44.4565627" lon="11.4058536"><ele>87.0</ele><time>2026-05-01T07:12:13.97Z</time></trkpt><trkpt lat="44.4564962" lon="11.4058715"><ele>87.0</ele><time>2026-05-01T07:12:14.989Z</time></trkpt><trkpt lat="44.4564331" lon="11.405888"><ele>87.0</ele><time>2026-05-01T07:12:15.972Z</time></trkpt><trkpt lat="44.4563674" lon="11.4059077"><ele>87.0</ele><time>2026-05-01T07:12:16.976Z</time></trkpt><trkpt lat="44.4562981" lon="11.4059259"><ele>87.0</ele><time>2026-05-01T07:12:17.976Z</time></trkpt><trkpt lat="44.4562351" lon="11.4059404"><ele>87.0</ele><time>2026-05-01T07:12:18.969Z</time></trkpt><trkpt lat="44.4561722" lon="11.4059547"><ele>87.0</ele><time>2026-05-01T07:12:19.976Z</time></trkpt><trkpt lat="44.4561079" lon="11.4059712"><ele>87.33333333333333</ele><time>2026-05-01T07:12:20.973Z</time></trkpt><trkpt lat="44.4560452" lon="11.4059818"><ele>87.66666666666667</ele><time>2026-05-01T07:12:21.982Z</time></trkpt><trkpt lat="44.4559784" lon="11.4059965"><ele>88.0</ele><time>2026-05-01T07:12:22.975Z</time></trkpt><trkpt lat="44.4558523" lon="11.4060229"><ele>88.33333333333334</ele><time>2026-05-01T07:12:24.973Z</time></trkpt><trkpt lat="44.4557901" lon="11.4060382"><ele>88.66666666666667</ele><time>2026-05-01T07:12:25.978Z</time></trkpt><trkpt lat="44.455726" lon="11.4060456"><ele>89.0</ele><time>2026-05-01T07:12:26.982Z</time></trkpt><trkpt lat="44.4556613" lon="11.4060578"><ele>88.99999999999999</ele><time>2026-05-01T07:12:27.972Z</time></trkpt><trkpt lat="44.4555984" lon="11.406072"><ele>89.0</ele><time>2026-05-01T07:12:28.97Z</time></trkpt><trkpt lat="44.4555355" lon="11.4060865"><ele>89.0</ele><time>2026-05-01T07:12:29.972Z</time></trkpt><trkpt lat="44.4554685" lon="11.406094"><ele>89.0</ele><time>2026-05-01T07:12:30.98Z</time></trkpt><trkpt lat="44.4554041" lon="11.4061077"><ele>89.0</ele><time>2026-05-01T07:12:31.967Z</time></trkpt><trkpt lat="44.4553382" lon="11.4061181"><ele>88.99999999999999</ele><time>2026-05-01T07:12:32.97Z</time></trkpt><trkpt lat="44.4552729" lon="11.40613"><ele>89.0</ele><time>2026-05-01T07:12:33.972Z</time></trkpt><trkpt lat="44.4552063" lon="11.4061471"><ele>88.57142857142857</ele><time>2026-05-01T07:12:34.976Z</time></trkpt><trkpt lat="44.4551384" lon="11.4061682"><ele>88.14285714285714</ele><time>2026-05-01T07:12:35.952Z</time></trkpt><trkpt lat="44.4550692" lon="11.4061804"><ele>87.71428571428572</ele><time>2026-05-01T07:12:36.97Z</time></trkpt><trkpt lat="44.4550008" lon="11.406192"><ele>87.28571428571428</ele><time>2026-05-01T07:12:37.973Z</time></trkpt><trkpt lat="44.4549382" lon="11.4062159"><ele>86.85714285714286</ele><time>2026-05-01T07:12:38.97Z</time></trkpt><trkpt lat="44.4548714" lon="11.4062367"><ele>86.42857142857143</ele><time>2026-05-01T07:12:39.967Z</time></trkpt><trkpt lat="44.4548003" lon="11.4062547"><ele>86.0</ele><time>2026-05-01T07:12:40.973Z</time></trkpt><trkpt lat="44.4547351" lon="11.4062811"><ele>86.0</ele><time>2026-05-01T07:12:41.967Z</time></trkpt><trkpt lat="44.4546673" lon="11.4063032"><ele>86.0</ele><time>2026-05-01T07:12:42.97Z</time></trkpt><trkpt lat="44.4546" lon="11.4063269"><ele>86.0</ele><time>2026-05-01T07:12:43.986Z</time></trkpt><trkpt lat="44.4545323" lon="11.4063513"><ele>86.0</ele><time>2026-05-01T07:12:44.989Z</time></trkpt><trkpt lat="44.4544664" lon="11.4063747"><ele>86.0</ele><time>2026-05-01T07:12:45.992Z</time></trkpt><trkpt lat="44.4544028" lon="11.406404"><ele>86.0</ele><time>2026-05-01T07:12:46.97Z</time></trkpt><trkpt lat="44.4542796" lon="11.4064517"><ele>85.57142857142858</ele><time>2026-05-01T07:12:48.976Z</time></trkpt><trkpt lat="44.454209" lon="11.406488"><ele>85.14285714285714</ele><time>2026-05-01T07:12:49.978Z</time></trkpt><trkpt lat="44.4541434" lon="11.406515"><ele>84.71428571428572</ele><time>2026-05-01T07:12:50.974Z</time></trkpt><trkpt lat="44.4540771" lon="11.4065444"><ele>84.28571428571429</ele><time>2026-05-01T07:12:51.975Z</time></trkpt><trkpt lat="44.4540106" lon="11.4065776"><ele>83.85714285714286</ele><time>2026-05-01T07:12:52.966Z</time></trkpt><trkpt lat="44.4539418" lon="11.4066156"><ele>83.42857142857143</ele><time>2026-05-01T07:12:53.978Z</time></trkpt><trkpt lat="44.4538698" lon="11.4066513"><ele>83.0</ele><time>2026-05-01T07:12:54.97Z</time></trkpt><trkpt lat="44.4538012" lon="11.4066874"><ele>83.57142857142857</ele><time>2026-05-01T07:12:55.968Z</time></trkpt><trkpt lat="44.4537336" lon="11.4067154"><ele>84.14285714285715</ele><time>2026-05-01T07:12:56.975Z</time></trkpt><trkpt lat="44.453664" lon="11.4067532"><ele>84.71428571428572</ele><time>2026-05-01T07:12:57.973Z</time></trkpt><trkpt lat="44.453595" lon="11.40679"><ele>85.28571428571428</ele><time>2026-05-01T07:12:58.972Z</time></trkpt><trkpt lat="44.453528" lon="11.4068337"><ele>85.85714285714286</ele><time>2026-05-01T07:12:59.983Z</time></trkpt><trkpt lat="44.4534672" lon="11.4068644"><ele>86.42857142857143</ele><time>2026-05-01T07:13:00.967Z</time></trkpt><trkpt lat="44.4534068" lon="11.4068951"><ele>87.0</ele><time>2026-05-01T07:13:01.973Z</time></trkpt><trkpt lat="44.4533432" lon="11.4069228"><ele>87.0</ele><time>2026-05-01T07:13:02.973Z</time></trkpt><trkpt lat="44.4532804" lon="11.4069529"><ele>87.0</ele><time>2026-05-01T07:13:03.968Z</time></trkpt><trkpt lat="44.453219" lon="11.4069796"><ele>87.0</ele><time>2026-05-01T07:13:04.968Z</time></trkpt><trkpt lat="44.4531568" lon="11.4070074"><ele>87.0</ele><time>2026-05-01T07:13:05.991Z</time></trkpt><trkpt lat="44.4530926" lon="11.4070321"><ele>87.0</ele><time>2026-05-01T07:13:06.977Z</time></trkpt><trkpt lat="44.4530333" lon="11.4070619"><ele>87.0</ele><time>2026-05-01T07:13:07.97Z</time></trkpt><trkpt lat="44.452921" lon="11.4070994"><ele>87.0</ele><time>2026-05-01T07:13:09.968Z</time></trkpt><trkpt lat="44.4528589" lon="11.4071145"><ele>86.83333333333333</ele><time>2026-05-01T07:13:10.976Z</time></trkpt><trkpt lat="44.4527939" lon="11.4071238"><ele>86.66666666666667</ele><time>2026-05-01T07:13:11.976Z</time></trkpt><trkpt lat="44.4526723" lon="11.4071447"><ele>86.5</ele><time>2026-05-01T07:13:13.955Z</time></trkpt><trkpt lat="44.4525476" lon="11.407162"><ele>86.33333333333334</ele><time>2026-05-01T07:13:15.953Z</time></trkpt><trkpt lat="44.4524805" lon="11.4071792"><ele>86.16666666666667</ele><time>2026-05-01T07:13:16.952Z</time></trkpt><trkpt lat="44.4524165" lon="11.4071955"><ele>86.0</ele><time>2026-05-01T07:13:17.956Z</time></trkpt><trkpt lat="44.4522982" lon="11.4072457"><ele>86.0</ele><time>2026-05-01T07:13:19.958Z</time></trkpt><trkpt lat="44.4522352" lon="11.4072609"><ele>86.0</ele><time>2026-05-01T07:13:20.953Z</time></trkpt><trkpt lat="44.4521203" lon="11.4072785"><ele>86.0</ele><time>2026-05-01T07:13:22.953Z</time></trkpt><trkpt lat="44.4520087" lon="11.4073018"><ele>86.0</ele><time>2026-05-01T07:13:24.955Z</time></trkpt><trkpt lat="44.4518909" lon="11.4073105"><ele>86.0</ele><time>2026-05-01T07:13:26.95Z</time></trkpt><trkpt lat="44.4517725" lon="11.4073256"><ele>85.75</ele><time>2026-05-01T07:13:28.954Z</time></trkpt><trkpt lat="44.4516537" lon="11.4073419"><ele>85.5</ele><time>2026-05-01T07:13:30.955Z</time></trkpt><trkpt lat="44.4515409" lon="11.4073681"><ele>85.25</ele><time>2026-05-01T07:13:32.956Z</time></trkpt><trkpt lat="44.4514331" lon="11.4074059"><ele>85.0</ele><time>2026-05-01T07:13:34.962Z</time></trkpt><trkpt lat="44.4513311" lon="11.4074414"><ele>85.6</ele><time>2026-05-01T07:13:36.955Z</time></trkpt><trkpt lat="44.4512384" lon="11.4075069"><ele>86.2</ele><time>2026-05-01T07:13:38.987Z</time></trkpt><trkpt lat="44.451199" lon="11.4076475"><ele>86.80000000000001</ele><time>2026-05-01T07:13:40.973Z</time></trkpt><trkpt lat="44.4511928" lon="11.407795"><ele>87.4</ele><time>2026-05-01T07:13:42.982Z</time></trkpt><trkpt lat="44.4511587" lon="11.4079372"><ele>88.0</ele><time>2026-05-01T07:13:44.97Z</time></trkpt><trkpt lat="44.4511296" lon="11.4080819"><ele>88.0</ele><time>2026-05-01T07:13:46.96Z</time></trkpt><trkpt lat="44.4511076" lon="11.4082318"><ele>88.0</ele><time>2026-05-01T07:13:48.959Z</time></trkpt><trkpt lat="44.4510985" lon="11.408372"><ele>88.0</ele><time>2026-05-01T07:13:50.984Z</time></trkpt><trkpt lat="44.4510922" lon="11.4085191"><ele>88.0</ele><time>2026-05-01T07:13:52.963Z</time></trkpt><trkpt lat="44.4510772" lon="11.4086704"><ele>88.0</ele><time>2026-05-01T07:13:54.967Z</time></trkpt><trkpt lat="44.4510617" lon="11.40882"><ele>88.4</ele><time>2026-05-01T07:13:56.976Z</time></trkpt><trkpt lat="44.4510587" lon="11.4089663"><ele>88.80000000000001</ele><time>2026-05-01T07:13:58.979Z</time></trkpt><trkpt lat="44.4510591" lon="11.4091091"><ele>89.2</ele><time>2026-05-01T07:14:00.971Z</time></trkpt><trkpt lat="44.4510523" lon="11.40926"><ele>89.6</ele><time>2026-05-01T07:14:02.978Z</time></trkpt><trkpt lat="44.4509615" lon="11.4093343"><ele>90.0</ele><time>2026-05-01T07:14:04.961Z</time></trkpt><trkpt lat="44.4508552" lon="11.4092844"><ele>90.0</ele><time>2026-05-01T07:14:06.958Z</time></trkpt><trkpt lat="44.4507556" lon="11.4092448"><ele>90.0</ele><time>2026-05-01T07:14:08.957Z</time></trkpt><trkpt lat="44.4506556" lon="11.4092152"><ele>90.0</ele><time>2026-05-01T07:14:10.965Z</time></trkpt><trkpt lat="44.4505564" lon="11.4091729"><ele>90.0</ele><time>2026-05-01T07:14:12.966Z</time></trkpt><trkpt lat="44.4504559" lon="11.4091443"><ele>90.0</ele><time>2026-05-01T07:14:14.963Z</time></trkpt><trkpt lat="44.4503615" lon="11.4091174"><ele>90.5</ele><time>2026-05-01T07:14:16.957Z</time></trkpt><trkpt lat="44.4502846" lon="11.4090959"><ele>91.0</ele><time>2026-05-01T07:14:18.955Z</time></trkpt><trkpt lat="44.4502031" lon="11.4091002"><ele>91.5</ele><time>2026-05-01T07:14:21.962Z</time></trkpt><trkpt lat="44.4501249" lon="11.4091064"><ele>92.0</ele><time>2026-05-01T07:14:31.974Z</time></trkpt><trkpt lat="44.4500596" lon="11.4091491"><ele>92.5</ele><time>2026-05-01T07:14:40.979Z</time></trkpt><trkpt lat="44.4500056" lon="11.4092144"><ele>93.0</ele><time>2026-05-01T07:14:43.991Z</time></trkpt><trkpt lat="44.4499487" lon="11.409292"><ele>93.00000000000001</ele><time>2026-05-01T07:14:46.974Z</time></trkpt><trkpt lat="44.4498772" lon="11.4093576"><ele>93.0</ele><time>2026-05-01T07:14:49.958Z</time></trkpt><trkpt lat="44.449818" lon="11.4094127"><ele>93.0</ele><time>2026-05-01T07:14:52.958Z</time></trkpt><trkpt lat="44.4497548" lon="11.4094455"><ele>93.0</ele><time>2026-05-01T07:14:55.967Z</time></trkpt><trkpt lat="44.4496892" lon="11.4094907"><ele>93.0</ele><time>2026-05-01T07:14:58.968Z</time></trkpt><trkpt lat="44.4496634" lon="11.4095753"><ele>93.00000000000001</ele><time>2026-05-01T07:15:01.966Z</time></trkpt><trkpt lat="44.4496198" lon="11.4096401"><ele>93.0</ele><time>2026-05-01T07:15:04.962Z</time></trkpt><trkpt lat="44.4495616" lon="11.4096768"><ele>93.16666666666667</ele><time>2026-05-01T07:15:07.973Z</time></trkpt><trkpt lat="44.4494999" lon="11.4096378"><ele>93.33333333333333</ele><time>2026-05-01T07:15:10.969Z</time></trkpt><trkpt lat="44.4494243" lon="11.4095933"><ele>93.5</ele><time>2026-05-01T07:15:13.961Z</time></trkpt><trkpt lat="44.4493376" lon="11.4095423"><ele>93.66666666666666</ele><time>2026-05-01T07:15:16.963Z</time></trkpt><trkpt lat="44.4492656" lon="11.4095393"><ele>93.83333333333333</ele><time>2026-05-01T07:15:18.962Z</time></trkpt><trkpt lat="44.4491957" lon="11.4095188"><ele>94.0</ele><time>2026-05-01T07:15:20.968Z</time></trkpt><trkpt lat="44.4491274" lon="11.4094884"><ele>94.0</ele><time>2026-05-01T07:15:22.962Z</time></trkpt><trkpt lat="44.4490541" lon="11.4094604"><ele>94.0</ele><time>2026-05-01T07:15:24.96Z</time></trkpt><trkpt lat="44.4489757" lon="11.4094364"><ele>94.0</ele><time>2026-05-01T07:15:26.969Z</time></trkpt><trkpt lat="44.4488754" lon="11.4094181"><ele>94.0</ele><time>2026-05-01T07:15:28.969Z</time></trkpt><trkpt lat="44.4487737" lon="11.4093868"><ele>94.0</ele><time>2026-05-01T07:15:30.965Z</time></trkpt><trkpt lat="44.4486881" lon="11.4093491"><ele>93.6</ele><time>2026-05-01T07:15:32.976Z</time></trkpt><trkpt lat="44.4485968" lon="11.4093136"><ele>93.2</ele><time>2026-05-01T07:15:34.972Z</time></trkpt><trkpt lat="44.4485043" lon="11.4092754"><ele>92.8</ele><time>2026-05-01T07:15:36.974Z</time></trkpt><trkpt lat="44.4484065" lon="11.4092591"><ele>92.39999999999999</ele><time>2026-05-01T07:15:38.969Z</time></trkpt><trkpt lat="44.4483148" lon="11.4092238"><ele>92.0</ele><time>2026-05-01T07:15:40.972Z</time></trkpt><trkpt lat="44.4482233" lon="11.409197"><ele>92.0</ele><time>2026-05-01T07:15:42.968Z</time></trkpt><trkpt lat="44.4481298" lon="11.4091662"><ele>92.0</ele><time>2026-05-01T07:15:44.979Z</time></trkpt><trkpt lat="44.4480338" lon="11.4091386"><ele>92.0</ele><time>2026-05-01T07:15:46.985Z</time></trkpt><trkpt lat="44.4479393" lon="11.409097"><ele>92.0</ele><time>2026-05-01T07:15:48.984Z</time></trkpt><trkpt lat="44.4478499" lon="11.4090643"><ele>92.0</ele><time>2026-05-01T07:15:50.977Z</time></trkpt><trkpt lat="44.4477452" lon="11.4090339"><ele>92.0</ele><time>2026-05-01T07:15:53.049Z</time></trkpt><trkpt lat="44.4476421" lon="11.4089988"><ele>92.0</ele><time>2026-05-01T07:15:54.981Z</time></trkpt><trkpt lat="44.4475401" lon="11.4089782"><ele>92.0</ele><time>2026-05-01T07:15:57.04Z</time></trkpt><trkpt lat="44.4474414" lon="11.4089386"><ele>92.0</ele><time>2026-05-01T07:15:59.036Z</time></trkpt><trkpt lat="44.4473377" lon="11.4089059"><ele>92.0</ele><time>2026-05-01T07:16:00.963Z</time></trkpt><trkpt lat="44.4472333" lon="11.4088724"><ele>91.5</ele><time>2026-05-01T07:16:02.969Z</time></trkpt><trkpt lat="44.4471266" lon="11.4088267"><ele>91.0</ele><time>2026-05-01T07:16:04.968Z</time></trkpt><trkpt lat="44.4470104" lon="11.4087941"><ele>90.5</ele><time>2026-05-01T07:16:07.038Z</time></trkpt><trkpt lat="44.4468931" lon="11.408753"><ele>90.0</ele><time>2026-05-01T07:16:09.05Z</time></trkpt><trkpt lat="44.4467778" lon="11.4087113"><ele>90.66666666666667</ele><time>2026-05-01T07:16:10.972Z</time></trkpt><trkpt lat="44.4467133" lon="11.4086908"><ele>91.33333333333333</ele><time>2026-05-01T07:16:11.975Z</time></trkpt><trkpt lat="44.4466514" lon="11.4086691"><ele>92.0</ele><time>2026-05-01T07:16:12.986Z</time></trkpt><trkpt lat="44.4465915" lon="11.4086415"><ele>92.66666666666666</ele><time>2026-05-01T07:16:13.976Z</time></trkpt><trkpt lat="44.4464758" lon="11.4085932"><ele>93.33333333333333</ele><time>2026-05-01T07:16:15.98Z</time></trkpt><trkpt lat="44.4463625" lon="11.4085532"><ele>94.0</ele><time>2026-05-01T07:16:17.975Z</time></trkpt><trkpt lat="44.4462546" lon="11.4085243"><ele>94.0</ele><time>2026-05-01T07:16:19.975Z</time></trkpt><trkpt lat="44.4461523" lon="11.4084942"><ele>94.0</ele><time>2026-05-01T07:16:21.973Z</time></trkpt><trkpt lat="44.4460532" lon="11.4084455"><ele>94.0</ele><time>2026-05-01T07:16:24.029Z</time></trkpt><trkpt lat="44.4459497" lon="11.4084191"><ele>94.0</ele><time>2026-05-01T07:16:25.968Z</time></trkpt><trkpt lat="44.4458519" lon="11.4083862"><ele>94.0</ele><time>2026-05-01T07:16:27.973Z</time></trkpt><trkpt lat="44.4457522" lon="11.4083512"><ele>94.0</ele><time>2026-05-01T07:16:29.974Z</time></trkpt><trkpt lat="44.4456463" lon="11.4083067"><ele>94.0</ele><time>2026-05-01T07:16:31.96Z</time></trkpt><trkpt lat="44.4455451" lon="11.4082617"><ele>94.0</ele><time>2026-05-01T07:16:33.955Z</time></trkpt><trkpt lat="44.4454352" lon="11.4082223"><ele>94.0</ele><time>2026-05-01T07:16:35.953Z</time></trkpt><trkpt lat="44.4453259" lon="11.4081836"><ele>94.0</ele><time>2026-05-01T07:16:37.952Z</time></trkpt><trkpt lat="44.4452151" lon="11.4081544"><ele>93.80000000000001</ele><time>2026-05-01T07:16:39.962Z</time></trkpt><trkpt lat="44.4451255" lon="11.4081209"><ele>93.60000000000001</ele><time>2026-05-01T07:16:41.96Z</time></trkpt><trkpt lat="44.4450238" lon="11.4080963"><ele>93.4</ele><time>2026-05-01T07:16:43.981Z</time></trkpt><trkpt lat="44.4449196" lon="11.40806"><ele>93.2</ele><time>2026-05-01T07:16:45.96Z</time></trkpt><trkpt lat="44.444824" lon="11.4080224"><ele>93.0</ele><time>2026-05-01T07:16:47.964Z</time></trkpt><trkpt lat="44.4447249" lon="11.4079942"><ele>93.4</ele><time>2026-05-01T07:16:49.961Z</time></trkpt><trkpt lat="44.4446258" lon="11.4079547"><ele>93.80000000000001</ele><time>2026-05-01T07:16:51.957Z</time></trkpt><trkpt lat="44.4445335" lon="11.4079242"><ele>94.2</ele><time>2026-05-01T07:16:53.966Z</time></trkpt><trkpt lat="44.4444373" lon="11.4078875"><ele>94.6</ele><time>2026-05-01T07:16:55.956Z</time></trkpt><trkpt lat="44.444347" lon="11.4078542"><ele>95.0</ele><time>2026-05-01T07:16:57.967Z</time></trkpt><trkpt lat="44.4442512" lon="11.4078286"><ele>95.0</ele><time>2026-05-01T07:16:59.96Z</time></trkpt><trkpt lat="44.4441586" lon="11.4077918"><ele>95.0</ele><time>2026-05-01T07:17:01.963Z</time></trkpt><trkpt lat="44.4440583" lon="11.4077654"><ele>95.0</ele><time>2026-05-01T07:17:03.957Z</time></trkpt><trkpt lat="44.4439564" lon="11.4077164"><ele>95.0</ele><time>2026-05-01T07:17:05.954Z</time></trkpt><trkpt lat="44.4438528" lon="11.4076767"><ele>95.0</ele><time>2026-05-01T07:17:07.956Z</time></trkpt><trkpt lat="44.4437456" lon="11.4076394"><ele>94.2</ele><time>2026-05-01T07:17:09.956Z</time></trkpt><trkpt lat="44.4436405" lon="11.4076024"><ele>93.4</ele><time>2026-05-01T07:17:11.961Z</time></trkpt><trkpt lat="44.4435311" lon="11.4075618"><ele>92.6</ele><time>2026-05-01T07:17:13.964Z</time></trkpt><trkpt lat="44.4434252" lon="11.4075261"><ele>91.8</ele><time>2026-05-01T07:17:15.954Z</time></trkpt><trkpt lat="44.4433179" lon="11.407476"><ele>91.0</ele><time>2026-05-01T07:17:17.961Z</time></trkpt><trkpt lat="44.4432136" lon="11.4074346"><ele>91.0</ele><time>2026-05-01T07:17:19.971Z</time></trkpt><trkpt lat="44.4431051" lon="11.4073942"><ele>91.0</ele><time>2026-05-01T07:17:21.963Z</time></trkpt><trkpt lat="44.4429985" lon="11.4073547"><ele>91.0</ele><time>2026-05-01T07:17:23.972Z</time></trkpt><trkpt lat="44.4428905" lon="11.4073163"><ele>91.0</ele><time>2026-05-01T07:17:25.957Z</time></trkpt><trkpt lat="44.4427827" lon="11.407289"><ele>91.0</ele><time>2026-05-01T07:17:27.972Z</time></trkpt><trkpt lat="44.4426743" lon="11.4072458"><ele>90.6</ele><time>2026-05-01T07:17:29.991Z</time></trkpt><trkpt lat="44.4425749" lon="11.4072212"><ele>90.19999999999999</ele><time>2026-05-01T07:17:31.965Z</time></trkpt><trkpt lat="44.4424723" lon="11.4071741"><ele>89.80000000000001</ele><time>2026-05-01T07:17:33.957Z</time></trkpt><trkpt lat="44.442374" lon="11.4071484"><ele>89.4</ele><time>2026-05-01T07:17:35.968Z</time></trkpt><trkpt lat="44.4422761" lon="11.4071147"><ele>89.0</ele><time>2026-05-01T07:17:37.959Z</time></trkpt><trkpt lat="44.4421736" lon="11.4070821"><ele>89.2</ele><time>2026-05-01T07:17:39.966Z</time></trkpt><trkpt lat="44.4420794" lon="11.4070446"><ele>89.4</ele><time>2026-05-01T07:17:41.957Z</time></trkpt><trkpt lat="44.4419749" lon="11.407007"><ele>89.6</ele><time>2026-05-01T07:17:43.955Z</time></trkpt><trkpt lat="44.441866" lon="11.406977"><ele>89.8</ele><time>2026-05-01T07:17:45.967Z</time></trkpt><trkpt lat="44.4417684" lon="11.4069424"><ele>90.0</ele><time>2026-05-01T07:17:47.969Z</time></trkpt><trkpt lat="44.4416648" lon="11.406906"><ele>90.0</ele><time>2026-05-01T07:17:49.965Z</time></trkpt><trkpt lat="44.4415609" lon="11.4068746"><ele>90.0</ele><time>2026-05-01T07:17:51.955Z</time></trkpt><trkpt lat="44.4414539" lon="11.4068376"><ele>90.0</ele><time>2026-05-01T07:17:53.964Z</time></trkpt><trkpt lat="44.4413527" lon="11.4068011"><ele>90.0</ele><time>2026-05-01T07:17:55.962Z</time></trkpt><trkpt lat="44.4412479" lon="11.4067666"><ele>90.0</ele><time>2026-05-01T07:17:57.97Z</time></trkpt><trkpt lat="44.4411439" lon="11.4067225"><ele>89.4</ele><time>2026-05-01T07:17:59.96Z</time></trkpt><trkpt lat="44.4410399" lon="11.4067008"><ele>88.8</ele><time>2026-05-01T07:18:01.988Z</time></trkpt><trkpt lat="44.4409304" lon="11.4066699"><ele>88.19999999999999</ele><time>2026-05-01T07:18:03.959Z</time></trkpt><trkpt lat="44.4408283" lon="11.4066869"><ele>87.6</ele><time>2026-05-01T07:18:05.981Z</time></trkpt><trkpt lat="44.4407518" lon="11.4067657"><ele>87.0</ele><time>2026-05-01T07:18:07.974Z</time></trkpt><trkpt lat="44.4406816" lon="11.406889"><ele>87.0</ele><time>2026-05-01T07:18:09.957Z</time></trkpt><trkpt lat="44.4406242" lon="11.4070228"><ele>87.0</ele><time>2026-05-01T07:18:11.975Z</time></trkpt><trkpt lat="44.4405767" lon="11.4071711"><ele>87.0</ele><time>2026-05-01T07:18:13.982Z</time></trkpt><trkpt lat="44.440526" lon="11.4073227"><ele>87.0</ele><time>2026-05-01T07:18:15.966Z</time></trkpt><trkpt lat="44.4404729" lon="11.4074773"><ele>87.0</ele><time>2026-05-01T07:18:17.976Z</time></trkpt><trkpt lat="44.4404192" lon="11.4076342"><ele>87.0</ele><time>2026-05-01T07:18:19.978Z</time></trkpt><trkpt lat="44.4403937" lon="11.4077179"><ele>87.0</ele><time>2026-05-01T07:18:20.967Z</time></trkpt><trkpt lat="44.4403355" lon="11.4078689"><ele>87.0</ele><time>2026-05-01T07:18:22.965Z</time></trkpt><trkpt lat="44.4402826" lon="11.4080304"><ele>87.0</ele><time>2026-05-01T07:18:24.97Z</time></trkpt><trkpt lat="44.4402558" lon="11.4081131"><ele>87.0</ele><time>2026-05-01T07:18:25.968Z</time></trkpt><trkpt lat="44.4402306" lon="11.4081979"><ele>87.0</ele><time>2026-05-01T07:18:26.969Z</time></trkpt><trkpt lat="44.4401996" lon="11.4082849"><ele>87.0</ele><time>2026-05-01T07:18:27.965Z</time></trkpt><trkpt lat="44.4401674" lon="11.4083697"><ele>87.0</ele><time>2026-05-01T07:18:28.963Z</time></trkpt><trkpt lat="44.4401363" lon="11.4084555"><ele>87.0</ele><time>2026-05-01T07:18:29.968Z</time></trkpt><trkpt lat="44.4400931" lon="11.4085305"><ele>87.0</ele><time>2026-05-01T07:18:30.964Z</time></trkpt><trkpt lat="44.4400405" lon="11.4085861"><ele>87.0</ele><time>2026-05-01T07:18:31.963Z</time></trkpt><trkpt lat="44.439976" lon="11.4086298"><ele>87.0</ele><time>2026-05-01T07:18:32.959Z</time></trkpt><trkpt lat="44.4399099" lon="11.4086578"><ele>87.0</ele><time>2026-05-01T07:18:33.95Z</time></trkpt><trkpt lat="44.4398365" lon="11.4086626"><ele>87.0</ele><time>2026-05-01T07:18:34.96Z</time></trkpt><trkpt lat="44.4397626" lon="11.4086611"><ele>87.0</ele><time>2026-05-01T07:18:35.975Z</time></trkpt><trkpt lat="44.4396923" lon="11.4086517"><ele>87.0</ele><time>2026-05-01T07:18:36.969Z</time></trkpt><trkpt lat="44.4396185" lon="11.4086429"><ele>87.0</ele><time>2026-05-01T07:18:37.966Z</time></trkpt><trkpt lat="44.4395394" lon="11.4086331"><ele>87.0</ele><time>2026-05-01T07:18:38.959Z</time></trkpt><trkpt lat="44.4394661" lon="11.4086346"><ele>86.57142857142857</ele><time>2026-05-01T07:18:39.957Z</time></trkpt><trkpt lat="44.4393929" lon="11.40862"><ele>86.14285714285714</ele><time>2026-05-01T07:18:40.958Z</time></trkpt><trkpt lat="44.4393197" lon="11.4086072"><ele>85.71428571428572</ele><time>2026-05-01T07:18:41.965Z</time></trkpt><trkpt lat="44.4392454" lon="11.4085877"><ele>85.28571428571428</ele><time>2026-05-01T07:18:42.957Z</time></trkpt><trkpt lat="44.439171" lon="11.4085742"><ele>84.85714285714286</ele><time>2026-05-01T07:18:43.965Z</time></trkpt><trkpt lat="44.4390994" lon="11.4085608"><ele>84.42857142857143</ele><time>2026-05-01T07:18:44.983Z</time></trkpt><trkpt lat="44.4390249" lon="11.4085498"><ele>84.0</ele><time>2026-05-01T07:18:45.958Z</time></trkpt><trkpt lat="44.4389509" lon="11.408537"><ele>84.0</ele><time>2026-05-01T07:18:46.983Z</time></trkpt><trkpt lat="44.4388838" lon="11.4085181"><ele>84.0</ele><time>2026-05-01T07:18:47.964Z</time></trkpt><trkpt lat="44.4388144" lon="11.4085082"><ele>84.0</ele><time>2026-05-01T07:18:48.958Z</time></trkpt><trkpt lat="44.4387439" lon="11.4084909"><ele>84.0</ele><time>2026-05-01T07:18:49.967Z</time></trkpt><trkpt lat="44.4386784" lon="11.4084645"><ele>84.0</ele><time>2026-05-01T07:18:50.954Z</time></trkpt><trkpt lat="44.43861" lon="11.4084397"><ele>84.0</ele><time>2026-05-01T07:18:51.957Z</time></trkpt><trkpt lat="44.4385398" lon="11.4084186"><ele>84.0</ele><time>2026-05-01T07:18:52.97Z</time></trkpt><trkpt lat="44.4384725" lon="11.4084039"><ele>83.85714285714286</ele><time>2026-05-01T07:18:53.956Z</time></trkpt><trkpt lat="44.43841" lon="11.4083849"><ele>83.71428571428572</ele><time>2026-05-01T07:18:54.971Z</time></trkpt><trkpt lat="44.4383461" lon="11.4083654"><ele>83.57142857142857</ele><time>2026-05-01T07:18:55.961Z</time></trkpt><trkpt lat="44.4382772" lon="11.4083439"><ele>83.42857142857143</ele><time>2026-05-01T07:18:56.956Z</time></trkpt><trkpt lat="44.4382103" lon="11.4083323"><ele>83.28571428571429</ele><time>2026-05-01T07:18:57.966Z</time></trkpt><trkpt lat="44.4381476" lon="11.4083155"><ele>83.14285714285714</ele><time>2026-05-01T07:18:58.979Z</time></trkpt><trkpt lat="44.4380835" lon="11.4083033"><ele>83.0</ele><time>2026-05-01T07:18:59.978Z</time></trkpt><trkpt lat="44.4380204" lon="11.4082839"><ele>83.0</ele><time>2026-05-01T07:19:00.982Z</time></trkpt><trkpt lat="44.4379527" lon="11.4082623"><ele>83.0</ele><time>2026-05-01T07:19:01.971Z</time></trkpt><trkpt lat="44.4378862" lon="11.4082421"><ele>83.0</ele><time>2026-05-01T07:19:02.971Z</time></trkpt><trkpt lat="44.4378169" lon="11.408219"><ele>83.0</ele><time>2026-05-01T07:19:03.969Z</time></trkpt><trkpt lat="44.4377537" lon="11.4081958"><ele>83.0</ele><time>2026-05-01T07:19:04.972Z</time></trkpt><trkpt lat="44.4376879" lon="11.408174"><ele>83.0</ele><time>2026-05-01T07:19:05.98Z</time></trkpt><trkpt lat="44.4376261" lon="11.4081449"><ele>83.0</ele><time>2026-05-01T07:19:06.982Z</time></trkpt><trkpt lat="44.4375644" lon="11.4081125"><ele>83.0</ele><time>2026-05-01T07:19:07.972Z</time></trkpt><trkpt lat="44.4374965" lon="11.408093"><ele>83.0</ele><time>2026-05-01T07:19:08.978Z</time></trkpt><trkpt lat="44.4374327" lon="11.4080643"><ele>83.0</ele><time>2026-05-01T07:19:09.969Z</time></trkpt><trkpt lat="44.4373712" lon="11.4080326"><ele>83.0</ele><time>2026-05-01T07:19:10.985Z</time></trkpt><trkpt lat="44.4373055" lon="11.4080006"><ele>83.0</ele><time>2026-05-01T07:19:11.974Z</time></trkpt><trkpt lat="44.4372376" lon="11.4079643"><ele>83.0</ele><time>2026-05-01T07:19:12.964Z</time></trkpt><trkpt lat="44.4371757" lon="11.4079229"><ele>83.0</ele><time>2026-05-01T07:19:13.969Z</time></trkpt><trkpt lat="44.4371123" lon="11.4078891"><ele>82.57142857142857</ele><time>2026-05-01T07:19:14.982Z</time></trkpt><trkpt lat="44.437053" lon="11.4078498"><ele>82.14285714285715</ele><time>2026-05-01T07:19:15.976Z</time></trkpt><trkpt lat="44.4369917" lon="11.4078063"><ele>81.71428571428572</ele><time>2026-05-01T07:19:16.97Z</time></trkpt><trkpt lat="44.436928" lon="11.4077634"><ele>81.28571428571428</ele><time>2026-05-01T07:19:17.976Z</time></trkpt><trkpt lat="44.4368628" lon="11.4077181"><ele>80.85714285714286</ele><time>2026-05-01T07:19:18.975Z</time></trkpt><trkpt lat="44.4368005" lon="11.4076775"><ele>80.42857142857143</ele><time>2026-05-01T07:19:19.956Z</time></trkpt><trkpt lat="44.4367398" lon="11.4076286"><ele>80.0</ele><time>2026-05-01T07:19:20.971Z</time></trkpt><trkpt lat="44.4366836" lon="11.4075741"><ele>80.0</ele><time>2026-05-01T07:19:21.972Z</time></trkpt><trkpt lat="44.4366306" lon="11.4075164"><ele>80.0</ele><time>2026-05-01T07:19:22.977Z</time></trkpt><trkpt lat="44.4365789" lon="11.4074634"><ele>80.0</ele><time>2026-05-01T07:19:23.98Z</time></trkpt><trkpt lat="44.4364846" lon="11.4073603"><ele>80.0</ele><time>2026-05-01T07:19:25.972Z</time></trkpt><trkpt lat="44.4363964" lon="11.4072441"><ele>80.0</ele><time>2026-05-01T07:19:27.982Z</time></trkpt><trkpt lat="44.4363156" lon="11.4071298"><ele>80.6</ele><time>2026-05-01T07:19:29.977Z</time></trkpt><trkpt lat="44.4362344" lon="11.4070202"><ele>81.2</ele><time>2026-05-01T07:19:31.98Z</time></trkpt><trkpt lat="44.436165" lon="11.4069011"><ele>81.80000000000001</ele><time>2026-05-01T07:19:33.967Z</time></trkpt><trkpt lat="44.4360976" lon="11.4067898"><ele>82.4</ele><time>2026-05-01T07:19:35.963Z</time></trkpt><trkpt lat="44.4360262" lon="11.4066734"><ele>83.0</ele><time>2026-05-01T07:19:37.976Z</time></trkpt><trkpt lat="44.43595" lon="11.4065486"><ele>83.0</ele><time>2026-05-01T07:19:39.969Z</time></trkpt><trkpt lat="44.435876" lon="11.4064322"><ele>83.0</ele><time>2026-05-01T07:19:41.972Z</time></trkpt><trkpt lat="44.4358046" lon="11.4063062"><ele>83.0</ele><time>2026-05-01T07:19:43.968Z</time></trkpt><trkpt lat="44.4357316" lon="11.4061784"><ele>83.0</ele><time>2026-05-01T07:19:45.963Z</time></trkpt><trkpt lat="44.4356568" lon="11.4060606"><ele>83.4</ele><time>2026-05-01T07:19:47.973Z</time></trkpt><trkpt lat="44.4355958" lon="11.4059445"><ele>83.80000000000001</ele><time>2026-05-01T07:19:49.967Z</time></trkpt><trkpt lat="44.4355271" lon="11.4058487"><ele>84.2</ele><time>2026-05-01T07:19:51.966Z</time></trkpt><trkpt lat="44.4354511" lon="11.4057464"><ele>84.6</ele><time>2026-05-01T07:19:53.97Z</time></trkpt><trkpt lat="44.4353604" lon="11.4056679"><ele>85.0</ele><time>2026-05-01T07:19:55.968Z</time></trkpt><trkpt lat="44.4352759" lon="11.4055869"><ele>85.8</ele><time>2026-05-01T07:19:57.966Z</time></trkpt><trkpt lat="44.4351893" lon="11.4055198"><ele>86.6</ele><time>2026-05-01T07:19:59.966Z</time></trkpt><trkpt lat="44.4350969" lon="11.4054677"><ele>87.4</ele><time>2026-05-01T07:20:01.978Z</time></trkpt><trkpt lat="44.4350063" lon="11.4054178"><ele>88.2</ele><time>2026-05-01T07:20:03.962Z</time></trkpt><trkpt lat="44.4349144" lon="11.4053736"><ele>89.0</ele><time>2026-05-01T07:20:05.96Z</time></trkpt><trkpt lat="44.4348165" lon="11.4053333"><ele>89.0</ele><time>2026-05-01T07:20:08.039Z</time></trkpt><trkpt lat="44.4347129" lon="11.4052819"><ele>89.0</ele><time>2026-05-01T07:20:09.957Z</time></trkpt><trkpt lat="44.4346172" lon="11.4052396"><ele>89.0</ele><time>2026-05-01T07:20:11.963Z</time></trkpt><trkpt lat="44.4345222" lon="11.4051976"><ele>89.0</ele><time>2026-05-01T07:20:13.963Z</time></trkpt><trkpt lat="44.4344309" lon="11.4051453"><ele>89.0</ele><time>2026-05-01T07:20:15.966Z</time></trkpt><trkpt lat="44.4343338" lon="11.4050816"><ele>90.2</ele><time>2026-05-01T07:20:17.969Z</time></trkpt><trkpt lat="44.4342344" lon="11.4050111"><ele>91.4</ele><time>2026-05-01T07:20:19.975Z</time></trkpt><trkpt lat="44.434146" lon="11.404939"><ele>92.6</ele><time>2026-05-01T07:20:22.038Z</time></trkpt><trkpt lat="44.4340544" lon="11.4048627"><ele>93.8</ele><time>2026-05-01T07:20:23.963Z</time></trkpt><trkpt lat="44.4339665" lon="11.4047756"><ele>95.0</ele><time>2026-05-01T07:20:25.97Z</time></trkpt><trkpt lat="44.4338866" lon="11.4046845"><ele>95.6</ele><time>2026-05-01T07:20:28.031Z</time></trkpt><trkpt lat="44.4337972" lon="11.4046014"><ele>96.2</ele><time>2026-05-01T07:20:29.961Z</time></trkpt><trkpt lat="44.4336981" lon="11.4045251"><ele>96.80000000000001</ele><time>2026-05-01T07:20:31.958Z</time></trkpt><trkpt lat="44.4336039" lon="11.4044307"><ele>97.4</ele><time>2026-05-01T07:20:33.973Z</time></trkpt><trkpt lat="44.4335135" lon="11.4043373"><ele>98.0</ele><time>2026-05-01T07:20:35.967Z</time></trkpt><trkpt lat="44.4334166" lon="11.4042559"><ele>98.0</ele><time>2026-05-01T07:20:37.971Z</time></trkpt><trkpt lat="44.4333046" lon="11.4041746"><ele>98.0</ele><time>2026-05-01T07:20:39.976Z</time></trkpt><trkpt lat="44.4332499" lon="11.4041239"><ele>98.0</ele><time>2026-05-01T07:20:40.97Z</time></trkpt><trkpt lat="44.4331972" lon="11.4040721"><ele>98.0</ele><time>2026-05-01T07:20:41.968Z</time></trkpt><trkpt lat="44.4330999" lon="11.4039774"><ele>98.0</ele><time>2026-05-01T07:20:43.968Z</time></trkpt><trkpt lat="44.4330044" lon="11.4038808"><ele>96.25</ele><time>2026-05-01T07:20:45.966Z</time></trkpt><trkpt lat="44.4329105" lon="11.4037965"><ele>94.5</ele><time>2026-05-01T07:20:48.03Z</time></trkpt><trkpt lat="44.4328194" lon="11.4037077"><ele>92.75</ele><time>2026-05-01T07:20:49.955Z</time></trkpt><trkpt lat="44.4327197" lon="11.4036245"><ele>91.0</ele><time>2026-05-01T07:20:51.963Z</time></trkpt><trkpt lat="44.4326133" lon="11.4035516"><ele>91.0</ele><time>2026-05-01T07:20:54.027Z</time></trkpt><trkpt lat="44.4325104" lon="11.403468"><ele>91.0</ele><time>2026-05-01T07:20:55.956Z</time></trkpt><trkpt lat="44.4324176" lon="11.4033851"><ele>91.0</ele><time>2026-05-01T07:20:57.954Z</time></trkpt><trkpt lat="44.4323244" lon="11.4032781"><ele>91.0</ele><time>2026-05-01T07:20:59.956Z</time></trkpt><trkpt lat="44.4322405" lon="11.4031589"><ele>91.0</ele><time>2026-05-01T07:21:02.03Z</time></trkpt><trkpt lat="44.4321545" lon="11.4030328"><ele>91.0</ele><time>2026-05-01T07:21:03.967Z</time></trkpt><trkpt lat="44.4321143" lon="11.4029645"><ele>91.0</ele><time>2026-05-01T07:21:04.973Z</time></trkpt><trkpt lat="44.4320273" lon="11.4028466"><ele>91.0</ele><time>2026-05-01T07:21:07.033Z</time></trkpt><trkpt lat="44.4319349" lon="11.402735"><ele>91.0</ele><time>2026-05-01T07:21:08.965Z</time></trkpt><trkpt lat="44.4318368" lon="11.4026293"><ele>91.25</ele><time>2026-05-01T07:21:10.962Z</time></trkpt><trkpt lat="44.4317418" lon="11.4025305"><ele>91.5</ele><time>2026-05-01T07:21:12.954Z</time></trkpt><trkpt lat="44.4316421" lon="11.4024464"><ele>91.75</ele><time>2026-05-01T07:21:14.985Z</time></trkpt><trkpt lat="44.4315428" lon="11.4023593"><ele>92.0</ele><time>2026-05-01T07:21:16.968Z</time></trkpt><trkpt lat="44.4314379" lon="11.4022804"><ele>92.0</ele><time>2026-05-01T07:21:18.964Z</time></trkpt><trkpt lat="44.4313287" lon="11.4022014"><ele>92.0</ele><time>2026-05-01T07:21:20.962Z</time></trkpt><trkpt lat="44.431222" lon="11.4021259"><ele>92.0</ele><time>2026-05-01T07:21:23.034Z</time></trkpt><trkpt lat="44.4311119" lon="11.4020479"><ele>92.0</ele><time>2026-05-01T07:21:24.965Z</time></trkpt><trkpt lat="44.430998" lon="11.4019743"><ele>91.85714285714286</ele><time>2026-05-01T07:21:26.966Z</time></trkpt><trkpt lat="44.4309404" lon="11.4019341"><ele>91.71428571428571</ele><time>2026-05-01T07:21:27.965Z</time></trkpt><trkpt lat="44.4308818" lon="11.4018944"><ele>91.57142857142857</ele><time>2026-05-01T07:21:29.033Z</time></trkpt><trkpt lat="44.4308225" lon="11.4018589"><ele>91.42857142857143</ele><time>2026-05-01T07:21:29.954Z</time></trkpt><trkpt lat="44.4307632" lon="11.4018161"><ele>91.28571428571428</ele><time>2026-05-01T07:21:30.958Z</time></trkpt><trkpt lat="44.4307047" lon="11.4017732"><ele>91.14285714285714</ele><time>2026-05-01T07:21:31.999Z</time></trkpt><trkpt lat="44.430649" lon="11.4017293"><ele>91.0</ele><time>2026-05-01T07:21:33.035Z</time></trkpt><trkpt lat="44.4305919" lon="11.401682"><ele>91.0</ele><time>2026-05-01T07:21:34.032Z</time></trkpt><trkpt lat="44.4305379" lon="11.4016329"><ele>91.0</ele><time>2026-05-01T07:21:34.962Z</time></trkpt><trkpt lat="44.4304795" lon="11.4015862"><ele>91.0</ele><time>2026-05-01T07:21:36.028Z</time></trkpt><trkpt lat="44.4304255" lon="11.4015394"><ele>91.0</ele><time>2026-05-01T07:21:37.028Z</time></trkpt><trkpt lat="44.4303707" lon="11.4014905"><ele>91.0</ele><time>2026-05-01T07:21:38.033Z</time></trkpt><trkpt lat="44.430317" lon="11.4014416"><ele>91.0</ele><time>2026-05-01T07:21:39.03Z</time></trkpt><trkpt lat="44.430211" lon="11.4013491"><ele>91.0</ele><time>2026-05-01T07:21:40.96Z</time></trkpt><trkpt lat="44.4301564" lon="11.4013012"><ele>90.8</ele><time>2026-05-01T07:21:41.958Z</time></trkpt><trkpt lat="44.4300538" lon="11.4011996"><ele>90.6</ele><time>2026-05-01T07:21:43.955Z</time></trkpt><trkpt lat="44.4299472" lon="11.4011048"><ele>90.4</ele><time>2026-05-01T07:21:45.975Z</time></trkpt><trkpt lat="44.4298454" lon="11.4010078"><ele>90.2</ele><time>2026-05-01T07:21:47.962Z</time></trkpt><trkpt lat="44.4297899" lon="11.4009629"><ele>90.0</ele><time>2026-05-01T07:21:49.039Z</time></trkpt><trkpt lat="44.4296833" lon="11.4008574"><ele>90.16666666666667</ele><time>2026-05-01T07:21:50.959Z</time></trkpt><trkpt lat="44.429578" lon="11.4007528"><ele>90.33333333333333</ele><time>2026-05-01T07:21:53.034Z</time></trkpt><trkpt lat="44.4295246" lon="11.4007024"><ele>90.5</ele><time>2026-05-01T07:21:53.965Z</time></trkpt><trkpt lat="44.4294696" lon="11.4006533"><ele>90.66666666666666</ele><time>2026-05-01T07:21:54.961Z</time></trkpt><trkpt lat="44.4293655" lon="11.4005569"><ele>90.83333333333333</ele><time>2026-05-01T07:21:56.962Z</time></trkpt><trkpt lat="44.4293102" lon="11.4005133"><ele>91.0</ele><time>2026-05-01T07:21:57.965Z</time></trkpt><trkpt lat="44.4292089" lon="11.4004148"><ele>91.0</ele><time>2026-05-01T07:21:59.973Z</time></trkpt><trkpt lat="44.4291004" lon="11.4003279"><ele>91.0</ele><time>2026-05-01T07:22:01.975Z</time></trkpt><trkpt lat="44.4290467" lon="11.400279"><ele>91.0</ele><time>2026-05-01T07:22:02.994Z</time></trkpt><trkpt lat="44.4289383" lon="11.4001951"><ele>91.0</ele><time>2026-05-01T07:22:04.969Z</time></trkpt><trkpt lat="44.4288811" lon="11.4001555"><ele>91.0</ele><time>2026-05-01T07:22:05.975Z</time></trkpt><trkpt lat="44.4287759" lon="11.4000689"><ele>91.25</ele><time>2026-05-01T07:22:07.971Z</time></trkpt><trkpt lat="44.4286673" lon="11.399989"><ele>91.5</ele><time>2026-05-01T07:22:09.973Z</time></trkpt><trkpt lat="44.4285603" lon="11.3999274"><ele>91.75</ele><time>2026-05-01T07:22:11.967Z</time></trkpt><trkpt lat="44.4284545" lon="11.3998743"><ele>92.0</ele><time>2026-05-01T07:22:13.963Z</time></trkpt><trkpt lat="44.4283411" lon="11.3998281"><ele>92.0</ele><time>2026-05-01T07:22:15.965Z</time></trkpt><trkpt lat="44.4282379" lon="11.3997879"><ele>92.0</ele><time>2026-05-01T07:22:17.973Z</time></trkpt><trkpt lat="44.4281399" lon="11.3997454"><ele>92.0</ele><time>2026-05-01T07:22:19.966Z</time></trkpt><trkpt lat="44.4280351" lon="11.3996994"><ele>92.0</ele><time>2026-05-01T07:22:21.969Z</time></trkpt><trkpt lat="44.4279358" lon="11.3996577"><ele>92.0</ele><time>2026-05-01T07:22:23.958Z</time></trkpt><trkpt lat="44.4278425" lon="11.3996155"><ele>91.8</ele><time>2026-05-01T07:22:25.967Z</time></trkpt><trkpt lat="44.4277548" lon="11.3995713"><ele>91.6</ele><time>2026-05-01T07:22:27.964Z</time></trkpt><trkpt lat="44.4276763" lon="11.3995233"><ele>91.39999999999999</ele><time>2026-05-01T07:22:29.961Z</time></trkpt><trkpt lat="44.4275905" lon="11.3994695"><ele>91.19999999999999</ele><time>2026-05-01T07:22:31.971Z</time></trkpt><trkpt lat="44.4275016" lon="11.3994168"><ele>91.0</ele><time>2026-05-01T07:22:33.969Z</time></trkpt><trkpt lat="44.4274103" lon="11.3993573"><ele>91.0</ele><time>2026-05-01T07:22:35.965Z</time></trkpt><trkpt lat="44.4273178" lon="11.3993177"><ele>91.0</ele><time>2026-05-01T07:22:37.966Z</time></trkpt><trkpt lat="44.4272176" lon="11.3993508"><ele>91.0</ele><time>2026-05-01T07:22:39.965Z</time></trkpt><trkpt lat="44.4271478" lon="11.3994544"><ele>91.0</ele><time>2026-05-01T07:22:41.964Z</time></trkpt><trkpt lat="44.427092" lon="11.3995934"><ele>91.0</ele><time>2026-05-01T07:22:43.97Z</time></trkpt><trkpt lat="44.4270345" lon="11.3997396"><ele>91.19999999999999</ele><time>2026-05-01T07:22:45.967Z</time></trkpt><trkpt lat="44.4269761" lon="11.39989"><ele>91.39999999999999</ele><time>2026-05-01T07:22:47.962Z</time></trkpt><trkpt lat="44.4269045" lon="11.4000341"><ele>91.6</ele><time>2026-05-01T07:22:49.967Z</time></trkpt><trkpt lat="44.4268204" lon="11.4001613"><ele>91.8</ele><time>2026-05-01T07:22:51.968Z</time></trkpt><trkpt lat="44.4267765" lon="11.4002263"><ele>92.0</ele><time>2026-05-01T07:22:52.976Z</time></trkpt><trkpt lat="44.4267267" lon="11.4002904"><ele>92.0</ele><time>2026-05-01T07:22:53.975Z</time></trkpt><trkpt lat="44.4266738" lon="11.4003479"><ele>92.0</ele><time>2026-05-01T07:22:54.969Z</time></trkpt><trkpt lat="44.4266199" lon="11.4004034"><ele>92.0</ele><time>2026-05-01T07:22:55.972Z</time></trkpt><trkpt lat="44.4265667" lon="11.4004509"><ele>92.0</ele><time>2026-05-01T07:22:56.969Z</time></trkpt><trkpt lat="44.4265112" lon="11.4004976"><ele>92.0</ele><time>2026-05-01T07:22:57.97Z</time></trkpt><trkpt lat="44.426409" lon="11.4005745"><ele>92.0</ele><time>2026-05-01T07:22:59.971Z</time></trkpt><trkpt lat="44.4262993" lon="11.4006585"><ele>91.75</ele><time>2026-05-01T07:23:01.969Z</time></trkpt><trkpt lat="44.4261895" lon="11.4007231"><ele>91.5</ele><time>2026-05-01T07:23:03.988Z</time></trkpt><trkpt lat="44.4260821" lon="11.4007689"><ele>91.25</ele><time>2026-05-01T07:23:05.964Z</time></trkpt><trkpt lat="44.425967" lon="11.4008094"><ele>91.0</ele><time>2026-05-01T07:23:08.032Z</time></trkpt><trkpt lat="44.4258535" lon="11.4008385"><ele>91.0</ele><time>2026-05-01T07:23:09.965Z</time></trkpt><trkpt lat="44.4257349" lon="11.4008385"><ele>91.0</ele><time>2026-05-01T07:23:11.973Z</time></trkpt><trkpt lat="44.4256234" lon="11.4008272"><ele>91.0</ele><time>2026-05-01T07:23:13.966Z</time></trkpt><trkpt lat="44.4255108" lon="11.4008097"><ele>91.0</ele><time>2026-05-01T07:23:15.967Z</time></trkpt><trkpt lat="44.4253944" lon="11.4007826"><ele>91.25</ele><time>2026-05-01T07:23:17.96Z</time></trkpt><trkpt lat="44.4252827" lon="11.4007382"><ele>91.5</ele><time>2026-05-01T07:23:19.958Z</time></trkpt><trkpt lat="44.4251665" lon="11.4007065"><ele>91.75</ele><time>2026-05-01T07:23:21.953Z</time></trkpt><trkpt lat="44.425058" lon="11.4006687"><ele>92.0</ele><time>2026-05-01T07:23:24.031Z</time></trkpt><trkpt lat="44.4249439" lon="11.4006284"><ele>92.0</ele><time>2026-05-01T07:23:26.024Z</time></trkpt><trkpt lat="44.4248379" lon="11.4005876"><ele>92.0</ele><time>2026-05-01T07:23:28.025Z</time></trkpt><trkpt lat="44.4247328" lon="11.4005552"><ele>92.0</ele><time>2026-05-01T07:23:30.022Z</time></trkpt><trkpt lat="44.4246206" lon="11.4005219"><ele>92.0</ele><time>2026-05-01T07:23:32.033Z</time></trkpt><trkpt lat="44.4245123" lon="11.4004816"><ele>92.0</ele><time>2026-05-01T07:23:34.028Z</time></trkpt><trkpt lat="44.4244116" lon="11.4004452"><ele>92.0</ele><time>2026-05-01T07:23:35.965Z</time></trkpt><trkpt lat="44.4243045" lon="11.4004045"><ele>92.0</ele><time>2026-05-01T07:23:37.967Z</time></trkpt><trkpt lat="44.424204" lon="11.4003439"><ele>92.0</ele><time>2026-05-01T07:23:39.969Z</time></trkpt><trkpt lat="44.4241031" lon="11.4002858"><ele>92.0</ele><time>2026-05-01T07:23:41.959Z</time></trkpt><trkpt lat="44.4240073" lon="11.4002242"><ele>92.0</ele><time>2026-05-01T07:23:44.04Z</time></trkpt><trkpt lat="44.4239139" lon="11.4001553"><ele>92.0</ele><time>2026-05-01T07:23:45.953Z</time></trkpt><trkpt lat="44.4238157" lon="11.4000845"><ele>92.0</ele><time>2026-05-01T07:23:47.955Z</time></trkpt><trkpt lat="44.4237276" lon="11.4000121"><ele>92.0</ele><time>2026-05-01T07:23:49.954Z</time></trkpt><trkpt lat="44.4236413" lon="11.3999325"><ele>92.0</ele><time>2026-05-01T07:23:51.958Z</time></trkpt><trkpt lat="44.4235553" lon="11.3998542"><ele>92.0</ele><time>2026-05-01T07:23:53.96Z</time></trkpt><trkpt lat="44.4234598" lon="11.3997595"><ele>92.6</ele><time>2026-05-01T07:23:55.977Z</time></trkpt><trkpt lat="44.423369" lon="11.3996715"><ele>93.19999999999999</ele><time>2026-05-01T07:23:58.034Z</time></trkpt><trkpt lat="44.4232808" lon="11.3995917"><ele>93.8</ele><time>2026-05-01T07:23:59.967Z</time></trkpt><trkpt lat="44.4231942" lon="11.3995046"><ele>94.4</ele><time>2026-05-01T07:24:01.966Z</time></trkpt><trkpt lat="44.4231054" lon="11.3994129"><ele>95.0</ele><time>2026-05-01T07:24:03.971Z</time></trkpt><trkpt lat="44.423024" lon="11.399306"><ele>95.4</ele><time>2026-05-01T07:24:05.989Z</time></trkpt><trkpt lat="44.4229566" lon="11.3991883"><ele>95.8</ele><time>2026-05-01T07:24:07.965Z</time></trkpt><trkpt lat="44.422904" lon="11.3990545"><ele>96.19999999999999</ele><time>2026-05-01T07:24:09.966Z</time></trkpt><trkpt lat="44.4228535" lon="11.3989196"><ele>96.6</ele><time>2026-05-01T07:24:11.961Z</time></trkpt><trkpt lat="44.4228061" lon="11.3987896"><ele>97.0</ele><time>2026-05-01T07:24:14.056Z</time></trkpt><trkpt lat="44.4227721" lon="11.3986448"><ele>97.6</ele><time>2026-05-01T07:24:15.972Z</time></trkpt><trkpt lat="44.4227459" lon="11.3985056"><ele>98.19999999999999</ele><time>2026-05-01T07:24:18.029Z</time></trkpt><trkpt lat="44.4227208" lon="11.3983581"><ele>98.8</ele><time>2026-05-01T07:24:19.962Z</time></trkpt><trkpt lat="44.4226933" lon="11.3982122"><ele>99.4</ele><time>2026-05-01T07:24:21.967Z</time></trkpt><trkpt lat="44.4226779" lon="11.3980733"><ele>100.0</ele><time>2026-05-01T07:24:23.948Z</time></trkpt><trkpt lat="44.422659" lon="11.3979404"><ele>100.2</ele><time>2026-05-01T07:24:25.972Z</time></trkpt><trkpt lat="44.4226361" lon="11.3978027"><ele>100.4</ele><time>2026-05-01T07:24:28.039Z</time></trkpt><trkpt lat="44.4226066" lon="11.3976734"><ele>100.6</ele><time>2026-05-01T07:24:29.963Z</time></trkpt><trkpt lat="44.4225886" lon="11.3975445"><ele>100.8</ele><time>2026-05-01T07:24:31.983Z</time></trkpt><trkpt lat="44.4225667" lon="11.3974183"><ele>101.0</ele><time>2026-05-01T07:24:33.965Z</time></trkpt><trkpt lat="44.4225399" lon="11.3973228"><ele>100.99999999999999</ele><time>2026-05-01T07:24:35.974Z</time></trkpt><trkpt lat="44.4225108" lon="11.3972291"><ele>101.0</ele><time>2026-05-01T07:24:37.978Z</time></trkpt><trkpt lat="44.4224797" lon="11.3971283"><ele>101.0</ele><time>2026-05-01T07:24:39.961Z</time></trkpt><trkpt lat="44.422443" lon="11.3970262"><ele>101.0</ele><time>2026-05-01T07:24:41.967Z</time></trkpt><trkpt lat="44.4224093" lon="11.3969302"><ele>100.99999999999999</ele><time>2026-05-01T07:24:43.971Z</time></trkpt><trkpt lat="44.4223581" lon="11.3968384"><ele>101.0</ele><time>2026-05-01T07:24:45.969Z</time></trkpt><trkpt lat="44.4223028" lon="11.396754"><ele>101.0</ele><time>2026-05-01T07:24:47.961Z</time></trkpt><trkpt lat="44.4222379" lon="11.3966627"><ele>101.0</ele><time>2026-05-01T07:24:49.973Z</time></trkpt><trkpt lat="44.4221728" lon="11.3965658"><ele>101.0</ele><time>2026-05-01T07:24:51.975Z</time></trkpt><trkpt lat="44.4221069" lon="11.3964793"><ele>101.0</ele><time>2026-05-01T07:24:53.968Z</time></trkpt><trkpt lat="44.4220321" lon="11.3963945"><ele>101.0</ele><time>2026-05-01T07:24:55.959Z</time></trkpt><trkpt lat="44.4219619" lon="11.3963004"><ele>102.4</ele><time>2026-05-01T07:24:57.955Z</time></trkpt><trkpt lat="44.421881" lon="11.3962189"><ele>103.8</ele><time>2026-05-01T07:24:59.965Z</time></trkpt><trkpt lat="44.4217986" lon="11.396137"><ele>105.20000000000002</ele><time>2026-05-01T07:25:01.97Z</time></trkpt><trkpt lat="44.4217089" lon="11.3960507"><ele>106.60000000000001</ele><time>2026-05-01T07:25:03.968Z</time></trkpt><trkpt lat="44.4216163" lon="11.3959806"><ele>108.0</ele><time>2026-05-01T07:25:05.977Z</time></trkpt><trkpt lat="44.421516" lon="11.3959087"><ele>108.0</ele><time>2026-05-01T07:25:07.971Z</time></trkpt><trkpt lat="44.4214207" lon="11.395828"><ele>108.00000000000001</ele><time>2026-05-01T07:25:09.966Z</time></trkpt><trkpt lat="44.42133" lon="11.395751"><ele>108.00000000000001</ele><time>2026-05-01T07:25:11.971Z</time></trkpt><trkpt lat="44.4212398" lon="11.3956738"><ele>108.0</ele><time>2026-05-01T07:25:13.975Z</time></trkpt><trkpt lat="44.4211481" lon="11.3955968"><ele>108.0</ele><time>2026-05-01T07:25:15.967Z</time></trkpt><trkpt lat="44.4210564" lon="11.3955282"><ele>107.60000000000001</ele><time>2026-05-01T07:25:17.962Z</time></trkpt><trkpt lat="44.4209662" lon="11.3954551"><ele>107.20000000000002</ele><time>2026-05-01T07:25:19.979Z</time></trkpt><trkpt lat="44.4208811" lon="11.3953821"><ele>106.8</ele><time>2026-05-01T07:25:21.965Z</time></trkpt><trkpt lat="44.420803" lon="11.3952973"><ele>106.4</ele><time>2026-05-01T07:25:23.971Z</time></trkpt><trkpt lat="44.4207189" lon="11.3952093"><ele>106.0</ele><time>2026-05-01T07:25:25.976Z</time></trkpt><trkpt lat="44.4206354" lon="11.3951037"><ele>106.0</ele><time>2026-05-01T07:25:28.02Z</time></trkpt><trkpt lat="44.4205588" lon="11.3950061"><ele>106.0</ele><time>2026-05-01T07:25:29.963Z</time></trkpt><trkpt lat="44.4204728" lon="11.3949042"><ele>106.0</ele><time>2026-05-01T07:25:31.968Z</time></trkpt><trkpt lat="44.4203696" lon="11.3948303"><ele>106.0</ele><time>2026-05-01T07:25:33.968Z</time></trkpt><trkpt lat="44.420263" lon="11.3947675"><ele>106.0</ele><time>2026-05-01T07:25:35.966Z</time></trkpt><trkpt lat="44.4202021" lon="11.3947442"><ele>105.4</ele><time>2026-05-01T07:25:37.027Z</time></trkpt><trkpt lat="44.420143" lon="11.3947135"><ele>104.8</ele><time>2026-05-01T07:25:37.969Z</time></trkpt><trkpt lat="44.4200282" lon="11.3946701"><ele>104.2</ele><time>2026-05-01T07:25:39.965Z</time></trkpt><trkpt lat="44.4199055" lon="11.394651"><ele>103.60000000000001</ele><time>2026-05-01T07:25:41.974Z</time></trkpt><trkpt lat="44.4197794" lon="11.3946315"><ele>103.0</ele><time>2026-05-01T07:25:43.979Z</time></trkpt><trkpt lat="44.4197134" lon="11.3946328"><ele>103.71428571428571</ele><time>2026-05-01T07:25:44.971Z</time></trkpt><trkpt lat="44.4196441" lon="11.3946323"><ele>104.42857142857143</ele><time>2026-05-01T07:25:45.966Z</time></trkpt><trkpt lat="44.4195782" lon="11.3946306"><ele>105.14285714285714</ele><time>2026-05-01T07:25:46.988Z</time></trkpt><trkpt lat="44.4195085" lon="11.3946341"><ele>105.85714285714286</ele><time>2026-05-01T07:25:47.966Z</time></trkpt><trkpt lat="44.4194369" lon="11.3946282"><ele>106.57142857142857</ele><time>2026-05-01T07:25:48.963Z</time></trkpt><trkpt lat="44.4193713" lon="11.3946141"><ele>107.28571428571428</ele><time>2026-05-01T07:25:49.971Z</time></trkpt><trkpt lat="44.4193058" lon="11.3945934"><ele>108.0</ele><time>2026-05-01T07:25:50.968Z</time></trkpt><trkpt lat="44.4192427" lon="11.3945702"><ele>108.0</ele><time>2026-05-01T07:25:51.965Z</time></trkpt><trkpt lat="44.4191803" lon="11.3945444"><ele>108.00000000000001</ele><time>2026-05-01T07:25:52.967Z</time></trkpt><trkpt lat="44.4190616" lon="11.394482"><ele>108.00000000000001</ele><time>2026-05-01T07:25:54.974Z</time></trkpt><trkpt lat="44.4189482" lon="11.3944129"><ele>108.0</ele><time>2026-05-01T07:25:56.975Z</time></trkpt><trkpt lat="44.4188389" lon="11.3943329"><ele>108.0</ele><time>2026-05-01T07:25:59.054Z</time></trkpt><trkpt lat="44.4187833" lon="11.3942906"><ele>107.25</ele><time>2026-05-01T07:25:59.969Z</time></trkpt><trkpt lat="44.4186802" lon="11.3941992"><ele>106.5</ele><time>2026-05-01T07:26:01.973Z</time></trkpt><trkpt lat="44.4185802" lon="11.3941049"><ele>105.75</ele><time>2026-05-01T07:26:04.03Z</time></trkpt><trkpt lat="44.4184889" lon="11.3940019"><ele>105.0</ele><time>2026-05-01T07:26:05.97Z</time></trkpt><trkpt lat="44.4184034" lon="11.3939055"><ele>106.4</ele><time>2026-05-01T07:26:07.964Z</time></trkpt><trkpt lat="44.4183205" lon="11.3937919"><ele>107.8</ele><time>2026-05-01T07:26:09.968Z</time></trkpt><trkpt lat="44.4182451" lon="11.3936824"><ele>109.19999999999999</ele><time>2026-05-01T07:26:11.968Z</time></trkpt><trkpt lat="44.4181633" lon="11.3935795"><ele>110.6</ele><time>2026-05-01T07:26:13.963Z</time></trkpt><trkpt lat="44.4180785" lon="11.3934802"><ele>112.0</ele><time>2026-05-01T07:26:15.955Z</time></trkpt><trkpt lat="44.4180008" lon="11.3933799"><ele>111.00000000000001</ele><time>2026-05-01T07:26:17.96Z</time></trkpt><trkpt lat="44.4179212" lon="11.3932987"><ele>110.0</ele><time>2026-05-01T07:26:19.971Z</time></trkpt><trkpt lat="44.4178446" lon="11.3932229"><ele>109.0</ele><time>2026-05-01T07:26:21.961Z</time></trkpt><trkpt lat="44.4177721" lon="11.393157"><ele>108.0</ele><time>2026-05-01T07:26:23.96Z</time></trkpt><trkpt lat="44.417706" lon="11.3930922"><ele>107.00000000000001</ele><time>2026-05-01T07:26:25.965Z</time></trkpt><trkpt lat="44.4176377" lon="11.3930455"><ele>106.0</ele><time>2026-05-01T07:26:27.949Z</time></trkpt><trkpt lat="44.4175619" lon="11.3930428"><ele>106.0</ele><time>2026-05-01T07:26:29.956Z</time></trkpt><trkpt lat="44.417498" lon="11.3930842"><ele>106.0</ele><time>2026-05-01T07:26:31.967Z</time></trkpt><trkpt lat="44.4174568" lon="11.3931573"><ele>106.0</ele><time>2026-05-01T07:26:37.97Z</time></trkpt><trkpt lat="44.4174111" lon="11.3932433"><ele>106.0</ele><time>2026-05-01T07:42:55.962Z</time></trkpt><trkpt lat="44.4173762" lon="11.3933495"><ele>106.0</ele><time>2026-05-01T07:42:59.978Z</time></trkpt><trkpt lat="44.4173711" lon="11.3934458"><ele>106.0</ele><time>2026-05-01T07:43:02.957Z</time></trkpt><trkpt lat="44.4174063" lon="11.3935224"><ele>106.0</ele><time>2026-05-01T07:43:05.981Z</time></trkpt><trkpt lat="44.4174493" lon="11.3935988"><ele>106.00000000000001</ele><time>2026-05-01T07:43:08.97Z</time></trkpt><trkpt lat="44.4174956" lon="11.3936782"><ele>106.0</ele><time>2026-05-01T07:43:11.972Z</time></trkpt><trkpt lat="44.4175573" lon="11.393762"><ele>106.0</ele><time>2026-05-01T07:43:14.978Z</time></trkpt><trkpt lat="44.4176234" lon="11.3938401"><ele>106.0</ele><time>2026-05-01T07:43:17.98Z</time></trkpt><trkpt lat="44.4176889" lon="11.3939164"><ele>106.00000000000001</ele><time>2026-05-01T07:43:20.971Z</time></trkpt><trkpt lat="44.4177516" lon="11.3939938"><ele>106.0</ele><time>2026-05-01T07:43:23.986Z</time></trkpt><trkpt lat="44.4177983" lon="11.3940784"><ele>107.14285714285714</ele><time>2026-05-01T07:43:26.986Z</time></trkpt><trkpt lat="44.4178117" lon="11.3941658"><ele>108.28571428571428</ele><time>2026-05-01T07:43:29.954Z</time></trkpt><trkpt lat="44.4177711" lon="11.3942394"><ele>109.42857142857142</ele><time>2026-05-01T07:43:32.953Z</time></trkpt><trkpt lat="44.4177093" lon="11.3942132"><ele>110.57142857142857</ele><time>2026-05-01T07:43:36.962Z</time></trkpt><trkpt lat="44.4176578" lon="11.3941563"><ele>111.7142857142857</ele><time>2026-05-01T07:43:42.97Z</time></trkpt><trkpt lat="44.4176005" lon="11.3940979"><ele>112.85714285714285</ele><time>2026-05-01T07:43:50.962Z</time></trkpt><trkpt lat="44.4175378" lon="11.3940741"><ele>114.0</ele><time>2026-05-01T07:43:58.977Z</time></trkpt><trkpt lat="44.417476" lon="11.3940491"><ele>114.0</ele><time>2026-05-01T07:44:03.974Z</time></trkpt><trkpt lat="44.4174078" lon="11.3940401"><ele>113.99999999999999</ele><time>2026-05-01T07:44:10.982Z</time></trkpt><trkpt lat="44.4173393" lon="11.3940329"><ele>114.0</ele><time>2026-05-01T07:44:16.976Z</time></trkpt><trkpt lat="44.4172756" lon="11.3940305"><ele>114.0</ele><time>2026-05-01T07:44:24.975Z</time></trkpt><trkpt lat="44.4172293" lon="11.3940968"><ele>113.99999999999999</ele><time>2026-05-01T07:44:31.974Z</time></trkpt><trkpt lat="44.4172387" lon="11.3941963"><ele>114.0</ele><time>2026-05-01T07:44:37.975Z</time></trkpt><trkpt lat="44.4172833" lon="11.3942626"><ele>114.0</ele><time>2026-05-01T07:44:43.957Z</time></trkpt><trkpt lat="44.4173231" lon="11.3943361"><ele>114.0</ele><time>2026-05-01T07:44:49.979Z</time></trkpt><trkpt lat="44.417359" lon="11.3944205"><ele>113.99999999999999</ele><time>2026-05-01T07:44:56.961Z</time></trkpt><trkpt lat="44.417379" lon="11.3945178"><ele>114.0</ele><time>2026-05-01T07:45:03.964Z</time></trkpt><trkpt lat="44.4173721" lon="11.3946183"><ele>114.0</ele><time>2026-05-01T07:45:09.971Z</time></trkpt><trkpt lat="44.4173263" lon="11.3946933"><ele>113.99999999999999</ele><time>2026-05-01T07:45:15.966Z</time></trkpt><trkpt lat="44.4172539" lon="11.3946825"><ele>114.0</ele><time>2026-05-01T07:45:21.966Z</time></trkpt><trkpt lat="44.4171841" lon="11.3946659"><ele>114.0</ele><time>2026-05-01T07:45:27.97Z</time></trkpt><trkpt lat="44.4171231" lon="11.3946334"><ele>116.28571428571428</ele><time>2026-05-01T07:45:33.971Z</time></trkpt><trkpt lat="44.4170608" lon="11.3945942"><ele>118.57142857142856</ele><time>2026-05-01T07:45:40.972Z</time></trkpt><trkpt lat="44.4169994" lon="11.3945686"><ele>120.85714285714286</ele><time>2026-05-01T07:45:47.966Z</time></trkpt><trkpt lat="44.4169381" lon="11.3945444"><ele>123.14285714285714</ele><time>2026-05-01T07:45:53.975Z</time></trkpt><trkpt lat="44.4168764" lon="11.3945197"><ele>125.42857142857143</ele><time>2026-05-01T07:46:00.966Z</time></trkpt><trkpt lat="44.4168036" lon="11.3945122"><ele>127.71428571428572</ele><time>2026-05-01T07:46:08.977Z</time></trkpt><trkpt lat="44.4167317" lon="11.3945025"><ele>130.0</ele><time>2026-05-01T07:46:15.98Z</time></trkpt><trkpt lat="44.4166689" lon="11.3944829"><ele>130.00000000000003</ele><time>2026-05-01T07:46:22.978Z</time></trkpt><trkpt lat="44.4165972" lon="11.3944668"><ele>130.0</ele><time>2026-05-01T07:46:28.955Z</time></trkpt><trkpt lat="44.4165285" lon="11.3944619"><ele>130.0</ele><time>2026-05-01T07:46:34.97Z</time></trkpt><trkpt lat="44.4164625" lon="11.3944551"><ele>130.0</ele><time>2026-05-01T07:46:39.969Z</time></trkpt><trkpt lat="44.4163949" lon="11.3944396"><ele>130.0</ele><time>2026-05-01T07:46:46.955Z</time></trkpt><trkpt lat="44.4163258" lon="11.3944279"><ele>130.00000000000003</ele><time>2026-05-01T07:46:51.972Z</time></trkpt><trkpt lat="44.4162579" lon="11.3944151"><ele>130.0</ele><time>2026-05-01T07:46:56.971Z</time></trkpt><trkpt lat="44.4161942" lon="11.3944437"><ele>132.14285714285717</ele><time>2026-05-01T07:47:02.98Z</time></trkpt><trkpt lat="44.4161848" lon="11.3945419"><ele>134.28571428571428</ele><time>2026-05-01T07:47:09.98Z</time></trkpt><trkpt lat="44.4162132" lon="11.3946241"><ele>136.42857142857144</ele><time>2026-05-01T07:47:15.978Z</time></trkpt><trkpt lat="44.4162537" lon="11.394695"><ele>138.57142857142858</ele><time>2026-05-01T07:47:21.97Z</time></trkpt><trkpt lat="44.4163027" lon="11.394768"><ele>140.71428571428572</ele><time>2026-05-01T07:47:27.979Z</time></trkpt><trkpt lat="44.4163549" lon="11.3948278"><ele>142.85714285714286</ele><time>2026-05-01T07:47:33.976Z</time></trkpt><trkpt lat="44.4164054" lon="11.394891"><ele>145.0</ele><time>2026-05-01T07:47:39.968Z</time></trkpt><trkpt lat="44.4164572" lon="11.3949519"><ele>145.0</ele><time>2026-05-01T07:47:46.974Z</time></trkpt><trkpt lat="44.4165181" lon="11.3950153"><ele>145.0</ele><time>2026-05-01T07:47:53.976Z</time></trkpt><trkpt lat="44.4165644" lon="11.3950929"><ele>145.0</ele><time>2026-05-01T07:47:59.975Z</time></trkpt><trkpt lat="44.4166088" lon="11.3951602"><ele>145.0</ele><time>2026-05-01T07:48:05.966Z</time></trkpt><trkpt lat="44.416655" lon="11.39524"><ele>145.0</ele><time>2026-05-01T07:48:11.965Z</time></trkpt><trkpt lat="44.4166991" lon="11.3953223"><ele>145.0</ele><time>2026-05-01T07:48:17.964Z</time></trkpt><trkpt lat="44.4167303" lon="11.3953991"><ele>145.0</ele><time>2026-05-01T07:48:22.966Z</time></trkpt><trkpt lat="44.4167746" lon="11.3954702"><ele>146.85714285714286</ele><time>2026-05-01T07:48:27.958Z</time></trkpt><trkpt lat="44.4168305" lon="11.3955261"><ele>148.71428571428572</ele><time>2026-05-01T07:48:32.963Z</time></trkpt><trkpt lat="44.4168898" lon="11.3955927"><ele>150.57142857142858</ele><time>2026-05-01T07:48:37.967Z</time></trkpt><trkpt lat="44.416935" lon="11.3956547"><ele>152.42857142857144</ele><time>2026-05-01T07:48:41.971Z</time></trkpt><trkpt lat="44.4169874" lon="11.3957103"><ele>154.28571428571428</ele><time>2026-05-01T07:48:46.969Z</time></trkpt><trkpt lat="44.4170412" lon="11.3957861"><ele>156.14285714285717</ele><time>2026-05-01T07:48:52.967Z</time></trkpt><trkpt lat="44.4170861" lon="11.3958673"><ele>158.0</ele><time>2026-05-01T07:48:57.967Z</time></trkpt><trkpt lat="44.4171292" lon="11.3959485"><ele>158.71428571428572</ele><time>2026-05-01T07:49:02.956Z</time></trkpt><trkpt lat="44.4171583" lon="11.3960341"><ele>159.42857142857144</ele><time>2026-05-01T07:49:06.97Z</time></trkpt><trkpt lat="44.4172003" lon="11.3961085"><ele>160.14285714285717</ele><time>2026-05-01T07:49:10.971Z</time></trkpt><trkpt lat="44.4172526" lon="11.3961823"><ele>160.85714285714286</ele><time>2026-05-01T07:49:15.986Z</time></trkpt><trkpt lat="44.4173113" lon="11.3962249"><ele>161.57142857142856</ele><time>2026-05-01T07:49:19.968Z</time></trkpt><trkpt lat="44.4173824" lon="11.3962535"><ele>162.2857142857143</ele><time>2026-05-01T07:49:24.973Z</time></trkpt><trkpt lat="44.4174309" lon="11.3963154"><ele>163.0</ele><time>2026-05-01T07:49:28.974Z</time></trkpt><trkpt lat="44.4174796" lon="11.3963906"><ele>163.0</ele><time>2026-05-01T07:49:33.964Z</time></trkpt><trkpt lat="44.4175347" lon="11.3964627"><ele>163.0</ele><time>2026-05-01T07:49:52.965Z</time></trkpt><trkpt lat="44.4175624" lon="11.3965649"><ele>163.0</ele><time>2026-05-01T07:49:56.956Z</time></trkpt><trkpt lat="44.4176087" lon="11.3966485"><ele>163.0</ele><time>2026-05-01T07:50:01.956Z</time></trkpt><trkpt lat="44.4176633" lon="11.3967138"><ele>163.0</ele><time>2026-05-01T07:50:06.96Z</time></trkpt><trkpt lat="44.4177125" lon="11.3967712"><ele>163.0</ele><time>2026-05-01T07:50:11.961Z</time></trkpt><trkpt lat="44.4177788" lon="11.3967882"><ele>163.0</ele><time>2026-05-01T07:50:18.956Z</time></trkpt><trkpt lat="44.417849" lon="11.3968174"><ele>163.0</ele><time>2026-05-01T07:50:24.981Z</time></trkpt><trkpt lat="44.4179192" lon="11.3968462"><ele>163.0</ele><time>2026-05-01T07:50:30.965Z</time></trkpt><trkpt lat="44.4179829" lon="11.3968829"><ele>163.0</ele><time>2026-05-01T07:50:34.965Z</time></trkpt><trkpt lat="44.4180521" lon="11.3969234"><ele>163.0</ele><time>2026-05-01T07:50:39.964Z</time></trkpt><trkpt lat="44.4181191" lon="11.3969725"><ele>163.0</ele><time>2026-05-01T07:50:44.959Z</time></trkpt><trkpt lat="44.4181772" lon="11.3970255"><ele>163.0</ele><time>2026-05-01T07:50:48.958Z</time></trkpt><trkpt lat="44.4182392" lon="11.3970804"><ele>163.0</ele><time>2026-05-01T07:50:53.968Z</time></trkpt><trkpt lat="44.4182944" lon="11.3971457"><ele>164.14285714285714</ele><time>2026-05-01T07:50:58.973Z</time></trkpt><trkpt lat="44.418357" lon="11.3971981"><ele>165.28571428571428</ele><time>2026-05-01T07:51:03.969Z</time></trkpt><trkpt lat="44.4184206" lon="11.3972289"><ele>166.42857142857142</ele><time>2026-05-01T07:51:08.966Z</time></trkpt><trkpt lat="44.4184749" lon="11.3972923"><ele>167.57142857142856</ele><time>2026-05-01T07:51:14.972Z</time></trkpt><trkpt lat="44.4185338" lon="11.3973433"><ele>168.71428571428572</ele><time>2026-05-01T07:51:21.982Z</time></trkpt><trkpt lat="44.418559" lon="11.3974244"><ele>169.85714285714283</ele><time>2026-05-01T07:51:27.969Z</time></trkpt><trkpt lat="44.418576" lon="11.3975233"><ele>171.0</ele><time>2026-05-01T07:51:33.958Z</time></trkpt><trkpt lat="44.4185897" lon="11.3976132"><ele>170.99999999999997</ele><time>2026-05-01T07:51:39.977Z</time></trkpt><trkpt lat="44.4185978" lon="11.3977183"><ele>171.0</ele><time>2026-05-01T07:51:44.97Z</time></trkpt><trkpt lat="44.4186052" lon="11.397818"><ele>171.0</ele><time>2026-05-01T07:51:49.98Z</time></trkpt><trkpt lat="44.4186035" lon="11.3979167"><ele>171.0</ele><time>2026-05-01T07:51:54.965Z</time></trkpt><trkpt lat="44.4185925" lon="11.3980211"><ele>171.0</ele><time>2026-05-01T07:51:59.961Z</time></trkpt><trkpt lat="44.4185925" lon="11.3981243"><ele>170.99999999999997</ele><time>2026-05-01T07:52:05.969Z</time></trkpt><trkpt lat="44.4186065" lon="11.3982127"><ele>171.0</ele><time>2026-05-01T07:52:10.975Z</time></trkpt><trkpt lat="44.4186346" lon="11.3983028"><ele>170.99999999999997</ele><time>2026-05-01T07:52:16.966Z</time></trkpt><trkpt lat="44.4186915" lon="11.3983603"><ele>171.0</ele><time>2026-05-01T07:52:22.972Z</time></trkpt><trkpt lat="44.4187461" lon="11.3984049"><ele>171.0</ele><time>2026-05-01T07:52:27.965Z</time></trkpt><trkpt lat="44.4188008" lon="11.3984608"><ele>171.0</ele><time>2026-05-01T07:52:32.977Z</time></trkpt><trkpt lat="44.4188531" lon="11.3985231"><ele>171.0</ele><time>2026-05-01T07:52:37.971Z</time></trkpt><trkpt lat="44.4189012" lon="11.3985905"><ele>170.99999999999997</ele><time>2026-05-01T07:52:41.973Z</time></trkpt><trkpt lat="44.4189611" lon="11.3986577"><ele>171.0</ele><time>2026-05-01T07:52:46.968Z</time></trkpt><trkpt lat="44.4190326" lon="11.398715"><ele>170.99999999999997</ele><time>2026-05-01T07:52:51.967Z</time></trkpt><trkpt lat="44.4190962" lon="11.3987497"><ele>171.0</ele><time>2026-05-01T07:52:54.97Z</time></trkpt><trkpt lat="44.41917" lon="11.3988063"><ele>171.0</ele><time>2026-05-01T07:52:58.976Z</time></trkpt><trkpt lat="44.4192311" lon="11.3988524"><ele>171.0</ele><time>2026-05-01T07:53:02.97Z</time></trkpt><trkpt lat="44.4192792" lon="11.3989116"><ele>171.0</ele><time>2026-05-01T07:53:08.971Z</time></trkpt><trkpt lat="44.4192408" lon="11.3989962"><ele>170.99999999999997</ele><time>2026-05-01T07:54:48.963Z</time></trkpt><trkpt lat="44.4191775" lon="11.3990198"><ele>171.0</ele><time>2026-05-01T07:54:52.971Z</time></trkpt><trkpt lat="44.4191066" lon="11.3990466"><ele>173.57142857142856</ele><time>2026-05-01T07:54:57.965Z</time></trkpt><trkpt lat="44.4190401" lon="11.399068"><ele>176.14285714285714</ele><time>2026-05-01T07:55:02.952Z</time></trkpt><trkpt lat="44.4189749" lon="11.399086"><ele>178.71428571428572</ele><time>2026-05-01T07:55:08.974Z</time></trkpt><trkpt lat="44.4189112" lon="11.3990877"><ele>181.28571428571428</ele><time>2026-05-01T07:55:13.968Z</time></trkpt><trkpt lat="44.4188477" lon="11.3990914"><ele>183.85714285714286</ele><time>2026-05-01T07:55:18.959Z</time></trkpt><trkpt lat="44.418785" lon="11.3991146"><ele>186.42857142857142</ele><time>2026-05-01T07:55:25.962Z</time></trkpt><trkpt lat="44.418719" lon="11.3991221"><ele>189.0</ele><time>2026-05-01T07:55:32.97Z</time></trkpt><trkpt lat="44.4186542" lon="11.399134"><ele>190.57142857142858</ele><time>2026-05-01T07:55:39.964Z</time></trkpt><trkpt lat="44.4185803" lon="11.3991461"><ele>192.14285714285714</ele><time>2026-05-01T07:55:46.961Z</time></trkpt><trkpt lat="44.4185127" lon="11.3991423"><ele>193.71428571428572</ele><time>2026-05-01T07:55:53.975Z</time></trkpt><trkpt lat="44.4184442" lon="11.3991441"><ele>195.28571428571428</ele><time>2026-05-01T07:56:00.966Z</time></trkpt><trkpt lat="44.4183765" lon="11.3991488"><ele>196.85714285714286</ele><time>2026-05-01T07:56:07.965Z</time></trkpt><trkpt lat="44.4183055" lon="11.3991629"><ele>198.42857142857144</ele><time>2026-05-01T07:56:14.961Z</time></trkpt><trkpt lat="44.418232" lon="11.3991691"><ele>200.0</ele><time>2026-05-01T07:56:23.977Z</time></trkpt><trkpt lat="44.4181663" lon="11.3992089"><ele>200.00000000000003</ele><time>2026-05-01T07:56:30.975Z</time></trkpt><trkpt lat="44.4180921" lon="11.3992167"><ele>200.0</ele><time>2026-05-01T07:56:36.967Z</time></trkpt><trkpt lat="44.4180248" lon="11.3992161"><ele>200.0</ele><time>2026-05-01T07:56:43.962Z</time></trkpt><trkpt lat="44.4179624" lon="11.3992359"><ele>200.0</ele><time>2026-05-01T07:56:50.964Z</time></trkpt><trkpt lat="44.4178909" lon="11.3992379"><ele>200.0</ele><time>2026-05-01T07:56:57.961Z</time></trkpt><trkpt lat="44.4178167" lon="11.3992395"><ele>200.00000000000003</ele><time>2026-05-01T07:57:03.955Z</time></trkpt><trkpt lat="44.4177432" lon="11.3992192"><ele>200.0</ele><time>2026-05-01T07:57:09.976Z</time></trkpt><trkpt lat="44.4176813" lon="11.3991965"><ele>200.00000000000003</ele><time>2026-05-01T07:57:14.977Z</time></trkpt><trkpt lat="44.4176205" lon="11.3991409"><ele>200.0</ele><time>2026-05-01T07:57:21.961Z</time></trkpt><trkpt lat="44.4175739" lon="11.3990804"><ele>200.0</ele><time>2026-05-01T07:57:27.978Z</time></trkpt><trkpt lat="44.4175091" lon="11.3990318"><ele>200.0</ele><time>2026-05-01T07:57:33.969Z</time></trkpt><trkpt lat="44.4174481" lon="11.3989684"><ele>200.0</ele><time>2026-05-01T07:57:39.968Z</time></trkpt><trkpt lat="44.4173858" lon="11.3989181"><ele>200.00000000000003</ele><time>2026-05-01T07:57:44.965Z</time></trkpt><trkpt lat="44.417321" lon="11.398868"><ele>200.0</ele><time>2026-05-01T07:57:49.966Z</time></trkpt><trkpt lat="44.4172598" lon="11.3988145"><ele>200.00000000000003</ele><time>2026-05-01T07:57:53.972Z</time></trkpt><trkpt lat="44.4171861" lon="11.398773"><ele>200.0</ele><time>2026-05-01T07:57:58.969Z</time></trkpt><trkpt lat="44.417111" lon="11.3987612"><ele>200.0</ele><time>2026-05-01T07:58:03.965Z</time></trkpt><trkpt lat="44.4170347" lon="11.398736"><ele>200.0</ele><time>2026-05-01T07:58:08.964Z</time></trkpt><trkpt lat="44.4169672" lon="11.3987174"><ele>200.0</ele><time>2026-05-01T07:58:14.965Z</time></trkpt><trkpt lat="44.4168953" lon="11.398715"><ele>200.00000000000003</ele><time>2026-05-01T07:58:19.965Z</time></trkpt><trkpt lat="44.4168322" lon="11.3986911"><ele>200.0</ele><time>2026-05-01T07:58:25.959Z</time></trkpt><trkpt lat="44.4167712" lon="11.3986607"><ele>201.71428571428572</ele><time>2026-05-01T07:58:31.958Z</time></trkpt><trkpt lat="44.4167106" lon="11.3986359"><ele>203.42857142857144</ele><time>2026-05-01T07:58:36.957Z</time></trkpt><trkpt lat="44.4166409" lon="11.3986119"><ele>205.14285714285717</ele><time>2026-05-01T07:58:41.951Z</time></trkpt><trkpt lat="44.4165706" lon="11.3985859"><ele>206.85714285714286</ele><time>2026-05-01T07:58:47.951Z</time></trkpt><trkpt lat="44.4164972" lon="11.3985654"><ele>208.57142857142856</ele><time>2026-05-01T07:58:53.948Z</time></trkpt><trkpt lat="44.4164189" lon="11.3985649"><ele>210.2857142857143</ele><time>2026-05-01T07:58:58.985Z</time></trkpt><trkpt lat="44.4163548" lon="11.3985644"><ele>212.0</ele><time>2026-05-01T07:59:02.962Z</time></trkpt><trkpt lat="44.4162805" lon="11.3985624"><ele>212.85714285714286</ele><time>2026-05-01T07:59:07.98Z</time></trkpt><trkpt lat="44.4162096" lon="11.3985573"><ele>213.7142857142857</ele><time>2026-05-01T07:59:12.96Z</time></trkpt><trkpt lat="44.4161452" lon="11.3985448"><ele>214.57142857142856</ele><time>2026-05-01T07:59:16.971Z</time></trkpt><trkpt lat="44.4160712" lon="11.3985332"><ele>215.42857142857144</ele><time>2026-05-01T07:59:20.974Z</time></trkpt><trkpt lat="44.416009" lon="11.3985593"><ele>216.28571428571428</ele><time>2026-05-01T07:59:24.965Z</time></trkpt><trkpt lat="44.41596" lon="11.3986292"><ele>217.14285714285714</ele><time>2026-05-01T07:59:28.968Z</time></trkpt><trkpt lat="44.4159857" lon="11.3987251"><ele>218.0</ele><time>2026-05-01T07:59:33.964Z</time></trkpt><trkpt lat="44.4160352" lon="11.3987821"><ele>219.57142857142858</ele><time>2026-05-01T07:59:39.959Z</time></trkpt><trkpt lat="44.4160887" lon="11.3988363"><ele>221.14285714285717</ele><time>2026-05-01T07:59:46.95Z</time></trkpt><trkpt lat="44.4161335" lon="11.3989067"><ele>222.71428571428572</ele><time>2026-05-01T07:59:55.026Z</time></trkpt><trkpt lat="44.4161904" lon="11.3989499"><ele>224.28571428571428</ele><time>2026-05-01T08:00:02.97Z</time></trkpt><trkpt lat="44.4162464" lon="11.3989965"><ele>225.85714285714286</ele><time>2026-05-01T08:00:08.97Z</time></trkpt><trkpt lat="44.4163055" lon="11.399057"><ele>227.42857142857142</ele><time>2026-05-01T08:00:15.963Z</time></trkpt><trkpt lat="44.4163247" lon="11.3991505"><ele>229.0</ele><time>2026-05-01T08:00:22.966Z</time></trkpt><trkpt lat="44.4163599" lon="11.3992295"><ele>229.0</ele><time>2026-05-01T08:00:30.962Z</time></trkpt><trkpt lat="44.416394" lon="11.3993068"><ele>229.0</ele><time>2026-05-01T08:00:36.958Z</time></trkpt><trkpt lat="44.4164274" lon="11.3993886"><ele>229.0</ele><time>2026-05-01T08:00:42.949Z</time></trkpt><trkpt lat="44.4164573" lon="11.3994667"><ele>229.0</ele><time>2026-05-01T08:00:48.959Z</time></trkpt><trkpt lat="44.4164981" lon="11.3995453"><ele>229.0</ele><time>2026-05-01T08:00:55.96Z</time></trkpt><trkpt lat="44.4165281" lon="11.3996357"><ele>229.0</ele><time>2026-05-01T08:01:01.957Z</time></trkpt><trkpt lat="44.4165553" lon="11.3997219"><ele>229.0</ele><time>2026-05-01T08:01:07.957Z</time></trkpt><trkpt lat="44.416584" lon="11.3998074"><ele>230.42857142857142</ele><time>2026-05-01T08:01:13.955Z</time></trkpt><trkpt lat="44.4165925" lon="11.3998996"><ele>231.8571428571429</ele><time>2026-05-01T08:01:18.952Z</time></trkpt><trkpt lat="44.4165849" lon="11.3999921"><ele>233.2857142857143</ele><time>2026-05-01T08:01:24.954Z</time></trkpt><trkpt lat="44.416572" lon="11.4000862"><ele>234.71428571428572</ele><time>2026-05-01T08:01:29.954Z</time></trkpt><trkpt lat="44.4165532" lon="11.4001707"><ele>236.14285714285717</ele><time>2026-05-01T08:01:34.968Z</time></trkpt><trkpt lat="44.4165888" lon="11.4002703"><ele>237.5714285714286</ele><time>2026-05-01T08:01:40.954Z</time></trkpt><trkpt lat="44.4166247" lon="11.4003486"><ele>239.00000000000003</ele><time>2026-05-01T08:01:44.959Z</time></trkpt><trkpt lat="44.4166782" lon="11.4004216"><ele>239.00000000000003</ele><time>2026-05-01T08:01:49.951Z</time></trkpt><trkpt lat="44.4167246" lon="11.4004814"><ele>239.0</ele><time>2026-05-01T08:01:54.951Z</time></trkpt><trkpt lat="44.416783" lon="11.400536"><ele>239.00000000000003</ele><time>2026-05-01T08:01:59.951Z</time></trkpt><trkpt lat="44.4168285" lon="11.4006158"><ele>239.00000000000003</ele><time>2026-05-01T08:02:03.959Z</time></trkpt><trkpt lat="44.4168703" lon="11.4007007"><ele>239.0</ele><time>2026-05-01T08:02:07.965Z</time></trkpt><trkpt lat="44.4169137" lon="11.4007748"><ele>239.00000000000003</ele><time>2026-05-01T08:02:11.961Z</time></trkpt><trkpt lat="44.4169618" lon="11.4008391"><ele>239.00000000000003</ele><time>2026-05-01T08:02:15.973Z</time></trkpt><trkpt lat="44.4170192" lon="11.400909"><ele>240.42857142857144</ele><time>2026-05-01T08:02:20.97Z</time></trkpt><trkpt lat="44.4170642" lon="11.4009889"><ele>241.85714285714286</ele><time>2026-05-01T08:02:25.952Z</time></trkpt><trkpt lat="44.4170965" lon="11.4010805"><ele>243.28571428571428</ele><time>2026-05-01T08:02:30.962Z</time></trkpt><trkpt lat="44.4171082" lon="11.4011728"><ele>244.71428571428572</ele><time>2026-05-01T08:02:35.964Z</time></trkpt><trkpt lat="44.4171044" lon="11.401267"><ele>246.1428571428571</ele><time>2026-05-01T08:02:40.96Z</time></trkpt><trkpt lat="44.4170805" lon="11.4013625"><ele>247.57142857142856</ele><time>2026-05-01T08:02:45.958Z</time></trkpt><trkpt lat="44.4170429" lon="11.4014337"><ele>249.0</ele><time>2026-05-01T08:02:50.954Z</time></trkpt><trkpt lat="44.416993" lon="11.4015093"><ele>249.28571428571428</ele><time>2026-05-01T08:02:55.963Z</time></trkpt><trkpt lat="44.4169364" lon="11.4015686"><ele>249.57142857142856</ele><time>2026-05-01T08:03:00.964Z</time></trkpt><trkpt lat="44.4168981" lon="11.4016395"><ele>249.85714285714283</ele><time>2026-05-01T08:03:05.951Z</time></trkpt><trkpt lat="44.4168619" lon="11.4017119"><ele>250.1428571428571</ele><time>2026-05-01T08:03:10.955Z</time></trkpt><trkpt lat="44.4168203" lon="11.4017955"><ele>250.42857142857142</ele><time>2026-05-01T08:03:17.967Z</time></trkpt><trkpt lat="44.4167776" lon="11.401863"><ele>250.71428571428567</ele><time>2026-05-01T08:03:22.956Z</time></trkpt><trkpt lat="44.4167283" lon="11.401927"><ele>250.99999999999997</ele><time>2026-05-01T08:03:27.957Z</time></trkpt><trkpt lat="44.4166776" lon="11.4019948"><ele>250.99999999999997</ele><time>2026-05-01T08:03:32.954Z</time></trkpt><trkpt lat="44.4166217" lon="11.4020619"><ele>251.0</ele><time>2026-05-01T08:03:38.955Z</time></trkpt><trkpt lat="44.4165814" lon="11.4021313"><ele>250.99999999999997</ele><time>2026-05-01T08:03:44.985Z</time></trkpt><trkpt lat="44.4165464" lon="11.4022136"><ele>250.99999999999997</ele><time>2026-05-01T08:03:50.955Z</time></trkpt><trkpt lat="44.4165085" lon="11.402301"><ele>251.0</ele><time>2026-05-01T08:03:55.963Z</time></trkpt><trkpt lat="44.4164743" lon="11.4023834"><ele>250.99999999999997</ele><time>2026-05-01T08:04:00.961Z</time></trkpt><trkpt lat="44.4164427" lon="11.4024742"><ele>250.99999999999997</ele><time>2026-05-01T08:04:06.018Z</time></trkpt><trkpt lat="44.4164038" lon="11.4025603"><ele>251.0</ele><time>2026-05-01T08:04:09.965Z</time></trkpt><trkpt lat="44.4163617" lon="11.402668"><ele>251.00000000000003</ele><time>2026-05-01T08:04:12.961Z</time></trkpt><trkpt lat="44.4163337" lon="11.4027692"><ele>251.00000000000003</ele><time>2026-05-01T08:04:14.961Z</time></trkpt><trkpt lat="44.4163074" lon="11.4028936"><ele>251.0</ele><time>2026-05-01T08:04:16.968Z</time></trkpt><trkpt lat="44.4162947" lon="11.4030479"><ele>251.0</ele><time>2026-05-01T08:04:18.96Z</time></trkpt><trkpt lat="44.4162649" lon="11.4032084"><ele>253.16666666666669</ele><time>2026-05-01T08:04:20.97Z</time></trkpt><trkpt lat="44.4162179" lon="11.403355"><ele>255.33333333333334</ele><time>2026-05-01T08:04:22.957Z</time></trkpt><trkpt lat="44.4161876" lon="11.4034947"><ele>257.5</ele><time>2026-05-01T08:04:24.956Z</time></trkpt><trkpt lat="44.4161502" lon="11.4036116"><ele>259.6666666666667</ele><time>2026-05-01T08:04:26.957Z</time></trkpt><trkpt lat="44.4161289" lon="11.4037052"><ele>261.8333333333333</ele><time>2026-05-01T08:04:28.955Z</time></trkpt><trkpt lat="44.4161124" lon="11.4037928"><ele>264.0</ele><time>2026-05-01T08:04:31.034Z</time></trkpt><trkpt lat="44.4161007" lon="11.403897"><ele>264.0</ele><time>2026-05-01T08:04:33.964Z</time></trkpt><trkpt lat="44.4160986" lon="11.4040123"><ele>264.0</ele><time>2026-05-01T08:04:36.957Z</time></trkpt><trkpt lat="44.4161019" lon="11.4041075"><ele>264.0</ele><time>2026-05-01T08:04:40.019Z</time></trkpt><trkpt lat="44.4161084" lon="11.4042004"><ele>264.0</ele><time>2026-05-01T08:04:42.958Z</time></trkpt><trkpt lat="44.416127" lon="11.4043028"><ele>264.0</ele><time>2026-05-01T08:04:46.963Z</time></trkpt><trkpt lat="44.4161421" lon="11.4043932"><ele>264.0</ele><time>2026-05-01T08:04:50.959Z</time></trkpt><trkpt lat="44.4161517" lon="11.4044829"><ele>264.0</ele><time>2026-05-01T08:04:55.961Z</time></trkpt><trkpt lat="44.416163" lon="11.4045796"><ele>263.7142857142857</ele><time>2026-05-01T08:05:00.962Z</time></trkpt><trkpt lat="44.4161743" lon="11.4046682"><ele>263.42857142857144</ele><time>2026-05-01T08:05:05.966Z</time></trkpt><trkpt lat="44.4161818" lon="11.4047682"><ele>263.14285714285717</ele><time>2026-05-01T08:05:11.959Z</time></trkpt><trkpt lat="44.4161862" lon="11.4048572"><ele>262.8571428571429</ele><time>2026-05-01T08:05:17.964Z</time></trkpt><trkpt lat="44.416191" lon="11.4049514"><ele>262.5714285714286</ele><time>2026-05-01T08:05:27.967Z</time></trkpt><trkpt lat="44.4161893" lon="11.4050856"><ele>262.2857142857143</ele><time>2026-05-01T08:05:34.962Z</time></trkpt><trkpt lat="44.416181" lon="11.4051883"><ele>262.0</ele><time>2026-05-01T08:05:39.964Z</time></trkpt><trkpt lat="44.4161632" lon="11.4052768"><ele>262.0</ele><time>2026-05-01T08:05:44.968Z</time></trkpt><trkpt lat="44.4161503" lon="11.4053831"><ele>262.0</ele><time>2026-05-01T08:05:50.98Z</time></trkpt><trkpt lat="44.4161569" lon="11.4054737"><ele>262.0</ele><time>2026-05-01T08:05:55.964Z</time></trkpt><trkpt lat="44.4161724" lon="11.4055664"><ele>262.0</ele><time>2026-05-01T08:06:00.965Z</time></trkpt><trkpt lat="44.4162036" lon="11.4056619"><ele>262.0</ele><time>2026-05-01T08:06:05.961Z</time></trkpt><trkpt lat="44.4162276" lon="11.4057631"><ele>262.0</ele><time>2026-05-01T08:06:10.962Z</time></trkpt><trkpt lat="44.4162498" lon="11.4058559"><ele>262.0</ele><time>2026-05-01T08:06:15.957Z</time></trkpt><trkpt lat="44.4161835" lon="11.4058337"><ele>261.8571428571429</ele><time>2026-05-01T08:06:25.954Z</time></trkpt><trkpt lat="44.4162381" lon="11.4059002"><ele>261.7142857142857</ele><time>2026-05-01T08:13:44.967Z</time></trkpt><trkpt lat="44.4162652" lon="11.4059839"><ele>261.57142857142856</ele><time>2026-05-01T08:13:48.96Z</time></trkpt><trkpt lat="44.4163001" lon="11.4060652"><ele>261.42857142857144</ele><time>2026-05-01T08:13:52.971Z</time></trkpt><trkpt lat="44.4163361" lon="11.4061428"><ele>261.2857142857143</ele><time>2026-05-01T08:13:56.965Z</time></trkpt><trkpt lat="44.4163798" lon="11.4062203"><ele>261.14285714285717</ele><time>2026-05-01T08:14:00.968Z</time></trkpt><trkpt lat="44.41641" lon="11.4063063"><ele>261.0</ele><time>2026-05-01T08:14:04.956Z</time></trkpt><trkpt lat="44.4164537" lon="11.4063876"><ele>262.6666666666667</ele><time>2026-05-01T08:14:08.969Z</time></trkpt><trkpt lat="44.4164983" lon="11.4064808"><ele>264.3333333333333</ele><time>2026-05-01T08:14:12.969Z</time></trkpt><trkpt lat="44.4165488" lon="11.4065647"><ele>266.0</ele><time>2026-05-01T08:14:16.959Z</time></trkpt><trkpt lat="44.4165774" lon="11.4066576"><ele>267.66666666666663</ele><time>2026-05-01T08:14:20.966Z</time></trkpt><trkpt lat="44.4166375" lon="11.4067298"><ele>269.3333333333333</ele><time>2026-05-01T08:14:24.96Z</time></trkpt><trkpt lat="44.4166793" lon="11.4068145"><ele>271.0</ele><time>2026-05-01T08:14:28.962Z</time></trkpt><trkpt lat="44.4167249" lon="11.4068824"><ele>271.0</ele><time>2026-05-01T08:14:32.958Z</time></trkpt><trkpt lat="44.4167651" lon="11.4069607"><ele>271.0</ele><time>2026-05-01T08:14:36.957Z</time></trkpt><trkpt lat="44.4168123" lon="11.4070241"><ele>271.0</ele><time>2026-05-01T08:14:40.961Z</time></trkpt><trkpt lat="44.4168515" lon="11.4071008"><ele>271.0</ele><time>2026-05-01T08:14:44.962Z</time></trkpt><trkpt lat="44.4168957" lon="11.4071734"><ele>271.0</ele><time>2026-05-01T08:14:49.962Z</time></trkpt><trkpt lat="44.4169418" lon="11.4072369"><ele>271.0</ele><time>2026-05-01T08:14:54.967Z</time></trkpt><trkpt lat="44.416975" lon="11.407324"><ele>271.0</ele><time>2026-05-01T08:15:00.958Z</time></trkpt><trkpt lat="44.4170284" lon="11.4073929"><ele>270.42857142857144</ele><time>2026-05-01T08:15:06.967Z</time></trkpt><trkpt lat="44.4170612" lon="11.4074758"><ele>269.8571428571429</ele><time>2026-05-01T08:15:12.977Z</time></trkpt><trkpt lat="44.4171021" lon="11.4075443"><ele>269.28571428571433</ele><time>2026-05-01T08:15:17.967Z</time></trkpt><trkpt lat="44.4171424" lon="11.4076247"><ele>268.7142857142857</ele><time>2026-05-01T08:15:23.961Z</time></trkpt><trkpt lat="44.4171731" lon="11.4077035"><ele>268.14285714285717</ele><time>2026-05-01T08:15:28.964Z</time></trkpt><trkpt lat="44.4172114" lon="11.4077742"><ele>267.5714285714286</ele><time>2026-05-01T08:15:34.966Z</time></trkpt><trkpt lat="44.4172552" lon="11.4078467"><ele>267.0</ele><time>2026-05-01T08:15:40.967Z</time></trkpt><trkpt lat="44.4172903" lon="11.4079241"><ele>269.14285714285717</ele><time>2026-05-01T08:15:46.963Z</time></trkpt><trkpt lat="44.4173377" lon="11.4079917"><ele>271.2857142857143</ele><time>2026-05-01T08:15:52.96Z</time></trkpt><trkpt lat="44.4173805" lon="11.4080688"><ele>273.42857142857144</ele><time>2026-05-01T08:15:59.952Z</time></trkpt><trkpt lat="44.4174313" lon="11.4081346"><ele>275.57142857142856</ele><time>2026-05-01T08:16:06.962Z</time></trkpt><trkpt lat="44.4174863" lon="11.4081995"><ele>277.7142857142857</ele><time>2026-05-01T08:16:13.959Z</time></trkpt><trkpt lat="44.4175501" lon="11.408244"><ele>279.8571428571429</ele><time>2026-05-01T08:16:19.963Z</time></trkpt><trkpt lat="44.417611" lon="11.4082793"><ele>282.0</ele><time>2026-05-01T08:16:24.966Z</time></trkpt><trkpt lat="44.4176744" lon="11.4082882"><ele>282.0</ele><time>2026-05-01T08:16:28.958Z</time></trkpt><trkpt lat="44.4177477" lon="11.4083237"><ele>282.0</ele><time>2026-05-01T08:16:33.956Z</time></trkpt><trkpt lat="44.4178075" lon="11.4083592"><ele>282.0</ele><time>2026-05-01T08:16:37.959Z</time></trkpt><trkpt lat="44.4178706" lon="11.4084198"><ele>282.0</ele><time>2026-05-01T08:16:41.96Z</time></trkpt><trkpt lat="44.4179361" lon="11.4084849"><ele>282.0</ele><time>2026-05-01T08:16:45.961Z</time></trkpt><trkpt lat="44.4179923" lon="11.4085559"><ele>282.0</ele><time>2026-05-01T08:16:49.956Z</time></trkpt><trkpt lat="44.418044" lon="11.4086079"><ele>282.0</ele><time>2026-05-01T08:16:55.966Z</time></trkpt><trkpt lat="44.4180954" lon="11.4086801"><ele>282.2857142857143</ele><time>2026-05-01T08:17:54.961Z</time></trkpt><trkpt lat="44.4181527" lon="11.4087232"><ele>282.57142857142856</ele><time>2026-05-01T08:17:57.989Z</time></trkpt><trkpt lat="44.4182098" lon="11.4087803"><ele>282.85714285714283</ele><time>2026-05-01T08:18:00.964Z</time></trkpt><trkpt lat="44.4182619" lon="11.4088516"><ele>283.1428571428571</ele><time>2026-05-01T08:18:03.96Z</time></trkpt><trkpt lat="44.4183083" lon="11.4089315"><ele>283.4285714285714</ele><time>2026-05-01T08:18:06.973Z</time></trkpt><trkpt lat="44.4183539" lon="11.4090099"><ele>283.7142857142857</ele><time>2026-05-01T08:18:09.971Z</time></trkpt><trkpt lat="44.4183885" lon="11.4090962"><ele>284.0</ele><time>2026-05-01T08:18:12.952Z</time></trkpt><trkpt lat="44.4184322" lon="11.4091819"><ele>284.0</ele><time>2026-05-01T08:18:15.96Z</time></trkpt><trkpt lat="44.4184884" lon="11.4092678"><ele>284.0</ele><time>2026-05-01T08:18:18.971Z</time></trkpt><trkpt lat="44.4185505" lon="11.4093512"><ele>284.0</ele><time>2026-05-01T08:18:21.973Z</time></trkpt><trkpt lat="44.4186169" lon="11.4093969"><ele>284.0</ele><time>2026-05-01T08:18:23.984Z</time></trkpt><trkpt lat="44.4187052" lon="11.4094211"><ele>284.0</ele><time>2026-05-01T08:18:25.968Z</time></trkpt><trkpt lat="44.4188266" lon="11.4094507"><ele>284.0</ele><time>2026-05-01T08:18:27.98Z</time></trkpt><trkpt lat="44.4189005" lon="11.4094619"><ele>284.0</ele><time>2026-05-01T08:18:28.964Z</time></trkpt><trkpt lat="44.4189834" lon="11.4094679"><ele>284.0</ele><time>2026-05-01T08:18:29.973Z</time></trkpt><trkpt lat="44.4190682" lon="11.4094784"><ele>284.0</ele><time>2026-05-01T08:18:30.977Z</time></trkpt><trkpt lat="44.4191581" lon="11.4094983"><ele>284.0</ele><time>2026-05-01T08:18:31.971Z</time></trkpt><trkpt lat="44.4192548" lon="11.4095123"><ele>284.0</ele><time>2026-05-01T08:18:32.966Z</time></trkpt><trkpt lat="44.4193651" lon="11.409523"><ele>284.0</ele><time>2026-05-01T08:18:33.974Z</time></trkpt><trkpt lat="44.4194739" lon="11.4095388"><ele>284.0</ele><time>2026-05-01T08:18:34.963Z</time></trkpt><trkpt lat="44.4195723" lon="11.4095541"><ele>284.0</ele><time>2026-05-01T08:18:35.973Z</time></trkpt><trkpt lat="44.4196787" lon="11.4095655"><ele>284.0</ele><time>2026-05-01T08:18:36.971Z</time></trkpt><trkpt lat="44.4197815" lon="11.4095678"><ele>284.0</ele><time>2026-05-01T08:18:37.963Z</time></trkpt><trkpt lat="44.4198809" lon="11.4095739"><ele>282.4</ele><time>2026-05-01T08:18:38.974Z</time></trkpt><trkpt lat="44.4199779" lon="11.4095749"><ele>280.79999999999995</ele><time>2026-05-01T08:18:39.965Z</time></trkpt><trkpt lat="44.4200736" lon="11.4095722"><ele>279.20000000000005</ele><time>2026-05-01T08:18:40.961Z</time></trkpt><trkpt lat="44.4201571" lon="11.4095605"><ele>277.6</ele><time>2026-05-01T08:18:41.964Z</time></trkpt><trkpt lat="44.4202432" lon="11.409522"><ele>276.0</ele><time>2026-05-01T08:18:42.963Z</time></trkpt><trkpt lat="44.4203227" lon="11.4094711"><ele>276.0</ele><time>2026-05-01T08:18:43.964Z</time></trkpt><trkpt lat="44.4204052" lon="11.4094067"><ele>276.0</ele><time>2026-05-01T08:18:44.957Z</time></trkpt><trkpt lat="44.4204936" lon="11.4093343"><ele>276.0</ele><time>2026-05-01T08:18:45.966Z</time></trkpt><trkpt lat="44.4205851" lon="11.4092686"><ele>276.0</ele><time>2026-05-01T08:18:46.966Z</time></trkpt><trkpt lat="44.420674" lon="11.4092087"><ele>276.0</ele><time>2026-05-01T08:18:47.962Z</time></trkpt><trkpt lat="44.4207715" lon="11.4091391"><ele>274.8</ele><time>2026-05-01T08:18:48.963Z</time></trkpt><trkpt lat="44.4208663" lon="11.4090713"><ele>273.6</ele><time>2026-05-01T08:18:49.962Z</time></trkpt><trkpt lat="44.4209595" lon="11.4089949"><ele>272.4</ele><time>2026-05-01T08:18:50.97Z</time></trkpt><trkpt lat="44.4210517" lon="11.4089107"><ele>271.2</ele><time>2026-05-01T08:18:51.969Z</time></trkpt><trkpt lat="44.4211541" lon="11.40883"><ele>270.0</ele><time>2026-05-01T08:18:52.963Z</time></trkpt><trkpt lat="44.4212612" lon="11.4087527"><ele>268.0</ele><time>2026-05-01T08:18:53.968Z</time></trkpt><trkpt lat="44.4213695" lon="11.4086738"><ele>266.0</ele><time>2026-05-01T08:18:54.957Z</time></trkpt><trkpt lat="44.4214763" lon="11.4085958"><ele>264.0</ele><time>2026-05-01T08:18:55.962Z</time></trkpt><trkpt lat="44.4215798" lon="11.4085163"><ele>262.0</ele><time>2026-05-01T08:18:56.956Z</time></trkpt><trkpt lat="44.4216817" lon="11.408433"><ele>262.0</ele><time>2026-05-01T08:18:57.959Z</time></trkpt><trkpt lat="44.421787" lon="11.4083487"><ele>262.0</ele><time>2026-05-01T08:18:58.951Z</time></trkpt><trkpt lat="44.4218866" lon="11.4082737"><ele>262.0</ele><time>2026-05-01T08:18:59.949Z</time></trkpt><trkpt lat="44.4219818" lon="11.4082051"><ele>262.0</ele><time>2026-05-01T08:19:00.968Z</time></trkpt><trkpt lat="44.4220726" lon="11.4081442"><ele>262.0</ele><time>2026-05-01T08:19:01.957Z</time></trkpt><trkpt lat="44.4221606" lon="11.4081017"><ele>260.16666666666663</ele><time>2026-05-01T08:19:02.95Z</time></trkpt><trkpt lat="44.422243" lon="11.4080558"><ele>258.3333333333333</ele><time>2026-05-01T08:19:03.955Z</time></trkpt><trkpt lat="44.4223313" lon="11.4080096"><ele>256.5</ele><time>2026-05-01T08:19:04.961Z</time></trkpt><trkpt lat="44.4224157" lon="11.4079683"><ele>254.66666666666669</ele><time>2026-05-01T08:19:05.959Z</time></trkpt><trkpt lat="44.4224938" lon="11.4079456"><ele>252.83333333333334</ele><time>2026-05-01T08:19:06.96Z</time></trkpt><trkpt lat="44.4225729" lon="11.4079327"><ele>251.0</ele><time>2026-05-01T08:19:07.962Z</time></trkpt><trkpt lat="44.4226552" lon="11.4079275"><ele>250.00000000000003</ele><time>2026-05-01T08:19:08.959Z</time></trkpt><trkpt lat="44.4227361" lon="11.4079182"><ele>249.0</ele><time>2026-05-01T08:19:09.962Z</time></trkpt><trkpt lat="44.422818" lon="11.4079036"><ele>248.0</ele><time>2026-05-01T08:19:10.961Z</time></trkpt><trkpt lat="44.4228972" lon="11.4078911"><ele>247.0</ele><time>2026-05-01T08:19:11.964Z</time></trkpt><trkpt lat="44.4229831" lon="11.4078873"><ele>246.00000000000003</ele><time>2026-05-01T08:19:12.962Z</time></trkpt><trkpt lat="44.4230682" lon="11.4078916"><ele>245.0</ele><time>2026-05-01T08:19:13.96Z</time></trkpt><trkpt lat="44.4231547" lon="11.407897"><ele>244.6</ele><time>2026-05-01T08:19:14.966Z</time></trkpt><trkpt lat="44.4232459" lon="11.4079094"><ele>244.2</ele><time>2026-05-01T08:19:15.952Z</time></trkpt><trkpt lat="44.4233406" lon="11.4079273"><ele>243.8</ele><time>2026-05-01T08:19:16.96Z</time></trkpt><trkpt lat="44.4234366" lon="11.4079475"><ele>243.4</ele><time>2026-05-01T08:19:17.965Z</time></trkpt><trkpt lat="44.4235361" lon="11.4079639"><ele>243.0</ele><time>2026-05-01T08:19:18.964Z</time></trkpt><trkpt lat="44.4236332" lon="11.4079764"><ele>243.4</ele><time>2026-05-01T08:19:19.956Z</time></trkpt><trkpt lat="44.4237337" lon="11.4079986"><ele>243.8</ele><time>2026-05-01T08:19:20.966Z</time></trkpt><trkpt lat="44.4238332" lon="11.4080135"><ele>244.2</ele><time>2026-05-01T08:19:21.969Z</time></trkpt><trkpt lat="44.4239323" lon="11.4080388"><ele>244.6</ele><time>2026-05-01T08:19:22.971Z</time></trkpt><trkpt lat="44.4240271" lon="11.4080923"><ele>245.0</ele><time>2026-05-01T08:19:23.966Z</time></trkpt><trkpt lat="44.4241175" lon="11.408161"><ele>245.0</ele><time>2026-05-01T08:19:24.966Z</time></trkpt><trkpt lat="44.4241972" lon="11.4082529"><ele>245.0</ele><time>2026-05-01T08:19:25.969Z</time></trkpt><trkpt lat="44.4242739" lon="11.4083528"><ele>245.0</ele><time>2026-05-01T08:19:26.963Z</time></trkpt><trkpt lat="44.4243402" lon="11.4084622"><ele>245.0</ele><time>2026-05-01T08:19:27.962Z</time></trkpt><trkpt lat="44.4244038" lon="11.4085685"><ele>245.0</ele><time>2026-05-01T08:19:28.967Z</time></trkpt><trkpt lat="44.424465" lon="11.4086669"><ele>245.00000000000003</ele><time>2026-05-01T08:19:29.967Z</time></trkpt><trkpt lat="44.4245267" lon="11.408748"><ele>245.0</ele><time>2026-05-01T08:19:30.962Z</time></trkpt><trkpt lat="44.4245913" lon="11.4087891"><ele>245.0</ele><time>2026-05-01T08:19:31.96Z</time></trkpt><trkpt lat="44.4246592" lon="11.4088118"><ele>245.0</ele><time>2026-05-01T08:19:32.969Z</time></trkpt><trkpt lat="44.4247722" lon="11.4088085"><ele>245.00000000000003</ele><time>2026-05-01T08:19:34.966Z</time></trkpt><trkpt lat="44.4248382" lon="11.4087919"><ele>245.0</ele><time>2026-05-01T08:19:36.965Z</time></trkpt><trkpt lat="44.4249049" lon="11.4087759"><ele>244.71428571428572</ele><time>2026-05-01T08:19:39.966Z</time></trkpt><trkpt lat="44.4249692" lon="11.4087635"><ele>244.42857142857144</ele><time>2026-05-01T08:19:43.966Z</time></trkpt><trkpt lat="44.4250295" lon="11.4087296"><ele>244.14285714285714</ele><time>2026-05-01T08:19:48.958Z</time></trkpt><trkpt lat="44.4250903" lon="11.4086892"><ele>243.85714285714286</ele><time>2026-05-01T08:19:52.965Z</time></trkpt><trkpt lat="44.4251631" lon="11.408645"><ele>243.57142857142858</ele><time>2026-05-01T08:19:56.962Z</time></trkpt><trkpt lat="44.4252281" lon="11.4086086"><ele>243.28571428571428</ele><time>2026-05-01T08:19:58.965Z</time></trkpt><trkpt lat="44.4253181" lon="11.4085503"><ele>243.0</ele><time>2026-05-01T08:20:00.957Z</time></trkpt><trkpt lat="44.4254234" lon="11.4084757"><ele>243.71428571428572</ele><time>2026-05-01T08:20:02.959Z</time></trkpt><trkpt lat="44.4254801" lon="11.4084365"><ele>244.42857142857144</ele><time>2026-05-01T08:20:03.969Z</time></trkpt><trkpt lat="44.4255327" lon="11.4083852"><ele>245.14285714285717</ele><time>2026-05-01T08:20:04.966Z</time></trkpt><trkpt lat="44.4255865" lon="11.4083276"><ele>245.85714285714286</ele><time>2026-05-01T08:20:05.969Z</time></trkpt><trkpt lat="44.4256462" lon="11.4082703"><ele>246.5714285714286</ele><time>2026-05-01T08:20:06.965Z</time></trkpt><trkpt lat="44.4257101" lon="11.4082198"><ele>247.2857142857143</ele><time>2026-05-01T08:20:07.96Z</time></trkpt><trkpt lat="44.4257708" lon="11.4081829"><ele>248.0</ele><time>2026-05-01T08:20:08.963Z</time></trkpt><trkpt lat="44.4258323" lon="11.408158"><ele>248.0</ele><time>2026-05-01T08:20:09.96Z</time></trkpt><trkpt lat="44.4258999" lon="11.4081461"><ele>248.00000000000003</ele><time>2026-05-01T08:20:10.963Z</time></trkpt><trkpt lat="44.4259662" lon="11.4081513"><ele>248.0</ele><time>2026-05-01T08:20:11.966Z</time></trkpt><trkpt lat="44.4260288" lon="11.4081634"><ele>248.0</ele><time>2026-05-01T08:20:12.962Z</time></trkpt><trkpt lat="44.4260952" lon="11.4081857"><ele>248.00000000000003</ele><time>2026-05-01T08:20:13.964Z</time></trkpt><trkpt lat="44.4261632" lon="11.408198"><ele>248.0</ele><time>2026-05-01T08:20:14.963Z</time></trkpt><trkpt lat="44.4262281" lon="11.4082029"><ele>248.0</ele><time>2026-05-01T08:20:15.956Z</time></trkpt><trkpt lat="44.4263441" lon="11.4082179"><ele>247.83333333333334</ele><time>2026-05-01T08:20:17.957Z</time></trkpt><trkpt lat="44.426409" lon="11.4082187"><ele>247.66666666666669</ele><time>2026-05-01T08:20:18.968Z</time></trkpt><trkpt lat="44.4265271" lon="11.4082348"><ele>247.5</ele><time>2026-05-01T08:20:20.956Z</time></trkpt><trkpt lat="44.4266235" lon="11.4082661"><ele>247.33333333333331</ele><time>2026-05-01T08:20:22.958Z</time></trkpt><trkpt lat="44.4266995" lon="11.4082778"><ele>247.16666666666666</ele><time>2026-05-01T08:20:25.962Z</time></trkpt><trkpt lat="44.4267748" lon="11.4082722"><ele>247.0</ele><time>2026-05-01T08:20:30.956Z</time></trkpt><trkpt lat="44.4268508" lon="11.4082865"><ele>247.0</ele><time>2026-05-01T08:20:36.959Z</time></trkpt><trkpt lat="44.4269176" lon="11.4083104"><ele>247.0</ele><time>2026-05-01T08:20:41.955Z</time></trkpt><trkpt lat="44.4269849" lon="11.4083317"><ele>247.0</ele><time>2026-05-01T08:20:48.959Z</time></trkpt><trkpt lat="44.4270529" lon="11.4083755"><ele>247.0</ele><time>2026-05-01T08:20:56.959Z</time></trkpt><trkpt lat="44.4271227" lon="11.4084068"><ele>247.0</ele><time>2026-05-01T08:21:02.955Z</time></trkpt><trkpt lat="44.4271631" lon="11.4084838"><ele>247.0</ele><time>2026-05-01T08:21:07.961Z</time></trkpt><trkpt lat="44.4271907" lon="11.4085734"><ele>247.0</ele><time>2026-05-01T08:21:11.974Z</time></trkpt><trkpt lat="44.4271873" lon="11.4086758"><ele>246.66666666666666</ele><time>2026-05-01T08:21:16.957Z</time></trkpt><trkpt lat="44.4271522" lon="11.4087637"><ele>246.33333333333331</ele><time>2026-05-01T08:21:21.97Z</time></trkpt><trkpt lat="44.4271355" lon="11.4088496"><ele>246.0</ele><time>2026-05-01T08:21:25.957Z</time></trkpt><trkpt lat="44.4271203" lon="11.4089507"><ele>245.66666666666669</ele><time>2026-05-01T08:21:28.97Z</time></trkpt><trkpt lat="44.4270883" lon="11.4090563"><ele>245.33333333333334</ele><time>2026-05-01T08:21:31.963Z</time></trkpt><trkpt lat="44.4270316" lon="11.4091778"><ele>245.0</ele><time>2026-05-01T08:21:34.957Z</time></trkpt><trkpt lat="44.4269652" lon="11.4093023"><ele>246.2</ele><time>2026-05-01T08:21:36.965Z</time></trkpt><trkpt lat="44.4269018" lon="11.4094451"><ele>247.4</ele><time>2026-05-01T08:21:38.952Z</time></trkpt><trkpt lat="44.4268395" lon="11.4095732"><ele>248.60000000000002</ele><time>2026-05-01T08:21:40.97Z</time></trkpt><trkpt lat="44.4267813" lon="11.4096864"><ele>249.8</ele><time>2026-05-01T08:21:42.954Z</time></trkpt><trkpt lat="44.4267204" lon="11.4097476"><ele>251.0</ele><time>2026-05-01T08:21:44.961Z</time></trkpt><trkpt lat="44.4266752" lon="11.4098147"><ele>250.99999999999997</ele><time>2026-05-01T08:21:47.956Z</time></trkpt><trkpt lat="44.4266181" lon="11.4098831"><ele>251.0</ele><time>2026-05-01T08:21:51.965Z</time></trkpt><trkpt lat="44.4265477" lon="11.4099365"><ele>250.99999999999997</ele><time>2026-05-01T08:21:56.963Z</time></trkpt><trkpt lat="44.4265076" lon="11.410015"><ele>250.99999999999997</ele><time>2026-05-01T08:22:01.972Z</time></trkpt><trkpt lat="44.4265026" lon="11.410109"><ele>251.0</ele><time>2026-05-01T08:23:33.956Z</time></trkpt><trkpt lat="44.4264873" lon="11.4102099"><ele>250.99999999999997</ele><time>2026-05-01T08:23:39.961Z</time></trkpt><trkpt lat="44.4264908" lon="11.4103003"><ele>250.99999999999997</ele><time>2026-05-01T08:23:42.959Z</time></trkpt><trkpt lat="44.426546" lon="11.4103738"><ele>251.00000000000003</ele><time>2026-05-01T08:23:46.957Z</time></trkpt><trkpt lat="44.4265991" lon="11.4104445"><ele>251.0</ele><time>2026-05-01T08:23:49.959Z</time></trkpt><trkpt lat="44.4266489" lon="11.4105145"><ele>251.0</ele><time>2026-05-01T08:23:52.959Z</time></trkpt><trkpt lat="44.4266705" lon="11.4106037"><ele>251.0</ele><time>2026-05-01T08:23:54.958Z</time></trkpt><trkpt lat="44.4266917" lon="11.4107013"><ele>251.00000000000003</ele><time>2026-05-01T08:23:56.984Z</time></trkpt><trkpt lat="44.4267278" lon="11.4108123"><ele>251.0</ele><time>2026-05-01T08:23:58.961Z</time></trkpt><trkpt lat="44.4267856" lon="11.4109061"><ele>251.66666666666669</ele><time>2026-05-01T08:24:00.964Z</time></trkpt><trkpt lat="44.4268569" lon="11.4109682"><ele>252.33333333333334</ele><time>2026-05-01T08:24:02.962Z</time></trkpt><trkpt lat="44.4269466" lon="11.4110045"><ele>253.0</ele><time>2026-05-01T08:24:04.966Z</time></trkpt><trkpt lat="44.4270439" lon="11.4110155"><ele>253.66666666666669</ele><time>2026-05-01T08:24:06.974Z</time></trkpt><trkpt lat="44.4271268" lon="11.4109957"><ele>254.33333333333334</ele><time>2026-05-01T08:24:09.962Z</time></trkpt><trkpt lat="44.4272032" lon="11.4109684"><ele>255.0</ele><time>2026-05-01T08:24:14.047Z</time></trkpt><trkpt lat="44.4272754" lon="11.4109901"><ele>253.83333333333334</ele><time>2026-05-01T08:24:18.958Z</time></trkpt><trkpt lat="44.4273315" lon="11.4110596"><ele>252.66666666666669</ele><time>2026-05-01T08:24:22.968Z</time></trkpt><trkpt lat="44.427343" lon="11.4111539"><ele>251.5</ele><time>2026-05-01T08:24:25.067Z</time></trkpt><trkpt lat="44.4273736" lon="11.4112561"><ele>250.33333333333334</ele><time>2026-05-01T08:24:26.968Z</time></trkpt><trkpt lat="44.4274286" lon="11.4113959"><ele>249.16666666666669</ele><time>2026-05-01T08:24:28.97Z</time></trkpt><trkpt lat="44.4274721" lon="11.4115034"><ele>248.0</ele><time>2026-05-01T08:24:30.971Z</time></trkpt><trkpt lat="44.4275218" lon="11.4116036"><ele>248.00000000000003</ele><time>2026-05-01T08:24:33.966Z</time></trkpt><trkpt lat="44.427596" lon="11.411666"><ele>248.0</ele><time>2026-05-01T08:24:36.967Z</time></trkpt><trkpt lat="44.4276666" lon="11.4117147"><ele>248.0</ele><time>2026-05-01T08:24:39.963Z</time></trkpt><trkpt lat="44.4277449" lon="11.4117544"><ele>248.0</ele><time>2026-05-01T08:24:42.972Z</time></trkpt><trkpt lat="44.4278006" lon="11.4117992"><ele>248.00000000000003</ele><time>2026-05-01T08:24:45.022Z</time></trkpt><trkpt lat="44.4278706" lon="11.4118904"><ele>248.0</ele><time>2026-05-01T08:24:47.968Z</time></trkpt><trkpt lat="44.4279221" lon="11.4119898"><ele>245.66666666666669</ele><time>2026-05-01T08:24:49.969Z</time></trkpt><trkpt lat="44.427991" lon="11.4121011"><ele>243.33333333333334</ele><time>2026-05-01T08:24:51.968Z</time></trkpt><trkpt lat="44.4280534" lon="11.4122139"><ele>241.0</ele><time>2026-05-01T08:24:53.969Z</time></trkpt><trkpt lat="44.4281081" lon="11.4123332"><ele>238.66666666666669</ele><time>2026-05-01T08:24:55.999Z</time></trkpt><trkpt lat="44.4281535" lon="11.4124145"><ele>236.33333333333334</ele><time>2026-05-01T08:24:57.967Z</time></trkpt><trkpt lat="44.4281866" lon="11.4124967"><ele>234.0</ele><time>2026-05-01T08:24:59.965Z</time></trkpt><trkpt lat="44.4282171" lon="11.4125947"><ele>234.0</ele><time>2026-05-01T08:25:02.963Z</time></trkpt><trkpt lat="44.4282467" lon="11.4127065"><ele>234.0</ele><time>2026-05-01T08:25:05.964Z</time></trkpt><trkpt lat="44.4282729" lon="11.412805"><ele>234.0</ele><time>2026-05-01T08:25:07.969Z</time></trkpt><trkpt lat="44.4282848" lon="11.4129089"><ele>234.0</ele><time>2026-05-01T08:25:09.963Z</time></trkpt><trkpt lat="44.4282907" lon="11.4130668"><ele>234.0</ele><time>2026-05-01T08:25:12.97Z</time></trkpt><trkpt lat="44.4282995" lon="11.4131683"><ele>234.0</ele><time>2026-05-01T08:25:14.965Z</time></trkpt><trkpt lat="44.428317" lon="11.4132732"><ele>234.2857142857143</ele><time>2026-05-01T08:25:16.972Z</time></trkpt><trkpt lat="44.4283322" lon="11.4133648"><ele>234.5714285714286</ele><time>2026-05-01T08:25:18.967Z</time></trkpt><trkpt lat="44.4283596" lon="11.4134638"><ele>234.85714285714286</ele><time>2026-05-01T08:25:21.966Z</time></trkpt><trkpt lat="44.4283984" lon="11.4135583"><ele>235.14285714285717</ele><time>2026-05-01T08:25:24.967Z</time></trkpt><trkpt lat="44.4284306" lon="11.4136374"><ele>235.42857142857144</ele><time>2026-05-01T08:25:26.971Z</time></trkpt><trkpt lat="44.4284941" lon="11.413713"><ele>235.71428571428572</ele><time>2026-05-01T08:25:29.96Z</time></trkpt><trkpt lat="44.4285729" lon="11.4137162"><ele>236.0</ele><time>2026-05-01T08:25:32.976Z</time></trkpt><trkpt lat="44.4286589" lon="11.4137292"><ele>236.00000000000003</ele><time>2026-05-01T08:25:35.976Z</time></trkpt><trkpt lat="44.4287245" lon="11.4137549"><ele>236.0</ele><time>2026-05-01T08:25:38.967Z</time></trkpt><trkpt lat="44.4287974" lon="11.4138044"><ele>236.0</ele><time>2026-05-01T08:25:41.967Z</time></trkpt><trkpt lat="44.4288598" lon="11.4138694"><ele>236.0</ele><time>2026-05-01T08:25:44.966Z</time></trkpt><trkpt lat="44.4289106" lon="11.4139406"><ele>236.00000000000003</ele><time>2026-05-01T08:25:46.967Z</time></trkpt><trkpt lat="44.4289441" lon="11.414052"><ele>236.0</ele><time>2026-05-01T08:25:48.976Z</time></trkpt><trkpt lat="44.4289479" lon="11.4141908"><ele>234.0</ele><time>2026-05-01T08:25:50.971Z</time></trkpt><trkpt lat="44.4289567" lon="11.4143328"><ele>232.00000000000003</ele><time>2026-05-01T08:25:52.961Z</time></trkpt><trkpt lat="44.428996" lon="11.4144561"><ele>230.00000000000003</ele><time>2026-05-01T08:25:54.965Z</time></trkpt><trkpt lat="44.429042" lon="11.4145887"><ele>228.0</ele><time>2026-05-01T08:25:56.976Z</time></trkpt><trkpt lat="44.4290719" lon="11.4147034"><ele>226.0</ele><time>2026-05-01T08:25:58.971Z</time></trkpt><trkpt lat="44.4291154" lon="11.4147813"><ele>225.16666666666666</ele><time>2026-05-01T08:26:00.965Z</time></trkpt><trkpt lat="44.4291797" lon="11.414873"><ele>224.33333333333331</ele><time>2026-05-01T08:26:03.965Z</time></trkpt><trkpt lat="44.4292493" lon="11.4149522"><ele>223.5</ele><time>2026-05-01T08:26:06.971Z</time></trkpt><trkpt lat="44.4293253" lon="11.4149904"><ele>222.66666666666669</ele><time>2026-05-01T08:26:09.966Z</time></trkpt><trkpt lat="44.4294113" lon="11.4150045"><ele>221.83333333333334</ele><time>2026-05-01T08:26:12.966Z</time></trkpt><trkpt lat="44.4294966" lon="11.4149904"><ele>221.0</ele><time>2026-05-01T08:26:15.991Z</time></trkpt><trkpt lat="44.4295589" lon="11.4149765"><ele>221.00000000000003</ele><time>2026-05-01T08:26:18.967Z</time></trkpt><trkpt lat="44.4296391" lon="11.4149564"><ele>221.0</ele><time>2026-05-01T08:26:22.959Z</time></trkpt><trkpt lat="44.4297122" lon="11.4149755"><ele>221.0</ele><time>2026-05-01T08:26:26.963Z</time></trkpt><trkpt lat="44.4297893" lon="11.4149751"><ele>221.0</ele><time>2026-05-01T08:26:30.965Z</time></trkpt><trkpt lat="44.4298726" lon="11.414961"><ele>221.00000000000003</ele><time>2026-05-01T08:26:34.962Z</time></trkpt><trkpt lat="44.4299396" lon="11.4149494"><ele>221.0</ele><time>2026-05-01T08:26:39.036Z</time></trkpt><trkpt lat="44.4300098" lon="11.4149229"><ele>221.8571428571429</ele><time>2026-05-01T08:26:43.979Z</time></trkpt><trkpt lat="44.4300753" lon="11.4149238"><ele>222.71428571428572</ele><time>2026-05-01T08:26:48.968Z</time></trkpt><trkpt lat="44.4301465" lon="11.4149393"><ele>223.57142857142858</ele><time>2026-05-01T08:26:52.97Z</time></trkpt><trkpt lat="44.4302129" lon="11.4149714"><ele>224.42857142857144</ele><time>2026-05-01T08:26:56.974Z</time></trkpt><trkpt lat="44.4302759" lon="11.4150164"><ele>225.2857142857143</ele><time>2026-05-01T08:27:00.974Z</time></trkpt><trkpt lat="44.4303367" lon="11.4150442"><ele>226.14285714285717</ele><time>2026-05-01T08:27:03.973Z</time></trkpt><trkpt lat="44.4303928" lon="11.4150878"><ele>227.0</ele><time>2026-05-01T08:27:06.977Z</time></trkpt><trkpt lat="44.4304473" lon="11.4151444"><ele>226.71428571428572</ele><time>2026-05-01T08:27:09.975Z</time></trkpt><trkpt lat="44.4305171" lon="11.4151984"><ele>226.42857142857144</ele><time>2026-05-01T08:27:13.977Z</time></trkpt><trkpt lat="44.4305833" lon="11.4152527"><ele>226.14285714285717</ele><time>2026-05-01T08:27:17.982Z</time></trkpt><trkpt lat="44.4306382" lon="11.415314"><ele>225.8571428571429</ele><time>2026-05-01T08:27:21.976Z</time></trkpt><trkpt lat="44.4307054" lon="11.4153707"><ele>225.57142857142858</ele><time>2026-05-01T08:27:26.977Z</time></trkpt><trkpt lat="44.4307593" lon="11.4154324"><ele>225.28571428571433</ele><time>2026-05-01T08:27:30.971Z</time></trkpt><trkpt lat="44.4308024" lon="11.415501"><ele>225.00000000000003</ele><time>2026-05-01T08:27:35.973Z</time></trkpt><trkpt lat="44.4308249" lon="11.4155972"><ele>225.00000000000003</ele><time>2026-05-01T08:27:39.977Z</time></trkpt><trkpt lat="44.4308547" lon="11.4156883"><ele>225.0</ele><time>2026-05-01T08:27:42.974Z</time></trkpt><trkpt lat="44.4308857" lon="11.4158044"><ele>225.00000000000003</ele><time>2026-05-01T08:27:45.975Z</time></trkpt><trkpt lat="44.4309145" lon="11.4159026"><ele>225.00000000000003</ele><time>2026-05-01T08:27:48.975Z</time></trkpt><trkpt lat="44.4309484" lon="11.4159857"><ele>225.0</ele><time>2026-05-01T08:27:52.974Z</time></trkpt><trkpt lat="44.4309652" lon="11.4160732"><ele>225.00000000000003</ele><time>2026-05-01T08:27:55.973Z</time></trkpt><trkpt lat="44.4309934" lon="11.4161634"><ele>225.00000000000003</ele><time>2026-05-01T08:27:58.977Z</time></trkpt><trkpt lat="44.4310195" lon="11.4162548"><ele>224.0</ele><time>2026-05-01T08:28:01.984Z</time></trkpt><trkpt lat="44.4310468" lon="11.4163579"><ele>223.0</ele><time>2026-05-01T08:28:04.975Z</time></trkpt><trkpt lat="44.4310691" lon="11.4164796"><ele>222.0</ele><time>2026-05-01T08:28:07.97Z</time></trkpt><trkpt lat="44.4310913" lon="11.4165674"><ele>221.0</ele><time>2026-05-01T08:28:09.972Z</time></trkpt><trkpt lat="44.4311144" lon="11.4166501"><ele>220.0</ele><time>2026-05-01T08:28:11.966Z</time></trkpt><trkpt lat="44.4311467" lon="11.4167354"><ele>219.0</ele><time>2026-05-01T08:28:16.967Z</time></trkpt><trkpt lat="44.4311744" lon="11.4168541"><ele>219.0</ele><time>2026-05-01T08:31:39.964Z</time></trkpt><trkpt lat="44.4311223" lon="11.4169571"><ele>218.99999999999997</ele><time>2026-05-01T08:31:42.961Z</time></trkpt><trkpt lat="44.4310622" lon="11.417058"><ele>218.99999999999997</ele><time>2026-05-01T08:31:44.974Z</time></trkpt><trkpt lat="44.4310057" lon="11.4171667"><ele>219.0</ele><time>2026-05-01T08:31:46.964Z</time></trkpt><trkpt lat="44.430964" lon="11.4172895"><ele>219.0</ele><time>2026-05-01T08:31:48.963Z</time></trkpt><trkpt lat="44.4309238" lon="11.4174184"><ele>219.0</ele><time>2026-05-01T08:31:50.961Z</time></trkpt><trkpt lat="44.4308877" lon="11.4175266"><ele>218.99999999999997</ele><time>2026-05-01T08:31:52.96Z</time></trkpt><trkpt lat="44.430852" lon="11.4176312"><ele>218.99999999999997</ele><time>2026-05-01T08:31:54.961Z</time></trkpt><trkpt lat="44.4308189" lon="11.4177544"><ele>219.0</ele><time>2026-05-01T08:31:56.97Z</time></trkpt><trkpt lat="44.4307839" lon="11.4178764"><ele>219.0</ele><time>2026-05-01T08:31:58.958Z</time></trkpt><trkpt lat="44.4307476" lon="11.4180106"><ele>219.0</ele><time>2026-05-01T08:32:00.962Z</time></trkpt><trkpt lat="44.4307298" lon="11.4181388"><ele>219.0</ele><time>2026-05-01T08:32:02.961Z</time></trkpt><trkpt lat="44.4307268" lon="11.4182694"><ele>219.0</ele><time>2026-05-01T08:32:04.961Z</time></trkpt><trkpt lat="44.4307376" lon="11.4183926"><ele>219.0</ele><time>2026-05-01T08:32:06.964Z</time></trkpt><trkpt lat="44.4307559" lon="11.4184965"><ele>219.0</ele><time>2026-05-01T08:32:08.956Z</time></trkpt><trkpt lat="44.4307735" lon="11.4185977"><ele>219.0</ele><time>2026-05-01T08:32:10.958Z</time></trkpt><trkpt lat="44.4307899" lon="11.418698"><ele>219.0</ele><time>2026-05-01T08:32:12.963Z</time></trkpt><trkpt lat="44.4308058" lon="11.4187849"><ele>219.0</ele><time>2026-05-01T08:32:14.965Z</time></trkpt><trkpt lat="44.4308152" lon="11.4188741"><ele>219.0</ele><time>2026-05-01T08:32:16.957Z</time></trkpt><trkpt lat="44.4308311" lon="11.418991"><ele>219.0</ele><time>2026-05-01T08:32:19.964Z</time></trkpt><trkpt lat="44.4308417" lon="11.4191035"><ele>219.0</ele><time>2026-05-01T08:32:22.965Z</time></trkpt><trkpt lat="44.4308576" lon="11.4192102"><ele>219.0</ele><time>2026-05-01T08:32:25.96Z</time></trkpt><trkpt lat="44.4308634" lon="11.4193216"><ele>220.33333333333334</ele><time>2026-05-01T08:32:28.966Z</time></trkpt><trkpt lat="44.4308736" lon="11.4194253"><ele>221.66666666666669</ele><time>2026-05-01T08:32:31.964Z</time></trkpt><trkpt lat="44.430893" lon="11.4195098"><ele>223.0</ele><time>2026-05-01T08:32:34.953Z</time></trkpt><trkpt lat="44.4309354" lon="11.419589"><ele>224.33333333333334</ele><time>2026-05-01T08:32:37.968Z</time></trkpt><trkpt lat="44.4310023" lon="11.4196686"><ele>225.66666666666669</ele><time>2026-05-01T08:32:40.967Z</time></trkpt><trkpt lat="44.4310664" lon="11.419748"><ele>227.0</ele><time>2026-05-01T08:32:43.97Z</time></trkpt><trkpt lat="44.4311273" lon="11.4198427"><ele>228.0</ele><time>2026-05-01T08:32:46.961Z</time></trkpt><trkpt lat="44.4311599" lon="11.4199366"><ele>229.0</ele><time>2026-05-01T08:32:48.97Z</time></trkpt><trkpt lat="44.4311543" lon="11.4200546"><ele>230.0</ele><time>2026-05-01T08:32:50.959Z</time></trkpt><trkpt lat="44.4311216" lon="11.4201947"><ele>231.0</ele><time>2026-05-01T08:32:52.973Z</time></trkpt><trkpt lat="44.4310456" lon="11.4203478"><ele>232.0</ele><time>2026-05-01T08:32:54.97Z</time></trkpt><trkpt lat="44.4310051" lon="11.4204339"><ele>230.2</ele><time>2026-05-01T08:32:55.962Z</time></trkpt><trkpt lat="44.430964" lon="11.4205172"><ele>228.39999999999998</ele><time>2026-05-01T08:32:56.962Z</time></trkpt><trkpt lat="44.4308999" lon="11.4206582"><ele>226.60000000000002</ele><time>2026-05-01T08:32:58.975Z</time></trkpt><trkpt lat="44.4308317" lon="11.4208047"><ele>224.8</ele><time>2026-05-01T08:33:00.96Z</time></trkpt><trkpt lat="44.4308" lon="11.4208885"><ele>223.0</ele><time>2026-05-01T08:33:01.956Z</time></trkpt><trkpt lat="44.4307772" lon="11.4209787"><ele>222.99999999999997</ele><time>2026-05-01T08:33:02.956Z</time></trkpt><trkpt lat="44.4307626" lon="11.421077"><ele>223.0</ele><time>2026-05-01T08:33:03.957Z</time></trkpt><trkpt lat="44.4307588" lon="11.4211874"><ele>223.0</ele><time>2026-05-01T08:33:04.961Z</time></trkpt><trkpt lat="44.4307568" lon="11.4212932"><ele>223.0</ele><time>2026-05-01T08:33:05.974Z</time></trkpt><trkpt lat="44.4307597" lon="11.4214023"><ele>222.99999999999997</ele><time>2026-05-01T08:33:06.965Z</time></trkpt><trkpt lat="44.4307631" lon="11.421515"><ele>223.0</ele><time>2026-05-01T08:33:07.966Z</time></trkpt><trkpt lat="44.4307604" lon="11.4216254"><ele>221.99999999999997</ele><time>2026-05-01T08:33:08.962Z</time></trkpt><trkpt lat="44.4307575" lon="11.4217377"><ele>221.0</ele><time>2026-05-01T08:33:09.968Z</time></trkpt><trkpt lat="44.4307599" lon="11.4218555"><ele>220.0</ele><time>2026-05-01T08:33:10.961Z</time></trkpt><trkpt lat="44.4307652" lon="11.421966"><ele>219.0</ele><time>2026-05-01T08:33:11.961Z</time></trkpt><trkpt lat="44.4307852" lon="11.4220755"><ele>217.99999999999997</ele><time>2026-05-01T08:33:12.955Z</time></trkpt><trkpt lat="44.4308193" lon="11.4221827"><ele>217.0</ele><time>2026-05-01T08:33:13.955Z</time></trkpt><trkpt lat="44.4308614" lon="11.4222848"><ele>216.33333333333331</ele><time>2026-05-01T08:33:14.959Z</time></trkpt><trkpt lat="44.4309026" lon="11.4223861"><ele>215.66666666666666</ele><time>2026-05-01T08:33:15.959Z</time></trkpt><trkpt lat="44.4309489" lon="11.4224762"><ele>215.0</ele><time>2026-05-01T08:33:16.96Z</time></trkpt><trkpt lat="44.4309961" lon="11.4225653"><ele>214.33333333333331</ele><time>2026-05-01T08:33:17.958Z</time></trkpt><trkpt lat="44.4310513" lon="11.4226555"><ele>213.66666666666666</ele><time>2026-05-01T08:33:18.959Z</time></trkpt><trkpt lat="44.4311083" lon="11.4227356"><ele>213.0</ele><time>2026-05-01T08:33:19.956Z</time></trkpt><trkpt lat="44.4311626" lon="11.4228208"><ele>213.0</ele><time>2026-05-01T08:33:20.955Z</time></trkpt><trkpt lat="44.4312237" lon="11.4229122"><ele>213.0</ele><time>2026-05-01T08:33:21.957Z</time></trkpt><trkpt lat="44.4312824" lon="11.4230058"><ele>213.0</ele><time>2026-05-01T08:33:22.958Z</time></trkpt><trkpt lat="44.4313421" lon="11.4230996"><ele>213.0</ele><time>2026-05-01T08:33:23.953Z</time></trkpt><trkpt lat="44.4313976" lon="11.4231906"><ele>213.0</ele><time>2026-05-01T08:33:24.955Z</time></trkpt><trkpt lat="44.4314457" lon="11.4232814"><ele>213.0</ele><time>2026-05-01T08:33:25.962Z</time></trkpt><trkpt lat="44.431494" lon="11.4233515"><ele>212.83333333333334</ele><time>2026-05-01T08:33:26.968Z</time></trkpt><trkpt lat="44.4315516" lon="11.4234059"><ele>212.66666666666669</ele><time>2026-05-01T08:33:27.957Z</time></trkpt><trkpt lat="44.4316201" lon="11.4234471"><ele>212.5</ele><time>2026-05-01T08:33:28.961Z</time></trkpt><trkpt lat="44.4316862" lon="11.4234937"><ele>212.33333333333334</ele><time>2026-05-01T08:33:29.953Z</time></trkpt><trkpt lat="44.4317586" lon="11.4235432"><ele>212.16666666666669</ele><time>2026-05-01T08:33:30.957Z</time></trkpt><trkpt lat="44.4318324" lon="11.4235884"><ele>212.0</ele><time>2026-05-01T08:33:31.955Z</time></trkpt><trkpt lat="44.4319015" lon="11.4236427"><ele>212.00000000000003</ele><time>2026-05-01T08:33:32.955Z</time></trkpt><trkpt lat="44.431971" lon="11.4237017"><ele>212.0</ele><time>2026-05-01T08:33:33.956Z</time></trkpt><trkpt lat="44.4320372" lon="11.4237572"><ele>212.0</ele><time>2026-05-01T08:33:34.958Z</time></trkpt><trkpt lat="44.4321063" lon="11.42381"><ele>212.0</ele><time>2026-05-01T08:33:35.953Z</time></trkpt><trkpt lat="44.4321768" lon="11.423862"><ele>212.00000000000003</ele><time>2026-05-01T08:33:36.953Z</time></trkpt><trkpt lat="44.4322476" lon="11.4239119"><ele>212.0</ele><time>2026-05-01T08:33:37.956Z</time></trkpt><trkpt lat="44.4323252" lon="11.4239599"><ele>210.16666666666669</ele><time>2026-05-01T08:33:38.957Z</time></trkpt><trkpt lat="44.4324064" lon="11.4240055"><ele>208.33333333333334</ele><time>2026-05-01T08:33:39.955Z</time></trkpt><trkpt lat="44.4324882" lon="11.4240399"><ele>206.5</ele><time>2026-05-01T08:33:40.962Z</time></trkpt><trkpt lat="44.432568" lon="11.4240629"><ele>204.66666666666669</ele><time>2026-05-01T08:33:41.95Z</time></trkpt><trkpt lat="44.432637" lon="11.4240825"><ele>202.83333333333334</ele><time>2026-05-01T08:33:42.952Z</time></trkpt><trkpt lat="44.4327134" lon="11.4240827"><ele>201.0</ele><time>2026-05-01T08:33:43.953Z</time></trkpt><trkpt lat="44.4327766" lon="11.4240799"><ele>201.0</ele><time>2026-05-01T08:33:44.96Z</time></trkpt><trkpt lat="44.4328945" lon="11.4240405"><ele>201.0</ele><time>2026-05-01T08:33:46.958Z</time></trkpt><trkpt lat="44.4329776" lon="11.4240056"><ele>201.0</ele><time>2026-05-01T08:33:48.957Z</time></trkpt><trkpt lat="44.4330728" lon="11.424002"><ele>201.0</ele><time>2026-05-01T08:33:51.966Z</time></trkpt><trkpt lat="44.4331787" lon="11.4240212"><ele>201.0</ele><time>2026-05-01T08:33:53.955Z</time></trkpt><trkpt lat="44.433254" lon="11.4240317"><ele>197.60000000000002</ele><time>2026-05-01T08:33:54.96Z</time></trkpt><trkpt lat="44.4333381" lon="11.4240496"><ele>194.2</ele><time>2026-05-01T08:33:55.969Z</time></trkpt><trkpt lat="44.4334287" lon="11.424063"><ele>190.8</ele><time>2026-05-01T08:33:56.958Z</time></trkpt><trkpt lat="44.4335216" lon="11.4240869"><ele>187.39999999999998</ele><time>2026-05-01T08:33:57.967Z</time></trkpt><trkpt lat="44.4336119" lon="11.4241305"><ele>184.0</ele><time>2026-05-01T08:33:58.967Z</time></trkpt><trkpt lat="44.4337017" lon="11.4241785"><ele>184.0</ele><time>2026-05-01T08:33:59.972Z</time></trkpt><trkpt lat="44.4337934" lon="11.4242266"><ele>184.0</ele><time>2026-05-01T08:34:00.971Z</time></trkpt><trkpt lat="44.4338813" lon="11.424284"><ele>184.0</ele><time>2026-05-01T08:34:01.979Z</time></trkpt><trkpt lat="44.4339678" lon="11.4243531"><ele>184.0</ele><time>2026-05-01T08:34:02.968Z</time></trkpt><trkpt lat="44.4340527" lon="11.4244361"><ele>184.0</ele><time>2026-05-01T08:34:03.96Z</time></trkpt><trkpt lat="44.4341329" lon="11.424522"><ele>181.6</ele><time>2026-05-01T08:34:04.962Z</time></trkpt><trkpt lat="44.4342044" lon="11.4246075"><ele>179.2</ele><time>2026-05-01T08:34:05.96Z</time></trkpt><trkpt lat="44.4342839" lon="11.4246857"><ele>176.79999999999998</ele><time>2026-05-01T08:34:06.963Z</time></trkpt><trkpt lat="44.4343536" lon="11.4247608"><ele>174.39999999999998</ele><time>2026-05-01T08:34:07.958Z</time></trkpt><trkpt lat="44.4344227" lon="11.4248374"><ele>172.0</ele><time>2026-05-01T08:34:08.957Z</time></trkpt><trkpt lat="44.4344885" lon="11.4249153"><ele>171.66666666666669</ele><time>2026-05-01T08:34:09.969Z</time></trkpt><trkpt lat="44.4345506" lon="11.4249773"><ele>171.33333333333334</ele><time>2026-05-01T08:34:10.968Z</time></trkpt><trkpt lat="44.4346083" lon="11.4250323"><ele>171.0</ele><time>2026-05-01T08:34:11.968Z</time></trkpt><trkpt lat="44.4346676" lon="11.4250796"><ele>170.66666666666666</ele><time>2026-05-01T08:34:12.964Z</time></trkpt><trkpt lat="44.4347384" lon="11.4251224"><ele>170.33333333333331</ele><time>2026-05-01T08:34:13.962Z</time></trkpt><trkpt lat="44.4348167" lon="11.425155"><ele>170.0</ele><time>2026-05-01T08:34:14.96Z</time></trkpt><trkpt lat="44.4349023" lon="11.425179"><ele>168.5</ele><time>2026-05-01T08:34:15.968Z</time></trkpt><trkpt lat="44.4349916" lon="11.4251856"><ele>167.0</ele><time>2026-05-01T08:34:16.967Z</time></trkpt><trkpt lat="44.4350622" lon="11.4252037"><ele>165.5</ele><time>2026-05-01T08:34:17.949Z</time></trkpt><trkpt lat="44.4351277" lon="11.4252227"><ele>164.0</ele><time>2026-05-01T08:34:18.945Z</time></trkpt><trkpt lat="44.4351953" lon="11.4252566"><ele>162.5</ele><time>2026-05-01T08:34:19.96Z</time></trkpt><trkpt lat="44.4352779" lon="11.4252937"><ele>161.0</ele><time>2026-05-01T08:34:20.95Z</time></trkpt><trkpt lat="44.4353657" lon="11.4253534"><ele>161.0</ele><time>2026-05-01T08:34:21.975Z</time></trkpt><trkpt lat="44.4354482" lon="11.425417"><ele>161.0</ele><time>2026-05-01T08:34:22.971Z</time></trkpt><trkpt lat="44.4355358" lon="11.4254917"><ele>161.0</ele><time>2026-05-01T08:34:23.969Z</time></trkpt><trkpt lat="44.4356223" lon="11.4255746"><ele>161.0</ele><time>2026-05-01T08:34:24.968Z</time></trkpt><trkpt lat="44.4357213" lon="11.4256581"><ele>161.0</ele><time>2026-05-01T08:34:25.976Z</time></trkpt><trkpt lat="44.4358223" lon="11.4257337"><ele>157.66666666666666</ele><time>2026-05-01T08:34:26.96Z</time></trkpt><trkpt lat="44.4359172" lon="11.4258031"><ele>154.33333333333331</ele><time>2026-05-01T08:34:27.974Z</time></trkpt><trkpt lat="44.4360005" lon="11.4258626"><ele>151.0</ele><time>2026-05-01T08:34:28.973Z</time></trkpt><trkpt lat="44.4360752" lon="11.4259242"><ele>147.66666666666666</ele><time>2026-05-01T08:34:29.963Z</time></trkpt><trkpt lat="44.4361405" lon="11.4259909"><ele>144.33333333333334</ele><time>2026-05-01T08:34:30.973Z</time></trkpt><trkpt lat="44.4361927" lon="11.4260568"><ele>141.0</ele><time>2026-05-01T08:34:31.952Z</time></trkpt><trkpt lat="44.4362638" lon="11.4262049"><ele>141.0</ele><time>2026-05-01T08:34:33.956Z</time></trkpt><trkpt lat="44.4362984" lon="11.4263016"><ele>141.0</ele><time>2026-05-01T08:34:34.962Z</time></trkpt><trkpt lat="44.4363399" lon="11.4264072"><ele>141.0</ele><time>2026-05-01T08:34:35.966Z</time></trkpt><trkpt lat="44.4363888" lon="11.4265225"><ele>141.0</ele><time>2026-05-01T08:34:36.974Z</time></trkpt><trkpt lat="44.43644" lon="11.4266345"><ele>141.0</ele><time>2026-05-01T08:34:37.966Z</time></trkpt><trkpt lat="44.4364937" lon="11.42674"><ele>141.0</ele><time>2026-05-01T08:34:38.969Z</time></trkpt><trkpt lat="44.4365368" lon="11.4268472"><ele>138.5</ele><time>2026-05-01T08:34:39.958Z</time></trkpt><trkpt lat="44.4365766" lon="11.4269546"><ele>136.0</ele><time>2026-05-01T08:34:40.977Z</time></trkpt><trkpt lat="44.4366148" lon="11.4270523"><ele>133.5</ele><time>2026-05-01T08:34:41.962Z</time></trkpt><trkpt lat="44.4366539" lon="11.4271498"><ele>131.0</ele><time>2026-05-01T08:34:42.971Z</time></trkpt><trkpt lat="44.43669" lon="11.4272451"><ele>128.5</ele><time>2026-05-01T08:34:43.969Z</time></trkpt><trkpt lat="44.436721" lon="11.4273321"><ele>126.0</ele><time>2026-05-01T08:34:44.973Z</time></trkpt><trkpt lat="44.4367433" lon="11.4274254"><ele>124.66666666666667</ele><time>2026-05-01T08:34:45.961Z</time></trkpt><trkpt lat="44.4367586" lon="11.4275272"><ele>123.33333333333334</ele><time>2026-05-01T08:34:46.963Z</time></trkpt><trkpt lat="44.4367644" lon="11.4276401"><ele>122.0</ele><time>2026-05-01T08:34:47.971Z</time></trkpt><trkpt lat="44.4367701" lon="11.4277528"><ele>120.66666666666667</ele><time>2026-05-01T08:34:48.962Z</time></trkpt><trkpt lat="44.4367796" lon="11.4278775"><ele>119.33333333333334</ele><time>2026-05-01T08:34:49.964Z</time></trkpt><trkpt lat="44.4367882" lon="11.4280051"><ele>118.0</ele><time>2026-05-01T08:34:50.952Z</time></trkpt><trkpt lat="44.4367914" lon="11.4281195"><ele>117.4</ele><time>2026-05-01T08:34:51.959Z</time></trkpt><trkpt lat="44.4367949" lon="11.4282097"><ele>116.80000000000001</ele><time>2026-05-01T08:34:52.963Z</time></trkpt><trkpt lat="44.4368037" lon="11.4283692"><ele>116.2</ele><time>2026-05-01T08:34:54.977Z</time></trkpt><trkpt lat="44.4368252" lon="11.4285435"><ele>115.6</ele><time>2026-05-01T08:34:56.966Z</time></trkpt><trkpt lat="44.4368349" lon="11.4286457"><ele>115.0</ele><time>2026-05-01T08:34:57.961Z</time></trkpt><trkpt lat="44.4368362" lon="11.4287526"><ele>114.6</ele><time>2026-05-01T08:34:58.958Z</time></trkpt><trkpt lat="44.4368393" lon="11.4288656"><ele>114.2</ele><time>2026-05-01T08:34:59.958Z</time></trkpt><trkpt lat="44.4368454" lon="11.4289887"><ele>113.80000000000001</ele><time>2026-05-01T08:35:00.958Z</time></trkpt><trkpt lat="44.4368528" lon="11.4291145"><ele>113.4</ele><time>2026-05-01T08:35:01.961Z</time></trkpt><trkpt lat="44.4368545" lon="11.4292534"><ele>113.0</ele><time>2026-05-01T08:35:02.964Z</time></trkpt><trkpt lat="44.4368515" lon="11.4293914"><ele>113.0</ele><time>2026-05-01T08:35:03.967Z</time></trkpt><trkpt lat="44.4368493" lon="11.4295285"><ele>113.00000000000001</ele><time>2026-05-01T08:35:04.96Z</time></trkpt><trkpt lat="44.436849" lon="11.4296705"><ele>113.00000000000001</ele><time>2026-05-01T08:35:05.959Z</time></trkpt><trkpt lat="44.4368438" lon="11.4298186"><ele>113.0</ele><time>2026-05-01T08:35:06.953Z</time></trkpt><trkpt lat="44.4368432" lon="11.4299654"><ele>113.0</ele><time>2026-05-01T08:35:07.966Z</time></trkpt><trkpt lat="44.436846" lon="11.4301124"><ele>112.0</ele><time>2026-05-01T08:35:08.956Z</time></trkpt><trkpt lat="44.4368481" lon="11.4302531"><ele>111.00000000000001</ele><time>2026-05-01T08:35:09.952Z</time></trkpt><trkpt lat="44.436842" lon="11.4304006"><ele>110.00000000000001</ele><time>2026-05-01T08:35:10.951Z</time></trkpt><trkpt lat="44.4368446" lon="11.4305365"><ele>109.0</ele><time>2026-05-01T08:35:11.956Z</time></trkpt><trkpt lat="44.4368497" lon="11.4306639"><ele>108.0</ele><time>2026-05-01T08:35:12.953Z</time></trkpt><trkpt lat="44.4368506" lon="11.4307882"><ele>106.33333333333333</ele><time>2026-05-01T08:35:13.956Z</time></trkpt><trkpt lat="44.4368521" lon="11.4309192"><ele>104.66666666666666</ele><time>2026-05-01T08:35:14.955Z</time></trkpt><trkpt lat="44.4368481" lon="11.4310375"><ele>103.0</ele><time>2026-05-01T08:35:15.958Z</time></trkpt><trkpt lat="44.4368496" lon="11.4311349"><ele>101.33333333333333</ele><time>2026-05-01T08:35:16.956Z</time></trkpt><trkpt lat="44.4368474" lon="11.4312809"><ele>99.66666666666666</ele><time>2026-05-01T08:35:18.967Z</time></trkpt><trkpt lat="44.4368516" lon="11.4313797"><ele>98.0</ele><time>2026-05-01T08:35:20.946Z</time></trkpt><trkpt lat="44.436876" lon="11.4314709"><ele>97.66666666666666</ele><time>2026-05-01T08:35:24.962Z</time></trkpt><trkpt lat="44.4369438" lon="11.4315035"><ele>97.33333333333333</ele><time>2026-05-01T08:35:27.956Z</time></trkpt><trkpt lat="44.4370133" lon="11.4315131"><ele>97.0</ele><time>2026-05-01T08:35:29.958Z</time></trkpt><trkpt lat="44.437093" lon="11.4315234"><ele>96.66666666666666</ele><time>2026-05-01T08:35:31.962Z</time></trkpt><trkpt lat="44.4371912" lon="11.4315492"><ele>96.33333333333333</ele><time>2026-05-01T08:35:33.952Z</time></trkpt><trkpt lat="44.4372905" lon="11.4315658"><ele>96.0</ele><time>2026-05-01T08:35:35.958Z</time></trkpt><trkpt lat="44.4373941" lon="11.4315896"><ele>96.0</ele><time>2026-05-01T08:35:37.96Z</time></trkpt><trkpt lat="44.4375065" lon="11.4316167"><ele>96.0</ele><time>2026-05-01T08:35:39.959Z</time></trkpt><trkpt lat="44.4376215" lon="11.4316328"><ele>96.0</ele><time>2026-05-01T08:35:41.953Z</time></trkpt><trkpt lat="44.4377272" lon="11.4316473"><ele>96.0</ele><time>2026-05-01T08:35:43.953Z</time></trkpt><trkpt lat="44.43783" lon="11.4316611"><ele>96.0</ele><time>2026-05-01T08:35:45.958Z</time></trkpt><trkpt lat="44.4379322" lon="11.4316707"><ele>96.8</ele><time>2026-05-01T08:35:47.947Z</time></trkpt><trkpt lat="44.4380276" lon="11.4316824"><ele>97.6</ele><time>2026-05-01T08:35:49.954Z</time></trkpt><trkpt lat="44.4381216" lon="11.4317055"><ele>98.4</ele><time>2026-05-01T08:35:51.955Z</time></trkpt><trkpt lat="44.4382138" lon="11.4317281"><ele>99.2</ele><time>2026-05-01T08:35:53.953Z</time></trkpt><trkpt lat="44.4383012" lon="11.4317425"><ele>100.0</ele><time>2026-05-01T08:35:55.977Z</time></trkpt><trkpt lat="44.4383842" lon="11.4317497"><ele>100.00000000000001</ele><time>2026-05-01T08:35:57.968Z</time></trkpt><trkpt lat="44.4384507" lon="11.4317694"><ele>100.0</ele><time>2026-05-01T08:35:59.955Z</time></trkpt><trkpt lat="44.4385056" lon="11.4318145"><ele>100.0</ele><time>2026-05-01T08:36:01.962Z</time></trkpt><trkpt lat="44.4385615" lon="11.4318635"><ele>100.0</ele><time>2026-05-01T08:36:03.963Z</time></trkpt><trkpt lat="44.4386132" lon="11.4319144"><ele>100.0</ele><time>2026-05-01T08:36:05.965Z</time></trkpt><trkpt lat="44.438691" lon="11.4319951"><ele>100.00000000000001</ele><time>2026-05-01T08:36:08.968Z</time></trkpt><trkpt lat="44.4387462" lon="11.4320523"><ele>100.0</ele><time>2026-05-01T08:36:10.964Z</time></trkpt><trkpt lat="44.4388079" lon="11.4320984"><ele>98.8</ele><time>2026-05-01T08:36:12.966Z</time></trkpt><trkpt lat="44.4388869" lon="11.4321496"><ele>97.6</ele><time>2026-05-01T08:36:14.95Z</time></trkpt><trkpt lat="44.4389732" lon="11.4322015"><ele>96.4</ele><time>2026-05-01T08:36:16.963Z</time></trkpt><trkpt lat="44.4390682" lon="11.4322584"><ele>95.2</ele><time>2026-05-01T08:36:18.957Z</time></trkpt><trkpt lat="44.439165" lon="11.4323073"><ele>94.0</ele><time>2026-05-01T08:36:20.963Z</time></trkpt><trkpt lat="44.4392702" lon="11.4323634"><ele>94.0</ele><time>2026-05-01T08:36:23.034Z</time></trkpt><trkpt lat="44.4393723" lon="11.432419"><ele>94.0</ele><time>2026-05-01T08:36:24.977Z</time></trkpt><trkpt lat="44.4394779" lon="11.4324739"><ele>94.0</ele><time>2026-05-01T08:36:26.974Z</time></trkpt><trkpt lat="44.4395787" lon="11.4325422"><ele>94.0</ele><time>2026-05-01T08:36:28.981Z</time></trkpt><trkpt lat="44.4396782" lon="11.4326232"><ele>94.0</ele><time>2026-05-01T08:36:31.03Z</time></trkpt><trkpt lat="44.4397821" lon="11.4327257"><ele>94.28571428571428</ele><time>2026-05-01T08:36:32.987Z</time></trkpt><trkpt lat="44.4398356" lon="11.432777"><ele>94.57142857142857</ele><time>2026-05-01T08:36:33.98Z</time></trkpt><trkpt lat="44.43989" lon="11.432827"><ele>94.85714285714286</ele><time>2026-05-01T08:36:34.974Z</time></trkpt><trkpt lat="44.4399442" lon="11.4328781"><ele>95.14285714285714</ele><time>2026-05-01T08:36:36.03Z</time></trkpt><trkpt lat="44.4399974" lon="11.432932"><ele>95.42857142857143</ele><time>2026-05-01T08:36:36.971Z</time></trkpt><trkpt lat="44.4400522" lon="11.4329891"><ele>95.71428571428571</ele><time>2026-05-01T08:36:38.042Z</time></trkpt><trkpt lat="44.440108" lon="11.4330513"><ele>96.0</ele><time>2026-05-01T08:36:38.99Z</time></trkpt><trkpt lat="44.440165" lon="11.4331008"><ele>95.85714285714285</ele><time>2026-05-01T08:36:39.979Z</time></trkpt><trkpt lat="44.4402192" lon="11.4331507"><ele>95.71428571428571</ele><time>2026-05-01T08:36:40.974Z</time></trkpt><trkpt lat="44.4402811" lon="11.4331968"><ele>95.57142857142857</ele><time>2026-05-01T08:36:41.978Z</time></trkpt><trkpt lat="44.440342" lon="11.4332384"><ele>95.42857142857142</ele><time>2026-05-01T08:36:42.972Z</time></trkpt><trkpt lat="44.4404029" lon="11.4332778"><ele>95.28571428571429</ele><time>2026-05-01T08:36:43.975Z</time></trkpt><trkpt lat="44.4404661" lon="11.4333183"><ele>95.14285714285714</ele><time>2026-05-01T08:36:44.979Z</time></trkpt><trkpt lat="44.4405293" lon="11.4333573"><ele>95.0</ele><time>2026-05-01T08:36:45.976Z</time></trkpt><trkpt lat="44.4405979" lon="11.4334002"><ele>95.0</ele><time>2026-05-01T08:36:46.973Z</time></trkpt><trkpt lat="44.4406627" lon="11.4334431"><ele>95.0</ele><time>2026-05-01T08:36:47.987Z</time></trkpt><trkpt lat="44.4407259" lon="11.433495"><ele>95.0</ele><time>2026-05-01T08:36:49.001Z</time></trkpt><trkpt lat="44.4407882" lon="11.4335517"><ele>95.0</ele><time>2026-05-01T08:36:49.972Z</time></trkpt><trkpt lat="44.4408573" lon="11.4336095"><ele>95.0</ele><time>2026-05-01T08:36:51.034Z</time></trkpt><trkpt lat="44.4409286" lon="11.4336704"><ele>95.0</ele><time>2026-05-01T08:36:51.98Z</time></trkpt><trkpt lat="44.4409991" lon="11.4337312"><ele>95.0</ele><time>2026-05-01T08:36:52.974Z</time></trkpt><trkpt lat="44.4410692" lon="11.4337918"><ele>95.0</ele><time>2026-05-01T08:36:53.987Z</time></trkpt><trkpt lat="44.4411403" lon="11.4338547"><ele>95.0</ele><time>2026-05-01T08:36:55.032Z</time></trkpt><trkpt lat="44.4412114" lon="11.4339173"><ele>95.0</ele><time>2026-05-01T08:36:55.976Z</time></trkpt><trkpt lat="44.4412815" lon="11.4339834"><ele>95.0</ele><time>2026-05-01T08:36:56.957Z</time></trkpt><trkpt lat="44.4413482" lon="11.4340409"><ele>95.0</ele><time>2026-05-01T08:36:57.96Z</time></trkpt><trkpt lat="44.4414189" lon="11.4340953"><ele>94.16666666666667</ele><time>2026-05-01T08:36:58.969Z</time></trkpt><trkpt lat="44.4414901" lon="11.4341318"><ele>93.33333333333334</ele><time>2026-05-01T08:36:59.97Z</time></trkpt><trkpt lat="44.4415652" lon="11.4341691"><ele>92.5</ele><time>2026-05-01T08:37:00.973Z</time></trkpt><trkpt lat="44.4416443" lon="11.4342049"><ele>91.66666666666667</ele><time>2026-05-01T08:37:01.969Z</time></trkpt><trkpt lat="44.4417158" lon="11.4342361"><ele>90.83333333333333</ele><time>2026-05-01T08:37:02.967Z</time></trkpt><trkpt lat="44.4417966" lon="11.4342583"><ele>90.0</ele><time>2026-05-01T08:37:04.03Z</time></trkpt><trkpt lat="44.4418794" lon="11.4342832"><ele>90.0</ele><time>2026-05-01T08:37:04.967Z</time></trkpt><trkpt lat="44.4419647" lon="11.4343111"><ele>90.0</ele><time>2026-05-01T08:37:05.973Z</time></trkpt><trkpt lat="44.4420488" lon="11.434343"><ele>90.0</ele><time>2026-05-01T08:37:06.971Z</time></trkpt><trkpt lat="44.4421377" lon="11.43437"><ele>90.0</ele><time>2026-05-01T08:37:07.968Z</time></trkpt><trkpt lat="44.4422291" lon="11.4343983"><ele>90.0</ele><time>2026-05-01T08:37:08.97Z</time></trkpt><trkpt lat="44.4423077" lon="11.4344341"><ele>90.0</ele><time>2026-05-01T08:37:10.034Z</time></trkpt><trkpt lat="44.4423871" lon="11.4344794"><ele>89.0</ele><time>2026-05-01T08:37:10.966Z</time></trkpt><trkpt lat="44.4424686" lon="11.4345333"><ele>88.0</ele><time>2026-05-01T08:37:11.97Z</time></trkpt><trkpt lat="44.4425532" lon="11.4345861"><ele>87.0</ele><time>2026-05-01T08:37:12.972Z</time></trkpt><trkpt lat="44.4426351" lon="11.4346301"><ele>86.0</ele><time>2026-05-01T08:37:13.969Z</time></trkpt><trkpt lat="44.4427222" lon="11.4346793"><ele>85.0</ele><time>2026-05-01T08:37:15.04Z</time></trkpt><trkpt lat="44.4427979" lon="11.434718"><ele>84.0</ele><time>2026-05-01T08:37:15.978Z</time></trkpt><trkpt lat="44.4428606" lon="11.4347535"><ele>82.2</ele><time>2026-05-01T08:37:16.964Z</time></trkpt><trkpt lat="44.4429648" lon="11.4347988"><ele>80.4</ele><time>2026-05-01T08:37:19.04Z</time></trkpt><trkpt lat="44.4430717" lon="11.4348661"><ele>78.6</ele><time>2026-05-01T08:37:21.036Z</time></trkpt><trkpt lat="44.4431913" lon="11.4349407"><ele>76.8</ele><time>2026-05-01T08:37:23.027Z</time></trkpt><trkpt lat="44.4432588" lon="11.4349789"><ele>75.0</ele><time>2026-05-01T08:37:24.029Z</time></trkpt><trkpt lat="44.443322" lon="11.435016"><ele>74.99999999999999</ele><time>2026-05-01T08:37:25.038Z</time></trkpt><trkpt lat="44.4433872" lon="11.435051"><ele>75.0</ele><time>2026-05-01T08:37:26.037Z</time></trkpt><trkpt lat="44.4434493" lon="11.4350904"><ele>75.0</ele><time>2026-05-01T08:37:27.032Z</time></trkpt><trkpt lat="44.4435143" lon="11.4351318"><ele>75.0</ele><time>2026-05-01T08:37:28.027Z</time></trkpt><trkpt lat="44.4435826" lon="11.4351693"><ele>75.0</ele><time>2026-05-01T08:37:29.018Z</time></trkpt><trkpt lat="44.4436489" lon="11.4352083"><ele>74.99999999999999</ele><time>2026-05-01T08:37:30.017Z</time></trkpt><trkpt lat="44.4437179" lon="11.4352409"><ele>75.0</ele><time>2026-05-01T08:37:31.02Z</time></trkpt><trkpt lat="44.4437845" lon="11.4352784"><ele>75.0</ele><time>2026-05-01T08:37:32.019Z</time></trkpt><trkpt lat="44.4438508" lon="11.435323"><ele>75.0</ele><time>2026-05-01T08:37:33.024Z</time></trkpt><trkpt lat="44.4439168" lon="11.4353675"><ele>75.0</ele><time>2026-05-01T08:37:34.015Z</time></trkpt><trkpt lat="44.4439769" lon="11.4354184"><ele>75.0</ele><time>2026-05-01T08:37:35.027Z</time></trkpt><trkpt lat="44.4440349" lon="11.4354841"><ele>75.0</ele><time>2026-05-01T08:37:36.017Z</time></trkpt><trkpt lat="44.4440879" lon="11.435568"><ele>75.0</ele><time>2026-05-01T08:37:37.016Z</time></trkpt><trkpt lat="44.4441295" lon="11.4356623"><ele>75.0</ele><time>2026-05-01T08:37:38.011Z</time></trkpt><trkpt lat="44.4441585" lon="11.4357681"><ele>75.0</ele><time>2026-05-01T08:37:39.015Z</time></trkpt><trkpt lat="44.4441882" lon="11.435877"><ele>75.0</ele><time>2026-05-01T08:37:40.016Z</time></trkpt><trkpt lat="44.4442138" lon="11.4359801"><ele>75.0</ele><time>2026-05-01T08:37:41.016Z</time></trkpt><trkpt lat="44.4442316" lon="11.4360842"><ele>75.0</ele><time>2026-05-01T08:37:42.014Z</time></trkpt><trkpt lat="44.4442398" lon="11.436191"><ele>75.0</ele><time>2026-05-01T08:37:43.024Z</time></trkpt><trkpt lat="44.4442289" lon="11.4362967"><ele>74.0</ele><time>2026-05-01T08:37:44.017Z</time></trkpt><trkpt lat="44.444208" lon="11.4364105"><ele>73.0</ele><time>2026-05-01T08:37:45.023Z</time></trkpt><trkpt lat="44.4441734" lon="11.436526"><ele>72.0</ele><time>2026-05-01T08:37:46.018Z</time></trkpt><trkpt lat="44.4441326" lon="11.4366295"><ele>71.0</ele><time>2026-05-01T08:37:47.021Z</time></trkpt><trkpt lat="44.444097" lon="11.4367437"><ele>70.0</ele><time>2026-05-01T08:37:48.02Z</time></trkpt><trkpt lat="44.4440599" lon="11.4368582"><ele>69.0</ele><time>2026-05-01T08:37:49.014Z</time></trkpt><trkpt lat="44.444031" lon="11.4369736"><ele>69.0</ele><time>2026-05-01T08:37:50.02Z</time></trkpt><trkpt lat="44.4440097" lon="11.4370894"><ele>69.0</ele><time>2026-05-01T08:37:51.028Z</time></trkpt><trkpt lat="44.4440084" lon="11.4372054"><ele>69.0</ele><time>2026-05-01T08:37:52.022Z</time></trkpt><trkpt lat="44.444018" lon="11.4373267"><ele>69.0</ele><time>2026-05-01T08:37:53.026Z</time></trkpt><trkpt lat="44.4440366" lon="11.4374336"><ele>69.0</ele><time>2026-05-01T08:37:54.081Z</time></trkpt><trkpt lat="44.4440601" lon="11.4375435"><ele>69.0</ele><time>2026-05-01T08:37:55.081Z</time></trkpt><trkpt lat="44.4440813" lon="11.4376585"><ele>68.66666666666667</ele><time>2026-05-01T08:37:56.012Z</time></trkpt><trkpt lat="44.4440994" lon="11.4377732"><ele>68.33333333333333</ele><time>2026-05-01T08:37:57.02Z</time></trkpt><trkpt lat="44.4441191" lon="11.4378988"><ele>68.0</ele><time>2026-05-01T08:37:58.013Z</time></trkpt><trkpt lat="44.4441432" lon="11.4380142"><ele>67.66666666666666</ele><time>2026-05-01T08:37:59.017Z</time></trkpt><trkpt lat="44.444163" lon="11.4381283"><ele>67.33333333333333</ele><time>2026-05-01T08:38:00.043Z</time></trkpt><trkpt lat="44.4441855" lon="11.438243"><ele>67.0</ele><time>2026-05-01T08:38:01.029Z</time></trkpt><trkpt lat="44.4442109" lon="11.4383527"><ele>67.0</ele><time>2026-05-01T08:38:01.963Z</time></trkpt><trkpt lat="44.4442292" lon="11.4384654"><ele>67.0</ele><time>2026-05-01T08:38:03.038Z</time></trkpt><trkpt lat="44.4442483" lon="11.4385778"><ele>67.0</ele><time>2026-05-01T08:38:03.948Z</time></trkpt><trkpt lat="44.444263" lon="11.4386886"><ele>67.0</ele><time>2026-05-01T08:38:04.961Z</time></trkpt><trkpt lat="44.4442737" lon="11.4387959"><ele>67.0</ele><time>2026-05-01T08:38:05.969Z</time></trkpt><trkpt lat="44.4442823" lon="11.4388987"><ele>67.0</ele><time>2026-05-01T08:38:06.956Z</time></trkpt><trkpt lat="44.4442863" lon="11.4389934"><ele>67.0</ele><time>2026-05-01T08:38:07.966Z</time></trkpt><trkpt lat="44.4442973" lon="11.4391351"><ele>67.0</ele><time>2026-05-01T08:38:10.035Z</time></trkpt><trkpt lat="44.444313" lon="11.4392334"><ele>67.0</ele><time>2026-05-01T08:38:11.973Z</time></trkpt><trkpt lat="44.4443327" lon="11.4393458"><ele>67.0</ele><time>2026-05-01T08:38:16.031Z</time></trkpt><trkpt lat="44.4443912" lon="11.4394194"><ele>67.0</ele><time>2026-05-01T08:38:18.96Z</time></trkpt><trkpt lat="44.4444466" lon="11.4394798"><ele>67.0</ele><time>2026-05-01T08:38:20.946Z</time></trkpt><trkpt lat="44.4444908" lon="11.4395457"><ele>67.0</ele><time>2026-05-01T08:38:22.96Z</time></trkpt><trkpt lat="44.4445609" lon="11.439627"><ele>67.0</ele><time>2026-05-01T08:38:25.962Z</time></trkpt><trkpt lat="44.4446078" lon="11.4396941"><ele>67.0</ele><time>2026-05-01T08:38:27.961Z</time></trkpt><trkpt lat="44.4446596" lon="11.4397735"><ele>67.0</ele><time>2026-05-01T08:38:29.963Z</time></trkpt><trkpt lat="44.4447064" lon="11.4398416"><ele>67.0</ele><time>2026-05-01T08:38:31.947Z</time></trkpt><trkpt lat="44.4447332" lon="11.4399224"><ele>67.0</ele><time>2026-05-01T08:38:33.961Z</time></trkpt><trkpt lat="44.4447076" lon="11.4400158"><ele>67.0</ele><time>2026-05-01T08:38:35.954Z</time></trkpt><trkpt lat="44.4446748" lon="11.440111"><ele>67.16666666666666</ele><time>2026-05-01T08:38:37.953Z</time></trkpt><trkpt lat="44.4446522" lon="11.4402099"><ele>67.33333333333333</ele><time>2026-05-01T08:38:39.963Z</time></trkpt><trkpt lat="44.4446345" lon="11.440299"><ele>67.5</ele><time>2026-05-01T08:38:41.962Z</time></trkpt><trkpt lat="44.4446052" lon="11.4403783"><ele>67.66666666666667</ele><time>2026-05-01T08:38:43.962Z</time></trkpt><trkpt lat="44.4445683" lon="11.4405041"><ele>67.83333333333334</ele><time>2026-05-01T08:38:46.952Z</time></trkpt><trkpt lat="44.4445064" lon="11.4406453"><ele>68.0</ele><time>2026-05-01T08:38:48.972Z</time></trkpt><trkpt lat="44.4444724" lon="11.4407436"><ele>68.2</ele><time>2026-05-01T08:38:49.977Z</time></trkpt><trkpt lat="44.4444358" lon="11.4408859"><ele>68.4</ele><time>2026-05-01T08:38:51.972Z</time></trkpt><trkpt lat="44.4443791" lon="11.4410185"><ele>68.60000000000001</ele><time>2026-05-01T08:38:53.967Z</time></trkpt><trkpt lat="44.4443312" lon="11.4411646"><ele>68.8</ele><time>2026-05-01T08:38:55.961Z</time></trkpt><trkpt lat="44.4442775" lon="11.4413062"><ele>69.0</ele><time>2026-05-01T08:38:57.952Z</time></trkpt><trkpt lat="44.444245" lon="11.4414253"><ele>70.0</ele><time>2026-05-01T08:38:59.972Z</time></trkpt><trkpt lat="44.444234" lon="11.4415404"><ele>71.0</ele><time>2026-05-01T08:39:01.954Z</time></trkpt><trkpt lat="44.4442482" lon="11.4416409"><ele>72.0</ele><time>2026-05-01T08:39:03.957Z</time></trkpt><trkpt lat="44.4442787" lon="11.4417225"><ele>73.0</ele><time>2026-05-01T08:39:05.96Z</time></trkpt><trkpt lat="44.4443257" lon="11.4418025"><ele>74.0</ele><time>2026-05-01T08:39:07.949Z</time></trkpt><trkpt lat="44.4443892" lon="11.4418952"><ele>75.0</ele><time>2026-05-01T08:39:09.961Z</time></trkpt><trkpt lat="44.4444471" lon="11.4419905"><ele>75.0</ele><time>2026-05-01T08:39:11.954Z</time></trkpt><trkpt lat="44.4445005" lon="11.442081"><ele>75.0</ele><time>2026-05-01T08:39:13.963Z</time></trkpt><trkpt lat="44.4445551" lon="11.4421728"><ele>75.0</ele><time>2026-05-01T08:39:16.035Z</time></trkpt><trkpt lat="44.4446178" lon="11.4422655"><ele>75.0</ele><time>2026-05-01T08:39:17.968Z</time></trkpt><trkpt lat="44.4446748" lon="11.4423747"><ele>75.0</ele><time>2026-05-01T08:39:19.968Z</time></trkpt><trkpt lat="44.4447432" lon="11.4424636"><ele>73.8</ele><time>2026-05-01T08:39:21.961Z</time></trkpt><trkpt lat="44.4448244" lon="11.4425546"><ele>72.6</ele><time>2026-05-01T08:39:23.952Z</time></trkpt><trkpt lat="44.4449153" lon="11.442648"><ele>71.4</ele><time>2026-05-01T08:39:25.962Z</time></trkpt><trkpt lat="44.4450044" lon="11.44273"><ele>70.2</ele><time>2026-05-01T08:39:28.03Z</time></trkpt><trkpt lat="44.445096" lon="11.4428129"><ele>69.0</ele><time>2026-05-01T08:39:29.979Z</time></trkpt><trkpt lat="44.4451921" lon="11.4428915"><ele>69.0</ele><time>2026-05-01T08:39:31.975Z</time></trkpt><trkpt lat="44.4452917" lon="11.4429667"><ele>69.0</ele><time>2026-05-01T08:39:33.973Z</time></trkpt><trkpt lat="44.4453925" lon="11.4430408"><ele>69.0</ele><time>2026-05-01T08:39:35.974Z</time></trkpt><trkpt lat="44.4454882" lon="11.4431079"><ele>69.0</ele><time>2026-05-01T08:39:38.041Z</time></trkpt><trkpt lat="44.445592" lon="11.4431626"><ele>69.0</ele><time>2026-05-01T08:39:39.966Z</time></trkpt><trkpt lat="44.4456929" lon="11.4432084"><ele>69.0</ele><time>2026-05-01T08:39:41.97Z</time></trkpt><trkpt lat="44.4457935" lon="11.4432448"><ele>69.0</ele><time>2026-05-01T08:39:43.98Z</time></trkpt><trkpt lat="44.4458994" lon="11.443281"><ele>69.0</ele><time>2026-05-01T08:39:46.037Z</time></trkpt><trkpt lat="44.445995" lon="11.443327"><ele>69.0</ele><time>2026-05-01T08:39:47.977Z</time></trkpt><trkpt lat="44.4460757" lon="11.4433882"><ele>69.0</ele><time>2026-05-01T08:39:49.977Z</time></trkpt><trkpt lat="44.446108" lon="11.4435031"><ele>69.0</ele><time>2026-05-01T08:39:51.955Z</time></trkpt><trkpt lat="44.4460876" lon="11.4436341"><ele>69.0</ele><time>2026-05-01T08:39:53.958Z</time></trkpt><trkpt lat="44.446052" lon="11.4437671"><ele>69.0</ele><time>2026-05-01T08:39:55.95Z</time></trkpt><trkpt lat="44.4460211" lon="11.4438926"><ele>69.0</ele><time>2026-05-01T08:39:57.948Z</time></trkpt><trkpt lat="44.4459907" lon="11.4440248"><ele>69.0</ele><time>2026-05-01T08:39:59.948Z</time></trkpt><trkpt lat="44.44595" lon="11.4441647"><ele>68.8</ele><time>2026-05-01T08:40:01.953Z</time></trkpt><trkpt lat="44.4458966" lon="11.444292"><ele>68.60000000000001</ele><time>2026-05-01T08:40:03.959Z</time></trkpt><trkpt lat="44.445835" lon="11.4444167"><ele>68.4</ele><time>2026-05-01T08:40:05.958Z</time></trkpt><trkpt lat="44.4457694" lon="11.4445478"><ele>68.2</ele><time>2026-05-01T08:40:07.969Z</time></trkpt><trkpt lat="44.4457022" lon="11.4446711"><ele>68.0</ele><time>2026-05-01T08:40:09.967Z</time></trkpt><trkpt lat="44.4456351" lon="11.4447841"><ele>68.4</ele><time>2026-05-01T08:40:11.966Z</time></trkpt><trkpt lat="44.4455654" lon="11.444901"><ele>68.8</ele><time>2026-05-01T08:40:13.966Z</time></trkpt><trkpt lat="44.4454918" lon="11.445015"><ele>69.2</ele><time>2026-05-01T08:40:15.971Z</time></trkpt><trkpt lat="44.4454186" lon="11.445118"><ele>69.6</ele><time>2026-05-01T08:40:17.971Z</time></trkpt><trkpt lat="44.4453536" lon="11.445226"><ele>70.0</ele><time>2026-05-01T08:40:19.977Z</time></trkpt><trkpt lat="44.4452856" lon="11.4453206"><ele>70.5</ele><time>2026-05-01T08:40:21.956Z</time></trkpt><trkpt lat="44.4452224" lon="11.4454155"><ele>71.0</ele><time>2026-05-01T08:40:23.962Z</time></trkpt><trkpt lat="44.4451592" lon="11.4455201"><ele>71.5</ele><time>2026-05-01T08:40:25.975Z</time></trkpt><trkpt lat="44.4451048" lon="11.4456153"><ele>72.0</ele><time>2026-05-01T08:40:27.972Z</time></trkpt><trkpt lat="44.4450432" lon="11.4457084"><ele>72.5</ele><time>2026-05-01T08:40:29.966Z</time></trkpt><trkpt lat="44.444988" lon="11.4457921"><ele>73.0</ele><time>2026-05-01T08:40:31.964Z</time></trkpt><trkpt lat="44.4449324" lon="11.4458661"><ele>73.0</ele><time>2026-05-01T08:40:33.98Z</time></trkpt><trkpt lat="44.4448814" lon="11.4459406"><ele>73.0</ele><time>2026-05-01T08:40:35.962Z</time></trkpt><trkpt lat="44.4448313" lon="11.4460133"><ele>73.0</ele><time>2026-05-01T08:40:37.966Z</time></trkpt><trkpt lat="44.4447865" lon="11.4460867"><ele>73.0</ele><time>2026-05-01T08:40:39.95Z</time></trkpt><trkpt lat="44.4447379" lon="11.446167"><ele>73.0</ele><time>2026-05-01T08:40:41.974Z</time></trkpt><trkpt lat="44.4446932" lon="11.4462454"><ele>73.0</ele><time>2026-05-01T08:40:43.962Z</time></trkpt><trkpt lat="44.444642" lon="11.4463237"><ele>73.0</ele><time>2026-05-01T08:40:45.965Z</time></trkpt><trkpt lat="44.4445849" lon="11.4463726"><ele>73.14285714285714</ele><time>2026-05-01T08:40:47.954Z</time></trkpt><trkpt lat="44.4445172" lon="11.4463842"><ele>73.28571428571429</ele><time>2026-05-01T08:40:49.969Z</time></trkpt><trkpt lat="44.4444438" lon="11.446372"><ele>73.42857142857143</ele><time>2026-05-01T08:40:51.969Z</time></trkpt><trkpt lat="44.4443786" lon="11.4463304"><ele>73.57142857142857</ele><time>2026-05-01T08:40:53.971Z</time></trkpt><trkpt lat="44.4443021" lon="11.4463238"><ele>73.71428571428571</ele><time>2026-05-01T08:40:55.963Z</time></trkpt><trkpt lat="44.4442328" lon="11.4463452"><ele>73.85714285714286</ele><time>2026-05-01T08:40:57.97Z</time></trkpt><trkpt lat="44.4441603" lon="11.4463772"><ele>74.0</ele><time>2026-05-01T08:40:59.959Z</time></trkpt><trkpt lat="44.4440912" lon="11.4463887"><ele>74.0</ele><time>2026-05-01T08:41:01.974Z</time></trkpt><trkpt lat="44.4440245" lon="11.4463552"><ele>74.0</ele><time>2026-05-01T08:41:03.959Z</time></trkpt><trkpt lat="44.4439674" lon="11.4463017"><ele>74.0</ele><time>2026-05-01T08:41:05.971Z</time></trkpt><trkpt lat="44.4439036" lon="11.4462538"><ele>74.0</ele><time>2026-05-01T08:41:07.957Z</time></trkpt><trkpt lat="44.4438246" lon="11.4462865"><ele>74.0</ele><time>2026-05-01T08:41:10.985Z</time></trkpt><trkpt lat="44.4438208" lon="11.4463846"><ele>74.0</ele><time>2026-05-01T08:41:12.979Z</time></trkpt><trkpt lat="44.4438031" lon="11.4464911"><ele>74.0</ele><time>2026-05-01T08:41:14.964Z</time></trkpt><trkpt lat="44.443767" lon="11.4466059"><ele>74.16666666666667</ele><time>2026-05-01T08:41:16.968Z</time></trkpt><trkpt lat="44.4437199" lon="11.4467145"><ele>74.33333333333334</ele><time>2026-05-01T08:41:18.97Z</time></trkpt><trkpt lat="44.443636" lon="11.4467759"><ele>74.5</ele><time>2026-05-01T08:41:20.976Z</time></trkpt><trkpt lat="44.4435609" lon="11.4468055"><ele>74.66666666666667</ele><time>2026-05-01T08:41:22.962Z</time></trkpt><trkpt lat="44.4434946" lon="11.4468112"><ele>74.83333333333333</ele><time>2026-05-01T08:41:25.969Z</time></trkpt><trkpt lat="44.4435628" lon="11.4467965"><ele>75.0</ele><time>2026-05-01T08:41:32.95Z</time></trkpt><trkpt lat="44.4436507" lon="11.4467641"><ele>75.0</ele><time>2026-05-01T08:41:35.954Z</time></trkpt><trkpt lat="44.443737" lon="11.4467241"><ele>75.0</ele><time>2026-05-01T08:41:38.962Z</time></trkpt><trkpt lat="44.4438267" lon="11.4467376"><ele>75.0</ele><time>2026-05-01T08:41:41.968Z</time></trkpt><trkpt lat="44.4438767" lon="11.4468133"><ele>75.0</ele><time>2026-05-01T08:41:44.959Z</time></trkpt><trkpt lat="44.4438976" lon="11.4469162"><ele>75.0</ele><time>2026-05-01T08:41:47.959Z</time></trkpt><trkpt lat="44.4439102" lon="11.4470262"><ele>75.0</ele><time>2026-05-01T08:41:50.961Z</time></trkpt><trkpt lat="44.4439032" lon="11.4471397"><ele>75.0</ele><time>2026-05-01T08:41:54.953Z</time></trkpt><trkpt lat="44.4439276" lon="11.4472549"><ele>75.0</ele><time>2026-05-01T08:41:57.955Z</time></trkpt><trkpt lat="44.4439322" lon="11.4473697"><ele>75.0</ele><time>2026-05-01T08:42:00.957Z</time></trkpt><trkpt lat="44.4439234" lon="11.447461"><ele>75.0</ele><time>2026-05-01T08:42:02.964Z</time></trkpt><trkpt lat="44.4439291" lon="11.447563"><ele>75.0</ele><time>2026-05-01T08:42:04.954Z</time></trkpt><trkpt lat="44.4439367" lon="11.4476874"><ele>75.0</ele><time>2026-05-01T08:42:06.951Z</time></trkpt><trkpt lat="44.4439756" lon="11.4477983"><ele>75.0</ele><time>2026-05-01T08:42:09.029Z</time></trkpt><trkpt lat="44.4440117" lon="11.4479231"><ele>75.0</ele><time>2026-05-01T08:42:10.971Z</time></trkpt><trkpt lat="44.4440443" lon="11.448047"><ele>75.0</ele><time>2026-05-01T08:42:12.972Z</time></trkpt><trkpt lat="44.4440806" lon="11.448175"><ele>75.0</ele><time>2026-05-01T08:42:14.976Z</time></trkpt><trkpt lat="44.4441177" lon="11.4483054"><ele>75.0</ele><time>2026-05-01T08:42:16.957Z</time></trkpt><trkpt lat="44.4441472" lon="11.4484313"><ele>75.0</ele><time>2026-05-01T08:42:19.044Z</time></trkpt><trkpt lat="44.4441794" lon="11.4485577"><ele>75.0</ele><time>2026-05-01T08:42:21.035Z</time></trkpt><trkpt lat="44.4442124" lon="11.4486992"><ele>75.0</ele><time>2026-05-01T08:42:22.963Z</time></trkpt><trkpt lat="44.4442248" lon="11.4488426"><ele>75.0</ele><time>2026-05-01T08:42:24.96Z</time></trkpt><trkpt lat="44.4442118" lon="11.4489777"><ele>75.0</ele><time>2026-05-01T08:42:26.965Z</time></trkpt><trkpt lat="44.4441543" lon="11.4491009"><ele>74.4</ele><time>2026-05-01T08:42:28.956Z</time></trkpt><trkpt lat="44.4440989" lon="11.449229"><ele>73.8</ele><time>2026-05-01T08:42:31.068Z</time></trkpt><trkpt lat="44.444051" lon="11.4493583"><ele>73.2</ele><time>2026-05-01T08:42:33.033Z</time></trkpt><trkpt lat="44.4439998" lon="11.4494931"><ele>72.6</ele><time>2026-05-01T08:42:35.032Z</time></trkpt><trkpt lat="44.4439515" lon="11.4496288"><ele>72.0</ele><time>2026-05-01T08:42:36.964Z</time></trkpt><trkpt lat="44.4439005" lon="11.4497678"><ele>72.0</ele><time>2026-05-01T08:42:38.967Z</time></trkpt><trkpt lat="44.4438562" lon="11.4499061"><ele>72.0</ele><time>2026-05-01T08:42:40.964Z</time></trkpt><trkpt lat="44.4438044" lon="11.4500469"><ele>72.0</ele><time>2026-05-01T08:42:42.976Z</time></trkpt><trkpt lat="44.4437511" lon="11.4501837"><ele>72.0</ele><time>2026-05-01T08:42:44.973Z</time></trkpt><trkpt lat="44.443707" lon="11.4503158"><ele>72.0</ele><time>2026-05-01T08:42:46.966Z</time></trkpt><trkpt lat="44.443659" lon="11.4504538"><ele>72.4</ele><time>2026-05-01T08:42:49.047Z</time></trkpt><trkpt lat="44.4436071" lon="11.4505854"><ele>72.80000000000001</ele><time>2026-05-01T08:42:50.964Z</time></trkpt><trkpt lat="44.4435601" lon="11.4507177"><ele>73.2</ele><time>2026-05-01T08:42:52.966Z</time></trkpt><trkpt lat="44.4435119" lon="11.4508464"><ele>73.60000000000001</ele><time>2026-05-01T08:42:55.046Z</time></trkpt><trkpt lat="44.4434702" lon="11.4509803"><ele>74.0</ele><time>2026-05-01T08:42:56.957Z</time></trkpt><trkpt lat="44.4434224" lon="11.4511128"><ele>74.0</ele><time>2026-05-01T08:42:58.951Z</time></trkpt><trkpt lat="44.4433817" lon="11.4512491"><ele>74.0</ele><time>2026-05-01T08:43:00.969Z</time></trkpt><trkpt lat="44.4433351" lon="11.4513879"><ele>74.0</ele><time>2026-05-01T08:43:03.033Z</time></trkpt><trkpt lat="44.443279" lon="11.4515153"><ele>74.0</ele><time>2026-05-01T08:43:04.96Z</time></trkpt><trkpt lat="44.4432283" lon="11.4516652"><ele>74.0</ele><time>2026-05-01T08:43:06.957Z</time></trkpt><trkpt lat="44.4431791" lon="11.451812"><ele>74.4</ele><time>2026-05-01T08:43:09.034Z</time></trkpt><trkpt lat="44.4431263" lon="11.451952"><ele>74.80000000000001</ele><time>2026-05-01T08:43:11.044Z</time></trkpt><trkpt lat="44.4430696" lon="11.4520894"><ele>75.19999999999999</ele><time>2026-05-01T08:43:12.967Z</time></trkpt><trkpt lat="44.4430196" lon="11.4522286"><ele>75.6</ele><time>2026-05-01T08:43:14.97Z</time></trkpt><trkpt lat="44.4429733" lon="11.4523565"><ele>76.0</ele><time>2026-05-01T08:43:16.966Z</time></trkpt><trkpt lat="44.4429294" lon="11.4524584"><ele>76.0</ele><time>2026-05-01T08:43:18.964Z</time></trkpt><trkpt lat="44.4428861" lon="11.4525562"><ele>76.0</ele><time>2026-05-01T08:43:20.958Z</time></trkpt><trkpt lat="44.4428365" lon="11.4526424"><ele>76.0</ele><time>2026-05-01T08:43:22.952Z</time></trkpt><trkpt lat="44.4427563" lon="11.4526273"><ele>76.0</ele><time>2026-05-01T08:43:24.957Z</time></trkpt><trkpt lat="44.4426845" lon="11.4525655"><ele>76.0</ele><time>2026-05-01T08:43:26.953Z</time></trkpt><trkpt lat="44.4425969" lon="11.4524838"><ele>76.0</ele><time>2026-05-01T08:43:28.969Z</time></trkpt><trkpt lat="44.4425105" lon="11.4524023"><ele>76.0</ele><time>2026-05-01T08:43:30.96Z</time></trkpt><trkpt lat="44.4424213" lon="11.4523176"><ele>76.0</ele><time>2026-05-01T08:43:32.954Z</time></trkpt><trkpt lat="44.4423334" lon="11.4522385"><ele>76.0</ele><time>2026-05-01T08:43:34.958Z</time></trkpt><trkpt lat="44.4422423" lon="11.4521671"><ele>76.0</ele><time>2026-05-01T08:43:36.955Z</time></trkpt><trkpt lat="44.4421595" lon="11.4520917"><ele>76.0</ele><time>2026-05-01T08:43:38.959Z</time></trkpt><trkpt lat="44.442077" lon="11.4520191"><ele>76.39999999999999</ele><time>2026-05-01T08:43:40.965Z</time></trkpt><trkpt lat="44.441988" lon="11.4519472"><ele>76.8</ele><time>2026-05-01T08:43:42.956Z</time></trkpt><trkpt lat="44.4419007" lon="11.4518677"><ele>77.19999999999999</ele><time>2026-05-01T08:43:44.955Z</time></trkpt><trkpt lat="44.4418129" lon="11.4517925"><ele>77.6</ele><time>2026-05-01T08:43:46.955Z</time></trkpt><trkpt lat="44.4417249" lon="11.4517207"><ele>78.0</ele><time>2026-05-01T08:43:48.961Z</time></trkpt><trkpt lat="44.441638" lon="11.4516443"><ele>78.0</ele><time>2026-05-01T08:43:50.956Z</time></trkpt><trkpt lat="44.4415458" lon="11.4515777"><ele>78.0</ele><time>2026-05-01T08:43:52.956Z</time></trkpt><trkpt lat="44.4414582" lon="11.4515143"><ele>78.0</ele><time>2026-05-01T08:43:55.008Z</time></trkpt><trkpt lat="44.4413748" lon="11.4514648"><ele>78.0</ele><time>2026-05-01T08:43:56.958Z</time></trkpt><trkpt lat="44.4412892" lon="11.4514725"><ele>78.0</ele><time>2026-05-01T08:43:58.96Z</time></trkpt><trkpt lat="44.4412149" lon="11.4515024"><ele>77.8</ele><time>2026-05-01T08:44:00.95Z</time></trkpt><trkpt lat="44.4411438" lon="11.451577"><ele>77.6</ele><time>2026-05-01T08:44:03.032Z</time></trkpt><trkpt lat="44.4410858" lon="11.4516898"><ele>77.4</ele><time>2026-05-01T08:44:05.029Z</time></trkpt><trkpt lat="44.4410431" lon="11.4518171"><ele>77.2</ele><time>2026-05-01T08:44:06.969Z</time></trkpt><trkpt lat="44.4410004" lon="11.4519386"><ele>77.0</ele><time>2026-05-01T08:44:08.976Z</time></trkpt><trkpt lat="44.4409564" lon="11.4520652"><ele>77.0</ele><time>2026-05-01T08:44:10.987Z</time></trkpt><trkpt lat="44.4409119" lon="11.4521842"><ele>77.0</ele><time>2026-05-01T08:44:13.034Z</time></trkpt><trkpt lat="44.4408717" lon="11.4523013"><ele>77.0</ele><time>2026-05-01T08:44:14.954Z</time></trkpt><trkpt lat="44.4408361" lon="11.4524242"><ele>77.0</ele><time>2026-05-01T08:44:16.956Z</time></trkpt><trkpt lat="44.4407967" lon="11.4525453"><ele>77.0</ele><time>2026-05-01T08:44:19.022Z</time></trkpt><trkpt lat="44.4407602" lon="11.452666"><ele>77.0</ele><time>2026-05-01T08:44:21.029Z</time></trkpt><trkpt lat="44.4407238" lon="11.452779"><ele>77.0</ele><time>2026-05-01T08:44:22.963Z</time></trkpt><trkpt lat="44.4406896" lon="11.4528939"><ele>77.0</ele><time>2026-05-01T08:44:24.961Z</time></trkpt><trkpt lat="44.440654" lon="11.4530075"><ele>77.0</ele><time>2026-05-01T08:44:26.969Z</time></trkpt><trkpt lat="44.4406132" lon="11.4531274"><ele>77.0</ele><time>2026-05-01T08:44:28.965Z</time></trkpt><trkpt lat="44.4405717" lon="11.453253"><ele>77.4</ele><time>2026-05-01T08:44:30.966Z</time></trkpt><trkpt lat="44.4405308" lon="11.4533824"><ele>77.80000000000001</ele><time>2026-05-01T08:44:32.96Z</time></trkpt><trkpt lat="44.4404914" lon="11.4535108"><ele>78.2</ele><time>2026-05-01T08:44:34.97Z</time></trkpt><trkpt lat="44.440449" lon="11.4536479"><ele>78.60000000000001</ele><time>2026-05-01T08:44:36.966Z</time></trkpt><trkpt lat="44.4404055" lon="11.4537837"><ele>79.0</ele><time>2026-05-01T08:44:38.985Z</time></trkpt><trkpt lat="44.440362" lon="11.4539105"><ele>79.75</ele><time>2026-05-01T08:44:40.961Z</time></trkpt><trkpt lat="44.4403074" lon="11.4540439"><ele>80.5</ele><time>2026-05-01T08:44:43.032Z</time></trkpt><trkpt lat="44.4402588" lon="11.4541942"><ele>81.25</ele><time>2026-05-01T08:44:44.968Z</time></trkpt><trkpt lat="44.4402221" lon="11.4543552"><ele>82.0</ele><time>2026-05-01T08:44:46.964Z</time></trkpt><trkpt lat="44.4401861" lon="11.4545164"><ele>82.0</ele><time>2026-05-01T08:44:48.962Z</time></trkpt><trkpt lat="44.4401649" lon="11.4546006"><ele>82.0</ele><time>2026-05-01T08:44:49.965Z</time></trkpt><trkpt lat="44.4401492" lon="11.454687"><ele>82.0</ele><time>2026-05-01T08:44:50.966Z</time></trkpt><trkpt lat="44.4401274" lon="11.4547718"><ele>82.0</ele><time>2026-05-01T08:44:51.963Z</time></trkpt><trkpt lat="44.4401063" lon="11.4548554"><ele>82.0</ele><time>2026-05-01T08:44:52.962Z</time></trkpt><trkpt lat="44.4400632" lon="11.4550246"><ele>82.0</ele><time>2026-05-01T08:44:54.97Z</time></trkpt><trkpt lat="44.4400437" lon="11.4551141"><ele>81.83333333333333</ele><time>2026-05-01T08:44:55.958Z</time></trkpt><trkpt lat="44.4400214" lon="11.4552098"><ele>81.66666666666666</ele><time>2026-05-01T08:44:56.965Z</time></trkpt><trkpt lat="44.4400006" lon="11.4552969"><ele>81.5</ele><time>2026-05-01T08:44:57.966Z</time></trkpt><trkpt lat="44.4399758" lon="11.4553795"><ele>81.33333333333333</ele><time>2026-05-01T08:44:58.959Z</time></trkpt><trkpt lat="44.4399582" lon="11.4554648"><ele>81.16666666666667</ele><time>2026-05-01T08:44:59.96Z</time></trkpt><trkpt lat="44.4399225" lon="11.4556303"><ele>81.0</ele><time>2026-05-01T08:45:01.958Z</time></trkpt><trkpt lat="44.4398914" lon="11.4557878"><ele>81.0</ele><time>2026-05-01T08:45:03.965Z</time></trkpt><trkpt lat="44.4398566" lon="11.4559335"><ele>81.0</ele><time>2026-05-01T08:45:05.964Z</time></trkpt><trkpt lat="44.4398196" lon="11.4560826"><ele>81.0</ele><time>2026-05-01T08:45:07.963Z</time></trkpt><trkpt lat="44.4397856" lon="11.4562314"><ele>81.0</ele><time>2026-05-01T08:45:10.025Z</time></trkpt><trkpt lat="44.4397547" lon="11.4563697"><ele>81.0</ele><time>2026-05-01T08:45:11.965Z</time></trkpt><trkpt lat="44.4397195" lon="11.4565033"><ele>81.19999999999999</ele><time>2026-05-01T08:45:13.967Z</time></trkpt><trkpt lat="44.439691" lon="11.4566401"><ele>81.39999999999999</ele><time>2026-05-01T08:45:15.973Z</time></trkpt><trkpt lat="44.4396579" lon="11.4567759"><ele>81.6</ele><time>2026-05-01T08:45:17.961Z</time></trkpt><trkpt lat="44.4396261" lon="11.4569132"><ele>81.8</ele><time>2026-05-01T08:45:19.973Z</time></trkpt><trkpt lat="44.4395925" lon="11.4570453"><ele>82.0</ele><time>2026-05-01T08:45:21.968Z</time></trkpt><trkpt lat="44.4395634" lon="11.4571773"><ele>82.19999999999999</ele><time>2026-05-01T08:45:23.967Z</time></trkpt><trkpt lat="44.4395362" lon="11.4573126"><ele>82.4</ele><time>2026-05-01T08:45:25.976Z</time></trkpt><trkpt lat="44.4395016" lon="11.4574417"><ele>82.6</ele><time>2026-05-01T08:45:27.972Z</time></trkpt><trkpt lat="44.4394732" lon="11.4575769"><ele>82.80000000000001</ele><time>2026-05-01T08:45:29.969Z</time></trkpt><trkpt lat="44.4394444" lon="11.4577093"><ele>83.0</ele><time>2026-05-01T08:45:31.976Z</time></trkpt><trkpt lat="44.4394161" lon="11.4578387"><ele>83.60000000000001</ele><time>2026-05-01T08:45:33.978Z</time></trkpt><trkpt lat="44.439382" lon="11.4579568"><ele>84.2</ele><time>2026-05-01T08:45:35.976Z</time></trkpt><trkpt lat="44.4393493" lon="11.4580826"><ele>84.8</ele><time>2026-05-01T08:45:37.978Z</time></trkpt><trkpt lat="44.4393199" lon="11.4582157"><ele>85.4</ele><time>2026-05-01T08:45:40.039Z</time></trkpt><trkpt lat="44.4392917" lon="11.4583453"><ele>86.0</ele><time>2026-05-01T08:45:41.969Z</time></trkpt><trkpt lat="44.4392591" lon="11.4584738"><ele>86.0</ele><time>2026-05-01T08:45:43.964Z</time></trkpt><trkpt lat="44.4392251" lon="11.4586058"><ele>86.0</ele><time>2026-05-01T08:45:45.967Z</time></trkpt><trkpt lat="44.4391956" lon="11.4587464"><ele>86.0</ele><time>2026-05-01T08:45:47.966Z</time></trkpt><trkpt lat="44.439163" lon="11.4588847"><ele>86.0</ele><time>2026-05-01T08:45:50.036Z</time></trkpt><trkpt lat="44.4391286" lon="11.4590291"><ele>86.0</ele><time>2026-05-01T08:45:51.971Z</time></trkpt><trkpt lat="44.4390908" lon="11.459175"><ele>86.0</ele><time>2026-05-01T08:45:53.967Z</time></trkpt><trkpt lat="44.4390512" lon="11.4593119"><ele>86.0</ele><time>2026-05-01T08:45:55.968Z</time></trkpt><trkpt lat="44.4390063" lon="11.4594441"><ele>86.0</ele><time>2026-05-01T08:45:58.04Z</time></trkpt><trkpt lat="44.4389696" lon="11.4595622"><ele>86.0</ele><time>2026-05-01T08:45:59.959Z</time></trkpt><trkpt lat="44.4389302" lon="11.4596613"><ele>86.0</ele><time>2026-05-01T08:46:01.957Z</time></trkpt><trkpt lat="44.4388983" lon="11.4597484"><ele>85.33333333333334</ele><time>2026-05-01T08:46:03.961Z</time></trkpt><trkpt lat="44.4388781" lon="11.4598512"><ele>84.66666666666667</ele><time>2026-05-01T08:46:06.959Z</time></trkpt><trkpt lat="44.4388489" lon="11.4599326"><ele>84.0</ele><time>2026-05-01T08:46:08.957Z</time></trkpt><trkpt lat="44.4388156" lon="11.4600271"><ele>83.33333333333333</ele><time>2026-05-01T08:46:10.96Z</time></trkpt><trkpt lat="44.4387711" lon="11.4601482"><ele>82.66666666666666</ele><time>2026-05-01T08:46:12.955Z</time></trkpt><trkpt lat="44.4387224" lon="11.4602769"><ele>82.0</ele><time>2026-05-01T08:46:14.954Z</time></trkpt><trkpt lat="44.4386773" lon="11.4604034"><ele>82.25</ele><time>2026-05-01T08:46:16.954Z</time></trkpt><trkpt lat="44.4386153" lon="11.4605267"><ele>82.5</ele><time>2026-05-01T08:46:18.969Z</time></trkpt><trkpt lat="44.4385454" lon="11.4606511"><ele>82.75</ele><time>2026-05-01T08:46:20.959Z</time></trkpt><trkpt lat="44.438466" lon="11.4607702"><ele>83.0</ele><time>2026-05-01T08:46:22.958Z</time></trkpt><trkpt lat="44.4383795" lon="11.4608811"><ele>83.0</ele><time>2026-05-01T08:46:25.031Z</time></trkpt><trkpt lat="44.4382944" lon="11.4609949"><ele>83.0</ele><time>2026-05-01T08:46:26.966Z</time></trkpt><trkpt lat="44.438205" lon="11.461096"><ele>83.0</ele><time>2026-05-01T08:46:29.003Z</time></trkpt><trkpt lat="44.4381104" lon="11.4612018"><ele>83.0</ele><time>2026-05-01T08:46:30.985Z</time></trkpt><trkpt lat="44.438012" lon="11.4613021"><ele>82.25</ele><time>2026-05-01T08:46:32.974Z</time></trkpt><trkpt lat="44.437914" lon="11.4613963"><ele>81.5</ele><time>2026-05-01T08:46:34.956Z</time></trkpt><trkpt lat="44.4378151" lon="11.4614791"><ele>80.75</ele><time>2026-05-01T08:46:36.961Z</time></trkpt><trkpt lat="44.4377135" lon="11.4615537"><ele>80.0</ele><time>2026-05-01T08:46:38.956Z</time></trkpt><trkpt lat="44.4376109" lon="11.4616503"><ele>80.0</ele><time>2026-05-01T08:46:41.032Z</time></trkpt><trkpt lat="44.4375147" lon="11.4617489"><ele>80.0</ele><time>2026-05-01T08:46:42.972Z</time></trkpt><trkpt lat="44.4374684" lon="11.4618091"><ele>80.0</ele><time>2026-05-01T08:46:43.993Z</time></trkpt><trkpt lat="44.4373802" lon="11.4619327"><ele>80.0</ele><time>2026-05-01T08:46:46.033Z</time></trkpt><trkpt lat="44.437337" lon="11.4620029"><ele>80.0</ele><time>2026-05-01T08:46:46.965Z</time></trkpt><trkpt lat="44.4373009" lon="11.462077"><ele>80.0</ele><time>2026-05-01T08:46:47.965Z</time></trkpt><trkpt lat="44.4372645" lon="11.4621512"><ele>79.6</ele><time>2026-05-01T08:46:48.975Z</time></trkpt><trkpt lat="44.4371908" lon="11.4622919"><ele>79.2</ele><time>2026-05-01T08:46:50.966Z</time></trkpt><trkpt lat="44.4371508" lon="11.4623614"><ele>78.8</ele><time>2026-05-01T08:46:51.97Z</time></trkpt><trkpt lat="44.4370846" lon="11.4624983"><ele>78.4</ele><time>2026-05-01T08:46:53.965Z</time></trkpt><trkpt lat="44.4370249" lon="11.4626291"><ele>78.0</ele><time>2026-05-01T08:46:55.968Z</time></trkpt><trkpt lat="44.4369678" lon="11.4627579"><ele>78.83333333333333</ele><time>2026-05-01T08:46:57.97Z</time></trkpt><trkpt lat="44.4369084" lon="11.4628734"><ele>79.66666666666667</ele><time>2026-05-01T08:46:59.967Z</time></trkpt><trkpt lat="44.4368515" lon="11.4629828"><ele>80.5</ele><time>2026-05-01T08:47:01.965Z</time></trkpt><trkpt lat="44.4367944" lon="11.4630847"><ele>81.33333333333334</ele><time>2026-05-01T08:47:03.967Z</time></trkpt><trkpt lat="44.4367224" lon="11.46312"><ele>82.16666666666667</ele><time>2026-05-01T08:47:05.961Z</time></trkpt><trkpt lat="44.4366568" lon="11.4630859"><ele>83.0</ele><time>2026-05-01T08:47:07.966Z</time></trkpt><trkpt lat="44.4365927" lon="11.4630033"><ele>83.0</ele><time>2026-05-01T08:47:10.965Z</time></trkpt><trkpt lat="44.4365472" lon="11.4629148"><ele>83.0</ele><time>2026-05-01T08:47:13.963Z</time></trkpt><trkpt lat="44.4365005" lon="11.4628198"><ele>83.0</ele><time>2026-05-01T08:47:16.965Z</time></trkpt><trkpt lat="44.4364461" lon="11.4627311"><ele>83.0</ele><time>2026-05-01T08:47:19.963Z</time></trkpt><trkpt lat="44.4363867" lon="11.4626335"><ele>83.0</ele><time>2026-05-01T08:47:22.964Z</time></trkpt><trkpt lat="44.4363388" lon="11.4625428"><ele>83.0</ele><time>2026-05-01T08:47:25.964Z</time></trkpt><trkpt lat="44.4362907" lon="11.4624405"><ele>84.4</ele><time>2026-05-01T08:47:28.964Z</time></trkpt><trkpt lat="44.4362435" lon="11.4623257"><ele>85.80000000000001</ele><time>2026-05-01T08:47:31.966Z</time></trkpt><trkpt lat="44.4361984" lon="11.4622186"><ele>87.2</ele><time>2026-05-01T08:47:34.984Z</time></trkpt><trkpt lat="44.4361418" lon="11.4621192"><ele>88.6</ele><time>2026-05-01T08:47:37.967Z</time></trkpt><trkpt lat="44.4360941" lon="11.4620116"><ele>90.0</ele><time>2026-05-01T08:47:40.967Z</time></trkpt><trkpt lat="44.4360332" lon="11.4619166"><ele>90.14285714285714</ele><time>2026-05-01T08:47:43.967Z</time></trkpt><trkpt lat="44.4359801" lon="11.4618351"><ele>90.28571428571429</ele><time>2026-05-01T08:47:46.963Z</time></trkpt><trkpt lat="44.4359213" lon="11.4617602"><ele>90.42857142857143</ele><time>2026-05-01T08:47:49.97Z</time></trkpt><trkpt lat="44.4358703" lon="11.4616912"><ele>90.57142857142857</ele><time>2026-05-01T08:47:52.97Z</time></trkpt><trkpt lat="44.4358091" lon="11.4616446"><ele>90.71428571428572</ele><time>2026-05-01T08:47:55.975Z</time></trkpt><trkpt lat="44.4357543" lon="11.4615983"><ele>90.85714285714286</ele><time>2026-05-01T08:47:58.969Z</time></trkpt><trkpt lat="44.4356886" lon="11.4615395"><ele>91.0</ele><time>2026-05-01T08:48:02.967Z</time></trkpt><trkpt lat="44.4356227" lon="11.4614695"><ele>91.0</ele><time>2026-05-01T08:48:06.965Z</time></trkpt><trkpt lat="44.4355709" lon="11.4614064"><ele>91.0</ele><time>2026-05-01T08:48:09.966Z</time></trkpt><trkpt lat="44.4355178" lon="11.4613534"><ele>91.0</ele><time>2026-05-01T08:48:12.978Z</time></trkpt><trkpt lat="44.4354637" lon="11.4612882"><ele>91.0</ele><time>2026-05-01T08:48:15.966Z</time></trkpt><trkpt lat="44.4354103" lon="11.4612239"><ele>91.0</ele><time>2026-05-01T08:48:18.972Z</time></trkpt><trkpt lat="44.4353556" lon="11.4611622"><ele>91.0</ele><time>2026-05-01T08:48:21.97Z</time></trkpt><trkpt lat="44.4353077" lon="11.4610896"><ele>91.0</ele><time>2026-05-01T08:48:24.968Z</time></trkpt><trkpt lat="44.4352561" lon="11.4610194"><ele>91.85714285714286</ele><time>2026-05-01T08:48:27.964Z</time></trkpt><trkpt lat="44.4352095" lon="11.4609584"><ele>92.71428571428572</ele><time>2026-05-01T08:48:30.966Z</time></trkpt><trkpt lat="44.4351601" lon="11.4608992"><ele>93.57142857142857</ele><time>2026-05-01T08:48:33.969Z</time></trkpt><trkpt lat="44.4350856" lon="11.460909"><ele>94.42857142857143</ele><time>2026-05-01T08:49:09.975Z</time></trkpt><trkpt lat="44.4350451" lon="11.4608412"><ele>95.28571428571429</ele><time>2026-05-01T08:52:48.984Z</time></trkpt><trkpt lat="44.4350012" lon="11.4607661"><ele>96.14285714285714</ele><time>2026-05-01T08:53:46.958Z</time></trkpt><trkpt lat="44.4349636" lon="11.460685"><ele>97.0</ele><time>2026-05-01T08:53:50.97Z</time></trkpt><trkpt lat="44.4349191" lon="11.4606208"><ele>97.00000000000001</ele><time>2026-05-01T08:53:53.961Z</time></trkpt><trkpt lat="44.4348599" lon="11.460539"><ele>97.0</ele><time>2026-05-01T08:53:57.965Z</time></trkpt><trkpt lat="44.4348324" lon="11.4604576"><ele>97.0</ele><time>2026-05-01T08:54:00.973Z</time></trkpt><trkpt lat="44.4347732" lon="11.4603865"><ele>97.0</ele><time>2026-05-01T08:54:04.967Z</time></trkpt><trkpt lat="44.4347261" lon="11.4603021"><ele>97.00000000000001</ele><time>2026-05-01T08:54:08.977Z</time></trkpt><trkpt lat="44.4346693" lon="11.4602188"><ele>97.0</ele><time>2026-05-01T08:54:12.959Z</time></trkpt><trkpt lat="44.4346026" lon="11.4601533"><ele>98.66666666666667</ele><time>2026-05-01T08:54:16.962Z</time></trkpt><trkpt lat="44.4345477" lon="11.4600745"><ele>100.33333333333334</ele><time>2026-05-01T08:54:20.955Z</time></trkpt><trkpt lat="44.4344918" lon="11.4599919"><ele>102.0</ele><time>2026-05-01T08:54:24.974Z</time></trkpt><trkpt lat="44.4344333" lon="11.4599153"><ele>103.66666666666666</ele><time>2026-05-01T08:54:28.969Z</time></trkpt><trkpt lat="44.4343799" lon="11.4598335"><ele>105.33333333333333</ele><time>2026-05-01T08:54:32.972Z</time></trkpt><trkpt lat="44.4343218" lon="11.4597591"><ele>107.0</ele><time>2026-05-01T08:54:36.977Z</time></trkpt><trkpt lat="44.4342621" lon="11.4596864"><ele>107.00000000000001</ele><time>2026-05-01T08:54:40.995Z</time></trkpt><trkpt lat="44.4342088" lon="11.4596172"><ele>107.0</ele><time>2026-05-01T08:54:44.965Z</time></trkpt><trkpt lat="44.4341431" lon="11.4595609"><ele>107.0</ele><time>2026-05-01T08:54:48.982Z</time></trkpt><trkpt lat="44.4340913" lon="11.4594892"><ele>107.0</ele><time>2026-05-01T08:54:52.971Z</time></trkpt><trkpt lat="44.4340264" lon="11.4594338"><ele>107.0</ele><time>2026-05-01T08:54:56.966Z</time></trkpt><trkpt lat="44.4339723" lon="11.4593813"><ele>107.00000000000001</ele><time>2026-05-01T08:54:59.964Z</time></trkpt><trkpt lat="44.4339098" lon="11.4593157"><ele>107.0</ele><time>2026-05-01T08:55:03.963Z</time></trkpt><trkpt lat="44.4338431" lon="11.4592505"><ele>107.83333333333333</ele><time>2026-05-01T08:55:07.953Z</time></trkpt><trkpt lat="44.4337739" lon="11.4591841"><ele>108.66666666666666</ele><time>2026-05-01T08:55:11.956Z</time></trkpt><trkpt lat="44.4337039" lon="11.459125"><ele>109.5</ele><time>2026-05-01T08:55:15.992Z</time></trkpt><trkpt lat="44.4336302" lon="11.4590712"><ele>110.33333333333334</ele><time>2026-05-01T08:55:19.974Z</time></trkpt><trkpt lat="44.4335751" lon="11.459024"><ele>111.16666666666667</ele><time>2026-05-01T08:55:22.969Z</time></trkpt><trkpt lat="44.4335021" lon="11.4589724"><ele>112.0</ele><time>2026-05-01T08:55:26.971Z</time></trkpt><trkpt lat="44.4334288" lon="11.4589188"><ele>112.0</ele><time>2026-05-01T08:55:30.974Z</time></trkpt><trkpt lat="44.4333737" lon="11.4588673"><ele>112.0</ele><time>2026-05-01T08:55:33.976Z</time></trkpt><trkpt lat="44.4333187" lon="11.4588141"><ele>112.0</ele><time>2026-05-01T08:55:36.981Z</time></trkpt><trkpt lat="44.4332547" lon="11.4587743"><ele>112.0</ele><time>2026-05-01T08:55:39.971Z</time></trkpt><trkpt lat="44.4331972" lon="11.4587198"><ele>112.0</ele><time>2026-05-01T08:55:42.971Z</time></trkpt><trkpt lat="44.4331368" lon="11.4586759"><ele>112.0</ele><time>2026-05-01T08:55:45.977Z</time></trkpt><trkpt lat="44.4330772" lon="11.4586225"><ele>112.0</ele><time>2026-05-01T08:55:48.973Z</time></trkpt><trkpt lat="44.4330173" lon="11.4585745"><ele>112.42857142857143</ele><time>2026-05-01T08:55:51.978Z</time></trkpt><trkpt lat="44.4329605" lon="11.4585309"><ele>112.85714285714286</ele><time>2026-05-01T08:55:54.967Z</time></trkpt><trkpt lat="44.4328996" lon="11.45849"><ele>113.28571428571428</ele><time>2026-05-01T08:55:57.97Z</time></trkpt><trkpt lat="44.43284" lon="11.4584423"><ele>113.71428571428571</ele><time>2026-05-01T08:56:00.989Z</time></trkpt><trkpt lat="44.4327835" lon="11.4583842"><ele>114.14285714285714</ele><time>2026-05-01T08:56:03.964Z</time></trkpt><trkpt lat="44.4327262" lon="11.4583281"><ele>114.57142857142856</ele><time>2026-05-01T08:56:06.97Z</time></trkpt><trkpt lat="44.4326686" lon="11.4582831"><ele>114.99999999999999</ele><time>2026-05-01T08:56:09.981Z</time></trkpt><trkpt lat="44.4326077" lon="11.4582391"><ele>115.00000000000001</ele><time>2026-05-01T08:56:12.975Z</time></trkpt><trkpt lat="44.4325411" lon="11.4581908"><ele>115.0</ele><time>2026-05-01T08:56:15.957Z</time></trkpt><trkpt lat="44.432478" lon="11.4581382"><ele>115.0</ele><time>2026-05-01T08:56:18.972Z</time></trkpt><trkpt lat="44.4324093" lon="11.4580901"><ele>115.0</ele><time>2026-05-01T08:56:21.971Z</time></trkpt><trkpt lat="44.4323429" lon="11.4580442"><ele>115.00000000000001</ele><time>2026-05-01T08:56:24.973Z</time></trkpt><trkpt lat="44.4322771" lon="11.4579937"><ele>115.0</ele><time>2026-05-01T08:56:27.976Z</time></trkpt><trkpt lat="44.4322089" lon="11.4579376"><ele>115.50000000000001</ele><time>2026-05-01T08:56:30.976Z</time></trkpt><trkpt lat="44.4321417" lon="11.4578787"><ele>116.0</ele><time>2026-05-01T08:56:33.972Z</time></trkpt><trkpt lat="44.4320742" lon="11.4578253"><ele>116.5</ele><time>2026-05-01T08:56:36.965Z</time></trkpt><trkpt lat="44.4320047" lon="11.457764"><ele>117.0</ele><time>2026-05-01T08:56:39.98Z</time></trkpt><trkpt lat="44.4319323" lon="11.4577126"><ele>117.50000000000001</ele><time>2026-05-01T08:56:42.979Z</time></trkpt><trkpt lat="44.4318638" lon="11.4576582"><ele>118.0</ele><time>2026-05-01T08:56:45.97Z</time></trkpt><trkpt lat="44.4318009" lon="11.4576042"><ele>118.00000000000001</ele><time>2026-05-01T08:56:48.972Z</time></trkpt><trkpt lat="44.4317342" lon="11.4575614"><ele>118.0</ele><time>2026-05-01T08:56:51.977Z</time></trkpt><trkpt lat="44.4316685" lon="11.4575123"><ele>118.0</ele><time>2026-05-01T08:56:54.969Z</time></trkpt><trkpt lat="44.4315961" lon="11.4574569"><ele>118.0</ele><time>2026-05-01T08:56:57.964Z</time></trkpt><trkpt lat="44.431529" lon="11.4573964"><ele>118.00000000000001</ele><time>2026-05-01T08:57:00.968Z</time></trkpt><trkpt lat="44.4314704" lon="11.4573572"><ele>118.0</ele><time>2026-05-01T08:57:03.958Z</time></trkpt><trkpt lat="44.4314042" lon="11.4572896"><ele>118.0</ele><time>2026-05-01T08:57:06.968Z</time></trkpt><trkpt lat="44.4313497" lon="11.4572451"><ele>118.0</ele><time>2026-05-01T08:57:09.957Z</time></trkpt><trkpt lat="44.4312784" lon="11.4571975"><ele>118.0</ele><time>2026-05-01T08:57:12.959Z</time></trkpt><trkpt lat="44.4312143" lon="11.4571571"><ele>118.0</ele><time>2026-05-01T08:57:15.963Z</time></trkpt><trkpt lat="44.4311481" lon="11.4571012"><ele>118.0</ele><time>2026-05-01T08:57:19.963Z</time></trkpt><trkpt lat="44.43109" lon="11.4570446"><ele>118.0</ele><time>2026-05-01T08:57:22.964Z</time></trkpt><trkpt lat="44.4310168" lon="11.4570038"><ele>118.0</ele><time>2026-05-01T08:57:26.952Z</time></trkpt><trkpt lat="44.4309631" lon="11.4569487"><ele>118.28571428571428</ele><time>2026-05-01T08:57:30.957Z</time></trkpt><trkpt lat="44.4308975" lon="11.4569007"><ele>118.57142857142858</ele><time>2026-05-01T08:57:34.98Z</time></trkpt><trkpt lat="44.4308432" lon="11.4568369"><ele>118.85714285714286</ele><time>2026-05-01T08:57:38.969Z</time></trkpt><trkpt lat="44.4307865" lon="11.4567945"><ele>119.14285714285714</ele><time>2026-05-01T08:57:42.967Z</time></trkpt><trkpt lat="44.4307256" lon="11.4567274"><ele>119.42857142857142</ele><time>2026-05-01T08:57:46.977Z</time></trkpt><trkpt lat="44.4306687" lon="11.4566731"><ele>119.71428571428572</ele><time>2026-05-01T08:57:50.985Z</time></trkpt><trkpt lat="44.4306057" lon="11.4566177"><ele>120.0</ele><time>2026-05-01T08:57:54.972Z</time></trkpt><trkpt lat="44.4305429" lon="11.4565415"><ele>120.0</ele><time>2026-05-01T08:57:58.97Z</time></trkpt><trkpt lat="44.4304873" lon="11.4564978"><ele>120.0</ele><time>2026-05-01T08:58:01.971Z</time></trkpt><trkpt lat="44.4304164" lon="11.4564568"><ele>120.0</ele><time>2026-05-01T08:58:05.96Z</time></trkpt><trkpt lat="44.4303506" lon="11.4564239"><ele>120.0</ele><time>2026-05-01T08:58:09.973Z</time></trkpt><trkpt lat="44.4302911" lon="11.4563689"><ele>120.0</ele><time>2026-05-01T08:58:13.97Z</time></trkpt><trkpt lat="44.4302303" lon="11.456308"><ele>120.0</ele><time>2026-05-01T08:58:17.978Z</time></trkpt><trkpt lat="44.4301679" lon="11.456269"><ele>120.0</ele><time>2026-05-01T08:58:21.974Z</time></trkpt><trkpt lat="44.4301155" lon="11.4562154"><ele>121.28571428571429</ele><time>2026-05-01T08:58:25.962Z</time></trkpt><trkpt lat="44.4300578" lon="11.4561623"><ele>122.57142857142856</ele><time>2026-05-01T08:58:30.957Z</time></trkpt><trkpt lat="44.4300022" lon="11.4561114"><ele>123.85714285714285</ele><time>2026-05-01T08:58:35.957Z</time></trkpt><trkpt lat="44.429936" lon="11.4560532"><ele>125.14285714285714</ele><time>2026-05-01T08:58:40.979Z</time></trkpt><trkpt lat="44.4298788" lon="11.4560004"><ele>126.42857142857142</ele><time>2026-05-01T08:58:44.972Z</time></trkpt><trkpt lat="44.4298164" lon="11.455939"><ele>127.7142857142857</ele><time>2026-05-01T08:58:49.967Z</time></trkpt><trkpt lat="44.4297648" lon="11.4558879"><ele>129.0</ele><time>2026-05-01T08:58:53.978Z</time></trkpt><trkpt lat="44.4297032" lon="11.4558309"><ele>128.99999999999997</ele><time>2026-05-01T08:58:58.98Z</time></trkpt><trkpt lat="44.42966" lon="11.455765"><ele>129.0</ele><time>2026-05-01T08:59:03.957Z</time></trkpt><trkpt lat="44.4296011" lon="11.4556961"><ele>129.0</ele><time>2026-05-01T08:59:09.958Z</time></trkpt><trkpt lat="44.4295293" lon="11.4556691"><ele>129.0</ele><time>2026-05-01T08:59:15.967Z</time></trkpt><trkpt lat="44.4294634" lon="11.4556271"><ele>129.0</ele><time>2026-05-01T08:59:19.966Z</time></trkpt><trkpt lat="44.4293969" lon="11.455577"><ele>128.99999999999997</ele><time>2026-05-01T08:59:24.974Z</time></trkpt><trkpt lat="44.4293352" lon="11.4555554"><ele>129.0</ele><time>2026-05-01T08:59:30.978Z</time></trkpt><trkpt lat="44.4292731" lon="11.4555351"><ele>130.57142857142856</ele><time>2026-05-01T08:59:35.969Z</time></trkpt><trkpt lat="44.4291992" lon="11.4555618"><ele>132.14285714285714</ele><time>2026-05-01T08:59:40.969Z</time></trkpt><trkpt lat="44.4291293" lon="11.4555575"><ele>133.71428571428572</ele><time>2026-05-01T08:59:46.971Z</time></trkpt><trkpt lat="44.4290546" lon="11.4555615"><ele>135.28571428571428</ele><time>2026-05-01T08:59:52.97Z</time></trkpt><trkpt lat="44.4289918" lon="11.4556026"><ele>136.85714285714286</ele><time>2026-05-01T08:59:57.97Z</time></trkpt><trkpt lat="44.4289235" lon="11.4556326"><ele>138.42857142857142</ele><time>2026-05-01T09:00:02.973Z</time></trkpt><trkpt lat="44.4288515" lon="11.4556624"><ele>140.0</ele><time>2026-05-01T09:00:06.971Z</time></trkpt><trkpt lat="44.4287738" lon="11.4556851"><ele>140.28571428571428</ele><time>2026-05-01T09:00:10.973Z</time></trkpt><trkpt lat="44.4287063" lon="11.4556718"><ele>140.57142857142856</ele><time>2026-05-01T09:00:13.988Z</time></trkpt><trkpt lat="44.4286372" lon="11.4556673"><ele>140.85714285714286</ele><time>2026-05-01T09:00:17Z</time></trkpt><trkpt lat="44.4285635" lon="11.4556485"><ele>141.14285714285714</ele><time>2026-05-01T09:00:19.965Z</time></trkpt><trkpt lat="44.4285008" lon="11.4556026"><ele>141.42857142857142</ele><time>2026-05-01T09:00:22.954Z</time></trkpt><trkpt lat="44.4284262" lon="11.4555707"><ele>141.71428571428572</ele><time>2026-05-01T09:00:25.959Z</time></trkpt><trkpt lat="44.4283524" lon="11.4555382"><ele>142.0</ele><time>2026-05-01T09:00:28.959Z</time></trkpt><trkpt lat="44.4282764" lon="11.455503"><ele>142.0</ele><time>2026-05-01T09:00:31.958Z</time></trkpt><trkpt lat="44.4281935" lon="11.455476"><ele>142.0</ele><time>2026-05-01T09:00:34.973Z</time></trkpt><trkpt lat="44.4281117" lon="11.455442"><ele>142.0</ele><time>2026-05-01T09:00:37.972Z</time></trkpt><trkpt lat="44.4280199" lon="11.4554088"><ele>142.0</ele><time>2026-05-01T09:00:40.966Z</time></trkpt><trkpt lat="44.4279557" lon="11.4553768"><ele>142.0</ele><time>2026-05-01T09:00:42.964Z</time></trkpt><trkpt lat="44.4278797" lon="11.4553487"><ele>142.0</ele><time>2026-05-01T09:00:44.966Z</time></trkpt><trkpt lat="44.4278059" lon="11.4553222"><ele>142.66666666666669</ele><time>2026-05-01T09:00:46.972Z</time></trkpt><trkpt lat="44.4277286" lon="11.4552989"><ele>143.33333333333334</ele><time>2026-05-01T09:00:48.964Z</time></trkpt><trkpt lat="44.4276483" lon="11.4552744"><ele>144.0</ele><time>2026-05-01T09:00:50.965Z</time></trkpt><trkpt lat="44.4275749" lon="11.4552503"><ele>144.66666666666666</ele><time>2026-05-01T09:00:52.964Z</time></trkpt><trkpt lat="44.4274966" lon="11.4552289"><ele>145.33333333333331</ele><time>2026-05-01T09:00:54.973Z</time></trkpt><trkpt lat="44.4274187" lon="11.455202"><ele>146.0</ele><time>2026-05-01T09:00:56.971Z</time></trkpt><trkpt lat="44.4273457" lon="11.4551807"><ele>146.0</ele><time>2026-05-01T09:00:58.974Z</time></trkpt><trkpt lat="44.4272699" lon="11.4551586"><ele>146.0</ele><time>2026-05-01T09:01:00.968Z</time></trkpt><trkpt lat="44.4271996" lon="11.455135"><ele>146.0</ele><time>2026-05-01T09:01:02.97Z</time></trkpt><trkpt lat="44.4271305" lon="11.455106"><ele>146.0</ele><time>2026-05-01T09:01:04.97Z</time></trkpt><trkpt lat="44.4270679" lon="11.4550729"><ele>146.0</ele><time>2026-05-01T09:01:06.972Z</time></trkpt><trkpt lat="44.4270058" lon="11.4550481"><ele>146.0</ele><time>2026-05-01T09:01:08.968Z</time></trkpt><trkpt lat="44.4269417" lon="11.4550353"><ele>146.0</ele><time>2026-05-01T09:01:10.961Z</time></trkpt><trkpt lat="44.4268756" lon="11.4550149"><ele>146.5</ele><time>2026-05-01T09:01:12.97Z</time></trkpt><trkpt lat="44.4268121" lon="11.4549829"><ele>147.0</ele><time>2026-05-01T09:01:14.971Z</time></trkpt><trkpt lat="44.4267518" lon="11.4549431"><ele>147.5</ele><time>2026-05-01T09:01:16.963Z</time></trkpt><trkpt lat="44.4266709" lon="11.4548799"><ele>148.0</ele><time>2026-05-01T09:01:19.975Z</time></trkpt><trkpt lat="44.426595" lon="11.454802"><ele>148.5</ele><time>2026-05-01T09:01:22.97Z</time></trkpt><trkpt lat="44.4265322" lon="11.4547269"><ele>149.0</ele><time>2026-05-01T09:01:25.975Z</time></trkpt><trkpt lat="44.4264758" lon="11.454685"><ele>149.0</ele><time>2026-05-01T09:01:27.974Z</time></trkpt><trkpt lat="44.4264002" lon="11.4546261"><ele>149.0</ele><time>2026-05-01T09:01:30.972Z</time></trkpt><trkpt lat="44.4263283" lon="11.454578"><ele>149.0</ele><time>2026-05-01T09:01:33.98Z</time></trkpt><trkpt lat="44.4262584" lon="11.4545281"><ele>149.0</ele><time>2026-05-01T09:01:36.969Z</time></trkpt><trkpt lat="44.4261759" lon="11.4545064"><ele>149.0</ele><time>2026-05-01T09:01:39.976Z</time></trkpt><trkpt lat="44.4260913" lon="11.4544831"><ele>149.0</ele><time>2026-05-01T09:01:42.968Z</time></trkpt><trkpt lat="44.4260105" lon="11.4544671"><ele>149.28571428571428</ele><time>2026-05-01T09:01:45.966Z</time></trkpt><trkpt lat="44.4259319" lon="11.4544583"><ele>149.57142857142856</ele><time>2026-05-01T09:01:48.967Z</time></trkpt><trkpt lat="44.4258645" lon="11.4544536"><ele>149.85714285714286</ele><time>2026-05-01T09:01:51.972Z</time></trkpt><trkpt lat="44.4257922" lon="11.4544428"><ele>150.14285714285714</ele><time>2026-05-01T09:01:54.979Z</time></trkpt><trkpt lat="44.4257294" lon="11.4544288"><ele>150.42857142857144</ele><time>2026-05-01T09:01:57.966Z</time></trkpt><trkpt lat="44.4256655" lon="11.4544249"><ele>150.71428571428572</ele><time>2026-05-01T09:02:00.971Z</time></trkpt><trkpt lat="44.4255853" lon="11.4544157"><ele>151.0</ele><time>2026-05-01T09:02:05.005Z</time></trkpt><trkpt lat="44.4255088" lon="11.4544079"><ele>152.2857142857143</ele><time>2026-05-01T09:02:08.972Z</time></trkpt><trkpt lat="44.4254406" lon="11.4544079"><ele>153.57142857142858</ele><time>2026-05-01T09:02:12.982Z</time></trkpt><trkpt lat="44.4253717" lon="11.4544"><ele>154.85714285714286</ele><time>2026-05-01T09:02:16.977Z</time></trkpt><trkpt lat="44.4253055" lon="11.4544061"><ele>156.14285714285717</ele><time>2026-05-01T09:02:20.978Z</time></trkpt><trkpt lat="44.4252409" lon="11.4544252"><ele>157.42857142857144</ele><time>2026-05-01T09:02:23.971Z</time></trkpt><trkpt lat="44.4251725" lon="11.4544359"><ele>158.71428571428572</ele><time>2026-05-01T09:02:27.975Z</time></trkpt><trkpt lat="44.4251038" lon="11.4544386"><ele>160.0</ele><time>2026-05-01T09:02:31.972Z</time></trkpt><trkpt lat="44.4250344" lon="11.4544372"><ele>160.0</ele><time>2026-05-01T09:02:35.97Z</time></trkpt><trkpt lat="44.4249646" lon="11.4544443"><ele>160.0</ele><time>2026-05-01T09:02:39.967Z</time></trkpt><trkpt lat="44.4248896" lon="11.4544325"><ele>160.0</ele><time>2026-05-01T09:02:44.977Z</time></trkpt><trkpt lat="44.4247945" lon="11.4544192"><ele>160.0</ele><time>2026-05-01T09:02:53.965Z</time></trkpt><trkpt lat="44.4247064" lon="11.4543802"><ele>160.0</ele><time>2026-05-01T09:03:03.978Z</time></trkpt><trkpt lat="44.424619" lon="11.454401"><ele>160.0</ele><time>2026-05-01T09:03:11.969Z</time></trkpt><trkpt lat="44.4245543" lon="11.4544214"><ele>162.42857142857142</ele><time>2026-05-01T09:03:23.977Z</time></trkpt><trkpt lat="44.4244905" lon="11.4544315"><ele>164.85714285714286</ele><time>2026-05-01T09:03:29.974Z</time></trkpt><trkpt lat="44.4244276" lon="11.4544876"><ele>167.28571428571428</ele><time>2026-05-01T09:03:35.981Z</time></trkpt><trkpt lat="44.4243775" lon="11.4545463"><ele>169.71428571428572</ele><time>2026-05-01T09:03:41.977Z</time></trkpt><trkpt lat="44.4243187" lon="11.4545824"><ele>172.14285714285714</ele><time>2026-05-01T09:03:47.971Z</time></trkpt><trkpt lat="44.4242729" lon="11.4546524"><ele>174.57142857142858</ele><time>2026-05-01T09:03:53.97Z</time></trkpt><trkpt lat="44.4242281" lon="11.4547233"><ele>177.0</ele><time>2026-05-01T09:04:01.962Z</time></trkpt><trkpt lat="44.4241805" lon="11.454804"><ele>177.2857142857143</ele><time>2026-05-01T09:04:09.974Z</time></trkpt><trkpt lat="44.4241299" lon="11.4548752"><ele>177.57142857142856</ele><time>2026-05-01T09:04:13.984Z</time></trkpt><trkpt lat="44.4240812" lon="11.454953"><ele>177.85714285714286</ele><time>2026-05-01T09:04:18.974Z</time></trkpt><trkpt lat="44.4240388" lon="11.4550326"><ele>178.14285714285717</ele><time>2026-05-01T09:04:23.978Z</time></trkpt><trkpt lat="44.4240094" lon="11.4551166"><ele>178.42857142857144</ele><time>2026-05-01T09:04:28.976Z</time></trkpt><trkpt lat="44.4239719" lon="11.4552084"><ele>178.71428571428572</ele><time>2026-05-01T09:04:33.978Z</time></trkpt><trkpt lat="44.4239281" lon="11.4552975"><ele>179.0</ele><time>2026-05-01T09:04:38.974Z</time></trkpt><trkpt lat="44.4238998" lon="11.455386"><ele>177.79999999999998</ele><time>2026-05-01T09:04:43.982Z</time></trkpt><trkpt lat="44.4238845" lon="11.4554803"><ele>176.6</ele><time>2026-05-01T09:04:47.035Z</time></trkpt><trkpt lat="44.4238484" lon="11.4555798"><ele>175.4</ele><time>2026-05-01T09:04:49.964Z</time></trkpt><trkpt lat="44.4237888" lon="11.4557062"><ele>174.2</ele><time>2026-05-01T09:04:52.971Z</time></trkpt><trkpt lat="44.4237338" lon="11.4558231"><ele>173.0</ele><time>2026-05-01T09:04:54.97Z</time></trkpt><trkpt lat="44.4236623" lon="11.4559584"><ele>173.60000000000002</ele><time>2026-05-01T09:04:56.961Z</time></trkpt><trkpt lat="44.4236089" lon="11.4560418"><ele>174.20000000000002</ele><time>2026-05-01T09:04:57.969Z</time></trkpt><trkpt lat="44.4235461" lon="11.4561448"><ele>174.8</ele><time>2026-05-01T09:04:58.968Z</time></trkpt><trkpt lat="44.4234825" lon="11.4562303"><ele>175.4</ele><time>2026-05-01T09:04:59.971Z</time></trkpt><trkpt lat="44.4234075" lon="11.4563227"><ele>176.0</ele><time>2026-05-01T09:05:00.97Z</time></trkpt><trkpt lat="44.423345" lon="11.4564207"><ele>176.0</ele><time>2026-05-01T09:05:01.963Z</time></trkpt><trkpt lat="44.4232813" lon="11.4565129"><ele>176.0</ele><time>2026-05-01T09:05:02.973Z</time></trkpt><trkpt lat="44.4232157" lon="11.4566018"><ele>176.0</ele><time>2026-05-01T09:05:03.966Z</time></trkpt><trkpt lat="44.4231578" lon="11.4566875"><ele>176.0</ele><time>2026-05-01T09:05:04.97Z</time></trkpt><trkpt lat="44.4231024" lon="11.4567672"><ele>176.0</ele><time>2026-05-01T09:05:05.984Z</time></trkpt><trkpt lat="44.4230505" lon="11.4568427"><ele>176.0</ele><time>2026-05-01T09:05:06.968Z</time></trkpt><trkpt lat="44.4230008" lon="11.4569189"><ele>176.83333333333331</ele><time>2026-05-01T09:05:07.964Z</time></trkpt><trkpt lat="44.4229521" lon="11.4569892"><ele>177.66666666666666</ele><time>2026-05-01T09:05:09.035Z</time></trkpt><trkpt lat="44.4229041" lon="11.4570619"><ele>178.5</ele><time>2026-05-01T09:05:09.973Z</time></trkpt><trkpt lat="44.4228532" lon="11.4571204"><ele>179.33333333333334</ele><time>2026-05-01T09:05:11.042Z</time></trkpt><trkpt lat="44.4227483" lon="11.4572209"><ele>180.16666666666669</ele><time>2026-05-01T09:05:12.961Z</time></trkpt><trkpt lat="44.422667" lon="11.4573307"><ele>181.0</ele><time>2026-05-01T09:05:14.958Z</time></trkpt><trkpt lat="44.4226027" lon="11.4574322"><ele>181.0</ele><time>2026-05-01T09:05:16.996Z</time></trkpt><trkpt lat="44.4225534" lon="11.4575163"><ele>181.0</ele><time>2026-05-01T09:05:18.982Z</time></trkpt><trkpt lat="44.4225036" lon="11.4575816"><ele>181.0</ele><time>2026-05-01T09:05:20.973Z</time></trkpt><trkpt lat="44.4224494" lon="11.4576603"><ele>181.0</ele><time>2026-05-01T09:05:22.972Z</time></trkpt><trkpt lat="44.4224021" lon="11.4577476"><ele>181.0</ele><time>2026-05-01T09:05:24.978Z</time></trkpt><trkpt lat="44.4223533" lon="11.4578161"><ele>181.0</ele><time>2026-05-01T09:05:26.965Z</time></trkpt><trkpt lat="44.4222974" lon="11.4578887"><ele>181.0</ele><time>2026-05-01T09:05:28.965Z</time></trkpt><trkpt lat="44.4222422" lon="11.457965"><ele>180.28571428571428</ele><time>2026-05-01T09:05:30.971Z</time></trkpt><trkpt lat="44.4221969" lon="11.4580379"><ele>179.57142857142856</ele><time>2026-05-01T09:05:32.976Z</time></trkpt><trkpt lat="44.4221442" lon="11.458118"><ele>178.85714285714286</ele><time>2026-05-01T09:05:34.971Z</time></trkpt><trkpt lat="44.4220922" lon="11.4581838"><ele>178.14285714285714</ele><time>2026-05-01T09:05:36.978Z</time></trkpt><trkpt lat="44.4220371" lon="11.4582624"><ele>177.42857142857142</ele><time>2026-05-01T09:05:39.965Z</time></trkpt><trkpt lat="44.4219888" lon="11.4583344"><ele>176.71428571428572</ele><time>2026-05-01T09:05:43.969Z</time></trkpt><trkpt lat="44.421946" lon="11.458405"><ele>176.0</ele><time>2026-05-01T09:05:48.96Z</time></trkpt><trkpt lat="44.4219077" lon="11.4584779"><ele>177.71428571428572</ele><time>2026-05-01T09:05:53.973Z</time></trkpt><trkpt lat="44.4218789" lon="11.4583875"><ele>179.42857142857142</ele><time>2026-05-01T09:06:03.978Z</time></trkpt><trkpt lat="44.4218237" lon="11.4583152"><ele>181.14285714285714</ele><time>2026-05-01T09:06:09.984Z</time></trkpt><trkpt lat="44.4217814" lon="11.4582427"><ele>182.85714285714286</ele><time>2026-05-01T09:06:14.983Z</time></trkpt><trkpt lat="44.4217483" lon="11.4581562"><ele>184.57142857142856</ele><time>2026-05-01T09:06:20.977Z</time></trkpt><trkpt lat="44.4217285" lon="11.458059"><ele>186.28571428571428</ele><time>2026-05-01T09:06:26.97Z</time></trkpt><trkpt lat="44.4217508" lon="11.457963"><ele>188.0</ele><time>2026-05-01T09:06:32.973Z</time></trkpt><trkpt lat="44.4216997" lon="11.4580414"><ele>188.0</ele><time>2026-05-01T09:09:43.974Z</time></trkpt><trkpt lat="44.4217406" lon="11.4579709"><ele>188.0</ele><time>2026-05-01T09:12:34.964Z</time></trkpt><trkpt lat="44.4217761" lon="11.4578891"><ele>188.0</ele><time>2026-05-01T09:12:40.972Z</time></trkpt><trkpt lat="44.4218051" lon="11.457806"><ele>188.0</ele><time>2026-05-01T09:12:45.981Z</time></trkpt><trkpt lat="44.421839" lon="11.4577165"><ele>188.0</ele><time>2026-05-01T09:12:50.96Z</time></trkpt><trkpt lat="44.4218691" lon="11.4576348"><ele>188.0</ele><time>2026-05-01T09:12:55.98Z</time></trkpt><trkpt lat="44.4218929" lon="11.4575377"><ele>188.0</ele><time>2026-05-01T09:13:01.96Z</time></trkpt><trkpt lat="44.421919" lon="11.4574571"><ele>190.42857142857142</ele><time>2026-05-01T09:13:06.982Z</time></trkpt><trkpt lat="44.4219556" lon="11.4573682"><ele>192.85714285714283</ele><time>2026-05-01T09:13:12.967Z</time></trkpt><trkpt lat="44.4219814" lon="11.4572788"><ele>195.28571428571428</ele><time>2026-05-01T09:13:18.962Z</time></trkpt><trkpt lat="44.4219975" lon="11.4571933"><ele>197.71428571428572</ele><time>2026-05-01T09:13:24.969Z</time></trkpt><trkpt lat="44.4220153" lon="11.4571065"><ele>200.14285714285714</ele><time>2026-05-01T09:13:29.964Z</time></trkpt><trkpt lat="44.4220374" lon="11.4570146"><ele>202.57142857142858</ele><time>2026-05-01T09:13:36.963Z</time></trkpt><trkpt lat="44.4220579" lon="11.456925"><ele>205.0</ele><time>2026-05-01T09:13:43.964Z</time></trkpt><trkpt lat="44.4220506" lon="11.4568257"><ele>203.85714285714286</ele><time>2026-05-01T09:13:51.964Z</time></trkpt><trkpt lat="44.4220732" lon="11.4567412"><ele>202.7142857142857</ele><time>2026-05-01T09:13:57.965Z</time></trkpt><trkpt lat="44.4220945" lon="11.456651"><ele>201.57142857142856</ele><time>2026-05-01T09:14:04.967Z</time></trkpt><trkpt lat="44.422115" lon="11.4565526"><ele>200.42857142857144</ele><time>2026-05-01T09:14:10.966Z</time></trkpt><trkpt lat="44.4221354" lon="11.4564594"><ele>199.28571428571428</ele><time>2026-05-01T09:14:15.972Z</time></trkpt><trkpt lat="44.4221604" lon="11.4563708"><ele>198.14285714285714</ele><time>2026-05-01T09:14:21.971Z</time></trkpt><trkpt lat="44.4221862" lon="11.4562773"><ele>197.0</ele><time>2026-05-01T09:14:27.981Z</time></trkpt><trkpt lat="44.4222147" lon="11.4561877"><ele>199.85714285714286</ele><time>2026-05-01T09:14:34.968Z</time></trkpt><trkpt lat="44.4222569" lon="11.4561055"><ele>202.71428571428572</ele><time>2026-05-01T09:14:41.966Z</time></trkpt><trkpt lat="44.4222978" lon="11.4560377"><ele>205.57142857142856</ele><time>2026-05-01T09:14:46.977Z</time></trkpt><trkpt lat="44.4223091" lon="11.4559408"><ele>208.42857142857144</ele><time>2026-05-01T09:14:53.978Z</time></trkpt><trkpt lat="44.422249" lon="11.455899"><ele>211.28571428571428</ele><time>2026-05-01T09:15:02.963Z</time></trkpt><trkpt lat="44.4221901" lon="11.4559601"><ele>214.14285714285714</ele><time>2026-05-01T09:15:07.979Z</time></trkpt><trkpt lat="44.4221372" lon="11.4560201"><ele>217.0</ele><time>2026-05-01T09:15:12.971Z</time></trkpt><trkpt lat="44.4220798" lon="11.4560691"><ele>217.57142857142858</ele><time>2026-05-01T09:15:17.951Z</time></trkpt><trkpt lat="44.4220242" lon="11.4561259"><ele>218.14285714285714</ele><time>2026-05-01T09:15:24.958Z</time></trkpt><trkpt lat="44.4219638" lon="11.4561886"><ele>218.71428571428572</ele><time>2026-05-01T09:15:30.959Z</time></trkpt><trkpt lat="44.4219034" lon="11.4562454"><ele>219.28571428571428</ele><time>2026-05-01T09:15:36.958Z</time></trkpt><trkpt lat="44.4218494" lon="11.4563084"><ele>219.85714285714286</ele><time>2026-05-01T09:15:42.96Z</time></trkpt><trkpt lat="44.4217918" lon="11.4563707"><ele>220.42857142857144</ele><time>2026-05-01T09:15:46.962Z</time></trkpt><trkpt lat="44.4217356" lon="11.4564452"><ele>221.0</ele><time>2026-05-01T09:15:51.953Z</time></trkpt><trkpt lat="44.4216896" lon="11.4565408"><ele>221.00000000000003</ele><time>2026-05-01T09:15:55.961Z</time></trkpt><trkpt lat="44.4216374" lon="11.4566116"><ele>221.0</ele><time>2026-05-01T09:15:59.958Z</time></trkpt><trkpt lat="44.4215888" lon="11.4566935"><ele>221.0</ele><time>2026-05-01T09:16:03.96Z</time></trkpt><trkpt lat="44.4215457" lon="11.4567826"><ele>221.0</ele><time>2026-05-01T09:16:07.955Z</time></trkpt><trkpt lat="44.4215048" lon="11.4568603"><ele>221.0</ele><time>2026-05-01T09:16:11.954Z</time></trkpt><trkpt lat="44.4214567" lon="11.4569313"><ele>221.00000000000003</ele><time>2026-05-01T09:16:15.959Z</time></trkpt><trkpt lat="44.4214082" lon="11.4570114"><ele>221.0</ele><time>2026-05-01T09:16:20.956Z</time></trkpt><trkpt lat="44.421351" lon="11.4570557"><ele>223.0</ele><time>2026-05-01T09:16:26.962Z</time></trkpt><trkpt lat="44.421284" lon="11.4570727"><ele>225.0</ele><time>2026-05-01T09:16:31.953Z</time></trkpt><trkpt lat="44.4212154" lon="11.4570857"><ele>227.0</ele><time>2026-05-01T09:16:36.958Z</time></trkpt><trkpt lat="44.4211509" lon="11.4570827"><ele>229.0</ele><time>2026-05-01T09:16:41.957Z</time></trkpt><trkpt lat="44.4210811" lon="11.4570669"><ele>230.99999999999997</ele><time>2026-05-01T09:16:46.96Z</time></trkpt><trkpt lat="44.421011" lon="11.4570262"><ele>233.0</ele><time>2026-05-01T09:16:51.956Z</time></trkpt><trkpt lat="44.4209532" lon="11.4569831"><ele>235.0</ele><time>2026-05-01T09:16:55.947Z</time></trkpt><trkpt lat="44.4208915" lon="11.4569478"><ele>235.0</ele><time>2026-05-01T09:17:00.98Z</time></trkpt><trkpt lat="44.4208224" lon="11.4569033"><ele>234.99999999999997</ele><time>2026-05-01T09:17:04.951Z</time></trkpt><trkpt lat="44.4207589" lon="11.4568475"><ele>235.0</ele><time>2026-05-01T09:17:09.949Z</time></trkpt><trkpt lat="44.4206982" lon="11.4567891"><ele>235.0</ele><time>2026-05-01T09:17:14.954Z</time></trkpt><trkpt lat="44.4206445" lon="11.4567379"><ele>234.99999999999997</ele><time>2026-05-01T09:17:19.961Z</time></trkpt><trkpt lat="44.4205874" lon="11.4566794"><ele>235.0</ele><time>2026-05-01T09:17:26.954Z</time></trkpt><trkpt lat="44.4205324" lon="11.4566135"><ele>235.0</ele><time>2026-05-01T09:17:30.951Z</time></trkpt><trkpt lat="44.4204887" lon="11.4565206"><ele>233.57142857142856</ele><time>2026-05-01T09:17:34.963Z</time></trkpt><trkpt lat="44.4204571" lon="11.4564435"><ele>232.1428571428571</ele><time>2026-05-01T09:17:39.958Z</time></trkpt><trkpt lat="44.4204182" lon="11.4563705"><ele>230.71428571428572</ele><time>2026-05-01T09:17:43.966Z</time></trkpt><trkpt lat="44.4203815" lon="11.4562982"><ele>229.28571428571428</ele><time>2026-05-01T09:17:49.967Z</time></trkpt><trkpt lat="44.4203333" lon="11.4562335"><ele>227.85714285714286</ele><time>2026-05-01T09:17:55.964Z</time></trkpt><trkpt lat="44.4202825" lon="11.4561691"><ele>226.42857142857144</ele><time>2026-05-01T09:18:02.958Z</time></trkpt><trkpt lat="44.4202103" lon="11.4561279"><ele>225.00000000000003</ele><time>2026-05-01T09:18:08.967Z</time></trkpt><trkpt lat="44.4201481" lon="11.4560894"><ele>229.14285714285717</ele><time>2026-05-01T09:18:13.97Z</time></trkpt><trkpt lat="44.4200858" lon="11.4560642"><ele>233.28571428571428</ele><time>2026-05-01T09:19:14.958Z</time></trkpt><trkpt lat="44.4200198" lon="11.4560418"><ele>237.42857142857144</ele><time>2026-05-01T09:19:19.967Z</time></trkpt><trkpt lat="44.4199467" lon="11.4560199"><ele>241.57142857142858</ele><time>2026-05-01T09:19:24.986Z</time></trkpt><trkpt lat="44.4198815" lon="11.455984"><ele>245.71428571428572</ele><time>2026-05-01T09:19:29.966Z</time></trkpt><trkpt lat="44.4198214" lon="11.4559253"><ele>249.85714285714286</ele><time>2026-05-01T09:19:34.961Z</time></trkpt><trkpt lat="44.4197717" lon="11.4558565"><ele>254.0</ele><time>2026-05-01T09:19:39.971Z</time></trkpt><trkpt lat="44.4197173" lon="11.4557987"><ele>254.0</ele><time>2026-05-01T09:19:45.946Z</time></trkpt><trkpt lat="44.4196663" lon="11.4557363"><ele>254.0</ele><time>2026-05-01T09:19:50.955Z</time></trkpt><trkpt lat="44.4196125" lon="11.4556804"><ele>254.0</ele><time>2026-05-01T09:19:55.961Z</time></trkpt><trkpt lat="44.4195584" lon="11.4556232"><ele>254.0</ele><time>2026-05-01T09:20:00.965Z</time></trkpt><trkpt lat="44.419506" lon="11.4555482"><ele>254.0</ele><time>2026-05-01T09:20:06.98Z</time></trkpt><trkpt lat="44.4194464" lon="11.4554955"><ele>254.0</ele><time>2026-05-01T09:20:12.97Z</time></trkpt><trkpt lat="44.4193835" lon="11.45545"><ele>254.0</ele><time>2026-05-01T09:20:20.948Z</time></trkpt><trkpt lat="44.4193308" lon="11.4553908"><ele>256.42857142857144</ele><time>2026-05-01T09:20:26.948Z</time></trkpt><trkpt lat="44.4192798" lon="11.4553378"><ele>258.85714285714283</ele><time>2026-05-01T09:20:32.977Z</time></trkpt><trkpt lat="44.4192252" lon="11.4552731"><ele>261.2857142857143</ele><time>2026-05-01T09:20:41.965Z</time></trkpt><trkpt lat="44.4191557" lon="11.4552385"><ele>263.7142857142857</ele><time>2026-05-01T09:20:48.969Z</time></trkpt><trkpt lat="44.4190887" lon="11.4552146"><ele>266.14285714285717</ele><time>2026-05-01T09:20:54.956Z</time></trkpt><trkpt lat="44.4190316" lon="11.455166"><ele>268.57142857142856</ele><time>2026-05-01T09:21:00.959Z</time></trkpt><trkpt lat="44.4189641" lon="11.4551624"><ele>271.0</ele><time>2026-05-01T09:21:07.962Z</time></trkpt><trkpt lat="44.4188991" lon="11.4551168"><ele>271.0</ele><time>2026-05-01T09:21:14.962Z</time></trkpt><trkpt lat="44.4188385" lon="11.4550597"><ele>271.0</ele><time>2026-05-01T09:21:20.96Z</time></trkpt><trkpt lat="44.4187669" lon="11.4550315"><ele>271.0</ele><time>2026-05-01T09:21:25.956Z</time></trkpt><trkpt lat="44.418715" lon="11.4549794"><ele>271.0</ele><time>2026-05-01T09:21:30.963Z</time></trkpt><trkpt lat="44.4186553" lon="11.4549214"><ele>271.0</ele><time>2026-05-01T09:21:36.955Z</time></trkpt><trkpt lat="44.4185961" lon="11.4548756"><ele>271.0</ele><time>2026-05-01T09:21:42.963Z</time></trkpt><trkpt lat="44.4185371" lon="11.4548366"><ele>271.0</ele><time>2026-05-01T09:21:48.968Z</time></trkpt><trkpt lat="44.4184747" lon="11.4547927"><ele>270.0</ele><time>2026-05-01T09:21:54.956Z</time></trkpt><trkpt lat="44.4184013" lon="11.4547575"><ele>269.0</ele><time>2026-05-01T09:22:00.96Z</time></trkpt><trkpt lat="44.4183512" lon="11.4546796"><ele>268.0</ele><time>2026-05-01T09:22:07.961Z</time></trkpt><trkpt lat="44.4183139" lon="11.4545986"><ele>267.0</ele><time>2026-05-01T09:22:14.955Z</time></trkpt><trkpt lat="44.4182694" lon="11.4545226"><ele>266.0</ele><time>2026-05-01T09:22:21.956Z</time></trkpt><trkpt lat="44.4182492" lon="11.4544351"><ele>265.0</ele><time>2026-05-01T09:22:27.962Z</time></trkpt><trkpt lat="44.4182174" lon="11.4543541"><ele>264.0</ele><time>2026-05-01T09:22:34.957Z</time></trkpt><trkpt lat="44.4181784" lon="11.4542807"><ele>266.0</ele><time>2026-05-01T09:22:40.956Z</time></trkpt><trkpt lat="44.4181478" lon="11.454186"><ele>268.0</ele><time>2026-05-01T09:22:46.958Z</time></trkpt><trkpt lat="44.4181129" lon="11.4540998"><ele>270.0</ele><time>2026-05-01T09:22:52.956Z</time></trkpt><trkpt lat="44.418082" lon="11.4540226"><ele>272.0</ele><time>2026-05-01T09:22:58.952Z</time></trkpt><trkpt lat="44.4180594" lon="11.4539306"><ele>274.0</ele><time>2026-05-01T09:23:07.959Z</time></trkpt><trkpt lat="44.4180326" lon="11.4538499"><ele>276.0</ele><time>2026-05-01T09:23:13.954Z</time></trkpt><trkpt lat="44.4179856" lon="11.4537715"><ele>278.0</ele><time>2026-05-01T09:23:19.964Z</time></trkpt><trkpt lat="44.4179362" lon="11.4537059"><ele>278.85714285714283</ele><time>2026-05-01T09:23:25.967Z</time></trkpt><trkpt lat="44.4178863" lon="11.4536518"><ele>279.7142857142857</ele><time>2026-05-01T09:23:30.968Z</time></trkpt><trkpt lat="44.4178214" lon="11.4536264"><ele>280.57142857142856</ele><time>2026-05-01T09:23:34.962Z</time></trkpt><trkpt lat="44.4177499" lon="11.4535942"><ele>281.42857142857144</ele><time>2026-05-01T09:23:39.963Z</time></trkpt><trkpt lat="44.417678" lon="11.4535595"><ele>282.2857142857143</ele><time>2026-05-01T09:23:44.962Z</time></trkpt><trkpt lat="44.4176125" lon="11.4535078"><ele>283.1428571428571</ele><time>2026-05-01T09:23:49.964Z</time></trkpt><trkpt lat="44.4175427" lon="11.4534895"><ele>284.0</ele><time>2026-05-01T09:23:54.956Z</time></trkpt><trkpt lat="44.4174666" lon="11.4534669"><ele>284.0</ele><time>2026-05-01T09:24:00.958Z</time></trkpt><trkpt lat="44.4174039" lon="11.4534391"><ele>284.0</ele><time>2026-05-01T09:24:04.974Z</time></trkpt><trkpt lat="44.4173432" lon="11.4534061"><ele>284.0</ele><time>2026-05-01T09:24:09.96Z</time></trkpt><trkpt lat="44.4172756" lon="11.4533751"><ele>284.0</ele><time>2026-05-01T09:24:14.957Z</time></trkpt><trkpt lat="44.4172014" lon="11.4533472"><ele>284.0</ele><time>2026-05-01T09:24:19.958Z</time></trkpt><trkpt lat="44.4171308" lon="11.453325"><ele>284.0</ele><time>2026-05-01T09:24:24.96Z</time></trkpt><trkpt lat="44.4170598" lon="11.4532983"><ele>284.0</ele><time>2026-05-01T09:24:29.965Z</time></trkpt><trkpt lat="44.4169873" lon="11.4532766"><ele>283.59999999999997</ele><time>2026-05-01T09:24:34.958Z</time></trkpt><trkpt lat="44.4169171" lon="11.4532557"><ele>283.2</ele><time>2026-05-01T09:24:38.959Z</time></trkpt><trkpt lat="44.4168309" lon="11.4532298"><ele>282.79999999999995</ele><time>2026-05-01T09:24:41.963Z</time></trkpt><trkpt lat="44.4167443" lon="11.4532"><ele>282.4</ele><time>2026-05-01T09:24:43.965Z</time></trkpt><trkpt lat="44.4166305" lon="11.4531345"><ele>282.0</ele><time>2026-05-01T09:24:45.958Z</time></trkpt><trkpt lat="44.4165573" lon="11.4530824"><ele>282.0</ele><time>2026-05-01T09:24:46.955Z</time></trkpt><trkpt lat="44.4164788" lon="11.4530296"><ele>282.0</ele><time>2026-05-01T09:24:47.966Z</time></trkpt><trkpt lat="44.4164024" lon="11.4529756"><ele>282.0</ele><time>2026-05-01T09:24:48.961Z</time></trkpt><trkpt lat="44.416328" lon="11.4529224"><ele>282.0</ele><time>2026-05-01T09:24:49.955Z</time></trkpt><trkpt lat="44.4162505" lon="11.4528706"><ele>282.0</ele><time>2026-05-01T09:24:50.956Z</time></trkpt><trkpt lat="44.4161696" lon="11.4528164"><ele>282.0</ele><time>2026-05-01T09:24:51.961Z</time></trkpt><trkpt lat="44.4160893" lon="11.4527637"><ele>280.2</ele><time>2026-05-01T09:24:52.955Z</time></trkpt><trkpt lat="44.4160075" lon="11.4527011"><ele>278.4</ele><time>2026-05-01T09:24:53.971Z</time></trkpt><trkpt lat="44.4159267" lon="11.452638"><ele>276.6</ele><time>2026-05-01T09:24:54.975Z</time></trkpt><trkpt lat="44.4158452" lon="11.4525765"><ele>274.8</ele><time>2026-05-01T09:24:55.965Z</time></trkpt><trkpt lat="44.4157622" lon="11.4525163"><ele>273.0</ele><time>2026-05-01T09:24:56.967Z</time></trkpt><trkpt lat="44.4156867" lon="11.4524417"><ele>273.0</ele><time>2026-05-01T09:24:57.969Z</time></trkpt><trkpt lat="44.4156235" lon="11.4523685"><ele>273.0</ele><time>2026-05-01T09:24:58.966Z</time></trkpt><trkpt lat="44.415579" lon="11.4522776"><ele>273.0</ele><time>2026-05-01T09:24:59.971Z</time></trkpt><trkpt lat="44.4155571" lon="11.4521742"><ele>273.0</ele><time>2026-05-01T09:25:00.958Z</time></trkpt><trkpt lat="44.4155377" lon="11.4520778"><ele>273.0</ele><time>2026-05-01T09:25:02.052Z</time></trkpt><trkpt lat="44.4155213" lon="11.4519805"><ele>273.0</ele><time>2026-05-01T09:25:03.033Z</time></trkpt><trkpt lat="44.4155084" lon="11.4518911"><ele>273.0</ele><time>2026-05-01T09:25:04.039Z</time></trkpt><trkpt lat="44.4154946" lon="11.4518011"><ele>273.8333333333333</ele><time>2026-05-01T09:25:04.955Z</time></trkpt><trkpt lat="44.4154801" lon="11.451646"><ele>274.6666666666667</ele><time>2026-05-01T09:25:06.97Z</time></trkpt><trkpt lat="44.4154666" lon="11.4515077"><ele>275.5</ele><time>2026-05-01T09:25:08.976Z</time></trkpt><trkpt lat="44.4154522" lon="11.4513979"><ele>276.33333333333337</ele><time>2026-05-01T09:25:10.968Z</time></trkpt><trkpt lat="44.4154367" lon="11.4513106"><ele>277.1666666666667</ele><time>2026-05-01T09:25:12.972Z</time></trkpt><trkpt lat="44.4154201" lon="11.4511921"><ele>278.0</ele><time>2026-05-01T09:25:15.985Z</time></trkpt><trkpt lat="44.4154066" lon="11.4510925"><ele>278.7142857142857</ele><time>2026-05-01T09:25:18.963Z</time></trkpt><trkpt lat="44.4153799" lon="11.4510062"><ele>279.42857142857144</ele><time>2026-05-01T09:25:21.963Z</time></trkpt><trkpt lat="44.415341" lon="11.4509125"><ele>280.14285714285717</ele><time>2026-05-01T09:25:26.002Z</time></trkpt><trkpt lat="44.4152854" lon="11.4508389"><ele>280.8571428571429</ele><time>2026-05-01T09:25:30.975Z</time></trkpt><trkpt lat="44.4152418" lon="11.4507598"><ele>281.5714285714286</ele><time>2026-05-01T09:25:35.972Z</time></trkpt><trkpt lat="44.4151847" lon="11.4507075"><ele>282.2857142857143</ele><time>2026-05-01T09:25:40.967Z</time></trkpt><trkpt lat="44.4151253" lon="11.4506659"><ele>283.0</ele><time>2026-05-01T09:25:45.974Z</time></trkpt><trkpt lat="44.4150675" lon="11.4505933"><ele>283.0</ele><time>2026-05-01T09:25:50.966Z</time></trkpt><trkpt lat="44.4150214" lon="11.4505275"><ele>283.0</ele><time>2026-05-01T09:25:54.97Z</time></trkpt><trkpt lat="44.4149701" lon="11.4504655"><ele>283.0</ele><time>2026-05-01T09:25:58.97Z</time></trkpt><trkpt lat="44.4149023" lon="11.4504025"><ele>283.0</ele><time>2026-05-01T09:26:02.973Z</time></trkpt><trkpt lat="44.4148466" lon="11.4503262"><ele>283.0</ele><time>2026-05-01T09:26:06.974Z</time></trkpt><trkpt lat="44.4147863" lon="11.450252"><ele>283.0</ele><time>2026-05-01T09:26:10.969Z</time></trkpt><trkpt lat="44.4147323" lon="11.4501939"><ele>283.0</ele><time>2026-05-01T09:26:13.973Z</time></trkpt><trkpt lat="44.414671" lon="11.450133"><ele>282.8333333333333</ele><time>2026-05-01T09:26:16.973Z</time></trkpt><trkpt lat="44.4146191" lon="11.450078"><ele>282.66666666666663</ele><time>2026-05-01T09:26:19.966Z</time></trkpt><trkpt lat="44.4145697" lon="11.450014"><ele>282.5</ele><time>2026-05-01T09:26:22.969Z</time></trkpt><trkpt lat="44.4145126" lon="11.4499325"><ele>282.3333333333333</ele><time>2026-05-01T09:26:25.962Z</time></trkpt><trkpt lat="44.4144617" lon="11.4498742"><ele>282.1666666666667</ele><time>2026-05-01T09:26:27.959Z</time></trkpt><trkpt lat="44.4143953" lon="11.449792"><ele>282.0</ele><time>2026-05-01T09:26:30.977Z</time></trkpt><trkpt lat="44.4143206" lon="11.4497151"><ele>282.0</ele><time>2026-05-01T09:26:33.967Z</time></trkpt><trkpt lat="44.4142535" lon="11.4496444"><ele>282.0</ele><time>2026-05-01T09:26:36.965Z</time></trkpt><trkpt lat="44.4141769" lon="11.4495883"><ele>282.0</ele><time>2026-05-01T09:26:39.957Z</time></trkpt><trkpt lat="44.4141105" lon="11.449523"><ele>282.0</ele><time>2026-05-01T09:26:42.969Z</time></trkpt><trkpt lat="44.4140628" lon="11.4494622"><ele>282.0</ele><time>2026-05-01T09:26:44.964Z</time></trkpt><trkpt lat="44.4140117" lon="11.4494046"><ele>282.0</ele><time>2026-05-01T09:26:46.964Z</time></trkpt><trkpt lat="44.4139583" lon="11.4493533"><ele>282.0</ele><time>2026-05-01T09:26:48.962Z</time></trkpt><trkpt lat="44.4138771" lon="11.4492979"><ele>280.3333333333333</ele><time>2026-05-01T09:26:51.965Z</time></trkpt><trkpt lat="44.4138209" lon="11.4492431"><ele>278.6666666666667</ele><time>2026-05-01T09:26:53.962Z</time></trkpt><trkpt lat="44.413757" lon="11.4491907"><ele>277.0</ele><time>2026-05-01T09:26:55.967Z</time></trkpt><trkpt lat="44.4136797" lon="11.4491419"><ele>275.33333333333337</ele><time>2026-05-01T09:26:57.966Z</time></trkpt><trkpt lat="44.4135907" lon="11.4491069"><ele>273.6666666666667</ele><time>2026-05-01T09:26:59.967Z</time></trkpt><trkpt lat="44.4134869" lon="11.4490523"><ele>272.0</ele><time>2026-05-01T09:27:01.964Z</time></trkpt><trkpt lat="44.4134205" lon="11.4490192"><ele>271.99999999999994</ele><time>2026-05-01T09:27:02.96Z</time></trkpt><trkpt lat="44.4133558" lon="11.4489731"><ele>272.0</ele><time>2026-05-01T09:27:03.964Z</time></trkpt><trkpt lat="44.4132897" lon="11.4489243"><ele>272.0</ele><time>2026-05-01T09:27:04.956Z</time></trkpt><trkpt lat="44.4132307" lon="11.448879"><ele>272.0</ele><time>2026-05-01T09:27:05.963Z</time></trkpt><trkpt lat="44.4131791" lon="11.4488248"><ele>272.0</ele><time>2026-05-01T09:27:06.97Z</time></trkpt><trkpt lat="44.4131265" lon="11.4487503"><ele>271.99999999999994</ele><time>2026-05-01T09:27:07.964Z</time></trkpt><trkpt lat="44.4130819" lon="11.4486659"><ele>272.0</ele><time>2026-05-01T09:27:08.974Z</time></trkpt><trkpt lat="44.4130488" lon="11.4485601"><ele>271.83333333333337</ele><time>2026-05-01T09:27:09.966Z</time></trkpt><trkpt lat="44.4130285" lon="11.4484415"><ele>271.6666666666667</ele><time>2026-05-01T09:27:10.963Z</time></trkpt><trkpt lat="44.4130073" lon="11.4483206"><ele>271.5</ele><time>2026-05-01T09:27:11.964Z</time></trkpt><trkpt lat="44.412982" lon="11.4482091"><ele>271.3333333333333</ele><time>2026-05-01T09:27:12.981Z</time></trkpt><trkpt lat="44.4129581" lon="11.4481105"><ele>271.16666666666663</ele><time>2026-05-01T09:27:13.964Z</time></trkpt><trkpt lat="44.4129347" lon="11.4480271"><ele>271.0</ele><time>2026-05-01T09:27:14.975Z</time></trkpt><trkpt lat="44.4128953" lon="11.4479065"><ele>274.66666666666663</ele><time>2026-05-01T09:27:16.964Z</time></trkpt><trkpt lat="44.4128602" lon="11.4478093"><ele>278.3333333333333</ele><time>2026-05-01T09:27:19.967Z</time></trkpt><trkpt lat="44.4128268" lon="11.4477138"><ele>282.0</ele><time>2026-05-01T09:27:24.966Z</time></trkpt><trkpt lat="44.4128079" lon="11.4476175"><ele>285.6666666666667</ele><time>2026-05-01T09:27:29.97Z</time></trkpt><trkpt lat="44.4128182" lon="11.4475027"><ele>289.33333333333337</ele><time>2026-05-01T09:27:39.969Z</time></trkpt><trkpt lat="44.4128109" lon="11.4473969"><ele>293.0</ele><time>2026-05-01T09:27:45.971Z</time></trkpt><trkpt lat="44.4128211" lon="11.4472986"><ele>292.99999999999994</ele><time>2026-05-01T09:27:53.958Z</time></trkpt><trkpt lat="44.412811" lon="11.4471968"><ele>293.0</ele><time>2026-05-01T09:28:00.959Z</time></trkpt><trkpt lat="44.4128171" lon="11.4471007"><ele>293.0</ele><time>2026-05-01T09:28:05.963Z</time></trkpt><trkpt lat="44.4128151" lon="11.4470119"><ele>293.0</ele><time>2026-05-01T09:28:11.961Z</time></trkpt><trkpt lat="44.4127905" lon="11.4469094"><ele>293.0</ele><time>2026-05-01T09:28:28.974Z</time></trkpt><trkpt lat="44.4127544" lon="11.4467913"><ele>292.99999999999994</ele><time>2026-05-01T09:28:34.975Z</time></trkpt><trkpt lat="44.4127188" lon="11.4467005"><ele>293.0</ele><time>2026-05-01T09:28:40.973Z</time></trkpt><trkpt lat="44.4126767" lon="11.4466199"><ele>293.1428571428571</ele><time>2026-05-01T09:28:47.971Z</time></trkpt><trkpt lat="44.4126288" lon="11.446558"><ele>293.2857142857143</ele><time>2026-05-01T09:28:52.969Z</time></trkpt><trkpt lat="44.4125709" lon="11.4464882"><ele>293.42857142857144</ele><time>2026-05-01T09:28:58.975Z</time></trkpt><trkpt lat="44.4125172" lon="11.4464351"><ele>293.57142857142856</ele><time>2026-05-01T09:29:03.969Z</time></trkpt><trkpt lat="44.4124564" lon="11.4463885"><ele>293.7142857142857</ele><time>2026-05-01T09:29:07.963Z</time></trkpt><trkpt lat="44.4123927" lon="11.4463521"><ele>293.85714285714283</ele><time>2026-05-01T09:29:12.976Z</time></trkpt><trkpt lat="44.4123247" lon="11.4463056"><ele>294.0</ele><time>2026-05-01T09:29:16.976Z</time></trkpt><trkpt lat="44.4122526" lon="11.4462814"><ele>294.0</ele><time>2026-05-01T09:29:19.972Z</time></trkpt><trkpt lat="44.4121851" lon="11.4462316"><ele>294.0</ele><time>2026-05-01T09:29:21.967Z</time></trkpt><trkpt lat="44.4120984" lon="11.4461819"><ele>294.0</ele><time>2026-05-01T09:29:23.968Z</time></trkpt><trkpt lat="44.4119931" lon="11.4461366"><ele>294.0</ele><time>2026-05-01T09:29:25.973Z</time></trkpt><trkpt lat="44.41189" lon="11.4460865"><ele>294.0</ele><time>2026-05-01T09:29:27.975Z</time></trkpt><trkpt lat="44.411791" lon="11.4460569"><ele>293.0</ele><time>2026-05-01T09:29:29.973Z</time></trkpt><trkpt lat="44.4116895" lon="11.4460454"><ele>292.0</ele><time>2026-05-01T09:29:31.97Z</time></trkpt><trkpt lat="44.4115871" lon="11.4460734"><ele>291.0</ele><time>2026-05-01T09:29:33.971Z</time></trkpt><trkpt lat="44.4115156" lon="11.4460966"><ele>290.0</ele><time>2026-05-01T09:29:37.969Z</time></trkpt><trkpt lat="44.4114342" lon="11.4461125"><ele>289.0</ele><time>2026-05-01T09:29:41.971Z</time></trkpt><trkpt lat="44.4113571" lon="11.4461007"><ele>288.0</ele><time>2026-05-01T09:29:44.964Z</time></trkpt><trkpt lat="44.411271" lon="11.4460807"><ele>290.14285714285717</ele><time>2026-05-01T09:29:47.966Z</time></trkpt><trkpt lat="44.4111969" lon="11.4460574"><ele>292.2857142857143</ele><time>2026-05-01T09:29:50.97Z</time></trkpt><trkpt lat="44.4111307" lon="11.4460341"><ele>294.42857142857144</ele><time>2026-05-01T09:29:53.965Z</time></trkpt><trkpt lat="44.4110638" lon="11.4459934"><ele>296.57142857142856</ele><time>2026-05-01T09:29:57.963Z</time></trkpt><trkpt lat="44.4110074" lon="11.4459308"><ele>298.7142857142857</ele><time>2026-05-01T09:30:02.955Z</time></trkpt><trkpt lat="44.4109717" lon="11.4458447"><ele>300.8571428571429</ele><time>2026-05-01T09:30:08.959Z</time></trkpt><trkpt lat="44.4109659" lon="11.4457371"><ele>303.0</ele><time>2026-05-01T09:30:14.986Z</time></trkpt><trkpt lat="44.4109683" lon="11.4456299"><ele>303.0</ele><time>2026-05-01T09:30:20.958Z</time></trkpt><trkpt lat="44.4109293" lon="11.4455521"><ele>303.0</ele><time>2026-05-01T09:30:26.976Z</time></trkpt><trkpt lat="44.4108798" lon="11.4454915"><ele>303.0</ele><time>2026-05-01T09:30:43.982Z</time></trkpt><trkpt lat="44.4108118" lon="11.4454876"><ele>303.0</ele><time>2026-05-01T09:30:49.979Z</time></trkpt><trkpt lat="44.4107349" lon="11.445513"><ele>303.0</ele><time>2026-05-01T09:30:55.985Z</time></trkpt><trkpt lat="44.410665" lon="11.4455305"><ele>303.0</ele><time>2026-05-01T09:31:00.977Z</time></trkpt><trkpt lat="44.4105936" lon="11.4455528"><ele>303.0</ele><time>2026-05-01T09:31:07.982Z</time></trkpt><trkpt lat="44.410515" lon="11.4455596"><ele>304.8571428571429</ele><time>2026-05-01T09:31:12.971Z</time></trkpt><trkpt lat="44.4104468" lon="11.4455729"><ele>306.7142857142857</ele><time>2026-05-01T09:31:17.974Z</time></trkpt><trkpt lat="44.4103841" lon="11.4455915"><ele>308.57142857142856</ele><time>2026-05-01T09:31:21.983Z</time></trkpt><trkpt lat="44.4103097" lon="11.4456081"><ele>310.42857142857144</ele><time>2026-05-01T09:31:27.97Z</time></trkpt><trkpt lat="44.4102423" lon="11.4456182"><ele>312.2857142857143</ele><time>2026-05-01T09:31:32.972Z</time></trkpt><trkpt lat="44.4101741" lon="11.4456231"><ele>314.14285714285717</ele><time>2026-05-01T09:31:37.981Z</time></trkpt><trkpt lat="44.4101093" lon="11.4456359"><ele>316.0</ele><time>2026-05-01T09:31:44.983Z</time></trkpt><trkpt lat="44.4100635" lon="11.4457231"><ele>316.0</ele><time>2026-05-01T09:31:54.982Z</time></trkpt><trkpt lat="44.4100389" lon="11.4458541"><ele>316.0</ele><time>2026-05-01T09:32:06.978Z</time></trkpt><trkpt lat="44.4100357" lon="11.4459544"><ele>316.0</ele><time>2026-05-01T09:32:13.969Z</time></trkpt><trkpt lat="44.4100106" lon="11.4460628"><ele>316.0</ele><time>2026-05-01T09:32:22.976Z</time></trkpt><trkpt lat="44.4099539" lon="11.4461273"><ele>316.0</ele><time>2026-05-01T09:32:30.979Z</time></trkpt><trkpt lat="44.409887" lon="11.4461536"><ele>316.0</ele><time>2026-05-01T09:32:39.98Z</time></trkpt><trkpt lat="44.409819" lon="11.4461727"><ele>316.00000000000006</ele><time>2026-05-01T09:34:55.964Z</time></trkpt><trkpt lat="44.4097816" lon="11.4460929"><ele>316.0</ele><time>2026-05-01T09:35:01.976Z</time></trkpt><trkpt lat="44.4097111" lon="11.4460492"><ele>316.0</ele><time>2026-05-01T09:35:07.975Z</time></trkpt><trkpt lat="44.4096489" lon="11.4460126"><ele>316.0</ele><time>2026-05-01T09:35:13.978Z</time></trkpt><trkpt lat="44.4095891" lon="11.4459563"><ele>316.0</ele><time>2026-05-01T09:35:19.976Z</time></trkpt><trkpt lat="44.4095294" lon="11.4459258"><ele>316.00000000000006</ele><time>2026-05-01T09:35:26.978Z</time></trkpt><trkpt lat="44.4094808" lon="11.4458667"><ele>316.0</ele><time>2026-05-01T09:35:33.988Z</time></trkpt><trkpt lat="44.4094228" lon="11.4458096"><ele>317.00000000000006</ele><time>2026-05-01T09:35:41.969Z</time></trkpt><trkpt lat="44.4093633" lon="11.4457666"><ele>318.0</ele><time>2026-05-01T09:35:47.985Z</time></trkpt><trkpt lat="44.409299" lon="11.445721"><ele>319.0</ele><time>2026-05-01T09:35:55.968Z</time></trkpt><trkpt lat="44.4092504" lon="11.44566"><ele>320.0</ele><time>2026-05-01T09:36:01.984Z</time></trkpt><trkpt lat="44.4092202" lon="11.4455818"><ele>321.0</ele><time>2026-05-01T09:36:07.98Z</time></trkpt><trkpt lat="44.4092102" lon="11.4454926"><ele>322.00000000000006</ele><time>2026-05-01T09:36:14.98Z</time></trkpt><trkpt lat="44.4091945" lon="11.4453927"><ele>323.0</ele><time>2026-05-01T09:36:19.973Z</time></trkpt><trkpt lat="44.4091787" lon="11.4452948"><ele>325.00000000000006</ele><time>2026-05-01T09:36:26.96Z</time></trkpt><trkpt lat="44.409149" lon="11.4452108"><ele>327.0</ele><time>2026-05-01T09:36:32.971Z</time></trkpt><trkpt lat="44.4091043" lon="11.4451454"><ele>329.0</ele><time>2026-05-01T09:36:39.958Z</time></trkpt><trkpt lat="44.4090648" lon="11.4450696"><ele>331.0</ele><time>2026-05-01T09:36:46.974Z</time></trkpt><trkpt lat="44.4090161" lon="11.4449917"><ele>333.0</ele><time>2026-05-01T09:36:53.966Z</time></trkpt><trkpt lat="44.4089734" lon="11.4449103"><ele>335.00000000000006</ele><time>2026-05-01T09:37:00.97Z</time></trkpt><trkpt lat="44.4089405" lon="11.4448309"><ele>337.0</ele><time>2026-05-01T09:37:05.983Z</time></trkpt><trkpt lat="44.4088984" lon="11.4447594"><ele>337.00000000000006</ele><time>2026-05-01T09:37:10.969Z</time></trkpt><trkpt lat="44.4089304" lon="11.4448543"><ele>337.0</ele><time>2026-05-01T09:37:23.976Z</time></trkpt><trkpt lat="44.4089679" lon="11.4449327"><ele>337.0</ele><time>2026-05-01T09:37:28.968Z</time></trkpt><trkpt lat="44.4090166" lon="11.4450073"><ele>337.0</ele><time>2026-05-01T09:37:34.974Z</time></trkpt><trkpt lat="44.4090458" lon="11.4451016"><ele>337.0</ele><time>2026-05-01T09:37:39.97Z</time></trkpt><trkpt lat="44.4090761" lon="11.4451933"><ele>337.00000000000006</ele><time>2026-05-01T09:37:44.973Z</time></trkpt><trkpt lat="44.4090687" lon="11.4451021"><ele>337.0</ele><time>2026-05-01T09:37:57.964Z</time></trkpt><trkpt lat="44.409039" lon="11.445021"><ele>337.00000000000006</ele><time>2026-05-01T09:38:05.97Z</time></trkpt><trkpt lat="44.4090143" lon="11.4449396"><ele>337.0</ele><time>2026-05-01T09:38:12.974Z</time></trkpt><trkpt lat="44.4089624" lon="11.4448816"><ele>337.0</ele><time>2026-05-01T09:38:18.966Z</time></trkpt><trkpt lat="44.4089283" lon="11.4448037"><ele>337.0</ele><time>2026-05-01T09:38:23.975Z</time></trkpt><trkpt lat="44.4088921" lon="11.4447213"><ele>337.0</ele><time>2026-05-01T09:38:29.977Z</time></trkpt><trkpt lat="44.4088505" lon="11.4446401"><ele>337.00000000000006</ele><time>2026-05-01T09:38:34.983Z</time></trkpt><trkpt lat="44.4088209" lon="11.4445513"><ele>337.0</ele><time>2026-05-01T09:38:39.976Z</time></trkpt><trkpt lat="44.408807" lon="11.4444509"><ele>337.7142857142857</ele><time>2026-05-01T09:38:44.979Z</time></trkpt><trkpt lat="44.4087978" lon="11.4443498"><ele>338.42857142857144</ele><time>2026-05-01T09:38:49.963Z</time></trkpt><trkpt lat="44.4087891" lon="11.4442557"><ele>339.1428571428571</ele><time>2026-05-01T09:38:54.974Z</time></trkpt><trkpt lat="44.4087787" lon="11.4441571"><ele>339.8571428571429</ele><time>2026-05-01T09:38:59.984Z</time></trkpt><trkpt lat="44.4087615" lon="11.4440665"><ele>340.57142857142856</ele><time>2026-05-01T09:39:04.976Z</time></trkpt><trkpt lat="44.408755" lon="11.4439583"><ele>341.2857142857143</ele><time>2026-05-01T09:39:09.975Z</time></trkpt><trkpt lat="44.4087271" lon="11.4438657"><ele>342.0</ele><time>2026-05-01T09:39:15.978Z</time></trkpt><trkpt lat="44.4086843" lon="11.4437868"><ele>342.0</ele><time>2026-05-01T09:39:22.986Z</time></trkpt><trkpt lat="44.4086748" lon="11.4436913"><ele>342.0</ele><time>2026-05-01T09:40:33.977Z</time></trkpt><trkpt lat="44.4086474" lon="11.4435697"><ele>342.0</ele><time>2026-05-01T09:40:36.981Z</time></trkpt><trkpt lat="44.4086652" lon="11.4434532"><ele>342.0</ele><time>2026-05-01T09:40:38.966Z</time></trkpt><trkpt lat="44.408687" lon="11.443335"><ele>342.0</ele><time>2026-05-01T09:40:40.98Z</time></trkpt><trkpt lat="44.4085976" lon="11.4433817"><ele>342.0</ele><time>2026-05-01T09:40:45.977Z</time></trkpt><trkpt lat="44.4085324" lon="11.443503"><ele>342.0</ele><time>2026-05-01T09:40:47.965Z</time></trkpt><trkpt lat="44.4084415" lon="11.4435916"><ele>342.0</ele><time>2026-05-01T09:40:49.984Z</time></trkpt><trkpt lat="44.4083287" lon="11.4436502"><ele>342.0</ele><time>2026-05-01T09:40:51.976Z</time></trkpt><trkpt lat="44.4082236" lon="11.4436664"><ele>342.0</ele><time>2026-05-01T09:40:53.982Z</time></trkpt><trkpt lat="44.4081107" lon="11.4436492"><ele>341.0</ele><time>2026-05-01T09:40:55.981Z</time></trkpt><trkpt lat="44.4079886" lon="11.443568"><ele>340.0</ele><time>2026-05-01T09:40:57.978Z</time></trkpt><trkpt lat="44.4079252" lon="11.4435104"><ele>339.0</ele><time>2026-05-01T09:40:58.97Z</time></trkpt><trkpt lat="44.4078686" lon="11.4434501"><ele>338.0</ele><time>2026-05-01T09:40:59.976Z</time></trkpt><trkpt lat="44.4078163" lon="11.4433915"><ele>337.0</ele><time>2026-05-01T09:41:00.988Z</time></trkpt><trkpt lat="44.4077175" lon="11.4433057"><ele>337.0</ele><time>2026-05-01T09:41:02.973Z</time></trkpt><trkpt lat="44.4076161" lon="11.4432853"><ele>337.0</ele><time>2026-05-01T09:41:04.959Z</time></trkpt><trkpt lat="44.4075421" lon="11.4433537"><ele>337.0</ele><time>2026-05-01T09:41:06.982Z</time></trkpt><trkpt lat="44.4075039" lon="11.4434638"><ele>337.0</ele><time>2026-05-01T09:41:08.976Z</time></trkpt><trkpt lat="44.4074926" lon="11.4436003"><ele>337.0</ele><time>2026-05-01T09:41:10.972Z</time></trkpt><trkpt lat="44.4074838" lon="11.4437292"><ele>338.20000000000005</ele><time>2026-05-01T09:41:12.966Z</time></trkpt><trkpt lat="44.4074683" lon="11.4438618"><ele>339.4</ele><time>2026-05-01T09:41:14.979Z</time></trkpt><trkpt lat="44.4074561" lon="11.4439985"><ele>340.6</ele><time>2026-05-01T09:41:16.983Z</time></trkpt><trkpt lat="44.407437" lon="11.444134"><ele>341.79999999999995</ele><time>2026-05-01T09:41:18.982Z</time></trkpt><trkpt lat="44.4074201" lon="11.4442721"><ele>343.0</ele><time>2026-05-01T09:41:20.979Z</time></trkpt><trkpt lat="44.4074" lon="11.4444213"><ele>343.0</ele><time>2026-05-01T09:41:22.966Z</time></trkpt><trkpt lat="44.4073911" lon="11.4445917"><ele>343.0</ele><time>2026-05-01T09:41:24.968Z</time></trkpt><trkpt lat="44.407384" lon="11.4446814"><ele>343.0</ele><time>2026-05-01T09:41:25.969Z</time></trkpt><trkpt lat="44.4073759" lon="11.4447772"><ele>343.0</ele><time>2026-05-01T09:41:26.965Z</time></trkpt><trkpt lat="44.4073637" lon="11.444881"><ele>343.0</ele><time>2026-05-01T09:41:27.968Z</time></trkpt><trkpt lat="44.4073511" lon="11.4449858"><ele>343.0</ele><time>2026-05-01T09:41:28.972Z</time></trkpt><trkpt lat="44.4073425" lon="11.4450842"><ele>342.0</ele><time>2026-05-01T09:41:29.965Z</time></trkpt><trkpt lat="44.4073335" lon="11.4451835"><ele>341.0</ele><time>2026-05-01T09:41:30.969Z</time></trkpt><trkpt lat="44.407319" lon="11.445283"><ele>340.0</ele><time>2026-05-01T09:41:31.971Z</time></trkpt><trkpt lat="44.4072996" lon="11.4453768"><ele>339.0</ele><time>2026-05-01T09:41:32.969Z</time></trkpt><trkpt lat="44.4072764" lon="11.4454642"><ele>338.0</ele><time>2026-05-01T09:41:33.972Z</time></trkpt><trkpt lat="44.4072473" lon="11.4455459"><ele>337.0</ele><time>2026-05-01T09:41:34.973Z</time></trkpt><trkpt lat="44.4071792" lon="11.4456847"><ele>335.16666666666663</ele><time>2026-05-01T09:41:36.973Z</time></trkpt><trkpt lat="44.4071187" lon="11.4457961"><ele>333.3333333333333</ele><time>2026-05-01T09:41:38.968Z</time></trkpt><trkpt lat="44.4070654" lon="11.4458851"><ele>331.5</ele><time>2026-05-01T09:41:40.972Z</time></trkpt><trkpt lat="44.4070051" lon="11.445969"><ele>329.6666666666667</ele><time>2026-05-01T09:41:43.961Z</time></trkpt><trkpt lat="44.4069692" lon="11.4460554"><ele>327.83333333333337</ele><time>2026-05-01T09:41:46.967Z</time></trkpt><trkpt lat="44.4069373" lon="11.4461385"><ele>326.0</ele><time>2026-05-01T09:41:50.966Z</time></trkpt><trkpt lat="44.4069412" lon="11.4462274"><ele>326.0</ele><time>2026-05-01T09:43:25.958Z</time></trkpt><trkpt lat="44.4068716" lon="11.4462489"><ele>326.0</ele><time>2026-05-01T09:45:05.954Z</time></trkpt><trkpt lat="44.4068286" lon="11.4463448"><ele>326.0</ele><time>2026-05-01T09:45:08.961Z</time></trkpt><trkpt lat="44.4067941" lon="11.4464186"><ele>326.0</ele><time>2026-05-01T09:45:10.968Z</time></trkpt><trkpt lat="44.4067647" lon="11.44651"><ele>326.0</ele><time>2026-05-01T09:45:12.971Z</time></trkpt><trkpt lat="44.406744" lon="11.4465975"><ele>326.0</ele><time>2026-05-01T09:45:14.961Z</time></trkpt><trkpt lat="44.4067272" lon="11.4466859"><ele>326.0</ele><time>2026-05-01T09:45:16.978Z</time></trkpt><trkpt lat="44.4066974" lon="11.4468228"><ele>326.1666666666667</ele><time>2026-05-01T09:45:19.956Z</time></trkpt><trkpt lat="44.4066794" lon="11.4469243"><ele>326.33333333333337</ele><time>2026-05-01T09:45:21.98Z</time></trkpt><trkpt lat="44.40668" lon="11.4470322"><ele>326.5</ele><time>2026-05-01T09:45:23.979Z</time></trkpt><trkpt lat="44.4066814" lon="11.4471347"><ele>326.6666666666667</ele><time>2026-05-01T09:45:25.961Z</time></trkpt><trkpt lat="44.4066863" lon="11.4472504"><ele>326.8333333333333</ele><time>2026-05-01T09:45:27.973Z</time></trkpt><trkpt lat="44.4066996" lon="11.447386"><ele>327.0</ele><time>2026-05-01T09:45:29.985Z</time></trkpt><trkpt lat="44.4067123" lon="11.4475437"><ele>327.0</ele><time>2026-05-01T09:45:31.974Z</time></trkpt><trkpt lat="44.4067188" lon="11.4477017"><ele>327.0</ele><time>2026-05-01T09:45:33.972Z</time></trkpt><trkpt lat="44.4067079" lon="11.4478517"><ele>327.0</ele><time>2026-05-01T09:45:35.98Z</time></trkpt><trkpt lat="44.4066804" lon="11.4480002"><ele>327.0</ele><time>2026-05-01T09:45:37.969Z</time></trkpt><trkpt lat="44.4066678" lon="11.44815"><ele>327.0</ele><time>2026-05-01T09:45:39.982Z</time></trkpt><trkpt lat="44.4066732" lon="11.4483097"><ele>325.3333333333333</ele><time>2026-05-01T09:45:41.988Z</time></trkpt><trkpt lat="44.4066794" lon="11.448479"><ele>323.6666666666667</ele><time>2026-05-01T09:45:43.981Z</time></trkpt><trkpt lat="44.4066723" lon="11.4486497"><ele>322.0</ele><time>2026-05-01T09:45:45.962Z</time></trkpt><trkpt lat="44.4066664" lon="11.448744"><ele>320.33333333333337</ele><time>2026-05-01T09:45:46.981Z</time></trkpt><trkpt lat="44.4066561" lon="11.4488325"><ele>318.6666666666667</ele><time>2026-05-01T09:45:47.981Z</time></trkpt><trkpt lat="44.4066452" lon="11.4489197"><ele>317.0</ele><time>2026-05-01T09:45:48.983Z</time></trkpt><trkpt lat="44.4066296" lon="11.4490168"><ele>316.1666666666667</ele><time>2026-05-01T09:45:49.982Z</time></trkpt><trkpt lat="44.4066126" lon="11.4491298"><ele>315.33333333333337</ele><time>2026-05-01T09:45:50.975Z</time></trkpt><trkpt lat="44.4065971" lon="11.4492415"><ele>314.5</ele><time>2026-05-01T09:45:51.969Z</time></trkpt><trkpt lat="44.4065762" lon="11.4493498"><ele>313.6666666666667</ele><time>2026-05-01T09:45:52.98Z</time></trkpt><trkpt lat="44.4065657" lon="11.4494533"><ele>312.8333333333333</ele><time>2026-05-01T09:45:53.972Z</time></trkpt><trkpt lat="44.4065565" lon="11.4495626"><ele>312.0</ele><time>2026-05-01T09:45:54.975Z</time></trkpt><trkpt lat="44.4065577" lon="11.4496696"><ele>312.0</ele><time>2026-05-01T09:45:55.991Z</time></trkpt><trkpt lat="44.4065678" lon="11.4497793"><ele>312.0</ele><time>2026-05-01T09:45:56.987Z</time></trkpt><trkpt lat="44.4065718" lon="11.4498917"><ele>312.0</ele><time>2026-05-01T09:45:57.98Z</time></trkpt><trkpt lat="44.4065784" lon="11.4500048"><ele>312.0</ele><time>2026-05-01T09:45:58.973Z</time></trkpt><trkpt lat="44.406583" lon="11.4501168"><ele>312.0</ele><time>2026-05-01T09:45:59.976Z</time></trkpt><trkpt lat="44.4065878" lon="11.4502241"><ele>312.0</ele><time>2026-05-01T09:46:00.969Z</time></trkpt><trkpt lat="44.4065889" lon="11.4503314"><ele>312.0</ele><time>2026-05-01T09:46:01.97Z</time></trkpt><trkpt lat="44.4065885" lon="11.4504422"><ele>312.0</ele><time>2026-05-01T09:46:02.981Z</time></trkpt><trkpt lat="44.4065804" lon="11.4505477"><ele>312.0</ele><time>2026-05-01T09:46:03.974Z</time></trkpt><trkpt lat="44.4065696" lon="11.4506534"><ele>312.0</ele><time>2026-05-01T09:46:04.972Z</time></trkpt><trkpt lat="44.4065657" lon="11.4507571"><ele>312.0</ele><time>2026-05-01T09:46:05.975Z</time></trkpt><trkpt lat="44.4065665" lon="11.4508637"><ele>312.0</ele><time>2026-05-01T09:46:06.958Z</time></trkpt><trkpt lat="44.4065637" lon="11.4509653"><ele>312.0</ele><time>2026-05-01T09:46:07.971Z</time></trkpt><trkpt lat="44.4065588" lon="11.4510665"><ele>312.0</ele><time>2026-05-01T09:46:08.976Z</time></trkpt><trkpt lat="44.4065562" lon="11.4511628"><ele>312.0</ele><time>2026-05-01T09:46:09.98Z</time></trkpt><trkpt lat="44.4065559" lon="11.4512589"><ele>312.0</ele><time>2026-05-01T09:46:10.981Z</time></trkpt><trkpt lat="44.4065541" lon="11.4513523"><ele>312.0</ele><time>2026-05-01T09:46:11.959Z</time></trkpt><trkpt lat="44.4065424" lon="11.4515188"><ele>312.0</ele><time>2026-05-01T09:46:13.977Z</time></trkpt><trkpt lat="44.4065398" lon="11.4516641"><ele>311.8</ele><time>2026-05-01T09:46:15.976Z</time></trkpt><trkpt lat="44.4065464" lon="11.4518107"><ele>311.6</ele><time>2026-05-01T09:46:17.971Z</time></trkpt><trkpt lat="44.4065564" lon="11.4519528"><ele>311.40000000000003</ele><time>2026-05-01T09:46:19.987Z</time></trkpt><trkpt lat="44.4065545" lon="11.4520901"><ele>311.2</ele><time>2026-05-01T09:46:21.973Z</time></trkpt><trkpt lat="44.4065439" lon="11.4522158"><ele>311.0</ele><time>2026-05-01T09:46:23.965Z</time></trkpt><trkpt lat="44.4065239" lon="11.4523381"><ele>310.6666666666667</ele><time>2026-05-01T09:46:25.966Z</time></trkpt><trkpt lat="44.4064959" lon="11.4524466"><ele>310.33333333333337</ele><time>2026-05-01T09:46:27.975Z</time></trkpt><trkpt lat="44.4064634" lon="11.4525456"><ele>310.0</ele><time>2026-05-01T09:46:29.976Z</time></trkpt><trkpt lat="44.406419" lon="11.4526273"><ele>309.6666666666667</ele><time>2026-05-01T09:46:31.958Z</time></trkpt><trkpt lat="44.4063547" lon="11.4527204"><ele>309.3333333333333</ele><time>2026-05-01T09:46:34.979Z</time></trkpt><trkpt lat="44.4062733" lon="11.4527813"><ele>309.0</ele><time>2026-05-01T09:46:37.987Z</time></trkpt><trkpt lat="44.406202" lon="11.4528217"><ele>308.59999999999997</ele><time>2026-05-01T09:46:39.965Z</time></trkpt><trkpt lat="44.4061238" lon="11.4528619"><ele>308.2</ele><time>2026-05-01T09:46:41.987Z</time></trkpt><trkpt lat="44.4060251" lon="11.4528871"><ele>307.79999999999995</ele><time>2026-05-01T09:46:43.979Z</time></trkpt><trkpt lat="44.4059344" lon="11.452925"><ele>307.4</ele><time>2026-05-01T09:46:45.988Z</time></trkpt><trkpt lat="44.4058439" lon="11.4529852"><ele>307.0</ele><time>2026-05-01T09:46:47.984Z</time></trkpt><trkpt lat="44.405767" lon="11.4530679"><ele>307.0</ele><time>2026-05-01T09:46:49.974Z</time></trkpt><trkpt lat="44.4056912" lon="11.4531655"><ele>307.0</ele><time>2026-05-01T09:46:51.976Z</time></trkpt><trkpt lat="44.4056123" lon="11.4532697"><ele>307.0</ele><time>2026-05-01T09:46:53.979Z</time></trkpt><trkpt lat="44.405544" lon="11.4533751"><ele>307.0</ele><time>2026-05-01T09:46:55.991Z</time></trkpt><trkpt lat="44.4054838" lon="11.4534848"><ele>307.0</ele><time>2026-05-01T09:46:57.98Z</time></trkpt><trkpt lat="44.4054383" lon="11.4535986"><ele>306.5</ele><time>2026-05-01T09:46:59.957Z</time></trkpt><trkpt lat="44.4053931" lon="11.4537084"><ele>306.0</ele><time>2026-05-01T09:47:01.965Z</time></trkpt><trkpt lat="44.4053455" lon="11.4538009"><ele>305.5</ele><time>2026-05-01T09:47:03.963Z</time></trkpt><trkpt lat="44.4053064" lon="11.4538854"><ele>305.0</ele><time>2026-05-01T09:47:05.971Z</time></trkpt><trkpt lat="44.4052632" lon="11.4539709"><ele>304.5</ele><time>2026-05-01T09:47:07.975Z</time></trkpt><trkpt lat="44.4052204" lon="11.4540601"><ele>304.0</ele><time>2026-05-01T09:47:09.967Z</time></trkpt><trkpt lat="44.4051728" lon="11.4541471"><ele>305.0</ele><time>2026-05-01T09:47:11.979Z</time></trkpt><trkpt lat="44.4051252" lon="11.4542306"><ele>306.0</ele><time>2026-05-01T09:47:13.97Z</time></trkpt><trkpt lat="44.4050794" lon="11.4543147"><ele>307.0</ele><time>2026-05-01T09:47:15.979Z</time></trkpt><trkpt lat="44.4050323" lon="11.4543873"><ele>308.0</ele><time>2026-05-01T09:47:17.963Z</time></trkpt><trkpt lat="44.4049841" lon="11.4544534"><ele>309.0</ele><time>2026-05-01T09:47:19.973Z</time></trkpt><trkpt lat="44.4049388" lon="11.4545168"><ele>310.0</ele><time>2026-05-01T09:47:21.978Z</time></trkpt><trkpt lat="44.4048753" lon="11.4546003"><ele>311.0</ele><time>2026-05-01T09:47:24.966Z</time></trkpt><trkpt lat="44.4048221" lon="11.454671"><ele>311.0</ele><time>2026-05-01T09:47:27.976Z</time></trkpt><trkpt lat="44.4047647" lon="11.4547545"><ele>311.0</ele><time>2026-05-01T09:47:31.965Z</time></trkpt><trkpt lat="44.4047235" lon="11.4548231"><ele>311.0</ele><time>2026-05-01T09:47:34.974Z</time></trkpt><trkpt lat="44.4046802" lon="11.4548902"><ele>311.0</ele><time>2026-05-01T09:47:37.975Z</time></trkpt><trkpt lat="44.4046451" lon="11.4549661"><ele>311.0</ele><time>2026-05-01T09:47:40.975Z</time></trkpt><trkpt lat="44.4045982" lon="11.455041"><ele>311.0</ele><time>2026-05-01T09:47:44.965Z</time></trkpt><trkpt lat="44.4045651" lon="11.4551343"><ele>311.0</ele><time>2026-05-01T09:47:49.969Z</time></trkpt><trkpt lat="44.4045309" lon="11.4552233"><ele>312.7142857142857</ele><time>2026-05-01T09:47:54.969Z</time></trkpt><trkpt lat="44.4044978" lon="11.4553219"><ele>314.42857142857144</ele><time>2026-05-01T09:47:59.966Z</time></trkpt><trkpt lat="44.4044696" lon="11.4554026"><ele>316.14285714285717</ele><time>2026-05-01T09:48:03.978Z</time></trkpt><trkpt lat="44.4044308" lon="11.4554991"><ele>317.8571428571429</ele><time>2026-05-01T09:48:08.973Z</time></trkpt><trkpt lat="44.4044058" lon="11.4556012"><ele>319.57142857142856</ele><time>2026-05-01T09:48:13.975Z</time></trkpt><trkpt lat="44.4043628" lon="11.4556837"><ele>321.28571428571433</ele><time>2026-05-01T09:48:17.968Z</time></trkpt><trkpt lat="44.4043233" lon="11.4557751"><ele>323.0</ele><time>2026-05-01T09:48:22.964Z</time></trkpt><trkpt lat="44.4042879" lon="11.4558645"><ele>323.28571428571433</ele><time>2026-05-01T09:48:26.969Z</time></trkpt><trkpt lat="44.4042399" lon="11.4559559"><ele>323.57142857142856</ele><time>2026-05-01T09:48:30.973Z</time></trkpt><trkpt lat="44.4041991" lon="11.456025"><ele>323.8571428571429</ele><time>2026-05-01T09:48:33.974Z</time></trkpt><trkpt lat="44.4041493" lon="11.456086"><ele>324.14285714285717</ele><time>2026-05-01T09:48:36.971Z</time></trkpt><trkpt lat="44.4040866" lon="11.456151"><ele>324.42857142857144</ele><time>2026-05-01T09:48:39.975Z</time></trkpt><trkpt lat="44.4040313" lon="11.456218"><ele>324.7142857142857</ele><time>2026-05-01T09:48:42.963Z</time></trkpt><trkpt lat="44.4039645" lon="11.4562956"><ele>325.0</ele><time>2026-05-01T09:48:45.972Z</time></trkpt><trkpt lat="44.4038998" lon="11.4563892"><ele>325.1428571428571</ele><time>2026-05-01T09:48:48.966Z</time></trkpt><trkpt lat="44.4038489" lon="11.4564431"><ele>325.28571428571433</ele><time>2026-05-01T09:48:50.965Z</time></trkpt><trkpt lat="44.4037691" lon="11.4565084"><ele>325.42857142857144</ele><time>2026-05-01T09:48:53.957Z</time></trkpt><trkpt lat="44.403714" lon="11.4565594"><ele>325.57142857142856</ele><time>2026-05-01T09:48:55.962Z</time></trkpt><trkpt lat="44.4036582" lon="11.4566167"><ele>325.71428571428567</ele><time>2026-05-01T09:48:57.965Z</time></trkpt><trkpt lat="44.4036025" lon="11.4566808"><ele>325.8571428571429</ele><time>2026-05-01T09:48:59.967Z</time></trkpt><trkpt lat="44.4035481" lon="11.4567419"><ele>326.0</ele><time>2026-05-01T09:49:01.968Z</time></trkpt><trkpt lat="44.4034998" lon="11.4568104"><ele>326.0</ele><time>2026-05-01T09:49:03.973Z</time></trkpt><trkpt lat="44.4034519" lon="11.4568772"><ele>326.0</ele><time>2026-05-01T09:49:05.971Z</time></trkpt><trkpt lat="44.4034048" lon="11.4569429"><ele>326.0</ele><time>2026-05-01T09:49:07.98Z</time></trkpt><trkpt lat="44.4033571" lon="11.4570085"><ele>326.0</ele><time>2026-05-01T09:49:09.957Z</time></trkpt><trkpt lat="44.4033025" lon="11.4571085"><ele>326.0</ele><time>2026-05-01T09:49:12.975Z</time></trkpt><trkpt lat="44.403263" lon="11.4571795"><ele>326.0</ele><time>2026-05-01T09:49:14.969Z</time></trkpt><trkpt lat="44.4032122" lon="11.4572902"><ele>326.0</ele><time>2026-05-01T09:49:17.974Z</time></trkpt><trkpt lat="44.4031749" lon="11.4573648"><ele>326.42857142857144</ele><time>2026-05-01T09:49:19.972Z</time></trkpt><trkpt lat="44.4031321" lon="11.4574358"><ele>326.85714285714283</ele><time>2026-05-01T09:49:21.967Z</time></trkpt><trkpt lat="44.4030877" lon="11.4575177"><ele>327.2857142857143</ele><time>2026-05-01T09:49:23.973Z</time></trkpt><trkpt lat="44.4030441" lon="11.4575976"><ele>327.7142857142857</ele><time>2026-05-01T09:49:25.975Z</time></trkpt><trkpt lat="44.4030098" lon="11.457673"><ele>328.1428571428571</ele><time>2026-05-01T09:49:27.974Z</time></trkpt><trkpt lat="44.4029701" lon="11.4577522"><ele>328.57142857142856</ele><time>2026-05-01T09:49:29.97Z</time></trkpt><trkpt lat="44.4029258" lon="11.4578247"><ele>329.0</ele><time>2026-05-01T09:49:31.962Z</time></trkpt><trkpt lat="44.402885" lon="11.4578974"><ele>329.57142857142856</ele><time>2026-05-01T09:49:33.969Z</time></trkpt><trkpt lat="44.4028265" lon="11.4579949"><ele>330.1428571428571</ele><time>2026-05-01T09:49:36.975Z</time></trkpt><trkpt lat="44.4027814" lon="11.4580623"><ele>330.7142857142857</ele><time>2026-05-01T09:49:38.969Z</time></trkpt><trkpt lat="44.4027324" lon="11.4581279"><ele>331.2857142857143</ele><time>2026-05-01T09:49:40.968Z</time></trkpt><trkpt lat="44.4026854" lon="11.4581908"><ele>331.85714285714283</ele><time>2026-05-01T09:49:42.978Z</time></trkpt><trkpt lat="44.4026109" lon="11.4582499"><ele>332.42857142857144</ele><time>2026-05-01T09:49:45.977Z</time></trkpt><trkpt lat="44.4025535" lon="11.4582986"><ele>333.0</ele><time>2026-05-01T09:49:47.971Z</time></trkpt><trkpt lat="44.4024887" lon="11.4583384"><ele>333.0</ele><time>2026-05-01T09:49:49.97Z</time></trkpt><trkpt lat="44.4024234" lon="11.4583632"><ele>333.0</ele><time>2026-05-01T09:49:51.964Z</time></trkpt><trkpt lat="44.4023579" lon="11.4583847"><ele>333.0</ele><time>2026-05-01T09:49:53.973Z</time></trkpt><trkpt lat="44.4022875" lon="11.4584012"><ele>333.0</ele><time>2026-05-01T09:49:55.976Z</time></trkpt><trkpt lat="44.4022198" lon="11.4584319"><ele>333.0</ele><time>2026-05-01T09:49:57.969Z</time></trkpt><trkpt lat="44.4021462" lon="11.4584797"><ele>333.0</ele><time>2026-05-01T09:49:59.974Z</time></trkpt><trkpt lat="44.402063" lon="11.4585349"><ele>333.0</ele><time>2026-05-01T09:50:01.97Z</time></trkpt><trkpt lat="44.4019823" lon="11.4585925"><ele>333.0</ele><time>2026-05-01T09:50:03.97Z</time></trkpt><trkpt lat="44.4018997" lon="11.4586491"><ele>333.0</ele><time>2026-05-01T09:50:05.974Z</time></trkpt><trkpt lat="44.4018171" lon="11.4587278"><ele>333.0</ele><time>2026-05-01T09:50:07.982Z</time></trkpt><trkpt lat="44.4017369" lon="11.4588313"><ele>333.0</ele><time>2026-05-01T09:50:09.978Z</time></trkpt><trkpt lat="44.4016436" lon="11.4589261"><ele>333.0</ele><time>2026-05-01T09:50:11.985Z</time></trkpt><trkpt lat="44.4015487" lon="11.4590292"><ele>333.0</ele><time>2026-05-01T09:50:13.973Z</time></trkpt><trkpt lat="44.4014581" lon="11.4591293"><ele>333.0</ele><time>2026-05-01T09:50:15.981Z</time></trkpt><trkpt lat="44.4013962" lon="11.4592114"><ele>333.0</ele><time>2026-05-01T09:50:17.969Z</time></trkpt><trkpt lat="44.4014179" lon="11.4593305"><ele>333.0</ele><time>2026-05-01T09:50:20.981Z</time></trkpt><trkpt lat="44.4014967" lon="11.459349"><ele>333.0</ele><time>2026-05-01T09:50:22.972Z</time></trkpt><trkpt lat="44.4015812" lon="11.4593873"><ele>333.0</ele><time>2026-05-01T09:50:24.978Z</time></trkpt><trkpt lat="44.4016578" lon="11.4594545"><ele>333.0</ele><time>2026-05-01T09:50:26.976Z</time></trkpt><trkpt lat="44.4017359" lon="11.459522"><ele>333.0</ele><time>2026-05-01T09:50:28.986Z</time></trkpt><trkpt lat="44.4018378" lon="11.4595841"><ele>333.0</ele><time>2026-05-01T09:50:30.983Z</time></trkpt><trkpt lat="44.4019391" lon="11.4596518"><ele>332.0</ele><time>2026-05-01T09:50:32.987Z</time></trkpt><trkpt lat="44.402043" lon="11.4597068"><ele>331.0</ele><time>2026-05-01T09:50:34.975Z</time></trkpt><trkpt lat="44.4021497" lon="11.4597542"><ele>330.0</ele><time>2026-05-01T09:50:36.973Z</time></trkpt><trkpt lat="44.4022481" lon="11.4597986"><ele>329.0</ele><time>2026-05-01T09:50:38.967Z</time></trkpt><trkpt lat="44.4023393" lon="11.4598601"><ele>328.0</ele><time>2026-05-01T09:50:40.98Z</time></trkpt><trkpt lat="44.4024238" lon="11.4599289"><ele>328.0</ele><time>2026-05-01T09:50:42.978Z</time></trkpt><trkpt lat="44.4025019" lon="11.4599984"><ele>328.0</ele><time>2026-05-01T09:50:44.978Z</time></trkpt><trkpt lat="44.4025653" lon="11.460068"><ele>328.0</ele><time>2026-05-01T09:50:46.978Z</time></trkpt><trkpt lat="44.4026166" lon="11.4601425"><ele>328.0</ele><time>2026-05-01T09:50:49.993Z</time></trkpt><trkpt lat="44.4026705" lon="11.4601969"><ele>328.0</ele><time>2026-05-01T09:50:53.974Z</time></trkpt><trkpt lat="44.4027456" lon="11.4602326"><ele>328.0</ele><time>2026-05-01T09:50:57.967Z</time></trkpt><trkpt lat="44.4026805" lon="11.4601996"><ele>327.99999999999994</ele><time>2026-05-01T09:51:33.961Z</time></trkpt><trkpt lat="44.4026851" lon="11.4601093"><ele>328.0</ele><time>2026-05-01T09:52:51.98Z</time></trkpt><trkpt lat="44.4027269" lon="11.4601755"><ele>328.0</ele><time>2026-05-01T09:53:06.973Z</time></trkpt><trkpt lat="44.4027746" lon="11.4602427"><ele>328.0</ele><time>2026-05-01T09:53:19.977Z</time></trkpt><trkpt lat="44.4027965" lon="11.4603281"><ele>328.0</ele><time>2026-05-01T09:55:25.869Z</time></trkpt><trkpt lat="44.4028655" lon="11.4603773"><ele>327.99999999999994</ele><time>2026-05-01T09:55:28.97Z</time></trkpt><trkpt lat="44.402936" lon="11.4604395"><ele>328.0</ele><time>2026-05-01T09:55:31.893Z</time></trkpt><trkpt lat="44.4029915" lon="11.4605107"><ele>327.59999999999997</ele><time>2026-05-01T09:55:33.957Z</time></trkpt><trkpt lat="44.4030769" lon="11.460563"><ele>327.2</ele><time>2026-05-01T09:55:35.989Z</time></trkpt><trkpt lat="44.4031625" lon="11.4606345"><ele>326.8</ele><time>2026-05-01T09:55:37.971Z</time></trkpt><trkpt lat="44.4032569" lon="11.4607454"><ele>326.4</ele><time>2026-05-01T09:55:39.982Z</time></trkpt><trkpt lat="44.4033062" lon="11.4608415"><ele>326.0</ele><time>2026-05-01T09:55:40.983Z</time></trkpt><trkpt lat="44.4033473" lon="11.4609517"><ele>326.0</ele><time>2026-05-01T09:55:41.969Z</time></trkpt><trkpt lat="44.4033822" lon="11.4610691"><ele>326.0</ele><time>2026-05-01T09:55:42.975Z</time></trkpt><trkpt lat="44.4034253" lon="11.4611965"><ele>326.0</ele><time>2026-05-01T09:55:43.97Z</time></trkpt><trkpt lat="44.4034788" lon="11.4613257"><ele>326.0</ele><time>2026-05-01T09:55:44.976Z</time></trkpt><trkpt lat="44.4035357" lon="11.4614625"><ele>326.0</ele><time>2026-05-01T09:55:45.979Z</time></trkpt><trkpt lat="44.403598" lon="11.4616001"><ele>325.0</ele><time>2026-05-01T09:55:46.977Z</time></trkpt><trkpt lat="44.4036617" lon="11.4617232"><ele>324.0</ele><time>2026-05-01T09:55:47.962Z</time></trkpt><trkpt lat="44.4037304" lon="11.4618531"><ele>323.0</ele><time>2026-05-01T09:55:48.986Z</time></trkpt><trkpt lat="44.4038001" lon="11.4619799"><ele>322.0</ele><time>2026-05-01T09:55:49.978Z</time></trkpt><trkpt lat="44.4038708" lon="11.4620992"><ele>321.0</ele><time>2026-05-01T09:55:50.975Z</time></trkpt><trkpt lat="44.4039347" lon="11.4622315"><ele>317.0</ele><time>2026-05-01T09:55:51.968Z</time></trkpt><trkpt lat="44.4039993" lon="11.4623672"><ele>313.0</ele><time>2026-05-01T09:55:52.974Z</time></trkpt><trkpt lat="44.4040605" lon="11.4625037"><ele>309.0</ele><time>2026-05-01T09:55:53.977Z</time></trkpt><trkpt lat="44.4041117" lon="11.4626553"><ele>305.0</ele><time>2026-05-01T09:55:54.98Z</time></trkpt><trkpt lat="44.4041573" lon="11.4628065"><ele>304.0</ele><time>2026-05-01T09:55:55.977Z</time></trkpt><trkpt lat="44.4041982" lon="11.4629651"><ele>303.0</ele><time>2026-05-01T09:55:56.968Z</time></trkpt><trkpt lat="44.4042374" lon="11.463131"><ele>302.0</ele><time>2026-05-01T09:55:57.971Z</time></trkpt><trkpt lat="44.404278" lon="11.4633077"><ele>301.0</ele><time>2026-05-01T09:55:58.964Z</time></trkpt><trkpt lat="44.4043191" lon="11.4634973"><ele>301.0</ele><time>2026-05-01T09:55:59.964Z</time></trkpt><trkpt lat="44.4043702" lon="11.4636742"><ele>301.0</ele><time>2026-05-01T09:56:00.973Z</time></trkpt><trkpt lat="44.4044435" lon="11.4638493"><ele>301.0</ele><time>2026-05-01T09:56:01.97Z</time></trkpt><trkpt lat="44.4045278" lon="11.4640053"><ele>301.0</ele><time>2026-05-01T09:56:02.96Z</time></trkpt><trkpt lat="44.4046256" lon="11.4641577"><ele>296.0</ele><time>2026-05-01T09:56:03.969Z</time></trkpt><trkpt lat="44.4047135" lon="11.4642955"><ele>291.0</ele><time>2026-05-01T09:56:04.973Z</time></trkpt><trkpt lat="44.4047981" lon="11.4644268"><ele>286.0</ele><time>2026-05-01T09:56:05.971Z</time></trkpt><trkpt lat="44.4048938" lon="11.4645291"><ele>281.0</ele><time>2026-05-01T09:56:06.968Z</time></trkpt><trkpt lat="44.4050137" lon="11.4646102"><ele>280.0</ele><time>2026-05-01T09:56:07.963Z</time></trkpt><trkpt lat="44.4051478" lon="11.4646737"><ele>279.0</ele><time>2026-05-01T09:56:08.965Z</time></trkpt><trkpt lat="44.4052891" lon="11.464733"><ele>278.0</ele><time>2026-05-01T09:56:09.963Z</time></trkpt><trkpt lat="44.4054197" lon="11.4648162"><ele>277.0</ele><time>2026-05-01T09:56:10.965Z</time></trkpt><trkpt lat="44.4055281" lon="11.4649172"><ele>274.75</ele><time>2026-05-01T09:56:11.963Z</time></trkpt><trkpt lat="44.4056169" lon="11.4650516"><ele>272.5</ele><time>2026-05-01T09:56:12.971Z</time></trkpt><trkpt lat="44.4056983" lon="11.4651918"><ele>270.25</ele><time>2026-05-01T09:56:13.969Z</time></trkpt><trkpt lat="44.4057768" lon="11.4653283"><ele>268.0</ele><time>2026-05-01T09:56:14.968Z</time></trkpt><trkpt lat="44.4058492" lon="11.4654745"><ele>267.6</ele><time>2026-05-01T09:56:15.968Z</time></trkpt><trkpt lat="44.4059185" lon="11.4656062"><ele>267.20000000000005</ele><time>2026-05-01T09:56:16.964Z</time></trkpt><trkpt lat="44.4059811" lon="11.4657359"><ele>266.8</ele><time>2026-05-01T09:56:17.973Z</time></trkpt><trkpt lat="44.4060433" lon="11.4658568"><ele>266.40000000000003</ele><time>2026-05-01T09:56:18.97Z</time></trkpt><trkpt lat="44.4061074" lon="11.4659768"><ele>266.0</ele><time>2026-05-01T09:56:19.967Z</time></trkpt><trkpt lat="44.4061717" lon="11.4660889"><ele>266.0</ele><time>2026-05-01T09:56:20.973Z</time></trkpt><trkpt lat="44.4062365" lon="11.4661872"><ele>266.0</ele><time>2026-05-01T09:56:21.972Z</time></trkpt><trkpt lat="44.4063008" lon="11.4662806"><ele>266.0</ele><time>2026-05-01T09:56:22.968Z</time></trkpt><trkpt lat="44.4063564" lon="11.4663719"><ele>266.0</ele><time>2026-05-01T09:56:23.977Z</time></trkpt><trkpt lat="44.4064115" lon="11.4664688"><ele>266.0</ele><time>2026-05-01T09:56:24.969Z</time></trkpt><trkpt lat="44.4064604" lon="11.4665612"><ele>266.0</ele><time>2026-05-01T09:56:25.97Z</time></trkpt><trkpt lat="44.4065064" lon="11.4666536"><ele>266.1666666666667</ele><time>2026-05-01T09:56:26.972Z</time></trkpt><trkpt lat="44.4065545" lon="11.4667393"><ele>266.33333333333337</ele><time>2026-05-01T09:56:27.973Z</time></trkpt><trkpt lat="44.4066075" lon="11.4668205"><ele>266.5</ele><time>2026-05-01T09:56:28.969Z</time></trkpt><trkpt lat="44.4066609" lon="11.4669054"><ele>266.6666666666667</ele><time>2026-05-01T09:56:29.981Z</time></trkpt><trkpt lat="44.4067118" lon="11.4669971"><ele>266.8333333333333</ele><time>2026-05-01T09:56:30.97Z</time></trkpt><trkpt lat="44.4067614" lon="11.4670764"><ele>267.0</ele><time>2026-05-01T09:56:31.967Z</time></trkpt><trkpt lat="44.4068136" lon="11.4671625"><ele>266.6666666666667</ele><time>2026-05-01T09:56:32.967Z</time></trkpt><trkpt lat="44.4068669" lon="11.467244"><ele>266.3333333333333</ele><time>2026-05-01T09:56:33.964Z</time></trkpt><trkpt lat="44.4069197" lon="11.4673257"><ele>266.0</ele><time>2026-05-01T09:56:34.968Z</time></trkpt><trkpt lat="44.4069733" lon="11.4674062"><ele>265.66666666666663</ele><time>2026-05-01T09:56:35.971Z</time></trkpt><trkpt lat="44.4070194" lon="11.4674915"><ele>265.3333333333333</ele><time>2026-05-01T09:56:36.967Z</time></trkpt><trkpt lat="44.4070668" lon="11.4675759"><ele>265.0</ele><time>2026-05-01T09:56:37.959Z</time></trkpt><trkpt lat="44.4071123" lon="11.4676584"><ele>265.0</ele><time>2026-05-01T09:56:38.972Z</time></trkpt><trkpt lat="44.4071575" lon="11.4677432"><ele>265.0</ele><time>2026-05-01T09:56:39.975Z</time></trkpt><trkpt lat="44.4071981" lon="11.467836"><ele>265.0</ele><time>2026-05-01T09:56:40.978Z</time></trkpt><trkpt lat="44.4072344" lon="11.4679347"><ele>265.0</ele><time>2026-05-01T09:56:41.968Z</time></trkpt><trkpt lat="44.4072732" lon="11.4680346"><ele>265.0</ele><time>2026-05-01T09:56:42.98Z</time></trkpt><trkpt lat="44.4073033" lon="11.4681395"><ele>265.0</ele><time>2026-05-01T09:56:43.961Z</time></trkpt><trkpt lat="44.4073316" lon="11.4682379"><ele>265.57142857142856</ele><time>2026-05-01T09:56:44.967Z</time></trkpt><trkpt lat="44.4073616" lon="11.4683359"><ele>266.1428571428571</ele><time>2026-05-01T09:56:45.964Z</time></trkpt><trkpt lat="44.4073817" lon="11.4684371"><ele>266.7142857142857</ele><time>2026-05-01T09:56:46.971Z</time></trkpt><trkpt lat="44.4073989" lon="11.4685366"><ele>267.2857142857143</ele><time>2026-05-01T09:56:47.974Z</time></trkpt><trkpt lat="44.4074088" lon="11.4686373"><ele>267.8571428571429</ele><time>2026-05-01T09:56:48.968Z</time></trkpt><trkpt lat="44.4074145" lon="11.4687365"><ele>268.42857142857144</ele><time>2026-05-01T09:56:49.968Z</time></trkpt><trkpt lat="44.4074154" lon="11.468833"><ele>269.0</ele><time>2026-05-01T09:56:50.972Z</time></trkpt><trkpt lat="44.4074105" lon="11.468926"><ele>269.0</ele><time>2026-05-01T09:56:51.964Z</time></trkpt><trkpt lat="44.4074078" lon="11.4690215"><ele>269.0</ele><time>2026-05-01T09:56:52.967Z</time></trkpt><trkpt lat="44.4074054" lon="11.4691158"><ele>269.0</ele><time>2026-05-01T09:56:53.968Z</time></trkpt><trkpt lat="44.407398" lon="11.4692038"><ele>269.0</ele><time>2026-05-01T09:56:54.967Z</time></trkpt><trkpt lat="44.4073874" lon="11.4693713"><ele>269.0</ele><time>2026-05-01T09:56:56.962Z</time></trkpt><trkpt lat="44.4073718" lon="11.4695226"><ele>269.0</ele><time>2026-05-01T09:56:58.967Z</time></trkpt><trkpt lat="44.407372" lon="11.4696562"><ele>268.2</ele><time>2026-05-01T09:57:00.968Z</time></trkpt><trkpt lat="44.407372" lon="11.4697766"><ele>267.4</ele><time>2026-05-01T09:57:02.968Z</time></trkpt><trkpt lat="44.4073699" lon="11.4699006"><ele>266.6</ele><time>2026-05-01T09:57:04.97Z</time></trkpt><trkpt lat="44.4073696" lon="11.4700333"><ele>265.8</ele><time>2026-05-01T09:57:06.977Z</time></trkpt><trkpt lat="44.407384" lon="11.4701762"><ele>265.0</ele><time>2026-05-01T09:57:08.971Z</time></trkpt><trkpt lat="44.4074328" lon="11.4703309"><ele>265.0</ele><time>2026-05-01T09:57:10.978Z</time></trkpt><trkpt lat="44.4074603" lon="11.4704193"><ele>265.0</ele><time>2026-05-01T09:57:11.97Z</time></trkpt><trkpt lat="44.4074914" lon="11.4705104"><ele>265.0</ele><time>2026-05-01T09:57:12.971Z</time></trkpt><trkpt lat="44.4075189" lon="11.4706165"><ele>265.0</ele><time>2026-05-01T09:57:13.968Z</time></trkpt><trkpt lat="44.407535" lon="11.4707452"><ele>265.0</ele><time>2026-05-01T09:57:14.972Z</time></trkpt><trkpt lat="44.4075336" lon="11.4708795"><ele>265.0</ele><time>2026-05-01T09:57:15.973Z</time></trkpt><trkpt lat="44.4075135" lon="11.4710152"><ele>265.25</ele><time>2026-05-01T09:57:16.981Z</time></trkpt><trkpt lat="44.4074769" lon="11.4711561"><ele>265.5</ele><time>2026-05-01T09:57:17.973Z</time></trkpt><trkpt lat="44.407436" lon="11.4713021"><ele>265.75</ele><time>2026-05-01T09:57:18.974Z</time></trkpt><trkpt lat="44.4073974" lon="11.4714518"><ele>266.0</ele><time>2026-05-01T09:57:19.969Z</time></trkpt><trkpt lat="44.4073589" lon="11.4716089"><ele>263.75</ele><time>2026-05-01T09:57:20.971Z</time></trkpt><trkpt lat="44.4073136" lon="11.4717629"><ele>261.5</ele><time>2026-05-01T09:57:21.967Z</time></trkpt><trkpt lat="44.4072575" lon="11.4719157"><ele>259.25</ele><time>2026-05-01T09:57:22.975Z</time></trkpt><trkpt lat="44.4071848" lon="11.4720582"><ele>257.0</ele><time>2026-05-01T09:57:23.972Z</time></trkpt><trkpt lat="44.4070987" lon="11.4721832"><ele>255.39999999999998</ele><time>2026-05-01T09:57:24.969Z</time></trkpt><trkpt lat="44.4070116" lon="11.4722827"><ele>253.79999999999998</ele><time>2026-05-01T09:57:25.965Z</time></trkpt><trkpt lat="44.4069308" lon="11.4723763"><ele>252.2</ele><time>2026-05-01T09:57:26.973Z</time></trkpt><trkpt lat="44.4068607" lon="11.4724615"><ele>250.6</ele><time>2026-05-01T09:57:27.971Z</time></trkpt><trkpt lat="44.4068055" lon="11.472556"><ele>249.0</ele><time>2026-05-01T09:57:28.968Z</time></trkpt><trkpt lat="44.4067505" lon="11.4726591"><ele>249.0</ele><time>2026-05-01T09:57:29.974Z</time></trkpt><trkpt lat="44.4066805" lon="11.4727649"><ele>248.99999999999997</ele><time>2026-05-01T09:57:30.973Z</time></trkpt><trkpt lat="44.4066019" lon="11.4728518"><ele>248.99999999999997</ele><time>2026-05-01T09:57:31.962Z</time></trkpt><trkpt lat="44.4065211" lon="11.4729108"><ele>249.0</ele><time>2026-05-01T09:57:32.97Z</time></trkpt><trkpt lat="44.4064454" lon="11.4729726"><ele>249.0</ele><time>2026-05-01T09:57:33.967Z</time></trkpt><trkpt lat="44.4063797" lon="11.4730339"><ele>247.79999999999998</ele><time>2026-05-01T09:57:34.977Z</time></trkpt><trkpt lat="44.4063186" lon="11.473096"><ele>246.59999999999997</ele><time>2026-05-01T09:57:35.967Z</time></trkpt><trkpt lat="44.4062662" lon="11.4731563"><ele>245.4</ele><time>2026-05-01T09:57:36.968Z</time></trkpt><trkpt lat="44.4061759" lon="11.4732699"><ele>244.2</ele><time>2026-05-01T09:57:38.974Z</time></trkpt><trkpt lat="44.4060984" lon="11.4733841"><ele>243.0</ele><time>2026-05-01T09:57:40.973Z</time></trkpt><trkpt lat="44.4060377" lon="11.4735063"><ele>243.0</ele><time>2026-05-01T09:57:42.969Z</time></trkpt><trkpt lat="44.4059687" lon="11.4736378"><ele>243.0</ele><time>2026-05-01T09:57:44.969Z</time></trkpt><trkpt lat="44.4058957" lon="11.4737694"><ele>243.0</ele><time>2026-05-01T09:57:46.968Z</time></trkpt><trkpt lat="44.405847" lon="11.473837"><ele>243.0</ele><time>2026-05-01T09:57:47.967Z</time></trkpt><trkpt lat="44.4057659" lon="11.4739655"><ele>243.0</ele><time>2026-05-01T09:57:49.967Z</time></trkpt><trkpt lat="44.4057253" lon="11.4740334"><ele>246.0</ele><time>2026-05-01T09:57:50.972Z</time></trkpt><trkpt lat="44.4056529" lon="11.4741705"><ele>249.0</ele><time>2026-05-01T09:57:52.971Z</time></trkpt><trkpt lat="44.4055948" lon="11.4743146"><ele>252.0</ele><time>2026-05-01T09:57:54.968Z</time></trkpt><trkpt lat="44.4055435" lon="11.4744537"><ele>255.0</ele><time>2026-05-01T09:57:56.972Z</time></trkpt><trkpt lat="44.405502" lon="11.4745911"><ele>253.0</ele><time>2026-05-01T09:57:58.972Z</time></trkpt><trkpt lat="44.4054572" lon="11.4747426"><ele>251.0</ele><time>2026-05-01T09:58:00.977Z</time></trkpt><trkpt lat="44.4054268" lon="11.4748921"><ele>249.0</ele><time>2026-05-01T09:58:02.968Z</time></trkpt><trkpt lat="44.4054219" lon="11.4750372"><ele>247.0</ele><time>2026-05-01T09:58:04.971Z</time></trkpt><trkpt lat="44.4054124" lon="11.4751914"><ele>245.0</ele><time>2026-05-01T09:58:06.974Z</time></trkpt><trkpt lat="44.4053982" lon="11.4753501"><ele>243.4</ele><time>2026-05-01T09:58:08.969Z</time></trkpt><trkpt lat="44.4053767" lon="11.4754607"><ele>241.8</ele><time>2026-05-01T09:58:10.97Z</time></trkpt><trkpt lat="44.4053398" lon="11.4755698"><ele>240.2</ele><time>2026-05-01T09:58:13.968Z</time></trkpt><trkpt lat="44.4053129" lon="11.4756671"><ele>238.6</ele><time>2026-05-01T09:58:16.965Z</time></trkpt><trkpt lat="44.4052729" lon="11.4757763"><ele>237.0</ele><time>2026-05-01T09:58:18.969Z</time></trkpt><trkpt lat="44.4052169" lon="11.4759396"><ele>237.0</ele><time>2026-05-01T09:58:20.971Z</time></trkpt><trkpt lat="44.4051808" lon="11.4760479"><ele>237.0</ele><time>2026-05-01T09:58:21.969Z</time></trkpt><trkpt lat="44.4051338" lon="11.4761655"><ele>237.0</ele><time>2026-05-01T09:58:22.975Z</time></trkpt><trkpt lat="44.4050749" lon="11.4762985"><ele>237.0</ele><time>2026-05-01T09:58:23.982Z</time></trkpt><trkpt lat="44.4050167" lon="11.4764337"><ele>237.0</ele><time>2026-05-01T09:58:24.973Z</time></trkpt><trkpt lat="44.4049573" lon="11.4765718"><ele>235.5</ele><time>2026-05-01T09:58:25.97Z</time></trkpt><trkpt lat="44.4048946" lon="11.4767156"><ele>234.0</ele><time>2026-05-01T09:58:27.029Z</time></trkpt><trkpt lat="44.404829" lon="11.4768608"><ele>232.5</ele><time>2026-05-01T09:58:27.968Z</time></trkpt><trkpt lat="44.4047682" lon="11.4770099"><ele>231.0</ele><time>2026-05-01T09:58:28.972Z</time></trkpt><trkpt lat="44.4047135" lon="11.4771627"><ele>227.75</ele><time>2026-05-01T09:58:29.966Z</time></trkpt><trkpt lat="44.4046528" lon="11.4773037"><ele>224.5</ele><time>2026-05-01T09:58:30.973Z</time></trkpt><trkpt lat="44.4045874" lon="11.4774398"><ele>221.25</ele><time>2026-05-01T09:58:31.968Z</time></trkpt><trkpt lat="44.404527" lon="11.4775755"><ele>218.0</ele><time>2026-05-01T09:58:32.965Z</time></trkpt><trkpt lat="44.4044657" lon="11.4777071"><ele>218.0</ele><time>2026-05-01T09:58:33.97Z</time></trkpt><trkpt lat="44.4044065" lon="11.4778267"><ele>218.0</ele><time>2026-05-01T09:58:34.973Z</time></trkpt><trkpt lat="44.4043494" lon="11.4779407"><ele>218.0</ele><time>2026-05-01T09:58:35.971Z</time></trkpt><trkpt lat="44.4042877" lon="11.4780492"><ele>218.0</ele><time>2026-05-01T09:58:37.032Z</time></trkpt><trkpt lat="44.4042331" lon="11.4781581"><ele>218.0</ele><time>2026-05-01T09:58:38.041Z</time></trkpt><trkpt lat="44.404179" lon="11.4782581"><ele>218.2</ele><time>2026-05-01T09:58:38.954Z</time></trkpt><trkpt lat="44.4041247" lon="11.4783529"><ele>218.4</ele><time>2026-05-01T09:58:40.035Z</time></trkpt><trkpt lat="44.4040576" lon="11.4784523"><ele>218.59999999999997</ele><time>2026-05-01T09:58:40.971Z</time></trkpt><trkpt lat="44.4039868" lon="11.4785454"><ele>218.79999999999998</ele><time>2026-05-01T09:58:41.973Z</time></trkpt><trkpt lat="44.4039259" lon="11.4786452"><ele>219.0</ele><time>2026-05-01T09:58:42.964Z</time></trkpt><trkpt lat="44.4038707" lon="11.4787483"><ele>219.0</ele><time>2026-05-01T09:58:43.969Z</time></trkpt><trkpt lat="44.4038195" lon="11.4788684"><ele>219.0</ele><time>2026-05-01T09:58:44.968Z</time></trkpt><trkpt lat="44.4037853" lon="11.4789853"><ele>219.0</ele><time>2026-05-01T09:58:45.963Z</time></trkpt><trkpt lat="44.4037673" lon="11.4790772"><ele>219.0</ele><time>2026-05-01T09:58:46.969Z</time></trkpt><trkpt lat="44.4037612" lon="11.4791805"><ele>219.0</ele><time>2026-05-01T09:58:48.966Z</time></trkpt><trkpt lat="44.403798" lon="11.4792632"><ele>219.0</ele><time>2026-05-01T09:58:51.966Z</time></trkpt><trkpt lat="44.403872" lon="11.4793145"><ele>219.0</ele><time>2026-05-01T09:58:54.035Z</time></trkpt><trkpt lat="44.4039748" lon="11.4793975"><ele>218.99999999999997</ele><time>2026-05-01T09:58:55.966Z</time></trkpt><trkpt lat="44.4040677" lon="11.4794492"><ele>218.99999999999997</ele><time>2026-05-01T09:58:57.974Z</time></trkpt><trkpt lat="44.4041483" lon="11.4795061"><ele>219.0</ele><time>2026-05-01T09:58:59.975Z</time></trkpt><trkpt lat="44.4042248" lon="11.4795512"><ele>219.0</ele><time>2026-05-01T09:59:01.967Z</time></trkpt><trkpt lat="44.4042945" lon="11.4796108"><ele>219.39999999999998</ele><time>2026-05-01T09:59:03.986Z</time></trkpt><trkpt lat="44.4043534" lon="11.479704"><ele>219.79999999999998</ele><time>2026-05-01T09:59:05.972Z</time></trkpt><trkpt lat="44.4043981" lon="11.4798713"><ele>220.20000000000002</ele><time>2026-05-01T09:59:07.985Z</time></trkpt><trkpt lat="44.4044155" lon="11.4799749"><ele>220.60000000000002</ele><time>2026-05-01T09:59:08.974Z</time></trkpt><trkpt lat="44.4044262" lon="11.4800978"><ele>221.0</ele><time>2026-05-01T09:59:09.99Z</time></trkpt><trkpt lat="44.4044322" lon="11.4802312"><ele>221.0</ele><time>2026-05-01T09:59:10.979Z</time></trkpt><trkpt lat="44.4044365" lon="11.480367"><ele>221.00000000000003</ele><time>2026-05-01T09:59:11.976Z</time></trkpt><trkpt lat="44.404438" lon="11.4805075"><ele>221.00000000000003</ele><time>2026-05-01T09:59:12.973Z</time></trkpt><trkpt lat="44.4044431" lon="11.4806516"><ele>221.0</ele><time>2026-05-01T09:59:13.977Z</time></trkpt><trkpt lat="44.4044476" lon="11.4807979"><ele>221.0</ele><time>2026-05-01T09:59:14.975Z</time></trkpt><trkpt lat="44.4044468" lon="11.480942"><ele>220.4</ele><time>2026-05-01T09:59:15.975Z</time></trkpt><trkpt lat="44.4044418" lon="11.481083"><ele>219.8</ele><time>2026-05-01T09:59:16.974Z</time></trkpt><trkpt lat="44.4044458" lon="11.4812175"><ele>219.20000000000002</ele><time>2026-05-01T09:59:17.962Z</time></trkpt><trkpt lat="44.4044569" lon="11.481347"><ele>218.60000000000002</ele><time>2026-05-01T09:59:18.97Z</time></trkpt><trkpt lat="44.4044744" lon="11.4814671"><ele>218.0</ele><time>2026-05-01T09:59:19.978Z</time></trkpt><trkpt lat="44.4044905" lon="11.4815848"><ele>216.8</ele><time>2026-05-01T09:59:20.978Z</time></trkpt><trkpt lat="44.404509" lon="11.4817056"><ele>215.60000000000002</ele><time>2026-05-01T09:59:21.974Z</time></trkpt><trkpt lat="44.4045224" lon="11.4818318"><ele>214.39999999999998</ele><time>2026-05-01T09:59:22.982Z</time></trkpt><trkpt lat="44.4045263" lon="11.4819758"><ele>213.2</ele><time>2026-05-01T09:59:23.978Z</time></trkpt><trkpt lat="44.4045279" lon="11.482113"><ele>212.0</ele><time>2026-05-01T09:59:24.968Z</time></trkpt><trkpt lat="44.404514" lon="11.482249"><ele>210.66666666666669</ele><time>2026-05-01T09:59:25.99Z</time></trkpt><trkpt lat="44.4044907" lon="11.4823771"><ele>209.33333333333334</ele><time>2026-05-01T09:59:26.969Z</time></trkpt><trkpt lat="44.4044677" lon="11.4824977"><ele>208.0</ele><time>2026-05-01T09:59:27.972Z</time></trkpt><trkpt lat="44.404442" lon="11.4826203"><ele>206.66666666666669</ele><time>2026-05-01T09:59:28.975Z</time></trkpt><trkpt lat="44.4044256" lon="11.4827283"><ele>205.33333333333334</ele><time>2026-05-01T09:59:29.972Z</time></trkpt><trkpt lat="44.4044154" lon="11.4828302"><ele>204.0</ele><time>2026-05-01T09:59:30.965Z</time></trkpt><trkpt lat="44.4044034" lon="11.482938"><ele>202.33333333333334</ele><time>2026-05-01T09:59:32.033Z</time></trkpt><trkpt lat="44.4043986" lon="11.483056"><ele>200.66666666666669</ele><time>2026-05-01T09:59:33.032Z</time></trkpt><trkpt lat="44.4044037" lon="11.4831826"><ele>199.0</ele><time>2026-05-01T09:59:33.966Z</time></trkpt><trkpt lat="44.404423" lon="11.4833033"><ele>197.33333333333334</ele><time>2026-05-01T09:59:35.02Z</time></trkpt><trkpt lat="44.4044513" lon="11.4834202"><ele>195.66666666666669</ele><time>2026-05-01T09:59:35.955Z</time></trkpt><trkpt lat="44.4044858" lon="11.4835331"><ele>194.0</ele><time>2026-05-01T09:59:36.972Z</time></trkpt><trkpt lat="44.4045238" lon="11.4836435"><ele>194.00000000000003</ele><time>2026-05-01T09:59:37.97Z</time></trkpt><trkpt lat="44.4045583" lon="11.4837513"><ele>194.0</ele><time>2026-05-01T09:59:38.964Z</time></trkpt><trkpt lat="44.4045908" lon="11.4838709"><ele>194.0</ele><time>2026-05-01T09:59:39.984Z</time></trkpt><trkpt lat="44.4046274" lon="11.4839903"><ele>194.0</ele><time>2026-05-01T09:59:40.982Z</time></trkpt><trkpt lat="44.4046627" lon="11.4841082"><ele>194.00000000000003</ele><time>2026-05-01T09:59:42.039Z</time></trkpt><trkpt lat="44.4047058" lon="11.484218"><ele>194.0</ele><time>2026-05-01T09:59:42.978Z</time></trkpt><trkpt lat="44.40475" lon="11.4843307"><ele>191.83333333333334</ele><time>2026-05-01T09:59:43.983Z</time></trkpt><trkpt lat="44.4047923" lon="11.4844434"><ele>189.66666666666669</ele><time>2026-05-01T09:59:44.979Z</time></trkpt><trkpt lat="44.4048264" lon="11.4845551"><ele>187.5</ele><time>2026-05-01T09:59:45.968Z</time></trkpt><trkpt lat="44.4048554" lon="11.4846691"><ele>185.33333333333334</ele><time>2026-05-01T09:59:46.97Z</time></trkpt><trkpt lat="44.4048788" lon="11.4847815"><ele>183.16666666666669</ele><time>2026-05-01T09:59:47.98Z</time></trkpt><trkpt lat="44.4048994" lon="11.4848902"><ele>181.0</ele><time>2026-05-01T09:59:48.975Z</time></trkpt><trkpt lat="44.4049148" lon="11.4849955"><ele>181.0</ele><time>2026-05-01T09:59:49.97Z</time></trkpt><trkpt lat="44.4049267" lon="11.4850976"><ele>181.0</ele><time>2026-05-01T09:59:50.98Z</time></trkpt><trkpt lat="44.4049342" lon="11.4851943"><ele>181.0</ele><time>2026-05-01T09:59:51.982Z</time></trkpt><trkpt lat="44.40494" lon="11.4852876"><ele>181.0</ele><time>2026-05-01T09:59:52.976Z</time></trkpt><trkpt lat="44.4049427" lon="11.4853783"><ele>181.0</ele><time>2026-05-01T09:59:53.986Z</time></trkpt><trkpt lat="44.4049406" lon="11.4855471"><ele>181.0</ele><time>2026-05-01T09:59:55.976Z</time></trkpt><trkpt lat="44.404941" lon="11.4856976"><ele>181.83333333333334</ele><time>2026-05-01T09:59:57.969Z</time></trkpt><trkpt lat="44.4049447" lon="11.4858243"><ele>182.66666666666669</ele><time>2026-05-01T10:00:00.035Z</time></trkpt><trkpt lat="44.404942" lon="11.4859366"><ele>183.5</ele><time>2026-05-01T10:00:01.968Z</time></trkpt><trkpt lat="44.4049308" lon="11.4860341"><ele>184.33333333333334</ele><time>2026-05-01T10:00:04.025Z</time></trkpt><trkpt lat="44.4049326" lon="11.4861253"><ele>185.16666666666666</ele><time>2026-05-01T10:00:05.961Z</time></trkpt><trkpt lat="44.4049317" lon="11.4862206"><ele>186.0</ele><time>2026-05-01T10:00:07.967Z</time></trkpt><trkpt lat="44.4049229" lon="11.4863254"><ele>186.85714285714286</ele><time>2026-05-01T10:00:09.986Z</time></trkpt><trkpt lat="44.4049119" lon="11.4864336"><ele>187.71428571428572</ele><time>2026-05-01T10:00:11.972Z</time></trkpt><trkpt lat="44.404906" lon="11.486532"><ele>188.57142857142856</ele><time>2026-05-01T10:00:13.97Z</time></trkpt><trkpt lat="44.4049085" lon="11.4866333"><ele>189.42857142857144</ele><time>2026-05-01T10:00:15.963Z</time></trkpt><trkpt lat="44.4049091" lon="11.4867338"><ele>190.28571428571428</ele><time>2026-05-01T10:00:17.963Z</time></trkpt><trkpt lat="44.404907" lon="11.4868273"><ele>191.14285714285714</ele><time>2026-05-01T10:00:19.97Z</time></trkpt><trkpt lat="44.4049137" lon="11.4869152"><ele>192.0</ele><time>2026-05-01T10:00:21.969Z</time></trkpt><trkpt lat="44.4049175" lon="11.4870064"><ele>192.5</ele><time>2026-05-01T10:00:24.966Z</time></trkpt><trkpt lat="44.4049199" lon="11.4871239"><ele>193.0</ele><time>2026-05-01T10:00:28.964Z</time></trkpt><trkpt lat="44.4049114" lon="11.4872389"><ele>193.5</ele><time>2026-05-01T10:00:32.958Z</time></trkpt><trkpt lat="44.4049123" lon="11.4873514"><ele>194.0</ele><time>2026-05-01T10:00:36.959Z</time></trkpt><trkpt lat="44.4049081" lon="11.487451"><ele>194.5</ele><time>2026-05-01T10:00:39.972Z</time></trkpt><trkpt lat="44.4048965" lon="11.4875556"><ele>195.0</ele><time>2026-05-01T10:00:42.959Z</time></trkpt><trkpt lat="44.404891" lon="11.4876583"><ele>195.0</ele><time>2026-05-01T10:00:45.965Z</time></trkpt><trkpt lat="44.4048967" lon="11.4877603"><ele>195.0</ele><time>2026-05-01T10:00:48.972Z</time></trkpt><trkpt lat="44.4049088" lon="11.4878748"><ele>195.0</ele><time>2026-05-01T10:00:51.966Z</time></trkpt><trkpt lat="44.4049198" lon="11.4879637"><ele>195.0</ele><time>2026-05-01T10:00:53.965Z</time></trkpt><trkpt lat="44.4049319" lon="11.4880542"><ele>195.0</ele><time>2026-05-01T10:00:55.963Z</time></trkpt><trkpt lat="44.4049472" lon="11.4881481"><ele>195.0</ele><time>2026-05-01T10:00:57.963Z</time></trkpt><trkpt lat="44.4049566" lon="11.4882434"><ele>195.0</ele><time>2026-05-01T10:00:59.963Z</time></trkpt><trkpt lat="44.4049622" lon="11.4883408"><ele>194.83333333333334</ele><time>2026-05-01T10:01:01.966Z</time></trkpt><trkpt lat="44.4049792" lon="11.4884481"><ele>194.66666666666669</ele><time>2026-05-01T10:01:03.964Z</time></trkpt><trkpt lat="44.4049938" lon="11.4885544"><ele>194.5</ele><time>2026-05-01T10:01:05.97Z</time></trkpt><trkpt lat="44.405013" lon="11.4886635"><ele>194.33333333333334</ele><time>2026-05-01T10:01:07.969Z</time></trkpt><trkpt lat="44.4050354" lon="11.4887764"><ele>194.16666666666669</ele><time>2026-05-01T10:01:09.961Z</time></trkpt><trkpt lat="44.405058" lon="11.4888947"><ele>194.0</ele><time>2026-05-01T10:01:11.965Z</time></trkpt><trkpt lat="44.4050746" lon="11.4890123"><ele>193.79999999999998</ele><time>2026-05-01T10:01:13.966Z</time></trkpt><trkpt lat="44.4050991" lon="11.4891275"><ele>193.6</ele><time>2026-05-01T10:01:15.974Z</time></trkpt><trkpt lat="44.4051253" lon="11.4892424"><ele>193.4</ele><time>2026-05-01T10:01:17.976Z</time></trkpt><trkpt lat="44.4051459" lon="11.4893497"><ele>193.2</ele><time>2026-05-01T10:01:19.985Z</time></trkpt><trkpt lat="44.4051587" lon="11.4894939"><ele>193.0</ele><time>2026-05-01T10:01:21.967Z</time></trkpt><trkpt lat="44.4051686" lon="11.4896345"><ele>192.2</ele><time>2026-05-01T10:01:23.974Z</time></trkpt><trkpt lat="44.4051708" lon="11.4897778"><ele>191.4</ele><time>2026-05-01T10:01:25.98Z</time></trkpt><trkpt lat="44.4051721" lon="11.4899304"><ele>190.6</ele><time>2026-05-01T10:01:27.967Z</time></trkpt><trkpt lat="44.4051711" lon="11.4900912"><ele>189.79999999999998</ele><time>2026-05-01T10:01:29.963Z</time></trkpt><trkpt lat="44.4051686" lon="11.4902532"><ele>189.0</ele><time>2026-05-01T10:01:31.972Z</time></trkpt><trkpt lat="44.4051701" lon="11.4904197"><ele>188.5</ele><time>2026-05-01T10:01:33.972Z</time></trkpt><trkpt lat="44.4051735" lon="11.4905952"><ele>188.0</ele><time>2026-05-01T10:01:35.972Z</time></trkpt><trkpt lat="44.4051703" lon="11.4906839"><ele>187.5</ele><time>2026-05-01T10:01:36.968Z</time></trkpt><trkpt lat="44.4051682" lon="11.490772"><ele>187.0</ele><time>2026-05-01T10:01:37.964Z</time></trkpt><trkpt lat="44.4051669" lon="11.4908692"><ele>186.5</ele><time>2026-05-01T10:01:38.969Z</time></trkpt><trkpt lat="44.4051702" lon="11.4909613"><ele>186.0</ele><time>2026-05-01T10:01:39.958Z</time></trkpt><trkpt lat="44.4051735" lon="11.4910567"><ele>186.00000000000003</ele><time>2026-05-01T10:01:40.958Z</time></trkpt><trkpt lat="44.4051773" lon="11.4911518"><ele>186.0</ele><time>2026-05-01T10:01:41.968Z</time></trkpt><trkpt lat="44.4051839" lon="11.4912493"><ele>186.0</ele><time>2026-05-01T10:01:42.956Z</time></trkpt><trkpt lat="44.4051834" lon="11.4913463"><ele>186.0</ele><time>2026-05-01T10:01:43.979Z</time></trkpt><trkpt lat="44.4051798" lon="11.4914507"><ele>186.0</ele><time>2026-05-01T10:01:44.961Z</time></trkpt><trkpt lat="44.4051817" lon="11.4915569"><ele>186.00000000000003</ele><time>2026-05-01T10:01:45.967Z</time></trkpt><trkpt lat="44.4051947" lon="11.4916636"><ele>186.0</ele><time>2026-05-01T10:01:46.965Z</time></trkpt><trkpt lat="44.4052061" lon="11.4917735"><ele>186.0</ele><time>2026-05-01T10:01:47.961Z</time></trkpt><trkpt lat="44.4052081" lon="11.4918873"><ele>186.0</ele><time>2026-05-01T10:01:48.972Z</time></trkpt><trkpt lat="44.4052133" lon="11.4919974"><ele>186.0</ele><time>2026-05-01T10:01:49.955Z</time></trkpt><trkpt lat="44.4052157" lon="11.4921036"><ele>186.0</ele><time>2026-05-01T10:01:50.957Z</time></trkpt><trkpt lat="44.4052167" lon="11.4922129"><ele>186.0</ele><time>2026-05-01T10:01:51.995Z</time></trkpt><trkpt lat="44.4052175" lon="11.4923212"><ele>186.0</ele><time>2026-05-01T10:01:52.953Z</time></trkpt><trkpt lat="44.4052194" lon="11.4924289"><ele>185.5</ele><time>2026-05-01T10:01:54.01Z</time></trkpt><trkpt lat="44.4052277" lon="11.492541"><ele>185.0</ele><time>2026-05-01T10:01:54.967Z</time></trkpt><trkpt lat="44.405233" lon="11.4926487"><ele>184.5</ele><time>2026-05-01T10:01:55.972Z</time></trkpt><trkpt lat="44.4052321" lon="11.4927511"><ele>184.0</ele><time>2026-05-01T10:01:56.962Z</time></trkpt><trkpt lat="44.4052294" lon="11.4928552"><ele>183.5</ele><time>2026-05-01T10:01:57.972Z</time></trkpt><trkpt lat="44.4052239" lon="11.4929575"><ele>183.0</ele><time>2026-05-01T10:01:58.957Z</time></trkpt><trkpt lat="44.4052226" lon="11.4930672"><ele>182.85714285714286</ele><time>2026-05-01T10:01:59.98Z</time></trkpt><trkpt lat="44.4052189" lon="11.4931691"><ele>182.71428571428572</ele><time>2026-05-01T10:02:00.964Z</time></trkpt><trkpt lat="44.4052133" lon="11.4932648"><ele>182.57142857142856</ele><time>2026-05-01T10:02:01.964Z</time></trkpt><trkpt lat="44.4052105" lon="11.4933691"><ele>182.42857142857144</ele><time>2026-05-01T10:02:02.96Z</time></trkpt><trkpt lat="44.4052065" lon="11.4934697"><ele>182.28571428571428</ele><time>2026-05-01T10:02:03.976Z</time></trkpt><trkpt lat="44.405212" lon="11.4935658"><ele>182.14285714285714</ele><time>2026-05-01T10:02:04.952Z</time></trkpt><trkpt lat="44.4052154" lon="11.49366"><ele>182.0</ele><time>2026-05-01T10:02:05.954Z</time></trkpt><trkpt lat="44.4052174" lon="11.4937578"><ele>181.28571428571428</ele><time>2026-05-01T10:02:06.958Z</time></trkpt><trkpt lat="44.4052165" lon="11.4938531"><ele>180.57142857142856</ele><time>2026-05-01T10:02:07.954Z</time></trkpt><trkpt lat="44.4052212" lon="11.4939602"><ele>179.85714285714286</ele><time>2026-05-01T10:02:08.963Z</time></trkpt><trkpt lat="44.4052236" lon="11.4940607"><ele>179.14285714285714</ele><time>2026-05-01T10:02:09.955Z</time></trkpt><trkpt lat="44.405223" lon="11.4941644"><ele>178.42857142857142</ele><time>2026-05-01T10:02:10.953Z</time></trkpt><trkpt lat="44.405223" lon="11.4942645"><ele>177.71428571428572</ele><time>2026-05-01T10:02:11.965Z</time></trkpt><trkpt lat="44.4052316" lon="11.494365"><ele>177.0</ele><time>2026-05-01T10:02:12.953Z</time></trkpt><trkpt lat="44.4052326" lon="11.4944695"><ele>177.0</ele><time>2026-05-01T10:02:13.951Z</time></trkpt><trkpt lat="44.4052313" lon="11.4945807"><ele>177.0</ele><time>2026-05-01T10:02:14.96Z</time></trkpt><trkpt lat="44.4052406" lon="11.4946875"><ele>177.0</ele><time>2026-05-01T10:02:15.975Z</time></trkpt><trkpt lat="44.4052662" lon="11.494797"><ele>177.0</ele><time>2026-05-01T10:02:16.992Z</time></trkpt><trkpt lat="44.4053239" lon="11.4948914"><ele>177.0</ele><time>2026-05-01T10:02:17.957Z</time></trkpt><trkpt lat="44.4053959" lon="11.4949769"><ele>177.0</ele><time>2026-05-01T10:02:18.953Z</time></trkpt><trkpt lat="44.4054703" lon="11.4950599"><ele>177.0</ele><time>2026-05-01T10:02:19.955Z</time></trkpt><trkpt lat="44.405632" lon="11.495234"><ele>177.0</ele><time>2026-05-01T10:02:21.952Z</time></trkpt><trkpt lat="44.4057293" lon="11.4953293"><ele>177.0</ele><time>2026-05-01T10:02:22.955Z</time></trkpt><trkpt lat="44.4058252" lon="11.4954329"><ele>177.0</ele><time>2026-05-01T10:02:23.958Z</time></trkpt><trkpt lat="44.4059299" lon="11.4955463"><ele>175.0</ele><time>2026-05-01T10:02:24.959Z</time></trkpt><trkpt lat="44.4060396" lon="11.4956582"><ele>173.0</ele><time>2026-05-01T10:02:25.962Z</time></trkpt><trkpt lat="44.4061539" lon="11.4957758"><ele>171.0</ele><time>2026-05-01T10:02:26.954Z</time></trkpt><trkpt lat="44.4062685" lon="11.495895"><ele>169.0</ele><time>2026-05-01T10:02:27.968Z</time></trkpt><trkpt lat="44.4063865" lon="11.4960147"><ele>167.75</ele><time>2026-05-01T10:02:28.983Z</time></trkpt><trkpt lat="44.406507" lon="11.4961297"><ele>166.5</ele><time>2026-05-01T10:02:29.952Z</time></trkpt><trkpt lat="44.4066217" lon="11.4962353"><ele>165.25</ele><time>2026-05-01T10:02:30.959Z</time></trkpt><trkpt lat="44.4067377" lon="11.4963346"><ele>164.0</ele><time>2026-05-01T10:02:31.967Z</time></trkpt><trkpt lat="44.4068446" lon="11.4964378"><ele>164.0</ele><time>2026-05-01T10:02:32.975Z</time></trkpt><trkpt lat="44.4069493" lon="11.496542"><ele>164.0</ele><time>2026-05-01T10:02:33.975Z</time></trkpt><trkpt lat="44.4070508" lon="11.4966395"><ele>164.0</ele><time>2026-05-01T10:02:34.976Z</time></trkpt><trkpt lat="44.4071521" lon="11.4967415"><ele>164.0</ele><time>2026-05-01T10:02:35.988Z</time></trkpt><trkpt lat="44.4072487" lon="11.4968336"><ele>162.0</ele><time>2026-05-01T10:02:36.976Z</time></trkpt><trkpt lat="44.4073474" lon="11.4969243"><ele>160.0</ele><time>2026-05-01T10:02:37.957Z</time></trkpt><trkpt lat="44.4074455" lon="11.4970107"><ele>158.0</ele><time>2026-05-01T10:02:38.976Z</time></trkpt><trkpt lat="44.4075423" lon="11.4970884"><ele>156.0</ele><time>2026-05-01T10:02:39.977Z</time></trkpt><trkpt lat="44.4076399" lon="11.4971726"><ele>155.8</ele><time>2026-05-01T10:02:40.978Z</time></trkpt><trkpt lat="44.4077366" lon="11.4972578"><ele>155.6</ele><time>2026-05-01T10:02:41.975Z</time></trkpt><trkpt lat="44.4078272" lon="11.4973396"><ele>155.4</ele><time>2026-05-01T10:02:42.974Z</time></trkpt><trkpt lat="44.4079194" lon="11.4974249"><ele>155.2</ele><time>2026-05-01T10:02:43.98Z</time></trkpt><trkpt lat="44.4080113" lon="11.497505"><ele>155.0</ele><time>2026-05-01T10:02:44.985Z</time></trkpt><trkpt lat="44.4081011" lon="11.4975886"><ele>154.8</ele><time>2026-05-01T10:02:45.974Z</time></trkpt><trkpt lat="44.4081897" lon="11.4976686"><ele>154.6</ele><time>2026-05-01T10:02:46.971Z</time></trkpt><trkpt lat="44.4082789" lon="11.4977572"><ele>154.4</ele><time>2026-05-01T10:02:47.985Z</time></trkpt><trkpt lat="44.4083673" lon="11.4978344"><ele>154.2</ele><time>2026-05-01T10:02:48.986Z</time></trkpt><trkpt lat="44.4084546" lon="11.4979163"><ele>154.0</ele><time>2026-05-01T10:02:49.971Z</time></trkpt><trkpt lat="44.4085407" lon="11.4979981"><ele>153.6</ele><time>2026-05-01T10:02:50.978Z</time></trkpt><trkpt lat="44.4086276" lon="11.4980758"><ele>153.2</ele><time>2026-05-01T10:02:51.982Z</time></trkpt><trkpt lat="44.4087119" lon="11.4981533"><ele>152.79999999999998</ele><time>2026-05-01T10:02:52.977Z</time></trkpt><trkpt lat="44.4088022" lon="11.4982291"><ele>152.4</ele><time>2026-05-01T10:02:53.974Z</time></trkpt><trkpt lat="44.4088811" lon="11.4983063"><ele>152.0</ele><time>2026-05-01T10:02:54.978Z</time></trkpt><trkpt lat="44.4089625" lon="11.4983872"><ele>151.2</ele><time>2026-05-01T10:02:55.968Z</time></trkpt><trkpt lat="44.4090475" lon="11.4984652"><ele>150.39999999999998</ele><time>2026-05-01T10:02:56.983Z</time></trkpt><trkpt lat="44.4091329" lon="11.4985454"><ele>149.60000000000002</ele><time>2026-05-01T10:02:57.965Z</time></trkpt><trkpt lat="44.4092206" lon="11.498628"><ele>148.8</ele><time>2026-05-01T10:02:58.973Z</time></trkpt><trkpt lat="44.4093037" lon="11.4987"><ele>148.0</ele><time>2026-05-01T10:02:59.965Z</time></trkpt><trkpt lat="44.4093863" lon="11.4987761"><ele>147.8</ele><time>2026-05-01T10:03:00.989Z</time></trkpt><trkpt lat="44.4094668" lon="11.4988517"><ele>147.60000000000002</ele><time>2026-05-01T10:03:01.978Z</time></trkpt><trkpt lat="44.4095406" lon="11.4989305"><ele>147.39999999999998</ele><time>2026-05-01T10:03:02.966Z</time></trkpt><trkpt lat="44.409623" lon="11.4990027"><ele>147.2</ele><time>2026-05-01T10:03:03.971Z</time></trkpt><trkpt lat="44.4097066" lon="11.4990705"><ele>147.0</ele><time>2026-05-01T10:03:04.971Z</time></trkpt><trkpt lat="44.4097926" lon="11.4991441"><ele>146.6</ele><time>2026-05-01T10:03:05.979Z</time></trkpt><trkpt lat="44.4098757" lon="11.4992208"><ele>146.2</ele><time>2026-05-01T10:03:06.983Z</time></trkpt><trkpt lat="44.4099576" lon="11.4992986"><ele>145.8</ele><time>2026-05-01T10:03:07.984Z</time></trkpt><trkpt lat="44.4100406" lon="11.4993794"><ele>145.4</ele><time>2026-05-01T10:03:08.987Z</time></trkpt><trkpt lat="44.410125" lon="11.4994539"><ele>145.0</ele><time>2026-05-01T10:03:09.98Z</time></trkpt><trkpt lat="44.4102127" lon="11.4995314"><ele>144.2</ele><time>2026-05-01T10:03:10.975Z</time></trkpt><trkpt lat="44.4103008" lon="11.4996153"><ele>143.4</ele><time>2026-05-01T10:03:11.97Z</time></trkpt><trkpt lat="44.4103866" lon="11.4996947"><ele>142.6</ele><time>2026-05-01T10:03:12.975Z</time></trkpt><trkpt lat="44.410472" lon="11.4997706"><ele>141.8</ele><time>2026-05-01T10:03:13.968Z</time></trkpt><trkpt lat="44.4105476" lon="11.4998488"><ele>141.0</ele><time>2026-05-01T10:03:14.976Z</time></trkpt><trkpt lat="44.4106064" lon="11.4999441"><ele>139.8</ele><time>2026-05-01T10:03:15.971Z</time></trkpt><trkpt lat="44.4106419" lon="11.5000464"><ele>138.6</ele><time>2026-05-01T10:03:16.972Z</time></trkpt><trkpt lat="44.410655" lon="11.5001686"><ele>137.4</ele><time>2026-05-01T10:03:17.967Z</time></trkpt><trkpt lat="44.4106526" lon="11.500301"><ele>136.2</ele><time>2026-05-01T10:03:18.972Z</time></trkpt><trkpt lat="44.410639" lon="11.5004272"><ele>135.0</ele><time>2026-05-01T10:03:19.966Z</time></trkpt><trkpt lat="44.4106238" lon="11.5005618"><ele>134.6</ele><time>2026-05-01T10:03:20.981Z</time></trkpt><trkpt lat="44.4106061" lon="11.5007039"><ele>134.2</ele><time>2026-05-01T10:03:21.982Z</time></trkpt><trkpt lat="44.4105886" lon="11.5008476"><ele>133.8</ele><time>2026-05-01T10:03:22.972Z</time></trkpt><trkpt lat="44.4105617" lon="11.5009919"><ele>133.4</ele><time>2026-05-01T10:03:23.983Z</time></trkpt><trkpt lat="44.4105456" lon="11.5011242"><ele>133.0</ele><time>2026-05-01T10:03:24.977Z</time></trkpt><trkpt lat="44.4105355" lon="11.5012413"><ele>132.0</ele><time>2026-05-01T10:03:25.959Z</time></trkpt><trkpt lat="44.4105405" lon="11.5013673"><ele>131.0</ele><time>2026-05-01T10:03:26.98Z</time></trkpt><trkpt lat="44.4105701" lon="11.501492"><ele>130.0</ele><time>2026-05-01T10:03:27.974Z</time></trkpt><trkpt lat="44.4106051" lon="11.5016067"><ele>129.0</ele><time>2026-05-01T10:03:28.966Z</time></trkpt><trkpt lat="44.4106404" lon="11.5017196"><ele>128.0</ele><time>2026-05-01T10:03:29.973Z</time></trkpt><trkpt lat="44.4106642" lon="11.501832"><ele>127.0</ele><time>2026-05-01T10:03:30.972Z</time></trkpt><trkpt lat="44.4106756" lon="11.5019443"><ele>127.0</ele><time>2026-05-01T10:03:31.973Z</time></trkpt><trkpt lat="44.410684" lon="11.5020537"><ele>126.99999999999999</ele><time>2026-05-01T10:03:32.973Z</time></trkpt><trkpt lat="44.4106812" lon="11.5021722"><ele>126.99999999999999</ele><time>2026-05-01T10:03:33.972Z</time></trkpt><trkpt lat="44.4106746" lon="11.5022999"><ele>127.0</ele><time>2026-05-01T10:03:34.965Z</time></trkpt><trkpt lat="44.4106587" lon="11.5024393"><ele>127.0</ele><time>2026-05-01T10:03:35.972Z</time></trkpt><trkpt lat="44.4106361" lon="11.5025824"><ele>125.8</ele><time>2026-05-01T10:03:36.984Z</time></trkpt><trkpt lat="44.4106136" lon="11.5027202"><ele>124.6</ele><time>2026-05-01T10:03:37.968Z</time></trkpt><trkpt lat="44.4105865" lon="11.5028656"><ele>123.39999999999999</ele><time>2026-05-01T10:03:38.971Z</time></trkpt><trkpt lat="44.4105548" lon="11.5030124"><ele>122.19999999999999</ele><time>2026-05-01T10:03:39.977Z</time></trkpt><trkpt lat="44.4105103" lon="11.5031728"><ele>121.0</ele><time>2026-05-01T10:03:40.98Z</time></trkpt><trkpt lat="44.4104551" lon="11.5033388"><ele>118.0</ele><time>2026-05-01T10:03:41.969Z</time></trkpt><trkpt lat="44.4103998" lon="11.5035106"><ele>115.0</ele><time>2026-05-01T10:03:42.96Z</time></trkpt><trkpt lat="44.4103289" lon="11.5036831"><ele>112.0</ele><time>2026-05-01T10:03:43.978Z</time></trkpt><trkpt lat="44.4102539" lon="11.5038624"><ele>109.0</ele><time>2026-05-01T10:03:44.985Z</time></trkpt><trkpt lat="44.4101884" lon="11.5040335"><ele>107.6</ele><time>2026-05-01T10:03:45.986Z</time></trkpt><trkpt lat="44.4101287" lon="11.5041664"><ele>106.2</ele><time>2026-05-01T10:03:46.978Z</time></trkpt><trkpt lat="44.4100762" lon="11.5042934"><ele>104.8</ele><time>2026-05-01T10:03:47.985Z</time></trkpt><trkpt lat="44.4100267" lon="11.5043996"><ele>103.39999999999999</ele><time>2026-05-01T10:03:48.976Z</time></trkpt><trkpt lat="44.4099802" lon="11.5044903"><ele>102.0</ele><time>2026-05-01T10:03:49.982Z</time></trkpt><trkpt lat="44.4099352" lon="11.5045668"><ele>101.25</ele><time>2026-05-01T10:03:50.978Z</time></trkpt><trkpt lat="44.4098545" lon="11.5046902"><ele>100.5</ele><time>2026-05-01T10:03:52.978Z</time></trkpt><trkpt lat="44.4097568" lon="11.5047955"><ele>99.75</ele><time>2026-05-01T10:03:54.976Z</time></trkpt><trkpt lat="44.4096479" lon="11.5048064"><ele>99.0</ele><time>2026-05-01T10:03:56.98Z</time></trkpt><trkpt lat="44.4095472" lon="11.5047406"><ele>99.0</ele><time>2026-05-01T10:03:58.981Z</time></trkpt><trkpt lat="44.4094571" lon="11.504639"><ele>99.0</ele><time>2026-05-01T10:04:00.976Z</time></trkpt><trkpt lat="44.4093769" lon="11.5045278"><ele>99.0</ele><time>2026-05-01T10:04:02.978Z</time></trkpt><trkpt lat="44.4092961" lon="11.5044204"><ele>99.0</ele><time>2026-05-01T10:04:04.984Z</time></trkpt><trkpt lat="44.4092222" lon="11.5043157"><ele>99.0</ele><time>2026-05-01T10:04:06.978Z</time></trkpt><trkpt lat="44.4091549" lon="11.5042139"><ele>99.2</ele><time>2026-05-01T10:04:08.983Z</time></trkpt><trkpt lat="44.4090839" lon="11.5041243"><ele>99.4</ele><time>2026-05-01T10:04:10.983Z</time></trkpt><trkpt lat="44.4090124" lon="11.5040332"><ele>99.6</ele><time>2026-05-01T10:04:12.983Z</time></trkpt><trkpt lat="44.4089413" lon="11.5039284"><ele>99.8</ele><time>2026-05-01T10:04:14.974Z</time></trkpt><trkpt lat="44.4088739" lon="11.503813"><ele>100.0</ele><time>2026-05-01T10:04:16.99Z</time></trkpt><trkpt lat="44.408804" lon="11.5037027"><ele>100.0</ele><time>2026-05-01T10:04:18.975Z</time></trkpt><trkpt lat="44.4087327" lon="11.5036009"><ele>100.0</ele><time>2026-05-01T10:04:20.977Z</time></trkpt><trkpt lat="44.4086637" lon="11.5034998"><ele>100.0</ele><time>2026-05-01T10:04:22.974Z</time></trkpt><trkpt lat="44.4085945" lon="11.5033998"><ele>100.0</ele><time>2026-05-01T10:04:24.982Z</time></trkpt><trkpt lat="44.408522" lon="11.503297"><ele>100.0</ele><time>2026-05-01T10:04:26.978Z</time></trkpt><trkpt lat="44.4084608" lon="11.5032013"><ele>100.00000000000001</ele><time>2026-05-01T10:04:28.976Z</time></trkpt><trkpt lat="44.4083966" lon="11.5031107"><ele>100.0</ele><time>2026-05-01T10:04:30.966Z</time></trkpt><trkpt lat="44.4083324" lon="11.5030229"><ele>100.0</ele><time>2026-05-01T10:04:32.971Z</time></trkpt><trkpt lat="44.4082668" lon="11.5029487"><ele>100.0</ele><time>2026-05-01T10:04:34.973Z</time></trkpt><trkpt lat="44.4081996" lon="11.5028933"><ele>100.00000000000001</ele><time>2026-05-01T10:04:36.959Z</time></trkpt><trkpt lat="44.4081303" lon="11.5028702"><ele>100.0</ele><time>2026-05-01T10:04:38.972Z</time></trkpt><trkpt lat="44.4080702" lon="11.5029136"><ele>100.00000000000001</ele><time>2026-05-01T10:04:40.97Z</time></trkpt><trkpt lat="44.4080114" lon="11.5029668"><ele>100.0</ele><time>2026-05-01T10:04:42.973Z</time></trkpt><trkpt lat="44.4079512" lon="11.5030218"><ele>100.0</ele><time>2026-05-01T10:04:44.969Z</time></trkpt><trkpt lat="44.4078943" lon="11.503084"><ele>100.0</ele><time>2026-05-01T10:04:46.962Z</time></trkpt><trkpt lat="44.4078292" lon="11.5031507"><ele>100.0</ele><time>2026-05-01T10:04:48.979Z</time></trkpt><trkpt lat="44.4077753" lon="11.5032182"><ele>100.00000000000001</ele><time>2026-05-01T10:04:50.972Z</time></trkpt><trkpt lat="44.4077111" lon="11.5032809"><ele>100.0</ele><time>2026-05-01T10:04:52.976Z</time></trkpt><trkpt lat="44.4076405" lon="11.5033404"><ele>99.83333333333334</ele><time>2026-05-01T10:04:54.973Z</time></trkpt><trkpt lat="44.4075817" lon="11.5034178"><ele>99.66666666666667</ele><time>2026-05-01T10:04:56.97Z</time></trkpt><trkpt lat="44.4075172" lon="11.5035041"><ele>99.5</ele><time>2026-05-01T10:04:58.985Z</time></trkpt><trkpt lat="44.407446" lon="11.5035867"><ele>99.33333333333334</ele><time>2026-05-01T10:05:00.965Z</time></trkpt><trkpt lat="44.407377" lon="11.503662"><ele>99.16666666666667</ele><time>2026-05-01T10:05:02.969Z</time></trkpt><trkpt lat="44.407313" lon="11.5037311"><ele>99.0</ele><time>2026-05-01T10:05:04.975Z</time></trkpt><trkpt lat="44.4072554" lon="11.5038031"><ele>99.42857142857143</ele><time>2026-05-01T10:05:06.975Z</time></trkpt><trkpt lat="44.4072076" lon="11.5038761"><ele>99.85714285714285</ele><time>2026-05-01T10:05:08.982Z</time></trkpt><trkpt lat="44.4071671" lon="11.5039635"><ele>100.28571428571428</ele><time>2026-05-01T10:05:11.969Z</time></trkpt><trkpt lat="44.4071436" lon="11.5040549"><ele>100.71428571428572</ele><time>2026-05-01T10:05:14.962Z</time></trkpt><trkpt lat="44.4071249" lon="11.504147"><ele>101.14285714285714</ele><time>2026-05-01T10:05:17.975Z</time></trkpt><trkpt lat="44.4071153" lon="11.5042418"><ele>101.57142857142857</ele><time>2026-05-01T10:05:20.982Z</time></trkpt><trkpt lat="44.4070982" lon="11.5043425"><ele>102.0</ele><time>2026-05-01T10:05:24.968Z</time></trkpt><trkpt lat="44.4070858" lon="11.5044481"><ele>102.57142857142857</ele><time>2026-05-01T10:05:28.963Z</time></trkpt><trkpt lat="44.4070759" lon="11.5045562"><ele>103.14285714285714</ele><time>2026-05-01T10:05:32.969Z</time></trkpt><trkpt lat="44.4070633" lon="11.5046658"><ele>103.71428571428572</ele><time>2026-05-01T10:05:36.969Z</time></trkpt><trkpt lat="44.4070485" lon="11.5047627"><ele>104.28571428571428</ele><time>2026-05-01T10:05:40.962Z</time></trkpt><trkpt lat="44.4070281" lon="11.5048498"><ele>104.85714285714285</ele><time>2026-05-01T10:05:44.971Z</time></trkpt><trkpt lat="44.4070056" lon="11.5049473"><ele>105.42857142857143</ele><time>2026-05-01T10:05:49.969Z</time></trkpt><trkpt lat="44.406992" lon="11.5050365"><ele>106.0</ele><time>2026-05-01T10:05:54.967Z</time></trkpt><trkpt lat="44.4069888" lon="11.505135"><ele>106.71428571428572</ele><time>2026-05-01T10:05:59.965Z</time></trkpt><trkpt lat="44.4069795" lon="11.5052232"><ele>107.42857142857142</ele><time>2026-05-01T10:06:04.968Z</time></trkpt><trkpt lat="44.4069654" lon="11.5053245"><ele>108.14285714285714</ele><time>2026-05-01T10:06:09.964Z</time></trkpt><trkpt lat="44.4069611" lon="11.5054214"><ele>108.85714285714286</ele><time>2026-05-01T10:06:14.967Z</time></trkpt><trkpt lat="44.4069639" lon="11.5055113"><ele>109.57142857142858</ele><time>2026-05-01T10:06:18.97Z</time></trkpt><trkpt lat="44.4069568" lon="11.5056051"><ele>110.28571428571428</ele><time>2026-05-01T10:06:23.967Z</time></trkpt><trkpt lat="44.4069739" lon="11.5056986"><ele>111.0</ele><time>2026-05-01T10:06:29.971Z</time></trkpt><trkpt lat="44.4069938" lon="11.505799"><ele>112.42857142857142</ele><time>2026-05-01T10:06:36.968Z</time></trkpt><trkpt lat="44.4070273" lon="11.5058842"><ele>113.85714285714286</ele><time>2026-05-01T10:06:42.97Z</time></trkpt><trkpt lat="44.4070703" lon="11.5059573"><ele>115.28571428571428</ele><time>2026-05-01T10:06:47.968Z</time></trkpt><trkpt lat="44.4070899" lon="11.5060569"><ele>116.71428571428571</ele><time>2026-05-01T10:06:54.965Z</time></trkpt><trkpt lat="44.4071235" lon="11.5061455"><ele>118.14285714285714</ele><time>2026-05-01T10:07:00.962Z</time></trkpt><trkpt lat="44.4071546" lon="11.5062265"><ele>119.57142857142857</ele><time>2026-05-01T10:07:05.96Z</time></trkpt><trkpt lat="44.407196" lon="11.5063235"><ele>121.0</ele><time>2026-05-01T10:07:10.962Z</time></trkpt><trkpt lat="44.4072348" lon="11.5064175"><ele>121.0</ele><time>2026-05-01T10:07:15.965Z</time></trkpt><trkpt lat="44.4072779" lon="11.506507"><ele>120.99999999999999</ele><time>2026-05-01T10:07:20.968Z</time></trkpt><trkpt lat="44.4073155" lon="11.5065827"><ele>121.0</ele><time>2026-05-01T10:07:25.968Z</time></trkpt><trkpt lat="44.407351" lon="11.5066713"><ele>121.0</ele><time>2026-05-01T10:07:31.957Z</time></trkpt><trkpt lat="44.4073788" lon="11.5067692"><ele>120.99999999999999</ele><time>2026-05-01T10:07:36.96Z</time></trkpt><trkpt lat="44.4073371" lon="11.5068456"><ele>121.0</ele><time>2026-05-01T10:07:42.963Z</time></trkpt><trkpt lat="44.4072768" lon="11.5067957"><ele>121.0</ele><time>2026-05-01T10:07:50.971Z</time></trkpt><trkpt lat="44.4072381" lon="11.5067185"><ele>121.0</ele><time>2026-05-01T10:07:57.963Z</time></trkpt><trkpt lat="44.4071814" lon="11.5066638"><ele>120.99999999999999</ele><time>2026-05-01T10:08:04.965Z</time></trkpt><trkpt lat="44.4071481" lon="11.5065867"><ele>121.0</ele><time>2026-05-01T10:08:11.966Z</time></trkpt><trkpt lat="44.4070971" lon="11.5065213"><ele>121.0</ele><time>2026-05-01T10:08:17.972Z</time></trkpt><trkpt lat="44.4070497" lon="11.506439"><ele>120.99999999999999</ele><time>2026-05-01T10:08:24.97Z</time></trkpt><trkpt lat="44.4069974" lon="11.5063637"><ele>121.0</ele><time>2026-05-01T10:08:32.977Z</time></trkpt><trkpt lat="44.4069167" lon="11.5062999"><ele>121.0</ele><time>2026-05-01T10:08:44.966Z</time></trkpt><trkpt lat="44.4068507" lon="11.5062816"><ele>121.14285714285714</ele><time>2026-05-01T10:08:51.982Z</time></trkpt><trkpt lat="44.4067796" lon="11.5062701"><ele>121.28571428571428</ele><time>2026-05-01T10:08:57.972Z</time></trkpt><trkpt lat="44.4067136" lon="11.5062633"><ele>121.42857142857142</ele><time>2026-05-01T10:09:03.964Z</time></trkpt><trkpt lat="44.406641" lon="11.5062576"><ele>121.57142857142856</ele><time>2026-05-01T10:09:09.965Z</time></trkpt><trkpt lat="44.4065731" lon="11.5062535"><ele>121.71428571428571</ele><time>2026-05-01T10:09:15.966Z</time></trkpt><trkpt lat="44.4065001" lon="11.5062489"><ele>121.85714285714283</ele><time>2026-05-01T10:09:21.962Z</time></trkpt><trkpt lat="44.406437" lon="11.5062323"><ele>121.99999999999999</ele><time>2026-05-01T10:09:27.964Z</time></trkpt><trkpt lat="44.4063683" lon="11.5062505"><ele>124.14285714285712</ele><time>2026-05-01T10:09:34.966Z</time></trkpt><trkpt lat="44.4063033" lon="11.506261"><ele>126.28571428571428</ele><time>2026-05-01T10:09:43.957Z</time></trkpt><trkpt lat="44.4062413" lon="11.506238"><ele>128.42857142857144</ele><time>2026-05-01T10:09:49.957Z</time></trkpt><trkpt lat="44.406166" lon="11.5062299"><ele>130.57142857142856</ele><time>2026-05-01T10:09:55.971Z</time></trkpt><trkpt lat="44.4060999" lon="11.5062095"><ele>132.71428571428572</ele><time>2026-05-01T10:10:01.963Z</time></trkpt><trkpt lat="44.4060337" lon="11.5061898"><ele>134.85714285714286</ele><time>2026-05-01T10:10:07.952Z</time></trkpt><trkpt lat="44.4059621" lon="11.5061736"><ele>137.0</ele><time>2026-05-01T10:10:13.961Z</time></trkpt><trkpt lat="44.4058987" lon="11.506154"><ele>137.00000000000003</ele><time>2026-05-01T10:10:18.968Z</time></trkpt><trkpt lat="44.4058349" lon="11.5061331"><ele>137.0</ele><time>2026-05-01T10:10:23.963Z</time></trkpt><trkpt lat="44.4057697" lon="11.5061194"><ele>137.0</ele><time>2026-05-01T10:10:28.966Z</time></trkpt><trkpt lat="44.4057059" lon="11.5061091"><ele>137.0</ele><time>2026-05-01T10:10:33.962Z</time></trkpt><trkpt lat="44.4056366" lon="11.5060733"><ele>137.0</ele><time>2026-05-01T10:10:39.964Z</time></trkpt><trkpt lat="44.4055673" lon="11.5060386"><ele>137.00000000000003</ele><time>2026-05-01T10:10:45.963Z</time></trkpt><trkpt lat="44.4055035" lon="11.5060284"><ele>137.0</ele><time>2026-05-01T10:10:50.967Z</time></trkpt><trkpt lat="44.4054344" lon="11.5060199"><ele>139.57142857142858</ele><time>2026-05-01T10:10:55.961Z</time></trkpt><trkpt lat="44.4053567" lon="11.5060023"><ele>142.14285714285714</ele><time>2026-05-01T10:11:01.958Z</time></trkpt><trkpt lat="44.4052863" lon="11.5059933"><ele>144.71428571428572</ele><time>2026-05-01T10:11:07.96Z</time></trkpt><trkpt lat="44.4052167" lon="11.5059952"><ele>147.28571428571428</ele><time>2026-05-01T10:11:13.96Z</time></trkpt><trkpt lat="44.4051457" lon="11.5059931"><ele>149.85714285714286</ele><time>2026-05-01T10:11:19.966Z</time></trkpt><trkpt lat="44.405075" lon="11.5059865"><ele>152.42857142857144</ele><time>2026-05-01T10:11:26.968Z</time></trkpt><trkpt lat="44.4050083" lon="11.5059922"><ele>155.0</ele><time>2026-05-01T10:11:32.964Z</time></trkpt><trkpt lat="44.4049394" lon="11.5059821"><ele>155.0</ele><time>2026-05-01T10:11:37.961Z</time></trkpt><trkpt lat="44.4048809" lon="11.5059462"><ele>155.0</ele><time>2026-05-01T10:11:42.96Z</time></trkpt><trkpt lat="44.4048078" lon="11.5059402"><ele>155.0</ele><time>2026-05-01T10:11:50.972Z</time></trkpt><trkpt lat="44.4047415" lon="11.5059402"><ele>155.0</ele><time>2026-05-01T10:11:57.961Z</time></trkpt><trkpt lat="44.4046668" lon="11.505963"><ele>155.0</ele><time>2026-05-01T10:12:04.96Z</time></trkpt><trkpt lat="44.4046003" lon="11.5059997"><ele>155.0</ele><time>2026-05-01T10:12:09.966Z</time></trkpt><trkpt lat="44.4045421" lon="11.5060456"><ele>155.0</ele><time>2026-05-01T10:12:14.964Z</time></trkpt><trkpt lat="44.4044783" lon="11.506061"><ele>156.0</ele><time>2026-05-01T10:12:19.965Z</time></trkpt><trkpt lat="44.4044063" lon="11.5060811"><ele>157.0</ele><time>2026-05-01T10:12:24.968Z</time></trkpt><trkpt lat="44.4043354" lon="11.5061054"><ele>158.0</ele><time>2026-05-01T10:12:29.957Z</time></trkpt><trkpt lat="44.404272" lon="11.5061229"><ele>159.0</ele><time>2026-05-01T10:12:34.967Z</time></trkpt><trkpt lat="44.4042023" lon="11.5061381"><ele>160.0</ele><time>2026-05-01T10:12:39.96Z</time></trkpt><trkpt lat="44.4041334" lon="11.5061475"><ele>161.0</ele><time>2026-05-01T10:12:45.962Z</time></trkpt><trkpt lat="44.404071" lon="11.5061267"><ele>162.0</ele><time>2026-05-01T10:12:50.963Z</time></trkpt><trkpt lat="44.4040115" lon="11.5060959"><ele>162.0</ele><time>2026-05-01T10:12:55.961Z</time></trkpt><trkpt lat="44.4039481" lon="11.5060619"><ele>162.0</ele><time>2026-05-01T10:13:00.964Z</time></trkpt><trkpt lat="44.4038832" lon="11.5060374"><ele>162.0</ele><time>2026-05-01T10:13:06.963Z</time></trkpt><trkpt lat="44.4038232" lon="11.5060086"><ele>162.0</ele><time>2026-05-01T10:13:11.963Z</time></trkpt><trkpt lat="44.4037559" lon="11.5059637"><ele>162.0</ele><time>2026-05-01T10:13:16.965Z</time></trkpt><trkpt lat="44.4036998" lon="11.5059212"><ele>162.0</ele><time>2026-05-01T10:13:20.969Z</time></trkpt><trkpt lat="44.4036287" lon="11.5059009"><ele>162.0</ele><time>2026-05-01T10:13:25.96Z</time></trkpt><trkpt lat="44.403566" lon="11.5058807"><ele>163.0</ele><time>2026-05-01T10:13:29.97Z</time></trkpt><trkpt lat="44.4035045" lon="11.5058384"><ele>164.0</ele><time>2026-05-01T10:13:33.971Z</time></trkpt><trkpt lat="44.403441" lon="11.5058033"><ele>165.0</ele><time>2026-05-01T10:13:37.961Z</time></trkpt><trkpt lat="44.4033737" lon="11.5057641"><ele>166.0</ele><time>2026-05-01T10:13:42.96Z</time></trkpt><trkpt lat="44.4033048" lon="11.5057295"><ele>167.0</ele><time>2026-05-01T10:13:46.966Z</time></trkpt><trkpt lat="44.4032363" lon="11.5056956"><ele>168.0</ele><time>2026-05-01T10:13:50.972Z</time></trkpt><trkpt lat="44.4031621" lon="11.5056903"><ele>169.0</ele><time>2026-05-01T10:13:55.039Z</time></trkpt><trkpt lat="44.4030949" lon="11.5057019"><ele>169.0</ele><time>2026-05-01T10:13:58.968Z</time></trkpt><trkpt lat="44.4030251" lon="11.5057097"><ele>169.0</ele><time>2026-05-01T10:14:02.983Z</time></trkpt><trkpt lat="44.4029525" lon="11.5057306"><ele>169.0</ele><time>2026-05-01T10:14:06.97Z</time></trkpt><trkpt lat="44.402893" lon="11.5057599"><ele>169.0</ele><time>2026-05-01T10:14:10.978Z</time></trkpt><trkpt lat="44.4028243" lon="11.5057819"><ele>169.0</ele><time>2026-05-01T10:14:15.982Z</time></trkpt><trkpt lat="44.4027543" lon="11.5058034"><ele>169.0</ele><time>2026-05-01T10:14:21.957Z</time></trkpt><trkpt lat="44.402693" lon="11.5058343"><ele>169.0</ele><time>2026-05-01T10:14:26.975Z</time></trkpt><trkpt lat="44.4026322" lon="11.5058623"><ele>169.42857142857144</ele><time>2026-05-01T10:14:31.967Z</time></trkpt><trkpt lat="44.4025674" lon="11.505871"><ele>169.85714285714286</ele><time>2026-05-01T10:14:37.957Z</time></trkpt><trkpt lat="44.4025053" lon="11.5059057"><ele>170.28571428571428</ele><time>2026-05-01T10:14:44.966Z</time></trkpt><trkpt lat="44.4024379" lon="11.5059227"><ele>170.71428571428572</ele><time>2026-05-01T10:14:49.967Z</time></trkpt><trkpt lat="44.4023606" lon="11.5059609"><ele>171.14285714285714</ele><time>2026-05-01T10:14:55.966Z</time></trkpt><trkpt lat="44.4022929" lon="11.5060045"><ele>171.57142857142858</ele><time>2026-05-01T10:15:00.965Z</time></trkpt><trkpt lat="44.4022268" lon="11.5060394"><ele>172.0</ele><time>2026-05-01T10:15:05.964Z</time></trkpt><trkpt lat="44.4021619" lon="11.5060768"><ele>172.00000000000003</ele><time>2026-05-01T10:15:10.96Z</time></trkpt><trkpt lat="44.4021007" lon="11.5061195"><ele>172.0</ele><time>2026-05-01T10:15:15.963Z</time></trkpt><trkpt lat="44.4020464" lon="11.5061694"><ele>172.0</ele><time>2026-05-01T10:15:21.965Z</time></trkpt><trkpt lat="44.4019846" lon="11.5061976"><ele>172.0</ele><time>2026-05-01T10:15:27.959Z</time></trkpt><trkpt lat="44.4019216" lon="11.5062298"><ele>172.0</ele><time>2026-05-01T10:15:33.959Z</time></trkpt><trkpt lat="44.4018671" lon="11.5062836"><ele>172.00000000000003</ele><time>2026-05-01T10:15:38.962Z</time></trkpt><trkpt lat="44.4018095" lon="11.5063424"><ele>172.0</ele><time>2026-05-01T10:15:44.968Z</time></trkpt><trkpt lat="44.4017552" lon="11.5063993"><ele>175.14285714285717</ele><time>2026-05-01T10:15:50.973Z</time></trkpt><trkpt lat="44.4017011" lon="11.5064571"><ele>178.28571428571428</ele><time>2026-05-01T10:15:55.97Z</time></trkpt><trkpt lat="44.4016483" lon="11.5065307"><ele>181.42857142857144</ele><time>2026-05-01T10:16:01.971Z</time></trkpt><trkpt lat="44.4016001" lon="11.5065982"><ele>184.57142857142858</ele><time>2026-05-01T10:16:06.977Z</time></trkpt><trkpt lat="44.4015564" lon="11.5066697"><ele>187.71428571428572</ele><time>2026-05-01T10:16:12.971Z</time></trkpt><trkpt lat="44.4015103" lon="11.5067415"><ele>190.85714285714286</ele><time>2026-05-01T10:16:17.976Z</time></trkpt><trkpt lat="44.4014612" lon="11.5068182"><ele>194.0</ele><time>2026-05-01T10:16:22.972Z</time></trkpt><trkpt lat="44.4014154" lon="11.5068962"><ele>194.0</ele><time>2026-05-01T10:16:27.977Z</time></trkpt><trkpt lat="44.4013817" lon="11.506974"><ele>194.0</ele><time>2026-05-01T10:16:31.979Z</time></trkpt><trkpt lat="44.4013374" lon="11.5070613"><ele>194.0</ele><time>2026-05-01T10:16:36.986Z</time></trkpt><trkpt lat="44.4012895" lon="11.5071326"><ele>194.0</ele><time>2026-05-01T10:16:40.977Z</time></trkpt><trkpt lat="44.4012459" lon="11.5072124"><ele>194.0</ele><time>2026-05-01T10:16:44.968Z</time></trkpt><trkpt lat="44.4012039" lon="11.5073"><ele>194.0</ele><time>2026-05-01T10:16:48.969Z</time></trkpt><trkpt lat="44.401159" lon="11.5073798"><ele>194.0</ele><time>2026-05-01T10:16:52.968Z</time></trkpt><trkpt lat="44.4011193" lon="11.5074599"><ele>193.57142857142856</ele><time>2026-05-01T10:16:57.034Z</time></trkpt><trkpt lat="44.4010674" lon="11.5075497"><ele>193.14285714285717</ele><time>2026-05-01T10:17:01.97Z</time></trkpt><trkpt lat="44.4010245" lon="11.5076223"><ele>192.71428571428572</ele><time>2026-05-01T10:17:05.964Z</time></trkpt><trkpt lat="44.4009742" lon="11.5077024"><ele>192.28571428571428</ele><time>2026-05-01T10:17:09.965Z</time></trkpt><trkpt lat="44.4009367" lon="11.5077784"><ele>191.85714285714283</ele><time>2026-05-01T10:17:12.984Z</time></trkpt><trkpt lat="44.4009003" lon="11.5078512"><ele>191.42857142857144</ele><time>2026-05-01T10:17:15.966Z</time></trkpt><trkpt lat="44.4008601" lon="11.5079238"><ele>191.0</ele><time>2026-05-01T10:17:18.97Z</time></trkpt><trkpt lat="44.4008098" lon="11.5080084"><ele>191.0</ele><time>2026-05-01T10:17:23.026Z</time></trkpt><trkpt lat="44.4007689" lon="11.5080827"><ele>191.0</ele><time>2026-05-01T10:17:25.962Z</time></trkpt><trkpt lat="44.4007185" lon="11.5081706"><ele>191.0</ele><time>2026-05-01T10:17:29.967Z</time></trkpt><trkpt lat="44.4006788" lon="11.5082607"><ele>191.0</ele><time>2026-05-01T10:17:33.957Z</time></trkpt><trkpt lat="44.4006353" lon="11.508337"><ele>191.0</ele><time>2026-05-01T10:17:37.957Z</time></trkpt><trkpt lat="44.4005775" lon="11.5084216"><ele>191.0</ele><time>2026-05-01T10:17:41.961Z</time></trkpt><trkpt lat="44.4005239" lon="11.5084798"><ele>191.0</ele><time>2026-05-01T10:17:44.979Z</time></trkpt><trkpt lat="44.400477" lon="11.5085538"><ele>191.0</ele><time>2026-05-01T10:17:47.96Z</time></trkpt><trkpt lat="44.4004" lon="11.5085769"><ele>191.0</ele><time>2026-05-01T10:17:50.955Z</time></trkpt><trkpt lat="44.4003101" lon="11.5086031"><ele>191.0</ele><time>2026-05-01T10:17:53.967Z</time></trkpt><trkpt lat="44.4002309" lon="11.5086347"><ele>191.0</ele><time>2026-05-01T10:17:56.962Z</time></trkpt><trkpt lat="44.400163" lon="11.5086768"><ele>191.0</ele><time>2026-05-01T10:17:59.954Z</time></trkpt><trkpt lat="44.4000966" lon="11.5087104"><ele>191.0</ele><time>2026-05-01T10:18:02.965Z</time></trkpt><trkpt lat="44.400031" lon="11.5087357"><ele>191.42857142857144</ele><time>2026-05-01T10:18:05.963Z</time></trkpt><trkpt lat="44.3999559" lon="11.5087589"><ele>191.85714285714283</ele><time>2026-05-01T10:18:08.955Z</time></trkpt><trkpt lat="44.3998949" lon="11.5088012"><ele>192.28571428571428</ele><time>2026-05-01T10:18:11.967Z</time></trkpt><trkpt lat="44.399834" lon="11.5088331"><ele>192.71428571428572</ele><time>2026-05-01T10:18:14.97Z</time></trkpt><trkpt lat="44.3997558" lon="11.5088591"><ele>193.14285714285717</ele><time>2026-05-01T10:18:17.976Z</time></trkpt><trkpt lat="44.3996909" lon="11.5089031"><ele>193.57142857142856</ele><time>2026-05-01T10:18:20.968Z</time></trkpt><trkpt lat="44.3996156" lon="11.5089401"><ele>194.0</ele><time>2026-05-01T10:18:23.962Z</time></trkpt><trkpt lat="44.3995425" lon="11.5089699"><ele>194.00000000000003</ele><time>2026-05-01T10:18:26.965Z</time></trkpt><trkpt lat="44.3994811" lon="11.5090007"><ele>194.0</ele><time>2026-05-01T10:18:29.953Z</time></trkpt><trkpt lat="44.3994123" lon="11.5090348"><ele>194.0</ele><time>2026-05-01T10:18:32.956Z</time></trkpt><trkpt lat="44.3993409" lon="11.5090697"><ele>194.0</ele><time>2026-05-01T10:18:35.961Z</time></trkpt><trkpt lat="44.399263" lon="11.5091021"><ele>194.00000000000003</ele><time>2026-05-01T10:18:38.964Z</time></trkpt><trkpt lat="44.3991927" lon="11.5091446"><ele>194.0</ele><time>2026-05-01T10:18:41.957Z</time></trkpt><trkpt lat="44.3991171" lon="11.5092014"><ele>194.00000000000003</ele><time>2026-05-01T10:18:44.963Z</time></trkpt><trkpt lat="44.399031" lon="11.5092252"><ele>194.0</ele><time>2026-05-01T10:18:47.971Z</time></trkpt><trkpt lat="44.3989634" lon="11.5092653"><ele>194.0</ele><time>2026-05-01T10:18:50.954Z</time></trkpt><trkpt lat="44.3989013" lon="11.5092903"><ele>194.0</ele><time>2026-05-01T10:18:52.96Z</time></trkpt><trkpt lat="44.3988322" lon="11.5093174"><ele>194.00000000000003</ele><time>2026-05-01T10:18:54.957Z</time></trkpt><trkpt lat="44.3987604" lon="11.5093555"><ele>194.0</ele><time>2026-05-01T10:18:56.97Z</time></trkpt><trkpt lat="44.3986792" lon="11.509386"><ele>193.85714285714286</ele><time>2026-05-01T10:18:58.955Z</time></trkpt><trkpt lat="44.3986081" lon="11.509414"><ele>193.71428571428572</ele><time>2026-05-01T10:19:00.959Z</time></trkpt><trkpt lat="44.3985402" lon="11.5094548"><ele>193.57142857142858</ele><time>2026-05-01T10:19:02.954Z</time></trkpt><trkpt lat="44.3984723" lon="11.5094983"><ele>193.42857142857144</ele><time>2026-05-01T10:19:04.956Z</time></trkpt><trkpt lat="44.3984098" lon="11.5095354"><ele>193.28571428571428</ele><time>2026-05-01T10:19:06.958Z</time></trkpt><trkpt lat="44.3983287" lon="11.5095939"><ele>193.14285714285717</ele><time>2026-05-01T10:19:09.97Z</time></trkpt><trkpt lat="44.3982713" lon="11.509638"><ele>193.0</ele><time>2026-05-01T10:19:11.965Z</time></trkpt><trkpt lat="44.3981927" lon="11.5096952"><ele>194.16666666666666</ele><time>2026-05-01T10:19:14.959Z</time></trkpt><trkpt lat="44.3981345" lon="11.5097777"><ele>195.33333333333331</ele><time>2026-05-01T10:19:17.955Z</time></trkpt><trkpt lat="44.3980839" lon="11.509858"><ele>196.5</ele><time>2026-05-01T10:19:20.973Z</time></trkpt><trkpt lat="44.3980378" lon="11.5099247"><ele>197.66666666666669</ele><time>2026-05-01T10:19:23.965Z</time></trkpt><trkpt lat="44.3979729" lon="11.5099904"><ele>198.83333333333334</ele><time>2026-05-01T10:19:27.973Z</time></trkpt><trkpt lat="44.3979204" lon="11.5100562"><ele>200.0</ele><time>2026-05-01T10:19:31.973Z</time></trkpt><trkpt lat="44.3978484" lon="11.5101178"><ele>200.00000000000003</ele><time>2026-05-01T10:19:35.968Z</time></trkpt><trkpt lat="44.3977959" lon="11.5101806"><ele>200.0</ele><time>2026-05-01T10:19:38.968Z</time></trkpt><trkpt lat="44.3977428" lon="11.5102426"><ele>200.0</ele><time>2026-05-01T10:19:41.97Z</time></trkpt><trkpt lat="44.3976809" lon="11.5103071"><ele>200.0</ele><time>2026-05-01T10:19:45.975Z</time></trkpt><trkpt lat="44.3976215" lon="11.5103826"><ele>200.0</ele><time>2026-05-01T10:19:49.967Z</time></trkpt><trkpt lat="44.3975713" lon="11.5104396"><ele>200.00000000000003</ele><time>2026-05-01T10:19:53.972Z</time></trkpt><trkpt lat="44.3975261" lon="11.5105122"><ele>200.0</ele><time>2026-05-01T10:19:58.967Z</time></trkpt><trkpt lat="44.3974646" lon="11.5105763"><ele>200.2857142857143</ele><time>2026-05-01T10:20:02.962Z</time></trkpt><trkpt lat="44.397414" lon="11.5106322"><ele>200.57142857142858</ele><time>2026-05-01T10:20:05.96Z</time></trkpt><trkpt lat="44.3973588" lon="11.5106985"><ele>200.85714285714286</ele><time>2026-05-01T10:20:09.967Z</time></trkpt><trkpt lat="44.3973091" lon="11.5107655"><ele>201.14285714285717</ele><time>2026-05-01T10:20:12.965Z</time></trkpt><trkpt lat="44.3972567" lon="11.5108343"><ele>201.42857142857142</ele><time>2026-05-01T10:20:15.969Z</time></trkpt><trkpt lat="44.397195" lon="11.510924"><ele>201.71428571428572</ele><time>2026-05-01T10:20:19.965Z</time></trkpt><trkpt lat="44.3971435" lon="11.5109834"><ele>202.0</ele><time>2026-05-01T10:20:22.971Z</time></trkpt><trkpt lat="44.3970879" lon="11.5110378"><ele>202.0</ele><time>2026-05-01T10:20:25.971Z</time></trkpt><trkpt lat="44.3970356" lon="11.5111054"><ele>202.0</ele><time>2026-05-01T10:20:28.97Z</time></trkpt><trkpt lat="44.3969842" lon="11.5111718"><ele>202.0</ele><time>2026-05-01T10:20:31.99Z</time></trkpt><trkpt lat="44.3969307" lon="11.5112342"><ele>202.0</ele><time>2026-05-01T10:20:34.977Z</time></trkpt><trkpt lat="44.3968814" lon="11.5112949"><ele>202.0</ele><time>2026-05-01T10:20:37.97Z</time></trkpt><trkpt lat="44.3968257" lon="11.511342"><ele>202.0</ele><time>2026-05-01T10:20:40.967Z</time></trkpt><trkpt lat="44.3967502" lon="11.511384"><ele>202.0</ele><time>2026-05-01T10:20:44.964Z</time></trkpt><trkpt lat="44.3966714" lon="11.5114193"><ele>203.14285714285714</ele><time>2026-05-01T10:20:48.959Z</time></trkpt><trkpt lat="44.3966085" lon="11.5114414"><ele>204.28571428571428</ele><time>2026-05-01T10:20:51.967Z</time></trkpt><trkpt lat="44.3965463" lon="11.5114627"><ele>205.42857142857144</ele><time>2026-05-01T10:20:54.966Z</time></trkpt><trkpt lat="44.3964782" lon="11.5114738"><ele>206.57142857142856</ele><time>2026-05-01T10:20:57.962Z</time></trkpt><trkpt lat="44.3964094" lon="11.5114891"><ele>207.71428571428572</ele><time>2026-05-01T10:21:00.965Z</time></trkpt><trkpt lat="44.3963372" lon="11.5114938"><ele>208.85714285714286</ele><time>2026-05-01T10:21:03.961Z</time></trkpt><trkpt lat="44.3962734" lon="11.5115113"><ele>210.0</ele><time>2026-05-01T10:21:06.963Z</time></trkpt><trkpt lat="44.3961992" lon="11.5115316"><ele>210.57142857142858</ele><time>2026-05-01T10:21:09.978Z</time></trkpt><trkpt lat="44.3961285" lon="11.5115378"><ele>211.14285714285714</ele><time>2026-05-01T10:21:12.97Z</time></trkpt><trkpt lat="44.3960586" lon="11.5115518"><ele>211.71428571428572</ele><time>2026-05-01T10:21:15.966Z</time></trkpt><trkpt lat="44.3959911" lon="11.5115638"><ele>212.28571428571428</ele><time>2026-05-01T10:21:18.971Z</time></trkpt><trkpt lat="44.3959188" lon="11.5115779"><ele>212.85714285714286</ele><time>2026-05-01T10:21:21.955Z</time></trkpt><trkpt lat="44.3958471" lon="11.5115905"><ele>213.42857142857144</ele><time>2026-05-01T10:21:24.972Z</time></trkpt><trkpt lat="44.3957778" lon="11.5116074"><ele>214.0</ele><time>2026-05-01T10:21:27.968Z</time></trkpt><trkpt lat="44.3957103" lon="11.5116375"><ele>213.99999999999997</ele><time>2026-05-01T10:21:30.959Z</time></trkpt><trkpt lat="44.3956356" lon="11.5116652"><ele>214.0</ele><time>2026-05-01T10:21:33.974Z</time></trkpt><trkpt lat="44.3955634" lon="11.511699"><ele>214.0</ele><time>2026-05-01T10:21:36.962Z</time></trkpt><trkpt lat="44.3954849" lon="11.5117346"><ele>214.0</ele><time>2026-05-01T10:21:39.972Z</time></trkpt><trkpt lat="44.3954039" lon="11.5117687"><ele>213.99999999999997</ele><time>2026-05-01T10:21:42.973Z</time></trkpt><trkpt lat="44.3953425" lon="11.5117989"><ele>214.0</ele><time>2026-05-01T10:21:44.978Z</time></trkpt><trkpt lat="44.3952715" lon="11.5118206"><ele>213.66666666666666</ele><time>2026-05-01T10:21:46.969Z</time></trkpt><trkpt lat="44.3951919" lon="11.5118424"><ele>213.33333333333331</ele><time>2026-05-01T10:21:48.97Z</time></trkpt><trkpt lat="44.3951135" lon="11.5118672"><ele>213.0</ele><time>2026-05-01T10:21:50.971Z</time></trkpt><trkpt lat="44.39502" lon="11.5118838"><ele>212.66666666666669</ele><time>2026-05-01T10:21:52.963Z</time></trkpt><trkpt lat="44.3949289" lon="11.5118916"><ele>212.33333333333334</ele><time>2026-05-01T10:21:54.972Z</time></trkpt><trkpt lat="44.3948327" lon="11.5118976"><ele>212.0</ele><time>2026-05-01T10:21:56.966Z</time></trkpt><trkpt lat="44.3947391" lon="11.5118835"><ele>211.83333333333334</ele><time>2026-05-01T10:21:58.963Z</time></trkpt><trkpt lat="44.3946498" lon="11.5118764"><ele>211.66666666666669</ele><time>2026-05-01T10:22:00.962Z</time></trkpt><trkpt lat="44.3945663" lon="11.5118781"><ele>211.5</ele><time>2026-05-01T10:22:02.963Z</time></trkpt><trkpt lat="44.3944744" lon="11.511871"><ele>211.33333333333331</ele><time>2026-05-01T10:22:04.974Z</time></trkpt><trkpt lat="44.3943844" lon="11.5118695"><ele>211.16666666666666</ele><time>2026-05-01T10:22:06.96Z</time></trkpt><trkpt lat="44.3942914" lon="11.5118474"><ele>211.0</ele><time>2026-05-01T10:22:08.96Z</time></trkpt><trkpt lat="44.3941988" lon="11.5118323"><ele>211.0</ele><time>2026-05-01T10:22:10.954Z</time></trkpt><trkpt lat="44.3941085" lon="11.5118138"><ele>211.0</ele><time>2026-05-01T10:22:12.969Z</time></trkpt><trkpt lat="44.3940047" lon="11.5117795"><ele>211.0</ele><time>2026-05-01T10:22:14.964Z</time></trkpt><trkpt lat="44.3938909" lon="11.5117419"><ele>211.0</ele><time>2026-05-01T10:22:16.969Z</time></trkpt><trkpt lat="44.393771" lon="11.5117233"><ele>211.0</ele><time>2026-05-01T10:22:18.97Z</time></trkpt><trkpt lat="44.3937079" lon="11.5117154"><ele>210.8</ele><time>2026-05-01T10:22:19.965Z</time></trkpt><trkpt lat="44.3936414" lon="11.5117119"><ele>210.60000000000002</ele><time>2026-05-01T10:22:20.973Z</time></trkpt><trkpt lat="44.3935195" lon="11.5116805"><ele>210.4</ele><time>2026-05-01T10:22:22.959Z</time></trkpt><trkpt lat="44.393456" lon="11.5116661"><ele>210.2</ele><time>2026-05-01T10:22:23.956Z</time></trkpt><trkpt lat="44.39334" lon="11.5116355"><ele>210.0</ele><time>2026-05-01T10:22:25.97Z</time></trkpt><trkpt lat="44.3932259" lon="11.5116091"><ele>210.0</ele><time>2026-05-01T10:22:27.955Z</time></trkpt><trkpt lat="44.3931295" lon="11.5115821"><ele>210.0</ele><time>2026-05-01T10:22:29.957Z</time></trkpt><trkpt lat="44.3930326" lon="11.5115574"><ele>210.0</ele><time>2026-05-01T10:22:31.956Z</time></trkpt><trkpt lat="44.392932" lon="11.5115275"><ele>210.0</ele><time>2026-05-01T10:22:33.96Z</time></trkpt><trkpt lat="44.3928336" lon="11.5114918"><ele>210.0</ele><time>2026-05-01T10:22:35.979Z</time></trkpt><trkpt lat="44.3927365" lon="11.5114663"><ele>210.83333333333334</ele><time>2026-05-01T10:22:38.021Z</time></trkpt><trkpt lat="44.3926436" lon="11.5114513"><ele>211.66666666666669</ele><time>2026-05-01T10:22:39.953Z</time></trkpt><trkpt lat="44.3925572" lon="11.5114508"><ele>212.5</ele><time>2026-05-01T10:22:41.951Z</time></trkpt><trkpt lat="44.3924828" lon="11.5114487"><ele>213.33333333333334</ele><time>2026-05-01T10:22:43.95Z</time></trkpt><trkpt lat="44.3924033" lon="11.5114394"><ele>214.16666666666669</ele><time>2026-05-01T10:22:45.955Z</time></trkpt><trkpt lat="44.3923389" lon="11.5114276"><ele>215.0</ele><time>2026-05-01T10:22:47.946Z</time></trkpt><trkpt lat="44.392265" lon="11.5114098"><ele>215.0</ele><time>2026-05-01T10:22:50.977Z</time></trkpt><trkpt lat="44.3921903" lon="11.5113929"><ele>215.0</ele><time>2026-05-01T10:22:53.966Z</time></trkpt><trkpt lat="44.3921184" lon="11.5113934"><ele>215.0</ele><time>2026-05-01T10:22:56.97Z</time></trkpt><trkpt lat="44.3920457" lon="11.511377"><ele>215.0</ele><time>2026-05-01T10:22:59.972Z</time></trkpt><trkpt lat="44.391979" lon="11.511343"><ele>215.0</ele><time>2026-05-01T10:23:03.005Z</time></trkpt><trkpt lat="44.3919129" lon="11.5113396"><ele>215.0</ele><time>2026-05-01T10:23:05.957Z</time></trkpt><trkpt lat="44.3918433" lon="11.5113414"><ele>215.0</ele><time>2026-05-01T10:23:08.968Z</time></trkpt><trkpt lat="44.3917659" lon="11.5113156"><ele>216.00000000000003</ele><time>2026-05-01T10:23:12.967Z</time></trkpt><trkpt lat="44.3916839" lon="11.5113098"><ele>217.0</ele><time>2026-05-01T10:23:16.968Z</time></trkpt><trkpt lat="44.3916036" lon="11.5112952"><ele>218.0</ele><time>2026-05-01T10:23:20.969Z</time></trkpt><trkpt lat="44.3915335" lon="11.511291"><ele>219.0</ele><time>2026-05-01T10:23:24.967Z</time></trkpt><trkpt lat="44.3914638" lon="11.5112861"><ele>220.00000000000003</ele><time>2026-05-01T10:23:28.97Z</time></trkpt><trkpt lat="44.3913945" lon="11.5113123"><ele>221.0</ele><time>2026-05-01T10:23:32.975Z</time></trkpt><trkpt lat="44.3913179" lon="11.5113433"><ele>221.33333333333334</ele><time>2026-05-01T10:23:36.969Z</time></trkpt><trkpt lat="44.3912455" lon="11.5113859"><ele>221.66666666666669</ele><time>2026-05-01T10:23:40.971Z</time></trkpt><trkpt lat="44.3911765" lon="11.5114284"><ele>222.0</ele><time>2026-05-01T10:23:44.977Z</time></trkpt><trkpt lat="44.3911085" lon="11.5114795"><ele>222.33333333333331</ele><time>2026-05-01T10:23:47.967Z</time></trkpt><trkpt lat="44.3910244" lon="11.5115222"><ele>222.66666666666666</ele><time>2026-05-01T10:23:50.978Z</time></trkpt><trkpt lat="44.3909436" lon="11.5115896"><ele>223.0</ele><time>2026-05-01T10:23:53.966Z</time></trkpt><trkpt lat="44.3908777" lon="11.5116378"><ele>222.99999999999997</ele><time>2026-05-01T10:23:55.976Z</time></trkpt><trkpt lat="44.3908129" lon="11.5116833"><ele>223.0</ele><time>2026-05-01T10:23:57.972Z</time></trkpt><trkpt lat="44.3907462" lon="11.5117225"><ele>223.0</ele><time>2026-05-01T10:23:59.97Z</time></trkpt><trkpt lat="44.3906734" lon="11.5117582"><ele>223.0</ele><time>2026-05-01T10:24:01.975Z</time></trkpt><trkpt lat="44.3905911" lon="11.5117822"><ele>222.99999999999997</ele><time>2026-05-01T10:24:03.975Z</time></trkpt><trkpt lat="44.3905107" lon="11.511793"><ele>223.0</ele><time>2026-05-01T10:24:05.973Z</time></trkpt><trkpt lat="44.3904348" lon="11.5117995"><ele>222.66666666666666</ele><time>2026-05-01T10:24:07.978Z</time></trkpt><trkpt lat="44.3903617" lon="11.5118149"><ele>222.33333333333331</ele><time>2026-05-01T10:24:09.963Z</time></trkpt><trkpt lat="44.3902816" lon="11.5118439"><ele>222.0</ele><time>2026-05-01T10:24:11.978Z</time></trkpt><trkpt lat="44.3901997" lon="11.511864"><ele>221.66666666666669</ele><time>2026-05-01T10:24:13.954Z</time></trkpt><trkpt lat="44.3901251" lon="11.5119024"><ele>221.33333333333334</ele><time>2026-05-01T10:24:15.964Z</time></trkpt><trkpt lat="44.390049" lon="11.5119205"><ele>221.0</ele><time>2026-05-01T10:24:17.956Z</time></trkpt><trkpt lat="44.3899748" lon="11.5119422"><ele>221.00000000000003</ele><time>2026-05-01T10:24:19.959Z</time></trkpt><trkpt lat="44.3899096" lon="11.5119538"><ele>221.0</ele><time>2026-05-01T10:24:21.978Z</time></trkpt><trkpt lat="44.3898324" lon="11.5119705"><ele>221.0</ele><time>2026-05-01T10:24:23.962Z</time></trkpt><trkpt lat="44.3897426" lon="11.5119771"><ele>221.0</ele><time>2026-05-01T10:24:26.962Z</time></trkpt><trkpt lat="44.3896763" lon="11.5119892"><ele>221.00000000000003</ele><time>2026-05-01T10:24:28.965Z</time></trkpt><trkpt lat="44.389586" lon="11.5120042"><ele>221.0</ele><time>2026-05-01T10:24:31.96Z</time></trkpt><trkpt lat="44.3895258" lon="11.5120386"><ele>222.14285714285717</ele><time>2026-05-01T10:24:33.974Z</time></trkpt><trkpt lat="44.3894663" lon="11.5120733"><ele>223.28571428571428</ele><time>2026-05-01T10:24:35.957Z</time></trkpt><trkpt lat="44.3893891" lon="11.5121066"><ele>224.42857142857144</ele><time>2026-05-01T10:24:38.964Z</time></trkpt><trkpt lat="44.3893305" lon="11.5121432"><ele>225.57142857142858</ele><time>2026-05-01T10:24:41.958Z</time></trkpt><trkpt lat="44.3892594" lon="11.5121972"><ele>226.71428571428572</ele><time>2026-05-01T10:24:45.962Z</time></trkpt><trkpt lat="44.3891873" lon="11.5122521"><ele>227.85714285714286</ele><time>2026-05-01T10:24:49.962Z</time></trkpt><trkpt lat="44.389129" lon="11.5123188"><ele>229.0</ele><time>2026-05-01T10:24:52.96Z</time></trkpt><trkpt lat="44.3890681" lon="11.5123735"><ele>228.99999999999997</ele><time>2026-05-01T10:24:55.968Z</time></trkpt><trkpt lat="44.3889986" lon="11.5124242"><ele>229.0</ele><time>2026-05-01T10:24:58.958Z</time></trkpt><trkpt lat="44.3889298" lon="11.5124894"><ele>229.0</ele><time>2026-05-01T10:25:01.963Z</time></trkpt><trkpt lat="44.3888619" lon="11.5125524"><ele>229.0</ele><time>2026-05-01T10:25:04.98Z</time></trkpt><trkpt lat="44.3887968" lon="11.5126183"><ele>228.99999999999997</ele><time>2026-05-01T10:25:07.972Z</time></trkpt><trkpt lat="44.3887353" lon="11.5126909"><ele>229.0</ele><time>2026-05-01T10:25:10.97Z</time></trkpt><trkpt lat="44.3886827" lon="11.5127848"><ele>228.99999999999997</ele><time>2026-05-01T10:25:13.965Z</time></trkpt><trkpt lat="44.3886241" lon="11.5128594"><ele>229.0</ele><time>2026-05-01T10:25:16.971Z</time></trkpt><trkpt lat="44.3885775" lon="11.5129513"><ele>229.0</ele><time>2026-05-01T10:25:20.956Z</time></trkpt><trkpt lat="44.3885319" lon="11.5130421"><ele>229.0</ele><time>2026-05-01T10:25:24.987Z</time></trkpt><trkpt lat="44.3884837" lon="11.5131242"><ele>228.99999999999997</ele><time>2026-05-01T10:25:29.973Z</time></trkpt><trkpt lat="44.3884471" lon="11.5132006"><ele>229.0</ele><time>2026-05-01T10:25:32.969Z</time></trkpt><trkpt lat="44.3884029" lon="11.5132787"><ele>229.0</ele><time>2026-05-01T10:25:35.955Z</time></trkpt><trkpt lat="44.3884618" lon="11.5132363"><ele>229.0</ele><time>2026-05-01T10:25:41.963Z</time></trkpt><trkpt lat="44.3885023" lon="11.513146"><ele>229.0</ele><time>2026-05-01T10:25:45.964Z</time></trkpt><trkpt lat="44.3885462" lon="11.5130751"><ele>229.0</ele><time>2026-05-01T10:25:48.967Z</time></trkpt><trkpt lat="44.3885822" lon="11.512979"><ele>229.0</ele><time>2026-05-01T10:25:52.955Z</time></trkpt><trkpt lat="44.3886259" lon="11.5128962"><ele>229.0</ele><time>2026-05-01T10:25:57.996Z</time></trkpt><trkpt lat="44.3886623" lon="11.5128081"><ele>229.0</ele><time>2026-05-01T10:26:03.963Z</time></trkpt><trkpt lat="44.3887138" lon="11.5127316"><ele>229.0</ele><time>2026-05-01T10:26:08.963Z</time></trkpt><trkpt lat="44.3887813" lon="11.5126756"><ele>229.0</ele><time>2026-05-01T10:26:14.961Z</time></trkpt><trkpt lat="44.3887226" lon="11.5127101"><ele>229.0</ele><time>2026-05-01T10:26:21.953Z</time></trkpt><trkpt lat="44.3886726" lon="11.5127731"><ele>229.0</ele><time>2026-05-01T10:26:25.954Z</time></trkpt><trkpt lat="44.3886258" lon="11.5128456"><ele>229.0</ele><time>2026-05-01T10:26:30.961Z</time></trkpt><trkpt lat="44.3885805" lon="11.51293"><ele>229.0</ele><time>2026-05-01T10:26:35.954Z</time></trkpt><trkpt lat="44.3885294" lon="11.5129851"><ele>229.0</ele><time>2026-05-01T10:27:28.953Z</time></trkpt><trkpt lat="44.3884969" lon="11.5130792"><ele>228.99999999999997</ele><time>2026-05-01T10:27:33.981Z</time></trkpt><trkpt lat="44.3884724" lon="11.5131792"><ele>229.0</ele><time>2026-05-01T10:27:36.965Z</time></trkpt><trkpt lat="44.3884129" lon="11.5132777"><ele>229.0</ele><time>2026-05-01T10:27:39.956Z</time></trkpt><trkpt lat="44.3883817" lon="11.5133588"><ele>229.0</ele><time>2026-05-01T10:27:41.963Z</time></trkpt><trkpt lat="44.3883307" lon="11.513455"><ele>228.99999999999997</ele><time>2026-05-01T10:27:43.959Z</time></trkpt><trkpt lat="44.3882789" lon="11.513558"><ele>229.0</ele><time>2026-05-01T10:27:45.967Z</time></trkpt><trkpt lat="44.38823" lon="11.513671"><ele>228.79999999999998</ele><time>2026-05-01T10:27:47.974Z</time></trkpt><trkpt lat="44.3881795" lon="11.513784"><ele>228.59999999999997</ele><time>2026-05-01T10:27:49.968Z</time></trkpt><trkpt lat="44.3881231" lon="11.513906"><ele>228.4</ele><time>2026-05-01T10:27:51.959Z</time></trkpt><trkpt lat="44.3880609" lon="11.51402"><ele>228.2</ele><time>2026-05-01T10:27:53.978Z</time></trkpt><trkpt lat="44.3880093" lon="11.5141418"><ele>228.0</ele><time>2026-05-01T10:27:55.98Z</time></trkpt><trkpt lat="44.3879535" lon="11.5142584"><ele>228.2</ele><time>2026-05-01T10:27:57.965Z</time></trkpt><trkpt lat="44.3878932" lon="11.5143822"><ele>228.4</ele><time>2026-05-01T10:27:59.978Z</time></trkpt><trkpt lat="44.3878324" lon="11.5144948"><ele>228.59999999999997</ele><time>2026-05-01T10:28:01.954Z</time></trkpt><trkpt lat="44.3877797" lon="11.5146128"><ele>228.79999999999998</ele><time>2026-05-01T10:28:03.959Z</time></trkpt><trkpt lat="44.3877223" lon="11.5147345"><ele>229.0</ele><time>2026-05-01T10:28:05.965Z</time></trkpt><trkpt lat="44.3876664" lon="11.51486"><ele>229.0</ele><time>2026-05-01T10:28:07.961Z</time></trkpt><trkpt lat="44.3876139" lon="11.5149899"><ele>228.99999999999997</ele><time>2026-05-01T10:28:09.96Z</time></trkpt><trkpt lat="44.3875505" lon="11.5151104"><ele>228.99999999999997</ele><time>2026-05-01T10:28:11.956Z</time></trkpt><trkpt lat="44.3874863" lon="11.5152435"><ele>229.0</ele><time>2026-05-01T10:28:13.971Z</time></trkpt><trkpt lat="44.3874259" lon="11.5153822"><ele>229.0</ele><time>2026-05-01T10:28:15.96Z</time></trkpt><trkpt lat="44.3873653" lon="11.5155123"><ele>227.75</ele><time>2026-05-01T10:28:17.955Z</time></trkpt><trkpt lat="44.3873048" lon="11.5156517"><ele>226.5</ele><time>2026-05-01T10:28:19.971Z</time></trkpt><trkpt lat="44.387236" lon="11.5157867"><ele>225.25</ele><time>2026-05-01T10:28:21.96Z</time></trkpt><trkpt lat="44.3871668" lon="11.5159293"><ele>224.0</ele><time>2026-05-01T10:28:23.968Z</time></trkpt><trkpt lat="44.3871058" lon="11.5160771"><ele>224.0</ele><time>2026-05-01T10:28:25.958Z</time></trkpt><trkpt lat="44.387047" lon="11.5162265"><ele>224.0</ele><time>2026-05-01T10:28:27.99Z</time></trkpt><trkpt lat="44.3869838" lon="11.5163716"><ele>224.0</ele><time>2026-05-01T10:28:29.959Z</time></trkpt><trkpt lat="44.3869386" lon="11.5165154"><ele>224.0</ele><time>2026-05-01T10:28:31.984Z</time></trkpt><trkpt lat="44.3869291" lon="11.5166752"><ele>221.75</ele><time>2026-05-01T10:28:33.972Z</time></trkpt><trkpt lat="44.3869693" lon="11.5168225"><ele>219.5</ele><time>2026-05-01T10:28:35.973Z</time></trkpt><trkpt lat="44.3870168" lon="11.5169764"><ele>217.25</ele><time>2026-05-01T10:28:37.978Z</time></trkpt><trkpt lat="44.3870857" lon="11.5171127"><ele>215.0</ele><time>2026-05-01T10:28:39.985Z</time></trkpt><trkpt lat="44.3871591" lon="11.5172421"><ele>217.2</ele><time>2026-05-01T10:28:41.974Z</time></trkpt><trkpt lat="44.3872211" lon="11.5173694"><ele>219.4</ele><time>2026-05-01T10:28:43.979Z</time></trkpt><trkpt lat="44.38728" lon="11.5174813"><ele>221.60000000000002</ele><time>2026-05-01T10:28:45.985Z</time></trkpt><trkpt lat="44.3873328" lon="11.5175863"><ele>223.8</ele><time>2026-05-01T10:28:47.971Z</time></trkpt><trkpt lat="44.3873864" lon="11.5176866"><ele>226.0</ele><time>2026-05-01T10:28:49.974Z</time></trkpt><trkpt lat="44.3874393" lon="11.51777"><ele>225.99999999999997</ele><time>2026-05-01T10:28:51.964Z</time></trkpt><trkpt lat="44.3874872" lon="11.5178556"><ele>226.0</ele><time>2026-05-01T10:28:53.974Z</time></trkpt><trkpt lat="44.3875262" lon="11.5179378"><ele>226.0</ele><time>2026-05-01T10:28:55.973Z</time></trkpt><trkpt lat="44.3875802" lon="11.518044"><ele>226.0</ele><time>2026-05-01T10:28:58.962Z</time></trkpt><trkpt lat="44.3876314" lon="11.518144"><ele>225.99999999999997</ele><time>2026-05-01T10:29:01.972Z</time></trkpt><trkpt lat="44.3876808" lon="11.5182388"><ele>226.0</ele><time>2026-05-01T10:29:04.983Z</time></trkpt><trkpt lat="44.3877216" lon="11.518342"><ele>225.99999999999997</ele><time>2026-05-01T10:29:07.979Z</time></trkpt><trkpt lat="44.3877538" lon="11.5184463"><ele>226.0</ele><time>2026-05-01T10:29:10.975Z</time></trkpt><trkpt lat="44.3877894" lon="11.5185422"><ele>226.0</ele><time>2026-05-01T10:29:13.967Z</time></trkpt><trkpt lat="44.3878256" lon="11.5186297"><ele>226.0</ele><time>2026-05-01T10:29:16.966Z</time></trkpt><trkpt lat="44.3878579" lon="11.5187252"><ele>225.99999999999997</ele><time>2026-05-01T10:29:19.981Z</time></trkpt><trkpt lat="44.3878871" lon="11.5188309"><ele>226.0</ele><time>2026-05-01T10:29:22.981Z</time></trkpt><trkpt lat="44.3879113" lon="11.5189173"><ele>225.99999999999997</ele><time>2026-05-01T10:29:24.97Z</time></trkpt><trkpt lat="44.3879387" lon="11.5190282"><ele>226.0</ele><time>2026-05-01T10:29:26.966Z</time></trkpt><trkpt lat="44.3879678" lon="11.5191465"><ele>226.0</ele><time>2026-05-01T10:29:28.977Z</time></trkpt><trkpt lat="44.3880101" lon="11.5192624"><ele>226.0</ele><time>2026-05-01T10:29:30.978Z</time></trkpt><trkpt lat="44.388058" lon="11.5193629"><ele>225.99999999999997</ele><time>2026-05-01T10:29:32.971Z</time></trkpt><trkpt lat="44.3881121" lon="11.5194602"><ele>226.0</ele><time>2026-05-01T10:29:34.962Z</time></trkpt><trkpt lat="44.3881716" lon="11.519539"><ele>227.16666666666666</ele><time>2026-05-01T10:29:36.987Z</time></trkpt><trkpt lat="44.3882261" lon="11.5196164"><ele>228.33333333333331</ele><time>2026-05-01T10:29:38.973Z</time></trkpt><trkpt lat="44.3882774" lon="11.5197128"><ele>229.5</ele><time>2026-05-01T10:29:40.975Z</time></trkpt><trkpt lat="44.3883189" lon="11.5198078"><ele>230.66666666666669</ele><time>2026-05-01T10:29:42.971Z</time></trkpt><trkpt lat="44.388354" lon="11.5199157"><ele>231.83333333333334</ele><time>2026-05-01T10:29:44.984Z</time></trkpt><trkpt lat="44.3883711" lon="11.520043"><ele>233.0</ele><time>2026-05-01T10:29:46.972Z</time></trkpt><trkpt lat="44.3883687" lon="11.5201741"><ele>233.0</ele><time>2026-05-01T10:29:48.98Z</time></trkpt><trkpt lat="44.3883603" lon="11.5203292"><ele>233.0</ele><time>2026-05-01T10:29:50.971Z</time></trkpt><trkpt lat="44.3883442" lon="11.5204933"><ele>233.0</ele><time>2026-05-01T10:29:52.975Z</time></trkpt><trkpt lat="44.388339" lon="11.520583"><ele>233.0</ele><time>2026-05-01T10:29:53.963Z</time></trkpt><trkpt lat="44.3883295" lon="11.5207615"><ele>233.0</ele><time>2026-05-01T10:29:55.959Z</time></trkpt><trkpt lat="44.3883325" lon="11.5208575"><ele>232.57142857142858</ele><time>2026-05-01T10:29:56.964Z</time></trkpt><trkpt lat="44.3883315" lon="11.5209564"><ele>232.1428571428571</ele><time>2026-05-01T10:29:57.97Z</time></trkpt><trkpt lat="44.388331" lon="11.521053"><ele>231.7142857142857</ele><time>2026-05-01T10:29:58.961Z</time></trkpt><trkpt lat="44.3883367" lon="11.52115"><ele>231.28571428571428</ele><time>2026-05-01T10:29:59.968Z</time></trkpt><trkpt lat="44.3883432" lon="11.5212478"><ele>230.85714285714283</ele><time>2026-05-01T10:30:00.97Z</time></trkpt><trkpt lat="44.3883486" lon="11.521349"><ele>230.4285714285714</ele><time>2026-05-01T10:30:01.963Z</time></trkpt><trkpt lat="44.3883562" lon="11.5214484"><ele>229.99999999999997</ele><time>2026-05-01T10:30:02.972Z</time></trkpt><trkpt lat="44.38836" lon="11.5215509"><ele>229.50000000000003</ele><time>2026-05-01T10:30:03.969Z</time></trkpt><trkpt lat="44.3883611" lon="11.5216604"><ele>229.0</ele><time>2026-05-01T10:30:04.963Z</time></trkpt><trkpt lat="44.3883643" lon="11.5217723"><ele>228.5</ele><time>2026-05-01T10:30:05.965Z</time></trkpt><trkpt lat="44.3883712" lon="11.5218857"><ele>228.0</ele><time>2026-05-01T10:30:06.967Z</time></trkpt><trkpt lat="44.3883774" lon="11.5220015"><ele>227.50000000000003</ele><time>2026-05-01T10:30:07.963Z</time></trkpt><trkpt lat="44.3883861" lon="11.5221194"><ele>227.0</ele><time>2026-05-01T10:30:08.963Z</time></trkpt><trkpt lat="44.3884" lon="11.5222376"><ele>226.6</ele><time>2026-05-01T10:30:09.971Z</time></trkpt><trkpt lat="44.3884144" lon="11.5223643"><ele>226.2</ele><time>2026-05-01T10:30:10.966Z</time></trkpt><trkpt lat="44.3884332" lon="11.522493"><ele>225.8</ele><time>2026-05-01T10:30:11.971Z</time></trkpt><trkpt lat="44.3884544" lon="11.5226295"><ele>225.4</ele><time>2026-05-01T10:30:12.972Z</time></trkpt><trkpt lat="44.3884682" lon="11.5227636"><ele>225.0</ele><time>2026-05-01T10:30:13.963Z</time></trkpt><trkpt lat="44.3884902" lon="11.5228983"><ele>224.33333333333334</ele><time>2026-05-01T10:30:14.968Z</time></trkpt><trkpt lat="44.3885125" lon="11.5230261"><ele>223.66666666666669</ele><time>2026-05-01T10:30:15.966Z</time></trkpt><trkpt lat="44.388536" lon="11.5231551"><ele>223.0</ele><time>2026-05-01T10:30:16.975Z</time></trkpt><trkpt lat="44.3885508" lon="11.5232754"><ele>222.33333333333334</ele><time>2026-05-01T10:30:17.964Z</time></trkpt><trkpt lat="44.3885578" lon="11.523391"><ele>221.66666666666669</ele><time>2026-05-01T10:30:18.966Z</time></trkpt><trkpt lat="44.3885692" lon="11.5235059"><ele>221.0</ele><time>2026-05-01T10:30:19.967Z</time></trkpt><trkpt lat="44.3885801" lon="11.5236216"><ele>221.00000000000003</ele><time>2026-05-01T10:30:20.975Z</time></trkpt><trkpt lat="44.3885915" lon="11.5237296"><ele>221.0</ele><time>2026-05-01T10:30:21.975Z</time></trkpt><trkpt lat="44.3886045" lon="11.5238394"><ele>221.0</ele><time>2026-05-01T10:30:22.972Z</time></trkpt><trkpt lat="44.3886217" lon="11.5239406"><ele>221.0</ele><time>2026-05-01T10:30:23.966Z</time></trkpt><trkpt lat="44.3886375" lon="11.5240353"><ele>221.0</ele><time>2026-05-01T10:30:24.971Z</time></trkpt><trkpt lat="44.3886536" lon="11.5241285"><ele>221.00000000000003</ele><time>2026-05-01T10:30:25.965Z</time></trkpt><trkpt lat="44.3886736" lon="11.524214"><ele>221.0</ele><time>2026-05-01T10:30:26.968Z</time></trkpt><trkpt lat="44.3887107" lon="11.5243602"><ele>221.4</ele><time>2026-05-01T10:30:28.981Z</time></trkpt><trkpt lat="44.3887437" lon="11.5245176"><ele>221.8</ele><time>2026-05-01T10:30:30.986Z</time></trkpt><trkpt lat="44.3887785" lon="11.5246606"><ele>222.20000000000002</ele><time>2026-05-01T10:30:32.981Z</time></trkpt><trkpt lat="44.3887955" lon="11.5247847"><ele>222.60000000000002</ele><time>2026-05-01T10:30:34.983Z</time></trkpt><trkpt lat="44.3888107" lon="11.5248993"><ele>223.0</ele><time>2026-05-01T10:30:36.974Z</time></trkpt><trkpt lat="44.3888153" lon="11.5250446"><ele>223.0</ele><time>2026-05-01T10:30:38.981Z</time></trkpt><trkpt lat="44.388808" lon="11.5251971"><ele>223.0</ele><time>2026-05-01T10:30:40.984Z</time></trkpt><trkpt lat="44.3888272" lon="11.5253416"><ele>223.0</ele><time>2026-05-01T10:30:42.98Z</time></trkpt><trkpt lat="44.3888932" lon="11.5254742"><ele>223.0</ele><time>2026-05-01T10:30:44.97Z</time></trkpt><trkpt lat="44.3889374" lon="11.5255377"><ele>223.0</ele><time>2026-05-01T10:30:45.983Z</time></trkpt><trkpt lat="44.3889881" lon="11.5255992"><ele>223.83333333333331</ele><time>2026-05-01T10:30:46.984Z</time></trkpt><trkpt lat="44.389044" lon="11.5256624"><ele>224.66666666666666</ele><time>2026-05-01T10:30:47.987Z</time></trkpt><trkpt lat="44.3890947" lon="11.5257347"><ele>225.5</ele><time>2026-05-01T10:30:48.973Z</time></trkpt><trkpt lat="44.3891494" lon="11.5258183"><ele>226.33333333333331</ele><time>2026-05-01T10:30:49.976Z</time></trkpt><trkpt lat="44.3891965" lon="11.5259073"><ele>227.16666666666666</ele><time>2026-05-01T10:30:50.981Z</time></trkpt><trkpt lat="44.3892504" lon="11.5260012"><ele>228.0</ele><time>2026-05-01T10:30:51.982Z</time></trkpt><trkpt lat="44.3893084" lon="11.526089"><ele>228.0</ele><time>2026-05-01T10:30:52.986Z</time></trkpt><trkpt lat="44.3893718" lon="11.526183"><ele>228.0</ele><time>2026-05-01T10:30:53.982Z</time></trkpt><trkpt lat="44.3894333" lon="11.526271"><ele>228.0</ele><time>2026-05-01T10:30:54.978Z</time></trkpt><trkpt lat="44.3894931" lon="11.5263579"><ele>228.0</ele><time>2026-05-01T10:30:55.975Z</time></trkpt><trkpt lat="44.3895568" lon="11.5264387"><ele>228.0</ele><time>2026-05-01T10:30:56.98Z</time></trkpt><trkpt lat="44.3896176" lon="11.5265176"><ele>228.0</ele><time>2026-05-01T10:30:57.955Z</time></trkpt><trkpt lat="44.3896721" lon="11.5265977"><ele>227.0</ele><time>2026-05-01T10:30:58.958Z</time></trkpt><trkpt lat="44.3897262" lon="11.5266728"><ele>225.99999999999997</ele><time>2026-05-01T10:30:59.964Z</time></trkpt><trkpt lat="44.3897779" lon="11.5267435"><ele>225.0</ele><time>2026-05-01T10:31:00.968Z</time></trkpt><trkpt lat="44.3898265" lon="11.5268053"><ele>224.0</ele><time>2026-05-01T10:31:01.978Z</time></trkpt><trkpt lat="44.3898766" lon="11.5268649"><ele>223.0</ele><time>2026-05-01T10:31:02.989Z</time></trkpt><trkpt lat="44.3899251" lon="11.5269252"><ele>222.0</ele><time>2026-05-01T10:31:03.972Z</time></trkpt><trkpt lat="44.3899754" lon="11.5269958"><ele>221.0</ele><time>2026-05-01T10:31:04.972Z</time></trkpt><trkpt lat="44.3900241" lon="11.5270584"><ele>222.14285714285717</ele><time>2026-05-01T10:31:05.959Z</time></trkpt><trkpt lat="44.390077" lon="11.5271296"><ele>223.28571428571428</ele><time>2026-05-01T10:31:06.982Z</time></trkpt><trkpt lat="44.3901288" lon="11.5271936"><ele>224.42857142857144</ele><time>2026-05-01T10:31:07.978Z</time></trkpt><trkpt lat="44.3901796" lon="11.5272561"><ele>225.57142857142858</ele><time>2026-05-01T10:31:08.986Z</time></trkpt><trkpt lat="44.3902268" lon="11.5273234"><ele>226.71428571428572</ele><time>2026-05-01T10:31:09.973Z</time></trkpt><trkpt lat="44.3902727" lon="11.5273877"><ele>227.85714285714286</ele><time>2026-05-01T10:31:10.987Z</time></trkpt><trkpt lat="44.3903163" lon="11.5274635"><ele>229.0</ele><time>2026-05-01T10:31:11.976Z</time></trkpt><trkpt lat="44.3903595" lon="11.5275401"><ele>228.99999999999997</ele><time>2026-05-01T10:31:12.979Z</time></trkpt><trkpt lat="44.3904105" lon="11.5277071"><ele>229.0</ele><time>2026-05-01T10:31:14.975Z</time></trkpt><trkpt lat="44.3904308" lon="11.5278044"><ele>229.0</ele><time>2026-05-01T10:31:15.984Z</time></trkpt><trkpt lat="44.3904486" lon="11.5278956"><ele>229.0</ele><time>2026-05-01T10:31:16.979Z</time></trkpt><trkpt lat="44.3904622" lon="11.5279897"><ele>228.99999999999997</ele><time>2026-05-01T10:31:17.973Z</time></trkpt><trkpt lat="44.3904734" lon="11.528082"><ele>229.0</ele><time>2026-05-01T10:31:18.975Z</time></trkpt><trkpt lat="44.3904869" lon="11.528179"><ele>227.25</ele><time>2026-05-01T10:31:19.978Z</time></trkpt><trkpt lat="44.3905166" lon="11.5283458"><ele>225.5</ele><time>2026-05-01T10:31:21.971Z</time></trkpt><trkpt lat="44.3905418" lon="11.5285011"><ele>223.75</ele><time>2026-05-01T10:31:23.983Z</time></trkpt><trkpt lat="44.3905605" lon="11.5286476"><ele>222.0</ele><time>2026-05-01T10:31:25.958Z</time></trkpt><trkpt lat="44.3905748" lon="11.5288015"><ele>222.0</ele><time>2026-05-01T10:31:27.975Z</time></trkpt><trkpt lat="44.3906006" lon="11.5289595"><ele>222.0</ele><time>2026-05-01T10:31:29.978Z</time></trkpt><trkpt lat="44.3906198" lon="11.5290473"><ele>222.0</ele><time>2026-05-01T10:31:31.019Z</time></trkpt><trkpt lat="44.3906529" lon="11.5291365"><ele>222.0</ele><time>2026-05-01T10:31:31.986Z</time></trkpt><trkpt lat="44.3906847" lon="11.5292365"><ele>222.0</ele><time>2026-05-01T10:31:32.97Z</time></trkpt><trkpt lat="44.3907251" lon="11.5293491"><ele>222.0</ele><time>2026-05-01T10:31:33.982Z</time></trkpt><trkpt lat="44.390782" lon="11.5294693"><ele>219.5</ele><time>2026-05-01T10:31:34.968Z</time></trkpt><trkpt lat="44.3908405" lon="11.5296032"><ele>217.0</ele><time>2026-05-01T10:31:35.978Z</time></trkpt><trkpt lat="44.3908982" lon="11.5297419"><ele>214.5</ele><time>2026-05-01T10:31:36.971Z</time></trkpt><trkpt lat="44.3909589" lon="11.529887"><ele>212.0</ele><time>2026-05-01T10:31:37.977Z</time></trkpt><trkpt lat="44.3910234" lon="11.5300381"><ele>212.0</ele><time>2026-05-01T10:31:38.971Z</time></trkpt><trkpt lat="44.3910825" lon="11.5301846"><ele>212.0</ele><time>2026-05-01T10:31:39.974Z</time></trkpt><trkpt lat="44.3911386" lon="11.5303277"><ele>212.0</ele><time>2026-05-01T10:31:40.97Z</time></trkpt><trkpt lat="44.3911888" lon="11.5304774"><ele>212.0</ele><time>2026-05-01T10:31:41.981Z</time></trkpt><trkpt lat="44.3912288" lon="11.5306416"><ele>210.0</ele><time>2026-05-01T10:31:42.988Z</time></trkpt><trkpt lat="44.3912558" lon="11.5308173"><ele>208.0</ele><time>2026-05-01T10:31:43.987Z</time></trkpt><trkpt lat="44.391276" lon="11.5310124"><ele>206.0</ele><time>2026-05-01T10:31:44.974Z</time></trkpt><trkpt lat="44.3912936" lon="11.5312021"><ele>204.0</ele><time>2026-05-01T10:31:45.976Z</time></trkpt><trkpt lat="44.3913113" lon="11.5314061"><ele>201.0</ele><time>2026-05-01T10:31:46.978Z</time></trkpt><trkpt lat="44.391325" lon="11.5316179"><ele>198.0</ele><time>2026-05-01T10:31:47.988Z</time></trkpt><trkpt lat="44.3913416" lon="11.5318468"><ele>195.0</ele><time>2026-05-01T10:31:48.966Z</time></trkpt><trkpt lat="44.3913591" lon="11.5320748"><ele>189.66666666666666</ele><time>2026-05-01T10:31:50.005Z</time></trkpt><trkpt lat="44.3913811" lon="11.532311"><ele>184.33333333333331</ele><time>2026-05-01T10:31:50.967Z</time></trkpt><trkpt lat="44.3913965" lon="11.5325289"><ele>179.0</ele><time>2026-05-01T10:31:51.988Z</time></trkpt><trkpt lat="44.3914147" lon="11.5327166"><ele>179.0</ele><time>2026-05-01T10:31:52.98Z</time></trkpt><trkpt lat="44.3914318" lon="11.5328827"><ele>179.0</ele><time>2026-05-01T10:31:53.977Z</time></trkpt><trkpt lat="44.3914324" lon="11.5330352"><ele>179.0</ele><time>2026-05-01T10:31:54.977Z</time></trkpt><trkpt lat="44.3914057" lon="11.5331778"><ele>179.0</ele><time>2026-05-01T10:31:55.98Z</time></trkpt><trkpt lat="44.3913519" lon="11.5333124"><ele>179.0</ele><time>2026-05-01T10:31:56.971Z</time></trkpt><trkpt lat="44.3912797" lon="11.5334375"><ele>178.25</ele><time>2026-05-01T10:31:57.98Z</time></trkpt><trkpt lat="44.3911919" lon="11.5335683"><ele>177.5</ele><time>2026-05-01T10:31:58.978Z</time></trkpt><trkpt lat="44.391106" lon="11.5336915"><ele>176.75</ele><time>2026-05-01T10:32:00.037Z</time></trkpt><trkpt lat="44.3910189" lon="11.5337996"><ele>176.0</ele><time>2026-05-01T10:32:01.036Z</time></trkpt><trkpt lat="44.3909451" lon="11.5339034"><ele>174.20000000000002</ele><time>2026-05-01T10:32:01.973Z</time></trkpt><trkpt lat="44.390884" lon="11.5340065"><ele>172.4</ele><time>2026-05-01T10:32:02.982Z</time></trkpt><trkpt lat="44.3908367" lon="11.5341188"><ele>170.6</ele><time>2026-05-01T10:32:03.997Z</time></trkpt><trkpt lat="44.3908072" lon="11.5342378"><ele>168.8</ele><time>2026-05-01T10:32:04.977Z</time></trkpt><trkpt lat="44.3907989" lon="11.5343639"><ele>167.0</ele><time>2026-05-01T10:32:05.972Z</time></trkpt><trkpt lat="44.3908057" lon="11.5344867"><ele>165.83333333333331</ele><time>2026-05-01T10:32:06.965Z</time></trkpt><trkpt lat="44.3908082" lon="11.5346094"><ele>164.66666666666666</ele><time>2026-05-01T10:32:08.033Z</time></trkpt><trkpt lat="44.3908183" lon="11.5347208"><ele>163.5</ele><time>2026-05-01T10:32:08.968Z</time></trkpt><trkpt lat="44.3908386" lon="11.5348208"><ele>162.33333333333334</ele><time>2026-05-01T10:32:09.973Z</time></trkpt><trkpt lat="44.3908651" lon="11.5349103"><ele>161.16666666666669</ele><time>2026-05-01T10:32:11.041Z</time></trkpt><trkpt lat="44.3909018" lon="11.5349928"><ele>160.0</ele><time>2026-05-01T10:32:11.962Z</time></trkpt><trkpt lat="44.3909588" lon="11.5350747"><ele>160.0</ele><time>2026-05-01T10:32:12.973Z</time></trkpt><trkpt lat="44.3910365" lon="11.5351258"><ele>160.0</ele><time>2026-05-01T10:32:13.972Z</time></trkpt><trkpt lat="44.3911257" lon="11.5351603"><ele>160.0</ele><time>2026-05-01T10:32:14.963Z</time></trkpt><trkpt lat="44.391219" lon="11.5351756"><ele>160.0</ele><time>2026-05-01T10:32:15.968Z</time></trkpt><trkpt lat="44.391321" lon="11.535185"><ele>160.0</ele><time>2026-05-01T10:32:16.955Z</time></trkpt><trkpt lat="44.3914302" lon="11.5351957"><ele>158.8</ele><time>2026-05-01T10:32:17.962Z</time></trkpt><trkpt lat="44.3915412" lon="11.5352078"><ele>157.6</ele><time>2026-05-01T10:32:19.032Z</time></trkpt><trkpt lat="44.3916528" lon="11.5352235"><ele>156.4</ele><time>2026-05-01T10:32:19.96Z</time></trkpt><trkpt lat="44.3917627" lon="11.53524"><ele>155.2</ele><time>2026-05-01T10:32:20.966Z</time></trkpt><trkpt lat="44.3918731" lon="11.535253"><ele>154.0</ele><time>2026-05-01T10:32:21.97Z</time></trkpt><trkpt lat="44.3919881" lon="11.5352678"><ele>154.0</ele><time>2026-05-01T10:32:22.973Z</time></trkpt><trkpt lat="44.3921092" lon="11.5352839"><ele>154.0</ele><time>2026-05-01T10:32:23.981Z</time></trkpt><trkpt lat="44.3922296" lon="11.5353018"><ele>154.0</ele><time>2026-05-01T10:32:24.97Z</time></trkpt><trkpt lat="44.3923551" lon="11.5353258"><ele>154.0</ele><time>2026-05-01T10:32:25.976Z</time></trkpt><trkpt lat="44.3924831" lon="11.5353489"><ele>152.0</ele><time>2026-05-01T10:32:26.969Z</time></trkpt><trkpt lat="44.3926112" lon="11.5353694"><ele>150.0</ele><time>2026-05-01T10:32:27.974Z</time></trkpt><trkpt lat="44.392747" lon="11.5353927"><ele>148.0</ele><time>2026-05-01T10:32:29.037Z</time></trkpt><trkpt lat="44.3928809" lon="11.5354215"><ele>146.0</ele><time>2026-05-01T10:32:30.038Z</time></trkpt><trkpt lat="44.3930133" lon="11.5354517"><ele>141.75</ele><time>2026-05-01T10:32:30.972Z</time></trkpt><trkpt lat="44.3931523" lon="11.5354887"><ele>137.5</ele><time>2026-05-01T10:32:31.974Z</time></trkpt><trkpt lat="44.3932994" lon="11.5355267"><ele>133.25</ele><time>2026-05-01T10:32:32.968Z</time></trkpt><trkpt lat="44.3934492" lon="11.5355667"><ele>129.0</ele><time>2026-05-01T10:32:34.035Z</time></trkpt><trkpt lat="44.3935964" lon="11.5356021"><ele>129.0</ele><time>2026-05-01T10:32:35.041Z</time></trkpt><trkpt lat="44.3937426" lon="11.535624"><ele>129.0</ele><time>2026-05-01T10:32:35.966Z</time></trkpt><trkpt lat="44.3938951" lon="11.5356457"><ele>129.0</ele><time>2026-05-01T10:32:36.968Z</time></trkpt><trkpt lat="44.3940535" lon="11.5356652"><ele>123.33333333333334</ele><time>2026-05-01T10:32:38.032Z</time></trkpt><trkpt lat="44.39421" lon="11.5356815"><ele>117.66666666666667</ele><time>2026-05-01T10:32:39.039Z</time></trkpt><trkpt lat="44.3943742" lon="11.5356983"><ele>112.0</ele><time>2026-05-01T10:32:40.034Z</time></trkpt><trkpt lat="44.3945449" lon="11.5357178"><ele>109.66666666666667</ele><time>2026-05-01T10:32:40.97Z</time></trkpt><trkpt lat="44.394719" lon="11.5357296"><ele>107.33333333333334</ele><time>2026-05-01T10:32:41.968Z</time></trkpt><trkpt lat="44.3948959" lon="11.5357201"><ele>105.0</ele><time>2026-05-01T10:32:42.97Z</time></trkpt><trkpt lat="44.3950586" lon="11.5356701"><ele>105.0</ele><time>2026-05-01T10:32:43.967Z</time></trkpt><trkpt lat="44.3952108" lon="11.5355888"><ele>105.0</ele><time>2026-05-01T10:32:44.963Z</time></trkpt><trkpt lat="44.3953431" lon="11.535482"><ele>105.0</ele><time>2026-05-01T10:32:45.968Z</time></trkpt><trkpt lat="44.3954698" lon="11.5353791"><ele>105.25</ele><time>2026-05-01T10:32:46.968Z</time></trkpt><trkpt lat="44.3955951" lon="11.5352697"><ele>105.5</ele><time>2026-05-01T10:32:47.967Z</time></trkpt><trkpt lat="44.3957128" lon="11.5351592"><ele>105.75</ele><time>2026-05-01T10:32:48.97Z</time></trkpt><trkpt lat="44.3958221" lon="11.5350511"><ele>106.0</ele><time>2026-05-01T10:32:50.026Z</time></trkpt><trkpt lat="44.3959271" lon="11.5349473"><ele>106.0</ele><time>2026-05-01T10:32:50.964Z</time></trkpt><trkpt lat="44.3960282" lon="11.5348431"><ele>106.0</ele><time>2026-05-01T10:32:51.964Z</time></trkpt><trkpt lat="44.3961317" lon="11.5347454"><ele>106.0</ele><time>2026-05-01T10:32:53.032Z</time></trkpt><trkpt lat="44.3962447" lon="11.5346632"><ele>106.0</ele><time>2026-05-01T10:32:54.031Z</time></trkpt><trkpt lat="44.3963758" lon="11.5346112"><ele>104.75</ele><time>2026-05-01T10:32:54.966Z</time></trkpt><trkpt lat="44.396508" lon="11.534582"><ele>103.5</ele><time>2026-05-01T10:32:55.963Z</time></trkpt><trkpt lat="44.3966395" lon="11.5345625"><ele>102.25</ele><time>2026-05-01T10:32:56.967Z</time></trkpt><trkpt lat="44.3967679" lon="11.5345492"><ele>101.0</ele><time>2026-05-01T10:32:57.959Z</time></trkpt><trkpt lat="44.396897" lon="11.5345402"><ele>102.25</ele><time>2026-05-01T10:32:58.96Z</time></trkpt><trkpt lat="44.3970222" lon="11.5345372"><ele>103.5</ele><time>2026-05-01T10:32:59.98Z</time></trkpt><trkpt lat="44.3971491" lon="11.5345466"><ele>104.75</ele><time>2026-05-01T10:33:00.958Z</time></trkpt><trkpt lat="44.3972666" lon="11.5345462"><ele>106.0</ele><time>2026-05-01T10:33:01.968Z</time></trkpt><trkpt lat="44.3973848" lon="11.5345428"><ele>106.0</ele><time>2026-05-01T10:33:02.954Z</time></trkpt><trkpt lat="44.397505" lon="11.5345338"><ele>106.0</ele><time>2026-05-01T10:33:03.96Z</time></trkpt><trkpt lat="44.3976221" lon="11.5345271"><ele>106.0</ele><time>2026-05-01T10:33:04.959Z</time></trkpt><trkpt lat="44.3977369" lon="11.5345282"><ele>106.0</ele><time>2026-05-01T10:33:05.966Z</time></trkpt><trkpt lat="44.3978517" lon="11.5345297"><ele>106.0</ele><time>2026-05-01T10:33:06.966Z</time></trkpt><trkpt lat="44.3979629" lon="11.5345347"><ele>106.0</ele><time>2026-05-01T10:33:07.971Z</time></trkpt><trkpt lat="44.3980706" lon="11.5345373"><ele>106.0</ele><time>2026-05-01T10:33:08.966Z</time></trkpt><trkpt lat="44.3981778" lon="11.5345347"><ele>106.0</ele><time>2026-05-01T10:33:09.962Z</time></trkpt><trkpt lat="44.3982845" lon="11.534537"><ele>106.0</ele><time>2026-05-01T10:33:10.962Z</time></trkpt><trkpt lat="44.3983887" lon="11.5345423"><ele>105.0</ele><time>2026-05-01T10:33:11.961Z</time></trkpt><trkpt lat="44.3984895" lon="11.5345413"><ele>104.0</ele><time>2026-05-01T10:33:12.952Z</time></trkpt><trkpt lat="44.3985908" lon="11.5345468"><ele>103.0</ele><time>2026-05-01T10:33:13.958Z</time></trkpt><trkpt lat="44.3986854" lon="11.5345508"><ele>102.0</ele><time>2026-05-01T10:33:14.962Z</time></trkpt><trkpt lat="44.3987838" lon="11.5345486"><ele>101.0</ele><time>2026-05-01T10:33:15.96Z</time></trkpt><trkpt lat="44.3988771" lon="11.5345533"><ele>101.0</ele><time>2026-05-01T10:33:16.957Z</time></trkpt><trkpt lat="44.3989709" lon="11.5345545"><ele>101.0</ele><time>2026-05-01T10:33:17.956Z</time></trkpt><trkpt lat="44.3990642" lon="11.5345592"><ele>101.0</ele><time>2026-05-01T10:33:18.958Z</time></trkpt><trkpt lat="44.3991552" lon="11.5345702"><ele>101.0</ele><time>2026-05-01T10:33:19.958Z</time></trkpt><trkpt lat="44.3992458" lon="11.5345918"><ele>101.0</ele><time>2026-05-01T10:33:20.968Z</time></trkpt><trkpt lat="44.3993329" lon="11.5346348"><ele>99.6</ele><time>2026-05-01T10:33:21.955Z</time></trkpt><trkpt lat="44.3994174" lon="11.5346936"><ele>98.19999999999999</ele><time>2026-05-01T10:33:22.953Z</time></trkpt><trkpt lat="44.3995033" lon="11.5347511"><ele>96.80000000000001</ele><time>2026-05-01T10:33:23.958Z</time></trkpt><trkpt lat="44.3995871" lon="11.5348042"><ele>95.4</ele><time>2026-05-01T10:33:24.957Z</time></trkpt><trkpt lat="44.3996672" lon="11.53486"><ele>94.0</ele><time>2026-05-01T10:33:26.027Z</time></trkpt><trkpt lat="44.3997432" lon="11.5349154"><ele>94.0</ele><time>2026-05-01T10:33:26.952Z</time></trkpt><trkpt lat="44.3998189" lon="11.5349772"><ele>94.0</ele><time>2026-05-01T10:33:27.958Z</time></trkpt><trkpt lat="44.3998933" lon="11.5350279"><ele>94.0</ele><time>2026-05-01T10:33:29.072Z</time></trkpt><trkpt lat="44.400041" lon="11.5351226"><ele>94.0</ele><time>2026-05-01T10:33:31.025Z</time></trkpt><trkpt lat="44.4001092" lon="11.5351711"><ele>94.0</ele><time>2026-05-01T10:33:31.964Z</time></trkpt><trkpt lat="44.4001759" lon="11.5352196"><ele>94.0</ele><time>2026-05-01T10:33:32.961Z</time></trkpt><trkpt lat="44.4002434" lon="11.5352654"><ele>94.0</ele><time>2026-05-01T10:33:33.975Z</time></trkpt><trkpt lat="44.4003111" lon="11.5353023"><ele>94.0</ele><time>2026-05-01T10:33:35.035Z</time></trkpt><trkpt lat="44.4003796" lon="11.535338"><ele>94.0</ele><time>2026-05-01T10:33:35.964Z</time></trkpt><trkpt lat="44.4004426" lon="11.5353768"><ele>94.0</ele><time>2026-05-01T10:33:36.967Z</time></trkpt><trkpt lat="44.4005578" lon="11.5354522"><ele>94.0</ele><time>2026-05-01T10:33:38.971Z</time></trkpt><trkpt lat="44.4006678" lon="11.5355168"><ele>93.83333333333333</ele><time>2026-05-01T10:33:40.961Z</time></trkpt><trkpt lat="44.4007662" lon="11.5355755"><ele>93.66666666666666</ele><time>2026-05-01T10:33:42.965Z</time></trkpt><trkpt lat="44.4008505" lon="11.5356751"><ele>93.5</ele><time>2026-05-01T10:33:44.959Z</time></trkpt><trkpt lat="44.4008951" lon="11.5357481"><ele>93.33333333333333</ele><time>2026-05-01T10:33:45.965Z</time></trkpt><trkpt lat="44.400934" lon="11.5358317"><ele>93.16666666666667</ele><time>2026-05-01T10:33:46.973Z</time></trkpt><trkpt lat="44.4009722" lon="11.5359236"><ele>93.0</ele><time>2026-05-01T10:33:47.956Z</time></trkpt><trkpt lat="44.4010015" lon="11.5360249"><ele>93.0</ele><time>2026-05-01T10:33:48.954Z</time></trkpt><trkpt lat="44.4010253" lon="11.5361312"><ele>93.0</ele><time>2026-05-01T10:33:49.952Z</time></trkpt><trkpt lat="44.4010419" lon="11.5362405"><ele>93.0</ele><time>2026-05-01T10:33:50.961Z</time></trkpt><trkpt lat="44.4010592" lon="11.5363441"><ele>93.0</ele><time>2026-05-01T10:33:51.97Z</time></trkpt><trkpt lat="44.4010818" lon="11.536445"><ele>93.0</ele><time>2026-05-01T10:33:52.962Z</time></trkpt><trkpt lat="44.4011073" lon="11.5365429"><ele>93.0</ele><time>2026-05-01T10:33:53.961Z</time></trkpt><trkpt lat="44.4011421" lon="11.5366243"><ele>92.71428571428572</ele><time>2026-05-01T10:33:54.977Z</time></trkpt><trkpt lat="44.4011874" lon="11.5366987"><ele>92.42857142857143</ele><time>2026-05-01T10:33:55.973Z</time></trkpt><trkpt lat="44.4012423" lon="11.5367705"><ele>92.14285714285714</ele><time>2026-05-01T10:33:56.983Z</time></trkpt><trkpt lat="44.4012938" lon="11.5368408"><ele>91.85714285714286</ele><time>2026-05-01T10:33:57.973Z</time></trkpt><trkpt lat="44.4013479" lon="11.5369118"><ele>91.57142857142857</ele><time>2026-05-01T10:33:58.984Z</time></trkpt><trkpt lat="44.4014006" lon="11.536978"><ele>91.28571428571429</ele><time>2026-05-01T10:33:59.974Z</time></trkpt><trkpt lat="44.4014581" lon="11.5370482"><ele>91.0</ele><time>2026-05-01T10:34:00.982Z</time></trkpt><trkpt lat="44.4015073" lon="11.5371202"><ele>90.71428571428571</ele><time>2026-05-01T10:34:01.983Z</time></trkpt><trkpt lat="44.4015591" lon="11.5371943"><ele>90.42857142857143</ele><time>2026-05-01T10:34:02.972Z</time></trkpt><trkpt lat="44.4016133" lon="11.5372675"><ele>90.14285714285714</ele><time>2026-05-01T10:34:03.972Z</time></trkpt><trkpt lat="44.401664" lon="11.5373351"><ele>89.85714285714286</ele><time>2026-05-01T10:34:04.984Z</time></trkpt><trkpt lat="44.4017181" lon="11.5374023"><ele>89.57142857142857</ele><time>2026-05-01T10:34:05.975Z</time></trkpt><trkpt lat="44.4017744" lon="11.5374798"><ele>89.28571428571428</ele><time>2026-05-01T10:34:06.977Z</time></trkpt><trkpt lat="44.4018293" lon="11.5375553"><ele>89.0</ele><time>2026-05-01T10:34:07.975Z</time></trkpt><trkpt lat="44.4018906" lon="11.5376249"><ele>89.0</ele><time>2026-05-01T10:34:08.981Z</time></trkpt><trkpt lat="44.4019541" lon="11.5376853"><ele>89.0</ele><time>2026-05-01T10:34:09.991Z</time></trkpt><trkpt lat="44.4020232" lon="11.5377493"><ele>89.0</ele><time>2026-05-01T10:34:10.974Z</time></trkpt><trkpt lat="44.4020874" lon="11.5378116"><ele>89.0</ele><time>2026-05-01T10:34:11.969Z</time></trkpt><trkpt lat="44.4021477" lon="11.5378816"><ele>89.0</ele><time>2026-05-01T10:34:12.973Z</time></trkpt><trkpt lat="44.4022044" lon="11.5379556"><ele>89.0</ele><time>2026-05-01T10:34:13.972Z</time></trkpt><trkpt lat="44.4022584" lon="11.5380304"><ele>88.66666666666667</ele><time>2026-05-01T10:34:14.979Z</time></trkpt><trkpt lat="44.4023061" lon="11.5381143"><ele>88.33333333333334</ele><time>2026-05-01T10:34:15.981Z</time></trkpt><trkpt lat="44.4023522" lon="11.5382033"><ele>88.0</ele><time>2026-05-01T10:34:16.975Z</time></trkpt><trkpt lat="44.4023894" lon="11.5382972"><ele>87.66666666666667</ele><time>2026-05-01T10:34:17.974Z</time></trkpt><trkpt lat="44.4024202" lon="11.5383881"><ele>87.33333333333333</ele><time>2026-05-01T10:34:18.975Z</time></trkpt><trkpt lat="44.4024488" lon="11.5384866"><ele>87.0</ele><time>2026-05-01T10:34:19.975Z</time></trkpt><trkpt lat="44.4024707" lon="11.5385802"><ele>87.0</ele><time>2026-05-01T10:34:20.987Z</time></trkpt><trkpt lat="44.4024942" lon="11.5386726"><ele>87.0</ele><time>2026-05-01T10:34:21.966Z</time></trkpt><trkpt lat="44.4025192" lon="11.5387625"><ele>87.0</ele><time>2026-05-01T10:34:22.978Z</time></trkpt><trkpt lat="44.4025412" lon="11.5388484"><ele>87.0</ele><time>2026-05-01T10:34:23.959Z</time></trkpt><trkpt lat="44.4025586" lon="11.538935"><ele>87.0</ele><time>2026-05-01T10:34:24.976Z</time></trkpt><trkpt lat="44.4025936" lon="11.5390979"><ele>87.0</ele><time>2026-05-01T10:34:26.974Z</time></trkpt><trkpt lat="44.4026204" lon="11.539247"><ele>86.8</ele><time>2026-05-01T10:34:28.979Z</time></trkpt><trkpt lat="44.4026431" lon="11.539399"><ele>86.6</ele><time>2026-05-01T10:34:30.992Z</time></trkpt><trkpt lat="44.4026583" lon="11.5395425"><ele>86.39999999999999</ele><time>2026-05-01T10:34:32.98Z</time></trkpt><trkpt lat="44.4026762" lon="11.5396766"><ele>86.19999999999999</ele><time>2026-05-01T10:34:34.974Z</time></trkpt><trkpt lat="44.4026976" lon="11.5398164"><ele>86.0</ele><time>2026-05-01T10:34:36.989Z</time></trkpt><trkpt lat="44.4027178" lon="11.5399496"><ele>86.0</ele><time>2026-05-01T10:34:38.985Z</time></trkpt><trkpt lat="44.4027438" lon="11.5400928"><ele>86.0</ele><time>2026-05-01T10:34:40.974Z</time></trkpt><trkpt lat="44.4027847" lon="11.5402317"><ele>86.0</ele><time>2026-05-01T10:34:43.037Z</time></trkpt><trkpt lat="44.4028512" lon="11.5403667"><ele>86.0</ele><time>2026-05-01T10:34:45.03Z</time></trkpt><trkpt lat="44.4029357" lon="11.540484"><ele>86.0</ele><time>2026-05-01T10:34:46.969Z</time></trkpt><trkpt lat="44.4030244" lon="11.5405861"><ele>85.6</ele><time>2026-05-01T10:34:49.036Z</time></trkpt><trkpt lat="44.4031125" lon="11.5406852"><ele>85.19999999999999</ele><time>2026-05-01T10:34:51.03Z</time></trkpt><trkpt lat="44.4032028" lon="11.540766"><ele>84.80000000000001</ele><time>2026-05-01T10:34:53.037Z</time></trkpt><trkpt lat="44.4032905" lon="11.5408142"><ele>84.4</ele><time>2026-05-01T10:34:54.98Z</time></trkpt><trkpt lat="44.4033626" lon="11.5408519"><ele>84.0</ele><time>2026-05-01T10:34:56.976Z</time></trkpt><trkpt lat="44.4034237" lon="11.5408982"><ele>84.0</ele><time>2026-05-01T10:34:59.037Z</time></trkpt><trkpt lat="44.4034484" lon="11.5409883"><ele>84.0</ele><time>2026-05-01T10:35:00.997Z</time></trkpt><trkpt lat="44.4034427" lon="11.5410805"><ele>84.0</ele><time>2026-05-01T10:35:02.968Z</time></trkpt><trkpt lat="44.4034159" lon="11.5411949"><ele>84.0</ele><time>2026-05-01T10:35:05.969Z</time></trkpt><trkpt lat="44.4033875" lon="11.5413027"><ele>84.0</ele><time>2026-05-01T10:35:08.958Z</time></trkpt><trkpt lat="44.4033568" lon="11.5413959"><ele>84.0</ele><time>2026-05-01T10:35:11.964Z</time></trkpt><trkpt lat="44.4033069" lon="11.5414718"><ele>84.85714285714286</ele><time>2026-05-01T10:35:15.961Z</time></trkpt><trkpt lat="44.4032463" lon="11.541528"><ele>85.71428571428572</ele><time>2026-05-01T10:35:20.972Z</time></trkpt><trkpt lat="44.4031826" lon="11.5415582"><ele>86.57142857142857</ele><time>2026-05-01T10:35:25.98Z</time></trkpt><trkpt lat="44.403115" lon="11.5415705"><ele>87.42857142857143</ele><time>2026-05-01T10:35:31.968Z</time></trkpt><trkpt lat="44.4030455" lon="11.5415674"><ele>88.28571428571429</ele><time>2026-05-01T10:35:37.969Z</time></trkpt><trkpt lat="44.4029749" lon="11.5415577"><ele>89.14285714285714</ele><time>2026-05-01T10:40:40.967Z</time></trkpt><trkpt lat="44.4029103" lon="11.5415566"><ele>90.0</ele><time>2026-05-01T10:40:43.968Z</time></trkpt><trkpt lat="44.4028337" lon="11.5415237"><ele>91.57142857142857</ele><time>2026-05-01T10:40:47.972Z</time></trkpt><trkpt lat="44.4027696" lon="11.5415047"><ele>93.14285714285715</ele><time>2026-05-01T10:40:50.969Z</time></trkpt><trkpt lat="44.4026971" lon="11.5414605"><ele>94.71428571428572</ele><time>2026-05-01T10:40:54.999Z</time></trkpt><trkpt lat="44.4026331" lon="11.5414115"><ele>96.28571428571428</ele><time>2026-05-01T10:40:58.975Z</time></trkpt><trkpt lat="44.4025679" lon="11.5413622"><ele>97.85714285714286</ele><time>2026-05-01T10:41:02.977Z</time></trkpt><trkpt lat="44.4025116" lon="11.5413166"><ele>99.42857142857143</ele><time>2026-05-01T10:41:06.971Z</time></trkpt><trkpt lat="44.4024361" lon="11.5412761"><ele>101.0</ele><time>2026-05-01T10:41:11.972Z</time></trkpt><trkpt lat="44.4023739" lon="11.5412484"><ele>101.0</ele><time>2026-05-01T10:41:15.973Z</time></trkpt><trkpt lat="44.4023092" lon="11.5412565"><ele>101.0</ele><time>2026-05-01T10:41:19.96Z</time></trkpt><trkpt lat="44.4022507" lon="11.5413162"><ele>101.0</ele><time>2026-05-01T10:41:25.963Z</time></trkpt><trkpt lat="44.4022216" lon="11.5413998"><ele>101.0</ele><time>2026-05-01T10:41:30.964Z</time></trkpt><trkpt lat="44.4022179" lon="11.5414937"><ele>101.0</ele><time>2026-05-01T10:41:35.969Z</time></trkpt><trkpt lat="44.4022452" lon="11.5415862"><ele>101.0</ele><time>2026-05-01T10:41:41.966Z</time></trkpt><trkpt lat="44.4022724" lon="11.5416782"><ele>101.0</ele><time>2026-05-01T10:41:47.968Z</time></trkpt><trkpt lat="44.4022963" lon="11.5417659"><ele>101.0</ele><time>2026-05-01T10:41:52.979Z</time></trkpt><trkpt lat="44.4022724" lon="11.5418504"><ele>101.0</ele><time>2026-05-01T10:41:58.972Z</time></trkpt><trkpt lat="44.402242" lon="11.5419373"><ele>101.0</ele><time>2026-05-01T10:42:05.974Z</time></trkpt><trkpt lat="44.4022001" lon="11.5420123"><ele>101.0</ele><time>2026-05-01T10:42:11.963Z</time></trkpt><trkpt lat="44.4021676" lon="11.5420908"><ele>101.0</ele><time>2026-05-01T10:42:18.965Z</time></trkpt><trkpt lat="44.4021371" lon="11.5421719"><ele>101.0</ele><time>2026-05-01T10:42:25.97Z</time></trkpt><trkpt lat="44.4020999" lon="11.5422569"><ele>101.0</ele><time>2026-05-01T10:42:33.974Z</time></trkpt><trkpt lat="44.4020616" lon="11.5423414"><ele>102.85714285714286</ele><time>2026-05-01T10:42:40.976Z</time></trkpt><trkpt lat="44.4020214" lon="11.5424104"><ele>104.71428571428571</ele><time>2026-05-01T10:42:46.966Z</time></trkpt><trkpt lat="44.4019773" lon="11.5424739"><ele>106.57142857142857</ele><time>2026-05-01T10:42:53.969Z</time></trkpt><trkpt lat="44.4019192" lon="11.5425167"><ele>108.42857142857142</ele><time>2026-05-01T10:42:59.956Z</time></trkpt><trkpt lat="44.40185" lon="11.5425438"><ele>110.28571428571428</ele><time>2026-05-01T10:43:06.971Z</time></trkpt><trkpt lat="44.4017839" lon="11.5425464"><ele>112.14285714285714</ele><time>2026-05-01T10:43:12.964Z</time></trkpt><trkpt lat="44.4017079" lon="11.5425266"><ele>114.0</ele><time>2026-05-01T10:43:19.974Z</time></trkpt><trkpt lat="44.4016544" lon="11.5424748"><ele>114.0</ele><time>2026-05-01T10:43:25.972Z</time></trkpt><trkpt lat="44.4016148" lon="11.5424049"><ele>113.99999999999999</ele><time>2026-05-01T10:43:31.966Z</time></trkpt><trkpt lat="44.4015669" lon="11.5423406"><ele>114.0</ele><time>2026-05-01T10:43:37.965Z</time></trkpt><trkpt lat="44.4015243" lon="11.5422723"><ele>114.0</ele><time>2026-05-01T10:43:43.977Z</time></trkpt><trkpt lat="44.4014703" lon="11.542212"><ele>113.99999999999999</ele><time>2026-05-01T10:43:48.981Z</time></trkpt><trkpt lat="44.4014314" lon="11.5421375"><ele>114.0</ele><time>2026-05-01T10:43:53.963Z</time></trkpt><trkpt lat="44.4013986" lon="11.5420541"><ele>114.0</ele><time>2026-05-01T10:43:57.966Z</time></trkpt><trkpt lat="44.4013663" lon="11.5419529"><ele>115.71428571428571</ele><time>2026-05-01T10:44:01.97Z</time></trkpt><trkpt lat="44.4013311" lon="11.5418629"><ele>117.42857142857142</ele><time>2026-05-01T10:44:05.957Z</time></trkpt><trkpt lat="44.4012899" lon="11.5417837"><ele>119.14285714285714</ele><time>2026-05-01T10:44:09.972Z</time></trkpt><trkpt lat="44.4012496" lon="11.5417145"><ele>120.85714285714286</ele><time>2026-05-01T10:44:15.961Z</time></trkpt><trkpt lat="44.4011967" lon="11.5416475"><ele>122.57142857142857</ele><time>2026-05-01T10:44:22.963Z</time></trkpt><trkpt lat="44.401137" lon="11.5416041"><ele>124.28571428571428</ele><time>2026-05-01T10:44:29.957Z</time></trkpt><trkpt lat="44.4010718" lon="11.5415861"><ele>126.0</ele><time>2026-05-01T10:44:37.955Z</time></trkpt><trkpt lat="44.4010043" lon="11.5415773"><ele>126.0</ele><time>2026-05-01T10:44:43.959Z</time></trkpt><trkpt lat="44.4009391" lon="11.5415739"><ele>126.0</ele><time>2026-05-01T10:44:49.959Z</time></trkpt><trkpt lat="44.4008751" lon="11.541549"><ele>126.0</ele><time>2026-05-01T10:44:55.974Z</time></trkpt><trkpt lat="44.4008095" lon="11.5415437"><ele>126.0</ele><time>2026-05-01T10:45:00.973Z</time></trkpt><trkpt lat="44.4007382" lon="11.5415424"><ele>126.0</ele><time>2026-05-01T10:45:07.978Z</time></trkpt><trkpt lat="44.4006753" lon="11.5415223"><ele>126.0</ele><time>2026-05-01T10:45:13.978Z</time></trkpt><trkpt lat="44.4006107" lon="11.5415386"><ele>126.0</ele><time>2026-05-01T10:45:19.976Z</time></trkpt><trkpt lat="44.4005381" lon="11.5415576"><ele>127.0</ele><time>2026-05-01T10:45:25.978Z</time></trkpt><trkpt lat="44.4004645" lon="11.5415586"><ele>128.0</ele><time>2026-05-01T10:45:30.971Z</time></trkpt><trkpt lat="44.40039" lon="11.5415661"><ele>129.0</ele><time>2026-05-01T10:45:35.978Z</time></trkpt><trkpt lat="44.400325" lon="11.5415682"><ele>130.0</ele><time>2026-05-01T10:45:40.977Z</time></trkpt><trkpt lat="44.4002505" lon="11.541572"><ele>131.0</ele><time>2026-05-01T10:45:46.967Z</time></trkpt><trkpt lat="44.4001851" lon="11.5415675"><ele>132.0</ele><time>2026-05-01T10:45:51.981Z</time></trkpt><trkpt lat="44.4001202" lon="11.5416033"><ele>133.0</ele><time>2026-05-01T10:45:56.973Z</time></trkpt><trkpt lat="44.4000454" lon="11.5416225"><ele>133.0</ele><time>2026-05-01T10:46:01.971Z</time></trkpt><trkpt lat="44.3999779" lon="11.5416435"><ele>133.0</ele><time>2026-05-01T10:46:06.978Z</time></trkpt><trkpt lat="44.3999184" lon="11.5416752"><ele>133.0</ele><time>2026-05-01T10:46:10.989Z</time></trkpt><trkpt lat="44.3998487" lon="11.5417116"><ele>133.0</ele><time>2026-05-01T10:46:15.984Z</time></trkpt><trkpt lat="44.3997758" lon="11.5417416"><ele>133.0</ele><time>2026-05-01T10:46:20.978Z</time></trkpt><trkpt lat="44.3997106" lon="11.5417702"><ele>133.0</ele><time>2026-05-01T10:46:24.989Z</time></trkpt><trkpt lat="44.3996464" lon="11.5417987"><ele>133.0</ele><time>2026-05-01T10:46:28.971Z</time></trkpt><trkpt lat="44.3995802" lon="11.5418312"><ele>133.28571428571428</ele><time>2026-05-01T10:46:34.043Z</time></trkpt><trkpt lat="44.3995107" lon="11.5418616"><ele>133.57142857142856</ele><time>2026-05-01T10:46:38.967Z</time></trkpt><trkpt lat="44.399448" lon="11.5418899"><ele>133.85714285714286</ele><time>2026-05-01T10:46:42.971Z</time></trkpt><trkpt lat="44.3993764" lon="11.54193"><ele>134.14285714285714</ele><time>2026-05-01T10:46:47.967Z</time></trkpt><trkpt lat="44.3993169" lon="11.5419595"><ele>134.42857142857142</ele><time>2026-05-01T10:46:51.975Z</time></trkpt><trkpt lat="44.3992455" lon="11.5419953"><ele>134.71428571428572</ele><time>2026-05-01T10:46:56.975Z</time></trkpt><trkpt lat="44.3991834" lon="11.5420118"><ele>135.0</ele><time>2026-05-01T10:47:00.972Z</time></trkpt><trkpt lat="44.3991124" lon="11.5420404"><ele>135.71428571428572</ele><time>2026-05-01T10:47:04.954Z</time></trkpt><trkpt lat="44.3990469" lon="11.5420609"><ele>136.42857142857142</ele><time>2026-05-01T10:47:08.959Z</time></trkpt><trkpt lat="44.3989789" lon="11.5421019"><ele>137.14285714285714</ele><time>2026-05-01T10:47:12.972Z</time></trkpt><trkpt lat="44.3989103" lon="11.5421154"><ele>137.85714285714286</ele><time>2026-05-01T10:47:16.965Z</time></trkpt><trkpt lat="44.3988446" lon="11.5421397"><ele>138.57142857142856</ele><time>2026-05-01T10:47:20.97Z</time></trkpt><trkpt lat="44.398781" lon="11.542165"><ele>139.28571428571428</ele><time>2026-05-01T10:47:24.989Z</time></trkpt><trkpt lat="44.3987117" lon="11.5421796"><ele>140.0</ele><time>2026-05-01T10:47:29.04Z</time></trkpt><trkpt lat="44.3986478" lon="11.5422018"><ele>140.71428571428572</ele><time>2026-05-01T10:47:32.983Z</time></trkpt><trkpt lat="44.3985823" lon="11.5422212"><ele>141.42857142857144</ele><time>2026-05-01T10:47:36.984Z</time></trkpt><trkpt lat="44.3985069" lon="11.5422299"><ele>142.14285714285714</ele><time>2026-05-01T10:47:40.992Z</time></trkpt><trkpt lat="44.3984402" lon="11.542247"><ele>142.85714285714286</ele><time>2026-05-01T10:47:44.973Z</time></trkpt><trkpt lat="44.3983742" lon="11.5422582"><ele>143.57142857142858</ele><time>2026-05-01T10:47:49.029Z</time></trkpt><trkpt lat="44.3983033" lon="11.5422628"><ele>144.28571428571428</ele><time>2026-05-01T10:47:52.982Z</time></trkpt><trkpt lat="44.3982345" lon="11.5422826"><ele>145.0</ele><time>2026-05-01T10:47:56.967Z</time></trkpt><trkpt lat="44.398165" lon="11.5422953"><ele>145.0</ele><time>2026-05-01T10:48:00.981Z</time></trkpt><trkpt lat="44.3980928" lon="11.5423189"><ele>145.0</ele><time>2026-05-01T10:48:04.977Z</time></trkpt><trkpt lat="44.3980295" lon="11.5423559"><ele>145.0</ele><time>2026-05-01T10:48:08.975Z</time></trkpt><trkpt lat="44.3979592" lon="11.5424037"><ele>145.0</ele><time>2026-05-01T10:48:12.976Z</time></trkpt><trkpt lat="44.3978904" lon="11.5424575"><ele>145.0</ele><time>2026-05-01T10:48:16.974Z</time></trkpt><trkpt lat="44.3978238" lon="11.5424987"><ele>145.0</ele><time>2026-05-01T10:48:20.972Z</time></trkpt><trkpt lat="44.3977532" lon="11.5425396"><ele>145.0</ele><time>2026-05-01T10:48:24.974Z</time></trkpt><trkpt lat="44.3976934" lon="11.5425781"><ele>145.28571428571428</ele><time>2026-05-01T10:48:27.978Z</time></trkpt><trkpt lat="44.3976227" lon="11.5426159"><ele>145.57142857142858</ele><time>2026-05-01T10:48:30.976Z</time></trkpt><trkpt lat="44.3975538" lon="11.5426397"><ele>145.85714285714286</ele><time>2026-05-01T10:48:33.988Z</time></trkpt><trkpt lat="44.3974896" lon="11.5426781"><ele>146.14285714285714</ele><time>2026-05-01T10:48:36.983Z</time></trkpt><trkpt lat="44.3974293" lon="11.5427161"><ele>146.42857142857144</ele><time>2026-05-01T10:48:39.975Z</time></trkpt><trkpt lat="44.3973695" lon="11.5427469"><ele>146.71428571428572</ele><time>2026-05-01T10:48:42.979Z</time></trkpt><trkpt lat="44.3973102" lon="11.5427813"><ele>147.0</ele><time>2026-05-01T10:48:45.972Z</time></trkpt><trkpt lat="44.3972483" lon="11.5428137"><ele>147.0</ele><time>2026-05-01T10:48:48.975Z</time></trkpt><trkpt lat="44.3971719" lon="11.5428545"><ele>147.0</ele><time>2026-05-01T10:48:52.984Z</time></trkpt><trkpt lat="44.3970942" lon="11.5428746"><ele>147.0</ele><time>2026-05-01T10:48:56.985Z</time></trkpt><trkpt lat="44.3970227" lon="11.5428976"><ele>147.0</ele><time>2026-05-01T10:49:00.983Z</time></trkpt><trkpt lat="44.3969465" lon="11.5428956"><ele>147.0</ele><time>2026-05-01T10:49:04.98Z</time></trkpt><trkpt lat="44.3968667" lon="11.5428862"><ele>147.0</ele><time>2026-05-01T10:49:08.98Z</time></trkpt><trkpt lat="44.3967965" lon="11.5428841"><ele>147.5</ele><time>2026-05-01T10:49:12.986Z</time></trkpt><trkpt lat="44.3967189" lon="11.5428793"><ele>148.0</ele><time>2026-05-01T10:49:16.977Z</time></trkpt><trkpt lat="44.3966398" lon="11.5428888"><ele>148.5</ele><time>2026-05-01T10:49:20.985Z</time></trkpt><trkpt lat="44.3965629" lon="11.5428971"><ele>149.0</ele><time>2026-05-01T10:49:25.034Z</time></trkpt><trkpt lat="44.3964811" lon="11.542905"><ele>149.5</ele><time>2026-05-01T10:49:28.971Z</time></trkpt><trkpt lat="44.3964009" lon="11.5428976"><ele>150.0</ele><time>2026-05-01T10:49:32.968Z</time></trkpt><trkpt lat="44.3963371" lon="11.5428915"><ele>151.14285714285714</ele><time>2026-05-01T10:49:35.951Z</time></trkpt><trkpt lat="44.3962581" lon="11.54289"><ele>152.28571428571428</ele><time>2026-05-01T10:49:39.967Z</time></trkpt><trkpt lat="44.3961762" lon="11.5428764"><ele>153.42857142857144</ele><time>2026-05-01T10:49:43.961Z</time></trkpt><trkpt lat="44.3961029" lon="11.5428779"><ele>154.57142857142856</ele><time>2026-05-01T10:49:47.96Z</time></trkpt><trkpt lat="44.3960372" lon="11.5428631"><ele>155.71428571428572</ele><time>2026-05-01T10:49:51.961Z</time></trkpt><trkpt lat="44.3959578" lon="11.5428668"><ele>156.85714285714286</ele><time>2026-05-01T10:49:55.964Z</time></trkpt><trkpt lat="44.3958892" lon="11.5428655"><ele>158.0</ele><time>2026-05-01T10:49:58.961Z</time></trkpt><trkpt lat="44.3958227" lon="11.54286"><ele>158.00000000000003</ele><time>2026-05-01T10:50:01.963Z</time></trkpt><trkpt lat="44.3957573" lon="11.5428481"><ele>158.0</ele><time>2026-05-01T10:50:04.961Z</time></trkpt><trkpt lat="44.3956939" lon="11.5428361"><ele>158.0</ele><time>2026-05-01T10:50:07.965Z</time></trkpt><trkpt lat="44.3956238" lon="11.5428375"><ele>158.0</ele><time>2026-05-01T10:50:10.989Z</time></trkpt><trkpt lat="44.3955578" lon="11.5428324"><ele>158.0</ele><time>2026-05-01T10:50:13.981Z</time></trkpt><trkpt lat="44.3954928" lon="11.5428332"><ele>158.00000000000003</ele><time>2026-05-01T10:50:16.972Z</time></trkpt><trkpt lat="44.3954287" lon="11.5428142"><ele>158.0</ele><time>2026-05-01T10:50:19.968Z</time></trkpt><trkpt lat="44.3953651" lon="11.5428142"><ele>158.85714285714286</ele><time>2026-05-01T10:50:22.971Z</time></trkpt><trkpt lat="44.3953019" lon="11.5427935"><ele>159.71428571428572</ele><time>2026-05-01T10:50:25.985Z</time></trkpt><trkpt lat="44.3952361" lon="11.5427762"><ele>160.57142857142856</ele><time>2026-05-01T10:50:28.986Z</time></trkpt><trkpt lat="44.3951615" lon="11.5427358"><ele>161.42857142857144</ele><time>2026-05-01T10:50:32.98Z</time></trkpt><trkpt lat="44.3951033" lon="11.5427006"><ele>162.28571428571428</ele><time>2026-05-01T10:50:35.975Z</time></trkpt><trkpt lat="44.3950286" lon="11.5426862"><ele>163.14285714285714</ele><time>2026-05-01T10:50:39.975Z</time></trkpt><trkpt lat="44.3949623" lon="11.542671"><ele>164.0</ele><time>2026-05-01T10:50:42.969Z</time></trkpt><trkpt lat="44.3949011" lon="11.5426474"><ele>163.99999999999997</ele><time>2026-05-01T10:50:45.97Z</time></trkpt><trkpt lat="44.3948408" lon="11.5426187"><ele>164.0</ele><time>2026-05-01T10:50:49.963Z</time></trkpt><trkpt lat="44.3947664" lon="11.5426027"><ele>164.0</ele><time>2026-05-01T10:50:53.965Z</time></trkpt><trkpt lat="44.3946923" lon="11.5425807"><ele>164.0</ele><time>2026-05-01T10:50:57.975Z</time></trkpt><trkpt lat="44.394622" lon="11.5425552"><ele>164.0</ele><time>2026-05-01T10:51:01.968Z</time></trkpt><trkpt lat="44.3945477" lon="11.54253"><ele>163.99999999999997</ele><time>2026-05-01T10:51:05.972Z</time></trkpt><trkpt lat="44.3944865" lon="11.542484"><ele>164.0</ele><time>2026-05-01T10:51:09.964Z</time></trkpt><trkpt lat="44.3944198" lon="11.5424597"><ele>165.28571428571428</ele><time>2026-05-01T10:51:13.977Z</time></trkpt><trkpt lat="44.3943538" lon="11.5424349"><ele>166.57142857142856</ele><time>2026-05-01T10:51:16.968Z</time></trkpt><trkpt lat="44.3942847" lon="11.542419"><ele>167.85714285714283</ele><time>2026-05-01T10:51:20.03Z</time></trkpt><trkpt lat="44.3942169" lon="11.5424061"><ele>169.14285714285714</ele><time>2026-05-01T10:51:22.97Z</time></trkpt><trkpt lat="44.3941526" lon="11.5423804"><ele>170.42857142857144</ele><time>2026-05-01T10:51:25.966Z</time></trkpt><trkpt lat="44.394082" lon="11.5423646"><ele>171.7142857142857</ele><time>2026-05-01T10:51:28.968Z</time></trkpt><trkpt lat="44.3940067" lon="11.542331"><ele>173.0</ele><time>2026-05-01T10:51:31.972Z</time></trkpt><trkpt lat="44.3939297" lon="11.5423137"><ele>173.0</ele><time>2026-05-01T10:51:34.965Z</time></trkpt><trkpt lat="44.3938585" lon="11.5422885"><ele>173.0</ele><time>2026-05-01T10:51:37.972Z</time></trkpt><trkpt lat="44.3937839" lon="11.5422602"><ele>173.0</ele><time>2026-05-01T10:51:40.973Z</time></trkpt><trkpt lat="44.3937094" lon="11.5422248"><ele>173.0</ele><time>2026-05-01T10:51:43.967Z</time></trkpt><trkpt lat="44.3936397" lon="11.5421925"><ele>173.0</ele><time>2026-05-01T10:51:46.998Z</time></trkpt><trkpt lat="44.3935681" lon="11.5421752"><ele>173.0</ele><time>2026-05-01T10:51:49.967Z</time></trkpt><trkpt lat="44.3934952" lon="11.542161"><ele>173.0</ele><time>2026-05-01T10:51:52.966Z</time></trkpt><trkpt lat="44.3934219" lon="11.5421263"><ele>173.57142857142856</ele><time>2026-05-01T10:51:56.969Z</time></trkpt><trkpt lat="44.3933569" lon="11.5421076"><ele>174.14285714285717</ele><time>2026-05-01T10:52:00.966Z</time></trkpt><trkpt lat="44.3932869" lon="11.5420895"><ele>174.71428571428572</ele><time>2026-05-01T10:52:06.971Z</time></trkpt><trkpt lat="44.3932233" lon="11.5420887"><ele>175.28571428571428</ele><time>2026-05-01T10:52:12.984Z</time></trkpt><trkpt lat="44.3931507" lon="11.5420995"><ele>175.85714285714283</ele><time>2026-05-01T10:52:17.967Z</time></trkpt><trkpt lat="44.3930798" lon="11.5421127"><ele>176.42857142857144</ele><time>2026-05-01T10:52:22.968Z</time></trkpt><trkpt lat="44.3930202" lon="11.5421423"><ele>177.0</ele><time>2026-05-01T10:52:26.966Z</time></trkpt><trkpt lat="44.3929493" lon="11.5421717"><ele>177.85714285714286</ele><time>2026-05-01T10:52:31.97Z</time></trkpt><trkpt lat="44.3928718" lon="11.5421912"><ele>178.7142857142857</ele><time>2026-05-01T10:52:35.97Z</time></trkpt><trkpt lat="44.392796" lon="11.5422307"><ele>179.57142857142856</ele><time>2026-05-01T10:52:40.972Z</time></trkpt><trkpt lat="44.3927284" lon="11.5422618"><ele>180.42857142857144</ele><time>2026-05-01T10:52:44.971Z</time></trkpt><trkpt lat="44.3926624" lon="11.5422884"><ele>181.28571428571428</ele><time>2026-05-01T10:52:49.031Z</time></trkpt><trkpt lat="44.3926012" lon="11.5423143"><ele>182.14285714285714</ele><time>2026-05-01T10:52:52.966Z</time></trkpt><trkpt lat="44.3925369" lon="11.5423389"><ele>183.0</ele><time>2026-05-01T10:52:56.972Z</time></trkpt><trkpt lat="44.3924688" lon="11.5423729"><ele>183.0</ele><time>2026-05-01T10:53:00.972Z</time></trkpt><trkpt lat="44.392397" lon="11.5424086"><ele>183.0</ele><time>2026-05-01T10:53:05.963Z</time></trkpt><trkpt lat="44.3923361" lon="11.5424444"><ele>183.0</ele><time>2026-05-01T10:53:10.03Z</time></trkpt><trkpt lat="44.392276" lon="11.5424937"><ele>183.0</ele><time>2026-05-01T10:53:14.969Z</time></trkpt><trkpt lat="44.3922087" lon="11.5425296"><ele>183.0</ele><time>2026-05-01T10:53:20.96Z</time></trkpt><trkpt lat="44.3921702" lon="11.5426011"><ele>183.0</ele><time>2026-05-01T10:53:29.97Z</time></trkpt><trkpt lat="44.3922316" lon="11.542626"><ele>183.0</ele><time>2026-05-01T10:53:36.968Z</time></trkpt><trkpt lat="44.392182" lon="11.5425648"><ele>183.85714285714286</ele><time>2026-05-01T10:54:24.961Z</time></trkpt><trkpt lat="44.3921137" lon="11.5425338"><ele>184.71428571428572</ele><time>2026-05-01T10:54:28.964Z</time></trkpt><trkpt lat="44.3920325" lon="11.5424977"><ele>185.57142857142856</ele><time>2026-05-01T10:54:32.986Z</time></trkpt><trkpt lat="44.3919588" lon="11.5424703"><ele>186.42857142857144</ele><time>2026-05-01T10:54:36.976Z</time></trkpt><trkpt lat="44.3918797" lon="11.5424642"><ele>187.28571428571428</ele><time>2026-05-01T10:54:40.963Z</time></trkpt><trkpt lat="44.3918158" lon="11.542464"><ele>188.14285714285714</ele><time>2026-05-01T10:54:43.986Z</time></trkpt><trkpt lat="44.3917512" lon="11.5424509"><ele>189.0</ele><time>2026-05-01T10:54:47.978Z</time></trkpt><trkpt lat="44.3916856" lon="11.5423986"><ele>189.0</ele><time>2026-05-01T10:56:43.977Z</time></trkpt><trkpt lat="44.3916196" lon="11.5424072"><ele>189.0</ele><time>2026-05-01T10:56:46.977Z</time></trkpt><trkpt lat="44.3915559" lon="11.5424154"><ele>189.0</ele><time>2026-05-01T10:56:49.982Z</time></trkpt><trkpt lat="44.3914876" lon="11.542434"><ele>189.0</ele><time>2026-05-01T10:56:52.977Z</time></trkpt><trkpt lat="44.391408" lon="11.542448"><ele>189.0</ele><time>2026-05-01T10:56:55.983Z</time></trkpt><trkpt lat="44.3913313" lon="11.54249"><ele>189.0</ele><time>2026-05-01T10:56:58.971Z</time></trkpt><trkpt lat="44.3912592" lon="11.5425646"><ele>188.66666666666666</ele><time>2026-05-01T10:57:01.987Z</time></trkpt><trkpt lat="44.3912046" lon="11.5426157"><ele>188.33333333333334</ele><time>2026-05-01T10:57:03.984Z</time></trkpt><trkpt lat="44.3911487" lon="11.5426619"><ele>188.0</ele><time>2026-05-01T10:57:05.968Z</time></trkpt><trkpt lat="44.3910798" lon="11.5427395"><ele>187.66666666666669</ele><time>2026-05-01T10:57:08.972Z</time></trkpt><trkpt lat="44.3909996" lon="11.5428039"><ele>187.33333333333334</ele><time>2026-05-01T10:57:11.977Z</time></trkpt><trkpt lat="44.3909298" lon="11.5428475"><ele>187.0</ele><time>2026-05-01T10:57:13.981Z</time></trkpt><trkpt lat="44.3908631" lon="11.5428722"><ele>187.0</ele><time>2026-05-01T10:57:15.959Z</time></trkpt><trkpt lat="44.3907993" lon="11.5428724"><ele>187.0</ele><time>2026-05-01T10:57:17.96Z</time></trkpt><trkpt lat="44.3907381" lon="11.5428509"><ele>187.0</ele><time>2026-05-01T10:57:19.959Z</time></trkpt><trkpt lat="44.3906618" lon="11.5428142"><ele>187.0</ele><time>2026-05-01T10:57:22.963Z</time></trkpt><trkpt lat="44.3905789" lon="11.542783"><ele>187.0</ele><time>2026-05-01T10:57:25.978Z</time></trkpt><trkpt lat="44.3905025" lon="11.5427488"><ele>187.0</ele><time>2026-05-01T10:57:28.984Z</time></trkpt><trkpt lat="44.3904313" lon="11.5427258"><ele>187.0</ele><time>2026-05-01T10:57:31.981Z</time></trkpt><trkpt lat="44.3903555" lon="11.5427086"><ele>187.42857142857142</ele><time>2026-05-01T10:57:34.979Z</time></trkpt><trkpt lat="44.3902804" lon="11.5426887"><ele>187.85714285714286</ele><time>2026-05-01T10:57:37.973Z</time></trkpt><trkpt lat="44.3902114" lon="11.542662"><ele>188.28571428571428</ele><time>2026-05-01T10:57:40.973Z</time></trkpt><trkpt lat="44.3901312" lon="11.5426477"><ele>188.71428571428572</ele><time>2026-05-01T10:57:43.966Z</time></trkpt><trkpt lat="44.3900681" lon="11.5426501"><ele>189.14285714285717</ele><time>2026-05-01T10:57:46.969Z</time></trkpt><trkpt lat="44.3899992" lon="11.5426672"><ele>189.57142857142858</ele><time>2026-05-01T10:57:53.961Z</time></trkpt><trkpt lat="44.3899301" lon="11.5426863"><ele>190.0</ele><time>2026-05-01T10:57:57.97Z</time></trkpt><trkpt lat="44.3898676" lon="11.5427112"><ele>190.0</ele><time>2026-05-01T10:58:02.979Z</time></trkpt><trkpt lat="44.3897901" lon="11.5427323"><ele>190.0</ele><time>2026-05-01T10:58:08.044Z</time></trkpt><trkpt lat="44.3897149" lon="11.5427505"><ele>190.0</ele><time>2026-05-01T10:58:11.978Z</time></trkpt><trkpt lat="44.3896329" lon="11.5427468"><ele>190.0</ele><time>2026-05-01T10:58:15.982Z</time></trkpt><trkpt lat="44.3895607" lon="11.5427737"><ele>190.0</ele><time>2026-05-01T10:58:19.967Z</time></trkpt><trkpt lat="44.3894844" lon="11.5427992"><ele>190.0</ele><time>2026-05-01T10:58:23.972Z</time></trkpt><trkpt lat="44.3894214" lon="11.5428049"><ele>190.5</ele><time>2026-05-01T10:58:26.98Z</time></trkpt><trkpt lat="44.3893429" lon="11.5428261"><ele>191.0</ele><time>2026-05-01T10:58:30.977Z</time></trkpt><trkpt lat="44.3892631" lon="11.5428411"><ele>191.5</ele><time>2026-05-01T10:58:34.998Z</time></trkpt><trkpt lat="44.389188" lon="11.5428591"><ele>192.0</ele><time>2026-05-01T10:58:38.969Z</time></trkpt><trkpt lat="44.3891151" lon="11.5428753"><ele>192.49999999999997</ele><time>2026-05-01T10:58:42.976Z</time></trkpt><trkpt lat="44.3890466" lon="11.5428948"><ele>193.0</ele><time>2026-05-01T10:58:45.976Z</time></trkpt><trkpt lat="44.388978" lon="11.5429118"><ele>193.71428571428572</ele><time>2026-05-01T10:58:48.977Z</time></trkpt><trkpt lat="44.3889065" lon="11.5429207"><ele>194.42857142857144</ele><time>2026-05-01T10:58:51.977Z</time></trkpt><trkpt lat="44.3888324" lon="11.5429392"><ele>195.14285714285717</ele><time>2026-05-01T10:58:55.965Z</time></trkpt><trkpt lat="44.3887513" lon="11.5429746"><ele>195.85714285714286</ele><time>2026-05-01T10:58:59.977Z</time></trkpt><trkpt lat="44.3886772" lon="11.5430024"><ele>196.57142857142856</ele><time>2026-05-01T10:59:03.974Z</time></trkpt><trkpt lat="44.3886129" lon="11.5430291"><ele>197.2857142857143</ele><time>2026-05-01T10:59:08.983Z</time></trkpt><trkpt lat="44.3885488" lon="11.5430496"><ele>198.0</ele><time>2026-05-01T10:59:12.97Z</time></trkpt><trkpt lat="44.3884743" lon="11.5430657"><ele>199.0</ele><time>2026-05-01T10:59:17.986Z</time></trkpt><trkpt lat="44.3884007" lon="11.5430988"><ele>200.0</ele><time>2026-05-01T10:59:22.985Z</time></trkpt><trkpt lat="44.3883332" lon="11.5431053"><ele>201.0</ele><time>2026-05-01T10:59:26.984Z</time></trkpt><trkpt lat="44.3882703" lon="11.5431155"><ele>202.0</ele><time>2026-05-01T10:59:31.98Z</time></trkpt><trkpt lat="44.3881964" lon="11.5431061"><ele>203.0</ele><time>2026-05-01T10:59:38.972Z</time></trkpt><trkpt lat="44.388121" lon="11.5431149"><ele>204.0</ele><time>2026-05-01T10:59:43.971Z</time></trkpt><trkpt lat="44.3880494" lon="11.5431392"><ele>205.0</ele><time>2026-05-01T10:59:48.965Z</time></trkpt><trkpt lat="44.387971" lon="11.5431589"><ele>206.14285714285714</ele><time>2026-05-01T10:59:53.96Z</time></trkpt><trkpt lat="44.3879074" lon="11.5431938"><ele>207.28571428571428</ele><time>2026-05-01T10:59:58.961Z</time></trkpt><trkpt lat="44.387834" lon="11.5432131"><ele>208.42857142857142</ele><time>2026-05-01T11:00:02.972Z</time></trkpt><trkpt lat="44.3877618" lon="11.5432311"><ele>209.57142857142856</ele><time>2026-05-01T11:00:06.973Z</time></trkpt><trkpt lat="44.3876934" lon="11.5432563"><ele>210.71428571428572</ele><time>2026-05-01T11:00:10.964Z</time></trkpt><trkpt lat="44.3876232" lon="11.5432804"><ele>211.85714285714283</ele><time>2026-05-01T11:00:15.972Z</time></trkpt><trkpt lat="44.3875457" lon="11.5433032"><ele>213.0</ele><time>2026-05-01T11:00:20.984Z</time></trkpt><trkpt lat="44.3874837" lon="11.5433355"><ele>213.0</ele><time>2026-05-01T11:00:23.969Z</time></trkpt><trkpt lat="44.3874194" lon="11.5433551"><ele>213.0</ele><time>2026-05-01T11:00:26.96Z</time></trkpt><trkpt lat="44.3873397" lon="11.5433743"><ele>213.0</ele><time>2026-05-01T11:00:30.976Z</time></trkpt><trkpt lat="44.3872663" lon="11.543395"><ele>213.0</ele><time>2026-05-01T11:00:33.959Z</time></trkpt><trkpt lat="44.3871915" lon="11.5434068"><ele>213.0</ele><time>2026-05-01T11:00:36.982Z</time></trkpt><trkpt lat="44.3871123" lon="11.5434073"><ele>213.0</ele><time>2026-05-01T11:00:39.985Z</time></trkpt><trkpt lat="44.3870368" lon="11.5433949"><ele>213.16666666666666</ele><time>2026-05-01T11:00:42.99Z</time></trkpt><trkpt lat="44.3869464" lon="11.5433755"><ele>213.33333333333331</ele><time>2026-05-01T11:00:45.973Z</time></trkpt><trkpt lat="44.3868649" lon="11.5433478"><ele>213.5</ele><time>2026-05-01T11:00:48.975Z</time></trkpt><trkpt lat="44.386781" lon="11.5433184"><ele>213.66666666666666</ele><time>2026-05-01T11:00:51.963Z</time></trkpt><trkpt lat="44.3866955" lon="11.543283"><ele>213.83333333333331</ele><time>2026-05-01T11:00:54.958Z</time></trkpt><trkpt lat="44.3866119" lon="11.5432699"><ele>214.0</ele><time>2026-05-01T11:00:57.96Z</time></trkpt><trkpt lat="44.3865275" lon="11.5432224"><ele>214.00000000000003</ele><time>2026-05-01T11:01:00.978Z</time></trkpt><trkpt lat="44.3864492" lon="11.5432103"><ele>214.0</ele><time>2026-05-01T11:01:03.958Z</time></trkpt><trkpt lat="44.386386" lon="11.5431804"><ele>214.0</ele><time>2026-05-01T11:01:06.973Z</time></trkpt><trkpt lat="44.3863043" lon="11.543156"><ele>214.0</ele><time>2026-05-01T11:01:10.962Z</time></trkpt><trkpt lat="44.3862341" lon="11.5431297"><ele>214.0</ele><time>2026-05-01T11:01:13.966Z</time></trkpt><trkpt lat="44.3861677" lon="11.5431308"><ele>214.00000000000003</ele><time>2026-05-01T11:01:16.963Z</time></trkpt><trkpt lat="44.3861041" lon="11.5431056"><ele>214.0</ele><time>2026-05-01T11:01:19.96Z</time></trkpt><trkpt lat="44.3860397" lon="11.5430696"><ele>214.57142857142858</ele><time>2026-05-01T11:01:22.965Z</time></trkpt><trkpt lat="44.3859804" lon="11.543039"><ele>215.14285714285714</ele><time>2026-05-01T11:01:25.957Z</time></trkpt><trkpt lat="44.3859188" lon="11.5430205"><ele>215.71428571428572</ele><time>2026-05-01T11:01:28.958Z</time></trkpt><trkpt lat="44.385842" lon="11.5429907"><ele>216.28571428571428</ele><time>2026-05-01T11:01:32.965Z</time></trkpt><trkpt lat="44.3857675" lon="11.5429727"><ele>216.85714285714286</ele><time>2026-05-01T11:01:36.966Z</time></trkpt><trkpt lat="44.3856968" lon="11.5429926"><ele>217.42857142857144</ele><time>2026-05-01T11:01:40.962Z</time></trkpt><trkpt lat="44.3856347" lon="11.5430227"><ele>218.0</ele><time>2026-05-01T11:01:45.975Z</time></trkpt><trkpt lat="44.3855653" lon="11.5430137"><ele>218.14285714285714</ele><time>2026-05-01T11:01:50.957Z</time></trkpt><trkpt lat="44.385495" lon="11.5430025"><ele>218.28571428571428</ele><time>2026-05-01T11:01:55.986Z</time></trkpt><trkpt lat="44.3854226" lon="11.5429834"><ele>218.42857142857144</ele><time>2026-05-01T11:02:00.965Z</time></trkpt><trkpt lat="44.3853563" lon="11.5429596"><ele>218.57142857142856</ele><time>2026-05-01T11:02:04.972Z</time></trkpt><trkpt lat="44.3852967" lon="11.5429292"><ele>218.7142857142857</ele><time>2026-05-01T11:02:09.956Z</time></trkpt><trkpt lat="44.3852361" lon="11.5428902"><ele>218.85714285714286</ele><time>2026-05-01T11:02:13.978Z</time></trkpt><trkpt lat="44.3851752" lon="11.542823"><ele>219.0</ele><time>2026-05-01T11:02:16.956Z</time></trkpt><trkpt lat="44.3851172" lon="11.5427828"><ele>219.0</ele><time>2026-05-01T11:02:20.961Z</time></trkpt><trkpt lat="44.385052" lon="11.5427344"><ele>219.0</ele><time>2026-05-01T11:02:24.961Z</time></trkpt><trkpt lat="44.3849874" lon="11.5427278"><ele>219.0</ele><time>2026-05-01T11:02:28.968Z</time></trkpt><trkpt lat="44.3849193" lon="11.5427283"><ele>219.0</ele><time>2026-05-01T11:02:32.968Z</time></trkpt><trkpt lat="44.384847" lon="11.5427183"><ele>219.0</ele><time>2026-05-01T11:02:36.966Z</time></trkpt><trkpt lat="44.3847805" lon="11.5427104"><ele>219.0</ele><time>2026-05-01T11:02:40.96Z</time></trkpt><trkpt lat="44.3847158" lon="11.5427032"><ele>219.0</ele><time>2026-05-01T11:02:44.975Z</time></trkpt><trkpt lat="44.3846414" lon="11.5427116"><ele>219.85714285714286</ele><time>2026-05-01T11:02:48.958Z</time></trkpt><trkpt lat="44.3845632" lon="11.542716"><ele>220.71428571428572</ele><time>2026-05-01T11:02:52.96Z</time></trkpt><trkpt lat="44.3844997" lon="11.5427153"><ele>221.57142857142858</ele><time>2026-05-01T11:02:55.97Z</time></trkpt><trkpt lat="44.3844218" lon="11.5427306"><ele>222.42857142857144</ele><time>2026-05-01T11:02:59.976Z</time></trkpt><trkpt lat="44.3843392" lon="11.5427368"><ele>223.28571428571428</ele><time>2026-05-01T11:03:03.982Z</time></trkpt><trkpt lat="44.3842734" lon="11.5427424"><ele>224.14285714285717</ele><time>2026-05-01T11:03:06.981Z</time></trkpt><trkpt lat="44.3842067" lon="11.5427406"><ele>225.00000000000003</ele><time>2026-05-01T11:03:09.975Z</time></trkpt><trkpt lat="44.3841368" lon="11.5427438"><ele>225.0</ele><time>2026-05-01T11:03:12.978Z</time></trkpt><trkpt lat="44.3840683" lon="11.5427515"><ele>225.0</ele><time>2026-05-01T11:03:15.969Z</time></trkpt><trkpt lat="44.3839939" lon="11.5427543"><ele>225.0</ele><time>2026-05-01T11:03:18.974Z</time></trkpt><trkpt lat="44.383918" lon="11.5427343"><ele>225.0</ele><time>2026-05-01T11:03:21.972Z</time></trkpt><trkpt lat="44.3838372" lon="11.5427015"><ele>225.0</ele><time>2026-05-01T11:03:24.968Z</time></trkpt><trkpt lat="44.3837569" lon="11.5426524"><ele>225.0</ele><time>2026-05-01T11:03:27.961Z</time></trkpt><trkpt lat="44.3836984" lon="11.5426075"><ele>225.33333333333334</ele><time>2026-05-01T11:03:29.977Z</time></trkpt><trkpt lat="44.3836046" lon="11.5425443"><ele>225.66666666666669</ele><time>2026-05-01T11:03:32.964Z</time></trkpt><trkpt lat="44.3835341" lon="11.5424984"><ele>226.0</ele><time>2026-05-01T11:03:34.955Z</time></trkpt><trkpt lat="44.3834709" lon="11.5424428"><ele>226.33333333333334</ele><time>2026-05-01T11:03:36.968Z</time></trkpt><trkpt lat="44.383398" lon="11.5423947"><ele>226.66666666666669</ele><time>2026-05-01T11:03:38.957Z</time></trkpt><trkpt lat="44.3833101" lon="11.5423656"><ele>227.0</ele><time>2026-05-01T11:03:40.958Z</time></trkpt><trkpt lat="44.3832343" lon="11.5423009"><ele>227.00000000000003</ele><time>2026-05-01T11:03:42.96Z</time></trkpt><trkpt lat="44.3831603" lon="11.5422575"><ele>227.0</ele><time>2026-05-01T11:03:44.988Z</time></trkpt><trkpt lat="44.38308" lon="11.5422098"><ele>227.0</ele><time>2026-05-01T11:03:46.968Z</time></trkpt><trkpt lat="44.3829982" lon="11.5421783"><ele>227.0</ele><time>2026-05-01T11:03:48.974Z</time></trkpt><trkpt lat="44.3829011" lon="11.5421718"><ele>227.00000000000003</ele><time>2026-05-01T11:03:50.984Z</time></trkpt><trkpt lat="44.3828064" lon="11.5421952"><ele>227.0</ele><time>2026-05-01T11:03:52.983Z</time></trkpt><trkpt lat="44.3827118" lon="11.542248"><ele>226.39999999999998</ele><time>2026-05-01T11:03:54.977Z</time></trkpt><trkpt lat="44.3826095" lon="11.5423038"><ele>225.79999999999998</ele><time>2026-05-01T11:03:56.98Z</time></trkpt><trkpt lat="44.3824967" lon="11.5423641"><ele>225.2</ele><time>2026-05-01T11:03:58.98Z</time></trkpt><trkpt lat="44.3823819" lon="11.5424359"><ele>224.6</ele><time>2026-05-01T11:04:00.976Z</time></trkpt><trkpt lat="44.3823245" lon="11.5424781"><ele>224.0</ele><time>2026-05-01T11:04:01.973Z</time></trkpt><trkpt lat="44.3822636" lon="11.5425097"><ele>224.00000000000003</ele><time>2026-05-01T11:04:02.977Z</time></trkpt><trkpt lat="44.3822014" lon="11.542545"><ele>224.0</ele><time>2026-05-01T11:04:03.976Z</time></trkpt><trkpt lat="44.3821402" lon="11.5425816"><ele>224.0</ele><time>2026-05-01T11:04:04.985Z</time></trkpt><trkpt lat="44.3820788" lon="11.5426163"><ele>224.0</ele><time>2026-05-01T11:04:05.977Z</time></trkpt><trkpt lat="44.3820192" lon="11.542651"><ele>224.00000000000003</ele><time>2026-05-01T11:04:06.975Z</time></trkpt><trkpt lat="44.3819614" lon="11.5426919"><ele>224.0</ele><time>2026-05-01T11:04:07.984Z</time></trkpt><trkpt lat="44.3818493" lon="11.5427618"><ele>224.6</ele><time>2026-05-01T11:04:09.98Z</time></trkpt><trkpt lat="44.3817421" lon="11.542823"><ele>225.2</ele><time>2026-05-01T11:04:11.993Z</time></trkpt><trkpt lat="44.3816404" lon="11.5428722"><ele>225.79999999999998</ele><time>2026-05-01T11:04:13.962Z</time></trkpt><trkpt lat="44.3815389" lon="11.5429147"><ele>226.39999999999998</ele><time>2026-05-01T11:04:15.967Z</time></trkpt><trkpt lat="44.3814479" lon="11.5429671"><ele>227.0</ele><time>2026-05-01T11:04:17.97Z</time></trkpt><trkpt lat="44.3813598" lon="11.5430172"><ele>226.66666666666669</ele><time>2026-05-01T11:04:19.979Z</time></trkpt><trkpt lat="44.3812749" lon="11.5430679"><ele>226.33333333333334</ele><time>2026-05-01T11:04:21.979Z</time></trkpt><trkpt lat="44.3811873" lon="11.5431118"><ele>226.0</ele><time>2026-05-01T11:04:23.981Z</time></trkpt><trkpt lat="44.3811105" lon="11.5431534"><ele>225.66666666666669</ele><time>2026-05-01T11:04:25.973Z</time></trkpt><trkpt lat="44.3810387" lon="11.5431908"><ele>225.33333333333334</ele><time>2026-05-01T11:04:27.98Z</time></trkpt><trkpt lat="44.3809701" lon="11.5432291"><ele>225.0</ele><time>2026-05-01T11:04:29.977Z</time></trkpt><trkpt lat="44.3809012" lon="11.5432718"><ele>225.0</ele><time>2026-05-01T11:04:31.977Z</time></trkpt><trkpt lat="44.3808397" lon="11.5433108"><ele>225.0</ele><time>2026-05-01T11:04:33.973Z</time></trkpt><trkpt lat="44.3807804" lon="11.5433501"><ele>225.0</ele><time>2026-05-01T11:04:35.98Z</time></trkpt><trkpt lat="44.3807207" lon="11.543389"><ele>225.0</ele><time>2026-05-01T11:04:37.98Z</time></trkpt><trkpt lat="44.3806368" lon="11.5434407"><ele>225.0</ele><time>2026-05-01T11:04:40.988Z</time></trkpt><trkpt lat="44.3805535" lon="11.5435032"><ele>225.0</ele><time>2026-05-01T11:04:43.969Z</time></trkpt><trkpt lat="44.3804722" lon="11.5435606"><ele>225.5</ele><time>2026-05-01T11:04:46.974Z</time></trkpt><trkpt lat="44.3803847" lon="11.5436057"><ele>226.0</ele><time>2026-05-01T11:04:49.971Z</time></trkpt><trkpt lat="44.3803055" lon="11.5436508"><ele>226.5</ele><time>2026-05-01T11:04:52.976Z</time></trkpt><trkpt lat="44.3802293" lon="11.5437004"><ele>227.0</ele><time>2026-05-01T11:04:55.978Z</time></trkpt><trkpt lat="44.3801635" lon="11.5437333"><ele>227.5</ele><time>2026-05-01T11:04:58.979Z</time></trkpt><trkpt lat="44.3800955" lon="11.5437766"><ele>228.0</ele><time>2026-05-01T11:05:01.991Z</time></trkpt><trkpt lat="44.3800245" lon="11.5438028"><ele>228.0</ele><time>2026-05-01T11:05:04.966Z</time></trkpt><trkpt lat="44.3799611" lon="11.5438448"><ele>227.99999999999997</ele><time>2026-05-01T11:05:07.988Z</time></trkpt><trkpt lat="44.3798965" lon="11.5438878"><ele>228.0</ele><time>2026-05-01T11:05:10.968Z</time></trkpt><trkpt lat="44.3798315" lon="11.5439173"><ele>228.0</ele><time>2026-05-01T11:05:13.972Z</time></trkpt><trkpt lat="44.3797769" lon="11.5439795"><ele>227.99999999999997</ele><time>2026-05-01T11:05:16.966Z</time></trkpt><trkpt lat="44.3797079" lon="11.5440372"><ele>228.0</ele><time>2026-05-01T11:05:19.976Z</time></trkpt><trkpt lat="44.3796397" lon="11.5441021"><ele>228.0</ele><time>2026-05-01T11:05:22.981Z</time></trkpt><trkpt lat="44.3795829" lon="11.5441674"><ele>229.33333333333334</ele><time>2026-05-01T11:05:25.97Z</time></trkpt><trkpt lat="44.3795217" lon="11.5442321"><ele>230.66666666666669</ele><time>2026-05-01T11:05:28.972Z</time></trkpt><trkpt lat="44.3794581" lon="11.5442862"><ele>232.0</ele><time>2026-05-01T11:05:31.967Z</time></trkpt><trkpt lat="44.3793966" lon="11.5443487"><ele>233.33333333333334</ele><time>2026-05-01T11:05:34.977Z</time></trkpt><trkpt lat="44.3793468" lon="11.5444174"><ele>234.66666666666669</ele><time>2026-05-01T11:05:37.961Z</time></trkpt><trkpt lat="44.3792936" lon="11.5444989"><ele>236.0</ele><time>2026-05-01T11:05:40.973Z</time></trkpt><trkpt lat="44.3792305" lon="11.5445683"><ele>236.0</ele><time>2026-05-01T11:05:43.979Z</time></trkpt><trkpt lat="44.3791668" lon="11.5446196"><ele>236.0</ele><time>2026-05-01T11:05:46.983Z</time></trkpt><trkpt lat="44.3791099" lon="11.5446788"><ele>236.0</ele><time>2026-05-01T11:05:49.97Z</time></trkpt><trkpt lat="44.3790552" lon="11.5447432"><ele>236.0</ele><time>2026-05-01T11:05:52.985Z</time></trkpt><trkpt lat="44.3790018" lon="11.5447934"><ele>236.0</ele><time>2026-05-01T11:05:55.993Z</time></trkpt><trkpt lat="44.3789566" lon="11.5448591"><ele>236.0</ele><time>2026-05-01T11:05:58.979Z</time></trkpt><trkpt lat="44.3789108" lon="11.5449539"><ele>236.0</ele><time>2026-05-01T11:06:02.976Z</time></trkpt><trkpt lat="44.3788716" lon="11.5450292"><ele>236.0</ele><time>2026-05-01T11:06:05.97Z</time></trkpt><trkpt lat="44.378863" lon="11.5451185"><ele>236.0</ele><time>2026-05-01T11:06:08.979Z</time></trkpt><trkpt lat="44.3788832" lon="11.5452078"><ele>236.0</ele><time>2026-05-01T11:06:11.976Z</time></trkpt><trkpt lat="44.3789037" lon="11.5453038"><ele>236.0</ele><time>2026-05-01T11:06:14.966Z</time></trkpt><trkpt lat="44.3789275" lon="11.5453923"><ele>236.0</ele><time>2026-05-01T11:06:17.976Z</time></trkpt><trkpt lat="44.3789592" lon="11.5454917"><ele>236.0</ele><time>2026-05-01T11:06:21.979Z</time></trkpt><trkpt lat="44.3789977" lon="11.5455857"><ele>236.0</ele><time>2026-05-01T11:06:25.973Z</time></trkpt><trkpt lat="44.3790211" lon="11.5456691"><ele>236.71428571428572</ele><time>2026-05-01T11:06:28.986Z</time></trkpt><trkpt lat="44.3790532" lon="11.5457637"><ele>237.42857142857144</ele><time>2026-05-01T11:06:32.982Z</time></trkpt><trkpt lat="44.3790795" lon="11.5458668"><ele>238.14285714285717</ele><time>2026-05-01T11:06:36.99Z</time></trkpt><trkpt lat="44.3791142" lon="11.5459575"><ele>238.85714285714286</ele><time>2026-05-01T11:06:40.963Z</time></trkpt><trkpt lat="44.3791373" lon="11.546056"><ele>239.5714285714286</ele><time>2026-05-01T11:06:44.981Z</time></trkpt><trkpt lat="44.3791549" lon="11.5461537"><ele>240.2857142857143</ele><time>2026-05-01T11:06:50.961Z</time></trkpt><trkpt lat="44.3791718" lon="11.5462448"><ele>241.0</ele><time>2026-05-01T11:06:55.961Z</time></trkpt><trkpt lat="44.3791993" lon="11.5463507"><ele>242.16666666666666</ele><time>2026-05-01T11:07:00.967Z</time></trkpt><trkpt lat="44.379211" lon="11.5464504"><ele>243.33333333333331</ele><time>2026-05-01T11:07:04.958Z</time></trkpt><trkpt lat="44.3792253" lon="11.5465582"><ele>244.5</ele><time>2026-05-01T11:07:08.971Z</time></trkpt><trkpt lat="44.3792242" lon="11.5466663"><ele>245.66666666666669</ele><time>2026-05-01T11:07:12.966Z</time></trkpt><trkpt lat="44.3792377" lon="11.5467662"><ele>246.83333333333334</ele><time>2026-05-01T11:07:16.982Z</time></trkpt><trkpt lat="44.3792496" lon="11.5468823"><ele>248.0</ele><time>2026-05-01T11:07:20.964Z</time></trkpt><trkpt lat="44.3792517" lon="11.5469767"><ele>247.57142857142858</ele><time>2026-05-01T11:07:23.973Z</time></trkpt><trkpt lat="44.3792506" lon="11.5470807"><ele>247.14285714285717</ele><time>2026-05-01T11:07:26.97Z</time></trkpt><trkpt lat="44.3792313" lon="11.5471891"><ele>246.71428571428572</ele><time>2026-05-01T11:07:30.977Z</time></trkpt><trkpt lat="44.3792081" lon="11.5472754"><ele>246.28571428571428</ele><time>2026-05-01T11:07:33.966Z</time></trkpt><trkpt lat="44.379149" lon="11.5473401"><ele>245.85714285714286</ele><time>2026-05-01T11:07:37.957Z</time></trkpt><trkpt lat="44.3790722" lon="11.5473148"><ele>245.42857142857144</ele><time>2026-05-01T11:07:42.978Z</time></trkpt><trkpt lat="44.3790106" lon="11.5472577"><ele>245.0</ele><time>2026-05-01T11:07:46.968Z</time></trkpt><trkpt lat="44.3789483" lon="11.5472084"><ele>245.00000000000003</ele><time>2026-05-01T11:07:50.96Z</time></trkpt><trkpt lat="44.3788718" lon="11.5471715"><ele>245.0</ele><time>2026-05-01T11:07:54.975Z</time></trkpt><trkpt lat="44.378805" lon="11.547147"><ele>245.0</ele><time>2026-05-01T11:07:57.968Z</time></trkpt><trkpt lat="44.3787283" lon="11.5471387"><ele>245.0</ele><time>2026-05-01T11:08:00.959Z</time></trkpt><trkpt lat="44.37866" lon="11.5471322"><ele>245.00000000000003</ele><time>2026-05-01T11:08:02.98Z</time></trkpt><trkpt lat="44.3785789" lon="11.5471529"><ele>245.0</ele><time>2026-05-01T11:08:04.972Z</time></trkpt><trkpt lat="44.3784898" lon="11.5471839"><ele>246.16666666666669</ele><time>2026-05-01T11:08:06.993Z</time></trkpt><trkpt lat="44.3784076" lon="11.547221"><ele>247.33333333333334</ele><time>2026-05-01T11:08:08.986Z</time></trkpt><trkpt lat="44.3783248" lon="11.5472518"><ele>248.5</ele><time>2026-05-01T11:08:10.964Z</time></trkpt><trkpt lat="44.3782547" lon="11.5473025"><ele>249.66666666666669</ele><time>2026-05-01T11:08:12.977Z</time></trkpt><trkpt lat="44.3781939" lon="11.5473381"><ele>250.83333333333334</ele><time>2026-05-01T11:08:14.977Z</time></trkpt><trkpt lat="44.3781063" lon="11.5473709"><ele>252.0</ele><time>2026-05-01T11:08:17.963Z</time></trkpt><trkpt lat="44.3780253" lon="11.5473958"><ele>252.85714285714286</ele><time>2026-05-01T11:08:20.974Z</time></trkpt><trkpt lat="44.3779496" lon="11.547431"><ele>253.71428571428572</ele><time>2026-05-01T11:08:23.983Z</time></trkpt><trkpt lat="44.3778816" lon="11.5474435"><ele>254.57142857142856</ele><time>2026-05-01T11:08:26.972Z</time></trkpt><trkpt lat="44.3778139" lon="11.5474425"><ele>255.42857142857142</ele><time>2026-05-01T11:08:29.957Z</time></trkpt><trkpt lat="44.377745" lon="11.5474581"><ele>256.2857142857143</ele><time>2026-05-01T11:08:32.99Z</time></trkpt><trkpt lat="44.3776727" lon="11.5474805"><ele>257.1428571428571</ele><time>2026-05-01T11:08:35.987Z</time></trkpt><trkpt lat="44.3775924" lon="11.5474794"><ele>258.0</ele><time>2026-05-01T11:08:38.969Z</time></trkpt><trkpt lat="44.377506" lon="11.5474759"><ele>257.99999999999994</ele><time>2026-05-01T11:08:41.975Z</time></trkpt><trkpt lat="44.3774326" lon="11.5474704"><ele>258.0</ele><time>2026-05-01T11:08:44.974Z</time></trkpt><trkpt lat="44.3773638" lon="11.5474825"><ele>258.0</ele><time>2026-05-01T11:08:47.971Z</time></trkpt><trkpt lat="44.3772937" lon="11.5474852"><ele>258.0</ele><time>2026-05-01T11:08:50.969Z</time></trkpt><trkpt lat="44.3772137" lon="11.5474856"><ele>258.0</ele><time>2026-05-01T11:08:54.975Z</time></trkpt><trkpt lat="44.3771373" lon="11.5474713"><ele>257.99999999999994</ele><time>2026-05-01T11:08:57.968Z</time></trkpt><trkpt lat="44.3770614" lon="11.5474667"><ele>258.0</ele><time>2026-05-01T11:09:00.979Z</time></trkpt><trkpt lat="44.3769952" lon="11.5474545"><ele>259.0</ele><time>2026-05-01T11:09:02.982Z</time></trkpt><trkpt lat="44.3769156" lon="11.5474584"><ele>260.0</ele><time>2026-05-01T11:09:04.968Z</time></trkpt><trkpt lat="44.3768156" lon="11.5475022"><ele>261.0</ele><time>2026-05-01T11:09:06.98Z</time></trkpt><trkpt lat="44.3767194" lon="11.5475377"><ele>262.0</ele><time>2026-05-01T11:09:08.99Z</time></trkpt><trkpt lat="44.376641" lon="11.5475737"><ele>263.0</ele><time>2026-05-01T11:09:10.976Z</time></trkpt><trkpt lat="44.3765633" lon="11.5476151"><ele>263.0</ele><time>2026-05-01T11:09:13.956Z</time></trkpt><trkpt lat="44.3764973" lon="11.5476622"><ele>263.0</ele><time>2026-05-01T11:09:17.962Z</time></trkpt><trkpt lat="44.3764483" lon="11.5477188"><ele>263.0</ele><time>2026-05-01T11:09:20.965Z</time></trkpt><trkpt lat="44.3763847" lon="11.547774"><ele>263.0</ele><time>2026-05-01T11:09:23.97Z</time></trkpt><trkpt lat="44.3763097" lon="11.5478042"><ele>263.0</ele><time>2026-05-01T11:09:27.956Z</time></trkpt><trkpt lat="44.3762487" lon="11.5478509"><ele>263.0</ele><time>2026-05-01T11:09:30.96Z</time></trkpt><trkpt lat="44.3761892" lon="11.5478814"><ele>263.0</ele><time>2026-05-01T11:09:33.963Z</time></trkpt><trkpt lat="44.3761241" lon="11.5479168"><ele>262.6666666666667</ele><time>2026-05-01T11:09:36.957Z</time></trkpt><trkpt lat="44.3760648" lon="11.5479551"><ele>262.33333333333337</ele><time>2026-05-01T11:09:39.971Z</time></trkpt><trkpt lat="44.3759926" lon="11.5480054"><ele>262.0</ele><time>2026-05-01T11:09:44.002Z</time></trkpt><trkpt lat="44.3759259" lon="11.5480598"><ele>261.6666666666667</ele><time>2026-05-01T11:09:47.966Z</time></trkpt><trkpt lat="44.3758644" lon="11.5480901"><ele>261.3333333333333</ele><time>2026-05-01T11:09:50.96Z</time></trkpt><trkpt lat="44.3757877" lon="11.5481449"><ele>261.0</ele><time>2026-05-01T11:09:54.958Z</time></trkpt><trkpt lat="44.3757123" lon="11.5481922"><ele>261.0</ele><time>2026-05-01T11:09:57.959Z</time></trkpt><trkpt lat="44.3756446" lon="11.5482337"><ele>261.0</ele><time>2026-05-01T11:10:00.959Z</time></trkpt><trkpt lat="44.3755864" lon="11.5482727"><ele>261.0</ele><time>2026-05-01T11:10:03.956Z</time></trkpt><trkpt lat="44.3755145" lon="11.5483243"><ele>261.0</ele><time>2026-05-01T11:10:06.971Z</time></trkpt><trkpt lat="44.375436" lon="11.5483673"><ele>261.0</ele><time>2026-05-01T11:10:09.964Z</time></trkpt><trkpt lat="44.3753698" lon="11.5484129"><ele>261.0</ele><time>2026-05-01T11:10:12.972Z</time></trkpt><trkpt lat="44.3753026" lon="11.5484532"><ele>262.6666666666667</ele><time>2026-05-01T11:10:15.957Z</time></trkpt><trkpt lat="44.3752322" lon="11.5484912"><ele>264.3333333333333</ele><time>2026-05-01T11:10:18.963Z</time></trkpt><trkpt lat="44.3751542" lon="11.548532"><ele>266.0</ele><time>2026-05-01T11:10:22.962Z</time></trkpt><trkpt lat="44.3750982" lon="11.54858"><ele>267.66666666666663</ele><time>2026-05-01T11:10:25.96Z</time></trkpt><trkpt lat="44.3750161" lon="11.548602"><ele>269.3333333333333</ele><time>2026-05-01T11:10:29.963Z</time></trkpt><trkpt lat="44.3749492" lon="11.5486283"><ele>271.0</ele><time>2026-05-01T11:10:33.963Z</time></trkpt><trkpt lat="44.3748754" lon="11.5486477"><ele>271.0</ele><time>2026-05-01T11:10:37.973Z</time></trkpt><trkpt lat="44.3748135" lon="11.5486802"><ele>271.0</ele><time>2026-05-01T11:10:41.964Z</time></trkpt><trkpt lat="44.3747537" lon="11.5487305"><ele>271.0</ele><time>2026-05-01T11:10:45.969Z</time></trkpt><trkpt lat="44.3746853" lon="11.548761"><ele>271.0</ele><time>2026-05-01T11:10:50.963Z</time></trkpt><trkpt lat="44.3746423" lon="11.5488274"><ele>271.0</ele><time>2026-05-01T11:10:54.963Z</time></trkpt><trkpt lat="44.3745821" lon="11.5488865"><ele>271.0</ele><time>2026-05-01T11:10:58.962Z</time></trkpt><trkpt lat="44.3745161" lon="11.5489391"><ele>271.0</ele><time>2026-05-01T11:11:03.96Z</time></trkpt><trkpt lat="44.3744605" lon="11.5488963"><ele>271.16666666666663</ele><time>2026-05-01T11:11:11.972Z</time></trkpt><trkpt lat="44.3743979" lon="11.5488783"><ele>271.3333333333333</ele><time>2026-05-01T11:11:29.968Z</time></trkpt><trkpt lat="44.3744102" lon="11.5489657"><ele>271.5</ele><time>2026-05-01T11:13:21.978Z</time></trkpt><trkpt lat="44.3743291" lon="11.5490152"><ele>271.6666666666667</ele><time>2026-05-01T11:13:27.971Z</time></trkpt><trkpt lat="44.3742265" lon="11.5490371"><ele>271.83333333333337</ele><time>2026-05-01T11:13:29.97Z</time></trkpt><trkpt lat="44.3741618" lon="11.5490552"><ele>272.0</ele><time>2026-05-01T11:13:30.976Z</time></trkpt><trkpt lat="44.3740917" lon="11.5490748"><ele>272.0</ele><time>2026-05-01T11:13:31.973Z</time></trkpt><trkpt lat="44.374021" lon="11.5490924"><ele>272.0</ele><time>2026-05-01T11:13:32.967Z</time></trkpt><trkpt lat="44.3739493" lon="11.5491105"><ele>272.0</ele><time>2026-05-01T11:13:33.997Z</time></trkpt><trkpt lat="44.3738743" lon="11.549142"><ele>272.0</ele><time>2026-05-01T11:13:34.973Z</time></trkpt><trkpt lat="44.3737972" lon="11.5491723"><ele>272.0</ele><time>2026-05-01T11:13:35.987Z</time></trkpt><trkpt lat="44.3737169" lon="11.5492138"><ele>272.0</ele><time>2026-05-01T11:13:36.979Z</time></trkpt><trkpt lat="44.3736353" lon="11.5492599"><ele>271.83333333333337</ele><time>2026-05-01T11:13:37.976Z</time></trkpt><trkpt lat="44.3735561" lon="11.5492987"><ele>271.6666666666667</ele><time>2026-05-01T11:13:38.985Z</time></trkpt><trkpt lat="44.3734865" lon="11.549326"><ele>271.5</ele><time>2026-05-01T11:13:39.965Z</time></trkpt><trkpt lat="44.3734234" lon="11.5493368"><ele>271.3333333333333</ele><time>2026-05-01T11:13:40.98Z</time></trkpt><trkpt lat="44.3733265" lon="11.5493764"><ele>271.16666666666663</ele><time>2026-05-01T11:13:42.962Z</time></trkpt><trkpt lat="44.3732361" lon="11.5494824"><ele>271.0</ele><time>2026-05-01T11:13:44.976Z</time></trkpt><trkpt lat="44.3731966" lon="11.5495576"><ele>268.42857142857144</ele><time>2026-05-01T11:13:45.976Z</time></trkpt><trkpt lat="44.3731508" lon="11.5496293"><ele>265.8571428571429</ele><time>2026-05-01T11:13:46.979Z</time></trkpt><trkpt lat="44.373102" lon="11.5496969"><ele>263.28571428571433</ele><time>2026-05-01T11:13:47.986Z</time></trkpt><trkpt lat="44.373051" lon="11.5497528"><ele>260.7142857142857</ele><time>2026-05-01T11:13:48.987Z</time></trkpt><trkpt lat="44.3729869" lon="11.5497979"><ele>258.14285714285717</ele><time>2026-05-01T11:13:49.973Z</time></trkpt><trkpt lat="44.3729134" lon="11.5498236"><ele>255.5714285714286</ele><time>2026-05-01T11:13:50.972Z</time></trkpt><trkpt lat="44.372844" lon="11.5498372"><ele>253.00000000000003</ele><time>2026-05-01T11:13:51.959Z</time></trkpt><trkpt lat="44.37278" lon="11.549843"><ele>252.99999999999997</ele><time>2026-05-01T11:13:52.984Z</time></trkpt><trkpt lat="44.3727169" lon="11.5498542"><ele>253.0</ele><time>2026-05-01T11:13:53.976Z</time></trkpt><trkpt lat="44.3725929" lon="11.5498688"><ele>253.0</ele><time>2026-05-01T11:13:55.976Z</time></trkpt><trkpt lat="44.3725279" lon="11.5498875"><ele>253.0</ele><time>2026-05-01T11:13:56.985Z</time></trkpt><trkpt lat="44.3724651" lon="11.5499097"><ele>252.99999999999997</ele><time>2026-05-01T11:13:57.981Z</time></trkpt><trkpt lat="44.3723975" lon="11.5499446"><ele>253.0</ele><time>2026-05-01T11:13:58.982Z</time></trkpt><trkpt lat="44.3723307" lon="11.549991"><ele>252.99999999999997</ele><time>2026-05-01T11:13:59.974Z</time></trkpt><trkpt lat="44.3722608" lon="11.5500376"><ele>253.0</ele><time>2026-05-01T11:14:00.983Z</time></trkpt><trkpt lat="44.3721871" lon="11.5500855"><ele>253.0</ele><time>2026-05-01T11:14:01.978Z</time></trkpt><trkpt lat="44.372106" lon="11.5501288"><ele>253.0</ele><time>2026-05-01T11:14:02.985Z</time></trkpt><trkpt lat="44.3720153" lon="11.5501406"><ele>252.99999999999997</ele><time>2026-05-01T11:14:03.962Z</time></trkpt><trkpt lat="44.3719241" lon="11.5501394"><ele>253.0</ele><time>2026-05-01T11:14:04.961Z</time></trkpt><trkpt lat="44.371831" lon="11.5501356"><ele>252.66666666666666</ele><time>2026-05-01T11:14:05.975Z</time></trkpt><trkpt lat="44.3717334" lon="11.5501331"><ele>252.33333333333331</ele><time>2026-05-01T11:14:06.971Z</time></trkpt><trkpt lat="44.3716461" lon="11.5501368"><ele>252.0</ele><time>2026-05-01T11:14:07.976Z</time></trkpt><trkpt lat="44.371562" lon="11.550153"><ele>251.66666666666669</ele><time>2026-05-01T11:14:08.975Z</time></trkpt><trkpt lat="44.3714773" lon="11.5501608"><ele>251.33333333333334</ele><time>2026-05-01T11:14:09.978Z</time></trkpt><trkpt lat="44.3713863" lon="11.5501589"><ele>251.0</ele><time>2026-05-01T11:14:10.98Z</time></trkpt><trkpt lat="44.3712912" lon="11.5501479"><ele>250.20000000000002</ele><time>2026-05-01T11:14:11.984Z</time></trkpt><trkpt lat="44.3711925" lon="11.5501482"><ele>249.40000000000003</ele><time>2026-05-01T11:14:12.974Z</time></trkpt><trkpt lat="44.3710962" lon="11.5501768"><ele>248.6</ele><time>2026-05-01T11:14:13.976Z</time></trkpt><trkpt lat="44.3709981" lon="11.5502174"><ele>247.8</ele><time>2026-05-01T11:14:14.978Z</time></trkpt><trkpt lat="44.3708986" lon="11.5502596"><ele>247.0</ele><time>2026-05-01T11:14:15.975Z</time></trkpt><trkpt lat="44.3707993" lon="11.5503004"><ele>247.0</ele><time>2026-05-01T11:14:16.979Z</time></trkpt><trkpt lat="44.3707004" lon="11.5503398"><ele>247.0</ele><time>2026-05-01T11:14:17.962Z</time></trkpt><trkpt lat="44.3705948" lon="11.5503728"><ele>247.0</ele><time>2026-05-01T11:14:18.99Z</time></trkpt><trkpt lat="44.3704902" lon="11.5503863"><ele>247.0</ele><time>2026-05-01T11:14:19.984Z</time></trkpt><trkpt lat="44.3703853" lon="11.5503846"><ele>247.0</ele><time>2026-05-01T11:14:20.974Z</time></trkpt><trkpt lat="44.3702841" lon="11.5503766"><ele>244.66666666666666</ele><time>2026-05-01T11:14:21.977Z</time></trkpt><trkpt lat="44.3701896" lon="11.5503787"><ele>242.33333333333331</ele><time>2026-05-01T11:14:22.975Z</time></trkpt><trkpt lat="44.3701041" lon="11.5503918"><ele>240.0</ele><time>2026-05-01T11:14:23.977Z</time></trkpt><trkpt lat="44.3700317" lon="11.550442"><ele>237.66666666666669</ele><time>2026-05-01T11:14:24.971Z</time></trkpt><trkpt lat="44.3699714" lon="11.5505231"><ele>235.33333333333334</ele><time>2026-05-01T11:14:25.969Z</time></trkpt><trkpt lat="44.3699215" lon="11.5506301"><ele>233.0</ele><time>2026-05-01T11:14:26.976Z</time></trkpt><trkpt lat="44.3698833" lon="11.550736"><ele>233.00000000000003</ele><time>2026-05-01T11:14:27.964Z</time></trkpt><trkpt lat="44.3698569" lon="11.5508412"><ele>233.0</ele><time>2026-05-01T11:14:28.971Z</time></trkpt><trkpt lat="44.3698466" lon="11.5509599"><ele>233.0</ele><time>2026-05-01T11:14:29.975Z</time></trkpt><trkpt lat="44.3698419" lon="11.5510826"><ele>233.0</ele><time>2026-05-01T11:14:30.973Z</time></trkpt><trkpt lat="44.369837" lon="11.5512025"><ele>233.00000000000003</ele><time>2026-05-01T11:14:31.972Z</time></trkpt><trkpt lat="44.3698385" lon="11.5513308"><ele>233.0</ele><time>2026-05-01T11:14:32.978Z</time></trkpt><trkpt lat="44.3698376" lon="11.5514546"><ele>231.50000000000003</ele><time>2026-05-01T11:14:33.967Z</time></trkpt><trkpt lat="44.36983" lon="11.5515846"><ele>230.0</ele><time>2026-05-01T11:14:34.974Z</time></trkpt><trkpt lat="44.3698147" lon="11.5517067"><ele>228.5</ele><time>2026-05-01T11:14:35.975Z</time></trkpt><trkpt lat="44.3697881" lon="11.5518233"><ele>227.0</ele><time>2026-05-01T11:14:36.973Z</time></trkpt><trkpt lat="44.3697547" lon="11.5519396"><ele>225.50000000000003</ele><time>2026-05-01T11:14:37.972Z</time></trkpt><trkpt lat="44.3697261" lon="11.5520501"><ele>224.0</ele><time>2026-05-01T11:14:38.97Z</time></trkpt><trkpt lat="44.369695" lon="11.5521638"><ele>223.83333333333334</ele><time>2026-05-01T11:14:39.965Z</time></trkpt><trkpt lat="44.3696655" lon="11.5522808"><ele>223.66666666666669</ele><time>2026-05-01T11:14:40.965Z</time></trkpt><trkpt lat="44.3696338" lon="11.5523994"><ele>223.5</ele><time>2026-05-01T11:14:41.966Z</time></trkpt><trkpt lat="44.3695964" lon="11.5525038"><ele>223.33333333333331</ele><time>2026-05-01T11:14:42.966Z</time></trkpt><trkpt lat="44.3695547" lon="11.5525993"><ele>223.16666666666666</ele><time>2026-05-01T11:14:43.974Z</time></trkpt><trkpt lat="44.3695164" lon="11.5526882"><ele>223.0</ele><time>2026-05-01T11:14:44.968Z</time></trkpt><trkpt lat="44.3694761" lon="11.5527795"><ele>222.99999999999997</ele><time>2026-05-01T11:14:45.969Z</time></trkpt><trkpt lat="44.3694455" lon="11.5528584"><ele>223.0</ele><time>2026-05-01T11:14:46.97Z</time></trkpt><trkpt lat="44.3693891" lon="11.5529983"><ele>223.0</ele><time>2026-05-01T11:14:48.971Z</time></trkpt><trkpt lat="44.3693407" lon="11.5531119"><ele>223.0</ele><time>2026-05-01T11:14:50.973Z</time></trkpt><trkpt lat="44.3692993" lon="11.5532038"><ele>222.99999999999997</ele><time>2026-05-01T11:14:52.956Z</time></trkpt><trkpt lat="44.3692628" lon="11.5532816"><ele>223.0</ele><time>2026-05-01T11:14:54.968Z</time></trkpt><trkpt lat="44.3692337" lon="11.5533888"><ele>224.16666666666666</ele><time>2026-05-01T11:14:57.967Z</time></trkpt><trkpt lat="44.3691874" lon="11.5534799"><ele>225.33333333333331</ele><time>2026-05-01T11:15:00.969Z</time></trkpt><trkpt lat="44.3691501" lon="11.5536006"><ele>226.5</ele><time>2026-05-01T11:15:03.972Z</time></trkpt><trkpt lat="44.3691319" lon="11.5536865"><ele>227.66666666666669</ele><time>2026-05-01T11:15:05.974Z</time></trkpt><trkpt lat="44.3691081" lon="11.5538181"><ele>228.83333333333334</ele><time>2026-05-01T11:15:08.97Z</time></trkpt><trkpt lat="44.3690907" lon="11.5539048"><ele>230.0</ele><time>2026-05-01T11:15:10.964Z</time></trkpt><trkpt lat="44.3690732" lon="11.5540317"><ele>230.00000000000003</ele><time>2026-05-01T11:15:13.96Z</time></trkpt><trkpt lat="44.3690533" lon="11.5541165"><ele>230.0</ele><time>2026-05-01T11:15:15.969Z</time></trkpt><trkpt lat="44.3690548" lon="11.5542339"><ele>230.0</ele><time>2026-05-01T11:15:18.967Z</time></trkpt><trkpt lat="44.3690766" lon="11.5543308"><ele>230.0</ele><time>2026-05-01T11:15:21.967Z</time></trkpt><trkpt lat="44.3691099" lon="11.554445"><ele>230.00000000000003</ele><time>2026-05-01T11:15:25.969Z</time></trkpt><trkpt lat="44.3691371" lon="11.5545476"><ele>230.0</ele><time>2026-05-01T11:15:28.963Z</time></trkpt><trkpt lat="44.3691618" lon="11.5546541"><ele>230.16666666666669</ele><time>2026-05-01T11:15:31.967Z</time></trkpt><trkpt lat="44.369189" lon="11.5547727"><ele>230.33333333333334</ele><time>2026-05-01T11:15:34.974Z</time></trkpt><trkpt lat="44.369217" lon="11.554882"><ele>230.5</ele><time>2026-05-01T11:15:37.97Z</time></trkpt><trkpt lat="44.3692338" lon="11.5550037"><ele>230.66666666666669</ele><time>2026-05-01T11:15:40.974Z</time></trkpt><trkpt lat="44.3692576" lon="11.5551174"><ele>230.83333333333334</ele><time>2026-05-01T11:15:43.969Z</time></trkpt><trkpt lat="44.3692883" lon="11.5552149"><ele>231.0</ele><time>2026-05-01T11:15:46.969Z</time></trkpt><trkpt lat="44.3693409" lon="11.5553331"><ele>231.66666666666666</ele><time>2026-05-01T11:15:49.967Z</time></trkpt><trkpt lat="44.369385" lon="11.555426"><ele>232.33333333333331</ele><time>2026-05-01T11:15:51.966Z</time></trkpt><trkpt lat="44.3694273" lon="11.5555075"><ele>233.0</ele><time>2026-05-01T11:15:53.969Z</time></trkpt><trkpt lat="44.3694746" lon="11.5556008"><ele>233.66666666666666</ele><time>2026-05-01T11:15:55.968Z</time></trkpt><trkpt lat="44.3695347" lon="11.5557096"><ele>234.33333333333331</ele><time>2026-05-01T11:15:57.972Z</time></trkpt><trkpt lat="44.3695982" lon="11.555839"><ele>235.0</ele><time>2026-05-01T11:15:59.968Z</time></trkpt><trkpt lat="44.3696645" lon="11.555971"><ele>233.33333333333331</ele><time>2026-05-01T11:16:01.965Z</time></trkpt><trkpt lat="44.3697258" lon="11.5561241"><ele>231.66666666666666</ele><time>2026-05-01T11:16:03.975Z</time></trkpt><trkpt lat="44.3697547" lon="11.5562048"><ele>230.0</ele><time>2026-05-01T11:16:04.969Z</time></trkpt><trkpt lat="44.3697813" lon="11.5562903"><ele>228.33333333333331</ele><time>2026-05-01T11:16:05.97Z</time></trkpt><trkpt lat="44.3698105" lon="11.5563869"><ele>226.66666666666666</ele><time>2026-05-01T11:16:06.971Z</time></trkpt><trkpt lat="44.3698284" lon="11.5564824"><ele>225.0</ele><time>2026-05-01T11:16:07.974Z</time></trkpt><trkpt lat="44.3698375" lon="11.5565817"><ele>225.0</ele><time>2026-05-01T11:16:08.975Z</time></trkpt><trkpt lat="44.3698429" lon="11.5566901"><ele>225.0</ele><time>2026-05-01T11:16:09.975Z</time></trkpt><trkpt lat="44.369851" lon="11.5568012"><ele>225.0</ele><time>2026-05-01T11:16:10.971Z</time></trkpt><trkpt lat="44.3698588" lon="11.5569109"><ele>225.0</ele><time>2026-05-01T11:16:11.975Z</time></trkpt><trkpt lat="44.3698648" lon="11.5570269"><ele>225.0</ele><time>2026-05-01T11:16:12.967Z</time></trkpt><trkpt lat="44.3698844" lon="11.5571471"><ele>225.0</ele><time>2026-05-01T11:16:13.968Z</time></trkpt><trkpt lat="44.3699054" lon="11.5572708"><ele>224.66666666666666</ele><time>2026-05-01T11:16:14.971Z</time></trkpt><trkpt lat="44.3699255" lon="11.5573965"><ele>224.33333333333331</ele><time>2026-05-01T11:16:15.964Z</time></trkpt><trkpt lat="44.3699494" lon="11.55752"><ele>224.0</ele><time>2026-05-01T11:16:16.971Z</time></trkpt><trkpt lat="44.3699745" lon="11.5576259"><ele>223.66666666666666</ele><time>2026-05-01T11:16:18.082Z</time></trkpt><trkpt lat="44.3700129" lon="11.5577479"><ele>223.33333333333331</ele><time>2026-05-01T11:16:19.966Z</time></trkpt><trkpt lat="44.3700698" lon="11.5578458"><ele>223.0</ele><time>2026-05-01T11:16:21.975Z</time></trkpt><trkpt lat="44.3701493" lon="11.5579465"><ele>221.4</ele><time>2026-05-01T11:16:23.956Z</time></trkpt><trkpt lat="44.3702423" lon="11.558048"><ele>219.8</ele><time>2026-05-01T11:16:26.068Z</time></trkpt><trkpt lat="44.3703356" lon="11.5581772"><ele>218.2</ele><time>2026-05-01T11:16:27.973Z</time></trkpt><trkpt lat="44.3703803" lon="11.558267"><ele>216.6</ele><time>2026-05-01T11:16:28.969Z</time></trkpt><trkpt lat="44.3704226" lon="11.5583638"><ele>215.0</ele><time>2026-05-01T11:16:29.968Z</time></trkpt><trkpt lat="44.370456" lon="11.5584721"><ele>215.0</ele><time>2026-05-01T11:16:30.969Z</time></trkpt><trkpt lat="44.3704785" lon="11.5585836"><ele>215.0</ele><time>2026-05-01T11:16:31.965Z</time></trkpt><trkpt lat="44.370488" lon="11.558698"><ele>215.0</ele><time>2026-05-01T11:16:33.031Z</time></trkpt><trkpt lat="44.370485" lon="11.5588289"><ele>215.0</ele><time>2026-05-01T11:16:33.95Z</time></trkpt><trkpt lat="44.3704739" lon="11.5589606"><ele>215.0</ele><time>2026-05-01T11:16:34.958Z</time></trkpt><trkpt lat="44.3704541" lon="11.5590956"><ele>213.2</ele><time>2026-05-01T11:16:35.951Z</time></trkpt><trkpt lat="44.3704359" lon="11.5592318"><ele>211.4</ele><time>2026-05-01T11:16:36.957Z</time></trkpt><trkpt lat="44.3704177" lon="11.5593774"><ele>209.60000000000002</ele><time>2026-05-01T11:16:37.952Z</time></trkpt><trkpt lat="44.3703954" lon="11.5595164"><ele>207.8</ele><time>2026-05-01T11:16:38.951Z</time></trkpt><trkpt lat="44.3703754" lon="11.5596625"><ele>206.0</ele><time>2026-05-01T11:16:39.948Z</time></trkpt><trkpt lat="44.3703769" lon="11.5598058"><ele>204.8</ele><time>2026-05-01T11:16:41.022Z</time></trkpt><trkpt lat="44.3703951" lon="11.5599446"><ele>203.60000000000002</ele><time>2026-05-01T11:16:41.949Z</time></trkpt><trkpt lat="44.3704293" lon="11.5600741"><ele>202.4</ele><time>2026-05-01T11:16:42.964Z</time></trkpt><trkpt lat="44.3704516" lon="11.5602025"><ele>201.2</ele><time>2026-05-01T11:16:43.959Z</time></trkpt><trkpt lat="44.3704619" lon="11.5603161"><ele>200.0</ele><time>2026-05-01T11:16:45.054Z</time></trkpt><trkpt lat="44.3704569" lon="11.5604425"><ele>199.50000000000003</ele><time>2026-05-01T11:16:46.031Z</time></trkpt><trkpt lat="44.3704473" lon="11.5605638"><ele>199.0</ele><time>2026-05-01T11:16:46.953Z</time></trkpt><trkpt lat="44.3704332" lon="11.5606801"><ele>198.5</ele><time>2026-05-01T11:16:48.023Z</time></trkpt><trkpt lat="44.3704237" lon="11.5607937"><ele>198.0</ele><time>2026-05-01T11:16:48.957Z</time></trkpt><trkpt lat="44.3704146" lon="11.5609117"><ele>197.50000000000003</ele><time>2026-05-01T11:16:49.957Z</time></trkpt><trkpt lat="44.3704086" lon="11.5610225"><ele>197.0</ele><time>2026-05-01T11:16:50.959Z</time></trkpt><trkpt lat="44.3704055" lon="11.5611373"><ele>197.33333333333334</ele><time>2026-05-01T11:16:51.95Z</time></trkpt><trkpt lat="44.370405" lon="11.5612497"><ele>197.66666666666669</ele><time>2026-05-01T11:16:52.954Z</time></trkpt><trkpt lat="44.3704287" lon="11.5613569"><ele>198.0</ele><time>2026-05-01T11:16:53.949Z</time></trkpt><trkpt lat="44.3704675" lon="11.5614611"><ele>198.33333333333331</ele><time>2026-05-01T11:16:54.992Z</time></trkpt><trkpt lat="44.370514" lon="11.5615596"><ele>198.66666666666666</ele><time>2026-05-01T11:16:55.961Z</time></trkpt><trkpt lat="44.370555" lon="11.5616598"><ele>199.0</ele><time>2026-05-01T11:16:56.949Z</time></trkpt><trkpt lat="44.3705773" lon="11.5617744"><ele>198.16666666666666</ele><time>2026-05-01T11:16:57.95Z</time></trkpt><trkpt lat="44.3705844" lon="11.5618858"><ele>197.33333333333331</ele><time>2026-05-01T11:16:58.951Z</time></trkpt><trkpt lat="44.3705806" lon="11.5619929"><ele>196.5</ele><time>2026-05-01T11:16:59.954Z</time></trkpt><trkpt lat="44.3705807" lon="11.5620857"><ele>195.66666666666669</ele><time>2026-05-01T11:17:00.948Z</time></trkpt><trkpt lat="44.3705741" lon="11.5621736"><ele>194.83333333333334</ele><time>2026-05-01T11:17:01.957Z</time></trkpt><trkpt lat="44.3705655" lon="11.5623131"><ele>194.0</ele><time>2026-05-01T11:17:03.946Z</time></trkpt><trkpt lat="44.3705442" lon="11.5624143"><ele>194.00000000000003</ele><time>2026-05-01T11:17:05.957Z</time></trkpt><trkpt lat="44.3705342" lon="11.5625442"><ele>194.0</ele><time>2026-05-01T11:17:07.959Z</time></trkpt><trkpt lat="44.370524" lon="11.562651"><ele>194.0</ele><time>2026-05-01T11:17:09.951Z</time></trkpt><trkpt lat="44.3705303" lon="11.5627527"><ele>194.0</ele><time>2026-05-01T11:17:11.966Z</time></trkpt><trkpt lat="44.3705666" lon="11.5628261"><ele>194.00000000000003</ele><time>2026-05-01T11:17:12.956Z</time></trkpt><trkpt lat="44.3706153" lon="11.5629052"><ele>194.0</ele><time>2026-05-01T11:17:13.958Z</time></trkpt><trkpt lat="44.3706591" lon="11.5629913"><ele>193.0</ele><time>2026-05-01T11:17:14.96Z</time></trkpt><trkpt lat="44.3707086" lon="11.5630929"><ele>192.0</ele><time>2026-05-01T11:17:15.963Z</time></trkpt><trkpt lat="44.3707695" lon="11.5631957"><ele>191.0</ele><time>2026-05-01T11:17:16.976Z</time></trkpt><trkpt lat="44.3708323" lon="11.5633093"><ele>190.0</ele><time>2026-05-01T11:17:17.964Z</time></trkpt><trkpt lat="44.3708935" lon="11.5634275"><ele>189.0</ele><time>2026-05-01T11:17:18.955Z</time></trkpt><trkpt lat="44.3709618" lon="11.5635478"><ele>189.0</ele><time>2026-05-01T11:17:19.95Z</time></trkpt><trkpt lat="44.3710299" lon="11.5636672"><ele>189.0</ele><time>2026-05-01T11:17:20.965Z</time></trkpt><trkpt lat="44.371099" lon="11.563793"><ele>189.0</ele><time>2026-05-01T11:17:21.97Z</time></trkpt><trkpt lat="44.3711603" lon="11.5639174"><ele>189.0</ele><time>2026-05-01T11:17:22.961Z</time></trkpt><trkpt lat="44.3712048" lon="11.56403"><ele>189.0</ele><time>2026-05-01T11:17:23.965Z</time></trkpt><trkpt lat="44.3712344" lon="11.5641313"><ele>187.83333333333334</ele><time>2026-05-01T11:17:24.964Z</time></trkpt><trkpt lat="44.3712467" lon="11.5642318"><ele>186.66666666666666</ele><time>2026-05-01T11:17:25.956Z</time></trkpt><trkpt lat="44.3712389" lon="11.5643323"><ele>185.5</ele><time>2026-05-01T11:17:26.977Z</time></trkpt><trkpt lat="44.3712199" lon="11.5644485"><ele>184.33333333333331</ele><time>2026-05-01T11:17:27.959Z</time></trkpt><trkpt lat="44.3711871" lon="11.564552"><ele>183.16666666666666</ele><time>2026-05-01T11:17:28.96Z</time></trkpt><trkpt lat="44.3711486" lon="11.5646556"><ele>182.0</ele><time>2026-05-01T11:17:30.018Z</time></trkpt><trkpt lat="44.3711057" lon="11.5647565"><ele>180.0</ele><time>2026-05-01T11:17:31.029Z</time></trkpt><trkpt lat="44.3710546" lon="11.5648618"><ele>178.0</ele><time>2026-05-01T11:17:32.028Z</time></trkpt><trkpt lat="44.3710007" lon="11.56497"><ele>176.0</ele><time>2026-05-01T11:17:33.043Z</time></trkpt><trkpt lat="44.3709423" lon="11.5650788"><ele>174.0</ele><time>2026-05-01T11:17:33.962Z</time></trkpt><trkpt lat="44.3708871" lon="11.565194"><ele>172.0</ele><time>2026-05-01T11:17:34.958Z</time></trkpt><trkpt lat="44.3708416" lon="11.5653065"><ele>171.2</ele><time>2026-05-01T11:17:35.962Z</time></trkpt><trkpt lat="44.3707954" lon="11.5654059"><ele>170.39999999999998</ele><time>2026-05-01T11:17:36.98Z</time></trkpt><trkpt lat="44.3707506" lon="11.5655162"><ele>169.60000000000002</ele><time>2026-05-01T11:17:37.962Z</time></trkpt><trkpt lat="44.3707017" lon="11.5656222"><ele>168.8</ele><time>2026-05-01T11:17:38.956Z</time></trkpt><trkpt lat="44.3706463" lon="11.5657323"><ele>168.0</ele><time>2026-05-01T11:17:39.948Z</time></trkpt><trkpt lat="44.3705738" lon="11.5658397"><ele>165.75</ele><time>2026-05-01T11:17:40.956Z</time></trkpt><trkpt lat="44.3704933" lon="11.565949"><ele>163.5</ele><time>2026-05-01T11:17:41.955Z</time></trkpt><trkpt lat="44.3704002" lon="11.5660434"><ele>161.25</ele><time>2026-05-01T11:17:42.954Z</time></trkpt><trkpt lat="44.3703068" lon="11.566131"><ele>159.0</ele><time>2026-05-01T11:17:43.948Z</time></trkpt><trkpt lat="44.370213" lon="11.566216"><ele>156.75</ele><time>2026-05-01T11:17:44.957Z</time></trkpt><trkpt lat="44.3701224" lon="11.566318"><ele>154.5</ele><time>2026-05-01T11:17:45.972Z</time></trkpt><trkpt lat="44.3700392" lon="11.5664407"><ele>152.25</ele><time>2026-05-01T11:17:46.975Z</time></trkpt><trkpt lat="44.3699726" lon="11.5665781"><ele>150.0</ele><time>2026-05-01T11:17:47.973Z</time></trkpt><trkpt lat="44.3699058" lon="11.5667162"><ele>150.0</ele><time>2026-05-01T11:17:48.977Z</time></trkpt><trkpt lat="44.3698484" lon="11.5668598"><ele>150.0</ele><time>2026-05-01T11:17:49.991Z</time></trkpt><trkpt lat="44.3697937" lon="11.5669927"><ele>150.0</ele><time>2026-05-01T11:17:50.956Z</time></trkpt><trkpt lat="44.3697451" lon="11.5670995"><ele>150.0</ele><time>2026-05-01T11:17:51.978Z</time></trkpt><trkpt lat="44.3696943" lon="11.5671932"><ele>150.0</ele><time>2026-05-01T11:17:52.974Z</time></trkpt><trkpt lat="44.3696448" lon="11.5672877"><ele>148.33333333333334</ele><time>2026-05-01T11:17:53.957Z</time></trkpt><trkpt lat="44.3695944" lon="11.5673922"><ele>146.66666666666666</ele><time>2026-05-01T11:17:54.969Z</time></trkpt><trkpt lat="44.3695392" lon="11.5674955"><ele>145.0</ele><time>2026-05-01T11:17:55.956Z</time></trkpt><trkpt lat="44.3694878" lon="11.5675906"><ele>143.33333333333331</ele><time>2026-05-01T11:17:56.969Z</time></trkpt><trkpt lat="44.3694435" lon="11.5676813"><ele>141.66666666666666</ele><time>2026-05-01T11:17:57.962Z</time></trkpt><trkpt lat="44.3694029" lon="11.5677509"><ele>140.0</ele><time>2026-05-01T11:17:58.951Z</time></trkpt><trkpt lat="44.3693705" lon="11.5678336"><ele>139.33333333333331</ele><time>2026-05-01T11:17:59.949Z</time></trkpt><trkpt lat="44.3693481" lon="11.5679256"><ele>138.66666666666666</ele><time>2026-05-01T11:18:00.951Z</time></trkpt><trkpt lat="44.3693447" lon="11.5680151"><ele>138.0</ele><time>2026-05-01T11:18:01.967Z</time></trkpt><trkpt lat="44.3693656" lon="11.5681902"><ele>137.33333333333334</ele><time>2026-05-01T11:18:03.972Z</time></trkpt><trkpt lat="44.3693845" lon="11.5682792"><ele>136.66666666666669</ele><time>2026-05-01T11:18:04.96Z</time></trkpt><trkpt lat="44.3694077" lon="11.5683723"><ele>136.0</ele><time>2026-05-01T11:18:05.969Z</time></trkpt><trkpt lat="44.3694409" lon="11.5684683"><ele>136.0</ele><time>2026-05-01T11:18:06.965Z</time></trkpt><trkpt lat="44.369479" lon="11.5685649"><ele>136.0</ele><time>2026-05-01T11:18:07.958Z</time></trkpt><trkpt lat="44.3695226" lon="11.5686613"><ele>136.0</ele><time>2026-05-01T11:18:08.972Z</time></trkpt><trkpt lat="44.3695674" lon="11.5687613"><ele>136.0</ele><time>2026-05-01T11:18:09.967Z</time></trkpt><trkpt lat="44.3696306" lon="11.5688612"><ele>136.0</ele><time>2026-05-01T11:18:10.972Z</time></trkpt><trkpt lat="44.369699" lon="11.5689587"><ele>136.0</ele><time>2026-05-01T11:18:11.962Z</time></trkpt><trkpt lat="44.3697687" lon="11.5690565"><ele>134.16666666666669</ele><time>2026-05-01T11:18:12.966Z</time></trkpt><trkpt lat="44.3698182" lon="11.5691448"><ele>132.33333333333334</ele><time>2026-05-01T11:18:13.97Z</time></trkpt><trkpt lat="44.3698418" lon="11.5692332"><ele>130.5</ele><time>2026-05-01T11:18:14.973Z</time></trkpt><trkpt lat="44.3698395" lon="11.5693336"><ele>128.66666666666666</ele><time>2026-05-01T11:18:15.984Z</time></trkpt><trkpt lat="44.3698111" lon="11.5694379"><ele>126.83333333333333</ele><time>2026-05-01T11:18:16.962Z</time></trkpt><trkpt lat="44.3697786" lon="11.5695403"><ele>125.0</ele><time>2026-05-01T11:18:17.972Z</time></trkpt><trkpt lat="44.3697444" lon="11.5696357"><ele>124.0</ele><time>2026-05-01T11:18:18.973Z</time></trkpt><trkpt lat="44.369706" lon="11.569731"><ele>123.0</ele><time>2026-05-01T11:18:19.982Z</time></trkpt><trkpt lat="44.369671" lon="11.5698253"><ele>122.0</ele><time>2026-05-01T11:18:20.966Z</time></trkpt><trkpt lat="44.3696318" lon="11.5699146"><ele>121.0</ele><time>2026-05-01T11:18:21.973Z</time></trkpt><trkpt lat="44.3695969" lon="11.570008"><ele>120.0</ele><time>2026-05-01T11:18:22.975Z</time></trkpt><trkpt lat="44.3695689" lon="11.5701008"><ele>119.0</ele><time>2026-05-01T11:18:23.956Z</time></trkpt><trkpt lat="44.3695345" lon="11.5701878"><ele>118.0</ele><time>2026-05-01T11:18:24.977Z</time></trkpt><trkpt lat="44.3694989" lon="11.5702778"><ele>118.57142857142857</ele><time>2026-05-01T11:18:25.975Z</time></trkpt><trkpt lat="44.3694621" lon="11.57037"><ele>119.14285714285714</ele><time>2026-05-01T11:18:26.975Z</time></trkpt><trkpt lat="44.3694215" lon="11.5704587"><ele>119.71428571428571</ele><time>2026-05-01T11:18:27.978Z</time></trkpt><trkpt lat="44.3693858" lon="11.570548"><ele>120.28571428571428</ele><time>2026-05-01T11:18:28.968Z</time></trkpt><trkpt lat="44.3693505" lon="11.5706377"><ele>120.85714285714286</ele><time>2026-05-01T11:18:29.975Z</time></trkpt><trkpt lat="44.3693166" lon="11.5707292"><ele>121.42857142857142</ele><time>2026-05-01T11:18:30.953Z</time></trkpt><trkpt lat="44.3692817" lon="11.5708209"><ele>121.99999999999999</ele><time>2026-05-01T11:18:31.979Z</time></trkpt><trkpt lat="44.3692454" lon="11.5709131"><ele>121.99999999999999</ele><time>2026-05-01T11:18:33.036Z</time></trkpt><trkpt lat="44.3692076" lon="11.5710028"><ele>122.0</ele><time>2026-05-01T11:18:33.955Z</time></trkpt><trkpt lat="44.3691707" lon="11.5710876"><ele>121.99999999999999</ele><time>2026-05-01T11:18:34.965Z</time></trkpt><trkpt lat="44.369134" lon="11.5711709"><ele>121.99999999999999</ele><time>2026-05-01T11:18:35.983Z</time></trkpt><trkpt lat="44.3691014" lon="11.5712555"><ele>122.0</ele><time>2026-05-01T11:18:36.979Z</time></trkpt><trkpt lat="44.3690719" lon="11.5713405"><ele>121.99999999999999</ele><time>2026-05-01T11:18:37.979Z</time></trkpt><trkpt lat="44.369037" lon="11.571426"><ele>121.99999999999999</ele><time>2026-05-01T11:18:38.981Z</time></trkpt><trkpt lat="44.3690027" lon="11.5715151"><ele>122.7142857142857</ele><time>2026-05-01T11:18:39.98Z</time></trkpt><trkpt lat="44.3689674" lon="11.5715985"><ele>123.42857142857142</ele><time>2026-05-01T11:18:41.035Z</time></trkpt><trkpt lat="44.368931" lon="11.5716781"><ele>124.14285714285714</ele><time>2026-05-01T11:18:41.964Z</time></trkpt><trkpt lat="44.3688918" lon="11.5717613"><ele>124.85714285714285</ele><time>2026-05-01T11:18:42.972Z</time></trkpt><trkpt lat="44.3688558" lon="11.5718444"><ele>125.57142857142856</ele><time>2026-05-01T11:18:43.968Z</time></trkpt><trkpt lat="44.368821" lon="11.5719268"><ele>126.28571428571429</ele><time>2026-05-01T11:18:44.968Z</time></trkpt><trkpt lat="44.3687835" lon="11.5720067"><ele>127.0</ele><time>2026-05-01T11:18:45.973Z</time></trkpt><trkpt lat="44.3687447" lon="11.572088"><ele>125.16666666666667</ele><time>2026-05-01T11:18:46.978Z</time></trkpt><trkpt lat="44.3687085" lon="11.5721642"><ele>123.33333333333334</ele><time>2026-05-01T11:18:47.968Z</time></trkpt><trkpt lat="44.3686756" lon="11.572247"><ele>121.5</ele><time>2026-05-01T11:18:48.97Z</time></trkpt><trkpt lat="44.3686409" lon="11.5723335"><ele>119.66666666666666</ele><time>2026-05-01T11:18:50.078Z</time></trkpt><trkpt lat="44.3685689" lon="11.5725008"><ele>117.83333333333333</ele><time>2026-05-01T11:18:51.977Z</time></trkpt><trkpt lat="44.3685306" lon="11.572602"><ele>116.0</ele><time>2026-05-01T11:18:52.971Z</time></trkpt><trkpt lat="44.3684918" lon="11.572714"><ele>116.0</ele><time>2026-05-01T11:18:53.963Z</time></trkpt><trkpt lat="44.3684508" lon="11.5728361"><ele>116.0</ele><time>2026-05-01T11:18:54.967Z</time></trkpt><trkpt lat="44.3684053" lon="11.5729681"><ele>116.0</ele><time>2026-05-01T11:18:55.981Z</time></trkpt><trkpt lat="44.3683555" lon="11.573108"><ele>116.0</ele><time>2026-05-01T11:18:56.979Z</time></trkpt><trkpt lat="44.3683047" lon="11.5732555"><ele>116.0</ele><time>2026-05-01T11:18:57.977Z</time></trkpt><trkpt lat="44.3682526" lon="11.5734096"><ele>114.0</ele><time>2026-05-01T11:18:58.98Z</time></trkpt><trkpt lat="44.3681969" lon="11.5735612"><ele>112.0</ele><time>2026-05-01T11:19:00.029Z</time></trkpt><trkpt lat="44.3681414" lon="11.5737156"><ele>110.0</ele><time>2026-05-01T11:19:00.961Z</time></trkpt><trkpt lat="44.3680872" lon="11.5738669"><ele>108.0</ele><time>2026-05-01T11:19:02.031Z</time></trkpt><trkpt lat="44.3680354" lon="11.5740177"><ele>107.2</ele><time>2026-05-01T11:19:03.032Z</time></trkpt><trkpt lat="44.3679846" lon="11.5741571"><ele>106.4</ele><time>2026-05-01T11:19:03.961Z</time></trkpt><trkpt lat="44.3679336" lon="11.5742807"><ele>105.60000000000001</ele><time>2026-05-01T11:19:04.967Z</time></trkpt><trkpt lat="44.3678926" lon="11.5743983"><ele>104.80000000000001</ele><time>2026-05-01T11:19:05.965Z</time></trkpt><trkpt lat="44.367852" lon="11.5744998"><ele>104.0</ele><time>2026-05-01T11:19:06.968Z</time></trkpt><trkpt lat="44.3678165" lon="11.5745969"><ele>102.80000000000001</ele><time>2026-05-01T11:19:07.973Z</time></trkpt><trkpt lat="44.3677892" lon="11.5746792"><ele>101.60000000000001</ele><time>2026-05-01T11:19:08.964Z</time></trkpt><trkpt lat="44.3677486" lon="11.5748309"><ele>100.4</ele><time>2026-05-01T11:19:10.972Z</time></trkpt><trkpt lat="44.3677593" lon="11.5749632"><ele>99.2</ele><time>2026-05-01T11:19:12.965Z</time></trkpt><trkpt lat="44.3678295" lon="11.5750835"><ele>98.0</ele><time>2026-05-01T11:19:14.97Z</time></trkpt><trkpt lat="44.3679353" lon="11.5751546"><ele>98.25</ele><time>2026-05-01T11:19:16.954Z</time></trkpt><trkpt lat="44.368047" lon="11.5752126"><ele>98.5</ele><time>2026-05-01T11:19:18.961Z</time></trkpt><trkpt lat="44.3681587" lon="11.5752774"><ele>98.75</ele><time>2026-05-01T11:19:20.966Z</time></trkpt><trkpt lat="44.368267" lon="11.5753572"><ele>99.0</ele><time>2026-05-01T11:19:22.962Z</time></trkpt><trkpt lat="44.368378" lon="11.5754417"><ele>98.6</ele><time>2026-05-01T11:19:24.973Z</time></trkpt><trkpt lat="44.3684369" lon="11.5754879"><ele>98.2</ele><time>2026-05-01T11:19:25.974Z</time></trkpt><trkpt lat="44.3684969" lon="11.5755283"><ele>97.8</ele><time>2026-05-01T11:19:26.971Z</time></trkpt><trkpt lat="44.3686075" lon="11.5756092"><ele>97.39999999999999</ele><time>2026-05-01T11:19:28.966Z</time></trkpt><trkpt lat="44.3687188" lon="11.5756931"><ele>97.0</ele><time>2026-05-01T11:19:30.963Z</time></trkpt><trkpt lat="44.368781" lon="11.5757388"><ele>97.0</ele><time>2026-05-01T11:19:31.965Z</time></trkpt><trkpt lat="44.3688433" lon="11.5757824"><ele>97.0</ele><time>2026-05-01T11:19:32.966Z</time></trkpt><trkpt lat="44.3689039" lon="11.5758279"><ele>97.0</ele><time>2026-05-01T11:19:33.971Z</time></trkpt><trkpt lat="44.3689702" lon="11.5758788"><ele>97.0</ele><time>2026-05-01T11:19:34.969Z</time></trkpt><trkpt lat="44.3690325" lon="11.5759263"><ele>97.0</ele><time>2026-05-01T11:19:35.974Z</time></trkpt><trkpt lat="44.369097" lon="11.5759782"><ele>97.0</ele><time>2026-05-01T11:19:36.965Z</time></trkpt><trkpt lat="44.3691618" lon="11.5760285"><ele>97.0</ele><time>2026-05-01T11:19:37.967Z</time></trkpt><trkpt lat="44.369221" lon="11.576081"><ele>96.16666666666667</ele><time>2026-05-01T11:19:38.969Z</time></trkpt><trkpt lat="44.3692877" lon="11.5761268"><ele>95.33333333333334</ele><time>2026-05-01T11:19:39.963Z</time></trkpt><trkpt lat="44.3693503" lon="11.5761751"><ele>94.5</ele><time>2026-05-01T11:19:40.97Z</time></trkpt><trkpt lat="44.3694099" lon="11.5762248"><ele>93.66666666666667</ele><time>2026-05-01T11:19:42.034Z</time></trkpt><trkpt lat="44.3694665" lon="11.5762735"><ele>92.83333333333334</ele><time>2026-05-01T11:19:43.026Z</time></trkpt><trkpt lat="44.3695243" lon="11.576315"><ele>92.0</ele><time>2026-05-01T11:19:43.967Z</time></trkpt><trkpt lat="44.3696288" lon="11.5763855"><ele>92.8</ele><time>2026-05-01T11:19:45.974Z</time></trkpt><trkpt lat="44.3697241" lon="11.576443"><ele>93.6</ele><time>2026-05-01T11:19:48.035Z</time></trkpt><trkpt lat="44.3698261" lon="11.5764775"><ele>94.39999999999999</ele><time>2026-05-01T11:19:49.966Z</time></trkpt><trkpt lat="44.3699201" lon="11.5765028"><ele>95.19999999999999</ele><time>2026-05-01T11:19:52.047Z</time></trkpt><trkpt lat="44.3700067" lon="11.5765234"><ele>96.0</ele><time>2026-05-01T11:19:53.977Z</time></trkpt><trkpt lat="44.3700825" lon="11.576517"><ele>96.0</ele><time>2026-05-01T11:19:55.971Z</time></trkpt><trkpt lat="44.3701589" lon="11.5765003"><ele>96.0</ele><time>2026-05-01T11:19:57.962Z</time></trkpt><trkpt lat="44.3702424" lon="11.5764889"><ele>96.0</ele><time>2026-05-01T11:20:00.983Z</time></trkpt><trkpt lat="44.3703375" lon="11.5764757"><ele>96.0</ele><time>2026-05-01T11:20:03.97Z</time></trkpt><trkpt lat="44.3704121" lon="11.5764561"><ele>96.0</ele><time>2026-05-01T11:20:05.975Z</time></trkpt><trkpt lat="44.3704897" lon="11.5764533"><ele>96.0</ele><time>2026-05-01T11:20:07.966Z</time></trkpt><trkpt lat="44.3705705" lon="11.5764507"><ele>96.28571428571428</ele><time>2026-05-01T11:20:09.969Z</time></trkpt><trkpt lat="44.3706451" lon="11.5764681"><ele>96.57142857142857</ele><time>2026-05-01T11:20:11.966Z</time></trkpt><trkpt lat="44.3707135" lon="11.5764786"><ele>96.85714285714286</ele><time>2026-05-01T11:20:13.97Z</time></trkpt><trkpt lat="44.370786" lon="11.5764842"><ele>97.14285714285714</ele><time>2026-05-01T11:20:15.994Z</time></trkpt><trkpt lat="44.3708513" lon="11.5764958"><ele>97.42857142857143</ele><time>2026-05-01T11:20:18.029Z</time></trkpt><trkpt lat="44.3709222" lon="11.5765009"><ele>97.71428571428571</ele><time>2026-05-01T11:20:19.984Z</time></trkpt><trkpt lat="44.3709929" lon="11.5765096"><ele>98.0</ele><time>2026-05-01T11:20:21.977Z</time></trkpt><trkpt lat="44.371066" lon="11.5765223"><ele>97.99999999999999</ele><time>2026-05-01T11:20:23.988Z</time></trkpt><trkpt lat="44.3711395" lon="11.5765388"><ele>98.0</ele><time>2026-05-01T11:20:25.985Z</time></trkpt><trkpt lat="44.3712175" lon="11.5765544"><ele>98.0</ele><time>2026-05-01T11:20:28.032Z</time></trkpt><trkpt lat="44.3712967" lon="11.5765766"><ele>98.0</ele><time>2026-05-01T11:20:29.968Z</time></trkpt><trkpt lat="44.371389" lon="11.5766033"><ele>97.99999999999999</ele><time>2026-05-01T11:20:31.969Z</time></trkpt><trkpt lat="44.3714867" lon="11.5766276"><ele>98.0</ele><time>2026-05-01T11:20:33.963Z</time></trkpt><trkpt lat="44.3715855" lon="11.5766567"><ele>97.80000000000001</ele><time>2026-05-01T11:20:36.046Z</time></trkpt><trkpt lat="44.3716876" lon="11.5766846"><ele>97.6</ele><time>2026-05-01T11:20:37.97Z</time></trkpt><trkpt lat="44.3717984" lon="11.5766959"><ele>97.4</ele><time>2026-05-01T11:20:39.961Z</time></trkpt><trkpt lat="44.3719098" lon="11.5767166"><ele>97.19999999999999</ele><time>2026-05-01T11:20:41.981Z</time></trkpt><trkpt lat="44.3720234" lon="11.5767316"><ele>97.0</ele><time>2026-05-01T11:20:43.97Z</time></trkpt><trkpt lat="44.3721434" lon="11.5767539"><ele>97.0</ele><time>2026-05-01T11:20:45.975Z</time></trkpt><trkpt lat="44.3722061" lon="11.5767641"><ele>97.0</ele><time>2026-05-01T11:20:46.962Z</time></trkpt><trkpt lat="44.3723237" lon="11.5767841"><ele>97.0</ele><time>2026-05-01T11:20:48.96Z</time></trkpt><trkpt lat="44.3724425" lon="11.5767941"><ele>97.0</ele><time>2026-05-01T11:20:50.965Z</time></trkpt><trkpt lat="44.3725592" lon="11.5768041"><ele>97.0</ele><time>2026-05-01T11:20:52.978Z</time></trkpt><trkpt lat="44.3726733" lon="11.5768163"><ele>97.0</ele><time>2026-05-01T11:20:54.96Z</time></trkpt><trkpt lat="44.3727906" lon="11.5768392"><ele>97.0</ele><time>2026-05-01T11:20:56.976Z</time></trkpt><trkpt lat="44.3729032" lon="11.5768796"><ele>97.0</ele><time>2026-05-01T11:20:58.966Z</time></trkpt><trkpt lat="44.3729639" lon="11.5769085"><ele>97.0</ele><time>2026-05-01T11:21:00.005Z</time></trkpt><trkpt lat="44.3730826" lon="11.576952"><ele>97.0</ele><time>2026-05-01T11:21:01.972Z</time></trkpt><trkpt lat="44.3731979" lon="11.5770172"><ele>96.28571428571428</ele><time>2026-05-01T11:21:03.975Z</time></trkpt><trkpt lat="44.3732551" lon="11.5770595"><ele>95.57142857142858</ele><time>2026-05-01T11:21:04.978Z</time></trkpt><trkpt lat="44.3733169" lon="11.5770983"><ele>94.85714285714286</ele><time>2026-05-01T11:21:05.963Z</time></trkpt><trkpt lat="44.3733768" lon="11.5771404"><ele>94.14285714285714</ele><time>2026-05-01T11:21:06.974Z</time></trkpt><trkpt lat="44.3734345" lon="11.5771787"><ele>93.42857142857142</ele><time>2026-05-01T11:21:07.965Z</time></trkpt><trkpt lat="44.3734907" lon="11.5772245"><ele>92.71428571428572</ele><time>2026-05-01T11:21:08.969Z</time></trkpt><trkpt lat="44.373547" lon="11.5772644"><ele>92.0</ele><time>2026-05-01T11:21:09.97Z</time></trkpt><trkpt lat="44.3736607" lon="11.5773323"><ele>92.0</ele><time>2026-05-01T11:21:11.972Z</time></trkpt><trkpt lat="44.3737208" lon="11.5773691"><ele>92.0</ele><time>2026-05-01T11:21:12.96Z</time></trkpt><trkpt lat="44.3737829" lon="11.5774075"><ele>92.0</ele><time>2026-05-01T11:21:13.965Z</time></trkpt><trkpt lat="44.3738428" lon="11.5774406"><ele>92.0</ele><time>2026-05-01T11:21:14.973Z</time></trkpt><trkpt lat="44.3739017" lon="11.5774794"><ele>92.0</ele><time>2026-05-01T11:21:15.975Z</time></trkpt><trkpt lat="44.3739637" lon="11.5775192"><ele>92.0</ele><time>2026-05-01T11:21:16.966Z</time></trkpt><trkpt lat="44.3740784" lon="11.5775831"><ele>92.8</ele><time>2026-05-01T11:21:18.972Z</time></trkpt><trkpt lat="44.3741888" lon="11.5776364"><ele>93.6</ele><time>2026-05-01T11:21:20.962Z</time></trkpt><trkpt lat="44.3742991" lon="11.5776997"><ele>94.39999999999999</ele><time>2026-05-01T11:21:22.973Z</time></trkpt><trkpt lat="44.3743589" lon="11.5777338"><ele>95.19999999999999</ele><time>2026-05-01T11:21:23.953Z</time></trkpt><trkpt lat="44.374475" lon="11.5777996"><ele>96.0</ele><time>2026-05-01T11:21:25.972Z</time></trkpt><trkpt lat="44.3745338" lon="11.5778336"><ele>96.0</ele><time>2026-05-01T11:21:26.968Z</time></trkpt><trkpt lat="44.3746523" lon="11.5779041"><ele>96.0</ele><time>2026-05-01T11:21:28.969Z</time></trkpt><trkpt lat="44.37471" lon="11.5779396"><ele>96.0</ele><time>2026-05-01T11:21:29.973Z</time></trkpt><trkpt lat="44.3747689" lon="11.5779746"><ele>96.0</ele><time>2026-05-01T11:21:30.967Z</time></trkpt><trkpt lat="44.3748892" lon="11.5780402"><ele>96.0</ele><time>2026-05-01T11:21:32.974Z</time></trkpt><trkpt lat="44.3749503" lon="11.5780751"><ele>95.99999999999999</ele><time>2026-05-01T11:21:33.971Z</time></trkpt><trkpt lat="44.3750116" lon="11.5781078"><ele>96.0</ele><time>2026-05-01T11:21:34.974Z</time></trkpt><trkpt lat="44.3750729" lon="11.5781451"><ele>96.0</ele><time>2026-05-01T11:21:35.972Z</time></trkpt><trkpt lat="44.3751366" lon="11.5781836"><ele>96.0</ele><time>2026-05-01T11:21:36.971Z</time></trkpt><trkpt lat="44.3752019" lon="11.5782153"><ele>96.0</ele><time>2026-05-01T11:21:37.97Z</time></trkpt><trkpt lat="44.3752636" lon="11.578246"><ele>95.99999999999999</ele><time>2026-05-01T11:21:38.968Z</time></trkpt><trkpt lat="44.3753251" lon="11.5782839"><ele>96.0</ele><time>2026-05-01T11:21:39.967Z</time></trkpt><trkpt lat="44.3753863" lon="11.5783253"><ele>95.99999999999999</ele><time>2026-05-01T11:21:40.975Z</time></trkpt><trkpt lat="44.3754496" lon="11.5783632"><ele>96.0</ele><time>2026-05-01T11:21:41.972Z</time></trkpt><trkpt lat="44.3755177" lon="11.5783967"><ele>96.0</ele><time>2026-05-01T11:21:42.968Z</time></trkpt><trkpt lat="44.3755866" lon="11.5784286"><ele>96.0</ele><time>2026-05-01T11:21:43.965Z</time></trkpt><trkpt lat="44.3756571" lon="11.5784567"><ele>96.0</ele><time>2026-05-01T11:21:44.973Z</time></trkpt><trkpt lat="44.3757258" lon="11.5784881"><ele>95.99999999999999</ele><time>2026-05-01T11:21:45.971Z</time></trkpt><trkpt lat="44.3757953" lon="11.5785162"><ele>96.0</ele><time>2026-05-01T11:21:46.975Z</time></trkpt><trkpt lat="44.3758671" lon="11.578549"><ele>95.83333333333333</ele><time>2026-05-01T11:21:47.971Z</time></trkpt><trkpt lat="44.3759414" lon="11.5785748"><ele>95.66666666666667</ele><time>2026-05-01T11:21:48.976Z</time></trkpt><trkpt lat="44.3760166" lon="11.5785934"><ele>95.5</ele><time>2026-05-01T11:21:49.958Z</time></trkpt><trkpt lat="44.3760934" lon="11.5786145"><ele>95.33333333333334</ele><time>2026-05-01T11:21:50.964Z</time></trkpt><trkpt lat="44.3761736" lon="11.5786341"><ele>95.16666666666667</ele><time>2026-05-01T11:21:51.968Z</time></trkpt><trkpt lat="44.3762507" lon="11.5786552"><ele>95.0</ele><time>2026-05-01T11:21:52.976Z</time></trkpt><trkpt lat="44.3763349" lon="11.5786849"><ele>94.16666666666667</ele><time>2026-05-01T11:21:53.964Z</time></trkpt><trkpt lat="44.3764202" lon="11.5787189"><ele>93.33333333333334</ele><time>2026-05-01T11:21:54.971Z</time></trkpt><trkpt lat="44.3764998" lon="11.5787506"><ele>92.5</ele><time>2026-05-01T11:21:55.965Z</time></trkpt><trkpt lat="44.3765843" lon="11.5787765"><ele>91.66666666666667</ele><time>2026-05-01T11:21:56.974Z</time></trkpt><trkpt lat="44.376668" lon="11.5788021"><ele>90.83333333333333</ele><time>2026-05-01T11:21:57.967Z</time></trkpt><trkpt lat="44.3767516" lon="11.5788334"><ele>90.0</ele><time>2026-05-01T11:21:58.964Z</time></trkpt><trkpt lat="44.3768331" lon="11.5788605"><ele>90.0</ele><time>2026-05-01T11:21:59.965Z</time></trkpt><trkpt lat="44.3769161" lon="11.5788884"><ele>90.0</ele><time>2026-05-01T11:22:00.971Z</time></trkpt><trkpt lat="44.3769985" lon="11.5789169"><ele>90.0</ele><time>2026-05-01T11:22:01.97Z</time></trkpt><trkpt lat="44.3770777" lon="11.5789407"><ele>90.0</ele><time>2026-05-01T11:22:02.972Z</time></trkpt><trkpt lat="44.3771599" lon="11.5789657"><ele>90.0</ele><time>2026-05-01T11:22:03.972Z</time></trkpt><trkpt lat="44.3772379" lon="11.5789889"><ele>90.0</ele><time>2026-05-01T11:22:04.968Z</time></trkpt><trkpt lat="44.3773206" lon="11.5790171"><ele>89.83333333333333</ele><time>2026-05-01T11:22:05.976Z</time></trkpt><trkpt lat="44.3774035" lon="11.5790432"><ele>89.66666666666667</ele><time>2026-05-01T11:22:06.975Z</time></trkpt><trkpt lat="44.3774841" lon="11.579064"><ele>89.5</ele><time>2026-05-01T11:22:07.968Z</time></trkpt><trkpt lat="44.3775639" lon="11.5790921"><ele>89.33333333333334</ele><time>2026-05-01T11:22:08.972Z</time></trkpt><trkpt lat="44.3776466" lon="11.5791196"><ele>89.16666666666667</ele><time>2026-05-01T11:22:09.969Z</time></trkpt><trkpt lat="44.3777241" lon="11.5791424"><ele>89.0</ele><time>2026-05-01T11:22:10.966Z</time></trkpt><trkpt lat="44.3778063" lon="11.5791702"><ele>89.0</ele><time>2026-05-01T11:22:11.968Z</time></trkpt><trkpt lat="44.3778884" lon="11.5791969"><ele>89.0</ele><time>2026-05-01T11:22:12.966Z</time></trkpt><trkpt lat="44.3779666" lon="11.5792235"><ele>89.0</ele><time>2026-05-01T11:22:13.963Z</time></trkpt><trkpt lat="44.3780467" lon="11.5792515"><ele>89.0</ele><time>2026-05-01T11:22:14.973Z</time></trkpt><trkpt lat="44.378125" lon="11.57928"><ele>89.0</ele><time>2026-05-01T11:22:15.972Z</time></trkpt><trkpt lat="44.3782035" lon="11.5793093"><ele>89.0</ele><time>2026-05-01T11:22:16.974Z</time></trkpt><trkpt lat="44.3782803" lon="11.5793329"><ele>89.0</ele><time>2026-05-01T11:22:17.966Z</time></trkpt><trkpt lat="44.3783565" lon="11.5793595"><ele>89.0</ele><time>2026-05-01T11:22:18.969Z</time></trkpt><trkpt lat="44.3784305" lon="11.5793831"><ele>89.0</ele><time>2026-05-01T11:22:19.972Z</time></trkpt><trkpt lat="44.3785036" lon="11.5794128"><ele>89.0</ele><time>2026-05-01T11:22:20.978Z</time></trkpt><trkpt lat="44.3785772" lon="11.5794388"><ele>89.0</ele><time>2026-05-01T11:22:21.965Z</time></trkpt><trkpt lat="44.3786523" lon="11.5794613"><ele>89.0</ele><time>2026-05-01T11:22:22.977Z</time></trkpt><trkpt lat="44.3787263" lon="11.5794883"><ele>89.0</ele><time>2026-05-01T11:22:23.967Z</time></trkpt><trkpt lat="44.3787976" lon="11.5795146"><ele>89.0</ele><time>2026-05-01T11:22:24.964Z</time></trkpt><trkpt lat="44.378869" lon="11.5795401"><ele>89.0</ele><time>2026-05-01T11:22:25.97Z</time></trkpt><trkpt lat="44.3789402" lon="11.5795679"><ele>89.0</ele><time>2026-05-01T11:22:26.973Z</time></trkpt><trkpt lat="44.3790116" lon="11.5795996"><ele>89.0</ele><time>2026-05-01T11:22:27.962Z</time></trkpt><trkpt lat="44.3790867" lon="11.5796344"><ele>89.0</ele><time>2026-05-01T11:22:28.97Z</time></trkpt><trkpt lat="44.3791581" lon="11.5796633"><ele>88.83333333333334</ele><time>2026-05-01T11:22:29.96Z</time></trkpt><trkpt lat="44.3792303" lon="11.5796911"><ele>88.66666666666667</ele><time>2026-05-01T11:22:30.968Z</time></trkpt><trkpt lat="44.3793032" lon="11.5797148"><ele>88.5</ele><time>2026-05-01T11:22:31.965Z</time></trkpt><trkpt lat="44.3793774" lon="11.5797423"><ele>88.33333333333333</ele><time>2026-05-01T11:22:32.973Z</time></trkpt><trkpt lat="44.379452" lon="11.5797685"><ele>88.16666666666666</ele><time>2026-05-01T11:22:33.969Z</time></trkpt><trkpt lat="44.3795291" lon="11.5797933"><ele>88.0</ele><time>2026-05-01T11:22:34.972Z</time></trkpt><trkpt lat="44.3796068" lon="11.579815"><ele>88.0</ele><time>2026-05-01T11:22:35.965Z</time></trkpt><trkpt lat="44.3796826" lon="11.5798409"><ele>88.0</ele><time>2026-05-01T11:22:36.973Z</time></trkpt><trkpt lat="44.3797576" lon="11.5798592"><ele>88.0</ele><time>2026-05-01T11:22:37.969Z</time></trkpt><trkpt lat="44.3798288" lon="11.5798847"><ele>88.0</ele><time>2026-05-01T11:22:38.979Z</time></trkpt><trkpt lat="44.3799017" lon="11.5799045"><ele>88.0</ele><time>2026-05-01T11:22:39.971Z</time></trkpt><trkpt lat="44.3799752" lon="11.5799229"><ele>88.0</ele><time>2026-05-01T11:22:40.975Z</time></trkpt><trkpt lat="44.3800477" lon="11.5799452"><ele>87.85714285714286</ele><time>2026-05-01T11:22:41.97Z</time></trkpt><trkpt lat="44.3801187" lon="11.5799695"><ele>87.71428571428571</ele><time>2026-05-01T11:22:42.972Z</time></trkpt><trkpt lat="44.3801906" lon="11.5799913"><ele>87.57142857142857</ele><time>2026-05-01T11:22:43.971Z</time></trkpt><trkpt lat="44.3802627" lon="11.5800137"><ele>87.42857142857143</ele><time>2026-05-01T11:22:44.973Z</time></trkpt><trkpt lat="44.3803375" lon="11.5800373"><ele>87.28571428571429</ele><time>2026-05-01T11:22:45.976Z</time></trkpt><trkpt lat="44.3804144" lon="11.5800602"><ele>87.14285714285714</ele><time>2026-05-01T11:22:46.981Z</time></trkpt><trkpt lat="44.3804868" lon="11.5800793"><ele>87.0</ele><time>2026-05-01T11:22:47.968Z</time></trkpt><trkpt lat="44.3805592" lon="11.5801007"><ele>87.0</ele><time>2026-05-01T11:22:48.973Z</time></trkpt><trkpt lat="44.3806327" lon="11.580124"><ele>87.0</ele><time>2026-05-01T11:22:49.965Z</time></trkpt><trkpt lat="44.3807027" lon="11.5801487"><ele>87.0</ele><time>2026-05-01T11:22:50.97Z</time></trkpt><trkpt lat="44.3807737" lon="11.5801755"><ele>87.0</ele><time>2026-05-01T11:22:51.972Z</time></trkpt><trkpt lat="44.3808455" lon="11.5802015"><ele>87.0</ele><time>2026-05-01T11:22:52.965Z</time></trkpt><trkpt lat="44.3809136" lon="11.580224"><ele>87.0</ele><time>2026-05-01T11:22:53.972Z</time></trkpt><trkpt lat="44.3809832" lon="11.5802485"><ele>87.0</ele><time>2026-05-01T11:22:54.976Z</time></trkpt><trkpt lat="44.3810521" lon="11.5802741"><ele>87.0</ele><time>2026-05-01T11:22:55.974Z</time></trkpt><trkpt lat="44.3811203" lon="11.5803107"><ele>87.0</ele><time>2026-05-01T11:22:56.969Z</time></trkpt><trkpt lat="44.3811784" lon="11.5803662"><ele>87.0</ele><time>2026-05-01T11:22:57.975Z</time></trkpt><trkpt lat="44.3812278" lon="11.5804428"><ele>87.0</ele><time>2026-05-01T11:22:58.975Z</time></trkpt><trkpt lat="44.381258" lon="11.5805404"><ele>87.0</ele><time>2026-05-01T11:22:59.979Z</time></trkpt><trkpt lat="44.3812669" lon="11.5806452"><ele>87.0</ele><time>2026-05-01T11:23:00.975Z</time></trkpt><trkpt lat="44.3812625" lon="11.5807439"><ele>87.0</ele><time>2026-05-01T11:23:01.975Z</time></trkpt><trkpt lat="44.3812476" lon="11.5808374"><ele>86.66666666666667</ele><time>2026-05-01T11:23:02.973Z</time></trkpt><trkpt lat="44.3812256" lon="11.5809208"><ele>86.33333333333333</ele><time>2026-05-01T11:23:03.974Z</time></trkpt><trkpt lat="44.3812053" lon="11.5810064"><ele>86.0</ele><time>2026-05-01T11:23:04.971Z</time></trkpt><trkpt lat="44.3811798" lon="11.5810926"><ele>85.66666666666666</ele><time>2026-05-01T11:23:05.971Z</time></trkpt><trkpt lat="44.3811589" lon="11.5811791"><ele>85.33333333333333</ele><time>2026-05-01T11:23:06.973Z</time></trkpt><trkpt lat="44.3811386" lon="11.5812648"><ele>85.0</ele><time>2026-05-01T11:23:07.961Z</time></trkpt><trkpt lat="44.3810973" lon="11.581433"><ele>84.83333333333333</ele><time>2026-05-01T11:23:09.977Z</time></trkpt><trkpt lat="44.3810747" lon="11.5815948"><ele>84.66666666666666</ele><time>2026-05-01T11:23:11.988Z</time></trkpt><trkpt lat="44.3811046" lon="11.5817418"><ele>84.5</ele><time>2026-05-01T11:23:13.964Z</time></trkpt><trkpt lat="44.3811617" lon="11.5817863"><ele>84.33333333333333</ele><time>2026-05-01T11:23:14.972Z</time></trkpt><trkpt lat="44.3812238" lon="11.5818133"><ele>84.16666666666667</ele><time>2026-05-01T11:23:15.966Z</time></trkpt><trkpt lat="44.381286" lon="11.5818363"><ele>84.0</ele><time>2026-05-01T11:23:16.97Z</time></trkpt><trkpt lat="44.3813982" lon="11.5819027"><ele>83.75</ele><time>2026-05-01T11:23:18.964Z</time></trkpt><trkpt lat="44.3815062" lon="11.5819693"><ele>83.5</ele><time>2026-05-01T11:23:20.972Z</time></trkpt><trkpt lat="44.3816137" lon="11.5820266"><ele>83.25</ele><time>2026-05-01T11:23:22.971Z</time></trkpt><trkpt lat="44.3817207" lon="11.5820899"><ele>83.0</ele><time>2026-05-01T11:23:24.965Z</time></trkpt><trkpt lat="44.381836" lon="11.5821643"><ele>82.42857142857143</ele><time>2026-05-01T11:23:26.974Z</time></trkpt><trkpt lat="44.381896" lon="11.5822043"><ele>81.85714285714286</ele><time>2026-05-01T11:23:27.957Z</time></trkpt><trkpt lat="44.3819566" lon="11.5822424"><ele>81.28571428571429</ele><time>2026-05-01T11:23:28.985Z</time></trkpt><trkpt lat="44.3820181" lon="11.5822783"><ele>80.71428571428572</ele><time>2026-05-01T11:23:29.972Z</time></trkpt><trkpt lat="44.3820775" lon="11.5823135"><ele>80.14285714285714</ele><time>2026-05-01T11:23:30.976Z</time></trkpt><trkpt lat="44.3821416" lon="11.5823495"><ele>79.57142857142858</ele><time>2026-05-01T11:23:31.97Z</time></trkpt><trkpt lat="44.3822096" lon="11.5823885"><ele>79.0</ele><time>2026-05-01T11:23:32.971Z</time></trkpt><trkpt lat="44.3822752" lon="11.5824326"><ele>78.66666666666666</ele><time>2026-05-01T11:23:33.975Z</time></trkpt><trkpt lat="44.3823459" lon="11.5824836"><ele>78.33333333333333</ele><time>2026-05-01T11:23:34.978Z</time></trkpt><trkpt lat="44.3824099" lon="11.5825443"><ele>78.0</ele><time>2026-05-01T11:23:35.975Z</time></trkpt><trkpt lat="44.3824658" lon="11.5826227"><ele>77.66666666666667</ele><time>2026-05-01T11:23:36.967Z</time></trkpt><trkpt lat="44.3825202" lon="11.5827013"><ele>77.33333333333334</ele><time>2026-05-01T11:23:37.969Z</time></trkpt><trkpt lat="44.3825615" lon="11.5827994"><ele>77.0</ele><time>2026-05-01T11:23:38.972Z</time></trkpt><trkpt lat="44.3825865" lon="11.5829029"><ele>76.71428571428571</ele><time>2026-05-01T11:23:39.975Z</time></trkpt><trkpt lat="44.3826096" lon="11.5830076"><ele>76.42857142857143</ele><time>2026-05-01T11:23:40.971Z</time></trkpt><trkpt lat="44.3826307" lon="11.5831074"><ele>76.14285714285714</ele><time>2026-05-01T11:23:41.978Z</time></trkpt><trkpt lat="44.3826538" lon="11.5832063"><ele>75.85714285714286</ele><time>2026-05-01T11:23:43.046Z</time></trkpt><trkpt lat="44.3826799" lon="11.5833091"><ele>75.57142857142857</ele><time>2026-05-01T11:23:43.98Z</time></trkpt><trkpt lat="44.3827064" lon="11.583397"><ele>75.28571428571428</ele><time>2026-05-01T11:23:44.969Z</time></trkpt><trkpt lat="44.3827381" lon="11.5834831"><ele>75.0</ele><time>2026-05-01T11:23:45.965Z</time></trkpt><trkpt lat="44.3827823" lon="11.5835628"><ele>74.99999999999999</ele><time>2026-05-01T11:23:46.952Z</time></trkpt><trkpt lat="44.3828348" lon="11.5836255"><ele>75.0</ele><time>2026-05-01T11:23:47.965Z</time></trkpt><trkpt lat="44.3828984" lon="11.5836751"><ele>75.0</ele><time>2026-05-01T11:23:48.97Z</time></trkpt><trkpt lat="44.3829636" lon="11.5837094"><ele>75.0</ele><time>2026-05-01T11:23:49.971Z</time></trkpt><trkpt lat="44.3830329" lon="11.5837282"><ele>75.0</ele><time>2026-05-01T11:23:50.966Z</time></trkpt><trkpt lat="44.3831035" lon="11.5837387"><ele>74.99999999999999</ele><time>2026-05-01T11:23:51.972Z</time></trkpt><trkpt lat="44.3831744" lon="11.583746"><ele>75.0</ele><time>2026-05-01T11:23:52.975Z</time></trkpt><trkpt lat="44.3832438" lon="11.5837571"><ele>75.0</ele><time>2026-05-01T11:23:53.98Z</time></trkpt><trkpt lat="44.3833095" lon="11.5837703"><ele>75.0</ele><time>2026-05-01T11:23:54.969Z</time></trkpt><trkpt lat="44.3833812" lon="11.5837852"><ele>75.0</ele><time>2026-05-01T11:23:55.972Z</time></trkpt><trkpt lat="44.38345" lon="11.5838026"><ele>75.0</ele><time>2026-05-01T11:23:56.964Z</time></trkpt><trkpt lat="44.383514" lon="11.5838159"><ele>75.0</ele><time>2026-05-01T11:23:57.978Z</time></trkpt><trkpt lat="44.3835786" lon="11.5838281"><ele>75.0</ele><time>2026-05-01T11:23:58.966Z</time></trkpt><trkpt lat="44.3837038" lon="11.583852"><ele>74.99999999999999</ele><time>2026-05-01T11:24:01.05Z</time></trkpt><trkpt lat="44.3837694" lon="11.5838607"><ele>75.0</ele><time>2026-05-01T11:24:02.04Z</time></trkpt><trkpt lat="44.3838368" lon="11.5838732"><ele>75.0</ele><time>2026-05-01T11:24:03.022Z</time></trkpt><trkpt lat="44.383904" lon="11.5838839"><ele>75.0</ele><time>2026-05-01T11:24:03.973Z</time></trkpt><trkpt lat="44.3839698" lon="11.5838936"><ele>75.0</ele><time>2026-05-01T11:24:04.982Z</time></trkpt><trkpt lat="44.3840343" lon="11.5839016"><ele>74.99999999999999</ele><time>2026-05-01T11:24:05.973Z</time></trkpt><trkpt lat="44.384097" lon="11.583911"><ele>75.0</ele><time>2026-05-01T11:24:06.98Z</time></trkpt><trkpt lat="44.3841598" lon="11.583925"><ele>75.25</ele><time>2026-05-01T11:24:07.97Z</time></trkpt><trkpt lat="44.3842804" lon="11.5839603"><ele>75.5</ele><time>2026-05-01T11:24:09.972Z</time></trkpt><trkpt lat="44.384395" lon="11.5839691"><ele>75.75</ele><time>2026-05-01T11:24:12.007Z</time></trkpt><trkpt lat="44.3845019" lon="11.5839877"><ele>76.0</ele><time>2026-05-01T11:24:13.97Z</time></trkpt><trkpt lat="44.384612" lon="11.5839916"><ele>76.6</ele><time>2026-05-01T11:24:15.973Z</time></trkpt><trkpt lat="44.3847184" lon="11.5839376"><ele>77.19999999999999</ele><time>2026-05-01T11:24:18.036Z</time></trkpt><trkpt lat="44.3847879" lon="11.5838085"><ele>77.80000000000001</ele><time>2026-05-01T11:24:19.969Z</time></trkpt><trkpt lat="44.3848203" lon="11.5836702"><ele>78.4</ele><time>2026-05-01T11:24:22.037Z</time></trkpt><trkpt lat="44.3848447" lon="11.5835281"><ele>79.0</ele><time>2026-05-01T11:24:23.974Z</time></trkpt><trkpt lat="44.3848276" lon="11.5836439"><ele>79.16666666666666</ele><time>2026-05-01T11:24:31.949Z</time></trkpt><trkpt lat="44.384793" lon="11.5837598"><ele>79.33333333333333</ele><time>2026-05-01T11:24:34.969Z</time></trkpt><trkpt lat="44.3847272" lon="11.5838601"><ele>79.5</ele><time>2026-05-01T11:24:37.963Z</time></trkpt><trkpt lat="44.3846419" lon="11.5839133"><ele>79.66666666666667</ele><time>2026-05-01T11:24:39.952Z</time></trkpt><trkpt lat="44.3845699" lon="11.5839415"><ele>79.83333333333334</ele><time>2026-05-01T11:24:41.95Z</time></trkpt><trkpt lat="44.384599" lon="11.5840362"><ele>80.0</ele><time>2026-05-01T11:26:02.97Z</time></trkpt><trkpt lat="44.3845438" lon="11.5839583"><ele>80.0</ele><time>2026-05-01T11:27:02.96Z</time></trkpt><trkpt lat="44.384471" lon="11.583936"><ele>80.0</ele><time>2026-05-01T11:27:35.96Z</time></trkpt><trkpt lat="44.384549" lon="11.5839367"><ele>80.0</ele><time>2026-05-01T11:28:33.964Z</time></trkpt><trkpt lat="44.3845954" lon="11.5840107"><ele>80.0</ele><time>2026-05-01T11:28:50.958Z</time></trkpt><trkpt lat="44.3845317" lon="11.5839615"><ele>80.0</ele><time>2026-05-01T11:29:58.965Z</time></trkpt><trkpt lat="44.3845943" lon="11.5840141"><ele>80.0</ele><time>2026-05-01T11:30:12.955Z</time></trkpt><trkpt lat="44.3846623" lon="11.5840257"><ele>80.0</ele><time>2026-05-01T11:30:17.962Z</time></trkpt><trkpt lat="44.3847263" lon="11.5839797"><ele>80.0</ele><time>2026-05-01T11:30:22.033Z</time></trkpt><trkpt lat="44.3847926" lon="11.5839395"><ele>80.0</ele><time>2026-05-01T11:30:25.965Z</time></trkpt><trkpt lat="44.384856" lon="11.5839534"><ele>80.0</ele><time>2026-05-01T11:30:29.967Z</time></trkpt><trkpt lat="44.3848817" lon="11.5838687"><ele>80.0</ele><time>2026-05-01T11:30:34.962Z</time></trkpt><trkpt lat="44.3849012" lon="11.583783"><ele>80.0</ele><time>2026-05-01T11:30:37.977Z</time></trkpt><trkpt lat="44.3849594" lon="11.5837082"><ele>80.0</ele><time>2026-05-01T11:30:41.954Z</time></trkpt><trkpt lat="44.3850258" lon="11.5836722"><ele>80.0</ele><time>2026-05-01T11:30:44.978Z</time></trkpt><trkpt lat="44.3849592" lon="11.583713"><ele>80.0</ele><time>2026-05-01T11:30:59.968Z</time></trkpt><trkpt lat="44.3849066" lon="11.5837701"><ele>80.0</ele><time>2026-05-01T11:31:05.98Z</time></trkpt><trkpt lat="44.3848862" lon="11.583866"><ele>80.0</ele><time>2026-05-01T11:31:14.963Z</time></trkpt><trkpt lat="44.3848465" lon="11.5839352"><ele>80.0</ele><time>2026-05-01T11:31:30.963Z</time></trkpt><trkpt lat="44.3848623" lon="11.5838439"><ele>80.0</ele><time>2026-05-01T11:31:47.971Z</time></trkpt><trkpt lat="44.3849382" lon="11.5837255"><ele>80.0</ele><time>2026-05-01T11:31:51.977Z</time></trkpt><trkpt lat="44.3849945" lon="11.5836645"><ele>79.83333333333334</ele><time>2026-05-01T11:31:53.965Z</time></trkpt><trkpt lat="44.3850585" lon="11.5836453"><ele>79.66666666666667</ele><time>2026-05-01T11:31:55.966Z</time></trkpt><trkpt lat="44.3851255" lon="11.5836154"><ele>79.5</ele><time>2026-05-01T11:31:57.973Z</time></trkpt><trkpt lat="44.3852069" lon="11.5836075"><ele>79.33333333333333</ele><time>2026-05-01T11:31:59.957Z</time></trkpt><trkpt lat="44.3853047" lon="11.5836124"><ele>79.16666666666666</ele><time>2026-05-01T11:32:01.971Z</time></trkpt><trkpt lat="44.3853853" lon="11.5836389"><ele>79.0</ele><time>2026-05-01T11:32:03.961Z</time></trkpt><trkpt lat="44.3854474" lon="11.583678"><ele>78.71428571428572</ele><time>2026-05-01T11:32:05.969Z</time></trkpt><trkpt lat="44.3855168" lon="11.5837085"><ele>78.42857142857143</ele><time>2026-05-01T11:32:07.949Z</time></trkpt><trkpt lat="44.3855999" lon="11.5837225"><ele>78.14285714285714</ele><time>2026-05-01T11:32:09.974Z</time></trkpt><trkpt lat="44.3856765" lon="11.5837084"><ele>77.85714285714286</ele><time>2026-05-01T11:32:11.967Z</time></trkpt><trkpt lat="44.3857257" lon="11.5836475"><ele>77.57142857142857</ele><time>2026-05-01T11:32:13.973Z</time></trkpt><trkpt lat="44.3857653" lon="11.5835731"><ele>77.28571428571429</ele><time>2026-05-01T11:32:15.965Z</time></trkpt><trkpt lat="44.3858086" lon="11.5835034"><ele>77.0</ele><time>2026-05-01T11:32:17.967Z</time></trkpt><trkpt lat="44.3858792" lon="11.5834962"><ele>77.0</ele><time>2026-05-01T11:32:20.966Z</time></trkpt><trkpt lat="44.3859459" lon="11.5835506"><ele>77.0</ele><time>2026-05-01T11:32:22.964Z</time></trkpt><trkpt lat="44.3860208" lon="11.5836076"><ele>77.0</ele><time>2026-05-01T11:32:24.963Z</time></trkpt><trkpt lat="44.3861039" lon="11.5836603"><ele>77.0</ele><time>2026-05-01T11:32:26.965Z</time></trkpt><trkpt lat="44.3861943" lon="11.5837029"><ele>77.0</ele><time>2026-05-01T11:32:28.962Z</time></trkpt><trkpt lat="44.3862522" lon="11.5837561"><ele>77.0</ele><time>2026-05-01T11:32:30.965Z</time></trkpt><trkpt lat="44.386254" lon="11.5838938"><ele>76.4</ele><time>2026-05-01T11:32:33.971Z</time></trkpt><trkpt lat="44.3862229" lon="11.5840374"><ele>75.80000000000001</ele><time>2026-05-01T11:32:35.975Z</time></trkpt><trkpt lat="44.3861861" lon="11.5841735"><ele>75.2</ele><time>2026-05-01T11:32:37.985Z</time></trkpt><trkpt lat="44.3861623" lon="11.5842965"><ele>74.60000000000001</ele><time>2026-05-01T11:32:39.969Z</time></trkpt><trkpt lat="44.3861369" lon="11.5844168"><ele>74.0</ele><time>2026-05-01T11:32:41.977Z</time></trkpt><trkpt lat="44.3861084" lon="11.5845363"><ele>73.66666666666667</ele><time>2026-05-01T11:32:43.982Z</time></trkpt><trkpt lat="44.3860751" lon="11.5846599"><ele>73.33333333333334</ele><time>2026-05-01T11:32:45.972Z</time></trkpt><trkpt lat="44.3860533" lon="11.584748"><ele>73.0</ele><time>2026-05-01T11:32:47.953Z</time></trkpt><trkpt lat="44.3860164" lon="11.5848453"><ele>72.66666666666667</ele><time>2026-05-01T11:33:04.971Z</time></trkpt><trkpt lat="44.3859867" lon="11.5849291"><ele>72.33333333333333</ele><time>2026-05-01T11:33:07.965Z</time></trkpt><trkpt lat="44.3859611" lon="11.5850182"><ele>72.0</ele><time>2026-05-01T11:33:10.954Z</time></trkpt><trkpt lat="44.3859161" lon="11.5851218"><ele>72.0</ele><time>2026-05-01T11:33:13.959Z</time></trkpt><trkpt lat="44.3858841" lon="11.5852373"><ele>72.0</ele><time>2026-05-01T11:33:16.978Z</time></trkpt><trkpt lat="44.3858591" lon="11.5853225"><ele>72.0</ele><time>2026-05-01T11:33:18.965Z</time></trkpt><trkpt lat="44.3858392" lon="11.5854223"><ele>72.0</ele><time>2026-05-01T11:33:20.956Z</time></trkpt><trkpt lat="44.3858158" lon="11.5855419"><ele>72.0</ele><time>2026-05-01T11:33:23.954Z</time></trkpt><trkpt lat="44.3857729" lon="11.5856537"><ele>72.0</ele><time>2026-05-01T11:33:26.965Z</time></trkpt><trkpt lat="44.3858044" lon="11.5855761"><ele>71.83333333333333</ele><time>2026-05-01T11:33:36.964Z</time></trkpt><trkpt lat="44.3858342" lon="11.5854808"><ele>71.66666666666667</ele><time>2026-05-01T11:33:39.955Z</time></trkpt><trkpt lat="44.3858646" lon="11.5853983"><ele>71.5</ele><time>2026-05-01T11:33:42.96Z</time></trkpt><trkpt lat="44.3858417" lon="11.5855051"><ele>71.33333333333334</ele><time>2026-05-01T11:33:49.957Z</time></trkpt><trkpt lat="44.3858201" lon="11.5856081"><ele>71.16666666666667</ele><time>2026-05-01T11:33:53.958Z</time></trkpt><trkpt lat="44.3857941" lon="11.5857017"><ele>71.0</ele><time>2026-05-01T11:33:56.963Z</time></trkpt><trkpt lat="44.385757" lon="11.5858072"><ele>71.0</ele><time>2026-05-01T11:33:59.954Z</time></trkpt><trkpt lat="44.3857321" lon="11.5858955"><ele>71.0</ele><time>2026-05-01T11:34:01.952Z</time></trkpt><trkpt lat="44.3856979" lon="11.5860168"><ele>71.0</ele><time>2026-05-01T11:34:03.957Z</time></trkpt><trkpt lat="44.385638" lon="11.5861314"><ele>71.0</ele><time>2026-05-01T11:34:05.954Z</time></trkpt><trkpt lat="44.385593" lon="11.5862223"><ele>71.0</ele><time>2026-05-01T11:34:07.952Z</time></trkpt><trkpt lat="44.3855345" lon="11.5863037"><ele>71.0</ele><time>2026-05-01T11:34:09.985Z</time></trkpt><trkpt lat="44.3854827" lon="11.5863888"><ele>71.71428571428571</ele><time>2026-05-01T11:34:11.963Z</time></trkpt><trkpt lat="44.3854201" lon="11.5864466"><ele>72.42857142857142</ele><time>2026-05-01T11:34:15.976Z</time></trkpt><trkpt lat="44.3853599" lon="11.5864737"><ele>73.14285714285714</ele><time>2026-05-01T11:34:19.973Z</time></trkpt><trkpt lat="44.3852949" lon="11.5865197"><ele>73.85714285714286</ele><time>2026-05-01T11:34:23.974Z</time></trkpt><trkpt lat="44.3852339" lon="11.5865904"><ele>74.57142857142858</ele><time>2026-05-01T11:34:26.965Z</time></trkpt><trkpt lat="44.3851775" lon="11.5866463"><ele>75.28571428571428</ele><time>2026-05-01T11:34:29.962Z</time></trkpt><trkpt lat="44.385237" lon="11.586724"><ele>76.0</ele><time>2026-05-01T11:34:35.981Z</time></trkpt><trkpt lat="44.3853072" lon="11.5867779"><ele>76.0</ele><time>2026-05-01T11:34:38.977Z</time></trkpt><trkpt lat="44.3853601" lon="11.5868544"><ele>76.0</ele><time>2026-05-01T11:34:40.959Z</time></trkpt><trkpt lat="44.3854" lon="11.5869566"><ele>76.0</ele><time>2026-05-01T11:34:42.977Z</time></trkpt><trkpt lat="44.3853925" lon="11.5871039"><ele>76.0</ele><time>2026-05-01T11:34:44.962Z</time></trkpt><trkpt lat="44.3853646" lon="11.58724"><ele>76.0</ele><time>2026-05-01T11:34:46.959Z</time></trkpt><trkpt lat="44.3853302" lon="11.5873525"><ele>75.6</ele><time>2026-05-01T11:34:48.952Z</time></trkpt><trkpt lat="44.3853041" lon="11.5874765"><ele>75.19999999999999</ele><time>2026-05-01T11:34:50.949Z</time></trkpt><trkpt lat="44.3852773" lon="11.5876059"><ele>74.80000000000001</ele><time>2026-05-01T11:34:52.967Z</time></trkpt><trkpt lat="44.3852522" lon="11.5877288"><ele>74.4</ele><time>2026-05-01T11:34:54.969Z</time></trkpt><trkpt lat="44.3852323" lon="11.587858"><ele>74.0</ele><time>2026-05-01T11:34:56.967Z</time></trkpt><trkpt lat="44.3852029" lon="11.5879911"><ele>73.83333333333334</ele><time>2026-05-01T11:34:58.975Z</time></trkpt><trkpt lat="44.3851776" lon="11.5881157"><ele>73.66666666666667</ele><time>2026-05-01T11:35:00.954Z</time></trkpt><trkpt lat="44.3851592" lon="11.5882238"><ele>73.5</ele><time>2026-05-01T11:35:02.978Z</time></trkpt><trkpt lat="44.3851367" lon="11.5883255"><ele>73.33333333333333</ele><time>2026-05-01T11:35:04.958Z</time></trkpt><trkpt lat="44.3850941" lon="11.5883949"><ele>73.16666666666666</ele><time>2026-05-01T11:35:06.967Z</time></trkpt><trkpt lat="44.3851168" lon="11.5884868"><ele>73.0</ele><time>2026-05-01T11:35:09.965Z</time></trkpt><trkpt lat="44.3852064" lon="11.5884771"><ele>73.0</ele><time>2026-05-01T11:35:12.959Z</time></trkpt><trkpt lat="44.3852902" lon="11.5884901"><ele>73.0</ele><time>2026-05-01T11:35:15.965Z</time></trkpt><trkpt lat="44.3853636" lon="11.5884863"><ele>73.0</ele><time>2026-05-01T11:35:17.96Z</time></trkpt><trkpt lat="44.3854606" lon="11.5884907"><ele>73.0</ele><time>2026-05-01T11:35:20.963Z</time></trkpt><trkpt lat="44.3855443" lon="11.5884896"><ele>73.0</ele><time>2026-05-01T11:35:22.962Z</time></trkpt><trkpt lat="44.3856163" lon="11.5884948"><ele>73.0</ele><time>2026-05-01T11:35:26.975Z</time></trkpt><trkpt lat="44.3857393" lon="11.5884996"><ele>73.0</ele><time>2026-05-01T11:35:28.965Z</time></trkpt><trkpt lat="44.3858035" lon="11.5885066"><ele>73.0</ele><time>2026-05-01T11:35:29.96Z</time></trkpt><trkpt lat="44.3859225" lon="11.5885128"><ele>73.0</ele><time>2026-05-01T11:35:31.968Z</time></trkpt><trkpt lat="44.386041" lon="11.5885151"><ele>73.0</ele><time>2026-05-01T11:35:33.958Z</time></trkpt><trkpt lat="44.3861563" lon="11.5885327"><ele>73.0</ele><time>2026-05-01T11:35:35.967Z</time></trkpt><trkpt lat="44.3862766" lon="11.5885381"><ele>72.6</ele><time>2026-05-01T11:35:37.963Z</time></trkpt><trkpt lat="44.3864007" lon="11.5885387"><ele>72.19999999999999</ele><time>2026-05-01T11:35:40.04Z</time></trkpt><trkpt lat="44.3865223" lon="11.5885446"><ele>71.8</ele><time>2026-05-01T11:35:41.96Z</time></trkpt><trkpt lat="44.3865859" lon="11.5885542"><ele>71.39999999999999</ele><time>2026-05-01T11:35:42.967Z</time></trkpt><trkpt lat="44.386711" lon="11.5885744"><ele>71.0</ele><time>2026-05-01T11:35:44.959Z</time></trkpt><trkpt lat="44.3867766" lon="11.5885762"><ele>71.0</ele><time>2026-05-01T11:35:45.961Z</time></trkpt><trkpt lat="44.38684" lon="11.5885783"><ele>71.0</ele><time>2026-05-01T11:35:46.963Z</time></trkpt><trkpt lat="44.3869043" lon="11.5885803"><ele>71.0</ele><time>2026-05-01T11:35:48.037Z</time></trkpt><trkpt lat="44.3870272" lon="11.5885766"><ele>71.0</ele><time>2026-05-01T11:35:50.04Z</time></trkpt><trkpt lat="44.3871496" lon="11.5885718"><ele>71.0</ele><time>2026-05-01T11:35:52.039Z</time></trkpt><trkpt lat="44.387216" lon="11.5885673"><ele>71.0</ele><time>2026-05-01T11:35:53.042Z</time></trkpt><trkpt lat="44.3872867" lon="11.5885688"><ele>70.85714285714286</ele><time>2026-05-01T11:35:54.03Z</time></trkpt><trkpt lat="44.3873612" lon="11.5885683"><ele>70.71428571428571</ele><time>2026-05-01T11:35:54.963Z</time></trkpt><trkpt lat="44.3874331" lon="11.5885627"><ele>70.57142857142857</ele><time>2026-05-01T11:35:55.964Z</time></trkpt><trkpt lat="44.3875019" lon="11.5885478"><ele>70.42857142857143</ele><time>2026-05-01T11:35:56.984Z</time></trkpt><trkpt lat="44.3875747" lon="11.5885355"><ele>70.28571428571428</ele><time>2026-05-01T11:35:57.974Z</time></trkpt><trkpt lat="44.3876452" lon="11.5885296"><ele>70.14285714285714</ele><time>2026-05-01T11:35:58.988Z</time></trkpt><trkpt lat="44.387718" lon="11.5885277"><ele>70.0</ele><time>2026-05-01T11:35:59.966Z</time></trkpt><trkpt lat="44.3877881" lon="11.5885238"><ele>70.0</ele><time>2026-05-01T11:36:00.967Z</time></trkpt><trkpt lat="44.3878524" lon="11.5885148"><ele>70.0</ele><time>2026-05-01T11:36:01.966Z</time></trkpt><trkpt lat="44.3879802" lon="11.5885035"><ele>70.0</ele><time>2026-05-01T11:36:03.96Z</time></trkpt><trkpt lat="44.3880453" lon="11.5884964"><ele>70.0</ele><time>2026-05-01T11:36:04.963Z</time></trkpt><trkpt lat="44.3881082" lon="11.5884838"><ele>70.0</ele><time>2026-05-01T11:36:05.98Z</time></trkpt><trkpt lat="44.3881743" lon="11.5884718"><ele>70.0</ele><time>2026-05-01T11:36:06.957Z</time></trkpt><trkpt lat="44.3882964" lon="11.5884628"><ele>69.8</ele><time>2026-05-01T11:36:08.96Z</time></trkpt><trkpt lat="44.3884215" lon="11.5884488"><ele>69.6</ele><time>2026-05-01T11:36:10.967Z</time></trkpt><trkpt lat="44.3885449" lon="11.5884353"><ele>69.4</ele><time>2026-05-01T11:36:12.975Z</time></trkpt><trkpt lat="44.3886091" lon="11.5884311"><ele>69.2</ele><time>2026-05-01T11:36:13.969Z</time></trkpt><trkpt lat="44.3887344" lon="11.5884112"><ele>69.0</ele><time>2026-05-01T11:36:15.968Z</time></trkpt><trkpt lat="44.3887974" lon="11.5883965"><ele>69.16666666666667</ele><time>2026-05-01T11:36:16.972Z</time></trkpt><trkpt lat="44.3888612" lon="11.5883892"><ele>69.33333333333333</ele><time>2026-05-01T11:36:17.98Z</time></trkpt><trkpt lat="44.3889274" lon="11.5883909"><ele>69.5</ele><time>2026-05-01T11:36:18.979Z</time></trkpt><trkpt lat="44.3889914" lon="11.5883872"><ele>69.66666666666666</ele><time>2026-05-01T11:36:19.984Z</time></trkpt><trkpt lat="44.3891154" lon="11.5883712"><ele>69.83333333333333</ele><time>2026-05-01T11:36:21.975Z</time></trkpt><trkpt lat="44.3891797" lon="11.588361"><ele>70.0</ele><time>2026-05-01T11:36:22.975Z</time></trkpt><trkpt lat="44.3893005" lon="11.5883498"><ele>70.0</ele><time>2026-05-01T11:36:24.952Z</time></trkpt><trkpt lat="44.3893665" lon="11.5883566"><ele>70.0</ele><time>2026-05-01T11:36:25.967Z</time></trkpt><trkpt lat="44.3894309" lon="11.588364"><ele>70.0</ele><time>2026-05-01T11:36:26.966Z</time></trkpt><trkpt lat="44.3894972" lon="11.5883794"><ele>70.0</ele><time>2026-05-01T11:36:27.972Z</time></trkpt><trkpt lat="44.3895593" lon="11.5883992"><ele>70.0</ele><time>2026-05-01T11:36:28.972Z</time></trkpt><trkpt lat="44.3896777" lon="11.5884569"><ele>70.0</ele><time>2026-05-01T11:36:30.968Z</time></trkpt><trkpt lat="44.3897906" lon="11.5885017"><ele>70.75</ele><time>2026-05-01T11:36:32.981Z</time></trkpt><trkpt lat="44.3899087" lon="11.5885447"><ele>71.5</ele><time>2026-05-01T11:36:34.961Z</time></trkpt><trkpt lat="44.3900175" lon="11.5885956"><ele>72.25</ele><time>2026-05-01T11:36:36.964Z</time></trkpt><trkpt lat="44.3901262" lon="11.5886485"><ele>73.0</ele><time>2026-05-01T11:36:38.971Z</time></trkpt><trkpt lat="44.3902341" lon="11.5886891"><ele>72.4</ele><time>2026-05-01T11:36:40.974Z</time></trkpt><trkpt lat="44.3903463" lon="11.5886985"><ele>71.8</ele><time>2026-05-01T11:36:42.959Z</time></trkpt><trkpt lat="44.3904584" lon="11.5886792"><ele>71.2</ele><time>2026-05-01T11:36:44.969Z</time></trkpt><trkpt lat="44.3905693" lon="11.588654"><ele>70.6</ele><time>2026-05-01T11:36:46.968Z</time></trkpt><trkpt lat="44.3906773" lon="11.5886498"><ele>70.0</ele><time>2026-05-01T11:36:48.964Z</time></trkpt><trkpt lat="44.3907955" lon="11.5886379"><ele>70.0</ele><time>2026-05-01T11:36:50.963Z</time></trkpt><trkpt lat="44.3909138" lon="11.5886279"><ele>70.0</ele><time>2026-05-01T11:36:52.96Z</time></trkpt><trkpt lat="44.3910371" lon="11.5886231"><ele>70.0</ele><time>2026-05-01T11:36:54.962Z</time></trkpt><trkpt lat="44.3911049" lon="11.5886232"><ele>70.0</ele><time>2026-05-01T11:36:55.962Z</time></trkpt><trkpt lat="44.3911706" lon="11.5886226"><ele>70.0</ele><time>2026-05-01T11:36:56.959Z</time></trkpt><trkpt lat="44.3912349" lon="11.5886172"><ele>70.0</ele><time>2026-05-01T11:36:58.033Z</time></trkpt><trkpt lat="44.3913526" lon="11.5886069"><ele>70.75</ele><time>2026-05-01T11:36:59.962Z</time></trkpt><trkpt lat="44.3914698" lon="11.588598"><ele>71.5</ele><time>2026-05-01T11:37:01.96Z</time></trkpt><trkpt lat="44.3915846" lon="11.5885852"><ele>72.25</ele><time>2026-05-01T11:37:04.033Z</time></trkpt><trkpt lat="44.3916945" lon="11.5885861"><ele>73.0</ele><time>2026-05-01T11:37:05.953Z</time></trkpt><trkpt lat="44.3918057" lon="11.5885863"><ele>73.0</ele><time>2026-05-01T11:37:07.962Z</time></trkpt><trkpt lat="44.3919148" lon="11.5885998"><ele>73.0</ele><time>2026-05-01T11:37:09.962Z</time></trkpt><trkpt lat="44.3920143" lon="11.5886467"><ele>73.0</ele><time>2026-05-01T11:37:11.952Z</time></trkpt><trkpt lat="44.3921161" lon="11.5887036"><ele>73.0</ele><time>2026-05-01T11:37:13.962Z</time></trkpt><trkpt lat="44.392216" lon="11.588756"><ele>73.0</ele><time>2026-05-01T11:37:15.966Z</time></trkpt><trkpt lat="44.3923125" lon="11.5887985"><ele>72.33333333333333</ele><time>2026-05-01T11:37:17.963Z</time></trkpt><trkpt lat="44.3924103" lon="11.5888493"><ele>71.66666666666666</ele><time>2026-05-01T11:37:19.967Z</time></trkpt><trkpt lat="44.392493" lon="11.5888767"><ele>71.0</ele><time>2026-05-01T11:37:22.032Z</time></trkpt><trkpt lat="44.3925755" lon="11.5888962"><ele>70.33333333333333</ele><time>2026-05-01T11:37:23.97Z</time></trkpt><trkpt lat="44.3926522" lon="11.5889284"><ele>69.66666666666667</ele><time>2026-05-01T11:37:25.959Z</time></trkpt><trkpt lat="44.3927304" lon="11.5889381"><ele>69.0</ele><time>2026-05-01T11:37:27.957Z</time></trkpt><trkpt lat="44.3928058" lon="11.5889493"><ele>69.0</ele><time>2026-05-01T11:37:29.967Z</time></trkpt><trkpt lat="44.3928813" lon="11.5889554"><ele>69.0</ele><time>2026-05-01T11:37:31.963Z</time></trkpt><trkpt lat="44.3929502" lon="11.5889598"><ele>69.0</ele><time>2026-05-01T11:37:33.958Z</time></trkpt><trkpt lat="44.3930207" lon="11.5889571"><ele>69.0</ele><time>2026-05-01T11:37:35.967Z</time></trkpt><trkpt lat="44.3930975" lon="11.5889594"><ele>69.0</ele><time>2026-05-01T11:37:37.967Z</time></trkpt><trkpt lat="44.3931759" lon="11.5889503"><ele>69.0</ele><time>2026-05-01T11:37:39.983Z</time></trkpt><trkpt lat="44.3932498" lon="11.5889467"><ele>69.0</ele><time>2026-05-01T11:37:41.968Z</time></trkpt><trkpt lat="44.3933252" lon="11.5889397"><ele>69.42857142857143</ele><time>2026-05-01T11:37:43.974Z</time></trkpt><trkpt lat="44.3934012" lon="11.5889229"><ele>69.85714285714286</ele><time>2026-05-01T11:37:45.956Z</time></trkpt><trkpt lat="44.3934694" lon="11.5888979"><ele>70.28571428571429</ele><time>2026-05-01T11:37:47.968Z</time></trkpt><trkpt lat="44.3935404" lon="11.5888724"><ele>70.71428571428572</ele><time>2026-05-01T11:37:49.963Z</time></trkpt><trkpt lat="44.3936217" lon="11.5888504"><ele>71.14285714285714</ele><time>2026-05-01T11:37:51.972Z</time></trkpt><trkpt lat="44.3936901" lon="11.5888334"><ele>71.57142857142858</ele><time>2026-05-01T11:37:53.966Z</time></trkpt><trkpt lat="44.3937584" lon="11.588829"><ele>72.0</ele><time>2026-05-01T11:37:55.969Z</time></trkpt><trkpt lat="44.3938347" lon="11.5888339"><ele>72.85714285714286</ele><time>2026-05-01T11:37:57.969Z</time></trkpt><trkpt lat="44.3939064" lon="11.5888534"><ele>73.71428571428572</ele><time>2026-05-01T11:37:59.968Z</time></trkpt><trkpt lat="44.3939796" lon="11.5888709"><ele>74.57142857142858</ele><time>2026-05-01T11:38:01.967Z</time></trkpt><trkpt lat="44.3940575" lon="11.5888972"><ele>75.42857142857143</ele><time>2026-05-01T11:38:03.984Z</time></trkpt><trkpt lat="44.3941324" lon="11.5889175"><ele>76.28571428571428</ele><time>2026-05-01T11:38:05.953Z</time></trkpt><trkpt lat="44.3941952" lon="11.5889452"><ele>77.14285714285715</ele><time>2026-05-01T11:38:07.965Z</time></trkpt><trkpt lat="44.3942648" lon="11.5889777"><ele>78.0</ele><time>2026-05-01T11:38:09.962Z</time></trkpt><trkpt lat="44.3943327" lon="11.5890176"><ele>78.0</ele><time>2026-05-01T11:38:11.963Z</time></trkpt><trkpt lat="44.3944101" lon="11.5890686"><ele>78.0</ele><time>2026-05-01T11:38:14.064Z</time></trkpt><trkpt lat="44.3944864" lon="11.5891198"><ele>78.0</ele><time>2026-05-01T11:38:15.968Z</time></trkpt><trkpt lat="44.3945497" lon="11.5891669"><ele>78.0</ele><time>2026-05-01T11:38:17.962Z</time></trkpt><trkpt lat="44.3946098" lon="11.5892098"><ele>78.0</ele><time>2026-05-01T11:38:19.963Z</time></trkpt><trkpt lat="44.394677" lon="11.5892456"><ele>78.0</ele><time>2026-05-01T11:38:22.975Z</time></trkpt><trkpt lat="44.3947368" lon="11.5892873"><ele>78.0</ele><time>2026-05-01T11:38:26.951Z</time></trkpt><trkpt lat="44.3948025" lon="11.5893118"><ele>78.57142857142857</ele><time>2026-05-01T11:38:31.974Z</time></trkpt><trkpt lat="44.3948663" lon="11.5893496"><ele>79.14285714285714</ele><time>2026-05-01T11:38:36.969Z</time></trkpt><trkpt lat="44.394925" lon="11.5893828"><ele>79.71428571428571</ele><time>2026-05-01T11:38:39.972Z</time></trkpt><trkpt lat="44.3949921" lon="11.5894135"><ele>80.28571428571428</ele><time>2026-05-01T11:38:42.963Z</time></trkpt><trkpt lat="44.3950644" lon="11.5894454"><ele>80.85714285714286</ele><time>2026-05-01T11:38:45.966Z</time></trkpt><trkpt lat="44.3951446" lon="11.5894628"><ele>81.42857142857142</ele><time>2026-05-01T11:38:48.971Z</time></trkpt><trkpt lat="44.3952114" lon="11.5894785"><ele>82.0</ele><time>2026-05-01T11:38:50.966Z</time></trkpt><trkpt lat="44.3952792" lon="11.5894944"><ele>81.99999999999999</ele><time>2026-05-01T11:38:52.964Z</time></trkpt><trkpt lat="44.3953497" lon="11.5895097"><ele>82.0</ele><time>2026-05-01T11:38:54.97Z</time></trkpt><trkpt lat="44.3954169" lon="11.5895249"><ele>82.0</ele><time>2026-05-01T11:38:56.966Z</time></trkpt><trkpt lat="44.3954889" lon="11.5895542"><ele>82.0</ele><time>2026-05-01T11:38:58.957Z</time></trkpt><trkpt lat="44.3955595" lon="11.5895924"><ele>82.0</ele><time>2026-05-01T11:39:00.971Z</time></trkpt><trkpt lat="44.3956227" lon="11.5896072"><ele>81.99999999999999</ele><time>2026-05-01T11:39:02.971Z</time></trkpt><trkpt lat="44.3956841" lon="11.5895533"><ele>82.0</ele><time>2026-05-01T11:39:05.962Z</time></trkpt><trkpt lat="44.395703" lon="11.5894399"><ele>82.28571428571428</ele><time>2026-05-01T11:39:08.961Z</time></trkpt><trkpt lat="44.3957369" lon="11.5893624"><ele>82.57142857142857</ele><time>2026-05-01T11:39:10.964Z</time></trkpt><trkpt lat="44.3957927" lon="11.5893015"><ele>82.85714285714286</ele><time>2026-05-01T11:39:12.975Z</time></trkpt><trkpt lat="44.3958573" lon="11.5892503"><ele>83.14285714285714</ele><time>2026-05-01T11:39:14.957Z</time></trkpt><trkpt lat="44.3959217" lon="11.5891937"><ele>83.42857142857143</ele><time>2026-05-01T11:39:16.969Z</time></trkpt><trkpt lat="44.3959877" lon="11.589146"><ele>83.71428571428571</ele><time>2026-05-01T11:39:18.963Z</time></trkpt><trkpt lat="44.3960563" lon="11.5890883"><ele>84.0</ele><time>2026-05-01T11:39:20.973Z</time></trkpt><trkpt lat="44.3961196" lon="11.589035"><ele>84.0</ele><time>2026-05-01T11:39:22.968Z</time></trkpt><trkpt lat="44.3961869" lon="11.588974"><ele>84.0</ele><time>2026-05-01T11:39:24.973Z</time></trkpt><trkpt lat="44.3962516" lon="11.5889117"><ele>84.0</ele><time>2026-05-01T11:39:26.979Z</time></trkpt><trkpt lat="44.3963097" lon="11.5888443"><ele>84.0</ele><time>2026-05-01T11:39:28.971Z</time></trkpt><trkpt lat="44.3963503" lon="11.5887543"><ele>84.0</ele><time>2026-05-01T11:39:30.968Z</time></trkpt><trkpt lat="44.3963921" lon="11.5886617"><ele>84.0</ele><time>2026-05-01T11:39:32.97Z</time></trkpt><trkpt lat="44.39644" lon="11.5885535"><ele>84.4</ele><time>2026-05-01T11:39:34.964Z</time></trkpt><trkpt lat="44.3964712" lon="11.5884505"><ele>84.80000000000001</ele><time>2026-05-01T11:39:36.969Z</time></trkpt><trkpt lat="44.3964689" lon="11.5883336"><ele>85.19999999999999</ele><time>2026-05-01T11:39:38.963Z</time></trkpt><trkpt lat="44.3964637" lon="11.5882028"><ele>85.6</ele><time>2026-05-01T11:39:40.965Z</time></trkpt><trkpt lat="44.396467" lon="11.5880678"><ele>86.0</ele><time>2026-05-01T11:39:42.963Z</time></trkpt><trkpt lat="44.3964811" lon="11.5879322"><ele>85.8</ele><time>2026-05-01T11:39:44.96Z</time></trkpt><trkpt lat="44.3965381" lon="11.5878206"><ele>85.6</ele><time>2026-05-01T11:39:46.954Z</time></trkpt><trkpt lat="44.3966215" lon="11.5877096"><ele>85.4</ele><time>2026-05-01T11:39:48.966Z</time></trkpt><trkpt lat="44.3967282" lon="11.5876266"><ele>85.2</ele><time>2026-05-01T11:39:50.97Z</time></trkpt><trkpt lat="44.396795" lon="11.5876092"><ele>85.0</ele><time>2026-05-01T11:39:51.972Z</time></trkpt><trkpt lat="44.3968597" lon="11.5876143"><ele>85.0</ele><time>2026-05-01T11:39:52.966Z</time></trkpt><trkpt lat="44.3969248" lon="11.5876266"><ele>85.0</ele><time>2026-05-01T11:39:53.963Z</time></trkpt><trkpt lat="44.3969892" lon="11.5876412"><ele>85.0</ele><time>2026-05-01T11:39:54.966Z</time></trkpt><trkpt lat="44.3971102" lon="11.5876939"><ele>85.0</ele><time>2026-05-01T11:39:56.972Z</time></trkpt><trkpt lat="44.3971732" lon="11.5877273"><ele>85.0</ele><time>2026-05-01T11:39:57.969Z</time></trkpt><trkpt lat="44.3972389" lon="11.5877601"><ele>85.0</ele><time>2026-05-01T11:39:58.965Z</time></trkpt><trkpt lat="44.3973004" lon="11.5878057"><ele>84.5</ele><time>2026-05-01T11:39:59.968Z</time></trkpt><trkpt lat="44.397368" lon="11.587834"><ele>84.0</ele><time>2026-05-01T11:40:00.965Z</time></trkpt><trkpt lat="44.3974268" lon="11.5878691"><ele>83.5</ele><time>2026-05-01T11:40:01.972Z</time></trkpt><trkpt lat="44.3974866" lon="11.5879123"><ele>83.0</ele><time>2026-05-01T11:40:02.977Z</time></trkpt><trkpt lat="44.3976003" lon="11.5879842"><ele>82.5</ele><time>2026-05-01T11:40:04.962Z</time></trkpt><trkpt lat="44.3976625" lon="11.5880206"><ele>82.0</ele><time>2026-05-01T11:40:05.957Z</time></trkpt><trkpt lat="44.3977221" lon="11.5880598"><ele>82.0</ele><time>2026-05-01T11:40:06.968Z</time></trkpt><trkpt lat="44.3978243" lon="11.5881338"><ele>82.0</ele><time>2026-05-01T11:40:08.958Z</time></trkpt><trkpt lat="44.3978927" lon="11.5881787"><ele>82.0</ele><time>2026-05-01T11:40:10.972Z</time></trkpt><trkpt lat="44.3979514" lon="11.588211"><ele>82.0</ele><time>2026-05-01T11:40:12.965Z</time></trkpt><trkpt lat="44.3980101" lon="11.5882519"><ele>82.0</ele><time>2026-05-01T11:40:14.972Z</time></trkpt><trkpt lat="44.3980716" lon="11.5882932"><ele>82.0</ele><time>2026-05-01T11:40:16.965Z</time></trkpt><trkpt lat="44.3981415" lon="11.5883385"><ele>81.19999999999999</ele><time>2026-05-01T11:40:18.968Z</time></trkpt><trkpt lat="44.3982216" lon="11.5883937"><ele>80.39999999999999</ele><time>2026-05-01T11:40:20.966Z</time></trkpt><trkpt lat="44.3983073" lon="11.5884511"><ele>79.6</ele><time>2026-05-01T11:40:22.978Z</time></trkpt><trkpt lat="44.3984073" lon="11.5885156"><ele>78.8</ele><time>2026-05-01T11:40:24.976Z</time></trkpt><trkpt lat="44.3985099" lon="11.5885809"><ele>78.0</ele><time>2026-05-01T11:40:26.969Z</time></trkpt><trkpt lat="44.3986175" lon="11.5886541"><ele>77.8</ele><time>2026-05-01T11:40:28.986Z</time></trkpt><trkpt lat="44.3987253" lon="11.5887208"><ele>77.6</ele><time>2026-05-01T11:40:30.981Z</time></trkpt><trkpt lat="44.3987849" lon="11.588759"><ele>77.4</ele><time>2026-05-01T11:40:31.983Z</time></trkpt><trkpt lat="44.3988455" lon="11.5887955"><ele>77.2</ele><time>2026-05-01T11:40:32.982Z</time></trkpt><trkpt lat="44.3989584" lon="11.5888657"><ele>77.0</ele><time>2026-05-01T11:40:34.978Z</time></trkpt><trkpt lat="44.3990654" lon="11.5889435"><ele>77.0</ele><time>2026-05-01T11:40:36.972Z</time></trkpt><trkpt lat="44.3991779" lon="11.589011"><ele>77.0</ele><time>2026-05-01T11:40:38.967Z</time></trkpt><trkpt lat="44.399234" lon="11.5890526"><ele>77.0</ele><time>2026-05-01T11:40:39.958Z</time></trkpt><trkpt lat="44.3993426" lon="11.5891264"><ele>77.0</ele><time>2026-05-01T11:40:41.972Z</time></trkpt><trkpt lat="44.3994363" lon="11.589216"><ele>77.0</ele><time>2026-05-01T11:40:43.97Z</time></trkpt><trkpt lat="44.3995065" lon="11.5893299"><ele>77.0</ele><time>2026-05-01T11:40:45.958Z</time></trkpt><trkpt lat="44.399554" lon="11.5894721"><ele>77.0</ele><time>2026-05-01T11:40:47.964Z</time></trkpt><trkpt lat="44.3995887" lon="11.5896275"><ele>77.0</ele><time>2026-05-01T11:40:49.969Z</time></trkpt><trkpt lat="44.3995788" lon="11.5897922"><ele>77.0</ele><time>2026-05-01T11:40:51.965Z</time></trkpt><trkpt lat="44.3995483" lon="11.58995"><ele>77.6</ele><time>2026-05-01T11:40:54.031Z</time></trkpt><trkpt lat="44.3995077" lon="11.5900936"><ele>78.2</ele><time>2026-05-01T11:40:55.961Z</time></trkpt><trkpt lat="44.3994712" lon="11.5902272"><ele>78.8</ele><time>2026-05-01T11:40:57.965Z</time></trkpt><trkpt lat="44.3994433" lon="11.590353"><ele>79.4</ele><time>2026-05-01T11:40:59.969Z</time></trkpt><trkpt lat="44.3994002" lon="11.5904698"><ele>80.0</ele><time>2026-05-01T11:41:01.959Z</time></trkpt><trkpt lat="44.3993726" lon="11.5905737"><ele>80.0</ele><time>2026-05-01T11:41:03.95Z</time></trkpt><trkpt lat="44.3993337" lon="11.5906705"><ele>80.0</ele><time>2026-05-01T11:41:05.974Z</time></trkpt><trkpt lat="44.3993019" lon="11.5907477"><ele>80.0</ele><time>2026-05-01T11:41:07.958Z</time></trkpt><trkpt lat="44.3993634" lon="11.5907941"><ele>80.0</ele><time>2026-05-01T11:41:14.958Z</time></trkpt><trkpt lat="44.399304" lon="11.5907458"><ele>80.0</ele><time>2026-05-01T11:41:27.954Z</time></trkpt><trkpt lat="44.3992791" lon="11.5908285"><ele>80.0</ele><time>2026-05-01T11:41:33.951Z</time></trkpt><trkpt lat="44.3993348" lon="11.5907416"><ele>80.0</ele><time>2026-05-01T11:41:37.964Z</time></trkpt><trkpt lat="44.3994002" lon="11.5907613"><ele>80.0</ele><time>2026-05-01T11:41:42.961Z</time></trkpt><trkpt lat="44.3993433" lon="11.5908011"><ele>80.0</ele><time>2026-05-01T11:41:49.967Z</time></trkpt><trkpt lat="44.3993006" lon="11.5909125"><ele>80.0</ele><time>2026-05-01T11:41:54.954Z</time></trkpt><trkpt lat="44.3992605" lon="11.5909835"><ele>80.0</ele><time>2026-05-01T11:41:57.963Z</time></trkpt><trkpt lat="44.3992196" lon="11.5910695"><ele>80.0</ele><time>2026-05-01T11:42:00.962Z</time></trkpt><trkpt lat="44.3991853" lon="11.5911663"><ele>80.0</ele><time>2026-05-01T11:42:03.949Z</time></trkpt><trkpt lat="44.3991829" lon="11.5910347"><ele>80.0</ele><time>2026-05-01T11:42:11.96Z</time></trkpt><trkpt lat="44.3991855" lon="11.5909172"><ele>80.0</ele><time>2026-05-01T11:42:14.961Z</time></trkpt><trkpt lat="44.399188" lon="11.5908072"><ele>80.0</ele><time>2026-05-01T11:42:17.966Z</time></trkpt><trkpt lat="44.3991338" lon="11.5907613"><ele>80.0</ele><time>2026-05-01T11:42:20.968Z</time></trkpt><trkpt lat="44.3990317" lon="11.590716"><ele>80.0</ele><time>2026-05-01T11:42:22.947Z</time></trkpt><trkpt lat="44.3989424" lon="11.5906991"><ele>80.0</ele><time>2026-05-01T11:42:24.959Z</time></trkpt><trkpt lat="44.398852" lon="11.5906514"><ele>80.16666666666667</ele><time>2026-05-01T11:42:26.949Z</time></trkpt><trkpt lat="44.3987195" lon="11.5905646"><ele>80.33333333333334</ele><time>2026-05-01T11:42:28.951Z</time></trkpt><trkpt lat="44.3986465" lon="11.5905063"><ele>80.5</ele><time>2026-05-01T11:42:30.957Z</time></trkpt><trkpt lat="44.3986367" lon="11.5904129"><ele>80.66666666666667</ele><time>2026-05-01T11:42:34.961Z</time></trkpt><trkpt lat="44.39858" lon="11.5903691"><ele>80.83333333333333</ele><time>2026-05-01T11:42:37.962Z</time></trkpt><trkpt lat="44.3985202" lon="11.5902939"><ele>81.0</ele><time>2026-05-01T11:42:40.956Z</time></trkpt><trkpt lat="44.3984456" lon="11.5902344"><ele>81.33333333333333</ele><time>2026-05-01T11:42:43.951Z</time></trkpt><trkpt lat="44.3983662" lon="11.5901836"><ele>81.66666666666667</ele><time>2026-05-01T11:42:46.96Z</time></trkpt><trkpt lat="44.398283" lon="11.5901511"><ele>82.0</ele><time>2026-05-01T11:42:49.96Z</time></trkpt><trkpt lat="44.3982016" lon="11.5901066"><ele>82.33333333333334</ele><time>2026-05-01T11:42:52.957Z</time></trkpt><trkpt lat="44.3981442" lon="11.5900652"><ele>82.66666666666667</ele><time>2026-05-01T11:42:54.96Z</time></trkpt><trkpt lat="44.3980937" lon="11.5900077"><ele>83.0</ele><time>2026-05-01T11:42:58.964Z</time></trkpt><trkpt lat="44.3980226" lon="11.5899724"><ele>83.0</ele><time>2026-05-01T11:43:02.966Z</time></trkpt><trkpt lat="44.3979676" lon="11.5899186"><ele>83.0</ele><time>2026-05-01T11:43:06.965Z</time></trkpt><trkpt lat="44.3979133" lon="11.5898671"><ele>83.0</ele><time>2026-05-01T11:43:09.962Z</time></trkpt><trkpt lat="44.3978622" lon="11.5898093"><ele>83.0</ele><time>2026-05-01T11:43:13.949Z</time></trkpt><trkpt lat="44.3979327" lon="11.5897723"><ele>83.0</ele><time>2026-05-01T11:43:19.965Z</time></trkpt><trkpt lat="44.3980019" lon="11.5897824"><ele>83.0</ele><time>2026-05-01T11:43:22.968Z</time></trkpt><trkpt lat="44.3980705" lon="11.5897538"><ele>83.0</ele><time>2026-05-01T11:43:25.977Z</time></trkpt><trkpt lat="44.3979957" lon="11.5897308"><ele>83.0</ele><time>2026-05-01T11:43:32.962Z</time></trkpt><trkpt lat="44.3979139" lon="11.5897537"><ele>83.0</ele><time>2026-05-01T11:43:36.954Z</time></trkpt><trkpt lat="44.3978592" lon="11.5897984"><ele>83.0</ele><time>2026-05-01T11:43:39.964Z</time></trkpt><trkpt lat="44.3978215" lon="11.5898848"><ele>83.0</ele><time>2026-05-01T11:43:43.964Z</time></trkpt><trkpt lat="44.397789" lon="11.5899771"><ele>83.0</ele><time>2026-05-01T11:43:47.969Z</time></trkpt><trkpt lat="44.3977524" lon="11.590067"><ele>83.0</ele><time>2026-05-01T11:43:50.967Z</time></trkpt><trkpt lat="44.3977195" lon="11.5901802"><ele>83.0</ele><time>2026-05-01T11:43:53.968Z</time></trkpt><trkpt lat="44.3976917" lon="11.5902692"><ele>83.0</ele><time>2026-05-01T11:43:55.964Z</time></trkpt><trkpt lat="44.3976523" lon="11.5903494"><ele>83.0</ele><time>2026-05-01T11:43:57.969Z</time></trkpt><trkpt lat="44.3976293" lon="11.5904315"><ele>83.0</ele><time>2026-05-01T11:43:59.964Z</time></trkpt><trkpt lat="44.3976001" lon="11.5905179"><ele>83.0</ele><time>2026-05-01T11:44:01.975Z</time></trkpt><trkpt lat="44.3975703" lon="11.5906111"><ele>83.0</ele><time>2026-05-01T11:44:03.969Z</time></trkpt><trkpt lat="44.3975423" lon="11.5907084"><ele>83.0</ele><time>2026-05-01T11:44:05.973Z</time></trkpt><trkpt lat="44.3975183" lon="11.5907941"><ele>83.0</ele><time>2026-05-01T11:44:07.966Z</time></trkpt><trkpt lat="44.3974992" lon="11.5909133"><ele>83.0</ele><time>2026-05-01T11:44:10.972Z</time></trkpt><trkpt lat="44.3974683" lon="11.5909992"><ele>83.0</ele><time>2026-05-01T11:44:12.963Z</time></trkpt><trkpt lat="44.3974316" lon="11.591072"><ele>83.0</ele><time>2026-05-01T11:44:14.963Z</time></trkpt><trkpt lat="44.397388" lon="11.5911736"><ele>83.0</ele><time>2026-05-01T11:44:17.968Z</time></trkpt><trkpt lat="44.397378" lon="11.5912714"><ele>83.0</ele><time>2026-05-01T11:44:20.968Z</time></trkpt><trkpt lat="44.3973037" lon="11.5912693"><ele>83.0</ele><time>2026-05-01T11:44:25.973Z</time></trkpt><trkpt lat="44.3972216" lon="11.5912251"><ele>82.57142857142857</ele><time>2026-05-01T11:44:28.985Z</time></trkpt><trkpt lat="44.3971504" lon="11.5912038"><ele>82.14285714285715</ele><time>2026-05-01T11:44:30.968Z</time></trkpt><trkpt lat="44.3970846" lon="11.5911825"><ele>81.71428571428572</ele><time>2026-05-01T11:44:32.974Z</time></trkpt><trkpt lat="44.3970219" lon="11.5911571"><ele>81.28571428571428</ele><time>2026-05-01T11:44:34.964Z</time></trkpt><trkpt lat="44.396956" lon="11.5911309"><ele>80.85714285714286</ele><time>2026-05-01T11:44:36.97Z</time></trkpt><trkpt lat="44.3968849" lon="11.5911156"><ele>80.42857142857143</ele><time>2026-05-01T11:44:38.974Z</time></trkpt><trkpt lat="44.396825" lon="11.5911445"><ele>80.0</ele><time>2026-05-01T11:44:40.97Z</time></trkpt><trkpt lat="44.3967274" lon="11.5911782"><ele>80.0</ele><time>2026-05-01T11:44:42.957Z</time></trkpt><trkpt lat="44.3966577" lon="11.5911794"><ele>80.0</ele><time>2026-05-01T11:44:43.982Z</time></trkpt><trkpt lat="44.3965948" lon="11.5911628"><ele>80.0</ele><time>2026-05-01T11:44:44.968Z</time></trkpt><trkpt lat="44.3964844" lon="11.5911383"><ele>80.0</ele><time>2026-05-01T11:44:46.981Z</time></trkpt><trkpt lat="44.3963784" lon="11.5911452"><ele>80.0</ele><time>2026-05-01T11:44:48.982Z</time></trkpt><trkpt lat="44.3962898" lon="11.5911588"><ele>80.0</ele><time>2026-05-01T11:44:50.973Z</time></trkpt><trkpt lat="44.3961996" lon="11.5911988"><ele>76.6</ele><time>2026-05-01T11:44:52.967Z</time></trkpt><trkpt lat="44.39612" lon="11.5912488"><ele>73.2</ele><time>2026-05-01T11:44:54.975Z</time></trkpt><trkpt lat="44.3960337" lon="11.5912765"><ele>69.8</ele><time>2026-05-01T11:44:56.969Z</time></trkpt><trkpt lat="44.3959473" lon="11.591288"><ele>66.4</ele><time>2026-05-01T11:44:58.981Z</time></trkpt><trkpt lat="44.3958485" lon="11.5912891"><ele>63.0</ele><time>2026-05-01T11:45:00.979Z</time></trkpt><trkpt lat="44.3957598" lon="11.5912626"><ele>63.0</ele><time>2026-05-01T11:45:02.972Z</time></trkpt><trkpt lat="44.3956782" lon="11.5912379"><ele>63.0</ele><time>2026-05-01T11:45:04.975Z</time></trkpt><trkpt lat="44.39562" lon="11.5911813"><ele>63.0</ele><time>2026-05-01T11:45:06.96Z</time></trkpt><trkpt lat="44.3956013" lon="11.591091"><ele>63.0</ele><time>2026-05-01T11:45:09.977Z</time></trkpt><trkpt lat="44.3956215" lon="11.5909872"><ele>63.0</ele><time>2026-05-01T11:45:13.98Z</time></trkpt><trkpt lat="44.3956044" lon="11.5908929"><ele>63.0</ele><time>2026-05-01T11:45:17.987Z</time></trkpt><trkpt lat="44.3955863" lon="11.5908027"><ele>63.0</ele><time>2026-05-01T11:45:21.964Z</time></trkpt><trkpt lat="44.3956111" lon="11.5906979"><ele>64.57142857142857</ele><time>2026-05-01T11:46:34.958Z</time></trkpt><trkpt lat="44.3956795" lon="11.5906755"><ele>66.14285714285714</ele><time>2026-05-01T11:46:43.954Z</time></trkpt><trkpt lat="44.3957362" lon="11.5906291"><ele>67.71428571428572</ele><time>2026-05-01T11:46:53.959Z</time></trkpt><trkpt lat="44.395778" lon="11.5906983"><ele>69.28571428571428</ele><time>2026-05-01T11:48:25.95Z</time></trkpt><trkpt lat="44.3957394" lon="11.5906243"><ele>70.85714285714286</ele><time>2026-05-01T11:51:17.967Z</time></trkpt><trkpt lat="44.3956762" lon="11.5906193"><ele>72.42857142857143</ele><time>2026-05-01T11:51:25.963Z</time></trkpt><trkpt lat="44.3956133" lon="11.5906555"><ele>74.0</ele><time>2026-05-01T11:53:10.969Z</time></trkpt><trkpt lat="44.3955587" lon="11.5907031"><ele>74.0</ele><time>2026-05-01T11:53:16.977Z</time></trkpt><trkpt lat="44.3955436" lon="11.590613"><ele>74.0</ele><time>2026-05-01T11:53:41.969Z</time></trkpt><trkpt lat="44.3956155" lon="11.5906287"><ele>74.0</ele><time>2026-05-01T11:55:40.972Z</time></trkpt><trkpt lat="44.3956634" lon="11.5906902"><ele>74.0</ele><time>2026-05-01T12:20:11.973Z</time></trkpt><trkpt lat="44.3956931" lon="11.5907707"><ele>74.0</ele><time>2026-05-01T12:20:21.947Z</time></trkpt><trkpt lat="44.3956967" lon="11.5908655"><ele>74.0</ele><time>2026-05-01T12:20:37.974Z</time></trkpt><trkpt lat="44.3957503" lon="11.5909236"><ele>74.0</ele><time>2026-05-01T12:21:04.962Z</time></trkpt><trkpt lat="44.395818" lon="11.590907"><ele>74.0</ele><time>2026-05-01T12:21:18.963Z</time></trkpt><trkpt lat="44.3958811" lon="11.5909199"><ele>74.0</ele><time>2026-05-01T12:21:25.947Z</time></trkpt><trkpt lat="44.3959431" lon="11.5909682"><ele>74.0</ele><time>2026-05-01T12:21:38.966Z</time></trkpt><trkpt lat="44.3960057" lon="11.5909557"><ele>74.0</ele><time>2026-05-01T12:21:47.965Z</time></trkpt><trkpt lat="44.3959385" lon="11.5909154"><ele>74.0</ele><time>2026-05-01T12:22:27.966Z</time></trkpt><trkpt lat="44.3958801" lon="11.5908758"><ele>74.0</ele><time>2026-05-01T12:22:48.966Z</time></trkpt><trkpt lat="44.3958162" lon="11.5909249"><ele>74.0</ele><time>2026-05-01T12:23:48.972Z</time></trkpt><trkpt lat="44.3957514" lon="11.590894"><ele>74.0</ele><time>2026-05-01T12:24:26.949Z</time></trkpt><trkpt lat="44.395675" lon="11.5908227"><ele>74.0</ele><time>2026-05-01T12:24:48.963Z</time></trkpt><trkpt lat="44.3956598" lon="11.5907195"><ele>74.0</ele><time>2026-05-01T12:24:55.957Z</time></trkpt><trkpt lat="44.3956366" lon="11.5906195"><ele>74.0</ele><time>2026-05-01T12:25:03.963Z</time></trkpt><trkpt lat="44.3955984" lon="11.5905482"><ele>74.0</ele><time>2026-05-01T12:29:18.972Z</time></trkpt><trkpt lat="44.3955191" lon="11.5905295"><ele>74.0</ele><time>2026-05-01T12:31:06.97Z</time></trkpt><trkpt lat="44.3955661" lon="11.5905973"><ele>74.0</ele><time>2026-05-01T12:32:08.972Z</time></trkpt><trkpt lat="44.3956304" lon="11.5906095"><ele>74.0</ele><time>2026-05-01T12:32:17.97Z</time></trkpt><trkpt lat="44.3955875" lon="11.5906858"><ele>74.0</ele><time>2026-05-01T12:33:32.965Z</time></trkpt><trkpt lat="44.3956644" lon="11.5906964"><ele>74.0</ele><time>2026-05-01T12:54:14.963Z</time></trkpt><trkpt lat="44.3957291" lon="11.5906657"><ele>74.0</ele><time>2026-05-01T12:54:25.96Z</time></trkpt><trkpt lat="44.3956657" lon="11.5906875"><ele>74.0</ele><time>2026-05-01T12:55:44.948Z</time></trkpt><trkpt lat="44.3955862" lon="11.5906399"><ele>74.0</ele><time>2026-05-01T12:56:21.955Z</time></trkpt><trkpt lat="44.3955645" lon="11.5905528"><ele>74.0</ele><time>2026-05-01T12:56:34.971Z</time></trkpt><trkpt lat="44.3956227" lon="11.5905179"><ele>74.0</ele><time>2026-05-01T12:56:54.866Z</time></trkpt><trkpt lat="44.3956128" lon="11.5906105"><ele>74.0</ele><time>2026-05-01T12:58:45.953Z</time></trkpt><trkpt lat="44.3955608" lon="11.5906943"><ele>74.0</ele><time>2026-05-01T12:58:49.969Z</time></trkpt><trkpt lat="44.3955292" lon="11.590793"><ele>74.0</ele><time>2026-05-01T12:58:52.954Z</time></trkpt><trkpt lat="44.3955028" lon="11.5908967"><ele>74.0</ele><time>2026-05-01T12:58:56.04Z</time></trkpt><trkpt lat="44.3954838" lon="11.5909959"><ele>74.0</ele><time>2026-05-01T12:58:58.97Z</time></trkpt><trkpt lat="44.395462" lon="11.5910841"><ele>74.0</ele><time>2026-05-01T12:59:02.972Z</time></trkpt><trkpt lat="44.3954807" lon="11.5911686"><ele>74.0</ele><time>2026-05-01T12:59:10.963Z</time></trkpt><trkpt lat="44.3955538" lon="11.5911739"><ele>74.0</ele><time>2026-05-01T12:59:14.974Z</time></trkpt><trkpt lat="44.3956223" lon="11.5911886"><ele>74.0</ele><time>2026-05-01T12:59:17.958Z</time></trkpt><trkpt lat="44.3956886" lon="11.5912137"><ele>74.0</ele><time>2026-05-01T12:59:20.952Z</time></trkpt><trkpt lat="44.3957547" lon="11.5912297"><ele>74.0</ele><time>2026-05-01T12:59:23.955Z</time></trkpt><trkpt lat="44.3958203" lon="11.5912436"><ele>74.0</ele><time>2026-05-01T12:59:26.95Z</time></trkpt><trkpt lat="44.3958853" lon="11.5912769"><ele>73.42857142857143</ele><time>2026-05-01T12:59:29.961Z</time></trkpt><trkpt lat="44.3959719" lon="11.5912884"><ele>72.85714285714286</ele><time>2026-05-01T12:59:33.967Z</time></trkpt><trkpt lat="44.3960403" lon="11.5912918"><ele>72.28571428571428</ele><time>2026-05-01T12:59:36.97Z</time></trkpt><trkpt lat="44.3961038" lon="11.5912788"><ele>71.71428571428572</ele><time>2026-05-01T12:59:39.954Z</time></trkpt><trkpt lat="44.3961726" lon="11.5912744"><ele>71.14285714285714</ele><time>2026-05-01T12:59:44.966Z</time></trkpt><trkpt lat="44.396234" lon="11.5913093"><ele>70.57142857142857</ele><time>2026-05-01T12:59:47.968Z</time></trkpt><trkpt lat="44.3963118" lon="11.5913521"><ele>70.0</ele><time>2026-05-01T12:59:51.966Z</time></trkpt><trkpt lat="44.3963691" lon="11.5913912"><ele>70.0</ele><time>2026-05-01T12:59:54.983Z</time></trkpt><trkpt lat="44.396421" lon="11.591444"><ele>70.0</ele><time>2026-05-01T12:59:57.974Z</time></trkpt><trkpt lat="44.3964769" lon="11.5914909"><ele>70.0</ele><time>2026-05-01T13:00:00.975Z</time></trkpt><trkpt lat="44.3965445" lon="11.5915414"><ele>70.0</ele><time>2026-05-01T13:00:03.974Z</time></trkpt><trkpt lat="44.3966175" lon="11.5915779"><ele>70.0</ele><time>2026-05-01T13:00:06.965Z</time></trkpt><trkpt lat="44.3966929" lon="11.591615"><ele>70.0</ele><time>2026-05-01T13:00:09.969Z</time></trkpt><trkpt lat="44.3967604" lon="11.5916357"><ele>70.0</ele><time>2026-05-01T13:00:12.97Z</time></trkpt><trkpt lat="44.3968235" lon="11.5916908"><ele>70.0</ele><time>2026-05-01T13:00:15.965Z</time></trkpt><trkpt lat="44.3968846" lon="11.5917345"><ele>70.0</ele><time>2026-05-01T13:00:17.97Z</time></trkpt><trkpt lat="44.3969706" lon="11.5917836"><ele>70.0</ele><time>2026-05-01T13:00:20.963Z</time></trkpt><trkpt lat="44.3970529" lon="11.5918294"><ele>70.0</ele><time>2026-05-01T13:00:23.968Z</time></trkpt><trkpt lat="44.3970846" lon="11.5919376"><ele>70.0</ele><time>2026-05-01T13:00:26.962Z</time></trkpt><trkpt lat="44.3970619" lon="11.592034"><ele>70.0</ele><time>2026-05-01T13:00:28.97Z</time></trkpt><trkpt lat="44.3970273" lon="11.5921469"><ele>69.0</ele><time>2026-05-01T13:00:30.968Z</time></trkpt><trkpt lat="44.3969856" lon="11.5922626"><ele>68.0</ele><time>2026-05-01T13:00:32.965Z</time></trkpt><trkpt lat="44.3970148" lon="11.5923993"><ele>67.0</ele><time>2026-05-01T13:00:34.964Z</time></trkpt><trkpt lat="44.3971103" lon="11.5924884"><ele>66.0</ele><time>2026-05-01T13:00:36.98Z</time></trkpt><trkpt lat="44.3971906" lon="11.5925722"><ele>65.0</ele><time>2026-05-01T13:00:38.963Z</time></trkpt><trkpt lat="44.3972614" lon="11.5926548"><ele>65.0</ele><time>2026-05-01T13:00:40.963Z</time></trkpt><trkpt lat="44.397322" lon="11.5927282"><ele>65.0</ele><time>2026-05-01T13:00:42.972Z</time></trkpt><trkpt lat="44.3973801" lon="11.5927869"><ele>65.0</ele><time>2026-05-01T13:00:44.976Z</time></trkpt><trkpt lat="44.3974377" lon="11.5928584"><ele>65.0</ele><time>2026-05-01T13:00:46.957Z</time></trkpt><trkpt lat="44.3974999" lon="11.5929293"><ele>65.0</ele><time>2026-05-01T13:00:48.962Z</time></trkpt><trkpt lat="44.397562" lon="11.5929979"><ele>65.0</ele><time>2026-05-01T13:00:50.955Z</time></trkpt><trkpt lat="44.3976243" lon="11.5930653"><ele>64.4</ele><time>2026-05-01T13:00:52.968Z</time></trkpt><trkpt lat="44.3976919" lon="11.5931378"><ele>63.8</ele><time>2026-05-01T13:00:54.96Z</time></trkpt><trkpt lat="44.3977668" lon="11.593217"><ele>63.2</ele><time>2026-05-01T13:00:56.969Z</time></trkpt><trkpt lat="44.3978399" lon="11.5933069"><ele>62.6</ele><time>2026-05-01T13:00:59.035Z</time></trkpt><trkpt lat="44.3979103" lon="11.5933884"><ele>62.0</ele><time>2026-05-01T13:01:00.991Z</time></trkpt><trkpt lat="44.3979884" lon="11.593477"><ele>62.0</ele><time>2026-05-01T13:01:02.987Z</time></trkpt><trkpt lat="44.3980526" lon="11.5935695"><ele>62.0</ele><time>2026-05-01T13:01:04.982Z</time></trkpt><trkpt lat="44.3981116" lon="11.5936655"><ele>62.0</ele><time>2026-05-01T13:01:07.028Z</time></trkpt><trkpt lat="44.3981506" lon="11.5937766"><ele>62.0</ele><time>2026-05-01T13:01:08.965Z</time></trkpt><trkpt lat="44.3981977" lon="11.5939012"><ele>62.0</ele><time>2026-05-01T13:01:10.975Z</time></trkpt><trkpt lat="44.3982468" lon="11.5940204"><ele>62.0</ele><time>2026-05-01T13:01:12.959Z</time></trkpt><trkpt lat="44.3983068" lon="11.5941233"><ele>62.0</ele><time>2026-05-01T13:01:14.977Z</time></trkpt><trkpt lat="44.398359" lon="11.594224"><ele>62.0</ele><time>2026-05-01T13:01:17.034Z</time></trkpt><trkpt lat="44.3984111" lon="11.5943301"><ele>62.0</ele><time>2026-05-01T13:01:18.963Z</time></trkpt><trkpt lat="44.3984667" lon="11.5944304"><ele>62.0</ele><time>2026-05-01T13:01:20.973Z</time></trkpt><trkpt lat="44.398527" lon="11.5945235"><ele>62.0</ele><time>2026-05-01T13:01:22.976Z</time></trkpt><trkpt lat="44.3985986" lon="11.5946251"><ele>62.0</ele><time>2026-05-01T13:01:24.973Z</time></trkpt><trkpt lat="44.3986668" lon="11.5947342"><ele>62.0</ele><time>2026-05-01T13:01:26.972Z</time></trkpt><trkpt lat="44.3987308" lon="11.5948459"><ele>62.0</ele><time>2026-05-01T13:01:28.978Z</time></trkpt><trkpt lat="44.3988107" lon="11.5949612"><ele>62.0</ele><time>2026-05-01T13:01:30.969Z</time></trkpt><trkpt lat="44.3988846" lon="11.5950725"><ele>62.0</ele><time>2026-05-01T13:01:32.98Z</time></trkpt><trkpt lat="44.3989515" lon="11.5951907"><ele>62.0</ele><time>2026-05-01T13:01:34.969Z</time></trkpt><trkpt lat="44.399031" lon="11.5952994"><ele>62.0</ele><time>2026-05-01T13:01:36.97Z</time></trkpt><trkpt lat="44.3990962" lon="11.5954026"><ele>62.0</ele><time>2026-05-01T13:01:38.969Z</time></trkpt><trkpt lat="44.3991615" lon="11.5955082"><ele>62.0</ele><time>2026-05-01T13:01:40.979Z</time></trkpt><trkpt lat="44.3992044" lon="11.59561"><ele>61.85714285714286</ele><time>2026-05-01T13:01:42.962Z</time></trkpt><trkpt lat="44.3992318" lon="11.5957081"><ele>61.71428571428572</ele><time>2026-05-01T13:01:44.971Z</time></trkpt><trkpt lat="44.3992402" lon="11.5958002"><ele>61.57142857142857</ele><time>2026-05-01T13:01:46.975Z</time></trkpt><trkpt lat="44.3992484" lon="11.5958931"><ele>61.42857142857143</ele><time>2026-05-01T13:01:49.971Z</time></trkpt><trkpt lat="44.3993058" lon="11.5959512"><ele>61.285714285714285</ele><time>2026-05-01T13:01:53.955Z</time></trkpt><trkpt lat="44.3993798" lon="11.595967"><ele>61.14285714285714</ele><time>2026-05-01T13:01:56.965Z</time></trkpt><trkpt lat="44.3994696" lon="11.5959905"><ele>60.99999999999999</ele><time>2026-05-01T13:01:59.982Z</time></trkpt><trkpt lat="44.3995506" lon="11.5960084"><ele>60.99999999999999</ele><time>2026-05-01T13:02:02.964Z</time></trkpt><trkpt lat="44.3996144" lon="11.5960135"><ele>61.0</ele><time>2026-05-01T13:02:36.928Z</time></trkpt><trkpt lat="44.3996611" lon="11.5960747"><ele>61.0</ele><time>2026-05-01T13:03:44.976Z</time></trkpt><trkpt lat="44.3996904" lon="11.5962382"><ele>61.0</ele><time>2026-05-01T13:04:19.972Z</time></trkpt><trkpt lat="44.3996426" lon="11.596166"><ele>60.99999999999999</ele><time>2026-05-01T13:04:29.963Z</time></trkpt><trkpt lat="44.3996739" lon="11.5960671"><ele>61.0</ele><time>2026-05-01T13:04:31.967Z</time></trkpt><trkpt lat="44.3997202" lon="11.595997"><ele>61.33333333333333</ele><time>2026-05-01T13:04:33.969Z</time></trkpt><trkpt lat="44.3997922" lon="11.5959909"><ele>61.666666666666664</ele><time>2026-05-01T13:04:36.965Z</time></trkpt><trkpt lat="44.399875" lon="11.5960581"><ele>62.0</ele><time>2026-05-01T13:04:39.971Z</time></trkpt><trkpt lat="44.3999213" lon="11.596127"><ele>62.33333333333333</ele><time>2026-05-01T13:04:41.966Z</time></trkpt><trkpt lat="44.3998218" lon="11.5961084"><ele>62.666666666666664</ele><time>2026-05-01T13:04:42.964Z</time></trkpt><trkpt lat="44.3998077" lon="11.596006"><ele>63.0</ele><time>2026-05-01T13:05:13.964Z</time></trkpt><trkpt lat="44.3998009" lon="11.5959153"><ele>63.0</ele><time>2026-05-01T13:05:16.968Z</time></trkpt><trkpt lat="44.39974" lon="11.5958777"><ele>63.0</ele><time>2026-05-01T13:05:22.965Z</time></trkpt><trkpt lat="44.3998034" lon="11.5957887"><ele>63.0</ele><time>2026-05-01T13:05:38.966Z</time></trkpt><trkpt lat="44.399749" lon="11.5959348"><ele>63.0</ele><time>2026-05-01T13:05:57.602Z</time></trkpt><trkpt lat="44.399759" lon="11.5960595"><ele>63.0</ele><time>2026-05-01T13:07:17.964Z</time></trkpt><trkpt lat="44.399708" lon="11.5961137"><ele>63.0</ele><time>2026-05-01T13:07:26.958Z</time></trkpt><trkpt lat="44.3996507" lon="11.5961576"><ele>62.714285714285715</ele><time>2026-05-01T13:07:42.964Z</time></trkpt><trkpt lat="44.3996086" lon="11.5960911"><ele>62.42857142857143</ele><time>2026-05-01T13:08:01.878Z</time></trkpt><trkpt lat="44.3995625" lon="11.596017"><ele>62.14285714285714</ele><time>2026-05-01T13:08:05.97Z</time></trkpt><trkpt lat="44.3995114" lon="11.5959605"><ele>61.857142857142854</ele><time>2026-05-01T13:08:41.965Z</time></trkpt><trkpt lat="44.3994506" lon="11.5959151"><ele>61.57142857142857</ele><time>2026-05-01T13:09:00.973Z</time></trkpt><trkpt lat="44.3993881" lon="11.5958614"><ele>61.28571428571428</ele><time>2026-05-01T13:09:03.972Z</time></trkpt><trkpt lat="44.3993125" lon="11.5958839"><ele>60.99999999999999</ele><time>2026-05-01T13:09:06.976Z</time></trkpt><trkpt lat="44.3992371" lon="11.5959224"><ele>60.99999999999999</ele><time>2026-05-01T13:09:09.975Z</time></trkpt><trkpt lat="44.39917" lon="11.5959958"><ele>61.0</ele><time>2026-05-01T13:09:12.969Z</time></trkpt><trkpt lat="44.3991112" lon="11.5960972"><ele>61.0</ele><time>2026-05-01T13:09:15.958Z</time></trkpt><trkpt lat="44.3990641" lon="11.5961881"><ele>61.0</ele><time>2026-05-01T13:09:18.978Z</time></trkpt><trkpt lat="44.3990251" lon="11.5962646"><ele>60.99999999999999</ele><time>2026-05-01T13:09:20.975Z</time></trkpt><trkpt lat="44.3989891" lon="11.5963428"><ele>61.0</ele><time>2026-05-01T13:09:22.981Z</time></trkpt><trkpt lat="44.3989526" lon="11.5964425"><ele>60.83333333333333</ele><time>2026-05-01T13:09:24.996Z</time></trkpt><trkpt lat="44.3989207" lon="11.5965419"><ele>60.666666666666664</ele><time>2026-05-01T13:09:26.985Z</time></trkpt><trkpt lat="44.398886" lon="11.596649"><ele>60.5</ele><time>2026-05-01T13:09:28.986Z</time></trkpt><trkpt lat="44.3988491" lon="11.5967584"><ele>60.33333333333333</ele><time>2026-05-01T13:09:30.979Z</time></trkpt><trkpt lat="44.3988061" lon="11.5968751"><ele>60.166666666666664</ele><time>2026-05-01T13:09:32.968Z</time></trkpt><trkpt lat="44.3987702" lon="11.5969953"><ele>60.0</ele><time>2026-05-01T13:09:34.982Z</time></trkpt><trkpt lat="44.3987264" lon="11.597114"><ele>60.6</ele><time>2026-05-01T13:09:36.99Z</time></trkpt><trkpt lat="44.3986852" lon="11.5972388"><ele>61.2</ele><time>2026-05-01T13:09:38.972Z</time></trkpt><trkpt lat="44.3986395" lon="11.597364"><ele>61.8</ele><time>2026-05-01T13:09:40.967Z</time></trkpt><trkpt lat="44.3985966" lon="11.5974845"><ele>62.4</ele><time>2026-05-01T13:09:42.967Z</time></trkpt><trkpt lat="44.3985497" lon="11.5976024"><ele>63.0</ele><time>2026-05-01T13:09:44.986Z</time></trkpt><trkpt lat="44.3985041" lon="11.597726"><ele>63.5</ele><time>2026-05-01T13:09:46.984Z</time></trkpt><trkpt lat="44.3984578" lon="11.5978489"><ele>64.0</ele><time>2026-05-01T13:09:48.989Z</time></trkpt><trkpt lat="44.3984083" lon="11.5979636"><ele>64.5</ele><time>2026-05-01T13:09:50.976Z</time></trkpt><trkpt lat="44.3983482" lon="11.5980424"><ele>65.0</ele><time>2026-05-01T13:09:52.979Z</time></trkpt><trkpt lat="44.398259" lon="11.5980348"><ele>65.5</ele><time>2026-05-01T13:09:54.984Z</time></trkpt><trkpt lat="44.3981869" lon="11.5980021"><ele>66.0</ele><time>2026-05-01T13:09:56.977Z</time></trkpt><trkpt lat="44.3981018" lon="11.5979548"><ele>66.0</ele><time>2026-05-01T13:09:58.987Z</time></trkpt><trkpt lat="44.3980148" lon="11.597908"><ele>66.0</ele><time>2026-05-01T13:10:00.986Z</time></trkpt><trkpt lat="44.3979235" lon="11.5978898"><ele>66.0</ele><time>2026-05-01T13:10:02.976Z</time></trkpt><trkpt lat="44.3978319" lon="11.5978851"><ele>66.0</ele><time>2026-05-01T13:10:04.98Z</time></trkpt><trkpt lat="44.397741" lon="11.5978854"><ele>66.0</ele><time>2026-05-01T13:10:06.974Z</time></trkpt><trkpt lat="44.397647" lon="11.5978904"><ele>66.39999999999999</ele><time>2026-05-01T13:10:08.972Z</time></trkpt><trkpt lat="44.3975536" lon="11.597888"><ele>66.8</ele><time>2026-05-01T13:10:10.977Z</time></trkpt><trkpt lat="44.3974581" lon="11.5979051"><ele>67.19999999999999</ele><time>2026-05-01T13:10:12.972Z</time></trkpt><trkpt lat="44.3973655" lon="11.5979209"><ele>67.6</ele><time>2026-05-01T13:10:14.977Z</time></trkpt><trkpt lat="44.397275" lon="11.5979237"><ele>68.0</ele><time>2026-05-01T13:10:16.97Z</time></trkpt><trkpt lat="44.3971835" lon="11.5979267"><ele>67.83333333333334</ele><time>2026-05-01T13:10:18.968Z</time></trkpt><trkpt lat="44.397091" lon="11.597942"><ele>67.66666666666667</ele><time>2026-05-01T13:10:20.971Z</time></trkpt><trkpt lat="44.3970076" lon="11.5979676"><ele>67.5</ele><time>2026-05-01T13:10:22.975Z</time></trkpt><trkpt lat="44.396922" lon="11.5979891"><ele>67.33333333333333</ele><time>2026-05-01T13:10:24.975Z</time></trkpt><trkpt lat="44.3968408" lon="11.5980069"><ele>67.16666666666666</ele><time>2026-05-01T13:10:26.971Z</time></trkpt><trkpt lat="44.396752" lon="11.5980196"><ele>67.0</ele><time>2026-05-01T13:10:28.971Z</time></trkpt><trkpt lat="44.3966648" lon="11.598034"><ele>67.0</ele><time>2026-05-01T13:10:30.973Z</time></trkpt><trkpt lat="44.3965777" lon="11.5980515"><ele>67.0</ele><time>2026-05-01T13:10:32.971Z</time></trkpt><trkpt lat="44.3964952" lon="11.5980778"><ele>67.0</ele><time>2026-05-01T13:10:34.969Z</time></trkpt><trkpt lat="44.3964212" lon="11.5980991"><ele>67.0</ele><time>2026-05-01T13:10:36.979Z</time></trkpt><trkpt lat="44.3963611" lon="11.5981307"><ele>67.0</ele><time>2026-05-01T13:10:38.979Z</time></trkpt><trkpt lat="44.3962824" lon="11.598156"><ele>67.0</ele><time>2026-05-01T13:10:41.977Z</time></trkpt><trkpt lat="44.3962159" lon="11.5981788"><ele>66.83333333333333</ele><time>2026-05-01T13:10:44.971Z</time></trkpt><trkpt lat="44.3961378" lon="11.5982139"><ele>66.66666666666666</ele><time>2026-05-01T13:10:47.97Z</time></trkpt><trkpt lat="44.3960581" lon="11.5982371"><ele>66.5</ele><time>2026-05-01T13:10:50.959Z</time></trkpt><trkpt lat="44.3959757" lon="11.5982731"><ele>66.33333333333333</ele><time>2026-05-01T13:10:53.975Z</time></trkpt><trkpt lat="44.3959164" lon="11.5983078"><ele>66.16666666666667</ele><time>2026-05-01T13:10:55.971Z</time></trkpt><trkpt lat="44.39585" lon="11.5983319"><ele>66.0</ele><time>2026-05-01T13:10:57.969Z</time></trkpt><trkpt lat="44.3957789" lon="11.5983506"><ele>66.0</ele><time>2026-05-01T13:10:59.975Z</time></trkpt><trkpt lat="44.3957038" lon="11.5983886"><ele>66.0</ele><time>2026-05-01T13:11:01.976Z</time></trkpt><trkpt lat="44.3956208" lon="11.5984235"><ele>66.0</ele><time>2026-05-01T13:11:03.967Z</time></trkpt><trkpt lat="44.3955352" lon="11.5984545"><ele>66.0</ele><time>2026-05-01T13:11:05.971Z</time></trkpt><trkpt lat="44.3954424" lon="11.5984954"><ele>66.0</ele><time>2026-05-01T13:11:07.976Z</time></trkpt><trkpt lat="44.3953522" lon="11.5985422"><ele>66.0</ele><time>2026-05-01T13:11:09.981Z</time></trkpt><trkpt lat="44.3952632" lon="11.5985783"><ele>66.2</ele><time>2026-05-01T13:11:11.96Z</time></trkpt><trkpt lat="44.3951724" lon="11.5986156"><ele>66.39999999999999</ele><time>2026-05-01T13:11:13.98Z</time></trkpt><trkpt lat="44.3950763" lon="11.5986567"><ele>66.6</ele><time>2026-05-01T13:11:15.976Z</time></trkpt><trkpt lat="44.3949808" lon="11.5987011"><ele>66.8</ele><time>2026-05-01T13:11:17.974Z</time></trkpt><trkpt lat="44.3948869" lon="11.5987466"><ele>67.0</ele><time>2026-05-01T13:11:19.971Z</time></trkpt><trkpt lat="44.3947872" lon="11.5987828"><ele>67.0</ele><time>2026-05-01T13:11:21.973Z</time></trkpt><trkpt lat="44.394684" lon="11.5988176"><ele>67.0</ele><time>2026-05-01T13:11:23.974Z</time></trkpt><trkpt lat="44.3945795" lon="11.5988489"><ele>67.0</ele><time>2026-05-01T13:11:25.973Z</time></trkpt><trkpt lat="44.3944731" lon="11.598877"><ele>67.0</ele><time>2026-05-01T13:11:27.97Z</time></trkpt><trkpt lat="44.3943683" lon="11.5989152"><ele>67.0</ele><time>2026-05-01T13:11:29.979Z</time></trkpt><trkpt lat="44.3942637" lon="11.598947"><ele>67.6</ele><time>2026-05-01T13:11:31.971Z</time></trkpt><trkpt lat="44.3941564" lon="11.5989656"><ele>68.2</ele><time>2026-05-01T13:11:33.977Z</time></trkpt><trkpt lat="44.394051" lon="11.5989504"><ele>68.8</ele><time>2026-05-01T13:11:35.972Z</time></trkpt><trkpt lat="44.3939424" lon="11.5989416"><ele>69.4</ele><time>2026-05-01T13:11:37.973Z</time></trkpt><trkpt lat="44.3938382" lon="11.5989147"><ele>70.0</ele><time>2026-05-01T13:11:39.96Z</time></trkpt><trkpt lat="44.3937397" lon="11.5988777"><ele>70.0</ele><time>2026-05-01T13:11:41.975Z</time></trkpt><trkpt lat="44.3936393" lon="11.5988317"><ele>70.0</ele><time>2026-05-01T13:11:43.97Z</time></trkpt><trkpt lat="44.3935438" lon="11.5987879"><ele>70.0</ele><time>2026-05-01T13:11:45.971Z</time></trkpt><trkpt lat="44.3934465" lon="11.5987412"><ele>70.0</ele><time>2026-05-01T13:11:47.968Z</time></trkpt><trkpt lat="44.3933482" lon="11.5987064"><ele>70.0</ele><time>2026-05-01T13:11:49.972Z</time></trkpt><trkpt lat="44.3932505" lon="11.5986767"><ele>69.6</ele><time>2026-05-01T13:11:51.98Z</time></trkpt><trkpt lat="44.3931585" lon="11.5986518"><ele>69.2</ele><time>2026-05-01T13:11:53.973Z</time></trkpt><trkpt lat="44.3930632" lon="11.5986317"><ele>68.8</ele><time>2026-05-01T13:11:55.976Z</time></trkpt><trkpt lat="44.3929667" lon="11.5986269"><ele>68.4</ele><time>2026-05-01T13:11:57.98Z</time></trkpt><trkpt lat="44.3928635" lon="11.5986128"><ele>68.0</ele><time>2026-05-01T13:11:59.972Z</time></trkpt><trkpt lat="44.3927667" lon="11.598608"><ele>68.0</ele><time>2026-05-01T13:12:01.976Z</time></trkpt><trkpt lat="44.3926693" lon="11.5986028"><ele>68.0</ele><time>2026-05-01T13:12:03.97Z</time></trkpt><trkpt lat="44.3925786" lon="11.5986091"><ele>68.0</ele><time>2026-05-01T13:12:05.978Z</time></trkpt><trkpt lat="44.3924805" lon="11.5986174"><ele>68.0</ele><time>2026-05-01T13:12:07.978Z</time></trkpt><trkpt lat="44.3923851" lon="11.5986298"><ele>68.0</ele><time>2026-05-01T13:12:09.975Z</time></trkpt><trkpt lat="44.3922924" lon="11.5986566"><ele>68.4</ele><time>2026-05-01T13:12:11.975Z</time></trkpt><trkpt lat="44.3921982" lon="11.5987102"><ele>68.8</ele><time>2026-05-01T13:12:13.959Z</time></trkpt><trkpt lat="44.3921061" lon="11.5987636"><ele>69.2</ele><time>2026-05-01T13:12:15.974Z</time></trkpt><trkpt lat="44.3920156" lon="11.5988109"><ele>69.6</ele><time>2026-05-01T13:12:17.974Z</time></trkpt><trkpt lat="44.3919285" lon="11.598866"><ele>70.0</ele><time>2026-05-01T13:12:19.974Z</time></trkpt><trkpt lat="44.3918374" lon="11.5989178"><ele>70.0</ele><time>2026-05-01T13:12:21.973Z</time></trkpt><trkpt lat="44.3917465" lon="11.5989633"><ele>70.0</ele><time>2026-05-01T13:12:23.98Z</time></trkpt><trkpt lat="44.3916555" lon="11.5990204"><ele>70.0</ele><time>2026-05-01T13:12:25.976Z</time></trkpt><trkpt lat="44.3915602" lon="11.5990753"><ele>70.0</ele><time>2026-05-01T13:12:27.975Z</time></trkpt><trkpt lat="44.3914649" lon="11.5991307"><ele>70.0</ele><time>2026-05-01T13:12:29.977Z</time></trkpt><trkpt lat="44.3913742" lon="11.5991892"><ele>70.2</ele><time>2026-05-01T13:12:31.975Z</time></trkpt><trkpt lat="44.3912762" lon="11.5992386"><ele>70.4</ele><time>2026-05-01T13:12:33.971Z</time></trkpt><trkpt lat="44.3911836" lon="11.5992932"><ele>70.6</ele><time>2026-05-01T13:12:35.968Z</time></trkpt><trkpt lat="44.391086" lon="11.5993368"><ele>70.8</ele><time>2026-05-01T13:12:37.965Z</time></trkpt><trkpt lat="44.390988" lon="11.5993795"><ele>71.0</ele><time>2026-05-01T13:12:39.962Z</time></trkpt><trkpt lat="44.3908889" lon="11.5994228"><ele>71.0</ele><time>2026-05-01T13:12:41.969Z</time></trkpt><trkpt lat="44.3907856" lon="11.5994506"><ele>71.0</ele><time>2026-05-01T13:12:43.969Z</time></trkpt><trkpt lat="44.390682" lon="11.5994736"><ele>71.0</ele><time>2026-05-01T13:12:45.968Z</time></trkpt><trkpt lat="44.3905796" lon="11.5995084"><ele>71.0</ele><time>2026-05-01T13:12:47.977Z</time></trkpt><trkpt lat="44.3904776" lon="11.5995431"><ele>71.0</ele><time>2026-05-01T13:12:49.976Z</time></trkpt><trkpt lat="44.3903794" lon="11.5995644"><ele>71.2</ele><time>2026-05-01T13:12:51.974Z</time></trkpt><trkpt lat="44.3902753" lon="11.5995975"><ele>71.39999999999999</ele><time>2026-05-01T13:12:53.971Z</time></trkpt><trkpt lat="44.3901709" lon="11.5996196"><ele>71.6</ele><time>2026-05-01T13:12:55.974Z</time></trkpt><trkpt lat="44.3900682" lon="11.5996402"><ele>71.8</ele><time>2026-05-01T13:12:57.97Z</time></trkpt><trkpt lat="44.3899671" lon="11.5996782"><ele>72.0</ele><time>2026-05-01T13:12:59.983Z</time></trkpt><trkpt lat="44.3898602" lon="11.5997109"><ele>72.0</ele><time>2026-05-01T13:13:01.976Z</time></trkpt><trkpt lat="44.389754" lon="11.5997409"><ele>72.0</ele><time>2026-05-01T13:13:03.973Z</time></trkpt><trkpt lat="44.3896506" lon="11.5997719"><ele>72.0</ele><time>2026-05-01T13:13:05.975Z</time></trkpt><trkpt lat="44.3895552" lon="11.5997885"><ele>72.0</ele><time>2026-05-01T13:13:07.974Z</time></trkpt><trkpt lat="44.3894606" lon="11.5998188"><ele>72.0</ele><time>2026-05-01T13:13:09.97Z</time></trkpt><trkpt lat="44.389354" lon="11.5998275"><ele>72.2</ele><time>2026-05-01T13:13:11.981Z</time></trkpt><trkpt lat="44.3892577" lon="11.5998258"><ele>72.4</ele><time>2026-05-01T13:13:13.975Z</time></trkpt><trkpt lat="44.3891558" lon="11.599816"><ele>72.6</ele><time>2026-05-01T13:13:15.972Z</time></trkpt><trkpt lat="44.3890623" lon="11.5997978"><ele>72.8</ele><time>2026-05-01T13:13:17.976Z</time></trkpt><trkpt lat="44.3889614" lon="11.5997715"><ele>73.0</ele><time>2026-05-01T13:13:19.967Z</time></trkpt><trkpt lat="44.3888639" lon="11.5997476"><ele>73.8</ele><time>2026-05-01T13:13:21.97Z</time></trkpt><trkpt lat="44.3887646" lon="11.5997243"><ele>74.6</ele><time>2026-05-01T13:13:23.973Z</time></trkpt><trkpt lat="44.3886648" lon="11.5997015"><ele>75.4</ele><time>2026-05-01T13:13:25.972Z</time></trkpt><trkpt lat="44.3885655" lon="11.5996873"><ele>76.2</ele><time>2026-05-01T13:13:27.975Z</time></trkpt><trkpt lat="44.388464" lon="11.5996861"><ele>77.0</ele><time>2026-05-01T13:13:29.978Z</time></trkpt><trkpt lat="44.3883644" lon="11.5996781"><ele>77.0</ele><time>2026-05-01T13:13:31.972Z</time></trkpt><trkpt lat="44.3882661" lon="11.5996848"><ele>77.0</ele><time>2026-05-01T13:13:33.972Z</time></trkpt><trkpt lat="44.3881653" lon="11.5996944"><ele>77.0</ele><time>2026-05-01T13:13:35.978Z</time></trkpt><trkpt lat="44.3880709" lon="11.599701"><ele>77.0</ele><time>2026-05-01T13:13:37.97Z</time></trkpt><trkpt lat="44.3879772" lon="11.5997206"><ele>77.0</ele><time>2026-05-01T13:13:39.97Z</time></trkpt><trkpt lat="44.3878862" lon="11.5997449"><ele>77.6</ele><time>2026-05-01T13:13:41.977Z</time></trkpt><trkpt lat="44.3877953" lon="11.5997653"><ele>78.2</ele><time>2026-05-01T13:13:43.974Z</time></trkpt><trkpt lat="44.3876997" lon="11.5997816"><ele>78.8</ele><time>2026-05-01T13:13:45.966Z</time></trkpt><trkpt lat="44.3876003" lon="11.5998135"><ele>79.4</ele><time>2026-05-01T13:13:47.976Z</time></trkpt><trkpt lat="44.3875014" lon="11.5998381"><ele>80.0</ele><time>2026-05-01T13:13:49.968Z</time></trkpt><trkpt lat="44.3874043" lon="11.5998571"><ele>80.0</ele><time>2026-05-01T13:13:51.971Z</time></trkpt><trkpt lat="44.3873012" lon="11.5998721"><ele>80.0</ele><time>2026-05-01T13:13:53.972Z</time></trkpt><trkpt lat="44.3872097" lon="11.5998945"><ele>80.0</ele><time>2026-05-01T13:13:55.973Z</time></trkpt><trkpt lat="44.387109" lon="11.5999214"><ele>80.0</ele><time>2026-05-01T13:13:57.97Z</time></trkpt><trkpt lat="44.3870202" lon="11.5999528"><ele>80.0</ele><time>2026-05-01T13:13:59.975Z</time></trkpt><trkpt lat="44.3869307" lon="11.59997"><ele>79.4</ele><time>2026-05-01T13:14:01.972Z</time></trkpt><trkpt lat="44.3868303" lon="11.5999805"><ele>78.8</ele><time>2026-05-01T13:14:03.973Z</time></trkpt><trkpt lat="44.3867291" lon="11.5999804"><ele>78.2</ele><time>2026-05-01T13:14:05.971Z</time></trkpt><trkpt lat="44.3866253" lon="11.5999699"><ele>77.6</ele><time>2026-05-01T13:14:07.968Z</time></trkpt><trkpt lat="44.3865234" lon="11.5999562"><ele>77.0</ele><time>2026-05-01T13:14:09.958Z</time></trkpt><trkpt lat="44.3864215" lon="11.599934"><ele>76.6</ele><time>2026-05-01T13:14:11.979Z</time></trkpt><trkpt lat="44.3863141" lon="11.5999117"><ele>76.2</ele><time>2026-05-01T13:14:13.978Z</time></trkpt><trkpt lat="44.3862072" lon="11.5998922"><ele>75.8</ele><time>2026-05-01T13:14:15.974Z</time></trkpt><trkpt lat="44.3861035" lon="11.5998777"><ele>75.4</ele><time>2026-05-01T13:14:17.972Z</time></trkpt><trkpt lat="44.386003" lon="11.5998586"><ele>75.0</ele><time>2026-05-01T13:14:19.971Z</time></trkpt><trkpt lat="44.3859042" lon="11.5998419"><ele>75.0</ele><time>2026-05-01T13:14:21.972Z</time></trkpt><trkpt lat="44.3858063" lon="11.5998241"><ele>75.0</ele><time>2026-05-01T13:14:23.972Z</time></trkpt><trkpt lat="44.3857063" lon="11.5998047"><ele>75.0</ele><time>2026-05-01T13:14:25.96Z</time></trkpt><trkpt lat="44.3856075" lon="11.5998033"><ele>75.0</ele><time>2026-05-01T13:14:27.971Z</time></trkpt><trkpt lat="44.3855059" lon="11.5997866"><ele>75.0</ele><time>2026-05-01T13:14:29.968Z</time></trkpt><trkpt lat="44.385407" lon="11.5997702"><ele>75.2</ele><time>2026-05-01T13:14:31.973Z</time></trkpt><trkpt lat="44.3853077" lon="11.5997575"><ele>75.4</ele><time>2026-05-01T13:14:33.968Z</time></trkpt><trkpt lat="44.3852043" lon="11.5997423"><ele>75.6</ele><time>2026-05-01T13:14:35.963Z</time></trkpt><trkpt lat="44.385106" lon="11.5997411"><ele>75.8</ele><time>2026-05-01T13:14:37.968Z</time></trkpt><trkpt lat="44.385003" lon="11.5997569"><ele>76.0</ele><time>2026-05-01T13:14:39.967Z</time></trkpt><trkpt lat="44.384909" lon="11.5997814"><ele>76.0</ele><time>2026-05-01T13:14:41.975Z</time></trkpt><trkpt lat="44.3848115" lon="11.5998115"><ele>76.0</ele><time>2026-05-01T13:14:43.969Z</time></trkpt><trkpt lat="44.3847131" lon="11.5998355"><ele>76.0</ele><time>2026-05-01T13:14:45.963Z</time></trkpt><trkpt lat="44.3846176" lon="11.5998597"><ele>76.0</ele><time>2026-05-01T13:14:47.978Z</time></trkpt><trkpt lat="44.3845218" lon="11.5998889"><ele>76.0</ele><time>2026-05-01T13:14:49.97Z</time></trkpt><trkpt lat="44.384434" lon="11.5999166"><ele>76.16666666666666</ele><time>2026-05-01T13:14:51.972Z</time></trkpt><trkpt lat="44.3843412" lon="11.5999416"><ele>76.33333333333333</ele><time>2026-05-01T13:14:53.982Z</time></trkpt><trkpt lat="44.3842542" lon="11.5999639"><ele>76.5</ele><time>2026-05-01T13:14:55.967Z</time></trkpt><trkpt lat="44.3841765" lon="11.5999859"><ele>76.66666666666667</ele><time>2026-05-01T13:14:57.97Z</time></trkpt><trkpt lat="44.384096" lon="11.6000163"><ele>76.83333333333334</ele><time>2026-05-01T13:14:59.971Z</time></trkpt><trkpt lat="44.3840176" lon="11.6000473"><ele>77.0</ele><time>2026-05-01T13:15:01.975Z</time></trkpt><trkpt lat="44.3839485" lon="11.6000745"><ele>77.0</ele><time>2026-05-01T13:15:03.969Z</time></trkpt><trkpt lat="44.3838824" lon="11.6000959"><ele>77.0</ele><time>2026-05-01T13:15:05.973Z</time></trkpt><trkpt lat="44.3838205" lon="11.6001122"><ele>77.0</ele><time>2026-05-01T13:15:07.977Z</time></trkpt><trkpt lat="44.3837318" lon="11.6001351"><ele>77.0</ele><time>2026-05-01T13:15:10.974Z</time></trkpt><trkpt lat="44.3836531" lon="11.6001397"><ele>77.0</ele><time>2026-05-01T13:15:13.961Z</time></trkpt><trkpt lat="44.3835791" lon="11.6001358"><ele>77.0</ele><time>2026-05-01T13:15:16.968Z</time></trkpt><trkpt lat="44.3835036" lon="11.6001147"><ele>77.85714285714286</ele><time>2026-05-01T13:15:19.965Z</time></trkpt><trkpt lat="44.3834363" lon="11.6001102"><ele>78.71428571428572</ele><time>2026-05-01T13:15:22.967Z</time></trkpt><trkpt lat="44.3833648" lon="11.6000998"><ele>79.57142857142857</ele><time>2026-05-01T13:15:25.972Z</time></trkpt><trkpt lat="44.3832887" lon="11.6000914"><ele>80.42857142857143</ele><time>2026-05-01T13:15:28.97Z</time></trkpt><trkpt lat="44.3832156" lon="11.6000743"><ele>81.28571428571429</ele><time>2026-05-01T13:15:31.956Z</time></trkpt><trkpt lat="44.3831508" lon="11.6000523"><ele>82.14285714285714</ele><time>2026-05-01T13:15:34.976Z</time></trkpt><trkpt lat="44.3830829" lon="11.6000372"><ele>83.0</ele><time>2026-05-01T13:15:37.97Z</time></trkpt><trkpt lat="44.3830151" lon="11.6000254"><ele>84.71428571428571</ele><time>2026-05-01T13:15:40.972Z</time></trkpt><trkpt lat="44.3829474" lon="11.6000159"><ele>86.42857142857143</ele><time>2026-05-01T13:15:43.979Z</time></trkpt><trkpt lat="44.3828799" lon="11.5999983"><ele>88.14285714285714</ele><time>2026-05-01T13:15:46.99Z</time></trkpt><trkpt lat="44.3828131" lon="11.5999826"><ele>89.85714285714286</ele><time>2026-05-01T13:15:49.96Z</time></trkpt><trkpt lat="44.3827372" lon="11.5999706"><ele>91.57142857142858</ele><time>2026-05-01T13:15:53.978Z</time></trkpt><trkpt lat="44.3826755" lon="11.5999492"><ele>93.28571428571429</ele><time>2026-05-01T13:15:56.974Z</time></trkpt><trkpt lat="44.3825967" lon="11.5999262"><ele>95.0</ele><time>2026-05-01T13:16:00.983Z</time></trkpt><trkpt lat="44.3825375" lon="11.5998922"><ele>95.0</ele><time>2026-05-01T13:16:04.97Z</time></trkpt><trkpt lat="44.3824682" lon="11.5998694"><ele>95.0</ele><time>2026-05-01T13:16:10.979Z</time></trkpt><trkpt lat="44.3823934" lon="11.5998237"><ele>95.0</ele><time>2026-05-01T13:16:15.983Z</time></trkpt><trkpt lat="44.382323" lon="11.599775"><ele>95.0</ele><time>2026-05-01T13:16:19.984Z</time></trkpt><trkpt lat="44.382258" lon="11.5997509"><ele>95.0</ele><time>2026-05-01T13:16:23.034Z</time></trkpt><trkpt lat="44.3821952" lon="11.5997212"><ele>95.0</ele><time>2026-05-01T13:16:25.998Z</time></trkpt><trkpt lat="44.3821265" lon="11.5996752"><ele>95.0</ele><time>2026-05-01T13:16:29.974Z</time></trkpt><trkpt lat="44.382066" lon="11.5996322"><ele>95.0</ele><time>2026-05-01T13:16:33.977Z</time></trkpt><trkpt lat="44.3819942" lon="11.5995879"><ele>95.0</ele><time>2026-05-01T13:16:37.977Z</time></trkpt><trkpt lat="44.3819221" lon="11.5995299"><ele>95.0</ele><time>2026-05-01T13:16:41.974Z</time></trkpt><trkpt lat="44.3818559" lon="11.5994912"><ele>95.0</ele><time>2026-05-01T13:16:45.975Z</time></trkpt><trkpt lat="44.3817869" lon="11.5994458"><ele>95.0</ele><time>2026-05-01T13:16:49.972Z</time></trkpt><trkpt lat="44.3817167" lon="11.5993896"><ele>95.0</ele><time>2026-05-01T13:16:53.975Z</time></trkpt><trkpt lat="44.3816491" lon="11.599345"><ele>95.0</ele><time>2026-05-01T13:16:57.978Z</time></trkpt><trkpt lat="44.381589" lon="11.5993105"><ele>95.0</ele><time>2026-05-01T13:17:00.982Z</time></trkpt><trkpt lat="44.3815117" lon="11.5992676"><ele>95.0</ele><time>2026-05-01T13:17:04.966Z</time></trkpt><trkpt lat="44.3814378" lon="11.5992138"><ele>95.0</ele><time>2026-05-01T13:17:08.976Z</time></trkpt><trkpt lat="44.3813756" lon="11.5991733"><ele>95.0</ele><time>2026-05-01T13:17:11.975Z</time></trkpt><trkpt lat="44.3812979" lon="11.5991504"><ele>95.0</ele><time>2026-05-01T13:17:15.978Z</time></trkpt><trkpt lat="44.3812262" lon="11.5991359"><ele>96.28571428571429</ele><time>2026-05-01T13:17:19.975Z</time></trkpt><trkpt lat="44.3811508" lon="11.5991316"><ele>97.57142857142858</ele><time>2026-05-01T13:17:23.981Z</time></trkpt><trkpt lat="44.3810794" lon="11.5991507"><ele>98.85714285714286</ele><time>2026-05-01T13:17:27.976Z</time></trkpt><trkpt lat="44.3810035" lon="11.5991729"><ele>100.14285714285714</ele><time>2026-05-01T13:17:31.973Z</time></trkpt><trkpt lat="44.3809459" lon="11.5992189"><ele>101.42857142857143</ele><time>2026-05-01T13:17:35.96Z</time></trkpt><trkpt lat="44.3808842" lon="11.5992619"><ele>102.71428571428571</ele><time>2026-05-01T13:17:39.98Z</time></trkpt><trkpt lat="44.3808177" lon="11.5993147"><ele>104.0</ele><time>2026-05-01T13:17:44.973Z</time></trkpt><trkpt lat="44.3807573" lon="11.5993816"><ele>104.0</ele><time>2026-05-01T13:17:49.978Z</time></trkpt><trkpt lat="44.3806942" lon="11.5994316"><ele>104.0</ele><time>2026-05-01T13:17:54.974Z</time></trkpt><trkpt lat="44.3806391" lon="11.5994845"><ele>104.0</ele><time>2026-05-01T13:17:59.97Z</time></trkpt><trkpt lat="44.3805705" lon="11.5995286"><ele>104.0</ele><time>2026-05-01T13:18:04.969Z</time></trkpt><trkpt lat="44.3805138" lon="11.5995708"><ele>104.0</ele><time>2026-05-01T13:18:08.973Z</time></trkpt><trkpt lat="44.3804517" lon="11.5996226"><ele>104.0</ele><time>2026-05-01T13:18:13.985Z</time></trkpt><trkpt lat="44.380385" lon="11.5996577"><ele>104.0</ele><time>2026-05-01T13:18:18.981Z</time></trkpt><trkpt lat="44.3803189" lon="11.5997087"><ele>105.33333333333333</ele><time>2026-05-01T13:18:23.984Z</time></trkpt><trkpt lat="44.3802535" lon="11.5997559"><ele>106.66666666666666</ele><time>2026-05-01T13:18:28.975Z</time></trkpt><trkpt lat="44.3801833" lon="11.5997848"><ele>108.0</ele><time>2026-05-01T13:18:32.981Z</time></trkpt><trkpt lat="44.3801085" lon="11.5997922"><ele>109.33333333333334</ele><time>2026-05-01T13:18:36.977Z</time></trkpt><trkpt lat="44.3800346" lon="11.5997839"><ele>110.66666666666667</ele><time>2026-05-01T13:18:40.971Z</time></trkpt><trkpt lat="44.3799598" lon="11.5997927"><ele>112.0</ele><time>2026-05-01T13:18:43.974Z</time></trkpt><trkpt lat="44.3798791" lon="11.5998209"><ele>112.00000000000001</ele><time>2026-05-01T13:18:46.981Z</time></trkpt><trkpt lat="44.3798091" lon="11.5998443"><ele>112.0</ele><time>2026-05-01T13:18:48.979Z</time></trkpt><trkpt lat="44.3797393" lon="11.5998829"><ele>112.0</ele><time>2026-05-01T13:18:50.976Z</time></trkpt><trkpt lat="44.3796623" lon="11.5999326"><ele>112.0</ele><time>2026-05-01T13:18:52.973Z</time></trkpt><trkpt lat="44.3795719" lon="11.5999885"><ele>112.00000000000001</ele><time>2026-05-01T13:18:54.972Z</time></trkpt><trkpt lat="44.3794773" lon="11.600048"><ele>112.0</ele><time>2026-05-01T13:18:56.975Z</time></trkpt><trkpt lat="44.3793782" lon="11.6001364"><ele>111.5</ele><time>2026-05-01T13:18:58.979Z</time></trkpt><trkpt lat="44.3792908" lon="11.6002436"><ele>111.0</ele><time>2026-05-01T13:19:00.983Z</time></trkpt><trkpt lat="44.3792165" lon="11.6003721"><ele>110.5</ele><time>2026-05-01T13:19:02.976Z</time></trkpt><trkpt lat="44.3791542" lon="11.6005029"><ele>110.0</ele><time>2026-05-01T13:19:04.984Z</time></trkpt><trkpt lat="44.3791009" lon="11.6006264"><ele>109.99999999999999</ele><time>2026-05-01T13:19:06.989Z</time></trkpt><trkpt lat="44.379052" lon="11.6007421"><ele>110.0</ele><time>2026-05-01T13:19:08.966Z</time></trkpt><trkpt lat="44.3790182" lon="11.6008298"><ele>110.0</ele><time>2026-05-01T13:19:10.98Z</time></trkpt><trkpt lat="44.378978" lon="11.6009225"><ele>110.0</ele><time>2026-05-01T13:19:13.977Z</time></trkpt><trkpt lat="44.3789387" lon="11.6009944"><ele>109.99999999999999</ele><time>2026-05-01T13:19:16.964Z</time></trkpt><trkpt lat="44.3789104" lon="11.6010758"><ele>110.0</ele><time>2026-05-01T13:19:19.982Z</time></trkpt><trkpt lat="44.3788739" lon="11.6011706"><ele>112.28571428571428</ele><time>2026-05-01T13:19:23.975Z</time></trkpt><trkpt lat="44.3788354" lon="11.6012642"><ele>114.57142857142857</ele><time>2026-05-01T13:19:27.982Z</time></trkpt><trkpt lat="44.3788068" lon="11.6013441"><ele>116.85714285714286</ele><time>2026-05-01T13:19:31.969Z</time></trkpt><trkpt lat="44.3787644" lon="11.6014276"><ele>119.14285714285714</ele><time>2026-05-01T13:19:35.974Z</time></trkpt><trkpt lat="44.3787264" lon="11.6015107"><ele>121.42857142857143</ele><time>2026-05-01T13:19:39.961Z</time></trkpt><trkpt lat="44.3786913" lon="11.6015876"><ele>123.71428571428571</ele><time>2026-05-01T13:19:43.969Z</time></trkpt><trkpt lat="44.3786548" lon="11.601685"><ele>126.0</ele><time>2026-05-01T13:19:48.967Z</time></trkpt><trkpt lat="44.3786237" lon="11.6017793"><ele>126.0</ele><time>2026-05-01T13:19:52.964Z</time></trkpt><trkpt lat="44.3785967" lon="11.6018656"><ele>126.0</ele><time>2026-05-01T13:19:56.976Z</time></trkpt><trkpt lat="44.3785867" lon="11.6019554"><ele>126.0</ele><time>2026-05-01T13:20:00.964Z</time></trkpt><trkpt lat="44.3785843" lon="11.6020533"><ele>126.0</ele><time>2026-05-01T13:20:04.981Z</time></trkpt><trkpt lat="44.3785861" lon="11.6021499"><ele>126.0</ele><time>2026-05-01T13:20:08.977Z</time></trkpt><trkpt lat="44.3785823" lon="11.602246"><ele>126.0</ele><time>2026-05-01T13:20:12.981Z</time></trkpt><trkpt lat="44.3785563" lon="11.6023477"><ele>126.0</ele><time>2026-05-01T13:20:17.975Z</time></trkpt><trkpt lat="44.3785497" lon="11.6024605"><ele>126.57142857142857</ele><time>2026-05-01T13:20:22.974Z</time></trkpt><trkpt lat="44.3785371" lon="11.602554"><ele>127.14285714285714</ele><time>2026-05-01T13:20:26.963Z</time></trkpt><trkpt lat="44.3785305" lon="11.6026657"><ele>127.71428571428572</ele><time>2026-05-01T13:20:31.994Z</time></trkpt><trkpt lat="44.3785255" lon="11.6027603"><ele>128.28571428571428</ele><time>2026-05-01T13:20:35.964Z</time></trkpt><trkpt lat="44.3785045" lon="11.602865"><ele>128.85714285714286</ele><time>2026-05-01T13:20:40.974Z</time></trkpt><trkpt lat="44.3785008" lon="11.602955"><ele>129.42857142857144</ele><time>2026-05-01T13:20:44.975Z</time></trkpt><trkpt lat="44.3784894" lon="11.6030549"><ele>130.0</ele><time>2026-05-01T13:20:48.969Z</time></trkpt><trkpt lat="44.378478" lon="11.6031474"><ele>130.42857142857144</ele><time>2026-05-01T13:20:52.969Z</time></trkpt><trkpt lat="44.378458" lon="11.6032336"><ele>130.85714285714286</ele><time>2026-05-01T13:20:56.965Z</time></trkpt><trkpt lat="44.3784468" lon="11.6033311"><ele>131.28571428571428</ele><time>2026-05-01T13:21:03.968Z</time></trkpt><trkpt lat="44.378444" lon="11.603426"><ele>131.71428571428572</ele><time>2026-05-01T13:21:08.965Z</time></trkpt><trkpt lat="44.3784551" lon="11.6035182"><ele>132.14285714285714</ele><time>2026-05-01T13:21:12.967Z</time></trkpt><trkpt lat="44.3784357" lon="11.6036098"><ele>132.57142857142858</ele><time>2026-05-01T13:21:16.967Z</time></trkpt><trkpt lat="44.3784294" lon="11.6037265"><ele>133.0</ele><time>2026-05-01T13:21:20.972Z</time></trkpt><trkpt lat="44.3784295" lon="11.6038328"><ele>133.0</ele><time>2026-05-01T13:21:23.967Z</time></trkpt><trkpt lat="44.3784326" lon="11.6039446"><ele>133.0</ele><time>2026-05-01T13:21:26.986Z</time></trkpt><trkpt lat="44.3784227" lon="11.6040596"><ele>133.0</ele><time>2026-05-01T13:21:29.971Z</time></trkpt><trkpt lat="44.378431" lon="11.6041682"><ele>133.0</ele><time>2026-05-01T13:21:32.972Z</time></trkpt><trkpt lat="44.3784299" lon="11.6042738"><ele>133.0</ele><time>2026-05-01T13:21:35.969Z</time></trkpt><trkpt lat="44.3784262" lon="11.6043895"><ele>133.0</ele><time>2026-05-01T13:21:38.976Z</time></trkpt><trkpt lat="44.3784119" lon="11.6045175"><ele>132.5</ele><time>2026-05-01T13:21:41.971Z</time></trkpt><trkpt lat="44.3784028" lon="11.6046055"><ele>132.0</ele><time>2026-05-01T13:21:43.971Z</time></trkpt><trkpt lat="44.3784003" lon="11.6046975"><ele>131.5</ele><time>2026-05-01T13:21:45.957Z</time></trkpt><trkpt lat="44.3783968" lon="11.6047919"><ele>131.0</ele><time>2026-05-01T13:21:47.961Z</time></trkpt><trkpt lat="44.3783908" lon="11.6049242"><ele>130.5</ele><time>2026-05-01T13:21:49.965Z</time></trkpt><trkpt lat="44.3783907" lon="11.6050459"><ele>130.0</ele><time>2026-05-01T13:21:51.97Z</time></trkpt><trkpt lat="44.3783686" lon="11.605165"><ele>130.0</ele><time>2026-05-01T13:21:53.969Z</time></trkpt><trkpt lat="44.3783547" lon="11.6052916"><ele>130.0</ele><time>2026-05-01T13:21:55.972Z</time></trkpt><trkpt lat="44.378343" lon="11.6054196"><ele>130.0</ele><time>2026-05-01T13:21:57.968Z</time></trkpt><trkpt lat="44.3783377" lon="11.6055543"><ele>130.0</ele><time>2026-05-01T13:21:59.967Z</time></trkpt><trkpt lat="44.3783313" lon="11.6057072"><ele>130.0</ele><time>2026-05-01T13:22:01.968Z</time></trkpt><trkpt lat="44.3783087" lon="11.6058586"><ele>129.8</ele><time>2026-05-01T13:22:03.963Z</time></trkpt><trkpt lat="44.3782919" lon="11.6060096"><ele>129.6</ele><time>2026-05-01T13:22:05.973Z</time></trkpt><trkpt lat="44.3782783" lon="11.6061555"><ele>129.4</ele><time>2026-05-01T13:22:07.973Z</time></trkpt><trkpt lat="44.3782656" lon="11.6063047"><ele>129.2</ele><time>2026-05-01T13:22:09.969Z</time></trkpt><trkpt lat="44.3782568" lon="11.6064642"><ele>129.0</ele><time>2026-05-01T13:22:11.973Z</time></trkpt><trkpt lat="44.3782443" lon="11.6066188"><ele>128.5</ele><time>2026-05-01T13:22:13.965Z</time></trkpt><trkpt lat="44.3782289" lon="11.6067742"><ele>128.0</ele><time>2026-05-01T13:22:15.971Z</time></trkpt><trkpt lat="44.3782079" lon="11.6069344"><ele>127.5</ele><time>2026-05-01T13:22:17.971Z</time></trkpt><trkpt lat="44.3782016" lon="11.6070964"><ele>127.0</ele><time>2026-05-01T13:22:19.973Z</time></trkpt><trkpt lat="44.378189" lon="11.6072654"><ele>126.8</ele><time>2026-05-01T13:22:21.971Z</time></trkpt><trkpt lat="44.3781773" lon="11.6074317"><ele>126.6</ele><time>2026-05-01T13:22:23.969Z</time></trkpt><trkpt lat="44.3781592" lon="11.6076048"><ele>126.39999999999999</ele><time>2026-05-01T13:22:25.967Z</time></trkpt><trkpt lat="44.378142" lon="11.6077818"><ele>126.19999999999999</ele><time>2026-05-01T13:22:27.977Z</time></trkpt><trkpt lat="44.3781313" lon="11.6078688"><ele>126.0</ele><time>2026-05-01T13:22:28.968Z</time></trkpt><trkpt lat="44.3781243" lon="11.6079577"><ele>125.85714285714286</ele><time>2026-05-01T13:22:29.976Z</time></trkpt><trkpt lat="44.3781132" lon="11.6080461"><ele>125.71428571428572</ele><time>2026-05-01T13:22:30.969Z</time></trkpt><trkpt lat="44.3781048" lon="11.6081388"><ele>125.57142857142857</ele><time>2026-05-01T13:22:31.971Z</time></trkpt><trkpt lat="44.3780964" lon="11.6082311"><ele>125.42857142857143</ele><time>2026-05-01T13:22:32.97Z</time></trkpt><trkpt lat="44.3780867" lon="11.6083186"><ele>125.28571428571429</ele><time>2026-05-01T13:22:33.972Z</time></trkpt><trkpt lat="44.3780795" lon="11.6084102"><ele>125.14285714285714</ele><time>2026-05-01T13:22:34.967Z</time></trkpt><trkpt lat="44.3780733" lon="11.6085008"><ele>125.0</ele><time>2026-05-01T13:22:35.974Z</time></trkpt><trkpt lat="44.3780584" lon="11.608673"><ele>125.0</ele><time>2026-05-01T13:22:37.971Z</time></trkpt><trkpt lat="44.3780478" lon="11.6087643"><ele>125.0</ele><time>2026-05-01T13:22:38.967Z</time></trkpt><trkpt lat="44.3780379" lon="11.6088566"><ele>125.0</ele><time>2026-05-01T13:22:39.971Z</time></trkpt><trkpt lat="44.3780314" lon="11.6089475"><ele>125.0</ele><time>2026-05-01T13:22:40.973Z</time></trkpt><trkpt lat="44.3780241" lon="11.6090397"><ele>125.0</ele><time>2026-05-01T13:22:41.976Z</time></trkpt><trkpt lat="44.3780189" lon="11.6091328"><ele>125.0</ele><time>2026-05-01T13:22:42.969Z</time></trkpt><trkpt lat="44.3780097" lon="11.6092264"><ele>125.0</ele><time>2026-05-01T13:22:43.969Z</time></trkpt><trkpt lat="44.3779994" lon="11.6093158"><ele>125.0</ele><time>2026-05-01T13:22:44.969Z</time></trkpt><trkpt lat="44.3779895" lon="11.6094042"><ele>125.0</ele><time>2026-05-01T13:22:45.961Z</time></trkpt><trkpt lat="44.3779884" lon="11.6094938"><ele>125.0</ele><time>2026-05-01T13:22:46.969Z</time></trkpt><trkpt lat="44.3779915" lon="11.6095862"><ele>125.0</ele><time>2026-05-01T13:22:47.97Z</time></trkpt><trkpt lat="44.3779912" lon="11.6096831"><ele>125.0</ele><time>2026-05-01T13:22:48.969Z</time></trkpt><trkpt lat="44.3779821" lon="11.6097775"><ele>125.0</ele><time>2026-05-01T13:22:49.962Z</time></trkpt><trkpt lat="44.3779711" lon="11.6098722"><ele>125.0</ele><time>2026-05-01T13:22:50.967Z</time></trkpt><trkpt lat="44.377959" lon="11.6099638"><ele>124.85714285714286</ele><time>2026-05-01T13:22:51.969Z</time></trkpt><trkpt lat="44.3779446" lon="11.6100546"><ele>124.71428571428572</ele><time>2026-05-01T13:22:52.967Z</time></trkpt><trkpt lat="44.377932" lon="11.6101497"><ele>124.57142857142858</ele><time>2026-05-01T13:22:53.975Z</time></trkpt><trkpt lat="44.377919" lon="11.6102425"><ele>124.42857142857143</ele><time>2026-05-01T13:22:54.97Z</time></trkpt><trkpt lat="44.3779108" lon="11.6103375"><ele>124.2857142857143</ele><time>2026-05-01T13:22:55.967Z</time></trkpt><trkpt lat="44.377905" lon="11.6104306"><ele>124.14285714285715</ele><time>2026-05-01T13:22:56.968Z</time></trkpt><trkpt lat="44.3778951" lon="11.6105188"><ele>124.0</ele><time>2026-05-01T13:22:57.972Z</time></trkpt><trkpt lat="44.377882" lon="11.6106943"><ele>124.0</ele><time>2026-05-01T13:22:59.968Z</time></trkpt><trkpt lat="44.3778709" lon="11.6108673"><ele>124.0</ele><time>2026-05-01T13:23:01.97Z</time></trkpt><trkpt lat="44.3778593" lon="11.6110224"><ele>124.0</ele><time>2026-05-01T13:23:03.975Z</time></trkpt><trkpt lat="44.3778455" lon="11.6111954"><ele>124.0</ele><time>2026-05-01T13:23:05.972Z</time></trkpt><trkpt lat="44.3778317" lon="11.6113614"><ele>123.5</ele><time>2026-05-01T13:23:07.978Z</time></trkpt><trkpt lat="44.3778193" lon="11.6115274"><ele>123.0</ele><time>2026-05-01T13:23:09.987Z</time></trkpt><trkpt lat="44.3778075" lon="11.6116947"><ele>122.5</ele><time>2026-05-01T13:23:11.978Z</time></trkpt><trkpt lat="44.3777934" lon="11.6118602"><ele>122.0</ele><time>2026-05-01T13:23:13.98Z</time></trkpt><trkpt lat="44.3777871" lon="11.612037"><ele>122.0</ele><time>2026-05-01T13:23:15.985Z</time></trkpt><trkpt lat="44.3777738" lon="11.6122113"><ele>121.99999999999999</ele><time>2026-05-01T13:23:17.98Z</time></trkpt><trkpt lat="44.3777631" lon="11.6123867"><ele>121.99999999999999</ele><time>2026-05-01T13:23:19.968Z</time></trkpt><trkpt lat="44.3777597" lon="11.6124818"><ele>122.0</ele><time>2026-05-01T13:23:20.97Z</time></trkpt><trkpt lat="44.3777524" lon="11.6125787"><ele>122.0</ele><time>2026-05-01T13:23:21.966Z</time></trkpt><trkpt lat="44.377746" lon="11.6126772"><ele>122.0</ele><time>2026-05-01T13:23:22.964Z</time></trkpt><trkpt lat="44.377736" lon="11.6127716"><ele>121.99999999999999</ele><time>2026-05-01T13:23:23.962Z</time></trkpt><trkpt lat="44.3777104" lon="11.6129263"><ele>121.99999999999999</ele><time>2026-05-01T13:23:25.961Z</time></trkpt><trkpt lat="44.3776569" lon="11.6130637"><ele>122.0</ele><time>2026-05-01T13:23:27.974Z</time></trkpt><trkpt lat="44.3776088" lon="11.6131218"><ele>122.0</ele><time>2026-05-01T13:23:28.97Z</time></trkpt><trkpt lat="44.3775115" lon="11.6132064"><ele>121.8</ele><time>2026-05-01T13:23:30.969Z</time></trkpt><trkpt lat="44.377415" lon="11.613307"><ele>121.6</ele><time>2026-05-01T13:23:32.97Z</time></trkpt><trkpt lat="44.3773283" lon="11.6134008"><ele>121.39999999999999</ele><time>2026-05-01T13:23:34.969Z</time></trkpt><trkpt lat="44.3772454" lon="11.6135011"><ele>121.19999999999999</ele><time>2026-05-01T13:23:36.97Z</time></trkpt><trkpt lat="44.3771686" lon="11.613603"><ele>121.0</ele><time>2026-05-01T13:23:38.965Z</time></trkpt><trkpt lat="44.3771186" lon="11.6137246"><ele>121.0</ele><time>2026-05-01T13:23:40.968Z</time></trkpt><trkpt lat="44.3770936" lon="11.6138643"><ele>121.0</ele><time>2026-05-01T13:23:42.971Z</time></trkpt><trkpt lat="44.3770682" lon="11.6140107"><ele>121.0</ele><time>2026-05-01T13:23:44.971Z</time></trkpt><trkpt lat="44.3770433" lon="11.6141627"><ele>121.0</ele><time>2026-05-01T13:23:46.969Z</time></trkpt><trkpt lat="44.3770168" lon="11.6143162"><ele>121.0</ele><time>2026-05-01T13:23:48.971Z</time></trkpt><trkpt lat="44.3769959" lon="11.6144666"><ele>120.6</ele><time>2026-05-01T13:23:50.971Z</time></trkpt><trkpt lat="44.3769724" lon="11.6146218"><ele>120.19999999999999</ele><time>2026-05-01T13:23:52.972Z</time></trkpt><trkpt lat="44.3769493" lon="11.6147694"><ele>119.80000000000001</ele><time>2026-05-01T13:23:54.965Z</time></trkpt><trkpt lat="44.3769323" lon="11.6149247"><ele>119.4</ele><time>2026-05-01T13:23:56.962Z</time></trkpt><trkpt lat="44.3769136" lon="11.6150816"><ele>119.0</ele><time>2026-05-01T13:23:58.959Z</time></trkpt><trkpt lat="44.3768876" lon="11.6152284"><ele>118.80000000000001</ele><time>2026-05-01T13:24:00.968Z</time></trkpt><trkpt lat="44.3768682" lon="11.615381"><ele>118.60000000000001</ele><time>2026-05-01T13:24:02.978Z</time></trkpt><trkpt lat="44.3768563" lon="11.6155143"><ele>118.4</ele><time>2026-05-01T13:24:04.979Z</time></trkpt><trkpt lat="44.3767969" lon="11.6156248"><ele>118.2</ele><time>2026-05-01T13:24:06.973Z</time></trkpt><trkpt lat="44.3766862" lon="11.6156926"><ele>118.0</ele><time>2026-05-01T13:24:08.976Z</time></trkpt><trkpt lat="44.3766181" lon="11.6157186"><ele>118.0</ele><time>2026-05-01T13:24:09.979Z</time></trkpt><trkpt lat="44.3765438" lon="11.6157439"><ele>118.00000000000001</ele><time>2026-05-01T13:24:10.978Z</time></trkpt><trkpt lat="44.3764652" lon="11.6157655"><ele>118.00000000000001</ele><time>2026-05-01T13:24:11.954Z</time></trkpt><trkpt lat="44.3763721" lon="11.6157966"><ele>118.0</ele><time>2026-05-01T13:24:12.983Z</time></trkpt><trkpt lat="44.3762598" lon="11.6158391"><ele>118.0</ele><time>2026-05-01T13:24:13.983Z</time></trkpt><trkpt lat="44.3761357" lon="11.6158801"><ele>114.5</ele><time>2026-05-01T13:24:14.975Z</time></trkpt><trkpt lat="44.3760065" lon="11.6159221"><ele>111.0</ele><time>2026-05-01T13:24:15.972Z</time></trkpt><trkpt lat="44.3758666" lon="11.6159676"><ele>107.5</ele><time>2026-05-01T13:24:16.972Z</time></trkpt><trkpt lat="44.3757214" lon="11.6160074"><ele>104.0</ele><time>2026-05-01T13:24:17.977Z</time></trkpt><trkpt lat="44.3755656" lon="11.616034"><ele>101.66666666666666</ele><time>2026-05-01T13:24:18.973Z</time></trkpt><trkpt lat="44.3754097" lon="11.61605"><ele>99.33333333333334</ele><time>2026-05-01T13:24:19.972Z</time></trkpt><trkpt lat="44.3752548" lon="11.6160562"><ele>97.0</ele><time>2026-05-01T13:24:20.972Z</time></trkpt><trkpt lat="44.3751018" lon="11.6160442"><ele>97.0</ele><time>2026-05-01T13:24:21.979Z</time></trkpt><trkpt lat="44.3749511" lon="11.6160132"><ele>97.0</ele><time>2026-05-01T13:24:22.961Z</time></trkpt><trkpt lat="44.374804" lon="11.6159804"><ele>97.0</ele><time>2026-05-01T13:24:23.981Z</time></trkpt><trkpt lat="44.3746719" lon="11.6159332"><ele>97.0</ele><time>2026-05-01T13:24:24.965Z</time></trkpt><trkpt lat="44.3745599" lon="11.6158778"><ele>97.42857142857143</ele><time>2026-05-01T13:24:25.968Z</time></trkpt><trkpt lat="44.374484" lon="11.6158368"><ele>97.85714285714286</ele><time>2026-05-01T13:24:26.986Z</time></trkpt><trkpt lat="44.3744209" lon="11.6158084"><ele>98.28571428571429</ele><time>2026-05-01T13:24:28.978Z</time></trkpt><trkpt lat="44.374354" lon="11.6157818"><ele>98.71428571428572</ele><time>2026-05-01T13:24:33.979Z</time></trkpt><trkpt lat="44.3744257" lon="11.6158077"><ele>99.14285714285714</ele><time>2026-05-01T13:24:45.977Z</time></trkpt><trkpt lat="44.3744882" lon="11.6157829"><ele>99.57142857142858</ele><time>2026-05-01T13:24:49.982Z</time></trkpt><trkpt lat="44.3744542" lon="11.6156967"><ele>100.0</ele><time>2026-05-01T13:24:56.976Z</time></trkpt><trkpt lat="44.3744254" lon="11.6156076"><ele>100.00000000000001</ele><time>2026-05-01T13:25:04.964Z</time></trkpt><trkpt lat="44.3744069" lon="11.6155034"><ele>100.0</ele><time>2026-05-01T13:25:13.98Z</time></trkpt><trkpt lat="44.3743925" lon="11.6154009"><ele>100.0</ele><time>2026-05-01T13:25:19.962Z</time></trkpt><trkpt lat="44.3743795" lon="11.6153009"><ele>100.0</ele><time>2026-05-01T13:25:25.986Z</time></trkpt><trkpt lat="44.3743615" lon="11.6152087"><ele>100.0</ele><time>2026-05-01T13:25:31.971Z</time></trkpt><trkpt lat="44.3743411" lon="11.6151165"><ele>100.00000000000001</ele><time>2026-05-01T13:25:38.983Z</time></trkpt><trkpt lat="44.3743232" lon="11.6150254"><ele>100.0</ele><time>2026-05-01T13:25:44.976Z</time></trkpt><trkpt lat="44.3742961" lon="11.6149432"><ele>100.14285714285715</ele><time>2026-05-01T13:25:50.964Z</time></trkpt><trkpt lat="44.3742696" lon="11.6148434"><ele>100.28571428571429</ele><time>2026-05-01T13:25:57.963Z</time></trkpt><trkpt lat="44.3742466" lon="11.6147557"><ele>100.42857142857143</ele><time>2026-05-01T13:26:02.977Z</time></trkpt><trkpt lat="44.3742495" lon="11.6146544"><ele>100.57142857142858</ele><time>2026-05-01T13:26:08.979Z</time></trkpt><trkpt lat="44.3742172" lon="11.6145674"><ele>100.71428571428571</ele><time>2026-05-01T13:26:14.981Z</time></trkpt><trkpt lat="44.3742056" lon="11.6144734"><ele>100.85714285714286</ele><time>2026-05-01T13:26:19.979Z</time></trkpt><trkpt lat="44.3742018" lon="11.6143846"><ele>101.0</ele><time>2026-05-01T13:26:23.971Z</time></trkpt><trkpt lat="44.3741785" lon="11.6142899"><ele>102.0</ele><time>2026-05-01T13:26:28.975Z</time></trkpt><trkpt lat="44.3741766" lon="11.6141975"><ele>103.0</ele><time>2026-05-01T13:26:33.978Z</time></trkpt><trkpt lat="44.3741693" lon="11.6141094"><ele>104.0</ele><time>2026-05-01T13:26:37.979Z</time></trkpt><trkpt lat="44.3741521" lon="11.614014"><ele>105.0</ele><time>2026-05-01T13:26:42.973Z</time></trkpt><trkpt lat="44.3741385" lon="11.6139278"><ele>106.0</ele><time>2026-05-01T13:26:47.986Z</time></trkpt><trkpt lat="44.3741222" lon="11.6138331"><ele>107.0</ele><time>2026-05-01T13:26:52.967Z</time></trkpt><trkpt lat="44.3740968" lon="11.6137458"><ele>108.0</ele><time>2026-05-01T13:26:57.969Z</time></trkpt><trkpt lat="44.3740872" lon="11.6136548"><ele>109.57142857142857</ele><time>2026-05-01T13:27:02.967Z</time></trkpt><trkpt lat="44.3740836" lon="11.6135622"><ele>111.14285714285714</ele><time>2026-05-01T13:27:07.981Z</time></trkpt><trkpt lat="44.3740483" lon="11.6134682"><ele>112.71428571428572</ele><time>2026-05-01T13:27:13.975Z</time></trkpt><trkpt lat="44.3740277" lon="11.613378"><ele>114.28571428571428</ele><time>2026-05-01T13:27:18.971Z</time></trkpt><trkpt lat="44.374011" lon="11.6132868"><ele>115.85714285714286</ele><time>2026-05-01T13:27:23.973Z</time></trkpt><trkpt lat="44.3740033" lon="11.6131901"><ele>117.42857142857143</ele><time>2026-05-01T13:27:28.975Z</time></trkpt><trkpt lat="44.3739888" lon="11.6131007"><ele>119.0</ele><time>2026-05-01T13:27:33.97Z</time></trkpt><trkpt lat="44.3739782" lon="11.6130015"><ele>119.0</ele><time>2026-05-01T13:27:39.974Z</time></trkpt><trkpt lat="44.3739679" lon="11.6129058"><ele>119.0</ele><time>2026-05-01T13:27:44.981Z</time></trkpt><trkpt lat="44.3739492" lon="11.612808"><ele>119.0</ele><time>2026-05-01T13:27:50.978Z</time></trkpt><trkpt lat="44.3739191" lon="11.6127217"><ele>119.0</ele><time>2026-05-01T13:27:55.968Z</time></trkpt><trkpt lat="44.3738945" lon="11.6126399"><ele>119.0</ele><time>2026-05-01T13:28:00.972Z</time></trkpt><trkpt lat="44.3738766" lon="11.6125472"><ele>119.0</ele><time>2026-05-01T13:28:05.954Z</time></trkpt><trkpt lat="44.3738559" lon="11.6124582"><ele>119.0</ele><time>2026-05-01T13:28:11.975Z</time></trkpt><trkpt lat="44.3738344" lon="11.612364"><ele>122.0</ele><time>2026-05-01T13:33:13.969Z</time></trkpt><trkpt lat="44.3737932" lon="11.6122799"><ele>125.0</ele><time>2026-05-01T13:33:18.971Z</time></trkpt><trkpt lat="44.3737474" lon="11.6122156"><ele>128.0</ele><time>2026-05-01T13:33:22.957Z</time></trkpt><trkpt lat="44.3737062" lon="11.6121405"><ele>131.0</ele><time>2026-05-01T13:33:26.976Z</time></trkpt><trkpt lat="44.3736723" lon="11.6120473"><ele>134.0</ele><time>2026-05-01T13:33:32.955Z</time></trkpt><trkpt lat="44.3736218" lon="11.6119622"><ele>137.0</ele><time>2026-05-01T13:33:37.961Z</time></trkpt><trkpt lat="44.3735863" lon="11.6118688"><ele>140.0</ele><time>2026-05-01T13:33:41.958Z</time></trkpt><trkpt lat="44.3735509" lon="11.6117924"><ele>140.14285714285714</ele><time>2026-05-01T13:33:45.969Z</time></trkpt><trkpt lat="44.3735107" lon="11.6117082"><ele>140.28571428571428</ele><time>2026-05-01T13:33:50.987Z</time></trkpt><trkpt lat="44.3734821" lon="11.6116248"><ele>140.42857142857144</ele><time>2026-05-01T13:33:55.955Z</time></trkpt><trkpt lat="44.3734434" lon="11.6115432"><ele>140.57142857142856</ele><time>2026-05-01T13:34:00.962Z</time></trkpt><trkpt lat="44.3733945" lon="11.6114852"><ele>140.71428571428572</ele><time>2026-05-01T13:34:05.961Z</time></trkpt><trkpt lat="44.3733535" lon="11.6114163"><ele>140.85714285714286</ele><time>2026-05-01T13:34:10.963Z</time></trkpt><trkpt lat="44.3733015" lon="11.6113521"><ele>141.0</ele><time>2026-05-01T13:34:15.966Z</time></trkpt><trkpt lat="44.3732367" lon="11.6112963"><ele>141.0</ele><time>2026-05-01T13:34:21.981Z</time></trkpt><trkpt lat="44.373169" lon="11.6112569"><ele>141.0</ele><time>2026-05-01T13:34:27.959Z</time></trkpt><trkpt lat="44.373098" lon="11.611241"><ele>141.0</ele><time>2026-05-01T13:34:33.981Z</time></trkpt><trkpt lat="44.3730317" lon="11.6112036"><ele>141.0</ele><time>2026-05-01T13:34:39.955Z</time></trkpt><trkpt lat="44.3729618" lon="11.6111877"><ele>141.0</ele><time>2026-05-01T13:34:45.959Z</time></trkpt><trkpt lat="44.3728886" lon="11.6111631"><ele>141.0</ele><time>2026-05-01T13:34:52.968Z</time></trkpt><trkpt lat="44.3728257" lon="11.6111337"><ele>141.0</ele><time>2026-05-01T13:34:57.98Z</time></trkpt><trkpt lat="44.3727574" lon="11.6111136"><ele>142.71428571428572</ele><time>2026-05-01T13:35:02.967Z</time></trkpt><trkpt lat="44.3726916" lon="11.6110869"><ele>144.42857142857142</ele><time>2026-05-01T13:35:07.971Z</time></trkpt><trkpt lat="44.3726151" lon="11.6110696"><ele>146.14285714285714</ele><time>2026-05-01T13:35:12.971Z</time></trkpt><trkpt lat="44.3725489" lon="11.6110413"><ele>147.85714285714286</ele><time>2026-05-01T13:35:16.961Z</time></trkpt><trkpt lat="44.3724824" lon="11.6110273"><ele>149.57142857142858</ele><time>2026-05-01T13:35:20.975Z</time></trkpt><trkpt lat="44.3724127" lon="11.6110113"><ele>151.28571428571428</ele><time>2026-05-01T13:35:24.968Z</time></trkpt><trkpt lat="44.3723389" lon="11.6110202"><ele>153.0</ele><time>2026-05-01T13:35:28.969Z</time></trkpt><trkpt lat="44.3722692" lon="11.6109734"><ele>153.0</ele><time>2026-05-01T13:35:32.97Z</time></trkpt><trkpt lat="44.3722032" lon="11.6109224"><ele>153.0</ele><time>2026-05-01T13:35:36.973Z</time></trkpt><trkpt lat="44.3721391" lon="11.6108602"><ele>153.0</ele><time>2026-05-01T13:35:40.98Z</time></trkpt><trkpt lat="44.3720916" lon="11.6107688"><ele>153.0</ele><time>2026-05-01T13:35:44.975Z</time></trkpt><trkpt lat="44.3720533" lon="11.6106962"><ele>153.0</ele><time>2026-05-01T13:35:47.978Z</time></trkpt><trkpt lat="44.3720136" lon="11.610619"><ele>153.0</ele><time>2026-05-01T13:35:50.98Z</time></trkpt><trkpt lat="44.3719648" lon="11.6105214"><ele>152.71428571428572</ele><time>2026-05-01T13:35:54.976Z</time></trkpt><trkpt lat="44.3719179" lon="11.610445"><ele>152.42857142857144</ele><time>2026-05-01T13:35:57.981Z</time></trkpt><trkpt lat="44.3718768" lon="11.610372"><ele>152.14285714285717</ele><time>2026-05-01T13:36:00.976Z</time></trkpt><trkpt lat="44.3718212" lon="11.6102917"><ele>151.85714285714286</ele><time>2026-05-01T13:36:04.981Z</time></trkpt><trkpt lat="44.371768" lon="11.6102159"><ele>151.57142857142858</ele><time>2026-05-01T13:36:08.978Z</time></trkpt><trkpt lat="44.3717129" lon="11.6101488"><ele>151.2857142857143</ele><time>2026-05-01T13:36:12.973Z</time></trkpt><trkpt lat="44.3716541" lon="11.6101036"><ele>151.0</ele><time>2026-05-01T13:36:16.971Z</time></trkpt><trkpt lat="44.3715848" lon="11.610073"><ele>152.14285714285717</ele><time>2026-05-01T13:36:20.979Z</time></trkpt><trkpt lat="44.371519" lon="11.6100374"><ele>153.28571428571428</ele><time>2026-05-01T13:36:24.971Z</time></trkpt><trkpt lat="44.3714525" lon="11.6099831"><ele>154.42857142857144</ele><time>2026-05-01T13:36:29.967Z</time></trkpt><trkpt lat="44.3713917" lon="11.6099514"><ele>155.57142857142858</ele><time>2026-05-01T13:36:34.974Z</time></trkpt><trkpt lat="44.3713285" lon="11.6099126"><ele>156.71428571428572</ele><time>2026-05-01T13:36:39.964Z</time></trkpt><trkpt lat="44.3712653" lon="11.609893"><ele>157.85714285714286</ele><time>2026-05-01T13:36:45.969Z</time></trkpt><trkpt lat="44.3712129" lon="11.6098431"><ele>159.0</ele><time>2026-05-01T13:36:51.967Z</time></trkpt><trkpt lat="44.3711566" lon="11.6097917"><ele>159.7142857142857</ele><time>2026-05-01T13:36:58.968Z</time></trkpt><trkpt lat="44.3710932" lon="11.6097543"><ele>160.42857142857144</ele><time>2026-05-01T13:37:05.976Z</time></trkpt><trkpt lat="44.3710295" lon="11.6097217"><ele>161.14285714285714</ele><time>2026-05-01T13:37:11.966Z</time></trkpt><trkpt lat="44.3709615" lon="11.6096845"><ele>161.85714285714283</ele><time>2026-05-01T13:37:17.965Z</time></trkpt><trkpt lat="44.3708968" lon="11.6096455"><ele>162.57142857142856</ele><time>2026-05-01T13:37:23.969Z</time></trkpt><trkpt lat="44.3708308" lon="11.6096163"><ele>163.28571428571428</ele><time>2026-05-01T13:37:30.964Z</time></trkpt><trkpt lat="44.3707735" lon="11.6095605"><ele>164.0</ele><time>2026-05-01T13:37:37.974Z</time></trkpt><trkpt lat="44.3707178" lon="11.609507"><ele>164.7142857142857</ele><time>2026-05-01T13:37:44.969Z</time></trkpt><trkpt lat="44.370652" lon="11.6094645"><ele>165.42857142857142</ele><time>2026-05-01T13:37:50.978Z</time></trkpt><trkpt lat="44.3705903" lon="11.6094176"><ele>166.14285714285714</ele><time>2026-05-01T13:37:56.966Z</time></trkpt><trkpt lat="44.3705262" lon="11.60938"><ele>166.85714285714283</ele><time>2026-05-01T13:38:03.967Z</time></trkpt><trkpt lat="44.3704906" lon="11.6093017"><ele>167.57142857142856</ele><time>2026-05-01T13:41:44.963Z</time></trkpt><trkpt lat="44.3704219" lon="11.6092665"><ele>168.28571428571428</ele><time>2026-05-01T13:41:54.968Z</time></trkpt><trkpt lat="44.3703612" lon="11.6092168"><ele>169.0</ele><time>2026-05-01T13:41:58.971Z</time></trkpt><trkpt lat="44.3702906" lon="11.6091676"><ele>169.5</ele><time>2026-05-01T13:42:02.967Z</time></trkpt><trkpt lat="44.3702214" lon="11.6091114"><ele>170.0</ele><time>2026-05-01T13:42:06.983Z</time></trkpt><trkpt lat="44.3701497" lon="11.6090528"><ele>170.5</ele><time>2026-05-01T13:42:10.977Z</time></trkpt><trkpt lat="44.3700883" lon="11.6089977"><ele>171.0</ele><time>2026-05-01T13:42:14.962Z</time></trkpt><trkpt lat="44.3700209" lon="11.6089345"><ele>171.5</ele><time>2026-05-01T13:42:18.976Z</time></trkpt><trkpt lat="44.369959" lon="11.6088672"><ele>172.0</ele><time>2026-05-01T13:42:22.969Z</time></trkpt><trkpt lat="44.3698925" lon="11.6088111"><ele>172.0</ele><time>2026-05-01T13:42:26.962Z</time></trkpt><trkpt lat="44.3698413" lon="11.6087345"><ele>172.0</ele><time>2026-05-01T13:42:30.971Z</time></trkpt><trkpt lat="44.3697738" lon="11.6086709"><ele>172.0</ele><time>2026-05-01T13:42:34.966Z</time></trkpt><trkpt lat="44.369706" lon="11.6086079"><ele>172.0</ele><time>2026-05-01T13:42:38.968Z</time></trkpt><trkpt lat="44.3696395" lon="11.6085462"><ele>172.0</ele><time>2026-05-01T13:42:42.976Z</time></trkpt><trkpt lat="44.3695735" lon="11.6084885"><ele>172.0</ele><time>2026-05-01T13:42:46.972Z</time></trkpt><trkpt lat="44.3695074" lon="11.6084204"><ele>173.66666666666669</ele><time>2026-05-01T13:42:50.97Z</time></trkpt><trkpt lat="44.3694388" lon="11.6083519"><ele>175.33333333333334</ele><time>2026-05-01T13:42:54.977Z</time></trkpt><trkpt lat="44.3693782" lon="11.6082903"><ele>177.0</ele><time>2026-05-01T13:42:58.969Z</time></trkpt><trkpt lat="44.36931" lon="11.6082306"><ele>178.66666666666666</ele><time>2026-05-01T13:43:02.977Z</time></trkpt><trkpt lat="44.3692451" lon="11.6081656"><ele>180.33333333333331</ele><time>2026-05-01T13:43:06.986Z</time></trkpt><trkpt lat="44.3691799" lon="11.6081148"><ele>182.0</ele><time>2026-05-01T13:43:10.981Z</time></trkpt><trkpt lat="44.3691167" lon="11.6080501"><ele>182.0</ele><time>2026-05-01T13:43:14.97Z</time></trkpt><trkpt lat="44.3690546" lon="11.6079871"><ele>182.0</ele><time>2026-05-01T13:43:18.976Z</time></trkpt><trkpt lat="44.3689901" lon="11.6079462"><ele>182.0</ele><time>2026-05-01T13:43:22.988Z</time></trkpt><trkpt lat="44.3689294" lon="11.6078847"><ele>182.0</ele><time>2026-05-01T13:43:26.974Z</time></trkpt><trkpt lat="44.3688803" lon="11.6078231"><ele>182.0</ele><time>2026-05-01T13:43:29.974Z</time></trkpt><trkpt lat="44.3688182" lon="11.6077578"><ele>182.0</ele><time>2026-05-01T13:43:32.97Z</time></trkpt><trkpt lat="44.3687636" lon="11.6076945"><ele>182.0</ele><time>2026-05-01T13:43:35.97Z</time></trkpt><trkpt lat="44.3687103" lon="11.6076225"><ele>183.0</ele><time>2026-05-01T13:43:38.975Z</time></trkpt><trkpt lat="44.3686635" lon="11.6075442"><ele>184.0</ele><time>2026-05-01T13:43:41.974Z</time></trkpt><trkpt lat="44.3686108" lon="11.6074696"><ele>185.0</ele><time>2026-05-01T13:43:44.976Z</time></trkpt><trkpt lat="44.3685688" lon="11.6074001"><ele>186.0</ele><time>2026-05-01T13:43:47.971Z</time></trkpt><trkpt lat="44.3685241" lon="11.6073314"><ele>187.0</ele><time>2026-05-01T13:43:50.97Z</time></trkpt><trkpt lat="44.3684702" lon="11.6072544"><ele>188.0</ele><time>2026-05-01T13:43:53.969Z</time></trkpt><trkpt lat="44.368414" lon="11.6071781"><ele>189.0</ele><time>2026-05-01T13:43:56.979Z</time></trkpt><trkpt lat="44.3683547" lon="11.6071079"><ele>189.0</ele><time>2026-05-01T13:43:59.975Z</time></trkpt><trkpt lat="44.3682895" lon="11.6070554"><ele>189.0</ele><time>2026-05-01T13:44:02.977Z</time></trkpt><trkpt lat="44.3682195" lon="11.6070286"><ele>189.0</ele><time>2026-05-01T13:44:05.977Z</time></trkpt><trkpt lat="44.36814" lon="11.6070033"><ele>189.0</ele><time>2026-05-01T13:44:08.972Z</time></trkpt><trkpt lat="44.368068" lon="11.6069803"><ele>189.0</ele><time>2026-05-01T13:44:11.959Z</time></trkpt><trkpt lat="44.3679949" lon="11.6069683"><ele>189.0</ele><time>2026-05-01T13:44:14.981Z</time></trkpt><trkpt lat="44.3679158" lon="11.6069592"><ele>190.5</ele><time>2026-05-01T13:44:17.967Z</time></trkpt><trkpt lat="44.3678371" lon="11.6069412"><ele>192.0</ele><time>2026-05-01T13:44:20.966Z</time></trkpt><trkpt lat="44.3677637" lon="11.6069288"><ele>193.5</ele><time>2026-05-01T13:44:23.976Z</time></trkpt><trkpt lat="44.3676894" lon="11.6069149"><ele>195.0</ele><time>2026-05-01T13:44:26.974Z</time></trkpt><trkpt lat="44.3676174" lon="11.6069009"><ele>196.5</ele><time>2026-05-01T13:44:29.98Z</time></trkpt><trkpt lat="44.3675392" lon="11.60689"><ele>198.0</ele><time>2026-05-01T13:44:32.97Z</time></trkpt><trkpt lat="44.3674617" lon="11.6068723"><ele>198.0</ele><time>2026-05-01T13:44:35.972Z</time></trkpt><trkpt lat="44.367391" lon="11.6068651"><ele>198.0</ele><time>2026-05-01T13:44:38.967Z</time></trkpt><trkpt lat="44.3673259" lon="11.6068592"><ele>198.0</ele><time>2026-05-01T13:44:42.97Z</time></trkpt><trkpt lat="44.367248" lon="11.6068369"><ele>198.0</ele><time>2026-05-01T13:44:46.97Z</time></trkpt><trkpt lat="44.3671767" lon="11.6068457"><ele>198.0</ele><time>2026-05-01T13:44:50.976Z</time></trkpt><trkpt lat="44.3671044" lon="11.606848"><ele>198.0</ele><time>2026-05-01T13:44:54.978Z</time></trkpt><trkpt lat="44.36704" lon="11.6068364"><ele>198.0</ele><time>2026-05-01T13:44:58.968Z</time></trkpt><trkpt lat="44.3669618" lon="11.6068361"><ele>198.85714285714286</ele><time>2026-05-01T13:45:03.979Z</time></trkpt><trkpt lat="44.3668859" lon="11.6068365"><ele>199.7142857142857</ele><time>2026-05-01T13:45:08.975Z</time></trkpt><trkpt lat="44.3668123" lon="11.6068253"><ele>200.57142857142856</ele><time>2026-05-01T13:45:13.968Z</time></trkpt><trkpt lat="44.3667492" lon="11.6068195"><ele>201.42857142857144</ele><time>2026-05-01T13:45:17.963Z</time></trkpt><trkpt lat="44.3666829" lon="11.6068112"><ele>202.28571428571428</ele><time>2026-05-01T13:45:21.967Z</time></trkpt><trkpt lat="44.3666025" lon="11.6068045"><ele>203.14285714285714</ele><time>2026-05-01T13:45:25.964Z</time></trkpt><trkpt lat="44.366531" lon="11.6068003"><ele>204.0</ele><time>2026-05-01T13:45:30.958Z</time></trkpt><trkpt lat="44.3664586" lon="11.6068018"><ele>204.0</ele><time>2026-05-01T13:45:36.975Z</time></trkpt><trkpt lat="44.3663901" lon="11.606781"><ele>204.0</ele><time>2026-05-01T13:45:41.955Z</time></trkpt><trkpt lat="44.3663151" lon="11.6067807"><ele>204.0</ele><time>2026-05-01T13:45:46.956Z</time></trkpt><trkpt lat="44.3662435" lon="11.6067672"><ele>204.0</ele><time>2026-05-01T13:45:51.954Z</time></trkpt><trkpt lat="44.3661757" lon="11.6067578"><ele>204.0</ele><time>2026-05-01T13:45:56.973Z</time></trkpt><trkpt lat="44.366107" lon="11.6067496"><ele>204.0</ele><time>2026-05-01T13:46:01.976Z</time></trkpt><trkpt lat="44.3660411" lon="11.6067412"><ele>204.0</ele><time>2026-05-01T13:46:06.963Z</time></trkpt><trkpt lat="44.3659733" lon="11.6067353"><ele>204.85714285714286</ele><time>2026-05-01T13:46:12.966Z</time></trkpt><trkpt lat="44.3659022" lon="11.6067363"><ele>205.71428571428572</ele><time>2026-05-01T13:46:17.962Z</time></trkpt><trkpt lat="44.365833" lon="11.6067281"><ele>206.57142857142856</ele><time>2026-05-01T13:46:22.97Z</time></trkpt><trkpt lat="44.3657577" lon="11.6067237"><ele>207.42857142857144</ele><time>2026-05-01T13:46:27.97Z</time></trkpt><trkpt lat="44.365681" lon="11.6067173"><ele>208.28571428571428</ele><time>2026-05-01T13:46:32.961Z</time></trkpt><trkpt lat="44.3656155" lon="11.606715"><ele>209.14285714285714</ele><time>2026-05-01T13:46:36.969Z</time></trkpt><trkpt lat="44.3655383" lon="11.6067216"><ele>210.0</ele><time>2026-05-01T13:46:41.963Z</time></trkpt><trkpt lat="44.3654618" lon="11.6067171"><ele>210.57142857142858</ele><time>2026-05-01T13:46:46.954Z</time></trkpt><trkpt lat="44.3653953" lon="11.6067164"><ele>211.14285714285714</ele><time>2026-05-01T13:46:50.965Z</time></trkpt><trkpt lat="44.3653159" lon="11.6067171"><ele>211.71428571428572</ele><time>2026-05-01T13:46:55.962Z</time></trkpt><trkpt lat="44.3652423" lon="11.6067188"><ele>212.28571428571428</ele><time>2026-05-01T13:46:59.973Z</time></trkpt><trkpt lat="44.3651586" lon="11.6067164"><ele>212.85714285714286</ele><time>2026-05-01T13:47:03.969Z</time></trkpt><trkpt lat="44.3650801" lon="11.6067001"><ele>213.42857142857144</ele><time>2026-05-01T13:47:07.96Z</time></trkpt><trkpt lat="44.3650154" lon="11.6066953"><ele>214.0</ele><time>2026-05-01T13:47:11.032Z</time></trkpt><trkpt lat="44.3649311" lon="11.6066786"><ele>214.00000000000003</ele><time>2026-05-01T13:47:15.005Z</time></trkpt><trkpt lat="44.3648523" lon="11.606657"><ele>214.0</ele><time>2026-05-01T13:47:19.003Z</time></trkpt><trkpt lat="44.3647897" lon="11.6066356"><ele>214.0</ele><time>2026-05-01T13:47:21.997Z</time></trkpt><trkpt lat="44.3647139" lon="11.6066247"><ele>214.0</ele><time>2026-05-01T13:47:26.011Z</time></trkpt><trkpt lat="44.3646445" lon="11.6065937"><ele>214.0</ele><time>2026-05-01T13:47:29.004Z</time></trkpt><trkpt lat="44.3645755" lon="11.606574"><ele>214.00000000000003</ele><time>2026-05-01T13:47:32.004Z</time></trkpt><trkpt lat="44.3645012" lon="11.6065553"><ele>214.0</ele><time>2026-05-01T13:47:35.005Z</time></trkpt><trkpt lat="44.3644279" lon="11.6065506"><ele>214.00000000000003</ele><time>2026-05-01T13:47:38.004Z</time></trkpt><trkpt lat="44.3643538" lon="11.6065315"><ele>214.0</ele><time>2026-05-01T13:47:41.035Z</time></trkpt><trkpt lat="44.3642797" lon="11.6065213"><ele>214.0</ele><time>2026-05-01T13:47:43.975Z</time></trkpt><trkpt lat="44.3642067" lon="11.6065095"><ele>214.0</ele><time>2026-05-01T13:47:46.99Z</time></trkpt><trkpt lat="44.3641357" lon="11.6065048"><ele>214.0</ele><time>2026-05-01T13:47:49.977Z</time></trkpt><trkpt lat="44.3640684" lon="11.6064951"><ele>214.00000000000003</ele><time>2026-05-01T13:47:53.014Z</time></trkpt><trkpt lat="44.3640019" lon="11.6064958"><ele>214.0</ele><time>2026-05-01T13:47:55.979Z</time></trkpt><trkpt lat="44.3639344" lon="11.6064904"><ele>214.00000000000003</ele><time>2026-05-01T13:47:58.979Z</time></trkpt><trkpt lat="44.363871" lon="11.6064826"><ele>214.0</ele><time>2026-05-01T13:48:01.976Z</time></trkpt><trkpt lat="44.3638072" lon="11.6064787"><ele>214.0</ele><time>2026-05-01T13:48:04.977Z</time></trkpt><trkpt lat="44.363742" lon="11.6064747"><ele>214.0</ele><time>2026-05-01T13:48:07.974Z</time></trkpt><trkpt lat="44.3636772" lon="11.6064746"><ele>214.0</ele><time>2026-05-01T13:48:10.977Z</time></trkpt><trkpt lat="44.3636002" lon="11.6064704"><ele>214.00000000000003</ele><time>2026-05-01T13:48:14.981Z</time></trkpt><trkpt lat="44.3635219" lon="11.6064692"><ele>214.0</ele><time>2026-05-01T13:48:18.983Z</time></trkpt><trkpt lat="44.3634359" lon="11.6064696"><ele>214.57142857142858</ele><time>2026-05-01T13:48:22.971Z</time></trkpt><trkpt lat="44.3633509" lon="11.6064712"><ele>215.14285714285714</ele><time>2026-05-01T13:48:26.972Z</time></trkpt><trkpt lat="44.3632692" lon="11.6064697"><ele>215.71428571428572</ele><time>2026-05-01T13:48:30.981Z</time></trkpt><trkpt lat="44.3632031" lon="11.6064665"><ele>216.28571428571428</ele><time>2026-05-01T13:48:33.971Z</time></trkpt><trkpt lat="44.3631332" lon="11.6064615"><ele>216.85714285714286</ele><time>2026-05-01T13:48:36.966Z</time></trkpt><trkpt lat="44.3630615" lon="11.6064567"><ele>217.42857142857144</ele><time>2026-05-01T13:48:39.973Z</time></trkpt><trkpt lat="44.3629923" lon="11.6064491"><ele>218.0</ele><time>2026-05-01T13:48:42.965Z</time></trkpt><trkpt lat="44.3629119" lon="11.6064311"><ele>218.33333333333334</ele><time>2026-05-01T13:48:45.98Z</time></trkpt><trkpt lat="44.3628281" lon="11.6064269"><ele>218.66666666666669</ele><time>2026-05-01T13:48:48.969Z</time></trkpt><trkpt lat="44.3627492" lon="11.6064291"><ele>219.0</ele><time>2026-05-01T13:48:51.964Z</time></trkpt><trkpt lat="44.3626633" lon="11.6064232"><ele>219.33333333333331</ele><time>2026-05-01T13:48:54.967Z</time></trkpt><trkpt lat="44.3625994" lon="11.6064203"><ele>219.66666666666666</ele><time>2026-05-01T13:48:56.968Z</time></trkpt><trkpt lat="44.3625026" lon="11.6064306"><ele>220.0</ele><time>2026-05-01T13:48:59.97Z</time></trkpt><trkpt lat="44.3624333" lon="11.6064409"><ele>219.99999999999997</ele><time>2026-05-01T13:49:01.972Z</time></trkpt><trkpt lat="44.362361" lon="11.6064479"><ele>220.0</ele><time>2026-05-01T13:49:03.986Z</time></trkpt><trkpt lat="44.3622747" lon="11.6064624"><ele>220.0</ele><time>2026-05-01T13:49:05.967Z</time></trkpt><trkpt lat="44.3621659" lon="11.6064874"><ele>220.0</ele><time>2026-05-01T13:49:07.971Z</time></trkpt><trkpt lat="44.3620977" lon="11.6065066"><ele>219.99999999999997</ele><time>2026-05-01T13:49:08.961Z</time></trkpt><trkpt lat="44.3620278" lon="11.6065255"><ele>220.0</ele><time>2026-05-01T13:49:09.969Z</time></trkpt><trkpt lat="44.3619564" lon="11.6065439"><ele>220.28571428571428</ele><time>2026-05-01T13:49:10.964Z</time></trkpt><trkpt lat="44.3618856" lon="11.6065649"><ele>220.57142857142856</ele><time>2026-05-01T13:49:11.971Z</time></trkpt><trkpt lat="44.3618153" lon="11.6065862"><ele>220.85714285714283</ele><time>2026-05-01T13:49:12.964Z</time></trkpt><trkpt lat="44.3617445" lon="11.6066063"><ele>221.14285714285714</ele><time>2026-05-01T13:49:13.961Z</time></trkpt><trkpt lat="44.3616746" lon="11.6066338"><ele>221.42857142857144</ele><time>2026-05-01T13:49:14.97Z</time></trkpt><trkpt lat="44.3616048" lon="11.6066633"><ele>221.7142857142857</ele><time>2026-05-01T13:49:15.985Z</time></trkpt><trkpt lat="44.3615382" lon="11.6066936"><ele>222.0</ele><time>2026-05-01T13:49:16.971Z</time></trkpt><trkpt lat="44.3614747" lon="11.606734"><ele>222.0</ele><time>2026-05-01T13:49:17.972Z</time></trkpt><trkpt lat="44.3614188" lon="11.6067926"><ele>222.0</ele><time>2026-05-01T13:49:18.973Z</time></trkpt><trkpt lat="44.3613778" lon="11.6068734"><ele>222.0</ele><time>2026-05-01T13:49:19.962Z</time></trkpt><trkpt lat="44.3613413" lon="11.6069651"><ele>222.0</ele><time>2026-05-01T13:49:20.962Z</time></trkpt><trkpt lat="44.3613217" lon="11.6070686"><ele>222.0</ele><time>2026-05-01T13:49:21.972Z</time></trkpt><trkpt lat="44.3613139" lon="11.6071801"><ele>222.0</ele><time>2026-05-01T13:49:22.963Z</time></trkpt><trkpt lat="44.3613051" lon="11.6072936"><ele>221.66666666666666</ele><time>2026-05-01T13:49:23.964Z</time></trkpt><trkpt lat="44.3612933" lon="11.6073977"><ele>221.33333333333331</ele><time>2026-05-01T13:49:24.978Z</time></trkpt><trkpt lat="44.3612771" lon="11.607503"><ele>221.0</ele><time>2026-05-01T13:49:25.971Z</time></trkpt><trkpt lat="44.3612636" lon="11.6076092"><ele>220.66666666666666</ele><time>2026-05-01T13:49:26.972Z</time></trkpt><trkpt lat="44.3612461" lon="11.6077081"><ele>220.33333333333331</ele><time>2026-05-01T13:49:27.967Z</time></trkpt><trkpt lat="44.3612294" lon="11.6078079"><ele>220.0</ele><time>2026-05-01T13:49:28.97Z</time></trkpt><trkpt lat="44.3612014" lon="11.6079041"><ele>219.99999999999997</ele><time>2026-05-01T13:49:30.026Z</time></trkpt><trkpt lat="44.3611712" lon="11.6080011"><ele>220.0</ele><time>2026-05-01T13:49:30.972Z</time></trkpt><trkpt lat="44.3611366" lon="11.6080952"><ele>220.0</ele><time>2026-05-01T13:49:31.975Z</time></trkpt><trkpt lat="44.3610974" lon="11.6081899"><ele>220.0</ele><time>2026-05-01T13:49:32.974Z</time></trkpt><trkpt lat="44.3610574" lon="11.6082808"><ele>219.99999999999997</ele><time>2026-05-01T13:49:33.972Z</time></trkpt><trkpt lat="44.3610161" lon="11.6083715"><ele>220.0</ele><time>2026-05-01T13:49:34.971Z</time></trkpt><trkpt lat="44.3609719" lon="11.6084596"><ele>219.99999999999997</ele><time>2026-05-01T13:49:35.976Z</time></trkpt><trkpt lat="44.3609249" lon="11.6085407"><ele>220.0</ele><time>2026-05-01T13:49:36.972Z</time></trkpt><trkpt lat="44.3608721" lon="11.6086231"><ele>220.0</ele><time>2026-05-01T13:49:37.973Z</time></trkpt><trkpt lat="44.3608196" lon="11.6087004"><ele>220.0</ele><time>2026-05-01T13:49:38.97Z</time></trkpt><trkpt lat="44.3607645" lon="11.6087667"><ele>220.0</ele><time>2026-05-01T13:49:40.036Z</time></trkpt><trkpt lat="44.3607117" lon="11.6088253"><ele>219.99999999999997</ele><time>2026-05-01T13:49:41.028Z</time></trkpt><trkpt lat="44.3606563" lon="11.6088771"><ele>220.0</ele><time>2026-05-01T13:49:41.963Z</time></trkpt><trkpt lat="44.3605506" lon="11.60896"><ele>221.33333333333331</ele><time>2026-05-01T13:49:43.968Z</time></trkpt><trkpt lat="44.3604616" lon="11.6090297"><ele>222.66666666666666</ele><time>2026-05-01T13:49:45.967Z</time></trkpt><trkpt lat="44.3604002" lon="11.6091204"><ele>224.0</ele><time>2026-05-01T13:49:47.964Z</time></trkpt><trkpt lat="44.3603478" lon="11.6092217"><ele>225.33333333333331</ele><time>2026-05-01T13:49:49.965Z</time></trkpt><trkpt lat="44.3603098" lon="11.6093149"><ele>226.66666666666666</ele><time>2026-05-01T13:49:51.964Z</time></trkpt><trkpt lat="44.3602929" lon="11.6094208"><ele>228.0</ele><time>2026-05-01T13:49:53.979Z</time></trkpt><trkpt lat="44.3602951" lon="11.6095308"><ele>228.0</ele><time>2026-05-01T13:49:55.973Z</time></trkpt><trkpt lat="44.3602993" lon="11.6096418"><ele>227.99999999999997</ele><time>2026-05-01T13:49:57.973Z</time></trkpt><trkpt lat="44.3603103" lon="11.6097526"><ele>228.0</ele><time>2026-05-01T13:49:59.967Z</time></trkpt><trkpt lat="44.3603248" lon="11.6098553"><ele>228.0</ele><time>2026-05-01T13:50:01.967Z</time></trkpt><trkpt lat="44.3603343" lon="11.6099485"><ele>227.99999999999997</ele><time>2026-05-01T13:50:03.966Z</time></trkpt><trkpt lat="44.3603454" lon="11.6100375"><ele>228.0</ele><time>2026-05-01T13:50:05.965Z</time></trkpt><trkpt lat="44.3603575" lon="11.6101317"><ele>228.0</ele><time>2026-05-01T13:50:07.968Z</time></trkpt><trkpt lat="44.3603712" lon="11.6102204"><ele>228.0</ele><time>2026-05-01T13:50:09.966Z</time></trkpt><trkpt lat="44.3603859" lon="11.6103069"><ele>228.0</ele><time>2026-05-01T13:50:11.969Z</time></trkpt><trkpt lat="44.3604028" lon="11.6104231"><ele>228.0</ele><time>2026-05-01T13:50:14.966Z</time></trkpt><trkpt lat="44.3604211" lon="11.6105479"><ele>228.0</ele><time>2026-05-01T13:50:17.961Z</time></trkpt><trkpt lat="44.3604177" lon="11.6106544"><ele>228.0</ele><time>2026-05-01T13:50:20.957Z</time></trkpt><trkpt lat="44.3603978" lon="11.6107559"><ele>228.0</ele><time>2026-05-01T13:50:24.961Z</time></trkpt><trkpt lat="44.3603721" lon="11.6108517"><ele>228.14285714285714</ele><time>2026-05-01T13:50:29.97Z</time></trkpt><trkpt lat="44.3603239" lon="11.6109115"><ele>228.28571428571428</ele><time>2026-05-01T13:50:35.978Z</time></trkpt><trkpt lat="44.3602711" lon="11.6109672"><ele>228.42857142857142</ele><time>2026-05-01T13:50:40.97Z</time></trkpt><trkpt lat="44.3602224" lon="11.6110321"><ele>228.57142857142856</ele><time>2026-05-01T13:50:45.987Z</time></trkpt><trkpt lat="44.360166" lon="11.611089"><ele>228.71428571428572</ele><time>2026-05-01T13:50:50.969Z</time></trkpt><trkpt lat="44.3600988" lon="11.6111444"><ele>228.85714285714283</ele><time>2026-05-01T13:50:55.98Z</time></trkpt><trkpt lat="44.360033" lon="11.6111497"><ele>229.0</ele><time>2026-05-01T13:50:59.976Z</time></trkpt><trkpt lat="44.3599673" lon="11.6111476"><ele>229.0</ele><time>2026-05-01T13:51:03.984Z</time></trkpt><trkpt lat="44.3598922" lon="11.6111432"><ele>229.0</ele><time>2026-05-01T13:51:07.972Z</time></trkpt><trkpt lat="44.3598226" lon="11.611118"><ele>229.0</ele><time>2026-05-01T13:51:11.97Z</time></trkpt><trkpt lat="44.3597577" lon="11.6110989"><ele>229.0</ele><time>2026-05-01T13:51:15.973Z</time></trkpt><trkpt lat="44.3596813" lon="11.6110802"><ele>229.0</ele><time>2026-05-01T13:51:19.978Z</time></trkpt><trkpt lat="44.3596073" lon="11.6110613"><ele>229.0</ele><time>2026-05-01T13:51:23.974Z</time></trkpt><trkpt lat="44.3595405" lon="11.6110657"><ele>229.0</ele><time>2026-05-01T13:51:27.966Z</time></trkpt><trkpt lat="44.3594716" lon="11.6110874"><ele>230.0</ele><time>2026-05-01T13:51:31.98Z</time></trkpt><trkpt lat="44.3594134" lon="11.6111253"><ele>231.0</ele><time>2026-05-01T13:51:35.977Z</time></trkpt><trkpt lat="44.3593652" lon="11.6111858"><ele>232.0</ele><time>2026-05-01T13:51:39.979Z</time></trkpt><trkpt lat="44.3593495" lon="11.6112741"><ele>233.0</ele><time>2026-05-01T13:51:43.987Z</time></trkpt><trkpt lat="44.3593398" lon="11.611365"><ele>234.0</ele><time>2026-05-01T13:51:47.979Z</time></trkpt><trkpt lat="44.3593175" lon="11.611449"><ele>235.0</ele><time>2026-05-01T13:51:51.966Z</time></trkpt><trkpt lat="44.3592874" lon="11.6115374"><ele>236.0</ele><time>2026-05-01T13:51:55.963Z</time></trkpt><trkpt lat="44.3592476" lon="11.6116158"><ele>236.0</ele><time>2026-05-01T13:51:58.956Z</time></trkpt><trkpt lat="44.3592064" lon="11.61169"><ele>236.0</ele><time>2026-05-01T13:52:02.967Z</time></trkpt><trkpt lat="44.3591653" lon="11.6117773"><ele>236.0</ele><time>2026-05-01T13:52:07.969Z</time></trkpt><trkpt lat="44.3591408" lon="11.6118632"><ele>236.0</ele><time>2026-05-01T13:52:11.96Z</time></trkpt><trkpt lat="44.3591135" lon="11.6119519"><ele>236.0</ele><time>2026-05-01T13:52:15.969Z</time></trkpt><trkpt lat="44.3590954" lon="11.6120537"><ele>236.0</ele><time>2026-05-01T13:52:19.975Z</time></trkpt><trkpt lat="44.3590759" lon="11.6121462"><ele>236.0</ele><time>2026-05-01T13:52:23.954Z</time></trkpt><trkpt lat="44.3590748" lon="11.61225"><ele>236.28571428571428</ele><time>2026-05-01T13:52:30.953Z</time></trkpt><trkpt lat="44.3590843" lon="11.6123492"><ele>236.57142857142858</ele><time>2026-05-01T13:52:35.976Z</time></trkpt><trkpt lat="44.3590598" lon="11.6124329"><ele>236.85714285714286</ele><time>2026-05-01T13:52:38.963Z</time></trkpt><trkpt lat="44.359043" lon="11.6125374"><ele>237.14285714285714</ele><time>2026-05-01T13:52:42.949Z</time></trkpt><trkpt lat="44.3589954" lon="11.6126214"><ele>237.42857142857144</ele><time>2026-05-01T13:52:47.966Z</time></trkpt><trkpt lat="44.3589266" lon="11.6126444"><ele>237.71428571428572</ele><time>2026-05-01T13:52:53.979Z</time></trkpt><trkpt lat="44.3588546" lon="11.6126252"><ele>238.0</ele><time>2026-05-01T13:53:00.985Z</time></trkpt><trkpt lat="44.3587803" lon="11.6126437"><ele>239.57142857142856</ele><time>2026-05-01T13:53:05.978Z</time></trkpt><trkpt lat="44.3587069" lon="11.6126295"><ele>241.14285714285714</ele><time>2026-05-01T13:53:11.98Z</time></trkpt><trkpt lat="44.3586298" lon="11.6126379"><ele>242.71428571428572</ele><time>2026-05-01T13:53:16.981Z</time></trkpt><trkpt lat="44.3585548" lon="11.6126466"><ele>244.28571428571428</ele><time>2026-05-01T13:53:21.976Z</time></trkpt><trkpt lat="44.3584867" lon="11.6126211"><ele>245.85714285714283</ele><time>2026-05-01T13:53:26.969Z</time></trkpt><trkpt lat="44.3584213" lon="11.6126353"><ele>247.42857142857142</ele><time>2026-05-01T13:53:32.976Z</time></trkpt><trkpt lat="44.3583763" lon="11.6127016"><ele>249.0</ele><time>2026-05-01T13:53:39.982Z</time></trkpt><trkpt lat="44.3583828" lon="11.6128092"><ele>248.2</ele><time>2026-05-01T13:53:42.976Z</time></trkpt><trkpt lat="44.3583914" lon="11.6129026"><ele>247.39999999999998</ele><time>2026-05-01T13:53:44.97Z</time></trkpt><trkpt lat="44.3583993" lon="11.6130092"><ele>246.6</ele><time>2026-05-01T13:53:46.977Z</time></trkpt><trkpt lat="44.3584103" lon="11.6131981"><ele>245.8</ele><time>2026-05-01T13:53:49.961Z</time></trkpt><trkpt lat="44.3584176" lon="11.6133146"><ele>245.0</ele><time>2026-05-01T13:53:51.958Z</time></trkpt><trkpt lat="44.3584195" lon="11.6134489"><ele>245.00000000000003</ele><time>2026-05-01T13:53:53.953Z</time></trkpt><trkpt lat="44.3584348" lon="11.6136106"><ele>245.0</ele><time>2026-05-01T13:53:56.034Z</time></trkpt><trkpt lat="44.3584506" lon="11.6137849"><ele>245.0</ele><time>2026-05-01T13:53:57.975Z</time></trkpt><trkpt lat="44.35846" lon="11.6138745"><ele>245.0</ele><time>2026-05-01T13:53:58.961Z</time></trkpt><trkpt lat="44.3584627" lon="11.613966"><ele>245.00000000000003</ele><time>2026-05-01T13:53:59.986Z</time></trkpt><trkpt lat="44.3584638" lon="11.6140584"><ele>245.0</ele><time>2026-05-01T13:54:01.049Z</time></trkpt><trkpt lat="44.3584655" lon="11.6141468"><ele>244.0</ele><time>2026-05-01T13:54:02.031Z</time></trkpt><trkpt lat="44.3584711" lon="11.6142406"><ele>243.0</ele><time>2026-05-01T13:54:02.975Z</time></trkpt><trkpt lat="44.3584798" lon="11.6143392"><ele>242.0</ele><time>2026-05-01T13:54:03.982Z</time></trkpt><trkpt lat="44.3584864" lon="11.6144401"><ele>241.0</ele><time>2026-05-01T13:54:04.979Z</time></trkpt><trkpt lat="44.3584861" lon="11.6145498"><ele>240.0</ele><time>2026-05-01T13:54:05.992Z</time></trkpt><trkpt lat="44.3584889" lon="11.6146576"><ele>239.0</ele><time>2026-05-01T13:54:06.99Z</time></trkpt><trkpt lat="44.3584906" lon="11.6147611"><ele>238.0</ele><time>2026-05-01T13:54:08.031Z</time></trkpt><trkpt lat="44.3584939" lon="11.6148677"><ele>237.66666666666666</ele><time>2026-05-01T13:54:08.979Z</time></trkpt><trkpt lat="44.3585001" lon="11.6149728"><ele>237.33333333333331</ele><time>2026-05-01T13:54:09.985Z</time></trkpt><trkpt lat="44.3585047" lon="11.6150877"><ele>237.0</ele><time>2026-05-01T13:54:11.009Z</time></trkpt><trkpt lat="44.3585021" lon="11.6152051"><ele>236.66666666666669</ele><time>2026-05-01T13:54:11.974Z</time></trkpt><trkpt lat="44.3585006" lon="11.6153213"><ele>236.33333333333334</ele><time>2026-05-01T13:54:12.978Z</time></trkpt><trkpt lat="44.3585005" lon="11.615437"><ele>236.0</ele><time>2026-05-01T13:54:13.969Z</time></trkpt><trkpt lat="44.3584997" lon="11.6155607"><ele>235.33333333333334</ele><time>2026-05-01T13:54:14.97Z</time></trkpt><trkpt lat="44.3584988" lon="11.6156803"><ele>234.66666666666669</ele><time>2026-05-01T13:54:15.975Z</time></trkpt><trkpt lat="44.3584952" lon="11.6157978"><ele>234.0</ele><time>2026-05-01T13:54:16.976Z</time></trkpt><trkpt lat="44.3584987" lon="11.6159242"><ele>233.33333333333331</ele><time>2026-05-01T13:54:17.969Z</time></trkpt><trkpt lat="44.3585029" lon="11.6160535"><ele>232.66666666666666</ele><time>2026-05-01T13:54:18.972Z</time></trkpt><trkpt lat="44.3585059" lon="11.6161692"><ele>232.0</ele><time>2026-05-01T13:54:19.974Z</time></trkpt><trkpt lat="44.3585119" lon="11.6162938"><ele>231.83333333333331</ele><time>2026-05-01T13:54:21.035Z</time></trkpt><trkpt lat="44.3585208" lon="11.6164189"><ele>231.66666666666666</ele><time>2026-05-01T13:54:22.029Z</time></trkpt><trkpt lat="44.3585349" lon="11.6165435"><ele>231.5</ele><time>2026-05-01T13:54:22.966Z</time></trkpt><trkpt lat="44.3585504" lon="11.6166716"><ele>231.33333333333331</ele><time>2026-05-01T13:54:23.972Z</time></trkpt><trkpt lat="44.3585663" lon="11.6167923"><ele>231.16666666666666</ele><time>2026-05-01T13:54:24.966Z</time></trkpt><trkpt lat="44.3585845" lon="11.6169128"><ele>231.0</ele><time>2026-05-01T13:54:25.961Z</time></trkpt><trkpt lat="44.3586062" lon="11.6170311"><ele>230.66666666666666</ele><time>2026-05-01T13:54:26.955Z</time></trkpt><trkpt lat="44.3586325" lon="11.6171537"><ele>230.33333333333331</ele><time>2026-05-01T13:54:27.961Z</time></trkpt><trkpt lat="44.3586541" lon="11.6172704"><ele>230.0</ele><time>2026-05-01T13:54:28.956Z</time></trkpt><trkpt lat="44.3586714" lon="11.6173932"><ele>229.66666666666666</ele><time>2026-05-01T13:54:29.963Z</time></trkpt><trkpt lat="44.3586902" lon="11.6175166"><ele>229.33333333333331</ele><time>2026-05-01T13:54:30.958Z</time></trkpt><trkpt lat="44.3587052" lon="11.6176387"><ele>229.0</ele><time>2026-05-01T13:54:31.954Z</time></trkpt><trkpt lat="44.3587268" lon="11.6177651"><ele>228.39999999999998</ele><time>2026-05-01T13:54:32.962Z</time></trkpt><trkpt lat="44.3587482" lon="11.6178905"><ele>227.79999999999998</ele><time>2026-05-01T13:54:33.972Z</time></trkpt><trkpt lat="44.3587718" lon="11.6180194"><ele>227.20000000000002</ele><time>2026-05-01T13:54:34.959Z</time></trkpt><trkpt lat="44.3587967" lon="11.6181511"><ele>226.60000000000002</ele><time>2026-05-01T13:54:35.958Z</time></trkpt><trkpt lat="44.3588199" lon="11.6182874"><ele>226.0</ele><time>2026-05-01T13:54:36.97Z</time></trkpt><trkpt lat="44.3588389" lon="11.6184178"><ele>226.0</ele><time>2026-05-01T13:54:37.982Z</time></trkpt><trkpt lat="44.3588641" lon="11.6185512"><ele>226.00000000000003</ele><time>2026-05-01T13:54:38.966Z</time></trkpt><trkpt lat="44.3588892" lon="11.6186752"><ele>226.00000000000003</ele><time>2026-05-01T13:54:39.967Z</time></trkpt><trkpt lat="44.3589182" lon="11.6187981"><ele>226.0</ele><time>2026-05-01T13:54:40.967Z</time></trkpt><trkpt lat="44.3589455" lon="11.6189191"><ele>226.0</ele><time>2026-05-01T13:54:41.975Z</time></trkpt><trkpt lat="44.358984" lon="11.6190275"><ele>225.33333333333331</ele><time>2026-05-01T13:54:42.969Z</time></trkpt><trkpt lat="44.3590186" lon="11.6191267"><ele>224.66666666666666</ele><time>2026-05-01T13:54:43.974Z</time></trkpt><trkpt lat="44.3590519" lon="11.6192189"><ele>224.0</ele><time>2026-05-01T13:54:44.974Z</time></trkpt><trkpt lat="44.3590881" lon="11.6193033"><ele>223.33333333333331</ele><time>2026-05-01T13:54:46.042Z</time></trkpt><trkpt lat="44.3591284" lon="11.6193916"><ele>222.66666666666666</ele><time>2026-05-01T13:54:46.968Z</time></trkpt><trkpt lat="44.359163" lon="11.6194862"><ele>222.0</ele><time>2026-05-01T13:54:47.967Z</time></trkpt><trkpt lat="44.3591989" lon="11.619587"><ele>221.33333333333334</ele><time>2026-05-01T13:54:48.97Z</time></trkpt><trkpt lat="44.3592431" lon="11.6196878"><ele>220.66666666666669</ele><time>2026-05-01T13:54:49.971Z</time></trkpt><trkpt lat="44.3592944" lon="11.6197907"><ele>220.0</ele><time>2026-05-01T13:54:50.997Z</time></trkpt><trkpt lat="44.3593553" lon="11.6198853"><ele>219.33333333333334</ele><time>2026-05-01T13:54:51.959Z</time></trkpt><trkpt lat="44.3594171" lon="11.6199746"><ele>218.66666666666669</ele><time>2026-05-01T13:54:53.028Z</time></trkpt><trkpt lat="44.3594832" lon="11.6200703"><ele>218.0</ele><time>2026-05-01T13:54:53.999Z</time></trkpt><trkpt lat="44.3595432" lon="11.6201682"><ele>218.0</ele><time>2026-05-01T13:54:54.989Z</time></trkpt><trkpt lat="44.3596025" lon="11.6202718"><ele>218.0</ele><time>2026-05-01T13:54:55.989Z</time></trkpt><trkpt lat="44.359662" lon="11.6203712"><ele>218.0</ele><time>2026-05-01T13:54:56.994Z</time></trkpt><trkpt lat="44.3597268" lon="11.6204841"><ele>218.0</ele><time>2026-05-01T13:54:57.996Z</time></trkpt><trkpt lat="44.3597966" lon="11.6205947"><ele>218.0</ele><time>2026-05-01T13:54:59.008Z</time></trkpt><trkpt lat="44.3598612" lon="11.6207145"><ele>217.0</ele><time>2026-05-01T13:55:00.001Z</time></trkpt><trkpt lat="44.3599216" lon="11.6208319"><ele>216.0</ele><time>2026-05-01T13:55:00.994Z</time></trkpt><trkpt lat="44.3599842" lon="11.6209485"><ele>215.0</ele><time>2026-05-01T13:55:02.032Z</time></trkpt><trkpt lat="44.3600495" lon="11.6210569"><ele>214.0</ele><time>2026-05-01T13:55:02.967Z</time></trkpt><trkpt lat="44.3601177" lon="11.6211723"><ele>213.0</ele><time>2026-05-01T13:55:03.969Z</time></trkpt><trkpt lat="44.3601841" lon="11.6212829"><ele>212.2</ele><time>2026-05-01T13:55:04.964Z</time></trkpt><trkpt lat="44.3602486" lon="11.6213941"><ele>211.4</ele><time>2026-05-01T13:55:05.963Z</time></trkpt><trkpt lat="44.3603009" lon="11.6215186"><ele>210.6</ele><time>2026-05-01T13:55:06.965Z</time></trkpt><trkpt lat="44.3603416" lon="11.6216519"><ele>209.79999999999998</ele><time>2026-05-01T13:55:07.97Z</time></trkpt><trkpt lat="44.3603817" lon="11.6217893"><ele>209.0</ele><time>2026-05-01T13:55:08.973Z</time></trkpt><trkpt lat="44.3604245" lon="11.6219202"><ele>208.33333333333334</ele><time>2026-05-01T13:55:10.03Z</time></trkpt><trkpt lat="44.3604662" lon="11.6220513"><ele>207.66666666666669</ele><time>2026-05-01T13:55:10.967Z</time></trkpt><trkpt lat="44.3605105" lon="11.6221796"><ele>207.0</ele><time>2026-05-01T13:55:11.963Z</time></trkpt><trkpt lat="44.3605478" lon="11.6223012"><ele>206.33333333333331</ele><time>2026-05-01T13:55:12.96Z</time></trkpt><trkpt lat="44.3605779" lon="11.6224009"><ele>205.66666666666666</ele><time>2026-05-01T13:55:13.969Z</time></trkpt><trkpt lat="44.3605972" lon="11.6224852"><ele>205.0</ele><time>2026-05-01T13:55:14.963Z</time></trkpt><trkpt lat="44.3605694" lon="11.6226255"><ele>204.66666666666666</ele><time>2026-05-01T13:55:16.963Z</time></trkpt><trkpt lat="44.3604535" lon="11.6226716"><ele>204.33333333333331</ele><time>2026-05-01T13:55:18.964Z</time></trkpt><trkpt lat="44.3603863" lon="11.6226571"><ele>204.0</ele><time>2026-05-01T13:55:19.968Z</time></trkpt><trkpt lat="44.3603243" lon="11.622634"><ele>203.66666666666669</ele><time>2026-05-01T13:55:21.066Z</time></trkpt><trkpt lat="44.3602603" lon="11.6226276"><ele>203.33333333333334</ele><time>2026-05-01T13:55:22.023Z</time></trkpt><trkpt lat="44.3601951" lon="11.6226326"><ele>203.0</ele><time>2026-05-01T13:55:23.038Z</time></trkpt><trkpt lat="44.3601226" lon="11.622644"><ele>203.0</ele><time>2026-05-01T13:55:23.955Z</time></trkpt><trkpt lat="44.3600391" lon="11.6226614"><ele>203.0</ele><time>2026-05-01T13:55:24.953Z</time></trkpt><trkpt lat="44.3599551" lon="11.6226787"><ele>203.0</ele><time>2026-05-01T13:55:25.971Z</time></trkpt><trkpt lat="44.3598604" lon="11.6227062"><ele>203.0</ele><time>2026-05-01T13:55:26.963Z</time></trkpt><trkpt lat="44.3597605" lon="11.6227419"><ele>203.0</ele><time>2026-05-01T13:55:27.964Z</time></trkpt><trkpt lat="44.3596629" lon="11.6227943"><ele>200.25</ele><time>2026-05-01T13:55:28.959Z</time></trkpt><trkpt lat="44.3595656" lon="11.6228593"><ele>197.5</ele><time>2026-05-01T13:55:29.959Z</time></trkpt><trkpt lat="44.3594617" lon="11.6229317"><ele>194.75</ele><time>2026-05-01T13:55:30.948Z</time></trkpt><trkpt lat="44.3593599" lon="11.6230167"><ele>192.0</ele><time>2026-05-01T13:55:31.959Z</time></trkpt><trkpt lat="44.3592633" lon="11.6231107"><ele>192.0</ele><time>2026-05-01T13:55:32.969Z</time></trkpt><trkpt lat="44.3591744" lon="11.6232021"><ele>192.0</ele><time>2026-05-01T13:55:33.961Z</time></trkpt><trkpt lat="44.3590929" lon="11.6232816"><ele>192.0</ele><time>2026-05-01T13:55:34.963Z</time></trkpt><trkpt lat="44.3590201" lon="11.623356"><ele>192.0</ele><time>2026-05-01T13:55:36.035Z</time></trkpt><trkpt lat="44.3589511" lon="11.6234295"><ele>192.0</ele><time>2026-05-01T13:55:36.968Z</time></trkpt><trkpt lat="44.3588746" lon="11.6235028"><ele>190.83333333333334</ele><time>2026-05-01T13:55:37.976Z</time></trkpt><trkpt lat="44.3587982" lon="11.6235579"><ele>189.66666666666666</ele><time>2026-05-01T13:55:38.971Z</time></trkpt><trkpt lat="44.3587237" lon="11.6235983"><ele>188.5</ele><time>2026-05-01T13:55:40.026Z</time></trkpt><trkpt lat="44.3586616" lon="11.6236404"><ele>187.33333333333331</ele><time>2026-05-01T13:55:40.969Z</time></trkpt><trkpt lat="44.3586186" lon="11.6237959"><ele>186.16666666666666</ele><time>2026-05-01T13:55:42.962Z</time></trkpt><trkpt lat="44.3586349" lon="11.6238993"><ele>185.0</ele><time>2026-05-01T13:55:43.959Z</time></trkpt><trkpt lat="44.3586558" lon="11.623999"><ele>183.66666666666666</ele><time>2026-05-01T13:55:44.964Z</time></trkpt><trkpt lat="44.3586715" lon="11.6240926"><ele>182.33333333333331</ele><time>2026-05-01T13:55:45.949Z</time></trkpt><trkpt lat="44.3586763" lon="11.6241867"><ele>181.0</ele><time>2026-05-01T13:55:46.966Z</time></trkpt><trkpt lat="44.3586792" lon="11.6242759"><ele>179.66666666666666</ele><time>2026-05-01T13:55:47.968Z</time></trkpt><trkpt lat="44.3586712" lon="11.6243711"><ele>178.33333333333334</ele><time>2026-05-01T13:55:48.963Z</time></trkpt><trkpt lat="44.3586572" lon="11.6245347"><ele>177.0</ele><time>2026-05-01T13:55:50.965Z</time></trkpt><trkpt lat="44.3586555" lon="11.6246803"><ele>176.42857142857144</ele><time>2026-05-01T13:55:52.963Z</time></trkpt><trkpt lat="44.3586502" lon="11.6247943"><ele>175.85714285714283</ele><time>2026-05-01T13:55:54.978Z</time></trkpt><trkpt lat="44.3586281" lon="11.6249001"><ele>175.28571428571428</ele><time>2026-05-01T13:55:56.975Z</time></trkpt><trkpt lat="44.358616" lon="11.6249952"><ele>174.71428571428572</ele><time>2026-05-01T13:55:58.969Z</time></trkpt><trkpt lat="44.3586148" lon="11.6250866"><ele>174.14285714285717</ele><time>2026-05-01T13:56:00.966Z</time></trkpt><trkpt lat="44.358615" lon="11.6251884"><ele>173.57142857142856</ele><time>2026-05-01T13:56:02.961Z</time></trkpt><trkpt lat="44.3586151" lon="11.6252996"><ele>173.0</ele><time>2026-05-01T13:56:04.969Z</time></trkpt><trkpt lat="44.3586259" lon="11.6253945"><ele>172.7142857142857</ele><time>2026-05-01T13:56:06.971Z</time></trkpt><trkpt lat="44.3586334" lon="11.6254834"><ele>172.42857142857144</ele><time>2026-05-01T13:56:08.976Z</time></trkpt><trkpt lat="44.358655" lon="11.6255687"><ele>172.14285714285714</ele><time>2026-05-01T13:56:10.98Z</time></trkpt><trkpt lat="44.3586662" lon="11.6256673"><ele>171.85714285714283</ele><time>2026-05-01T13:56:12.97Z</time></trkpt><trkpt lat="44.3586761" lon="11.6257657"><ele>171.57142857142856</ele><time>2026-05-01T13:56:14.971Z</time></trkpt><trkpt lat="44.3586958" lon="11.6258545"><ele>171.28571428571428</ele><time>2026-05-01T13:56:16.961Z</time></trkpt><trkpt lat="44.3587132" lon="11.6259502"><ele>171.0</ele><time>2026-05-01T13:56:18.976Z</time></trkpt><trkpt lat="44.3587387" lon="11.6260356"><ele>170.83333333333334</ele><time>2026-05-01T13:56:20.969Z</time></trkpt><trkpt lat="44.3587677" lon="11.6261552"><ele>170.66666666666666</ele><time>2026-05-01T13:56:23.983Z</time></trkpt><trkpt lat="44.3587966" lon="11.6262699"><ele>170.5</ele><time>2026-05-01T13:56:26.983Z</time></trkpt><trkpt lat="44.3588181" lon="11.6263547"><ele>170.33333333333331</ele><time>2026-05-01T13:56:28.958Z</time></trkpt><trkpt lat="44.3588335" lon="11.6264746"><ele>170.16666666666666</ele><time>2026-05-01T13:56:32.038Z</time></trkpt><trkpt lat="44.3588588" lon="11.6265783"><ele>170.0</ele><time>2026-05-01T13:56:34.97Z</time></trkpt><trkpt lat="44.3588733" lon="11.6266785"><ele>170.0</ele><time>2026-05-01T13:56:37.976Z</time></trkpt><trkpt lat="44.3588137" lon="11.6267593"><ele>170.0</ele><time>2026-05-01T13:56:40.964Z</time></trkpt><trkpt lat="44.3587992" lon="11.6268813"><ele>170.0</ele><time>2026-05-01T13:56:43.949Z</time></trkpt><trkpt lat="44.3588167" lon="11.6269862"><ele>170.0</ele><time>2026-05-01T13:56:46.967Z</time></trkpt><trkpt lat="44.3587507" lon="11.6269893"><ele>170.0</ele><time>2026-05-01T13:56:50.972Z</time></trkpt><trkpt lat="44.3588059" lon="11.6270444"><ele>170.0</ele><time>2026-05-01T13:57:02.969Z</time></trkpt><trkpt lat="44.3587518" lon="11.627125"><ele>170.2857142857143</ele><time>2026-05-01T13:58:19.971Z</time></trkpt><trkpt lat="44.3587228" lon="11.6272248"><ele>170.57142857142856</ele><time>2026-05-01T13:58:22.962Z</time></trkpt><trkpt lat="44.3586973" lon="11.6273308"><ele>170.85714285714286</ele><time>2026-05-01T13:58:25.965Z</time></trkpt><trkpt lat="44.3586812" lon="11.6274228"><ele>171.14285714285717</ele><time>2026-05-01T13:58:28.965Z</time></trkpt><trkpt lat="44.3586786" lon="11.6275301"><ele>171.42857142857144</ele><time>2026-05-01T13:58:31.969Z</time></trkpt><trkpt lat="44.358678" lon="11.6276316"><ele>171.71428571428572</ele><time>2026-05-01T13:58:34.968Z</time></trkpt><trkpt lat="44.3586885" lon="11.6277251"><ele>172.0</ele><time>2026-05-01T13:58:43.954Z</time></trkpt><trkpt lat="44.3587165" lon="11.6276262"><ele>172.00000000000003</ele><time>2026-05-01T13:58:59.953Z</time></trkpt><trkpt lat="44.3586984" lon="11.6275228"><ele>172.0</ele><time>2026-05-01T13:59:03.956Z</time></trkpt><trkpt lat="44.3586829" lon="11.6276192"><ele>172.0</ele><time>2026-05-01T13:59:48.953Z</time></trkpt><trkpt lat="44.3586958" lon="11.6277295"><ele>172.0</ele><time>2026-05-01T13:59:52.947Z</time></trkpt><trkpt lat="44.3587039" lon="11.6278196"><ele>172.0</ele><time>2026-05-01T13:59:57.959Z</time></trkpt><trkpt lat="44.3586751" lon="11.6277378"><ele>172.00000000000003</ele><time>2026-05-01T14:00:16.962Z</time></trkpt><trkpt lat="44.358668" lon="11.6276383"><ele>172.0</ele><time>2026-05-01T14:00:19.969Z</time></trkpt><trkpt lat="44.3586656" lon="11.6275502"><ele>172.00000000000003</ele><time>2026-05-01T14:00:21.957Z</time></trkpt><trkpt lat="44.3586681" lon="11.627442"><ele>172.0</ele><time>2026-05-01T14:00:23.979Z</time></trkpt><trkpt lat="44.3586819" lon="11.6273432"><ele>172.0</ele><time>2026-05-01T14:00:25.975Z</time></trkpt><trkpt lat="44.3587067" lon="11.6272579"><ele>172.0</ele><time>2026-05-01T14:00:27.975Z</time></trkpt><trkpt lat="44.3587344" lon="11.6271517"><ele>172.0</ele><time>2026-05-01T14:00:30.98Z</time></trkpt><trkpt lat="44.3587675" lon="11.6270711"><ele>172.00000000000003</ele><time>2026-05-01T14:00:33.975Z</time></trkpt><trkpt lat="44.358813" lon="11.6270038"><ele>172.0</ele><time>2026-05-01T14:00:36.964Z</time></trkpt><trkpt lat="44.3588748" lon="11.6269558"><ele>173.5</ele><time>2026-05-01T14:00:39.964Z</time></trkpt><trkpt lat="44.3589385" lon="11.6269442"><ele>175.0</ele><time>2026-05-01T14:00:43.958Z</time></trkpt><trkpt lat="44.3589703" lon="11.6270281"><ele>176.5</ele><time>2026-05-01T14:00:46.965Z</time></trkpt><trkpt lat="44.3590167" lon="11.6271127"><ele>178.0</ele><time>2026-05-01T14:00:49.969Z</time></trkpt><trkpt lat="44.3590665" lon="11.6272109"><ele>179.5</ele><time>2026-05-01T14:00:52.962Z</time></trkpt><trkpt lat="44.3591172" lon="11.6273004"><ele>181.0</ele><time>2026-05-01T14:00:56.966Z</time></trkpt><trkpt lat="44.3591601" lon="11.6273903"><ele>182.66666666666669</ele><time>2026-05-01T14:01:00.969Z</time></trkpt><trkpt lat="44.3591974" lon="11.6274772"><ele>184.33333333333334</ele><time>2026-05-01T14:01:04.964Z</time></trkpt><trkpt lat="44.3592204" lon="11.6275834"><ele>186.0</ele><time>2026-05-01T14:01:08.969Z</time></trkpt><trkpt lat="44.3592032" lon="11.6276882"><ele>187.66666666666666</ele><time>2026-05-01T14:01:13.957Z</time></trkpt><trkpt lat="44.3591391" lon="11.6277578"><ele>189.33333333333331</ele><time>2026-05-01T14:01:18.967Z</time></trkpt><trkpt lat="44.3590774" lon="11.6278115"><ele>191.0</ele><time>2026-05-01T14:01:22.961Z</time></trkpt><trkpt lat="44.3590203" lon="11.6278658"><ele>191.14285714285714</ele><time>2026-05-01T14:01:27.972Z</time></trkpt><trkpt lat="44.3589577" lon="11.6279005"><ele>191.28571428571428</ele><time>2026-05-01T14:01:37.962Z</time></trkpt><trkpt lat="44.3589025" lon="11.6279559"><ele>191.42857142857142</ele><time>2026-05-01T14:01:43.981Z</time></trkpt><trkpt lat="44.3588811" lon="11.6280415"><ele>191.57142857142856</ele><time>2026-05-01T14:02:43.958Z</time></trkpt><trkpt lat="44.3589406" lon="11.6279999"><ele>191.71428571428572</ele><time>2026-05-01T14:02:52.982Z</time></trkpt><trkpt lat="44.3590127" lon="11.6279877"><ele>191.85714285714283</ele><time>2026-05-01T14:02:58.964Z</time></trkpt><trkpt lat="44.3590822" lon="11.6280244"><ele>192.0</ele><time>2026-05-01T14:03:06.952Z</time></trkpt><trkpt lat="44.3591086" lon="11.6281234"><ele>192.0</ele><time>2026-05-01T14:03:11.953Z</time></trkpt><trkpt lat="44.3591372" lon="11.6282281"><ele>192.0</ele><time>2026-05-01T14:03:15.959Z</time></trkpt><trkpt lat="44.3591578" lon="11.62834"><ele>192.0</ele><time>2026-05-01T14:03:19.954Z</time></trkpt><trkpt lat="44.3591753" lon="11.6284408"><ele>192.0</ele><time>2026-05-01T14:03:23.951Z</time></trkpt><trkpt lat="44.3592107" lon="11.628533"><ele>192.0</ele><time>2026-05-01T14:03:27.961Z</time></trkpt><trkpt lat="44.3592474" lon="11.6286047"><ele>192.0</ele><time>2026-05-01T14:03:32.963Z</time></trkpt><trkpt lat="44.3592876" lon="11.6287019"><ele>191.28571428571428</ele><time>2026-05-01T14:03:37.955Z</time></trkpt><trkpt lat="44.3592967" lon="11.6288024"><ele>190.57142857142856</ele><time>2026-05-01T14:03:42.973Z</time></trkpt><trkpt lat="44.3593039" lon="11.6289114"><ele>189.85714285714283</ele><time>2026-05-01T14:03:48.948Z</time></trkpt><trkpt lat="44.3593559" lon="11.6289724"><ele>189.14285714285714</ele><time>2026-05-01T14:04:55.95Z</time></trkpt><trkpt lat="44.3594027" lon="11.6290696"><ele>188.42857142857144</ele><time>2026-05-01T14:04:59.964Z</time></trkpt><trkpt lat="44.3594197" lon="11.629161"><ele>187.7142857142857</ele><time>2026-05-01T14:05:03.965Z</time></trkpt><trkpt lat="44.3594387" lon="11.6292509"><ele>187.0</ele><time>2026-05-01T14:05:07.958Z</time></trkpt><trkpt lat="44.3594763" lon="11.6293296"><ele>187.0</ele><time>2026-05-01T14:05:11.964Z</time></trkpt><trkpt lat="44.3595203" lon="11.6294198"><ele>187.0</ele><time>2026-05-01T14:05:16.965Z</time></trkpt><trkpt lat="44.3595347" lon="11.6295215"><ele>187.0</ele><time>2026-05-01T14:05:20.962Z</time></trkpt><trkpt lat="44.3595574" lon="11.6296275"><ele>187.0</ele><time>2026-05-01T14:05:23.963Z</time></trkpt><trkpt lat="44.3595844" lon="11.6297441"><ele>187.0</ele><time>2026-05-01T14:05:26.966Z</time></trkpt><trkpt lat="44.3596084" lon="11.629844"><ele>187.0</ele><time>2026-05-01T14:05:29.97Z</time></trkpt><trkpt lat="44.3595986" lon="11.6299482"><ele>184.7142857142857</ele><time>2026-05-01T14:05:32.965Z</time></trkpt><trkpt lat="44.3595956" lon="11.6300414"><ele>182.42857142857144</ele><time>2026-05-01T14:05:35.957Z</time></trkpt><trkpt lat="44.3595946" lon="11.6301582"><ele>180.14285714285714</ele><time>2026-05-01T14:05:38.966Z</time></trkpt><trkpt lat="44.3596025" lon="11.6302552"><ele>177.85714285714283</ele><time>2026-05-01T14:05:41.957Z</time></trkpt><trkpt lat="44.3596228" lon="11.6303444"><ele>175.57142857142856</ele><time>2026-05-01T14:05:44.959Z</time></trkpt><trkpt lat="44.3596326" lon="11.6304326"><ele>173.28571428571428</ele><time>2026-05-01T14:05:46.963Z</time></trkpt><trkpt lat="44.359632" lon="11.6305232"><ele>171.0</ele><time>2026-05-01T14:05:48.973Z</time></trkpt><trkpt lat="44.3596338" lon="11.6306306"><ele>170.83333333333334</ele><time>2026-05-01T14:05:50.963Z</time></trkpt><trkpt lat="44.3596542" lon="11.6307155"><ele>170.66666666666666</ele><time>2026-05-01T14:05:52.961Z</time></trkpt><trkpt lat="44.3596753" lon="11.6308546"><ele>170.5</ele><time>2026-05-01T14:05:55.954Z</time></trkpt><trkpt lat="44.3596998" lon="11.6309518"><ele>170.33333333333331</ele><time>2026-05-01T14:05:57.97Z</time></trkpt><trkpt lat="44.3597107" lon="11.6310571"><ele>170.16666666666666</ele><time>2026-05-01T14:05:59.958Z</time></trkpt><trkpt lat="44.359727" lon="11.6311738"><ele>170.0</ele><time>2026-05-01T14:06:01.969Z</time></trkpt><trkpt lat="44.3597491" lon="11.6313031"><ele>170.0</ele><time>2026-05-01T14:06:03.969Z</time></trkpt><trkpt lat="44.3597681" lon="11.6314447"><ele>170.0</ele><time>2026-05-01T14:06:05.969Z</time></trkpt><trkpt lat="44.3597867" lon="11.6315788"><ele>170.0</ele><time>2026-05-01T14:06:07.964Z</time></trkpt><trkpt lat="44.3597953" lon="11.6317137"><ele>170.0</ele><time>2026-05-01T14:06:09.964Z</time></trkpt><trkpt lat="44.3598124" lon="11.6318109"><ele>170.0</ele><time>2026-05-01T14:06:11.952Z</time></trkpt><trkpt lat="44.3598225" lon="11.6319103"><ele>170.0</ele><time>2026-05-01T14:06:13.969Z</time></trkpt><trkpt lat="44.3598378" lon="11.6320104"><ele>170.0</ele><time>2026-05-01T14:06:15.971Z</time></trkpt><trkpt lat="44.3598665" lon="11.6321093"><ele>170.0</ele><time>2026-05-01T14:06:17.963Z</time></trkpt><trkpt lat="44.3598991" lon="11.6322147"><ele>170.0</ele><time>2026-05-01T14:06:19.953Z</time></trkpt><trkpt lat="44.3599254" lon="11.6323243"><ele>170.0</ele><time>2026-05-01T14:06:21.953Z</time></trkpt><trkpt lat="44.3599396" lon="11.6324381"><ele>170.0</ele><time>2026-05-01T14:06:23.957Z</time></trkpt><trkpt lat="44.3599643" lon="11.6325515"><ele>170.0</ele><time>2026-05-01T14:06:25.957Z</time></trkpt><trkpt lat="44.3599931" lon="11.6326766"><ele>170.0</ele><time>2026-05-01T14:06:27.958Z</time></trkpt><trkpt lat="44.360018" lon="11.632812"><ele>170.0</ele><time>2026-05-01T14:06:29.97Z</time></trkpt><trkpt lat="44.3600504" lon="11.6329406"><ele>170.0</ele><time>2026-05-01T14:06:31.967Z</time></trkpt><trkpt lat="44.3600853" lon="11.633078"><ele>170.0</ele><time>2026-05-01T14:06:33.956Z</time></trkpt><trkpt lat="44.3601214" lon="11.6332105"><ele>170.0</ele><time>2026-05-01T14:06:35.961Z</time></trkpt><trkpt lat="44.3601547" lon="11.6333535"><ele>170.0</ele><time>2026-05-01T14:06:37.97Z</time></trkpt><trkpt lat="44.360195" lon="11.6335097"><ele>170.0</ele><time>2026-05-01T14:06:40.04Z</time></trkpt><trkpt lat="44.3602345" lon="11.6336677"><ele>170.0</ele><time>2026-05-01T14:06:42.043Z</time></trkpt><trkpt lat="44.3602749" lon="11.6338358"><ele>170.0</ele><time>2026-05-01T14:06:43.979Z</time></trkpt><trkpt lat="44.3602948" lon="11.6339219"><ele>170.0</ele><time>2026-05-01T14:06:44.971Z</time></trkpt><trkpt lat="44.3603356" lon="11.6340891"><ele>169.85714285714286</ele><time>2026-05-01T14:06:46.967Z</time></trkpt><trkpt lat="44.3603613" lon="11.6341803"><ele>169.7142857142857</ele><time>2026-05-01T14:06:47.974Z</time></trkpt><trkpt lat="44.360383" lon="11.6342674"><ele>169.57142857142856</ele><time>2026-05-01T14:06:48.973Z</time></trkpt><trkpt lat="44.3604038" lon="11.6343597"><ele>169.42857142857144</ele><time>2026-05-01T14:06:50.04Z</time></trkpt><trkpt lat="44.3604271" lon="11.6344547"><ele>169.28571428571428</ele><time>2026-05-01T14:06:50.973Z</time></trkpt><trkpt lat="44.3604543" lon="11.634546"><ele>169.14285714285714</ele><time>2026-05-01T14:06:51.988Z</time></trkpt><trkpt lat="44.3604776" lon="11.6346344"><ele>169.0</ele><time>2026-05-01T14:06:52.982Z</time></trkpt><trkpt lat="44.3605037" lon="11.6347296"><ele>169.0</ele><time>2026-05-01T14:06:53.979Z</time></trkpt><trkpt lat="44.3605282" lon="11.6348237"><ele>169.0</ele><time>2026-05-01T14:06:54.963Z</time></trkpt><trkpt lat="44.3605526" lon="11.6349191"><ele>169.0</ele><time>2026-05-01T14:06:55.977Z</time></trkpt><trkpt lat="44.3605784" lon="11.6350155"><ele>169.0</ele><time>2026-05-01T14:06:56.975Z</time></trkpt><trkpt lat="44.3606075" lon="11.6351124"><ele>169.0</ele><time>2026-05-01T14:06:58.017Z</time></trkpt><trkpt lat="44.3606357" lon="11.6352091"><ele>169.0</ele><time>2026-05-01T14:06:58.967Z</time></trkpt><trkpt lat="44.3606591" lon="11.6353138"><ele>169.0</ele><time>2026-05-01T14:07:00.047Z</time></trkpt><trkpt lat="44.3606802" lon="11.6354172"><ele>168.16666666666669</ele><time>2026-05-01T14:07:00.965Z</time></trkpt><trkpt lat="44.3607019" lon="11.6355151"><ele>167.33333333333334</ele><time>2026-05-01T14:07:01.958Z</time></trkpt><trkpt lat="44.360729" lon="11.635617"><ele>166.5</ele><time>2026-05-01T14:07:02.967Z</time></trkpt><trkpt lat="44.3607505" lon="11.6357211"><ele>165.66666666666666</ele><time>2026-05-01T14:07:03.972Z</time></trkpt><trkpt lat="44.3607768" lon="11.6358249"><ele>164.83333333333331</ele><time>2026-05-01T14:07:04.96Z</time></trkpt><trkpt lat="44.3608079" lon="11.6359306"><ele>164.0</ele><time>2026-05-01T14:07:05.975Z</time></trkpt><trkpt lat="44.3608429" lon="11.6360376"><ele>163.33333333333331</ele><time>2026-05-01T14:07:06.979Z</time></trkpt><trkpt lat="44.3608736" lon="11.6361404"><ele>162.66666666666666</ele><time>2026-05-01T14:07:07.991Z</time></trkpt><trkpt lat="44.3609034" lon="11.6362433"><ele>162.0</ele><time>2026-05-01T14:07:08.962Z</time></trkpt><trkpt lat="44.3609254" lon="11.6363562"><ele>161.33333333333334</ele><time>2026-05-01T14:07:09.968Z</time></trkpt><trkpt lat="44.3609396" lon="11.6364796"><ele>160.66666666666669</ele><time>2026-05-01T14:07:10.973Z</time></trkpt><trkpt lat="44.3609507" lon="11.6365984"><ele>160.0</ele><time>2026-05-01T14:07:11.971Z</time></trkpt><trkpt lat="44.3609856" lon="11.636709"><ele>160.0</ele><time>2026-05-01T14:07:12.949Z</time></trkpt><trkpt lat="44.3610412" lon="11.6367998"><ele>160.0</ele><time>2026-05-01T14:07:13.965Z</time></trkpt><trkpt lat="44.3611098" lon="11.6368776"><ele>160.0</ele><time>2026-05-01T14:07:14.967Z</time></trkpt><trkpt lat="44.3611742" lon="11.6369671"><ele>160.0</ele><time>2026-05-01T14:07:15.966Z</time></trkpt><trkpt lat="44.3612382" lon="11.6370589"><ele>160.0</ele><time>2026-05-01T14:07:17.042Z</time></trkpt><trkpt lat="44.3613017" lon="11.637163"><ele>158.4</ele><time>2026-05-01T14:07:17.957Z</time></trkpt><trkpt lat="44.3613665" lon="11.6372646"><ele>156.8</ele><time>2026-05-01T14:07:18.958Z</time></trkpt><trkpt lat="44.3614296" lon="11.6373717"><ele>155.2</ele><time>2026-05-01T14:07:20.024Z</time></trkpt><trkpt lat="44.3614942" lon="11.6374779"><ele>153.6</ele><time>2026-05-01T14:07:20.97Z</time></trkpt><trkpt lat="44.3615653" lon="11.6375924"><ele>152.0</ele><time>2026-05-01T14:07:21.965Z</time></trkpt><trkpt lat="44.361634" lon="11.637694"><ele>151.79999999999998</ele><time>2026-05-01T14:07:22.976Z</time></trkpt><trkpt lat="44.3617033" lon="11.6378064"><ele>151.6</ele><time>2026-05-01T14:07:23.967Z</time></trkpt><trkpt lat="44.3617735" lon="11.6379114"><ele>151.39999999999998</ele><time>2026-05-01T14:07:24.967Z</time></trkpt><trkpt lat="44.3618419" lon="11.6380146"><ele>151.2</ele><time>2026-05-01T14:07:25.969Z</time></trkpt><trkpt lat="44.3619133" lon="11.6381183"><ele>151.0</ele><time>2026-05-01T14:07:26.963Z</time></trkpt><trkpt lat="44.361986" lon="11.638226"><ele>151.0</ele><time>2026-05-01T14:07:27.959Z</time></trkpt><trkpt lat="44.3620511" lon="11.6383324"><ele>151.0</ele><time>2026-05-01T14:07:29.015Z</time></trkpt><trkpt lat="44.3621199" lon="11.6384412"><ele>151.0</ele><time>2026-05-01T14:07:30.043Z</time></trkpt><trkpt lat="44.3621893" lon="11.6385495"><ele>151.0</ele><time>2026-05-01T14:07:30.969Z</time></trkpt><trkpt lat="44.362259" lon="11.6386559"><ele>151.0</ele><time>2026-05-01T14:07:31.974Z</time></trkpt><trkpt lat="44.3623244" lon="11.6387705"><ele>150.2</ele><time>2026-05-01T14:07:32.969Z</time></trkpt><trkpt lat="44.3623913" lon="11.6388802"><ele>149.39999999999998</ele><time>2026-05-01T14:07:33.97Z</time></trkpt><trkpt lat="44.3624581" lon="11.6389855"><ele>148.6</ele><time>2026-05-01T14:07:34.966Z</time></trkpt><trkpt lat="44.3625228" lon="11.6390986"><ele>147.79999999999998</ele><time>2026-05-01T14:07:35.963Z</time></trkpt><trkpt lat="44.3625826" lon="11.6392197"><ele>147.0</ele><time>2026-05-01T14:07:36.968Z</time></trkpt><trkpt lat="44.3626316" lon="11.6393521"><ele>146.6</ele><time>2026-05-01T14:07:37.969Z</time></trkpt><trkpt lat="44.3626735" lon="11.6394975"><ele>146.2</ele><time>2026-05-01T14:07:38.965Z</time></trkpt><trkpt lat="44.3627144" lon="11.63964"><ele>145.8</ele><time>2026-05-01T14:07:40.034Z</time></trkpt><trkpt lat="44.362755" lon="11.6397795"><ele>145.4</ele><time>2026-05-01T14:07:40.969Z</time></trkpt><trkpt lat="44.3627976" lon="11.6399223"><ele>145.0</ele><time>2026-05-01T14:07:41.967Z</time></trkpt><trkpt lat="44.362845" lon="11.6400706"><ele>145.0</ele><time>2026-05-01T14:07:42.998Z</time></trkpt><trkpt lat="44.3628969" lon="11.6402189"><ele>145.0</ele><time>2026-05-01T14:07:43.968Z</time></trkpt><trkpt lat="44.3629438" lon="11.6403667"><ele>145.0</ele><time>2026-05-01T14:07:44.971Z</time></trkpt><trkpt lat="44.3629904" lon="11.6405195"><ele>145.0</ele><time>2026-05-01T14:07:45.968Z</time></trkpt><trkpt lat="44.3630386" lon="11.6406647"><ele>142.75</ele><time>2026-05-01T14:07:46.973Z</time></trkpt><trkpt lat="44.3630914" lon="11.6408062"><ele>140.5</ele><time>2026-05-01T14:07:47.969Z</time></trkpt><trkpt lat="44.3631354" lon="11.6409535"><ele>138.25</ele><time>2026-05-01T14:07:48.964Z</time></trkpt><trkpt lat="44.3631773" lon="11.6411035"><ele>136.0</ele><time>2026-05-01T14:07:49.971Z</time></trkpt><trkpt lat="44.3632145" lon="11.641254"><ele>135.4</ele><time>2026-05-01T14:07:50.959Z</time></trkpt><trkpt lat="44.3632572" lon="11.6413982"><ele>134.8</ele><time>2026-05-01T14:07:51.982Z</time></trkpt><trkpt lat="44.3632978" lon="11.641535"><ele>134.20000000000002</ele><time>2026-05-01T14:07:52.966Z</time></trkpt><trkpt lat="44.3633378" lon="11.6416767"><ele>133.6</ele><time>2026-05-01T14:07:53.963Z</time></trkpt><trkpt lat="44.3633774" lon="11.6418206"><ele>133.0</ele><time>2026-05-01T14:07:54.971Z</time></trkpt><trkpt lat="44.3634137" lon="11.6419653"><ele>132.20000000000002</ele><time>2026-05-01T14:07:55.969Z</time></trkpt><trkpt lat="44.3634444" lon="11.6421092"><ele>131.4</ele><time>2026-05-01T14:07:56.968Z</time></trkpt><trkpt lat="44.3634776" lon="11.6422569"><ele>130.60000000000002</ele><time>2026-05-01T14:07:58.032Z</time></trkpt><trkpt lat="44.363506" lon="11.6424053"><ele>129.8</ele><time>2026-05-01T14:07:58.967Z</time></trkpt><trkpt lat="44.3635291" lon="11.642555"><ele>129.0</ele><time>2026-05-01T14:07:59.966Z</time></trkpt><trkpt lat="44.3635568" lon="11.6427084"><ele>128.6</ele><time>2026-05-01T14:08:00.972Z</time></trkpt><trkpt lat="44.3635892" lon="11.6428531"><ele>128.2</ele><time>2026-05-01T14:08:01.963Z</time></trkpt><trkpt lat="44.3636195" lon="11.642994"><ele>127.79999999999998</ele><time>2026-05-01T14:08:02.97Z</time></trkpt><trkpt lat="44.3636511" lon="11.6431419"><ele>127.39999999999999</ele><time>2026-05-01T14:08:03.97Z</time></trkpt><trkpt lat="44.36368" lon="11.6432848"><ele>127.0</ele><time>2026-05-01T14:08:04.972Z</time></trkpt><trkpt lat="44.3637084" lon="11.6434279"><ele>127.0</ele><time>2026-05-01T14:08:05.959Z</time></trkpt><trkpt lat="44.3637349" lon="11.6435708"><ele>126.99999999999999</ele><time>2026-05-01T14:08:06.964Z</time></trkpt><trkpt lat="44.363762" lon="11.6437162"><ele>126.99999999999999</ele><time>2026-05-01T14:08:07.971Z</time></trkpt><trkpt lat="44.3637879" lon="11.6438583"><ele>127.0</ele><time>2026-05-01T14:08:08.966Z</time></trkpt><trkpt lat="44.3638137" lon="11.6440008"><ele>127.0</ele><time>2026-05-01T14:08:09.97Z</time></trkpt><trkpt lat="44.3638434" lon="11.6441434"><ele>127.0</ele><time>2026-05-01T14:08:10.966Z</time></trkpt><trkpt lat="44.3638666" lon="11.6442894"><ele>126.99999999999999</ele><time>2026-05-01T14:08:11.964Z</time></trkpt><trkpt lat="44.3638893" lon="11.6444278"><ele>126.99999999999999</ele><time>2026-05-01T14:08:12.959Z</time></trkpt><trkpt lat="44.3639187" lon="11.6445707"><ele>127.0</ele><time>2026-05-01T14:08:13.966Z</time></trkpt><trkpt lat="44.3639455" lon="11.644713"><ele>127.0</ele><time>2026-05-01T14:08:14.962Z</time></trkpt><trkpt lat="44.3639761" lon="11.6448503"><ele>127.0</ele><time>2026-05-01T14:08:15.963Z</time></trkpt><trkpt lat="44.3640121" lon="11.6449893"><ele>126.99999999999999</ele><time>2026-05-01T14:08:16.963Z</time></trkpt><trkpt lat="44.3640551" lon="11.6451196"><ele>126.99999999999999</ele><time>2026-05-01T14:08:17.971Z</time></trkpt><trkpt lat="44.3641043" lon="11.6452506"><ele>127.0</ele><time>2026-05-01T14:08:18.966Z</time></trkpt><trkpt lat="44.3641567" lon="11.6453799"><ele>127.0</ele><time>2026-05-01T14:08:19.963Z</time></trkpt><trkpt lat="44.3642098" lon="11.6455046"><ele>125.8</ele><time>2026-05-01T14:08:20.966Z</time></trkpt><trkpt lat="44.3642715" lon="11.6456208"><ele>124.6</ele><time>2026-05-01T14:08:21.96Z</time></trkpt><trkpt lat="44.3643346" lon="11.6457352"><ele>123.39999999999999</ele><time>2026-05-01T14:08:22.978Z</time></trkpt><trkpt lat="44.3643998" lon="11.6458404"><ele>122.19999999999999</ele><time>2026-05-01T14:08:23.954Z</time></trkpt><trkpt lat="44.3644756" lon="11.6459421"><ele>121.0</ele><time>2026-05-01T14:08:24.961Z</time></trkpt><trkpt lat="44.3645503" lon="11.6460445"><ele>119.6</ele><time>2026-05-01T14:08:25.967Z</time></trkpt><trkpt lat="44.3646227" lon="11.6461467"><ele>118.19999999999999</ele><time>2026-05-01T14:08:26.96Z</time></trkpt><trkpt lat="44.3646917" lon="11.6462496"><ele>116.80000000000001</ele><time>2026-05-01T14:08:27.97Z</time></trkpt><trkpt lat="44.3647621" lon="11.6463504"><ele>115.4</ele><time>2026-05-01T14:08:28.962Z</time></trkpt><trkpt lat="44.3648341" lon="11.6464454"><ele>114.0</ele><time>2026-05-01T14:08:29.974Z</time></trkpt><trkpt lat="44.3649073" lon="11.6465409"><ele>114.0</ele><time>2026-05-01T14:08:30.968Z</time></trkpt><trkpt lat="44.3649813" lon="11.6466421"><ele>114.0</ele><time>2026-05-01T14:08:31.971Z</time></trkpt><trkpt lat="44.36505" lon="11.6467408"><ele>114.0</ele><time>2026-05-01T14:08:32.973Z</time></trkpt><trkpt lat="44.3651188" lon="11.6468373"><ele>114.0</ele><time>2026-05-01T14:08:33.966Z</time></trkpt><trkpt lat="44.3651912" lon="11.6469328"><ele>114.0</ele><time>2026-05-01T14:08:34.963Z</time></trkpt><trkpt lat="44.3652595" lon="11.6470311"><ele>113.0</ele><time>2026-05-01T14:08:35.965Z</time></trkpt><trkpt lat="44.3653301" lon="11.6471288"><ele>112.0</ele><time>2026-05-01T14:08:36.965Z</time></trkpt><trkpt lat="44.3654022" lon="11.6472188"><ele>111.0</ele><time>2026-05-01T14:08:37.968Z</time></trkpt><trkpt lat="44.3654756" lon="11.6473055"><ele>110.0</ele><time>2026-05-01T14:08:38.961Z</time></trkpt><trkpt lat="44.3655438" lon="11.6474038"><ele>109.0</ele><time>2026-05-01T14:08:40.03Z</time></trkpt><trkpt lat="44.3656149" lon="11.6474956"><ele>108.80000000000001</ele><time>2026-05-01T14:08:40.962Z</time></trkpt><trkpt lat="44.3656852" lon="11.6475896"><ele>108.60000000000001</ele><time>2026-05-01T14:08:41.967Z</time></trkpt><trkpt lat="44.3657591" lon="11.6476828"><ele>108.4</ele><time>2026-05-01T14:08:42.969Z</time></trkpt><trkpt lat="44.3658295" lon="11.6477736"><ele>108.2</ele><time>2026-05-01T14:08:43.97Z</time></trkpt><trkpt lat="44.3659011" lon="11.6478671"><ele>108.0</ele><time>2026-05-01T14:08:44.984Z</time></trkpt><trkpt lat="44.365974" lon="11.6479619"><ele>108.0</ele><time>2026-05-01T14:08:45.988Z</time></trkpt><trkpt lat="44.3660433" lon="11.6480558"><ele>108.00000000000001</ele><time>2026-05-01T14:08:46.971Z</time></trkpt><trkpt lat="44.3661096" lon="11.6481457"><ele>108.00000000000001</ele><time>2026-05-01T14:08:47.965Z</time></trkpt><trkpt lat="44.3661753" lon="11.6482371"><ele>108.0</ele><time>2026-05-01T14:08:48.968Z</time></trkpt><trkpt lat="44.3662411" lon="11.6483281"><ele>108.0</ele><time>2026-05-01T14:08:49.97Z</time></trkpt><trkpt lat="44.3663066" lon="11.6484178"><ele>108.0</ele><time>2026-05-01T14:08:50.971Z</time></trkpt><trkpt lat="44.3663649" lon="11.6485069"><ele>108.0</ele><time>2026-05-01T14:08:52.034Z</time></trkpt><trkpt lat="44.3664217" lon="11.6485969"><ele>108.0</ele><time>2026-05-01T14:08:52.993Z</time></trkpt><trkpt lat="44.3664737" lon="11.648682"><ele>108.0</ele><time>2026-05-01T14:08:54.036Z</time></trkpt><trkpt lat="44.3665238" lon="11.6487516"><ele>108.0</ele><time>2026-05-01T14:08:54.959Z</time></trkpt><trkpt lat="44.3665659" lon="11.6488174"><ele>108.0</ele><time>2026-05-01T14:08:55.956Z</time></trkpt><trkpt lat="44.3666149" lon="11.6489485"><ele>107.75</ele><time>2026-05-01T14:08:57.947Z</time></trkpt><trkpt lat="44.3665795" lon="11.6490939"><ele>107.5</ele><time>2026-05-01T14:08:59.962Z</time></trkpt><trkpt lat="44.3665086" lon="11.6492014"><ele>107.25</ele><time>2026-05-01T14:09:01.974Z</time></trkpt><trkpt lat="44.3664059" lon="11.6494072"><ele>107.0</ele><time>2026-05-01T14:09:05.035Z</time></trkpt><trkpt lat="44.3663737" lon="11.6494937"><ele>106.19999999999999</ele><time>2026-05-01T14:09:05.952Z</time></trkpt><trkpt lat="44.3663318" lon="11.6495961"><ele>105.39999999999999</ele><time>2026-05-01T14:09:06.959Z</time></trkpt><trkpt lat="44.3662788" lon="11.6497001"><ele>104.6</ele><time>2026-05-01T14:09:07.953Z</time></trkpt><trkpt lat="44.3662223" lon="11.6498137"><ele>103.80000000000001</ele><time>2026-05-01T14:09:08.951Z</time></trkpt><trkpt lat="44.366162" lon="11.6499325"><ele>103.0</ele><time>2026-05-01T14:09:09.955Z</time></trkpt><trkpt lat="44.3660953" lon="11.6500607"><ele>103.0</ele><time>2026-05-01T14:09:10.949Z</time></trkpt><trkpt lat="44.366022" lon="11.6501947"><ele>103.0</ele><time>2026-05-01T14:09:11.945Z</time></trkpt><trkpt lat="44.3659401" lon="11.6503299"><ele>103.0</ele><time>2026-05-01T14:09:12.954Z</time></trkpt><trkpt lat="44.3658522" lon="11.6504779"><ele>103.0</ele><time>2026-05-01T14:09:13.958Z</time></trkpt><trkpt lat="44.36576" lon="11.6506257"><ele>99.25</ele><time>2026-05-01T14:09:14.954Z</time></trkpt><trkpt lat="44.3656678" lon="11.6507696"><ele>95.5</ele><time>2026-05-01T14:09:15.945Z</time></trkpt><trkpt lat="44.3655708" lon="11.6509042"><ele>91.75</ele><time>2026-05-01T14:09:16.948Z</time></trkpt><trkpt lat="44.3654719" lon="11.6510374"><ele>88.0</ele><time>2026-05-01T14:09:17.944Z</time></trkpt><trkpt lat="44.36537" lon="11.6511732"><ele>87.25</ele><time>2026-05-01T14:09:18.946Z</time></trkpt><trkpt lat="44.3652716" lon="11.651299"><ele>86.5</ele><time>2026-05-01T14:09:19.946Z</time></trkpt><trkpt lat="44.3651762" lon="11.6514029"><ele>85.75</ele><time>2026-05-01T14:09:20.946Z</time></trkpt><trkpt lat="44.3650861" lon="11.6514943"><ele>85.0</ele><time>2026-05-01T14:09:21.946Z</time></trkpt><trkpt lat="44.365007" lon="11.6515733"><ele>85.0</ele><time>2026-05-01T14:09:22.945Z</time></trkpt><trkpt lat="44.3649287" lon="11.6516445"><ele>85.0</ele><time>2026-05-01T14:09:23.942Z</time></trkpt><trkpt lat="44.3648664" lon="11.6516967"><ele>85.0</ele><time>2026-05-01T14:09:24.947Z</time></trkpt><trkpt lat="44.3647382" lon="11.6517294"><ele>85.0</ele><time>2026-05-01T14:09:26.94Z</time></trkpt><trkpt lat="44.3646766" lon="11.6517008"><ele>85.0</ele><time>2026-05-01T14:09:27.948Z</time></trkpt><trkpt lat="44.3645808" lon="11.6516187"><ele>84.8</ele><time>2026-05-01T14:09:29.954Z</time></trkpt><trkpt lat="44.364474" lon="11.6515321"><ele>84.6</ele><time>2026-05-01T14:09:31.958Z</time></trkpt><trkpt lat="44.3643727" lon="11.6514367"><ele>84.4</ele><time>2026-05-01T14:09:33.96Z</time></trkpt><trkpt lat="44.3643221" lon="11.6513777"><ele>84.2</ele><time>2026-05-01T14:09:34.965Z</time></trkpt><trkpt lat="44.3642278" lon="11.6512646"><ele>84.0</ele><time>2026-05-01T14:09:37.038Z</time></trkpt><trkpt lat="44.3641336" lon="11.6511514"><ele>84.16666666666667</ele><time>2026-05-01T14:09:38.961Z</time></trkpt><trkpt lat="44.3640819" lon="11.6510941"><ele>84.33333333333333</ele><time>2026-05-01T14:09:40.028Z</time></trkpt><trkpt lat="44.3640307" lon="11.6510388"><ele>84.5</ele><time>2026-05-01T14:09:40.978Z</time></trkpt><trkpt lat="44.3639823" lon="11.6509789"><ele>84.66666666666666</ele><time>2026-05-01T14:09:42.045Z</time></trkpt><trkpt lat="44.3638888" lon="11.6508632"><ele>84.83333333333333</ele><time>2026-05-01T14:09:44.035Z</time></trkpt><trkpt lat="44.3638023" lon="11.6507392"><ele>85.0</ele><time>2026-05-01T14:09:45.968Z</time></trkpt><trkpt lat="44.3637188" lon="11.6506106"><ele>84.66666666666666</ele><time>2026-05-01T14:09:47.971Z</time></trkpt><trkpt lat="44.3636372" lon="11.6504792"><ele>84.33333333333333</ele><time>2026-05-01T14:09:50.028Z</time></trkpt><trkpt lat="44.3635958" lon="11.6504097"><ele>84.0</ele><time>2026-05-01T14:09:50.958Z</time></trkpt><trkpt lat="44.3635164" lon="11.6502759"><ele>83.66666666666667</ele><time>2026-05-01T14:09:52.965Z</time></trkpt><trkpt lat="44.3634758" lon="11.6502009"><ele>83.33333333333334</ele><time>2026-05-01T14:09:53.958Z</time></trkpt><trkpt lat="44.3634379" lon="11.6501281"><ele>83.0</ele><time>2026-05-01T14:09:55.028Z</time></trkpt><trkpt lat="44.3634022" lon="11.6500493"><ele>83.0</ele><time>2026-05-01T14:09:55.993Z</time></trkpt><trkpt lat="44.3633628" lon="11.6499792"><ele>83.0</ele><time>2026-05-01T14:09:56.974Z</time></trkpt><trkpt lat="44.3633249" lon="11.6499055"><ele>83.0</ele><time>2026-05-01T14:09:57.971Z</time></trkpt><trkpt lat="44.3632857" lon="11.6498364"><ele>83.0</ele><time>2026-05-01T14:09:58.971Z</time></trkpt><trkpt lat="44.3632107" lon="11.6496982"><ele>83.0</ele><time>2026-05-01T14:10:00.972Z</time></trkpt><trkpt lat="44.3631364" lon="11.6495578"><ele>83.0</ele><time>2026-05-01T14:10:02.974Z</time></trkpt><trkpt lat="44.3630638" lon="11.6494217"><ele>82.4</ele><time>2026-05-01T14:10:04.976Z</time></trkpt><trkpt lat="44.3630267" lon="11.6493481"><ele>81.80000000000001</ele><time>2026-05-01T14:10:05.973Z</time></trkpt><trkpt lat="44.3629533" lon="11.6492075"><ele>81.2</ele><time>2026-05-01T14:10:07.976Z</time></trkpt><trkpt lat="44.3628811" lon="11.6490741"><ele>80.6</ele><time>2026-05-01T14:10:09.972Z</time></trkpt><trkpt lat="44.3628102" lon="11.6489393"><ele>80.0</ele><time>2026-05-01T14:10:11.975Z</time></trkpt><trkpt lat="44.362739" lon="11.6488008"><ele>80.0</ele><time>2026-05-01T14:10:13.972Z</time></trkpt><trkpt lat="44.3626685" lon="11.6486566"><ele>80.0</ele><time>2026-05-01T14:10:15.97Z</time></trkpt><trkpt lat="44.3626331" lon="11.6485826"><ele>80.0</ele><time>2026-05-01T14:10:16.973Z</time></trkpt><trkpt lat="44.362564" lon="11.6484361"><ele>80.0</ele><time>2026-05-01T14:10:18.97Z</time></trkpt><trkpt lat="44.3625253" lon="11.6483662"><ele>80.0</ele><time>2026-05-01T14:10:19.969Z</time></trkpt><trkpt lat="44.3624835" lon="11.6482927"><ele>80.0</ele><time>2026-05-01T14:10:20.977Z</time></trkpt><trkpt lat="44.3624147" lon="11.6481431"><ele>80.5</ele><time>2026-05-01T14:10:22.972Z</time></trkpt><trkpt lat="44.3623761" lon="11.6480701"><ele>81.0</ele><time>2026-05-01T14:10:23.975Z</time></trkpt><trkpt lat="44.3623025" lon="11.6479304"><ele>81.5</ele><time>2026-05-01T14:10:25.965Z</time></trkpt><trkpt lat="44.3622304" lon="11.6477801"><ele>82.0</ele><time>2026-05-01T14:10:27.968Z</time></trkpt><trkpt lat="44.3621931" lon="11.6477041"><ele>82.5</ele><time>2026-05-01T14:10:28.976Z</time></trkpt><trkpt lat="44.3621585" lon="11.64763"><ele>83.0</ele><time>2026-05-01T14:10:29.97Z</time></trkpt><trkpt lat="44.3621242" lon="11.6475547"><ele>83.0</ele><time>2026-05-01T14:10:30.977Z</time></trkpt><trkpt lat="44.3620885" lon="11.647479"><ele>83.0</ele><time>2026-05-01T14:10:31.97Z</time></trkpt><trkpt lat="44.3620501" lon="11.6474074"><ele>83.0</ele><time>2026-05-01T14:10:32.975Z</time></trkpt><trkpt lat="44.3620123" lon="11.6473289"><ele>83.0</ele><time>2026-05-01T14:10:33.973Z</time></trkpt><trkpt lat="44.3619407" lon="11.6471828"><ele>83.0</ele><time>2026-05-01T14:10:35.972Z</time></trkpt><trkpt lat="44.3619054" lon="11.6471069"><ele>83.0</ele><time>2026-05-01T14:10:36.975Z</time></trkpt><trkpt lat="44.3618675" lon="11.6470328"><ele>83.0</ele><time>2026-05-01T14:10:37.973Z</time></trkpt><trkpt lat="44.3618307" lon="11.6469611"><ele>83.0</ele><time>2026-05-01T14:10:38.972Z</time></trkpt><trkpt lat="44.3617969" lon="11.6468852"><ele>83.0</ele><time>2026-05-01T14:10:39.97Z</time></trkpt><trkpt lat="44.3617222" lon="11.6467513"><ele>83.0</ele><time>2026-05-01T14:10:41.972Z</time></trkpt><trkpt lat="44.3616518" lon="11.6466327"><ele>83.0</ele><time>2026-05-01T14:10:43.97Z</time></trkpt><trkpt lat="44.3615882" lon="11.6465149"><ele>83.2</ele><time>2026-05-01T14:10:45.972Z</time></trkpt><trkpt lat="44.3615264" lon="11.6463901"><ele>83.4</ele><time>2026-05-01T14:10:47.967Z</time></trkpt><trkpt lat="44.361461" lon="11.6462588"><ele>83.60000000000001</ele><time>2026-05-01T14:10:49.974Z</time></trkpt><trkpt lat="44.3613973" lon="11.6461355"><ele>83.80000000000001</ele><time>2026-05-01T14:10:51.974Z</time></trkpt><trkpt lat="44.361327" lon="11.646011"><ele>84.0</ele><time>2026-05-01T14:10:53.978Z</time></trkpt><trkpt lat="44.3612556" lon="11.6458855"><ele>84.0</ele><time>2026-05-01T14:10:55.975Z</time></trkpt><trkpt lat="44.3611846" lon="11.6457475"><ele>84.0</ele><time>2026-05-01T14:10:57.974Z</time></trkpt><trkpt lat="44.3611112" lon="11.6456145"><ele>84.0</ele><time>2026-05-01T14:10:59.97Z</time></trkpt><trkpt lat="44.3610431" lon="11.6454704"><ele>84.0</ele><time>2026-05-01T14:11:01.976Z</time></trkpt><trkpt lat="44.360967" lon="11.6453416"><ele>84.2</ele><time>2026-05-01T14:11:03.974Z</time></trkpt><trkpt lat="44.360897" lon="11.6452144"><ele>84.4</ele><time>2026-05-01T14:11:05.972Z</time></trkpt><trkpt lat="44.3608336" lon="11.6450869"><ele>84.6</ele><time>2026-05-01T14:11:07.972Z</time></trkpt><trkpt lat="44.3607702" lon="11.6449598"><ele>84.8</ele><time>2026-05-01T14:11:09.975Z</time></trkpt><trkpt lat="44.3607026" lon="11.6448358"><ele>85.0</ele><time>2026-05-01T14:11:11.972Z</time></trkpt><trkpt lat="44.3606305" lon="11.6447265"><ele>85.0</ele><time>2026-05-01T14:11:13.97Z</time></trkpt><trkpt lat="44.3605765" lon="11.6446163"><ele>85.0</ele><time>2026-05-01T14:11:15.974Z</time></trkpt><trkpt lat="44.360521" lon="11.6445125"><ele>85.0</ele><time>2026-05-01T14:11:17.973Z</time></trkpt><trkpt lat="44.3604406" lon="11.6444869"><ele>85.0</ele><time>2026-05-01T14:11:19.978Z</time></trkpt><trkpt lat="44.3603514" lon="11.6445838"><ele>85.0</ele><time>2026-05-01T14:11:21.98Z</time></trkpt><trkpt lat="44.3603081" lon="11.6446539"><ele>84.66666666666666</ele><time>2026-05-01T14:11:22.973Z</time></trkpt><trkpt lat="44.3602652" lon="11.6447223"><ele>84.33333333333333</ele><time>2026-05-01T14:11:23.977Z</time></trkpt><trkpt lat="44.3602187" lon="11.6447964"><ele>84.0</ele><time>2026-05-01T14:11:24.959Z</time></trkpt><trkpt lat="44.3601688" lon="11.6448666"><ele>83.66666666666667</ele><time>2026-05-01T14:11:25.968Z</time></trkpt><trkpt lat="44.3601194" lon="11.64493"><ele>83.33333333333334</ele><time>2026-05-01T14:11:26.97Z</time></trkpt><trkpt lat="44.3600754" lon="11.645002"><ele>83.0</ele><time>2026-05-01T14:11:27.971Z</time></trkpt><trkpt lat="44.36" lon="11.6451365"><ele>83.0</ele><time>2026-05-01T14:11:29.969Z</time></trkpt><trkpt lat="44.3599206" lon="11.6452513"><ele>83.0</ele><time>2026-05-01T14:11:31.97Z</time></trkpt><trkpt lat="44.3598508" lon="11.6453577"><ele>83.0</ele><time>2026-05-01T14:11:33.977Z</time></trkpt><trkpt lat="44.3597841" lon="11.6454569"><ele>83.0</ele><time>2026-05-01T14:11:35.975Z</time></trkpt><trkpt lat="44.3597277" lon="11.6455599"><ele>83.0</ele><time>2026-05-01T14:11:37.971Z</time></trkpt><trkpt lat="44.3596667" lon="11.6456634"><ele>84.16666666666667</ele><time>2026-05-01T14:11:39.977Z</time></trkpt><trkpt lat="44.3596034" lon="11.6457611"><ele>85.33333333333334</ele><time>2026-05-01T14:11:41.976Z</time></trkpt><trkpt lat="44.3595358" lon="11.6458533"><ele>86.5</ele><time>2026-05-01T14:11:43.975Z</time></trkpt><trkpt lat="44.3594779" lon="11.6459345"><ele>87.66666666666667</ele><time>2026-05-01T14:11:45.974Z</time></trkpt><trkpt lat="44.3594298" lon="11.6460054"><ele>88.83333333333333</ele><time>2026-05-01T14:11:47.971Z</time></trkpt><trkpt lat="44.3593717" lon="11.6460921"><ele>90.0</ele><time>2026-05-01T14:11:50.972Z</time></trkpt><trkpt lat="44.3593232" lon="11.6461696"><ele>90.16666666666667</ele><time>2026-05-01T14:11:53.973Z</time></trkpt><trkpt lat="44.3592779" lon="11.6462592"><ele>90.33333333333333</ele><time>2026-05-01T14:11:56.964Z</time></trkpt><trkpt lat="44.3592429" lon="11.6463475"><ele>90.5</ele><time>2026-05-01T14:11:59.977Z</time></trkpt><trkpt lat="44.3592064" lon="11.6464502"><ele>90.66666666666666</ele><time>2026-05-01T14:12:02.973Z</time></trkpt><trkpt lat="44.3591818" lon="11.6465586"><ele>90.83333333333333</ele><time>2026-05-01T14:12:05.966Z</time></trkpt><trkpt lat="44.3591585" lon="11.6466648"><ele>91.0</ele><time>2026-05-01T14:12:08.973Z</time></trkpt><trkpt lat="44.3591445" lon="11.6467745"><ele>91.0</ele><time>2026-05-01T14:12:11.97Z</time></trkpt><trkpt lat="44.3591285" lon="11.6468852"><ele>91.0</ele><time>2026-05-01T14:12:14.974Z</time></trkpt><trkpt lat="44.3591167" lon="11.6469951"><ele>91.0</ele><time>2026-05-01T14:12:17.97Z</time></trkpt><trkpt lat="44.3591159" lon="11.6471083"><ele>91.0</ele><time>2026-05-01T14:12:20.974Z</time></trkpt><trkpt lat="44.3590989" lon="11.6472183"><ele>91.0</ele><time>2026-05-01T14:12:23.982Z</time></trkpt><trkpt lat="44.3590598" lon="11.6473316"><ele>91.0</ele><time>2026-05-01T14:12:26.974Z</time></trkpt><trkpt lat="44.3590203" lon="11.6474387"><ele>90.83333333333333</ele><time>2026-05-01T14:12:29.973Z</time></trkpt><trkpt lat="44.3589727" lon="11.6475447"><ele>90.66666666666666</ele><time>2026-05-01T14:12:32.978Z</time></trkpt><trkpt lat="44.3589639" lon="11.6476597"><ele>90.5</ele><time>2026-05-01T14:12:35.973Z</time></trkpt><trkpt lat="44.3589741" lon="11.6477904"><ele>90.33333333333333</ele><time>2026-05-01T14:12:38.972Z</time></trkpt><trkpt lat="44.3590145" lon="11.6479006"><ele>90.16666666666667</ele><time>2026-05-01T14:12:41.964Z</time></trkpt><trkpt lat="44.3590598" lon="11.6479963"><ele>90.0</ele><time>2026-05-01T14:12:44.968Z</time></trkpt><trkpt lat="44.3591056" lon="11.6480946"><ele>90.66666666666667</ele><time>2026-05-01T14:12:47.98Z</time></trkpt><trkpt lat="44.3591584" lon="11.6481884"><ele>91.33333333333333</ele><time>2026-05-01T14:12:50.971Z</time></trkpt><trkpt lat="44.3592088" lon="11.6482845"><ele>92.0</ele><time>2026-05-01T14:12:53.972Z</time></trkpt><trkpt lat="44.3592548" lon="11.6483799"><ele>92.66666666666666</ele><time>2026-05-01T14:12:56.974Z</time></trkpt><trkpt lat="44.3592951" lon="11.6484711"><ele>93.33333333333333</ele><time>2026-05-01T14:12:59.974Z</time></trkpt><trkpt lat="44.359337" lon="11.6485501"><ele>94.0</ele><time>2026-05-01T14:13:02.972Z</time></trkpt><trkpt lat="44.3593853" lon="11.6486446"><ele>95.14285714285714</ele><time>2026-05-01T14:13:06.968Z</time></trkpt><trkpt lat="44.3594132" lon="11.6487413"><ele>96.28571428571428</ele><time>2026-05-01T14:13:10.972Z</time></trkpt><trkpt lat="44.3594382" lon="11.6488402"><ele>97.42857142857143</ele><time>2026-05-01T14:13:14.97Z</time></trkpt><trkpt lat="44.3594664" lon="11.6489311"><ele>98.57142857142857</ele><time>2026-05-01T14:13:18.969Z</time></trkpt><trkpt lat="44.359469" lon="11.6490373"><ele>99.71428571428572</ele><time>2026-05-01T14:13:22.969Z</time></trkpt><trkpt lat="44.3594724" lon="11.6491409"><ele>100.85714285714286</ele><time>2026-05-01T14:13:26.978Z</time></trkpt><trkpt lat="44.3594633" lon="11.6492342"><ele>102.0</ele><time>2026-05-01T14:13:30.978Z</time></trkpt><trkpt lat="44.3594695" lon="11.6493342"><ele>102.0</ele><time>2026-05-01T14:13:34.972Z</time></trkpt><trkpt lat="44.3594884" lon="11.6494318"><ele>102.0</ele><time>2026-05-01T14:13:41.975Z</time></trkpt><trkpt lat="44.3594698" lon="11.6495333"><ele>102.0</ele><time>2026-05-01T14:13:48.966Z</time></trkpt><trkpt lat="44.3594704" lon="11.6496241"><ele>102.0</ele><time>2026-05-01T14:13:55.98Z</time></trkpt><trkpt lat="44.359444" lon="11.6497135"><ele>102.0</ele><time>2026-05-01T14:14:00.978Z</time></trkpt><trkpt lat="44.3594161" lon="11.6498155"><ele>102.0</ele><time>2026-05-01T14:14:04.973Z</time></trkpt><trkpt lat="44.3594078" lon="11.6499042"><ele>102.0</ele><time>2026-05-01T14:14:08.987Z</time></trkpt><trkpt lat="44.3593963" lon="11.6500033"><ele>103.71428571428572</ele><time>2026-05-01T14:14:12.977Z</time></trkpt><trkpt lat="44.3593763" lon="11.650095"><ele>105.42857142857143</ele><time>2026-05-01T14:14:16.978Z</time></trkpt><trkpt lat="44.3593558" lon="11.6501823"><ele>107.14285714285714</ele><time>2026-05-01T14:14:20.987Z</time></trkpt><trkpt lat="44.3593323" lon="11.6502812"><ele>108.85714285714286</ele><time>2026-05-01T14:14:24.976Z</time></trkpt><trkpt lat="44.3593142" lon="11.6503857"><ele>110.57142857142856</ele><time>2026-05-01T14:14:28.979Z</time></trkpt><trkpt lat="44.359297" lon="11.6504885"><ele>112.28571428571428</ele><time>2026-05-01T14:14:32.985Z</time></trkpt><trkpt lat="44.3592938" lon="11.6505929"><ele>114.0</ele><time>2026-05-01T14:14:36.984Z</time></trkpt><trkpt lat="44.3592918" lon="11.6507071"><ele>113.85714285714285</ele><time>2026-05-01T14:14:40.983Z</time></trkpt><trkpt lat="44.3592718" lon="11.6508022"><ele>113.7142857142857</ele><time>2026-05-01T14:14:44.981Z</time></trkpt><trkpt lat="44.3592603" lon="11.6509005"><ele>113.57142857142857</ele><time>2026-05-01T14:14:48.982Z</time></trkpt><trkpt lat="44.3592428" lon="11.6510001"><ele>113.42857142857142</ele><time>2026-05-01T14:14:52.97Z</time></trkpt><trkpt lat="44.3592395" lon="11.6510985"><ele>113.28571428571428</ele><time>2026-05-01T14:14:56.962Z</time></trkpt><trkpt lat="44.3592298" lon="11.6511983"><ele>113.14285714285714</ele><time>2026-05-01T14:15:02.98Z</time></trkpt><trkpt lat="44.3591833" lon="11.6512737"><ele>113.0</ele><time>2026-05-01T14:15:08.987Z</time></trkpt><trkpt lat="44.3591532" lon="11.6511795"><ele>113.0</ele><time>2026-05-01T14:15:13.974Z</time></trkpt><trkpt lat="44.3590836" lon="11.6511803"><ele>113.0</ele><time>2026-05-01T14:20:21.99Z</time></trkpt><trkpt lat="44.3591378" lon="11.6512399"><ele>113.0</ele><time>2026-05-01T14:21:16.987Z</time></trkpt><trkpt lat="44.3591528" lon="11.6513334"><ele>113.0</ele><time>2026-05-01T14:21:22.964Z</time></trkpt><trkpt lat="44.3591194" lon="11.6514243"><ele>113.0</ele><time>2026-05-01T14:21:25.973Z</time></trkpt><trkpt lat="44.3590748" lon="11.651529"><ele>113.0</ele><time>2026-05-01T14:21:29.988Z</time></trkpt><trkpt lat="44.3590315" lon="11.6516049"><ele>113.0</ele><time>2026-05-01T14:21:31.967Z</time></trkpt><trkpt lat="44.3589805" lon="11.6516973"><ele>112.99999999999999</ele><time>2026-05-01T14:21:33.978Z</time></trkpt><trkpt lat="44.3589281" lon="11.6518033"><ele>113.0</ele><time>2026-05-01T14:21:35.971Z</time></trkpt><trkpt lat="44.3588556" lon="11.6519356"><ele>113.0</ele><time>2026-05-01T14:21:37.975Z</time></trkpt><trkpt lat="44.3588166" lon="11.6520152"><ele>113.0</ele><time>2026-05-01T14:21:38.981Z</time></trkpt><trkpt lat="44.3587804" lon="11.6520993"><ele>112.99999999999999</ele><time>2026-05-01T14:21:39.978Z</time></trkpt><trkpt lat="44.3587522" lon="11.6521921"><ele>113.0</ele><time>2026-05-01T14:21:40.979Z</time></trkpt><trkpt lat="44.3587336" lon="11.6522812"><ele>113.66666666666666</ele><time>2026-05-01T14:21:41.973Z</time></trkpt><trkpt lat="44.3587346" lon="11.6523702"><ele>114.33333333333333</ele><time>2026-05-01T14:21:42.979Z</time></trkpt><trkpt lat="44.3587586" lon="11.6524633"><ele>115.0</ele><time>2026-05-01T14:21:43.976Z</time></trkpt><trkpt lat="44.3587931" lon="11.6525433"><ele>115.66666666666666</ele><time>2026-05-01T14:21:44.984Z</time></trkpt><trkpt lat="44.358847" lon="11.6526909"><ele>116.33333333333333</ele><time>2026-05-01T14:21:46.969Z</time></trkpt><trkpt lat="44.3588874" lon="11.6528187"><ele>117.0</ele><time>2026-05-01T14:21:48.974Z</time></trkpt><trkpt lat="44.3589114" lon="11.6529329"><ele>117.0</ele><time>2026-05-01T14:21:50.971Z</time></trkpt><trkpt lat="44.3589317" lon="11.6530249"><ele>117.00000000000001</ele><time>2026-05-01T14:21:52.981Z</time></trkpt><trkpt lat="44.3589537" lon="11.6531309"><ele>117.0</ele><time>2026-05-01T14:21:55.979Z</time></trkpt><trkpt lat="44.3589675" lon="11.6532237"><ele>117.0</ele><time>2026-05-01T14:21:58.979Z</time></trkpt><trkpt lat="44.3589866" lon="11.653328"><ele>117.00000000000001</ele><time>2026-05-01T14:22:01.978Z</time></trkpt><trkpt lat="44.3590042" lon="11.6534489"><ele>117.0</ele><time>2026-05-01T14:22:04.973Z</time></trkpt><trkpt lat="44.3590184" lon="11.6535353"><ele>117.0</ele><time>2026-05-01T14:22:06.968Z</time></trkpt><trkpt lat="44.3590399" lon="11.653642"><ele>117.19999999999999</ele><time>2026-05-01T14:22:08.985Z</time></trkpt><trkpt lat="44.3590611" lon="11.6537694"><ele>117.39999999999999</ele><time>2026-05-01T14:22:10.974Z</time></trkpt><trkpt lat="44.3590789" lon="11.6539014"><ele>117.60000000000001</ele><time>2026-05-01T14:22:12.976Z</time></trkpt><trkpt lat="44.3590932" lon="11.654033"><ele>117.80000000000001</ele><time>2026-05-01T14:22:14.976Z</time></trkpt><trkpt lat="44.3590999" lon="11.6541551"><ele>118.0</ele><time>2026-05-01T14:22:16.978Z</time></trkpt><trkpt lat="44.3591048" lon="11.6542791"><ele>118.00000000000001</ele><time>2026-05-01T14:22:18.978Z</time></trkpt><trkpt lat="44.3591108" lon="11.6543929"><ele>118.0</ele><time>2026-05-01T14:22:20.977Z</time></trkpt><trkpt lat="44.3591055" lon="11.6545124"><ele>118.0</ele><time>2026-05-01T14:22:22.963Z</time></trkpt><trkpt lat="44.3590955" lon="11.6546233"><ele>118.0</ele><time>2026-05-01T14:22:24.971Z</time></trkpt><trkpt lat="44.3590898" lon="11.6547337"><ele>118.00000000000001</ele><time>2026-05-01T14:22:26.963Z</time></trkpt><trkpt lat="44.3590874" lon="11.6548431"><ele>118.0</ele><time>2026-05-01T14:22:28.963Z</time></trkpt><trkpt lat="44.3590763" lon="11.6549495"><ele>117.66666666666667</ele><time>2026-05-01T14:22:30.965Z</time></trkpt><trkpt lat="44.3590655" lon="11.6550561"><ele>117.33333333333334</ele><time>2026-05-01T14:22:32.971Z</time></trkpt><trkpt lat="44.3590617" lon="11.6551716"><ele>117.0</ele><time>2026-05-01T14:22:34.968Z</time></trkpt><trkpt lat="44.3590551" lon="11.6552916"><ele>116.66666666666666</ele><time>2026-05-01T14:22:36.964Z</time></trkpt><trkpt lat="44.3590392" lon="11.6554077"><ele>116.33333333333333</ele><time>2026-05-01T14:22:38.973Z</time></trkpt><trkpt lat="44.3590285" lon="11.6555274"><ele>116.0</ele><time>2026-05-01T14:22:40.977Z</time></trkpt><trkpt lat="44.3590101" lon="11.6556463"><ele>115.99999999999999</ele><time>2026-05-01T14:22:42.964Z</time></trkpt><trkpt lat="44.3589909" lon="11.6557592"><ele>116.0</ele><time>2026-05-01T14:22:44.97Z</time></trkpt><trkpt lat="44.3589802" lon="11.655869"><ele>116.0</ele><time>2026-05-01T14:22:46.965Z</time></trkpt><trkpt lat="44.3589744" lon="11.6559735"><ele>116.0</ele><time>2026-05-01T14:22:48.977Z</time></trkpt><trkpt lat="44.3589654" lon="11.6560858"><ele>115.99999999999999</ele><time>2026-05-01T14:22:50.965Z</time></trkpt><trkpt lat="44.3589682" lon="11.6561855"><ele>116.0</ele><time>2026-05-01T14:22:52.971Z</time></trkpt><trkpt lat="44.3589153" lon="11.6562751"><ele>117.42857142857144</ele><time>2026-05-01T14:22:55.968Z</time></trkpt><trkpt lat="44.3588497" lon="11.6562317"><ele>118.85714285714286</ele><time>2026-05-01T14:22:59.98Z</time></trkpt><trkpt lat="44.3587883" lon="11.6561869"><ele>120.28571428571429</ele><time>2026-05-01T14:23:03.962Z</time></trkpt><trkpt lat="44.3587423" lon="11.6561245"><ele>121.71428571428572</ele><time>2026-05-01T14:23:06.976Z</time></trkpt><trkpt lat="44.358679" lon="11.6560854"><ele>123.14285714285714</ele><time>2026-05-01T14:23:09.978Z</time></trkpt><trkpt lat="44.3586291" lon="11.6560228"><ele>124.57142857142857</ele><time>2026-05-01T14:23:13.962Z</time></trkpt><trkpt lat="44.3585733" lon="11.6559585"><ele>126.0</ele><time>2026-05-01T14:23:17.973Z</time></trkpt><trkpt lat="44.3585172" lon="11.6558821"><ele>126.14285714285714</ele><time>2026-05-01T14:23:21.977Z</time></trkpt><trkpt lat="44.3584666" lon="11.6557985"><ele>126.28571428571428</ele><time>2026-05-01T14:23:26.981Z</time></trkpt><trkpt lat="44.3584255" lon="11.6557208"><ele>126.42857142857143</ele><time>2026-05-01T14:23:30.978Z</time></trkpt><trkpt lat="44.3583829" lon="11.6556512"><ele>126.57142857142857</ele><time>2026-05-01T14:23:34.969Z</time></trkpt><trkpt lat="44.3583309" lon="11.655586"><ele>126.71428571428571</ele><time>2026-05-01T14:23:38.97Z</time></trkpt><trkpt lat="44.3582733" lon="11.6555156"><ele>126.85714285714286</ele><time>2026-05-01T14:23:43.996Z</time></trkpt><trkpt lat="44.3582319" lon="11.6554417"><ele>127.0</ele><time>2026-05-01T14:23:48Z</time></trkpt><trkpt lat="44.3581827" lon="11.6553761"><ele>127.0</ele><time>2026-05-01T14:23:51.98Z</time></trkpt><trkpt lat="44.3581423" lon="11.6553013"><ele>127.0</ele><time>2026-05-01T14:23:55.978Z</time></trkpt><trkpt lat="44.3581089" lon="11.6552156"><ele>127.0</ele><time>2026-05-01T14:24:00.983Z</time></trkpt><trkpt lat="44.3580515" lon="11.6551595"><ele>127.0</ele><time>2026-05-01T14:24:05.988Z</time></trkpt><trkpt lat="44.3580299" lon="11.6550764"><ele>127.0</ele><time>2026-05-01T14:24:09.983Z</time></trkpt><trkpt lat="44.3579958" lon="11.6549823"><ele>127.0</ele><time>2026-05-01T14:24:13.981Z</time></trkpt><trkpt lat="44.3579492" lon="11.6549173"><ele>127.0</ele><time>2026-05-01T14:24:17.977Z</time></trkpt><trkpt lat="44.3579021" lon="11.6548264"><ele>127.57142857142858</ele><time>2026-05-01T14:24:22.983Z</time></trkpt><trkpt lat="44.3578574" lon="11.6547456"><ele>128.14285714285714</ele><time>2026-05-01T14:24:27.961Z</time></trkpt><trkpt lat="44.3577949" lon="11.6546791"><ele>128.71428571428572</ele><time>2026-05-01T14:24:32.986Z</time></trkpt><trkpt lat="44.3577521" lon="11.6546052"><ele>129.28571428571428</ele><time>2026-05-01T14:24:37.977Z</time></trkpt><trkpt lat="44.3577187" lon="11.6545256"><ele>129.85714285714286</ele><time>2026-05-01T14:24:41.974Z</time></trkpt><trkpt lat="44.3576723" lon="11.6544575"><ele>130.42857142857144</ele><time>2026-05-01T14:24:45.99Z</time></trkpt><trkpt lat="44.3576335" lon="11.6543584"><ele>131.0</ele><time>2026-05-01T14:24:49.993Z</time></trkpt><trkpt lat="44.3575967" lon="11.6542606"><ele>132.0</ele><time>2026-05-01T14:24:53.98Z</time></trkpt><trkpt lat="44.3575615" lon="11.6541647"><ele>133.0</ele><time>2026-05-01T14:24:57.98Z</time></trkpt><trkpt lat="44.3575253" lon="11.6540734"><ele>134.0</ele><time>2026-05-01T14:25:02.969Z</time></trkpt><trkpt lat="44.3574817" lon="11.6540058"><ele>135.0</ele><time>2026-05-01T14:25:06.997Z</time></trkpt><trkpt lat="44.3574259" lon="11.6539266"><ele>136.0</ele><time>2026-05-01T14:25:11.993Z</time></trkpt><trkpt lat="44.3573896" lon="11.6538405"><ele>137.0</ele><time>2026-05-01T14:25:17.981Z</time></trkpt><trkpt lat="44.3573551" lon="11.6537537"><ele>138.0</ele><time>2026-05-01T14:25:22.985Z</time></trkpt><trkpt lat="44.3573115" lon="11.6536742"><ele>138.14285714285714</ele><time>2026-05-01T14:25:27.979Z</time></trkpt><trkpt lat="44.3572848" lon="11.6535771"><ele>138.2857142857143</ele><time>2026-05-01T14:25:32.988Z</time></trkpt><trkpt lat="44.3572358" lon="11.6535126"><ele>138.42857142857144</ele><time>2026-05-01T14:25:36.972Z</time></trkpt><trkpt lat="44.3571937" lon="11.6534378"><ele>138.57142857142858</ele><time>2026-05-01T14:25:41.969Z</time></trkpt><trkpt lat="44.3571423" lon="11.6533681"><ele>138.71428571428572</ele><time>2026-05-01T14:25:46.969Z</time></trkpt><trkpt lat="44.3570895" lon="11.6533058"><ele>138.85714285714286</ele><time>2026-05-01T14:25:51.979Z</time></trkpt><trkpt lat="44.3570419" lon="11.653241"><ele>139.0</ele><time>2026-05-01T14:25:56.963Z</time></trkpt><trkpt lat="44.3569903" lon="11.6531763"><ele>139.85714285714286</ele><time>2026-05-01T14:26:01.969Z</time></trkpt><trkpt lat="44.3569298" lon="11.6531391"><ele>140.71428571428572</ele><time>2026-05-01T14:26:06.978Z</time></trkpt><trkpt lat="44.3568675" lon="11.6530825"><ele>141.57142857142858</ele><time>2026-05-01T14:26:12.983Z</time></trkpt><trkpt lat="44.3568091" lon="11.6530277"><ele>142.42857142857144</ele><time>2026-05-01T14:26:17.998Z</time></trkpt><trkpt lat="44.3567518" lon="11.6529514"><ele>143.2857142857143</ele><time>2026-05-01T14:26:23.045Z</time></trkpt><trkpt lat="44.3566968" lon="11.652899"><ele>144.14285714285714</ele><time>2026-05-01T14:26:26.976Z</time></trkpt><trkpt lat="44.3566392" lon="11.6528372"><ele>145.0</ele><time>2026-05-01T14:26:30.965Z</time></trkpt><trkpt lat="44.3565872" lon="11.6527732"><ele>145.57142857142858</ele><time>2026-05-01T14:26:34.971Z</time></trkpt><trkpt lat="44.3565429" lon="11.6526871"><ele>146.14285714285717</ele><time>2026-05-01T14:26:38.971Z</time></trkpt><trkpt lat="44.3565017" lon="11.6526127"><ele>146.71428571428572</ele><time>2026-05-01T14:26:42.981Z</time></trkpt><trkpt lat="44.356459" lon="11.6525442"><ele>147.28571428571428</ele><time>2026-05-01T14:26:46.978Z</time></trkpt><trkpt lat="44.3564272" lon="11.6524469"><ele>147.85714285714283</ele><time>2026-05-01T14:26:50.971Z</time></trkpt><trkpt lat="44.3563858" lon="11.6523657"><ele>148.42857142857142</ele><time>2026-05-01T14:26:54.977Z</time></trkpt><trkpt lat="44.3563451" lon="11.6522921"><ele>149.0</ele><time>2026-05-01T14:26:58.983Z</time></trkpt><trkpt lat="44.3562937" lon="11.6522141"><ele>149.71428571428572</ele><time>2026-05-01T14:27:02.981Z</time></trkpt><trkpt lat="44.356247" lon="11.652153"><ele>150.42857142857142</ele><time>2026-05-01T14:27:06.963Z</time></trkpt><trkpt lat="44.3561907" lon="11.6520771"><ele>151.14285714285714</ele><time>2026-05-01T14:27:11.988Z</time></trkpt><trkpt lat="44.3561327" lon="11.6520139"><ele>151.85714285714286</ele><time>2026-05-01T14:27:16.973Z</time></trkpt><trkpt lat="44.35608" lon="11.6519537"><ele>152.57142857142856</ele><time>2026-05-01T14:27:20.98Z</time></trkpt><trkpt lat="44.3560283" lon="11.651889"><ele>153.28571428571428</ele><time>2026-05-01T14:27:24.952Z</time></trkpt><trkpt lat="44.355974" lon="11.651837"><ele>154.0</ele><time>2026-05-01T14:27:29.973Z</time></trkpt><trkpt lat="44.3559227" lon="11.6517611"><ele>154.71428571428572</ele><time>2026-05-01T14:27:34.974Z</time></trkpt><trkpt lat="44.3558624" lon="11.6516982"><ele>155.42857142857144</ele><time>2026-05-01T14:27:39.973Z</time></trkpt><trkpt lat="44.3558189" lon="11.6516329"><ele>156.14285714285714</ele><time>2026-05-01T14:27:43.974Z</time></trkpt><trkpt lat="44.3557671" lon="11.6515569"><ele>156.85714285714286</ele><time>2026-05-01T14:27:48.976Z</time></trkpt><trkpt lat="44.3557199" lon="11.6514913"><ele>157.57142857142858</ele><time>2026-05-01T14:27:52.97Z</time></trkpt><trkpt lat="44.3556824" lon="11.6514171"><ele>158.28571428571428</ele><time>2026-05-01T14:27:56.963Z</time></trkpt><trkpt lat="44.3556508" lon="11.651336"><ele>159.0</ele><time>2026-05-01T14:28:00.966Z</time></trkpt><trkpt lat="44.3556178" lon="11.6512549"><ele>159.0</ele><time>2026-05-01T14:28:04.963Z</time></trkpt><trkpt lat="44.3555949" lon="11.6511719"><ele>159.0</ele><time>2026-05-01T14:28:08.963Z</time></trkpt><trkpt lat="44.3555661" lon="11.6510923"><ele>159.0</ele><time>2026-05-01T14:28:12.963Z</time></trkpt><trkpt lat="44.3555465" lon="11.6510049"><ele>159.0</ele><time>2026-05-01T14:28:16.958Z</time></trkpt><trkpt lat="44.3555281" lon="11.6509033"><ele>159.0</ele><time>2026-05-01T14:28:20.964Z</time></trkpt><trkpt lat="44.3555074" lon="11.6508189"><ele>159.0</ele><time>2026-05-01T14:28:24.965Z</time></trkpt><trkpt lat="44.3554808" lon="11.6507273"><ele>159.0</ele><time>2026-05-01T14:28:28.957Z</time></trkpt><trkpt lat="44.3554346" lon="11.6506654"><ele>159.85714285714286</ele><time>2026-05-01T14:28:32.959Z</time></trkpt><trkpt lat="44.3553774" lon="11.6507258"><ele>160.71428571428572</ele><time>2026-05-01T14:28:36.973Z</time></trkpt><trkpt lat="44.3553199" lon="11.650781"><ele>161.57142857142858</ele><time>2026-05-01T14:28:40.957Z</time></trkpt><trkpt lat="44.355266" lon="11.6508442"><ele>162.42857142857144</ele><time>2026-05-01T14:28:43.956Z</time></trkpt><trkpt lat="44.3552118" lon="11.6509056"><ele>163.28571428571428</ele><time>2026-05-01T14:28:47.964Z</time></trkpt><trkpt lat="44.3551573" lon="11.6509674"><ele>164.14285714285717</ele><time>2026-05-01T14:28:51.955Z</time></trkpt><trkpt lat="44.3551126" lon="11.6510365"><ele>165.0</ele><time>2026-05-01T14:28:55.952Z</time></trkpt><trkpt lat="44.3550758" lon="11.6511266"><ele>165.0</ele><time>2026-05-01T14:28:59.966Z</time></trkpt><trkpt lat="44.3550398" lon="11.6512278"><ele>165.0</ele><time>2026-05-01T14:29:03.964Z</time></trkpt><trkpt lat="44.3550115" lon="11.6513098"><ele>165.0</ele><time>2026-05-01T14:29:06.961Z</time></trkpt><trkpt lat="44.3549766" lon="11.6513929"><ele>165.0</ele><time>2026-05-01T14:29:09.964Z</time></trkpt><trkpt lat="44.3549387" lon="11.6514957"><ele>165.0</ele><time>2026-05-01T14:29:12.962Z</time></trkpt><trkpt lat="44.3549068" lon="11.6516052"><ele>165.0</ele><time>2026-05-01T14:29:15.969Z</time></trkpt><trkpt lat="44.3548703" lon="11.6517134"><ele>165.0</ele><time>2026-05-01T14:29:18.966Z</time></trkpt><trkpt lat="44.3548363" lon="11.6517881"><ele>165.0</ele><time>2026-05-01T14:29:20.973Z</time></trkpt><trkpt lat="44.3548134" lon="11.6518768"><ele>165.0</ele><time>2026-05-01T14:29:22.964Z</time></trkpt><trkpt lat="44.3547896" lon="11.6519886"><ele>165.0</ele><time>2026-05-01T14:29:24.965Z</time></trkpt><trkpt lat="44.3547535" lon="11.6520859"><ele>165.0</ele><time>2026-05-01T14:29:26.962Z</time></trkpt><trkpt lat="44.3547268" lon="11.6522044"><ele>165.0</ele><time>2026-05-01T14:29:28.963Z</time></trkpt><trkpt lat="44.3547071" lon="11.6523195"><ele>164.83333333333334</ele><time>2026-05-01T14:29:30.964Z</time></trkpt><trkpt lat="44.354687" lon="11.6524326"><ele>164.66666666666666</ele><time>2026-05-01T14:29:32.969Z</time></trkpt><trkpt lat="44.354673" lon="11.6525627"><ele>164.5</ele><time>2026-05-01T14:29:34.971Z</time></trkpt><trkpt lat="44.3546551" lon="11.6526852"><ele>164.33333333333331</ele><time>2026-05-01T14:29:36.963Z</time></trkpt><trkpt lat="44.354651" lon="11.6527978"><ele>164.16666666666666</ele><time>2026-05-01T14:29:38.964Z</time></trkpt><trkpt lat="44.3546475" lon="11.6529381"><ele>164.0</ele><time>2026-05-01T14:29:40.963Z</time></trkpt><trkpt lat="44.3546426" lon="11.6530823"><ele>164.0</ele><time>2026-05-01T14:29:42.961Z</time></trkpt><trkpt lat="44.3546252" lon="11.6532402"><ele>164.0</ele><time>2026-05-01T14:29:44.961Z</time></trkpt><trkpt lat="44.3546148" lon="11.6534069"><ele>164.0</ele><time>2026-05-01T14:29:47.037Z</time></trkpt><trkpt lat="44.3546031" lon="11.6535792"><ele>164.0</ele><time>2026-05-01T14:29:48.973Z</time></trkpt><trkpt lat="44.3545916" lon="11.6537546"><ele>163.66666666666666</ele><time>2026-05-01T14:29:50.971Z</time></trkpt><trkpt lat="44.35458" lon="11.6539262"><ele>163.33333333333331</ele><time>2026-05-01T14:29:52.972Z</time></trkpt><trkpt lat="44.3545743" lon="11.6540168"><ele>163.0</ele><time>2026-05-01T14:29:53.97Z</time></trkpt><trkpt lat="44.3545661" lon="11.6541057"><ele>162.66666666666666</ele><time>2026-05-01T14:29:54.975Z</time></trkpt><trkpt lat="44.3545564" lon="11.6541978"><ele>162.33333333333334</ele><time>2026-05-01T14:29:55.971Z</time></trkpt><trkpt lat="44.3545447" lon="11.65429"><ele>162.0</ele><time>2026-05-01T14:29:56.968Z</time></trkpt><trkpt lat="44.3545281" lon="11.6543811"><ele>161.66666666666666</ele><time>2026-05-01T14:29:57.967Z</time></trkpt><trkpt lat="44.3544989" lon="11.6545602"><ele>161.33333333333334</ele><time>2026-05-01T14:29:59.958Z</time></trkpt><trkpt lat="44.3544897" lon="11.654657"><ele>161.0</ele><time>2026-05-01T14:30:00.956Z</time></trkpt><trkpt lat="44.3544762" lon="11.6547529"><ele>160.66666666666669</ele><time>2026-05-01T14:30:01.956Z</time></trkpt><trkpt lat="44.3544544" lon="11.6548505"><ele>160.33333333333334</ele><time>2026-05-01T14:30:02.964Z</time></trkpt><trkpt lat="44.3544329" lon="11.6549506"><ele>160.0</ele><time>2026-05-01T14:30:03.962Z</time></trkpt><trkpt lat="44.3544137" lon="11.655042"><ele>160.0</ele><time>2026-05-01T14:30:04.963Z</time></trkpt><trkpt lat="44.3543957" lon="11.6551367"><ele>160.0</ele><time>2026-05-01T14:30:05.965Z</time></trkpt><trkpt lat="44.3543768" lon="11.6552286"><ele>160.0</ele><time>2026-05-01T14:30:07.043Z</time></trkpt><trkpt lat="44.3543524" lon="11.6553219"><ele>160.0</ele><time>2026-05-01T14:30:08.027Z</time></trkpt><trkpt lat="44.3543304" lon="11.6554195"><ele>160.0</ele><time>2026-05-01T14:30:09.031Z</time></trkpt><trkpt lat="44.3543072" lon="11.6555141"><ele>160.0</ele><time>2026-05-01T14:30:09.97Z</time></trkpt><trkpt lat="44.3542848" lon="11.6556056"><ele>160.0</ele><time>2026-05-01T14:30:10.968Z</time></trkpt><trkpt lat="44.354267" lon="11.6557002"><ele>159.83333333333334</ele><time>2026-05-01T14:30:11.97Z</time></trkpt><trkpt lat="44.3542451" lon="11.6557896"><ele>159.66666666666669</ele><time>2026-05-01T14:30:12.967Z</time></trkpt><trkpt lat="44.3542232" lon="11.655887"><ele>159.5</ele><time>2026-05-01T14:30:13.969Z</time></trkpt><trkpt lat="44.3542023" lon="11.6559786"><ele>159.33333333333334</ele><time>2026-05-01T14:30:14.997Z</time></trkpt><trkpt lat="44.3541816" lon="11.6560641"><ele>159.16666666666666</ele><time>2026-05-01T14:30:15.962Z</time></trkpt><trkpt lat="44.3541634" lon="11.6561497"><ele>159.0</ele><time>2026-05-01T14:30:16.966Z</time></trkpt><trkpt lat="44.3541269" lon="11.6563152"><ele>158.33333333333334</ele><time>2026-05-01T14:30:18.967Z</time></trkpt><trkpt lat="44.3540911" lon="11.6564851"><ele>157.66666666666666</ele><time>2026-05-01T14:30:20.969Z</time></trkpt><trkpt lat="44.354069" lon="11.6565713"><ele>157.0</ele><time>2026-05-01T14:30:21.97Z</time></trkpt><trkpt lat="44.3540457" lon="11.6566623"><ele>156.33333333333331</ele><time>2026-05-01T14:30:22.976Z</time></trkpt><trkpt lat="44.3540209" lon="11.6567445"><ele>155.66666666666666</ele><time>2026-05-01T14:30:23.965Z</time></trkpt><trkpt lat="44.3540044" lon="11.6568298"><ele>155.0</ele><time>2026-05-01T14:30:24.979Z</time></trkpt><trkpt lat="44.3539855" lon="11.6569165"><ele>155.0</ele><time>2026-05-01T14:30:25.975Z</time></trkpt><trkpt lat="44.3539675" lon="11.6570048"><ele>155.0</ele><time>2026-05-01T14:30:26.969Z</time></trkpt><trkpt lat="44.3539395" lon="11.6570929"><ele>155.0</ele><time>2026-05-01T14:30:27.982Z</time></trkpt><trkpt lat="44.353912" lon="11.6571796"><ele>155.0</ele><time>2026-05-01T14:30:28.971Z</time></trkpt><trkpt lat="44.3538876" lon="11.6572693"><ele>155.0</ele><time>2026-05-01T14:30:29.976Z</time></trkpt><trkpt lat="44.3538666" lon="11.6573581"><ele>155.0</ele><time>2026-05-01T14:30:30.966Z</time></trkpt><trkpt lat="44.3538496" lon="11.657449"><ele>155.0</ele><time>2026-05-01T14:30:31.968Z</time></trkpt><trkpt lat="44.3538263" lon="11.657532"><ele>155.0</ele><time>2026-05-01T14:30:32.972Z</time></trkpt><trkpt lat="44.3538008" lon="11.6576228"><ele>155.0</ele><time>2026-05-01T14:30:33.968Z</time></trkpt><trkpt lat="44.3537752" lon="11.6577104"><ele>155.0</ele><time>2026-05-01T14:30:34.969Z</time></trkpt><trkpt lat="44.3537532" lon="11.6578041"><ele>155.0</ele><time>2026-05-01T14:30:35.964Z</time></trkpt><trkpt lat="44.3537338" lon="11.6578976"><ele>155.0</ele><time>2026-05-01T14:30:36.966Z</time></trkpt><trkpt lat="44.353714" lon="11.6579858"><ele>155.0</ele><time>2026-05-01T14:30:37.981Z</time></trkpt><trkpt lat="44.3536945" lon="11.6580748"><ele>155.0</ele><time>2026-05-01T14:30:38.976Z</time></trkpt><trkpt lat="44.3536725" lon="11.6581676"><ele>154.42857142857144</ele><time>2026-05-01T14:30:39.977Z</time></trkpt><trkpt lat="44.3536539" lon="11.6582559"><ele>153.85714285714286</ele><time>2026-05-01T14:30:40.992Z</time></trkpt><trkpt lat="44.3536393" lon="11.6583455"><ele>153.28571428571428</ele><time>2026-05-01T14:30:41.969Z</time></trkpt><trkpt lat="44.3536204" lon="11.6584348"><ele>152.71428571428572</ele><time>2026-05-01T14:30:42.969Z</time></trkpt><trkpt lat="44.3535944" lon="11.6585241"><ele>152.14285714285714</ele><time>2026-05-01T14:30:43.97Z</time></trkpt><trkpt lat="44.3535678" lon="11.6586131"><ele>151.57142857142858</ele><time>2026-05-01T14:30:44.966Z</time></trkpt><trkpt lat="44.3535383" lon="11.6587019"><ele>151.0</ele><time>2026-05-01T14:30:45.964Z</time></trkpt><trkpt lat="44.3535093" lon="11.6587984"><ele>150.5</ele><time>2026-05-01T14:30:46.968Z</time></trkpt><trkpt lat="44.3534741" lon="11.6588979"><ele>150.0</ele><time>2026-05-01T14:30:47.965Z</time></trkpt><trkpt lat="44.3534293" lon="11.6589977"><ele>149.5</ele><time>2026-05-01T14:30:48.969Z</time></trkpt><trkpt lat="44.3533842" lon="11.6590986"><ele>149.0</ele><time>2026-05-01T14:30:49.975Z</time></trkpt><trkpt lat="44.3533389" lon="11.6592103"><ele>148.5</ele><time>2026-05-01T14:30:50.963Z</time></trkpt><trkpt lat="44.3532883" lon="11.6593224"><ele>148.0</ele><time>2026-05-01T14:30:51.965Z</time></trkpt><trkpt lat="44.3532304" lon="11.6594477"><ele>146.8</ele><time>2026-05-01T14:30:52.96Z</time></trkpt><trkpt lat="44.3531716" lon="11.6595723"><ele>145.60000000000002</ele><time>2026-05-01T14:30:53.963Z</time></trkpt><trkpt lat="44.3531138" lon="11.6596994"><ele>144.39999999999998</ele><time>2026-05-01T14:30:54.964Z</time></trkpt><trkpt lat="44.3530519" lon="11.6598372"><ele>143.2</ele><time>2026-05-01T14:30:55.966Z</time></trkpt><trkpt lat="44.3529899" lon="11.6599787"><ele>142.0</ele><time>2026-05-01T14:30:56.974Z</time></trkpt><trkpt lat="44.3529224" lon="11.6601237"><ele>140.75</ele><time>2026-05-01T14:30:57.969Z</time></trkpt><trkpt lat="44.3528571" lon="11.6602637"><ele>139.5</ele><time>2026-05-01T14:30:58.972Z</time></trkpt><trkpt lat="44.3527824" lon="11.6604121"><ele>138.25</ele><time>2026-05-01T14:30:59.971Z</time></trkpt><trkpt lat="44.3527073" lon="11.6605649"><ele>137.0</ele><time>2026-05-01T14:31:00.981Z</time></trkpt><trkpt lat="44.3526482" lon="11.6607178"><ele>135.4</ele><time>2026-05-01T14:31:01.971Z</time></trkpt><trkpt lat="44.3526141" lon="11.6608695"><ele>133.79999999999998</ele><time>2026-05-01T14:31:02.967Z</time></trkpt><trkpt lat="44.3526012" lon="11.6610231"><ele>132.2</ele><time>2026-05-01T14:31:03.981Z</time></trkpt><trkpt lat="44.3526207" lon="11.6611728"><ele>130.6</ele><time>2026-05-01T14:31:04.97Z</time></trkpt><trkpt lat="44.3526741" lon="11.6613002"><ele>129.0</ele><time>2026-05-01T14:31:05.973Z</time></trkpt><trkpt lat="44.3527289" lon="11.6614324"><ele>127.75</ele><time>2026-05-01T14:31:06.964Z</time></trkpt><trkpt lat="44.3527902" lon="11.6615771"><ele>126.5</ele><time>2026-05-01T14:31:07.98Z</time></trkpt><trkpt lat="44.3528399" lon="11.661721"><ele>125.25</ele><time>2026-05-01T14:31:08.976Z</time></trkpt><trkpt lat="44.352888" lon="11.6618618"><ele>124.0</ele><time>2026-05-01T14:31:09.966Z</time></trkpt><trkpt lat="44.3529303" lon="11.6620151"><ele>122.5</ele><time>2026-05-01T14:31:10.961Z</time></trkpt><trkpt lat="44.3529579" lon="11.6621687"><ele>121.0</ele><time>2026-05-01T14:31:11.961Z</time></trkpt><trkpt lat="44.3529685" lon="11.6623269"><ele>119.5</ele><time>2026-05-01T14:31:12.969Z</time></trkpt><trkpt lat="44.3529742" lon="11.6624854"><ele>118.0</ele><time>2026-05-01T14:31:13.97Z</time></trkpt><trkpt lat="44.3529735" lon="11.6626397"><ele>117.2</ele><time>2026-05-01T14:31:14.967Z</time></trkpt><trkpt lat="44.3529693" lon="11.6627937"><ele>116.4</ele><time>2026-05-01T14:31:15.969Z</time></trkpt><trkpt lat="44.3529647" lon="11.6629408"><ele>115.60000000000001</ele><time>2026-05-01T14:31:16.97Z</time></trkpt><trkpt lat="44.3529612" lon="11.6630927"><ele>114.80000000000001</ele><time>2026-05-01T14:31:17.966Z</time></trkpt><trkpt lat="44.3529601" lon="11.6632382"><ele>114.0</ele><time>2026-05-01T14:31:18.974Z</time></trkpt><trkpt lat="44.3529583" lon="11.6633881"><ele>114.0</ele><time>2026-05-01T14:31:19.966Z</time></trkpt><trkpt lat="44.352962" lon="11.6635391"><ele>114.0</ele><time>2026-05-01T14:31:20.974Z</time></trkpt><trkpt lat="44.3529591" lon="11.6636872"><ele>114.0</ele><time>2026-05-01T14:31:21.992Z</time></trkpt><trkpt lat="44.352962" lon="11.6638224"><ele>114.0</ele><time>2026-05-01T14:31:22.967Z</time></trkpt><trkpt lat="44.3529615" lon="11.6639712"><ele>114.0</ele><time>2026-05-01T14:31:23.966Z</time></trkpt><trkpt lat="44.3529658" lon="11.6641021"><ele>113.83333333333333</ele><time>2026-05-01T14:31:24.966Z</time></trkpt><trkpt lat="44.3529679" lon="11.6642359"><ele>113.66666666666666</ele><time>2026-05-01T14:31:25.965Z</time></trkpt><trkpt lat="44.3529695" lon="11.6643638"><ele>113.5</ele><time>2026-05-01T14:31:26.978Z</time></trkpt><trkpt lat="44.3529714" lon="11.6644808"><ele>113.33333333333333</ele><time>2026-05-01T14:31:27.973Z</time></trkpt><trkpt lat="44.352972" lon="11.664602"><ele>113.16666666666666</ele><time>2026-05-01T14:31:29.041Z</time></trkpt><trkpt lat="44.3529734" lon="11.6647074"><ele>113.0</ele><time>2026-05-01T14:31:29.968Z</time></trkpt><trkpt lat="44.3529749" lon="11.6648137"><ele>113.0</ele><time>2026-05-01T14:31:30.967Z</time></trkpt><trkpt lat="44.3529791" lon="11.664907"><ele>113.00000000000001</ele><time>2026-05-01T14:31:31.967Z</time></trkpt><trkpt lat="44.3529835" lon="11.6650718"><ele>113.00000000000001</ele><time>2026-05-01T14:31:33.957Z</time></trkpt><trkpt lat="44.3529849" lon="11.6652328"><ele>113.0</ele><time>2026-05-01T14:31:35.967Z</time></trkpt><trkpt lat="44.3529895" lon="11.6653953"><ele>113.0</ele><time>2026-05-01T14:31:37.97Z</time></trkpt><trkpt lat="44.3529861" lon="11.6655633"><ele>113.0</ele><time>2026-05-01T14:31:39.969Z</time></trkpt><trkpt lat="44.3529766" lon="11.6657261"><ele>113.0</ele><time>2026-05-01T14:31:41.976Z</time></trkpt><trkpt lat="44.3529753" lon="11.6658798"><ele>113.0</ele><time>2026-05-01T14:31:43.968Z</time></trkpt><trkpt lat="44.3529668" lon="11.6660467"><ele>113.0</ele><time>2026-05-01T14:31:45.979Z</time></trkpt><trkpt lat="44.3529663" lon="11.6662001"><ele>113.0</ele><time>2026-05-01T14:31:47.962Z</time></trkpt><trkpt lat="44.352963" lon="11.6663604"><ele>113.0</ele><time>2026-05-01T14:31:49.975Z</time></trkpt><trkpt lat="44.3529699" lon="11.6665295"><ele>113.0</ele><time>2026-05-01T14:31:51.974Z</time></trkpt><trkpt lat="44.3529725" lon="11.666701"><ele>113.0</ele><time>2026-05-01T14:31:53.966Z</time></trkpt><trkpt lat="44.3529791" lon="11.6668521"><ele>112.80000000000001</ele><time>2026-05-01T14:31:55.964Z</time></trkpt><trkpt lat="44.3529812" lon="11.667009"><ele>112.60000000000001</ele><time>2026-05-01T14:31:57.969Z</time></trkpt><trkpt lat="44.3529809" lon="11.6671545"><ele>112.39999999999999</ele><time>2026-05-01T14:31:59.97Z</time></trkpt><trkpt lat="44.3529836" lon="11.6672997"><ele>112.19999999999999</ele><time>2026-05-01T14:32:01.972Z</time></trkpt><trkpt lat="44.3529819" lon="11.6674549"><ele>112.0</ele><time>2026-05-01T14:32:03.97Z</time></trkpt><trkpt lat="44.3529688" lon="11.6676005"><ele>112.00000000000001</ele><time>2026-05-01T14:32:05.97Z</time></trkpt><trkpt lat="44.3529556" lon="11.6677275"><ele>112.0</ele><time>2026-05-01T14:32:07.969Z</time></trkpt><trkpt lat="44.3529463" lon="11.6678358"><ele>112.0</ele><time>2026-05-01T14:32:09.973Z</time></trkpt><trkpt lat="44.3529285" lon="11.6679488"><ele>112.0</ele><time>2026-05-01T14:32:12.97Z</time></trkpt><trkpt lat="44.3529132" lon="11.6680484"><ele>112.00000000000001</ele><time>2026-05-01T14:33:05.972Z</time></trkpt><trkpt lat="44.3529127" lon="11.6681567"><ele>112.0</ele><time>2026-05-01T14:33:09.948Z</time></trkpt><trkpt lat="44.3528945" lon="11.6682553"><ele>112.19999999999999</ele><time>2026-05-01T14:33:12.957Z</time></trkpt><trkpt lat="44.3528767" lon="11.6683422"><ele>112.39999999999999</ele><time>2026-05-01T14:33:14.961Z</time></trkpt><trkpt lat="44.3528878" lon="11.6684625"><ele>112.60000000000001</ele><time>2026-05-01T14:33:16.957Z</time></trkpt><trkpt lat="44.3528821" lon="11.6685962"><ele>112.80000000000001</ele><time>2026-05-01T14:33:18.944Z</time></trkpt><trkpt lat="44.3528648" lon="11.6687414"><ele>113.0</ele><time>2026-05-01T14:33:20.97Z</time></trkpt><trkpt lat="44.3528493" lon="11.6688994"><ele>112.4</ele><time>2026-05-01T14:33:22.956Z</time></trkpt><trkpt lat="44.3528308" lon="11.6690433"><ele>111.80000000000001</ele><time>2026-05-01T14:33:24.971Z</time></trkpt><trkpt lat="44.3528186" lon="11.669132"><ele>111.2</ele><time>2026-05-01T14:33:25.962Z</time></trkpt><trkpt lat="44.3527999" lon="11.6692967"><ele>110.6</ele><time>2026-05-01T14:33:27.967Z</time></trkpt><trkpt lat="44.3527806" lon="11.6694718"><ele>110.0</ele><time>2026-05-01T14:33:29.961Z</time></trkpt><trkpt lat="44.3527781" lon="11.6695635"><ele>109.99999999999999</ele><time>2026-05-01T14:33:30.979Z</time></trkpt><trkpt lat="44.3527699" lon="11.6696578"><ele>110.0</ele><time>2026-05-01T14:33:31.968Z</time></trkpt><trkpt lat="44.3527626" lon="11.6697453"><ele>110.0</ele><time>2026-05-01T14:33:32.996Z</time></trkpt><trkpt lat="44.3527374" lon="11.6699153"><ele>110.0</ele><time>2026-05-01T14:33:34.978Z</time></trkpt><trkpt lat="44.3527449" lon="11.6700064"><ele>109.99999999999999</ele><time>2026-05-01T14:33:35.97Z</time></trkpt><trkpt lat="44.3527657" lon="11.6701026"><ele>110.0</ele><time>2026-05-01T14:33:36.989Z</time></trkpt><trkpt lat="44.3527991" lon="11.6701815"><ele>109.99999999999999</ele><time>2026-05-01T14:33:37.972Z</time></trkpt><trkpt lat="44.3528496" lon="11.6702446"><ele>110.0</ele><time>2026-05-01T14:33:38.976Z</time></trkpt><trkpt lat="44.3529271" lon="11.6702638"><ele>110.0</ele><time>2026-05-01T14:33:39.967Z</time></trkpt><trkpt lat="44.3530079" lon="11.6702697"><ele>110.0</ele><time>2026-05-01T14:33:40.969Z</time></trkpt><trkpt lat="44.3530827" lon="11.6702711"><ele>109.99999999999999</ele><time>2026-05-01T14:33:42.04Z</time></trkpt><trkpt lat="44.3531633" lon="11.6702787"><ele>110.0</ele><time>2026-05-01T14:33:42.969Z</time></trkpt><trkpt lat="44.3532419" lon="11.6702804"><ele>109.49999999999999</ele><time>2026-05-01T14:33:43.974Z</time></trkpt><trkpt lat="44.3533158" lon="11.6702858"><ele>109.0</ele><time>2026-05-01T14:33:44.972Z</time></trkpt><trkpt lat="44.3533911" lon="11.6702897"><ele>108.5</ele><time>2026-05-01T14:33:45.961Z</time></trkpt><trkpt lat="44.3534683" lon="11.6702867"><ele>108.0</ele><time>2026-05-01T14:33:46.975Z</time></trkpt><trkpt lat="44.35355" lon="11.670278"><ele>107.49999999999999</ele><time>2026-05-01T14:33:47.968Z</time></trkpt><trkpt lat="44.35363" lon="11.6702763"><ele>107.0</ele><time>2026-05-01T14:33:48.972Z</time></trkpt><trkpt lat="44.3537182" lon="11.6702965"><ele>107.0</ele><time>2026-05-01T14:33:49.97Z</time></trkpt><trkpt lat="44.3538042" lon="11.6703307"><ele>106.99999999999999</ele><time>2026-05-01T14:33:50.946Z</time></trkpt><trkpt lat="44.3538874" lon="11.6703959"><ele>106.99999999999999</ele><time>2026-05-01T14:33:51.952Z</time></trkpt><trkpt lat="44.3539662" lon="11.6704763"><ele>107.0</ele><time>2026-05-01T14:33:52.952Z</time></trkpt><trkpt lat="44.3540326" lon="11.6705655"><ele>107.0</ele><time>2026-05-01T14:33:53.954Z</time></trkpt><trkpt lat="44.3541047" lon="11.6706684"><ele>106.39999999999999</ele><time>2026-05-01T14:33:54.951Z</time></trkpt><trkpt lat="44.3541779" lon="11.6707704"><ele>105.79999999999998</ele><time>2026-05-01T14:33:55.946Z</time></trkpt><trkpt lat="44.3542501" lon="11.6708661"><ele>105.2</ele><time>2026-05-01T14:33:56.975Z</time></trkpt><trkpt lat="44.3543202" lon="11.6709673"><ele>104.6</ele><time>2026-05-01T14:33:57.948Z</time></trkpt><trkpt lat="44.3543914" lon="11.6710626"><ele>104.0</ele><time>2026-05-01T14:33:58.964Z</time></trkpt><trkpt lat="44.3544596" lon="11.6711624"><ele>103.4</ele><time>2026-05-01T14:33:59.983Z</time></trkpt><trkpt lat="44.3545276" lon="11.6712625"><ele>102.80000000000001</ele><time>2026-05-01T14:34:00.962Z</time></trkpt><trkpt lat="44.354594" lon="11.6713546"><ele>102.19999999999999</ele><time>2026-05-01T14:34:01.967Z</time></trkpt><trkpt lat="44.354664" lon="11.6714471"><ele>101.6</ele><time>2026-05-01T14:34:03.031Z</time></trkpt><trkpt lat="44.3547321" lon="11.6715479"><ele>101.0</ele><time>2026-05-01T14:34:03.964Z</time></trkpt><trkpt lat="44.3547984" lon="11.6716446"><ele>101.0</ele><time>2026-05-01T14:34:04.972Z</time></trkpt><trkpt lat="44.354865" lon="11.6717382"><ele>101.0</ele><time>2026-05-01T14:34:05.984Z</time></trkpt><trkpt lat="44.3549266" lon="11.671832"><ele>101.0</ele><time>2026-05-01T14:34:06.972Z</time></trkpt><trkpt lat="44.3549837" lon="11.6719318"><ele>101.0</ele><time>2026-05-01T14:34:07.977Z</time></trkpt><trkpt lat="44.3550338" lon="11.672038"><ele>101.0</ele><time>2026-05-01T14:34:08.967Z</time></trkpt><trkpt lat="44.3550807" lon="11.6721463"><ele>100.66666666666666</ele><time>2026-05-01T14:34:09.958Z</time></trkpt><trkpt lat="44.3551218" lon="11.6722503"><ele>100.33333333333333</ele><time>2026-05-01T14:34:10.968Z</time></trkpt><trkpt lat="44.3551589" lon="11.6723571"><ele>100.0</ele><time>2026-05-01T14:34:11.986Z</time></trkpt><trkpt lat="44.3551962" lon="11.6724651"><ele>99.66666666666666</ele><time>2026-05-01T14:34:13.031Z</time></trkpt><trkpt lat="44.3552378" lon="11.6725765"><ele>99.33333333333333</ele><time>2026-05-01T14:34:13.958Z</time></trkpt><trkpt lat="44.355277" lon="11.6726988"><ele>99.0</ele><time>2026-05-01T14:34:14.967Z</time></trkpt><trkpt lat="44.3553169" lon="11.6728187"><ele>98.4</ele><time>2026-05-01T14:34:15.961Z</time></trkpt><trkpt lat="44.3553545" lon="11.6729489"><ele>97.80000000000001</ele><time>2026-05-01T14:34:16.962Z</time></trkpt><trkpt lat="44.3553943" lon="11.6730853"><ele>97.19999999999999</ele><time>2026-05-01T14:34:17.963Z</time></trkpt><trkpt lat="44.3554291" lon="11.6732269"><ele>96.6</ele><time>2026-05-01T14:34:18.976Z</time></trkpt><trkpt lat="44.3554682" lon="11.6733749"><ele>96.0</ele><time>2026-05-01T14:34:19.959Z</time></trkpt><trkpt lat="44.3555114" lon="11.6735221"><ele>93.0</ele><time>2026-05-01T14:34:20.961Z</time></trkpt><trkpt lat="44.3555603" lon="11.6736706"><ele>90.0</ele><time>2026-05-01T14:34:21.962Z</time></trkpt><trkpt lat="44.3556132" lon="11.6738267"><ele>87.0</ele><time>2026-05-01T14:34:22.964Z</time></trkpt><trkpt lat="44.3556672" lon="11.6739864"><ele>84.0</ele><time>2026-05-01T14:34:23.964Z</time></trkpt><trkpt lat="44.3557207" lon="11.6741442"><ele>84.0</ele><time>2026-05-01T14:34:24.95Z</time></trkpt><trkpt lat="44.3557865" lon="11.6743081"><ele>84.0</ele><time>2026-05-01T14:34:25.958Z</time></trkpt><trkpt lat="44.3558734" lon="11.6744659"><ele>84.0</ele><time>2026-05-01T14:34:26.957Z</time></trkpt><trkpt lat="44.3559705" lon="11.6745879"><ele>84.0</ele><time>2026-05-01T14:34:27.957Z</time></trkpt><trkpt lat="44.3560833" lon="11.6746835"><ele>83.0</ele><time>2026-05-01T14:34:28.959Z</time></trkpt><trkpt lat="44.3562011" lon="11.6747664"><ele>82.0</ele><time>2026-05-01T14:34:29.964Z</time></trkpt><trkpt lat="44.3563177" lon="11.6748498"><ele>81.0</ele><time>2026-05-01T14:34:30.961Z</time></trkpt><trkpt lat="44.356433" lon="11.674937"><ele>80.0</ele><time>2026-05-01T14:34:31.959Z</time></trkpt><trkpt lat="44.3565492" lon="11.6750238"><ele>79.25</ele><time>2026-05-01T14:34:32.95Z</time></trkpt><trkpt lat="44.3566632" lon="11.6751069"><ele>78.5</ele><time>2026-05-01T14:34:33.961Z</time></trkpt><trkpt lat="44.3567757" lon="11.6751889"><ele>77.75</ele><time>2026-05-01T14:34:34.957Z</time></trkpt><trkpt lat="44.3568862" lon="11.6752776"><ele>77.0</ele><time>2026-05-01T14:34:35.963Z</time></trkpt><trkpt lat="44.3569888" lon="11.6753871"><ele>76.5</ele><time>2026-05-01T14:34:36.972Z</time></trkpt><trkpt lat="44.3570789" lon="11.6755032"><ele>76.0</ele><time>2026-05-01T14:34:37.964Z</time></trkpt><trkpt lat="44.3571605" lon="11.6756406"><ele>75.5</ele><time>2026-05-01T14:34:38.958Z</time></trkpt><trkpt lat="44.3572368" lon="11.6757796"><ele>75.0</ele><time>2026-05-01T14:34:39.948Z</time></trkpt><trkpt lat="44.3573175" lon="11.6759215"><ele>75.0</ele><time>2026-05-01T14:34:40.95Z</time></trkpt><trkpt lat="44.3574037" lon="11.6760507"><ele>75.0</ele><time>2026-05-01T14:34:41.96Z</time></trkpt><trkpt lat="44.3575018" lon="11.6761746"><ele>75.0</ele><time>2026-05-01T14:34:42.96Z</time></trkpt><trkpt lat="44.3575976" lon="11.6762955"><ele>75.0</ele><time>2026-05-01T14:34:43.962Z</time></trkpt><trkpt lat="44.3576965" lon="11.6764086"><ele>74.5</ele><time>2026-05-01T14:34:44.963Z</time></trkpt><trkpt lat="44.3577929" lon="11.6765185"><ele>74.0</ele><time>2026-05-01T14:34:45.96Z</time></trkpt><trkpt lat="44.3578828" lon="11.676646"><ele>73.5</ele><time>2026-05-01T14:34:46.96Z</time></trkpt><trkpt lat="44.3579775" lon="11.6767506"><ele>73.0</ele><time>2026-05-01T14:34:47.961Z</time></trkpt><trkpt lat="44.3580709" lon="11.6768514"><ele>72.0</ele><time>2026-05-01T14:34:48.949Z</time></trkpt><trkpt lat="44.3581636" lon="11.6769446"><ele>71.0</ele><time>2026-05-01T14:34:49.962Z</time></trkpt><trkpt lat="44.3582512" lon="11.677043"><ele>70.0</ele><time>2026-05-01T14:34:50.969Z</time></trkpt><trkpt lat="44.358335" lon="11.6771435"><ele>69.0</ele><time>2026-05-01T14:34:51.963Z</time></trkpt><trkpt lat="44.3584177" lon="11.6772441"><ele>68.0</ele><time>2026-05-01T14:34:52.958Z</time></trkpt><trkpt lat="44.3585022" lon="11.677343"><ele>68.0</ele><time>2026-05-01T14:34:53.962Z</time></trkpt><trkpt lat="44.358586" lon="11.6774403"><ele>68.0</ele><time>2026-05-01T14:34:54.958Z</time></trkpt><trkpt lat="44.3586659" lon="11.6775261"><ele>68.0</ele><time>2026-05-01T14:34:55.957Z</time></trkpt><trkpt lat="44.3587452" lon="11.6776123"><ele>68.0</ele><time>2026-05-01T14:34:56.955Z</time></trkpt><trkpt lat="44.3588255" lon="11.6776981"><ele>68.0</ele><time>2026-05-01T14:34:57.96Z</time></trkpt><trkpt lat="44.3588993" lon="11.6777874"><ele>68.2</ele><time>2026-05-01T14:34:58.957Z</time></trkpt><trkpt lat="44.3589781" lon="11.6778782"><ele>68.4</ele><time>2026-05-01T14:34:59.968Z</time></trkpt><trkpt lat="44.3590523" lon="11.677967"><ele>68.60000000000001</ele><time>2026-05-01T14:35:00.952Z</time></trkpt><trkpt lat="44.3591279" lon="11.6780547"><ele>68.8</ele><time>2026-05-01T14:35:01.96Z</time></trkpt><trkpt lat="44.3592022" lon="11.6781376"><ele>69.0</ele><time>2026-05-01T14:35:02.964Z</time></trkpt><trkpt lat="44.3592708" lon="11.6782167"><ele>69.0</ele><time>2026-05-01T14:35:03.956Z</time></trkpt><trkpt lat="44.3593382" lon="11.6782904"><ele>69.0</ele><time>2026-05-01T14:35:04.955Z</time></trkpt><trkpt lat="44.359402" lon="11.6783706"><ele>69.0</ele><time>2026-05-01T14:35:05.965Z</time></trkpt><trkpt lat="44.3594629" lon="11.6784487"><ele>69.0</ele><time>2026-05-01T14:35:06.965Z</time></trkpt><trkpt lat="44.3595237" lon="11.6785277"><ele>69.0</ele><time>2026-05-01T14:35:07.966Z</time></trkpt><trkpt lat="44.3595823" lon="11.6786118"><ele>69.0</ele><time>2026-05-01T14:35:08.961Z</time></trkpt><trkpt lat="44.3596341" lon="11.6787051"><ele>69.0</ele><time>2026-05-01T14:35:09.958Z</time></trkpt><trkpt lat="44.359682" lon="11.6788031"><ele>69.0</ele><time>2026-05-01T14:35:10.966Z</time></trkpt><trkpt lat="44.3597297" lon="11.6788936"><ele>69.0</ele><time>2026-05-01T14:35:11.964Z</time></trkpt><trkpt lat="44.3597762" lon="11.6789819"><ele>69.0</ele><time>2026-05-01T14:35:12.956Z</time></trkpt><trkpt lat="44.3598122" lon="11.679081"><ele>69.0</ele><time>2026-05-01T14:35:13.965Z</time></trkpt><trkpt lat="44.3598496" lon="11.6791864"><ele>69.0</ele><time>2026-05-01T14:35:14.96Z</time></trkpt><trkpt lat="44.3598912" lon="11.6792872"><ele>69.0</ele><time>2026-05-01T14:35:15.958Z</time></trkpt><trkpt lat="44.3599256" lon="11.6793922"><ele>69.0</ele><time>2026-05-01T14:35:16.966Z</time></trkpt><trkpt lat="44.3599567" lon="11.6795074"><ele>69.0</ele><time>2026-05-01T14:35:17.956Z</time></trkpt><trkpt lat="44.3599885" lon="11.679627"><ele>69.0</ele><time>2026-05-01T14:35:18.959Z</time></trkpt><trkpt lat="44.3600106" lon="11.6797419"><ele>69.0</ele><time>2026-05-01T14:35:19.968Z</time></trkpt><trkpt lat="44.3600322" lon="11.6798654"><ele>69.0</ele><time>2026-05-01T14:35:20.965Z</time></trkpt><trkpt lat="44.360048" lon="11.6799853"><ele>68.5</ele><time>2026-05-01T14:35:21.958Z</time></trkpt><trkpt lat="44.3600606" lon="11.6801077"><ele>68.0</ele><time>2026-05-01T14:35:22.966Z</time></trkpt><trkpt lat="44.3600693" lon="11.6802341"><ele>67.5</ele><time>2026-05-01T14:35:23.962Z</time></trkpt><trkpt lat="44.3600851" lon="11.6803588"><ele>67.0</ele><time>2026-05-01T14:35:24.966Z</time></trkpt><trkpt lat="44.3601064" lon="11.6804814"><ele>66.5</ele><time>2026-05-01T14:35:25.962Z</time></trkpt><trkpt lat="44.3601307" lon="11.6805949"><ele>66.0</ele><time>2026-05-01T14:35:26.958Z</time></trkpt><trkpt lat="44.3601548" lon="11.6807105"><ele>65.8</ele><time>2026-05-01T14:35:27.965Z</time></trkpt><trkpt lat="44.3601849" lon="11.680825"><ele>65.6</ele><time>2026-05-01T14:35:28.949Z</time></trkpt><trkpt lat="44.360213" lon="11.6809437"><ele>65.4</ele><time>2026-05-01T14:35:29.957Z</time></trkpt><trkpt lat="44.3602387" lon="11.68106"><ele>65.2</ele><time>2026-05-01T14:35:30.95Z</time></trkpt><trkpt lat="44.3602673" lon="11.6811812"><ele>65.0</ele><time>2026-05-01T14:35:31.949Z</time></trkpt><trkpt lat="44.3602837" lon="11.6813174"><ele>64.66666666666667</ele><time>2026-05-01T14:35:32.958Z</time></trkpt><trkpt lat="44.3603012" lon="11.6814472"><ele>64.33333333333334</ele><time>2026-05-01T14:35:33.95Z</time></trkpt><trkpt lat="44.360315" lon="11.6815637"><ele>64.0</ele><time>2026-05-01T14:35:34.949Z</time></trkpt><trkpt lat="44.3603236" lon="11.6816853"><ele>63.66666666666667</ele><time>2026-05-01T14:35:35.949Z</time></trkpt><trkpt lat="44.3603287" lon="11.681811"><ele>63.333333333333336</ele><time>2026-05-01T14:35:36.948Z</time></trkpt><trkpt lat="44.3603306" lon="11.6819408"><ele>63.0</ele><time>2026-05-01T14:35:37.954Z</time></trkpt><trkpt lat="44.3603281" lon="11.6820651"><ele>63.0</ele><time>2026-05-01T14:35:38.951Z</time></trkpt><trkpt lat="44.3603183" lon="11.6821885"><ele>63.0</ele><time>2026-05-01T14:35:39.962Z</time></trkpt><trkpt lat="44.3603044" lon="11.6823124"><ele>63.0</ele><time>2026-05-01T14:35:40.967Z</time></trkpt><trkpt lat="44.3602845" lon="11.682429"><ele>63.0</ele><time>2026-05-01T14:35:41.958Z</time></trkpt><trkpt lat="44.3602632" lon="11.6825503"><ele>63.0</ele><time>2026-05-01T14:35:42.964Z</time></trkpt><trkpt lat="44.3602416" lon="11.6826691"><ele>63.0</ele><time>2026-05-01T14:35:43.966Z</time></trkpt><trkpt lat="44.3602147" lon="11.6827815"><ele>63.166666666666664</ele><time>2026-05-01T14:35:44.962Z</time></trkpt><trkpt lat="44.3601883" lon="11.6828955"><ele>63.33333333333333</ele><time>2026-05-01T14:35:45.952Z</time></trkpt><trkpt lat="44.3601581" lon="11.6830105"><ele>63.5</ele><time>2026-05-01T14:35:46.95Z</time></trkpt><trkpt lat="44.3601275" lon="11.6831236"><ele>63.666666666666664</ele><time>2026-05-01T14:35:47.952Z</time></trkpt><trkpt lat="44.3600945" lon="11.6832396"><ele>63.83333333333333</ele><time>2026-05-01T14:35:48.986Z</time></trkpt><trkpt lat="44.3600618" lon="11.6833574"><ele>64.0</ele><time>2026-05-01T14:35:49.972Z</time></trkpt><trkpt lat="44.3600312" lon="11.6834695"><ele>63.99999999999999</ele><time>2026-05-01T14:35:50.969Z</time></trkpt><trkpt lat="44.3600018" lon="11.6835746"><ele>64.0</ele><time>2026-05-01T14:35:51.979Z</time></trkpt><trkpt lat="44.3599751" lon="11.6836876"><ele>64.0</ele><time>2026-05-01T14:35:52.968Z</time></trkpt><trkpt lat="44.3599499" lon="11.683799"><ele>64.0</ele><time>2026-05-01T14:35:53.969Z</time></trkpt><trkpt lat="44.3599331" lon="11.6839024"><ele>63.99999999999999</ele><time>2026-05-01T14:35:54.974Z</time></trkpt><trkpt lat="44.3599221" lon="11.6840096"><ele>64.0</ele><time>2026-05-01T14:35:55.98Z</time></trkpt><trkpt lat="44.3599176" lon="11.6841195"><ele>63.83333333333333</ele><time>2026-05-01T14:35:56.974Z</time></trkpt><trkpt lat="44.3599148" lon="11.6842309"><ele>63.666666666666664</ele><time>2026-05-01T14:35:57.965Z</time></trkpt><trkpt lat="44.3599193" lon="11.6843426"><ele>63.5</ele><time>2026-05-01T14:35:58.965Z</time></trkpt><trkpt lat="44.3599265" lon="11.6844571"><ele>63.33333333333333</ele><time>2026-05-01T14:35:59.971Z</time></trkpt><trkpt lat="44.3599396" lon="11.6845639"><ele>63.166666666666664</ele><time>2026-05-01T14:36:00.973Z</time></trkpt><trkpt lat="44.3599569" lon="11.6846768"><ele>63.0</ele><time>2026-05-01T14:36:01.956Z</time></trkpt><trkpt lat="44.3599648" lon="11.6847911"><ele>62.833333333333336</ele><time>2026-05-01T14:36:02.972Z</time></trkpt><trkpt lat="44.3599809" lon="11.6849095"><ele>62.66666666666667</ele><time>2026-05-01T14:36:03.973Z</time></trkpt><trkpt lat="44.3599927" lon="11.6850261"><ele>62.5</ele><time>2026-05-01T14:36:04.973Z</time></trkpt><trkpt lat="44.3600046" lon="11.6851425"><ele>62.333333333333336</ele><time>2026-05-01T14:36:05.969Z</time></trkpt><trkpt lat="44.3600166" lon="11.6852576"><ele>62.16666666666667</ele><time>2026-05-01T14:36:06.969Z</time></trkpt><trkpt lat="44.3600322" lon="11.6853638"><ele>62.0</ele><time>2026-05-01T14:36:07.966Z</time></trkpt><trkpt lat="44.3600489" lon="11.6854762"><ele>62.0</ele><time>2026-05-01T14:36:08.98Z</time></trkpt><trkpt lat="44.360065" lon="11.6855844"><ele>62.00000000000001</ele><time>2026-05-01T14:36:09.971Z</time></trkpt><trkpt lat="44.3600809" lon="11.6856838"><ele>62.0</ele><time>2026-05-01T14:36:10.956Z</time></trkpt><trkpt lat="44.3600945" lon="11.6857847"><ele>62.0</ele><time>2026-05-01T14:36:11.966Z</time></trkpt><trkpt lat="44.3601077" lon="11.6858804"><ele>62.00000000000001</ele><time>2026-05-01T14:36:12.96Z</time></trkpt><trkpt lat="44.3601169" lon="11.6859736"><ele>62.0</ele><time>2026-05-01T14:36:13.967Z</time></trkpt><trkpt lat="44.3601284" lon="11.6860658"><ele>62.0</ele><time>2026-05-01T14:36:14.958Z</time></trkpt><trkpt lat="44.3601395" lon="11.686156"><ele>61.85714285714286</ele><time>2026-05-01T14:36:15.961Z</time></trkpt><trkpt lat="44.3601474" lon="11.6862573"><ele>61.71428571428572</ele><time>2026-05-01T14:36:16.962Z</time></trkpt><trkpt lat="44.3601582" lon="11.6863609"><ele>61.57142857142857</ele><time>2026-05-01T14:36:17.954Z</time></trkpt><trkpt lat="44.360164" lon="11.6864599"><ele>61.42857142857143</ele><time>2026-05-01T14:36:18.959Z</time></trkpt><trkpt lat="44.3601649" lon="11.6865532"><ele>61.285714285714285</ele><time>2026-05-01T14:36:19.96Z</time></trkpt><trkpt lat="44.3601624" lon="11.6866517"><ele>61.14285714285714</ele><time>2026-05-01T14:36:20.954Z</time></trkpt><trkpt lat="44.360161" lon="11.6867454"><ele>60.99999999999999</ele><time>2026-05-01T14:36:21.964Z</time></trkpt><trkpt lat="44.3601656" lon="11.686837"><ele>61.166666666666664</ele><time>2026-05-01T14:36:22.957Z</time></trkpt><trkpt lat="44.3601668" lon="11.6869277"><ele>61.33333333333333</ele><time>2026-05-01T14:36:23.964Z</time></trkpt><trkpt lat="44.3601686" lon="11.6871094"><ele>61.5</ele><time>2026-05-01T14:36:25.967Z</time></trkpt><trkpt lat="44.3601741" lon="11.6872012"><ele>61.66666666666667</ele><time>2026-05-01T14:36:26.963Z</time></trkpt><trkpt lat="44.3601781" lon="11.6872963"><ele>61.833333333333336</ele><time>2026-05-01T14:36:27.967Z</time></trkpt><trkpt lat="44.3601825" lon="11.687394"><ele>62.0</ele><time>2026-05-01T14:36:28.965Z</time></trkpt><trkpt lat="44.3601876" lon="11.687499"><ele>62.00000000000001</ele><time>2026-05-01T14:36:30.038Z</time></trkpt><trkpt lat="44.3601971" lon="11.6875954"><ele>62.0</ele><time>2026-05-01T14:36:30.966Z</time></trkpt><trkpt lat="44.3602058" lon="11.6877719"><ele>62.0</ele><time>2026-05-01T14:36:32.964Z</time></trkpt><trkpt lat="44.3602142" lon="11.68786"><ele>62.0</ele><time>2026-05-01T14:36:33.969Z</time></trkpt><trkpt lat="44.3602239" lon="11.6879609"><ele>62.00000000000001</ele><time>2026-05-01T14:36:34.974Z</time></trkpt><trkpt lat="44.3602312" lon="11.6880568"><ele>62.0</ele><time>2026-05-01T14:36:35.966Z</time></trkpt><trkpt lat="44.360233" lon="11.6881479"><ele>61.42857142857143</ele><time>2026-05-01T14:36:36.966Z</time></trkpt><trkpt lat="44.3602333" lon="11.6882391"><ele>60.85714285714286</ele><time>2026-05-01T14:36:37.969Z</time></trkpt><trkpt lat="44.3602331" lon="11.6883335"><ele>60.28571428571429</ele><time>2026-05-01T14:36:38.966Z</time></trkpt><trkpt lat="44.3602269" lon="11.6884305"><ele>59.71428571428572</ele><time>2026-05-01T14:36:39.965Z</time></trkpt><trkpt lat="44.3602186" lon="11.6885268"><ele>59.142857142857146</ele><time>2026-05-01T14:36:40.967Z</time></trkpt><trkpt lat="44.3602142" lon="11.6886292"><ele>58.571428571428584</ele><time>2026-05-01T14:36:42.038Z</time></trkpt><trkpt lat="44.3602074" lon="11.6887308"><ele>58.00000000000001</ele><time>2026-05-01T14:36:42.964Z</time></trkpt><trkpt lat="44.360197" lon="11.6888252"><ele>57.49999999999999</ele><time>2026-05-01T14:36:43.97Z</time></trkpt><trkpt lat="44.3601834" lon="11.6889298"><ele>57.0</ele><time>2026-05-01T14:36:44.973Z</time></trkpt><trkpt lat="44.360167" lon="11.6890361"><ele>56.5</ele><time>2026-05-01T14:36:45.973Z</time></trkpt><trkpt lat="44.3601537" lon="11.6891443"><ele>56.0</ele><time>2026-05-01T14:36:46.966Z</time></trkpt><trkpt lat="44.3601545" lon="11.6892473"><ele>55.49999999999999</ele><time>2026-05-01T14:36:47.965Z</time></trkpt><trkpt lat="44.360181" lon="11.6893477"><ele>55.0</ele><time>2026-05-01T14:36:48.964Z</time></trkpt><trkpt lat="44.3602155" lon="11.6894479"><ele>54.99999999999999</ele><time>2026-05-01T14:36:49.964Z</time></trkpt><trkpt lat="44.3602239" lon="11.689563"><ele>55.0</ele><time>2026-05-01T14:36:50.965Z</time></trkpt><trkpt lat="44.3602126" lon="11.6896644"><ele>55.0</ele><time>2026-05-01T14:36:51.974Z</time></trkpt><trkpt lat="44.3601963" lon="11.6897799"><ele>55.0</ele><time>2026-05-01T14:36:52.967Z</time></trkpt><trkpt lat="44.3601777" lon="11.6898847"><ele>54.99999999999999</ele><time>2026-05-01T14:36:53.97Z</time></trkpt><trkpt lat="44.3601535" lon="11.6899769"><ele>55.0</ele><time>2026-05-01T14:36:54.97Z</time></trkpt><trkpt lat="44.3601227" lon="11.6900694"><ele>55.0</ele><time>2026-05-01T14:36:55.967Z</time></trkpt><trkpt lat="44.3600847" lon="11.6901451"><ele>55.0</ele><time>2026-05-01T14:36:56.968Z</time></trkpt><trkpt lat="44.3600092" lon="11.6902626"><ele>55.0</ele><time>2026-05-01T14:36:58.969Z</time></trkpt><trkpt lat="44.3599208" lon="11.690336"><ele>55.0</ele><time>2026-05-01T14:37:00.984Z</time></trkpt><trkpt lat="44.3598828" lon="11.6904854"><ele>55.0</ele><time>2026-05-01T14:37:02.962Z</time></trkpt><trkpt lat="44.3599386" lon="11.6905982"><ele>55.2</ele><time>2026-05-01T14:37:04.961Z</time></trkpt><trkpt lat="44.3600276" lon="11.6907023"><ele>55.4</ele><time>2026-05-01T14:37:06.965Z</time></trkpt><trkpt lat="44.3600749" lon="11.6907622"><ele>55.599999999999994</ele><time>2026-05-01T14:37:07.969Z</time></trkpt><trkpt lat="44.3601598" lon="11.6908574"><ele>55.8</ele><time>2026-05-01T14:37:09.974Z</time></trkpt><trkpt lat="44.3602479" lon="11.6909313"><ele>56.0</ele><time>2026-05-01T14:37:11.962Z</time></trkpt><trkpt lat="44.36034" lon="11.6910189"><ele>56.199999999999996</ele><time>2026-05-01T14:37:13.967Z</time></trkpt><trkpt lat="44.3604305" lon="11.6911189"><ele>56.39999999999999</ele><time>2026-05-01T14:37:15.972Z</time></trkpt><trkpt lat="44.3605253" lon="11.6912023"><ele>56.6</ele><time>2026-05-01T14:37:17.974Z</time></trkpt><trkpt lat="44.3606261" lon="11.6913059"><ele>56.8</ele><time>2026-05-01T14:37:19.964Z</time></trkpt><trkpt lat="44.3606792" lon="11.6913614"><ele>57.0</ele><time>2026-05-01T14:37:20.967Z</time></trkpt><trkpt lat="44.3607333" lon="11.691424"><ele>57.666666666666664</ele><time>2026-05-01T14:37:21.954Z</time></trkpt><trkpt lat="44.3607909" lon="11.69148"><ele>58.33333333333333</ele><time>2026-05-01T14:37:22.981Z</time></trkpt><trkpt lat="44.3608447" lon="11.6915317"><ele>59.0</ele><time>2026-05-01T14:37:23.972Z</time></trkpt><trkpt lat="44.360897" lon="11.6915819"><ele>59.666666666666664</ele><time>2026-05-01T14:37:24.975Z</time></trkpt><trkpt lat="44.3609484" lon="11.6916353"><ele>60.33333333333333</ele><time>2026-05-01T14:37:25.955Z</time></trkpt><trkpt lat="44.3610575" lon="11.69173"><ele>61.0</ele><time>2026-05-01T14:37:27.966Z</time></trkpt><trkpt lat="44.3611143" lon="11.6917854"><ele>61.0</ele><time>2026-05-01T14:37:28.974Z</time></trkpt><trkpt lat="44.3612194" lon="11.6918809"><ele>60.99999999999999</ele><time>2026-05-01T14:37:30.97Z</time></trkpt><trkpt lat="44.3613286" lon="11.6919762"><ele>60.99999999999999</ele><time>2026-05-01T14:37:32.963Z</time></trkpt><trkpt lat="44.3613882" lon="11.6920203"><ele>61.0</ele><time>2026-05-01T14:37:33.965Z</time></trkpt><trkpt lat="44.361448" lon="11.6920721"><ele>61.0</ele><time>2026-05-01T14:37:34.967Z</time></trkpt><trkpt lat="44.361542" lon="11.6921565"><ele>60.33333333333333</ele><time>2026-05-01T14:37:36.968Z</time></trkpt><trkpt lat="44.3615942" lon="11.6922124"><ele>59.666666666666664</ele><time>2026-05-01T14:37:37.964Z</time></trkpt><trkpt lat="44.3616455" lon="11.692264"><ele>59.0</ele><time>2026-05-01T14:37:38.969Z</time></trkpt><trkpt lat="44.3617351" lon="11.692348"><ele>58.33333333333333</ele><time>2026-05-01T14:37:40.963Z</time></trkpt><trkpt lat="44.3617812" lon="11.6924419"><ele>57.666666666666664</ele><time>2026-05-01T14:37:42.978Z</time></trkpt><trkpt lat="44.3617411" lon="11.6925536"><ele>57.0</ele><time>2026-05-01T14:37:45.955Z</time></trkpt><trkpt lat="44.3616996" lon="11.6926562"><ele>57.0</ele><time>2026-05-01T14:37:47.964Z</time></trkpt><trkpt lat="44.3616736" lon="11.6927479"><ele>57.0</ele><time>2026-05-01T14:37:49.966Z</time></trkpt><trkpt lat="44.3616482" lon="11.6928635"><ele>57.0</ele><time>2026-05-01T14:37:51.968Z</time></trkpt><trkpt lat="44.3616072" lon="11.693003"><ele>57.0</ele><time>2026-05-01T14:37:53.967Z</time></trkpt><trkpt lat="44.361557" lon="11.6931423"><ele>57.0</ele><time>2026-05-01T14:37:55.968Z</time></trkpt><trkpt lat="44.3615148" lon="11.6932842"><ele>56.8</ele><time>2026-05-01T14:37:57.965Z</time></trkpt><trkpt lat="44.3614644" lon="11.6934148"><ele>56.6</ele><time>2026-05-01T14:37:59.968Z</time></trkpt><trkpt lat="44.361418" lon="11.6935511"><ele>56.39999999999999</ele><time>2026-05-01T14:38:01.975Z</time></trkpt><trkpt lat="44.3613696" lon="11.6937001"><ele>56.199999999999996</ele><time>2026-05-01T14:38:03.966Z</time></trkpt><trkpt lat="44.3613256" lon="11.693834"><ele>56.0</ele><time>2026-05-01T14:38:05.97Z</time></trkpt><trkpt lat="44.3612665" lon="11.6939681"><ele>55.5</ele><time>2026-05-01T14:38:07.962Z</time></trkpt><trkpt lat="44.3612207" lon="11.6941125"><ele>55.0</ele><time>2026-05-01T14:38:10.026Z</time></trkpt><trkpt lat="44.3611764" lon="11.6942622"><ele>54.5</ele><time>2026-05-01T14:38:11.97Z</time></trkpt><trkpt lat="44.3611213" lon="11.6944067"><ele>54.0</ele><time>2026-05-01T14:38:13.968Z</time></trkpt><trkpt lat="44.361051" lon="11.6945492"><ele>53.5</ele><time>2026-05-01T14:38:15.964Z</time></trkpt><trkpt lat="44.3609855" lon="11.6946885"><ele>53.0</ele><time>2026-05-01T14:38:17.965Z</time></trkpt><trkpt lat="44.3609222" lon="11.6948359"><ele>52.5</ele><time>2026-05-01T14:38:19.97Z</time></trkpt><trkpt lat="44.3608908" lon="11.6949123"><ele>52.0</ele><time>2026-05-01T14:38:20.964Z</time></trkpt><trkpt lat="44.3608599" lon="11.6949942"><ele>51.5</ele><time>2026-05-01T14:38:21.955Z</time></trkpt><trkpt lat="44.3608278" lon="11.6950816"><ele>51.0</ele><time>2026-05-01T14:38:22.953Z</time></trkpt><trkpt lat="44.3607928" lon="11.6951599"><ele>51.0</ele><time>2026-05-01T14:38:23.967Z</time></trkpt><trkpt lat="44.36076" lon="11.6952402"><ele>51.0</ele><time>2026-05-01T14:38:24.967Z</time></trkpt><trkpt lat="44.3607112" lon="11.6953895"><ele>51.0</ele><time>2026-05-01T14:38:26.963Z</time></trkpt><trkpt lat="44.3606533" lon="11.6955406"><ele>51.0</ele><time>2026-05-01T14:38:28.968Z</time></trkpt><trkpt lat="44.3606223" lon="11.6956189"><ele>51.0</ele><time>2026-05-01T14:38:29.965Z</time></trkpt><trkpt lat="44.3605575" lon="11.6957746"><ele>51.166666666666664</ele><time>2026-05-01T14:38:31.963Z</time></trkpt><trkpt lat="44.3605284" lon="11.6958546"><ele>51.33333333333333</ele><time>2026-05-01T14:38:32.96Z</time></trkpt><trkpt lat="44.3604975" lon="11.6959334"><ele>51.5</ele><time>2026-05-01T14:38:33.967Z</time></trkpt><trkpt lat="44.3604401" lon="11.6960815"><ele>51.666666666666664</ele><time>2026-05-01T14:38:35.975Z</time></trkpt><trkpt lat="44.3604066" lon="11.6961566"><ele>51.83333333333333</ele><time>2026-05-01T14:38:36.966Z</time></trkpt><trkpt lat="44.3603491" lon="11.696305"><ele>52.0</ele><time>2026-05-01T14:38:38.963Z</time></trkpt><trkpt lat="44.3603002" lon="11.6964548"><ele>52.0</ele><time>2026-05-01T14:38:40.969Z</time></trkpt><trkpt lat="44.3602404" lon="11.6966013"><ele>52.0</ele><time>2026-05-01T14:38:42.965Z</time></trkpt><trkpt lat="44.3601794" lon="11.6967445"><ele>52.0</ele><time>2026-05-01T14:38:44.957Z</time></trkpt><trkpt lat="44.3601227" lon="11.6968902"><ele>52.0</ele><time>2026-05-01T14:38:46.958Z</time></trkpt><trkpt lat="44.3600717" lon="11.6970232"><ele>51.8</ele><time>2026-05-01T14:38:48.977Z</time></trkpt><trkpt lat="44.360017" lon="11.6971443"><ele>51.6</ele><time>2026-05-01T14:38:50.965Z</time></trkpt><trkpt lat="44.3599705" lon="11.6972817"><ele>51.4</ele><time>2026-05-01T14:38:53.033Z</time></trkpt><trkpt lat="44.3599215" lon="11.6974267"><ele>51.199999999999996</ele><time>2026-05-01T14:38:54.965Z</time></trkpt><trkpt lat="44.3598663" lon="11.6975705"><ele>51.0</ele><time>2026-05-01T14:38:56.988Z</time></trkpt><trkpt lat="44.3598042" lon="11.6977207"><ele>51.4</ele><time>2026-05-01T14:38:58.978Z</time></trkpt><trkpt lat="44.359737" lon="11.6978737"><ele>51.8</ele><time>2026-05-01T14:39:00.981Z</time></trkpt><trkpt lat="44.3597048" lon="11.6979527"><ele>52.199999999999996</ele><time>2026-05-01T14:39:01.988Z</time></trkpt><trkpt lat="44.3596487" lon="11.6981037"><ele>52.599999999999994</ele><time>2026-05-01T14:39:03.98Z</time></trkpt><trkpt lat="44.3595918" lon="11.6982573"><ele>53.0</ele><time>2026-05-01T14:39:05.983Z</time></trkpt><trkpt lat="44.3595366" lon="11.6984113"><ele>53.0</ele><time>2026-05-01T14:39:07.987Z</time></trkpt><trkpt lat="44.3595058" lon="11.698492"><ele>53.0</ele><time>2026-05-01T14:39:08.988Z</time></trkpt><trkpt lat="44.3594534" lon="11.69864"><ele>53.0</ele><time>2026-05-01T14:39:10.985Z</time></trkpt><trkpt lat="44.3594024" lon="11.698792"><ele>53.0</ele><time>2026-05-01T14:39:12.976Z</time></trkpt><trkpt lat="44.359368" lon="11.6988724"><ele>53.0</ele><time>2026-05-01T14:39:13.993Z</time></trkpt><trkpt lat="44.3593119" lon="11.699014"><ele>53.0</ele><time>2026-05-01T14:39:15.987Z</time></trkpt><trkpt lat="44.3592605" lon="11.6991703"><ele>53.0</ele><time>2026-05-01T14:39:17.982Z</time></trkpt><trkpt lat="44.3592102" lon="11.6993231"><ele>53.0</ele><time>2026-05-01T14:39:19.965Z</time></trkpt><trkpt lat="44.3591587" lon="11.6994612"><ele>53.0</ele><time>2026-05-01T14:39:21.986Z</time></trkpt><trkpt lat="44.3590989" lon="11.699577"><ele>53.0</ele><time>2026-05-01T14:39:23.965Z</time></trkpt><trkpt lat="44.3590513" lon="11.6996834"><ele>53.0</ele><time>2026-05-01T14:39:25.982Z</time></trkpt><trkpt lat="44.3589976" lon="11.6998157"><ele>53.0</ele><time>2026-05-01T14:39:27.985Z</time></trkpt><trkpt lat="44.358943" lon="11.6999389"><ele>53.0</ele><time>2026-05-01T14:39:29.995Z</time></trkpt><trkpt lat="44.3588889" lon="11.7000744"><ele>53.0</ele><time>2026-05-01T14:39:31.965Z</time></trkpt><trkpt lat="44.3588335" lon="11.7002049"><ele>53.25</ele><time>2026-05-01T14:39:33.985Z</time></trkpt><trkpt lat="44.3587738" lon="11.7003535"><ele>53.5</ele><time>2026-05-01T14:39:35.989Z</time></trkpt><trkpt lat="44.3587081" lon="11.7004942"><ele>53.75</ele><time>2026-05-01T14:39:37.979Z</time></trkpt><trkpt lat="44.3586549" lon="11.7006321"><ele>54.0</ele><time>2026-05-01T14:39:39.983Z</time></trkpt><trkpt lat="44.3585943" lon="11.7007713"><ele>54.0</ele><time>2026-05-01T14:39:41.967Z</time></trkpt><trkpt lat="44.3585438" lon="11.7009159"><ele>54.00000000000001</ele><time>2026-05-01T14:39:43.97Z</time></trkpt><trkpt lat="44.3585148" lon="11.7009963"><ele>54.00000000000001</ele><time>2026-05-01T14:39:44.973Z</time></trkpt><trkpt lat="44.3584794" lon="11.701073"><ele>54.0</ele><time>2026-05-01T14:39:45.968Z</time></trkpt><trkpt lat="44.3584194" lon="11.7012208"><ele>54.0</ele><time>2026-05-01T14:39:47.973Z</time></trkpt><trkpt lat="44.3583753" lon="11.701379"><ele>53.5</ele><time>2026-05-01T14:39:49.971Z</time></trkpt><trkpt lat="44.3583186" lon="11.7015304"><ele>53.0</ele><time>2026-05-01T14:39:51.976Z</time></trkpt><trkpt lat="44.3582571" lon="11.7016635"><ele>52.5</ele><time>2026-05-01T14:39:53.979Z</time></trkpt><trkpt lat="44.3581939" lon="11.7018165"><ele>52.0</ele><time>2026-05-01T14:39:55.987Z</time></trkpt><trkpt lat="44.3581354" lon="11.7019596"><ele>51.8</ele><time>2026-05-01T14:39:57.982Z</time></trkpt><trkpt lat="44.3580885" lon="11.7021197"><ele>51.6</ele><time>2026-05-01T14:39:59.975Z</time></trkpt><trkpt lat="44.3580587" lon="11.7021977"><ele>51.4</ele><time>2026-05-01T14:40:00.976Z</time></trkpt><trkpt lat="44.3580027" lon="11.7023396"><ele>51.199999999999996</ele><time>2026-05-01T14:40:02.978Z</time></trkpt><trkpt lat="44.3579397" lon="11.7024815"><ele>51.0</ele><time>2026-05-01T14:40:05.026Z</time></trkpt><trkpt lat="44.3578758" lon="11.702614"><ele>51.0</ele><time>2026-05-01T14:40:06.975Z</time></trkpt><trkpt lat="44.3578362" lon="11.7026881"><ele>51.0</ele><time>2026-05-01T14:40:07.971Z</time></trkpt><trkpt lat="44.3578043" lon="11.7027655"><ele>51.0</ele><time>2026-05-01T14:40:08.959Z</time></trkpt><trkpt lat="44.3577589" lon="11.7029124"><ele>51.0</ele><time>2026-05-01T14:40:10.956Z</time></trkpt><trkpt lat="44.3576988" lon="11.7030598"><ele>51.0</ele><time>2026-05-01T14:40:12.974Z</time></trkpt><trkpt lat="44.3576406" lon="11.7031883"><ele>50.5</ele><time>2026-05-01T14:40:14.983Z</time></trkpt><trkpt lat="44.3575883" lon="11.7033396"><ele>50.0</ele><time>2026-05-01T14:40:16.979Z</time></trkpt><trkpt lat="44.357539" lon="11.7034886"><ele>49.5</ele><time>2026-05-01T14:40:18.984Z</time></trkpt><trkpt lat="44.3574822" lon="11.7036311"><ele>49.0</ele><time>2026-05-01T14:40:20.977Z</time></trkpt><trkpt lat="44.3574242" lon="11.703763"><ele>49.2</ele><time>2026-05-01T14:40:23.043Z</time></trkpt><trkpt lat="44.3573713" lon="11.7038915"><ele>49.400000000000006</ele><time>2026-05-01T14:40:24.974Z</time></trkpt><trkpt lat="44.357317" lon="11.7040353"><ele>49.6</ele><time>2026-05-01T14:40:26.954Z</time></trkpt><trkpt lat="44.3572774" lon="11.7041778"><ele>49.8</ele><time>2026-05-01T14:40:28.968Z</time></trkpt><trkpt lat="44.3572196" lon="11.7043054"><ele>50.0</ele><time>2026-05-01T14:40:30.967Z</time></trkpt><trkpt lat="44.3571581" lon="11.7044411"><ele>50.00000000000001</ele><time>2026-05-01T14:40:32.964Z</time></trkpt><trkpt lat="44.3571105" lon="11.7045679"><ele>50.0</ele><time>2026-05-01T14:40:34.97Z</time></trkpt><trkpt lat="44.3570516" lon="11.7046968"><ele>50.0</ele><time>2026-05-01T14:40:36.958Z</time></trkpt><trkpt lat="44.3570174" lon="11.70479"><ele>50.0</ele><time>2026-05-01T14:40:38.97Z</time></trkpt><trkpt lat="44.3569824" lon="11.7048751"><ele>50.00000000000001</ele><time>2026-05-01T14:40:41.969Z</time></trkpt><trkpt lat="44.3569656" lon="11.7049856"><ele>50.0</ele><time>2026-05-01T14:40:44.961Z</time></trkpt><trkpt lat="44.3569344" lon="11.7050752"><ele>50.00000000000001</ele><time>2026-05-01T14:40:46.975Z</time></trkpt><trkpt lat="44.3569033" lon="11.7051766"><ele>50.0</ele><time>2026-05-01T14:40:48.971Z</time></trkpt><trkpt lat="44.3568544" lon="11.7052586"><ele>50.0</ele><time>2026-05-01T14:40:50.966Z</time></trkpt><trkpt lat="44.3568176" lon="11.705371"><ele>50.0</ele><time>2026-05-01T14:40:52.963Z</time></trkpt><trkpt lat="44.3567728" lon="11.7054794"><ele>50.00000000000001</ele><time>2026-05-01T14:40:54.982Z</time></trkpt><trkpt lat="44.3567334" lon="11.7055887"><ele>50.0</ele><time>2026-05-01T14:40:56.962Z</time></trkpt><trkpt lat="44.3567031" lon="11.7056968"><ele>50.16666666666667</ele><time>2026-05-01T14:40:58.962Z</time></trkpt><trkpt lat="44.3566606" lon="11.7057969"><ele>50.333333333333336</ele><time>2026-05-01T14:41:00.964Z</time></trkpt><trkpt lat="44.3566103" lon="11.7058853"><ele>50.5</ele><time>2026-05-01T14:41:02.967Z</time></trkpt><trkpt lat="44.3565511" lon="11.7059765"><ele>50.66666666666667</ele><time>2026-05-01T14:41:04.963Z</time></trkpt><trkpt lat="44.3565246" lon="11.7060951"><ele>50.833333333333336</ele><time>2026-05-01T14:41:06.966Z</time></trkpt><trkpt lat="44.3564798" lon="11.7062043"><ele>51.0</ele><time>2026-05-01T14:41:08.969Z</time></trkpt><trkpt lat="44.3564337" lon="11.706308"><ele>51.0</ele><time>2026-05-01T14:41:10.965Z</time></trkpt><trkpt lat="44.3563913" lon="11.7064115"><ele>51.0</ele><time>2026-05-01T14:41:12.96Z</time></trkpt><trkpt lat="44.3563517" lon="11.7065051"><ele>51.0</ele><time>2026-05-01T14:41:14.967Z</time></trkpt><trkpt lat="44.3563062" lon="11.7066078"><ele>51.0</ele><time>2026-05-01T14:41:16.966Z</time></trkpt><trkpt lat="44.3562614" lon="11.7067087"><ele>51.0</ele><time>2026-05-01T14:41:18.962Z</time></trkpt><trkpt lat="44.3562227" lon="11.7067963"><ele>51.0</ele><time>2026-05-01T14:41:20.964Z</time></trkpt><trkpt lat="44.3561856" lon="11.7068919"><ele>51.333333333333336</ele><time>2026-05-01T14:41:22.961Z</time></trkpt><trkpt lat="44.3561421" lon="11.7069858"><ele>51.66666666666667</ele><time>2026-05-01T14:41:24.963Z</time></trkpt><trkpt lat="44.356098" lon="11.7070955"><ele>52.0</ele><time>2026-05-01T14:41:26.967Z</time></trkpt><trkpt lat="44.3560793" lon="11.7071889"><ele>52.333333333333336</ele><time>2026-05-01T14:41:28.973Z</time></trkpt><trkpt lat="44.3560462" lon="11.7072963"><ele>52.66666666666667</ele><time>2026-05-01T14:41:30.969Z</time></trkpt><trkpt lat="44.3560144" lon="11.7073949"><ele>53.0</ele><time>2026-05-01T14:41:32.964Z</time></trkpt><trkpt lat="44.3559871" lon="11.7074828"><ele>53.00000000000001</ele><time>2026-05-01T14:41:34.963Z</time></trkpt><trkpt lat="44.355945" lon="11.7075709"><ele>53.0</ele><time>2026-05-01T14:41:37.967Z</time></trkpt><trkpt lat="44.3558794" lon="11.7075479"><ele>53.0</ele><time>2026-05-01T14:41:39.964Z</time></trkpt><trkpt lat="44.3558111" lon="11.7074998"><ele>53.0</ele><time>2026-05-01T14:41:41.96Z</time></trkpt><trkpt lat="44.3557317" lon="11.7074628"><ele>53.00000000000001</ele><time>2026-05-01T14:41:43.965Z</time></trkpt><trkpt lat="44.3556256" lon="11.7074107"><ele>53.0</ele><time>2026-05-01T14:41:45.968Z</time></trkpt><trkpt lat="44.3555338" lon="11.7073538"><ele>52.833333333333336</ele><time>2026-05-01T14:41:47.962Z</time></trkpt><trkpt lat="44.3554615" lon="11.7073126"><ele>52.66666666666667</ele><time>2026-05-01T14:41:49.964Z</time></trkpt><trkpt lat="44.3553929" lon="11.7072673"><ele>52.5</ele><time>2026-05-01T14:41:51.967Z</time></trkpt><trkpt lat="44.3553165" lon="11.7072243"><ele>52.33333333333333</ele><time>2026-05-01T14:41:53.961Z</time></trkpt><trkpt lat="44.3552524" lon="11.7071734"><ele>52.166666666666664</ele><time>2026-05-01T14:41:55.959Z</time></trkpt><trkpt lat="44.3551809" lon="11.7071279"><ele>52.0</ele><time>2026-05-01T14:41:57.967Z</time></trkpt><trkpt lat="44.3551087" lon="11.7070949"><ele>52.0</ele><time>2026-05-01T14:41:59.965Z</time></trkpt><trkpt lat="44.3550292" lon="11.7070534"><ele>52.0</ele><time>2026-05-01T14:42:01.966Z</time></trkpt><trkpt lat="44.3549639" lon="11.7070151"><ele>52.0</ele><time>2026-05-01T14:42:03.964Z</time></trkpt><trkpt lat="44.354899" lon="11.7069791"><ele>52.0</ele><time>2026-05-01T14:42:05.965Z</time></trkpt><trkpt lat="44.3548217" lon="11.7069272"><ele>52.0</ele><time>2026-05-01T14:42:08.967Z</time></trkpt><trkpt lat="44.3547574" lon="11.7069063"><ele>52.0</ele><time>2026-05-01T14:42:11.976Z</time></trkpt><trkpt lat="44.3547751" lon="11.706819"><ele>52.0</ele><time>2026-05-01T14:42:17.964Z</time></trkpt><trkpt lat="44.3548416" lon="11.7068501"><ele>51.857142857142854</ele><time>2026-05-01T14:42:21.964Z</time></trkpt><trkpt lat="44.3548726" lon="11.7067354"><ele>51.714285714285715</ele><time>2026-05-01T14:42:26.976Z</time></trkpt><trkpt lat="44.3549121" lon="11.7066525"><ele>51.57142857142857</ele><time>2026-05-01T14:42:28.963Z</time></trkpt><trkpt lat="44.3549459" lon="11.7065708"><ele>51.42857142857143</ele><time>2026-05-01T14:42:30.967Z</time></trkpt><trkpt lat="44.3549357" lon="11.7064602"><ele>51.28571428571429</ele><time>2026-05-01T14:42:33.958Z</time></trkpt><trkpt lat="44.3548839" lon="11.706406"><ele>51.142857142857146</ele><time>2026-05-01T14:42:37.981Z</time></trkpt><trkpt lat="44.3548184" lon="11.7063537"><ele>51.0</ele><time>2026-05-01T14:42:43.963Z</time></trkpt><trkpt lat="44.3547772" lon="11.7062869"><ele>51.0</ele><time>2026-05-01T14:43:13.962Z</time></trkpt><trkpt lat="44.3547095" lon="11.7062517"><ele>51.0</ele><time>2026-05-01T14:43:31.959Z</time></trkpt><trkpt lat="44.3546417" lon="11.7062123"><ele>51.0</ele><time>2026-05-01T14:43:34.962Z</time></trkpt><trkpt lat="44.3545725" lon="11.7061598"><ele>51.0</ele><time>2026-05-01T14:43:37.955Z</time></trkpt><trkpt lat="44.3544997" lon="11.7061064"><ele>51.0</ele><time>2026-05-01T14:43:40.963Z</time></trkpt><trkpt lat="44.3544347" lon="11.7060438"><ele>51.0</ele><time>2026-05-01T14:43:43.953Z</time></trkpt><trkpt lat="44.3543705" lon="11.7059781"><ele>51.166666666666664</ele><time>2026-05-01T14:43:46.957Z</time></trkpt><trkpt lat="44.3542905" lon="11.7059315"><ele>51.33333333333333</ele><time>2026-05-01T14:43:49.968Z</time></trkpt><trkpt lat="44.3542053" lon="11.7058696"><ele>51.5</ele><time>2026-05-01T14:43:52.964Z</time></trkpt><trkpt lat="44.3541408" lon="11.7058275"><ele>51.666666666666664</ele><time>2026-05-01T14:43:54.966Z</time></trkpt><trkpt lat="44.3540785" lon="11.7057763"><ele>51.83333333333333</ele><time>2026-05-01T14:43:56.966Z</time></trkpt><trkpt lat="44.3540133" lon="11.7057309"><ele>52.0</ele><time>2026-05-01T14:43:58.962Z</time></trkpt><trkpt lat="44.3539421" lon="11.7057245"><ele>52.0</ele><time>2026-05-01T14:44:00.964Z</time></trkpt><trkpt lat="44.3538777" lon="11.7057708"><ele>52.0</ele><time>2026-05-01T14:44:02.967Z</time></trkpt><trkpt lat="44.3538166" lon="11.705853"><ele>52.0</ele><time>2026-05-01T14:44:05.962Z</time></trkpt><trkpt lat="44.3537633" lon="11.7059618"><ele>52.0</ele><time>2026-05-01T14:44:08.959Z</time></trkpt><trkpt lat="44.3537352" lon="11.7060407"><ele>52.0</ele><time>2026-05-01T14:44:10.963Z</time></trkpt><trkpt lat="44.3536995" lon="11.7061198"><ele>52.0</ele><time>2026-05-01T14:44:12.976Z</time></trkpt><trkpt lat="44.3536654" lon="11.7061998"><ele>52.0</ele><time>2026-05-01T14:44:14.969Z</time></trkpt><trkpt lat="44.3536296" lon="11.7062819"><ele>51.857142857142854</ele><time>2026-05-01T14:44:16.963Z</time></trkpt><trkpt lat="44.3536005" lon="11.7063645"><ele>51.714285714285715</ele><time>2026-05-01T14:44:18.965Z</time></trkpt><trkpt lat="44.3535654" lon="11.7064748"><ele>51.57142857142857</ele><time>2026-05-01T14:44:21.966Z</time></trkpt><trkpt lat="44.3535258" lon="11.7065732"><ele>51.42857142857143</ele><time>2026-05-01T14:44:24.963Z</time></trkpt><trkpt lat="44.3534954" lon="11.7066745"><ele>51.28571428571429</ele><time>2026-05-01T14:44:27.966Z</time></trkpt><trkpt lat="44.3534531" lon="11.7067457"><ele>51.142857142857146</ele><time>2026-05-01T14:44:30.967Z</time></trkpt><trkpt lat="44.3533966" lon="11.7067861"><ele>51.0</ele><time>2026-05-01T14:44:34.963Z</time></trkpt><trkpt lat="44.3533334" lon="11.7067587"><ele>51.0</ele><time>2026-05-01T14:45:04.968Z</time></trkpt><trkpt lat="44.3532547" lon="11.7068006"><ele>51.0</ele><time>2026-05-01T14:45:09.964Z</time></trkpt><trkpt lat="44.3531947" lon="11.7069015"><ele>51.0</ele><time>2026-05-01T14:45:12.976Z</time></trkpt><trkpt lat="44.3531798" lon="11.7070323"><ele>51.0</ele><time>2026-05-01T14:45:15.972Z</time></trkpt><trkpt lat="44.3531686" lon="11.7071454"><ele>51.0</ele><time>2026-05-01T14:45:17.976Z</time></trkpt><trkpt lat="44.3531647" lon="11.7072382"><ele>51.0</ele><time>2026-05-01T14:45:19.982Z</time></trkpt><trkpt lat="44.3531542" lon="11.707346"><ele>51.0</ele><time>2026-05-01T14:45:21.981Z</time></trkpt><trkpt lat="44.3531439" lon="11.7074563"><ele>51.0</ele><time>2026-05-01T14:45:23.97Z</time></trkpt><trkpt lat="44.3531484" lon="11.7075536"><ele>51.0</ele><time>2026-05-01T14:45:25.976Z</time></trkpt><trkpt lat="44.3531802" lon="11.7076328"><ele>51.0</ele><time>2026-05-01T14:45:27.998Z</time></trkpt><trkpt lat="44.3532364" lon="11.707679"><ele>51.0</ele><time>2026-05-01T14:45:29.972Z</time></trkpt><trkpt lat="44.353279" lon="11.7077501"><ele>51.0</ele><time>2026-05-01T14:45:32.99Z</time></trkpt><trkpt lat="44.3533496" lon="11.7077805"><ele>51.0</ele><time>2026-05-01T14:45:36.982Z</time></trkpt><trkpt lat="44.3534184" lon="11.7077862"><ele>51.285714285714285</ele><time>2026-05-01T14:45:40.971Z</time></trkpt><trkpt lat="44.3534818" lon="11.7077984"><ele>51.57142857142857</ele><time>2026-05-01T14:45:46.969Z</time></trkpt><trkpt lat="44.353521" lon="11.7078944"><ele>51.85714285714286</ele><time>2026-05-01T14:46:33.977Z</time></trkpt><trkpt lat="44.3535898" lon="11.7079536"><ele>52.14285714285714</ele><time>2026-05-01T14:46:37.969Z</time></trkpt><trkpt lat="44.3536481" lon="11.7079982"><ele>52.42857142857142</ele><time>2026-05-01T14:46:40.983Z</time></trkpt><trkpt lat="44.3536986" lon="11.7080717"><ele>52.714285714285715</ele><time>2026-05-01T14:46:43.978Z</time></trkpt><trkpt lat="44.3537555" lon="11.7081288"><ele>53.0</ele><time>2026-05-01T14:46:46.977Z</time></trkpt><trkpt lat="44.3538149" lon="11.7081895"><ele>53.00000000000001</ele><time>2026-05-01T14:46:48.968Z</time></trkpt><trkpt lat="44.3538909" lon="11.7082517"><ele>53.0</ele><time>2026-05-01T14:46:50.979Z</time></trkpt><trkpt lat="44.353962" lon="11.7083209"><ele>53.0</ele><time>2026-05-01T14:46:52.981Z</time></trkpt><trkpt lat="44.3539729" lon="11.708413"><ele>53.0</ele><time>2026-05-01T14:46:54.972Z</time></trkpt><trkpt lat="44.3539374" lon="11.7084944"><ele>53.00000000000001</ele><time>2026-05-01T14:46:56.973Z</time></trkpt><trkpt lat="44.3539162" lon="11.7085913"><ele>53.0</ele><time>2026-05-01T14:46:58.976Z</time></trkpt><trkpt lat="44.3538714" lon="11.7086842"><ele>53.00000000000001</ele><time>2026-05-01T14:47:00.97Z</time></trkpt><trkpt lat="44.3538282" lon="11.7087816"><ele>53.0</ele><time>2026-05-01T14:47:02.983Z</time></trkpt><trkpt lat="44.3537921" lon="11.7088838"><ele>53.0</ele><time>2026-05-01T14:47:04.985Z</time></trkpt><trkpt lat="44.3537646" lon="11.7090024"><ele>53.0</ele><time>2026-05-01T14:47:06.967Z</time></trkpt><trkpt lat="44.353742" lon="11.7091187"><ele>53.00000000000001</ele><time>2026-05-01T14:47:08.966Z</time></trkpt><trkpt lat="44.3536917" lon="11.7092441"><ele>53.0</ele><time>2026-05-01T14:47:10.973Z</time></trkpt><trkpt lat="44.3536315" lon="11.7093742"><ele>53.0</ele><time>2026-05-01T14:47:12.969Z</time></trkpt><trkpt lat="44.353578" lon="11.709505"><ele>53.0</ele><time>2026-05-01T14:47:14.971Z</time></trkpt><trkpt lat="44.353527" lon="11.7096155"><ele>53.0</ele><time>2026-05-01T14:47:16.97Z</time></trkpt><trkpt lat="44.3534854" lon="11.7097273"><ele>53.0</ele><time>2026-05-01T14:47:18.965Z</time></trkpt><trkpt lat="44.3534398" lon="11.7098626"><ele>53.0</ele><time>2026-05-01T14:47:20.971Z</time></trkpt><trkpt lat="44.3533939" lon="11.7099795"><ele>53.0</ele><time>2026-05-01T14:47:22.961Z</time></trkpt><trkpt lat="44.3533629" lon="11.7101004"><ele>53.0</ele><time>2026-05-01T14:47:24.967Z</time></trkpt><trkpt lat="44.3533402" lon="11.7102207"><ele>53.0</ele><time>2026-05-01T14:47:26.967Z</time></trkpt><trkpt lat="44.3533004" lon="11.7103309"><ele>53.0</ele><time>2026-05-01T14:47:28.971Z</time></trkpt><trkpt lat="44.3532537" lon="11.7104446"><ele>53.0</ele><time>2026-05-01T14:47:30.982Z</time></trkpt><trkpt lat="44.3532246" lon="11.7105623"><ele>53.00000000000001</ele><time>2026-05-01T14:47:32.969Z</time></trkpt><trkpt lat="44.353195" lon="11.7106774"><ele>53.0</ele><time>2026-05-01T14:47:34.973Z</time></trkpt><trkpt lat="44.35315" lon="11.7107636"><ele>53.0</ele><time>2026-05-01T14:47:36.972Z</time></trkpt><trkpt lat="44.3531135" lon="11.7108478"><ele>53.0</ele><time>2026-05-01T14:47:38.974Z</time></trkpt><trkpt lat="44.353088" lon="11.710943"><ele>53.00000000000001</ele><time>2026-05-01T14:47:40.958Z</time></trkpt><trkpt lat="44.3530435" lon="11.7110582"><ele>53.0</ele><time>2026-05-01T14:47:43.963Z</time></trkpt><trkpt lat="44.3530285" lon="11.7111601"><ele>53.00000000000001</ele><time>2026-05-01T14:47:45.968Z</time></trkpt><trkpt lat="44.3530546" lon="11.7112763"><ele>53.0</ele><time>2026-05-01T14:47:48.993Z</time></trkpt><trkpt lat="44.3531164" lon="11.7113546"><ele>53.0</ele><time>2026-05-01T14:47:51.952Z</time></trkpt><trkpt lat="44.3531703" lon="11.7114233"><ele>53.0</ele><time>2026-05-01T14:47:53.979Z</time></trkpt><trkpt lat="44.3532157" lon="11.7114923"><ele>53.00000000000001</ele><time>2026-05-01T14:47:55.965Z</time></trkpt><trkpt lat="44.3532699" lon="11.7115557"><ele>53.0</ele><time>2026-05-01T14:47:57.972Z</time></trkpt><trkpt lat="44.3533219" lon="11.7116255"><ele>53.00000000000001</ele><time>2026-05-01T14:47:59.97Z</time></trkpt><trkpt lat="44.3533785" lon="11.7116889"><ele>53.0</ele><time>2026-05-01T14:48:02.011Z</time></trkpt><trkpt lat="44.3534639" lon="11.7116588"><ele>53.0</ele><time>2026-05-01T14:48:04.973Z</time></trkpt><trkpt lat="44.3535047" lon="11.7115493"><ele>53.0</ele><time>2026-05-01T14:48:06.97Z</time></trkpt><trkpt lat="44.3535557" lon="11.7114504"><ele>53.00000000000001</ele><time>2026-05-01T14:48:08.964Z</time></trkpt><trkpt lat="44.3536077" lon="11.7113631"><ele>53.0</ele><time>2026-05-01T14:48:10.963Z</time></trkpt><trkpt lat="44.3536472" lon="11.7112711"><ele>53.00000000000001</ele><time>2026-05-01T14:48:12.97Z</time></trkpt><trkpt lat="44.3536976" lon="11.7111791"><ele>53.0</ele><time>2026-05-01T14:48:14.972Z</time></trkpt><trkpt lat="44.3537523" lon="11.7110963"><ele>53.0</ele><time>2026-05-01T14:48:16.956Z</time></trkpt><trkpt lat="44.3538037" lon="11.7110251"><ele>53.0</ele><time>2026-05-01T14:48:18.957Z</time></trkpt><trkpt lat="44.3538503" lon="11.7109469"><ele>53.00000000000001</ele><time>2026-05-01T14:48:21.014Z</time></trkpt><trkpt lat="44.3539063" lon="11.7108764"><ele>53.0</ele><time>2026-05-01T14:48:22.967Z</time></trkpt><trkpt lat="44.353955" lon="11.7108074"><ele>52.833333333333336</ele><time>2026-05-01T14:48:24.96Z</time></trkpt><trkpt lat="44.3540163" lon="11.7107525"><ele>52.66666666666667</ele><time>2026-05-01T14:48:26.965Z</time></trkpt><trkpt lat="44.3540845" lon="11.7107564"><ele>52.5</ele><time>2026-05-01T14:48:28.961Z</time></trkpt><trkpt lat="44.3541684" lon="11.7108108"><ele>52.33333333333333</ele><time>2026-05-01T14:48:30.96Z</time></trkpt><trkpt lat="44.3542382" lon="11.7108673"><ele>52.166666666666664</ele><time>2026-05-01T14:48:32.962Z</time></trkpt><trkpt lat="44.3543078" lon="11.7109257"><ele>52.0</ele><time>2026-05-01T14:48:34.963Z</time></trkpt><trkpt lat="44.3543656" lon="11.7109769"><ele>52.0</ele><time>2026-05-01T14:48:36.955Z</time></trkpt><trkpt lat="44.3544327" lon="11.7110349"><ele>52.0</ele><time>2026-05-01T14:48:38.96Z</time></trkpt><trkpt lat="44.3544982" lon="11.711098"><ele>52.0</ele><time>2026-05-01T14:48:40.966Z</time></trkpt><trkpt lat="44.3545593" lon="11.7111447"><ele>52.0</ele><time>2026-05-01T14:48:43.968Z</time></trkpt><trkpt lat="44.3545496" lon="11.7112393"><ele>52.0</ele><time>2026-05-01T14:48:49.948Z</time></trkpt><trkpt lat="44.3545184" lon="11.7113403"><ele>52.0</ele><time>2026-05-01T14:48:53.959Z</time></trkpt><trkpt lat="44.3544886" lon="11.7114227"><ele>52.0</ele><time>2026-05-01T14:48:56.962Z</time></trkpt><trkpt lat="44.3544508" lon="11.7115082"><ele>51.857142857142854</ele><time>2026-05-01T14:49:00.962Z</time></trkpt><trkpt lat="44.35441" lon="11.7116194"><ele>51.714285714285715</ele><time>2026-05-01T14:49:04.963Z</time></trkpt><trkpt lat="44.3543522" lon="11.7116891"><ele>51.57142857142857</ele><time>2026-05-01T14:49:28.958Z</time></trkpt><trkpt lat="44.3544161" lon="11.7117098"><ele>51.42857142857143</ele><time>2026-05-01T14:49:44.949Z</time></trkpt><trkpt lat="44.354365" lon="11.7117632"><ele>51.28571428571429</ele><time>2026-05-01T14:49:55.956Z</time></trkpt><trkpt lat="44.3543015" lon="11.7117941"><ele>51.142857142857146</ele><time>2026-05-01T14:50:21.955Z</time></trkpt><trkpt lat="44.3542581" lon="11.7118787"><ele>51.0</ele><time>2026-05-01T14:50:28.962Z</time></trkpt><trkpt lat="44.3542004" lon="11.7119438"><ele>51.285714285714285</ele><time>2026-05-01T14:50:33.965Z</time></trkpt><trkpt lat="44.3541956" lon="11.7120428"><ele>51.57142857142857</ele><time>2026-05-01T14:50:39.963Z</time></trkpt><trkpt lat="44.3542075" lon="11.7121309"><ele>51.85714285714286</ele><time>2026-05-01T14:50:42.959Z</time></trkpt><trkpt lat="44.3541779" lon="11.712213"><ele>52.14285714285714</ele><time>2026-05-01T14:50:48.967Z</time></trkpt><trkpt lat="44.3541308" lon="11.7122983"><ele>52.42857142857142</ele><time>2026-05-01T14:50:56.973Z</time></trkpt><trkpt lat="44.3541923" lon="11.7123529"><ele>52.714285714285715</ele><time>2026-05-01T14:51:46.965Z</time></trkpt><trkpt lat="44.3542405" lon="11.7122693"><ele>53.0</ele><time>2026-05-01T14:54:26.947Z</time></trkpt><trkpt lat="44.3543022" lon="11.712216"><ele>53.00000000000001</ele><time>2026-05-01T14:54:27.951Z</time></trkpt><trkpt lat="44.3544022" lon="11.7121431"><ele>53.0</ele><time>2026-05-01T14:54:29.946Z</time></trkpt><trkpt lat="44.3544687" lon="11.7121083"><ele>53.0</ele><time>2026-05-01T14:54:31.947Z</time></trkpt><trkpt lat="44.3545337" lon="11.7121397"><ele>53.0</ele><time>2026-05-01T14:54:37.942Z</time></trkpt><trkpt lat="44.3544738" lon="11.7121711"><ele>53.00000000000001</ele><time>2026-05-01T14:54:39.949Z</time></trkpt><trkpt lat="44.354402" lon="11.7121852"><ele>53.0</ele><time>2026-05-01T14:54:41.944Z</time></trkpt><trkpt lat="44.3543377" lon="11.7122094"><ele>53.0</ele><time>2026-05-01T14:54:44.947Z</time></trkpt><trkpt lat="44.3542582" lon="11.7122159"><ele>53.0</ele><time>2026-05-01T14:54:49.95Z</time></trkpt><trkpt lat="44.354207" lon="11.7122936"><ele>53.0</ele><time>2026-05-01T14:54:53.963Z</time></trkpt><trkpt lat="44.3541782" lon="11.7123731"><ele>53.0</ele><time>2026-05-01T14:54:58.95Z</time></trkpt><trkpt lat="44.3541416" lon="11.7124475"><ele>53.0</ele><time>2026-05-01T14:55:09.948Z</time></trkpt><trkpt lat="44.3541488" lon="11.7123596"><ele>53.0</ele><time>2026-05-01T14:55:18.954Z</time></trkpt><trkpt lat="44.3542088" lon="11.7122878"><ele>53.0</ele><time>2026-05-01T14:55:23.951Z</time></trkpt><trkpt lat="44.3541525" lon="11.7123414"><ele>53.00000000000001</ele><time>2026-05-01T14:55:34.959Z</time></trkpt><trkpt lat="44.3540599" lon="11.7123663"><ele>53.0</ele><time>2026-05-01T14:55:36.954Z</time></trkpt><trkpt lat="44.3539611" lon="11.7124103"><ele>53.0</ele><time>2026-05-01T14:55:38.952Z</time></trkpt><trkpt lat="44.3540334" lon="11.7123597"><ele>53.0</ele><time>2026-05-01T14:55:40.948Z</time></trkpt><trkpt lat="44.3541013" lon="11.7123195"><ele>53.00000000000001</ele><time>2026-05-01T14:55:42.953Z</time></trkpt><trkpt lat="44.3541578" lon="11.7123736"><ele>53.0</ele><time>2026-05-01T14:56:06.967Z</time></trkpt><trkpt lat="44.3540834" lon="11.7122519"><ele>53.0</ele><time>2026-05-01T14:57:55.957Z</time></trkpt><trkpt lat="44.3541283" lon="11.7123185"><ele>53.0</ele><time>2026-05-01T15:04:48.959Z</time></trkpt><trkpt lat="44.3540538" lon="11.7123382"><ele>53.0</ele><time>2026-05-01T15:06:20.95Z</time></trkpt><trkpt lat="44.3540066" lon="11.7124054"><ele>53.0</ele><time>2026-05-01T15:06:23.959Z</time></trkpt><trkpt lat="44.3539606" lon="11.712476"><ele>53.0</ele><time>2026-05-01T15:06:26.955Z</time></trkpt><trkpt lat="44.3539144" lon="11.7125589"><ele>53.0</ele><time>2026-05-01T15:06:30.963Z</time></trkpt><trkpt lat="44.3538807" lon="11.7126532"><ele>53.0</ele><time>2026-05-01T15:06:34.958Z</time></trkpt><trkpt lat="44.3538329" lon="11.7127388"><ele>53.333333333333336</ele><time>2026-05-01T15:06:37.969Z</time></trkpt><trkpt lat="44.3537878" lon="11.7128469"><ele>53.66666666666667</ele><time>2026-05-01T15:06:40.955Z</time></trkpt><trkpt lat="44.3537466" lon="11.712928"><ele>54.0</ele><time>2026-05-01T15:06:42.952Z</time></trkpt><trkpt lat="44.353714" lon="11.7130204"><ele>54.33333333333333</ele><time>2026-05-01T15:06:44.958Z</time></trkpt><trkpt lat="44.3536678" lon="11.7131612"><ele>54.666666666666664</ele><time>2026-05-01T15:06:47.961Z</time></trkpt><trkpt lat="44.3536485" lon="11.7132674"><ele>55.0</ele><time>2026-05-01T15:06:49.956Z</time></trkpt><trkpt lat="44.3536369" lon="11.713369"><ele>54.99999999999999</ele><time>2026-05-01T15:06:51.976Z</time></trkpt><trkpt lat="44.3536182" lon="11.7134586"><ele>55.0</ele><time>2026-05-01T15:06:53.952Z</time></trkpt><trkpt lat="44.3535944" lon="11.7135461"><ele>55.0</ele><time>2026-05-01T15:06:55.953Z</time></trkpt><trkpt lat="44.3535676" lon="11.7136291"><ele>55.0</ele><time>2026-05-01T15:06:57.95Z</time></trkpt><trkpt lat="44.3534998" lon="11.7136797"><ele>55.0</ele><time>2026-05-01T15:06:59.903Z</time></trkpt><trkpt lat="44.3534502" lon="11.7137478"><ele>54.99999999999999</ele><time>2026-05-01T15:07:01.949Z</time></trkpt><trkpt lat="44.353411" lon="11.7138563"><ele>55.0</ele><time>2026-05-01T15:07:04.96Z</time></trkpt><trkpt lat="44.3533829" lon="11.7139618"><ele>54.99999999999999</ele><time>2026-05-01T15:07:07.964Z</time></trkpt><trkpt lat="44.353396" lon="11.7140665"><ele>55.0</ele><time>2026-05-01T15:07:10.963Z</time></trkpt><trkpt lat="44.3533888" lon="11.7141587"><ele>55.0</ele><time>2026-05-01T15:07:14.95Z</time></trkpt><trkpt lat="44.3533541" lon="11.7142645"><ele>55.0</ele><time>2026-05-01T15:07:17.957Z</time></trkpt><trkpt lat="44.3533237" lon="11.7143689"><ele>54.99999999999999</ele><time>2026-05-01T15:07:19.953Z</time></trkpt><trkpt lat="44.353298" lon="11.7144791"><ele>55.0</ele><time>2026-05-01T15:07:21.955Z</time></trkpt><trkpt lat="44.3532666" lon="11.7145783"><ele>54.857142857142854</ele><time>2026-05-01T15:07:23.95Z</time></trkpt><trkpt lat="44.3532329" lon="11.7146586"><ele>54.714285714285715</ele><time>2026-05-01T15:07:25.897Z</time></trkpt><trkpt lat="44.3531686" lon="11.7147407"><ele>54.57142857142857</ele><time>2026-05-01T15:07:28.96Z</time></trkpt><trkpt lat="44.3531051" lon="11.7147797"><ele>54.42857142857143</ele><time>2026-05-01T15:07:30.959Z</time></trkpt><trkpt lat="44.3530603" lon="11.7148523"><ele>54.285714285714285</ele><time>2026-05-01T15:07:32.973Z</time></trkpt><trkpt lat="44.3530266" lon="11.714935"><ele>54.14285714285714</ele><time>2026-05-01T15:07:35.034Z</time></trkpt><trkpt lat="44.3530078" lon="11.7150238"><ele>54.0</ele><time>2026-05-01T15:07:36.957Z</time></trkpt><trkpt lat="44.3529992" lon="11.7151463"><ele>53.5</ele><time>2026-05-01T15:07:39.971Z</time></trkpt><trkpt lat="44.3529647" lon="11.7152662"><ele>53.0</ele><time>2026-05-01T15:07:42.976Z</time></trkpt><trkpt lat="44.3529288" lon="11.7153706"><ele>52.5</ele><time>2026-05-01T15:07:44.974Z</time></trkpt><trkpt lat="44.3529043" lon="11.715494"><ele>52.0</ele><time>2026-05-01T15:07:46.971Z</time></trkpt><trkpt lat="44.3528726" lon="11.7156119"><ele>51.5</ele><time>2026-05-01T15:07:48.97Z</time></trkpt><trkpt lat="44.3528332" lon="11.7157228"><ele>51.0</ele><time>2026-05-01T15:07:50.968Z</time></trkpt><trkpt lat="44.3527902" lon="11.7158267"><ele>51.0</ele><time>2026-05-01T15:07:52.957Z</time></trkpt><trkpt lat="44.3527515" lon="11.7159256"><ele>51.0</ele><time>2026-05-01T15:07:54.974Z</time></trkpt><trkpt lat="44.3526915" lon="11.7159981"><ele>51.0</ele><time>2026-05-01T15:07:57.97Z</time></trkpt><trkpt lat="44.3526934" lon="11.7158709"><ele>51.0</ele><time>2026-05-01T15:08:06.957Z</time></trkpt><trkpt lat="44.3526381" lon="11.7158151"><ele>51.0</ele><time>2026-05-01T15:08:08.963Z</time></trkpt><trkpt lat="44.3525644" lon="11.7157832"><ele>51.0</ele><time>2026-05-01T15:08:10.967Z</time></trkpt><trkpt lat="44.3524911" lon="11.7157281"><ele>51.0</ele><time>2026-05-01T15:08:12.977Z</time></trkpt><trkpt lat="44.3524201" lon="11.7156637"><ele>51.0</ele><time>2026-05-01T15:08:14.97Z</time></trkpt><trkpt lat="44.3523507" lon="11.7156025"><ele>51.0</ele><time>2026-05-01T15:08:16.972Z</time></trkpt><trkpt lat="44.3522779" lon="11.7155262"><ele>51.0</ele><time>2026-05-01T15:08:18.973Z</time></trkpt><trkpt lat="44.3522061" lon="11.7154541"><ele>51.0</ele><time>2026-05-01T15:08:20.965Z</time></trkpt><trkpt lat="44.3521417" lon="11.7153903"><ele>51.0</ele><time>2026-05-01T15:08:22.936Z</time></trkpt><trkpt lat="44.3520907" lon="11.7153101"><ele>50.666666666666664</ele><time>2026-05-01T15:08:24.974Z</time></trkpt><trkpt lat="44.3520215" lon="11.7152891"><ele>50.33333333333333</ele><time>2026-05-01T15:08:26.967Z</time></trkpt><trkpt lat="44.3519538" lon="11.7153419"><ele>50.0</ele><time>2026-05-01T15:08:28.945Z</time></trkpt><trkpt lat="44.3519022" lon="11.7154363"><ele>49.666666666666664</ele><time>2026-05-01T15:08:30.96Z</time></trkpt><trkpt lat="44.3518536" lon="11.7155246"><ele>49.33333333333333</ele><time>2026-05-01T15:08:32.965Z</time></trkpt><trkpt lat="44.3518094" lon="11.7156487"><ele>49.0</ele><time>2026-05-01T15:08:34.964Z</time></trkpt><trkpt lat="44.3517267" lon="11.7157215"><ele>49.0</ele><time>2026-05-01T15:08:36.969Z</time></trkpt><trkpt lat="44.35163" lon="11.7157057"><ele>49.0</ele><time>2026-05-01T15:08:38.975Z</time></trkpt><trkpt lat="44.3515399" lon="11.7156757"><ele>49.0</ele><time>2026-05-01T15:08:40.962Z</time></trkpt><trkpt lat="44.3514507" lon="11.7156697"><ele>49.0</ele><time>2026-05-01T15:08:42.974Z</time></trkpt><trkpt lat="44.3513564" lon="11.7156643"><ele>49.0</ele><time>2026-05-01T15:08:44.957Z</time></trkpt><trkpt lat="44.351257" lon="11.715659"><ele>48.6</ele><time>2026-05-01T15:08:46.953Z</time></trkpt><trkpt lat="44.3511604" lon="11.7156503"><ele>48.2</ele><time>2026-05-01T15:08:48.962Z</time></trkpt><trkpt lat="44.3510682" lon="11.7156336"><ele>47.800000000000004</ele><time>2026-05-01T15:08:50.959Z</time></trkpt><trkpt lat="44.3509771" lon="11.7156167"><ele>47.400000000000006</ele><time>2026-05-01T15:08:52.955Z</time></trkpt><trkpt lat="44.3508896" lon="11.7155997"><ele>47.0</ele><time>2026-05-01T15:08:54.957Z</time></trkpt><trkpt lat="44.3508036" lon="11.7155714"><ele>47.0</ele><time>2026-05-01T15:08:56.955Z</time></trkpt><trkpt lat="44.3507258" lon="11.7155567"><ele>47.0</ele><time>2026-05-01T15:08:58.96Z</time></trkpt><trkpt lat="44.3506488" lon="11.7155423"><ele>47.0</ele><time>2026-05-01T15:09:00.955Z</time></trkpt><trkpt lat="44.3505763" lon="11.7155296"><ele>47.0</ele><time>2026-05-01T15:09:02.962Z</time></trkpt><trkpt lat="44.3505065" lon="11.7155129"><ele>47.0</ele><time>2026-05-01T15:09:04.956Z</time></trkpt><trkpt lat="44.3504336" lon="11.7154819"><ele>47.0</ele><time>2026-05-01T15:09:07.079Z</time></trkpt><trkpt lat="44.3503846" lon="11.7153861"><ele>46.857142857142854</ele><time>2026-05-01T15:09:09.96Z</time></trkpt><trkpt lat="44.3503829" lon="11.7152957"><ele>46.71428571428571</ele><time>2026-05-01T15:09:11.958Z</time></trkpt><trkpt lat="44.3503679" lon="11.7151984"><ele>46.57142857142857</ele><time>2026-05-01T15:09:13.958Z</time></trkpt><trkpt lat="44.3503711" lon="11.7150954"><ele>46.42857142857143</ele><time>2026-05-01T15:09:15.956Z</time></trkpt><trkpt lat="44.3503931" lon="11.7150035"><ele>46.285714285714285</ele><time>2026-05-01T15:09:17.956Z</time></trkpt><trkpt lat="44.3504325" lon="11.7149289"><ele>46.142857142857146</ele><time>2026-05-01T15:09:19.958Z</time></trkpt><trkpt lat="44.3504395" lon="11.7148345"><ele>46.0</ele><time>2026-05-01T15:09:21.958Z</time></trkpt><trkpt lat="44.3504359" lon="11.7147388"><ele>45.833333333333336</ele><time>2026-05-01T15:09:23.961Z</time></trkpt><trkpt lat="44.3504689" lon="11.7146552"><ele>45.66666666666667</ele><time>2026-05-01T15:09:25.958Z</time></trkpt><trkpt lat="44.3505125" lon="11.7145698"><ele>45.5</ele><time>2026-05-01T15:09:27.956Z</time></trkpt><trkpt lat="44.3505588" lon="11.7144798"><ele>45.333333333333336</ele><time>2026-05-01T15:09:29.957Z</time></trkpt><trkpt lat="44.3506023" lon="11.7143909"><ele>45.166666666666664</ele><time>2026-05-01T15:09:31.966Z</time></trkpt><trkpt lat="44.3506509" lon="11.7143057"><ele>45.0</ele><time>2026-05-01T15:09:33.963Z</time></trkpt><trkpt lat="44.3506961" lon="11.7142214"><ele>45.5</ele><time>2026-05-01T15:09:35.959Z</time></trkpt><trkpt lat="44.3507219" lon="11.7141177"><ele>46.0</ele><time>2026-05-01T15:09:37.958Z</time></trkpt><trkpt lat="44.350762" lon="11.7140207"><ele>46.5</ele><time>2026-05-01T15:09:39.963Z</time></trkpt><trkpt lat="44.3508032" lon="11.7139514"><ele>47.0</ele><time>2026-05-01T15:09:41.968Z</time></trkpt><trkpt lat="44.3508504" lon="11.7138525"><ele>47.5</ele><time>2026-05-01T15:09:44.964Z</time></trkpt><trkpt lat="44.3509008" lon="11.7137567"><ele>48.0</ele><time>2026-05-01T15:09:47.967Z</time></trkpt><trkpt lat="44.3509482" lon="11.7136683"><ele>47.99999999999999</ele><time>2026-05-01T15:09:50.96Z</time></trkpt><trkpt lat="44.3509808" lon="11.7135791"><ele>48.0</ele><time>2026-05-01T15:09:53.958Z</time></trkpt><trkpt lat="44.3510266" lon="11.7134848"><ele>48.0</ele><time>2026-05-01T15:09:57.959Z</time></trkpt><trkpt lat="44.3510741" lon="11.7134046"><ele>48.0</ele><time>2026-05-01T15:10:01.96Z</time></trkpt><trkpt lat="44.3511301" lon="11.7133369"><ele>48.0</ele><time>2026-05-01T15:10:11.955Z</time></trkpt><trkpt lat="44.3511534" lon="11.7132511"><ele>47.99999999999999</ele><time>2026-05-01T15:10:31.957Z</time></trkpt><trkpt lat="44.3511694" lon="11.7131587"><ele>48.0</ele><time>2026-05-01T15:10:35.949Z</time></trkpt><trkpt lat="44.3511967" lon="11.7130759"><ele>47.99999999999999</ele><time>2026-05-01T15:10:38.964Z</time></trkpt><trkpt lat="44.3512042" lon="11.7129761"><ele>48.0</ele><time>2026-05-01T15:10:41.966Z</time></trkpt><trkpt lat="44.3511789" lon="11.7128924"><ele>48.0</ele><time>2026-05-01T15:10:43.97Z</time></trkpt><trkpt lat="44.3511266" lon="11.7128287"><ele>48.0</ele><time>2026-05-01T15:10:45.96Z</time></trkpt><trkpt lat="44.3510482" lon="11.7127961"><ele>48.0</ele><time>2026-05-01T15:10:49.033Z</time></trkpt><trkpt lat="44.3509833" lon="11.7127591"><ele>47.99999999999999</ele><time>2026-05-01T15:10:51.971Z</time></trkpt><trkpt lat="44.3509073" lon="11.7127275"><ele>48.0</ele><time>2026-05-01T15:10:55.061Z</time></trkpt><trkpt lat="44.3508351" lon="11.7127015"><ele>47.833333333333336</ele><time>2026-05-01T15:10:57.991Z</time></trkpt><trkpt lat="44.3507581" lon="11.7126943"><ele>47.666666666666664</ele><time>2026-05-01T15:11:01.983Z</time></trkpt><trkpt lat="44.3506732" lon="11.7126977"><ele>47.5</ele><time>2026-05-01T15:11:05.974Z</time></trkpt><trkpt lat="44.3506061" lon="11.712695"><ele>47.33333333333333</ele><time>2026-05-01T15:11:08.977Z</time></trkpt><trkpt lat="44.3505248" lon="11.7126992"><ele>47.166666666666664</ele><time>2026-05-01T15:11:12.984Z</time></trkpt><trkpt lat="44.3504582" lon="11.712692"><ele>47.0</ele><time>2026-05-01T15:11:16.981Z</time></trkpt><trkpt lat="44.3503792" lon="11.7127023"><ele>47.0</ele><time>2026-05-01T15:11:22.987Z</time></trkpt><trkpt lat="44.3503123" lon="11.7126928"><ele>47.0</ele><time>2026-05-01T15:11:26.983Z</time></trkpt><trkpt lat="44.3502375" lon="11.7126802"><ele>47.0</ele><time>2026-05-01T15:11:30.985Z</time></trkpt><trkpt lat="44.3501526" lon="11.712657"><ele>47.0</ele><time>2026-05-01T15:11:33.984Z</time></trkpt><trkpt lat="44.3500784" lon="11.7126609"><ele>47.0</ele><time>2026-05-01T15:11:35.986Z</time></trkpt><trkpt lat="44.3499931" lon="11.7126731"><ele>47.0</ele><time>2026-05-01T15:11:37.981Z</time></trkpt><trkpt lat="44.3499112" lon="11.7126697"><ele>47.0</ele><time>2026-05-01T15:11:40Z</time></trkpt><trkpt lat="44.3498208" lon="11.7126654"><ele>47.0</ele><time>2026-05-01T15:11:41.987Z</time></trkpt><trkpt lat="44.34972" lon="11.7126583"><ele>47.0</ele><time>2026-05-01T15:11:43.985Z</time></trkpt><trkpt lat="44.3496176" lon="11.7126714"><ele>47.0</ele><time>2026-05-01T15:11:45.99Z</time></trkpt><trkpt lat="44.3495118" lon="11.7126819"><ele>47.0</ele><time>2026-05-01T15:11:47.983Z</time></trkpt><trkpt lat="44.3494069" lon="11.7126764"><ele>47.0</ele><time>2026-05-01T15:11:49.986Z</time></trkpt><trkpt lat="44.3493039" lon="11.712682"><ele>47.0</ele><time>2026-05-01T15:11:51.983Z</time></trkpt><trkpt lat="44.3491968" lon="11.7126802"><ele>47.0</ele><time>2026-05-01T15:11:53.975Z</time></trkpt><trkpt lat="44.349084" lon="11.7126861"><ele>47.0</ele><time>2026-05-01T15:11:55.981Z</time></trkpt><trkpt lat="44.3489755" lon="11.7126853"><ele>47.0</ele><time>2026-05-01T15:11:57.987Z</time></trkpt><trkpt lat="44.3488648" lon="11.7126888"><ele>47.0</ele><time>2026-05-01T15:11:59.975Z</time></trkpt><trkpt lat="44.3487532" lon="11.7126937"><ele>47.0</ele><time>2026-05-01T15:12:01.963Z</time></trkpt><trkpt lat="44.3486408" lon="11.7127043"><ele>47.0</ele><time>2026-05-01T15:12:03.981Z</time></trkpt><trkpt lat="44.3485381" lon="11.7127116"><ele>47.0</ele><time>2026-05-01T15:12:05.967Z</time></trkpt><trkpt lat="44.3484434" lon="11.7127008"><ele>47.0</ele><time>2026-05-01T15:12:07.992Z</time></trkpt><trkpt lat="44.3483483" lon="11.7126397"><ele>47.0</ele><time>2026-05-01T15:12:10.038Z</time></trkpt><trkpt lat="44.3482375" lon="11.7126106"><ele>47.0</ele><time>2026-05-01T15:12:11.99Z</time></trkpt><trkpt lat="44.3481157" lon="11.7126563"><ele>47.0</ele><time>2026-05-01T15:12:13.984Z</time></trkpt><trkpt lat="44.3480174" lon="11.7127235"><ele>47.0</ele><time>2026-05-01T15:12:15.991Z</time></trkpt><trkpt lat="44.3479209" lon="11.7127755"><ele>47.0</ele><time>2026-05-01T15:12:17.999Z</time></trkpt><trkpt lat="44.3478239" lon="11.7127507"><ele>47.0</ele><time>2026-05-01T15:12:20.039Z</time></trkpt><trkpt lat="44.3477183" lon="11.7127304"><ele>47.0</ele><time>2026-05-01T15:12:21.972Z</time></trkpt><trkpt lat="44.3476131" lon="11.7127188"><ele>47.0</ele><time>2026-05-01T15:12:23.978Z</time></trkpt><trkpt lat="44.3475025" lon="11.7127185"><ele>47.0</ele><time>2026-05-01T15:12:25.971Z</time></trkpt><trkpt lat="44.3473998" lon="11.712716"><ele>47.0</ele><time>2026-05-01T15:12:27.974Z</time></trkpt><trkpt lat="44.3472892" lon="11.7127063"><ele>47.0</ele><time>2026-05-01T15:12:30.038Z</time></trkpt><trkpt lat="44.3471697" lon="11.7127035"><ele>47.0</ele><time>2026-05-01T15:12:31.963Z</time></trkpt><trkpt lat="44.3470446" lon="11.7127176"><ele>47.0</ele><time>2026-05-01T15:12:33.969Z</time></trkpt><trkpt lat="44.3469188" lon="11.7127186"><ele>46.33333333333333</ele><time>2026-05-01T15:12:35.952Z</time></trkpt><trkpt lat="44.3467947" lon="11.7127302"><ele>45.666666666666664</ele><time>2026-05-01T15:12:37.967Z</time></trkpt><trkpt lat="44.3466715" lon="11.7127345"><ele>45.0</ele><time>2026-05-01T15:12:39.962Z</time></trkpt><trkpt lat="44.3466078" lon="11.712733"><ele>44.333333333333336</ele><time>2026-05-01T15:12:40.96Z</time></trkpt><trkpt lat="44.3465428" lon="11.7127307"><ele>43.66666666666667</ele><time>2026-05-01T15:12:41.961Z</time></trkpt><trkpt lat="44.3464794" lon="11.7127285"><ele>43.0</ele><time>2026-05-01T15:12:42.961Z</time></trkpt><trkpt lat="44.3463576" lon="11.7127222"><ele>42.4</ele><time>2026-05-01T15:12:44.965Z</time></trkpt><trkpt lat="44.3462418" lon="11.7127117"><ele>41.8</ele><time>2026-05-01T15:12:46.967Z</time></trkpt><trkpt lat="44.3461356" lon="11.7127132"><ele>41.2</ele><time>2026-05-01T15:12:48.962Z</time></trkpt><trkpt lat="44.3460326" lon="11.7127169"><ele>40.6</ele><time>2026-05-01T15:12:50.962Z</time></trkpt><trkpt lat="44.3459372" lon="11.7127092"><ele>40.0</ele><time>2026-05-01T15:12:52.966Z</time></trkpt><trkpt lat="44.3458587" lon="11.7127016"><ele>40.0</ele><time>2026-05-01T15:12:54.961Z</time></trkpt><trkpt lat="44.3457742" lon="11.7127045"><ele>40.0</ele><time>2026-05-01T15:12:56.956Z</time></trkpt><trkpt lat="44.3456902" lon="11.7127307"><ele>40.0</ele><time>2026-05-01T15:12:58.964Z</time></trkpt><trkpt lat="44.3456072" lon="11.7127372"><ele>40.0</ele><time>2026-05-01T15:13:00.965Z</time></trkpt><trkpt lat="44.3455282" lon="11.7127444"><ele>40.0</ele><time>2026-05-01T15:13:02.957Z</time></trkpt><trkpt lat="44.3454549" lon="11.7127624"><ele>40.0</ele><time>2026-05-01T15:13:04.959Z</time></trkpt><trkpt lat="44.3453782" lon="11.7127573"><ele>39.66666666666667</ele><time>2026-05-01T15:13:06.962Z</time></trkpt><trkpt lat="44.3452952" lon="11.7127429"><ele>39.333333333333336</ele><time>2026-05-01T15:13:08.962Z</time></trkpt><trkpt lat="44.3452113" lon="11.7127516"><ele>39.0</ele><time>2026-05-01T15:13:10.973Z</time></trkpt><trkpt lat="44.3451459" lon="11.71276"><ele>38.666666666666664</ele><time>2026-05-01T15:13:12.956Z</time></trkpt><trkpt lat="44.3450797" lon="11.7127613"><ele>38.33333333333333</ele><time>2026-05-01T15:13:14.985Z</time></trkpt><trkpt lat="44.3449881" lon="11.7127609"><ele>38.0</ele><time>2026-05-01T15:13:17.964Z</time></trkpt><trkpt lat="44.3449205" lon="11.7127657"><ele>38.33333333333333</ele><time>2026-05-01T15:13:19.967Z</time></trkpt><trkpt lat="44.344834" lon="11.7127259"><ele>38.666666666666664</ele><time>2026-05-01T15:13:22.963Z</time></trkpt><trkpt lat="44.3447831" lon="11.7126242"><ele>39.0</ele><time>2026-05-01T15:13:25.955Z</time></trkpt><trkpt lat="44.3447721" lon="11.7125162"><ele>39.333333333333336</ele><time>2026-05-01T15:13:27.957Z</time></trkpt><trkpt lat="44.3447752" lon="11.7124075"><ele>39.66666666666667</ele><time>2026-05-01T15:13:29.962Z</time></trkpt><trkpt lat="44.3447852" lon="11.7122921"><ele>40.0</ele><time>2026-05-01T15:13:31.952Z</time></trkpt><trkpt lat="44.3447866" lon="11.7121939"><ele>40.0</ele><time>2026-05-01T15:13:33.951Z</time></trkpt><trkpt lat="44.3447881" lon="11.7120974"><ele>40.0</ele><time>2026-05-01T15:13:35.974Z</time></trkpt><trkpt lat="44.3447807" lon="11.7119817"><ele>40.0</ele><time>2026-05-01T15:13:37.955Z</time></trkpt><trkpt lat="44.3447721" lon="11.7118684"><ele>40.0</ele><time>2026-05-01T15:13:39.958Z</time></trkpt><trkpt lat="44.3447564" lon="11.7117397"><ele>40.0</ele><time>2026-05-01T15:13:41.954Z</time></trkpt><trkpt lat="44.3447364" lon="11.7115935"><ele>40.0</ele><time>2026-05-01T15:13:43.961Z</time></trkpt><trkpt lat="44.3447174" lon="11.7114413"><ele>41.0</ele><time>2026-05-01T15:13:45.955Z</time></trkpt><trkpt lat="44.344701" lon="11.7112854"><ele>42.0</ele><time>2026-05-01T15:13:47.952Z</time></trkpt><trkpt lat="44.3446861" lon="11.7111299"><ele>43.0</ele><time>2026-05-01T15:13:49.966Z</time></trkpt><trkpt lat="44.3446761" lon="11.7109753"><ele>44.0</ele><time>2026-05-01T15:13:51.957Z</time></trkpt><trkpt lat="44.344666" lon="11.7108155"><ele>44.0</ele><time>2026-05-01T15:13:53.947Z</time></trkpt><trkpt lat="44.3446397" lon="11.710651"><ele>44.0</ele><time>2026-05-01T15:13:55.96Z</time></trkpt><trkpt lat="44.3445756" lon="11.7105091"><ele>44.0</ele><time>2026-05-01T15:13:57.965Z</time></trkpt><trkpt lat="44.3444762" lon="11.7104189"><ele>44.0</ele><time>2026-05-01T15:13:59.956Z</time></trkpt><trkpt lat="44.3443675" lon="11.7104107"><ele>44.0</ele><time>2026-05-01T15:14:01.95Z</time></trkpt><trkpt lat="44.3442549" lon="11.7104728"><ele>44.0</ele><time>2026-05-01T15:14:03.964Z</time></trkpt><trkpt lat="44.3441681" lon="11.710499"><ele>44.0</ele><time>2026-05-01T15:14:05.956Z</time></trkpt><trkpt lat="44.3441099" lon="11.710582"><ele>44.0</ele><time>2026-05-01T15:14:07.962Z</time></trkpt><trkpt lat="44.3440901" lon="11.7107038"><ele>44.0</ele><time>2026-05-01T15:14:09.962Z</time></trkpt><trkpt lat="44.3440931" lon="11.7108066"><ele>44.0</ele><time>2026-05-01T15:14:11.965Z</time></trkpt><trkpt lat="44.344082" lon="11.7109069"><ele>44.0</ele><time>2026-05-01T15:14:13.953Z</time></trkpt><trkpt lat="44.344084" lon="11.7110223"><ele>44.0</ele><time>2026-05-01T15:14:16.958Z</time></trkpt><trkpt lat="44.3440643" lon="11.7109172"><ele>44.0</ele><time>2026-05-01T15:14:23.957Z</time></trkpt><trkpt lat="44.3440645" lon="11.7107834"><ele>44.0</ele><time>2026-05-01T15:14:26.953Z</time></trkpt><trkpt lat="44.3440684" lon="11.7106935"><ele>44.0</ele><time>2026-05-01T15:14:28.951Z</time></trkpt><trkpt lat="44.3440808" lon="11.7106001"><ele>44.0</ele><time>2026-05-01T15:14:30.971Z</time></trkpt><trkpt lat="44.344101" lon="11.7104855"><ele>44.0</ele><time>2026-05-01T15:14:32.963Z</time></trkpt><trkpt lat="44.3440789" lon="11.7103646"><ele>44.0</ele><time>2026-05-01T15:14:34.971Z</time></trkpt><trkpt lat="44.3440477" lon="11.7102424"><ele>44.0</ele><time>2026-05-01T15:14:36.964Z</time></trkpt><trkpt lat="44.3440278" lon="11.7101377"><ele>44.0</ele><time>2026-05-01T15:14:38.966Z</time></trkpt><trkpt lat="44.3440085" lon="11.7100383"><ele>44.0</ele><time>2026-05-01T15:14:40.958Z</time></trkpt><trkpt lat="44.3440023" lon="11.7099381"><ele>43.85714285714286</ele><time>2026-05-01T15:14:42.969Z</time></trkpt><trkpt lat="44.344017" lon="11.7098513"><ele>43.714285714285715</ele><time>2026-05-01T15:14:44.968Z</time></trkpt><trkpt lat="44.3440466" lon="11.7097644"><ele>43.57142857142857</ele><time>2026-05-01T15:14:46.963Z</time></trkpt><trkpt lat="44.3440629" lon="11.7096663"><ele>43.42857142857143</ele><time>2026-05-01T15:14:48.958Z</time></trkpt><trkpt lat="44.3440801" lon="11.7095698"><ele>43.285714285714285</ele><time>2026-05-01T15:14:50.971Z</time></trkpt><trkpt lat="44.34408" lon="11.7094661"><ele>43.142857142857146</ele><time>2026-05-01T15:14:52.958Z</time></trkpt><trkpt lat="44.3440628" lon="11.7093713"><ele>43.0</ele><time>2026-05-01T15:14:54.969Z</time></trkpt><trkpt lat="44.3440436" lon="11.7092741"><ele>43.0</ele><time>2026-05-01T15:14:56.966Z</time></trkpt><trkpt lat="44.3440156" lon="11.7091879"><ele>43.0</ele><time>2026-05-01T15:14:58.964Z</time></trkpt><trkpt lat="44.3439895" lon="11.7090674"><ele>43.0</ele><time>2026-05-01T15:15:01.963Z</time></trkpt><trkpt lat="44.3439602" lon="11.708983"><ele>43.0</ele><time>2026-05-01T15:15:04.967Z</time></trkpt><trkpt lat="44.3439091" lon="11.7088938"><ele>43.0</ele><time>2026-05-01T15:15:08.972Z</time></trkpt><trkpt lat="44.3438559" lon="11.7088276"><ele>43.0</ele><time>2026-05-01T15:15:11.961Z</time></trkpt><trkpt lat="44.3437919" lon="11.7087794"><ele>43.142857142857146</ele><time>2026-05-01T15:15:14.964Z</time></trkpt><trkpt lat="44.3437339" lon="11.7087172"><ele>43.285714285714285</ele><time>2026-05-01T15:15:17.961Z</time></trkpt><trkpt lat="44.3436675" lon="11.7086839"><ele>43.42857142857143</ele><time>2026-05-01T15:15:20.961Z</time></trkpt><trkpt lat="44.3435946" lon="11.7086548"><ele>43.57142857142857</ele><time>2026-05-01T15:15:23.96Z</time></trkpt><trkpt lat="44.3435286" lon="11.7086326"><ele>43.714285714285715</ele><time>2026-05-01T15:15:26.968Z</time></trkpt><trkpt lat="44.343462" lon="11.7085944"><ele>43.85714285714286</ele><time>2026-05-01T15:15:29.965Z</time></trkpt><trkpt lat="44.3434009" lon="11.7085458"><ele>44.0</ele><time>2026-05-01T15:15:32.963Z</time></trkpt><trkpt lat="44.3433397" lon="11.7084829"><ele>44.142857142857146</ele><time>2026-05-01T15:15:36.975Z</time></trkpt><trkpt lat="44.3432898" lon="11.7084279"><ele>44.285714285714285</ele><time>2026-05-01T15:15:39.962Z</time></trkpt><trkpt lat="44.3432225" lon="11.7083876"><ele>44.42857142857143</ele><time>2026-05-01T15:15:42.956Z</time></trkpt><trkpt lat="44.3431514" lon="11.7083422"><ele>44.57142857142857</ele><time>2026-05-01T15:15:45.963Z</time></trkpt><trkpt lat="44.3430904" lon="11.7082871"><ele>44.714285714285715</ele><time>2026-05-01T15:15:48.957Z</time></trkpt><trkpt lat="44.3430638" lon="11.7081956"><ele>44.857142857142854</ele><time>2026-05-01T15:15:52.961Z</time></trkpt><trkpt lat="44.3430528" lon="11.7081015"><ele>45.0</ele><time>2026-05-01T15:15:56.964Z</time></trkpt><trkpt lat="44.3430239" lon="11.7080148"><ele>46.0</ele><time>2026-05-01T15:15:59.96Z</time></trkpt><trkpt lat="44.3429753" lon="11.7079013"><ele>47.0</ele><time>2026-05-01T15:16:02.95Z</time></trkpt><trkpt lat="44.3429445" lon="11.7078035"><ele>48.0</ele><time>2026-05-01T15:16:04.967Z</time></trkpt><trkpt lat="44.3429152" lon="11.7076831"><ele>49.0</ele><time>2026-05-01T15:16:06.961Z</time></trkpt><trkpt lat="44.3429002" lon="11.7075759"><ele>50.0</ele><time>2026-05-01T15:16:08.963Z</time></trkpt><trkpt lat="44.342884" lon="11.707469"><ele>51.0</ele><time>2026-05-01T15:16:10.975Z</time></trkpt><trkpt lat="44.34288" lon="11.7073747"><ele>51.0</ele><time>2026-05-01T15:16:12.977Z</time></trkpt><trkpt lat="44.3428689" lon="11.707276"><ele>51.0</ele><time>2026-05-01T15:16:16.962Z</time></trkpt><trkpt lat="44.3428516" lon="11.7071847"><ele>51.0</ele><time>2026-05-01T15:16:18.975Z</time></trkpt><trkpt lat="44.3428287" lon="11.7070939"><ele>51.0</ele><time>2026-05-01T15:16:20.962Z</time></trkpt><trkpt lat="44.3428083" lon="11.7070026"><ele>51.0</ele><time>2026-05-01T15:16:22.969Z</time></trkpt><trkpt lat="44.3427841" lon="11.7069016"><ele>51.0</ele><time>2026-05-01T15:16:24.961Z</time></trkpt><trkpt lat="44.342757" lon="11.706807"><ele>51.0</ele><time>2026-05-01T15:16:27.968Z</time></trkpt><trkpt lat="44.3427198" lon="11.7067295"><ele>50.0</ele><time>2026-05-01T15:16:30.964Z</time></trkpt><trkpt lat="44.3426765" lon="11.7066604"><ele>49.0</ele><time>2026-05-01T15:16:33.968Z</time></trkpt><trkpt lat="44.3426371" lon="11.7065544"><ele>48.0</ele><time>2026-05-01T15:16:36.965Z</time></trkpt><trkpt lat="44.342601" lon="11.7064752"><ele>47.0</ele><time>2026-05-01T15:16:38.971Z</time></trkpt><trkpt lat="44.3425468" lon="11.7064117"><ele>46.0</ele><time>2026-05-01T15:16:40.966Z</time></trkpt><trkpt lat="44.3424805" lon="11.7063725"><ele>45.0</ele><time>2026-05-01T15:16:42.965Z</time></trkpt><trkpt lat="44.3424116" lon="11.706324"><ele>44.0</ele><time>2026-05-01T15:16:44.968Z</time></trkpt><trkpt lat="44.3423317" lon="11.7062921"><ele>44.0</ele><time>2026-05-01T15:16:46.966Z</time></trkpt><trkpt lat="44.3422439" lon="11.7062495"><ele>44.0</ele><time>2026-05-01T15:16:48.969Z</time></trkpt><trkpt lat="44.3421567" lon="11.7062159"><ele>44.0</ele><time>2026-05-01T15:16:50.966Z</time></trkpt><trkpt lat="44.3420753" lon="11.7061769"><ele>44.0</ele><time>2026-05-01T15:16:52.967Z</time></trkpt><trkpt lat="44.3419925" lon="11.7061424"><ele>44.0</ele><time>2026-05-01T15:16:54.957Z</time></trkpt><trkpt lat="44.3419224" lon="11.7061096"><ele>44.0</ele><time>2026-05-01T15:16:56.959Z</time></trkpt><trkpt lat="44.341851" lon="11.7060801"><ele>44.0</ele><time>2026-05-01T15:16:58.962Z</time></trkpt><trkpt lat="44.341788" lon="11.7060435"><ele>44.0</ele><time>2026-05-01T15:17:00.969Z</time></trkpt><trkpt lat="44.3416979" lon="11.7059956"><ele>44.0</ele><time>2026-05-01T15:17:03.968Z</time></trkpt><trkpt lat="44.3416299" lon="11.7059405"><ele>44.0</ele><time>2026-05-01T15:17:06.965Z</time></trkpt><trkpt lat="44.34166" lon="11.7058611"><ele>44.0</ele><time>2026-05-01T15:17:37.963Z</time></trkpt><trkpt lat="44.3416665" lon="11.7057624"><ele>44.0</ele><time>2026-05-01T15:18:28.945Z</time></trkpt><trkpt lat="44.3416079" lon="11.7057284"><ele>44.0</ele><time>2026-05-01T15:18:42.967Z</time></trkpt><trkpt lat="44.3415472" lon="11.7057728"><ele>44.0</ele><time>2026-05-01T15:18:52.955Z</time></trkpt><trkpt lat="44.3414804" lon="11.7057893"><ele>44.0</ele><time>2026-05-01T15:18:56.944Z</time></trkpt><trkpt lat="44.3413938" lon="11.7057667"><ele>44.0</ele><time>2026-05-01T15:19:00.973Z</time></trkpt><trkpt lat="44.3413267" lon="11.7057401"><ele>44.0</ele><time>2026-05-01T15:19:03.97Z</time></trkpt><trkpt lat="44.3412583" lon="11.7057019"><ele>44.0</ele><time>2026-05-01T15:19:07.967Z</time></trkpt><trkpt lat="44.34118" lon="11.7056805"><ele>44.0</ele><time>2026-05-01T15:19:11.975Z</time></trkpt><trkpt lat="44.3410987" lon="11.7056473"><ele>43.714285714285715</ele><time>2026-05-01T15:19:14.967Z</time></trkpt><trkpt lat="44.3410109" lon="11.7056077"><ele>43.42857142857143</ele><time>2026-05-01T15:19:17.978Z</time></trkpt><trkpt lat="44.340945" lon="11.7055805"><ele>43.14285714285714</ele><time>2026-05-01T15:19:19.96Z</time></trkpt><trkpt lat="44.3408774" lon="11.7055512"><ele>42.85714285714286</ele><time>2026-05-01T15:19:21.979Z</time></trkpt><trkpt lat="44.3408039" lon="11.7055248"><ele>42.57142857142857</ele><time>2026-05-01T15:19:23.966Z</time></trkpt><trkpt lat="44.3407379" lon="11.7055029"><ele>42.285714285714285</ele><time>2026-05-01T15:19:25.969Z</time></trkpt><trkpt lat="44.3406715" lon="11.705487"><ele>42.0</ele><time>2026-05-01T15:19:27.949Z</time></trkpt><trkpt lat="44.3406051" lon="11.7054712"><ele>42.285714285714285</ele><time>2026-05-01T15:19:29.965Z</time></trkpt><trkpt lat="44.3405347" lon="11.7054453"><ele>42.57142857142857</ele><time>2026-05-01T15:19:31.967Z</time></trkpt><trkpt lat="44.3404725" lon="11.7054038"><ele>42.85714285714286</ele><time>2026-05-01T15:19:33.966Z</time></trkpt><trkpt lat="44.3404018" lon="11.7053702"><ele>43.14285714285714</ele><time>2026-05-01T15:19:35.973Z</time></trkpt><trkpt lat="44.3403333" lon="11.7053525"><ele>43.42857142857143</ele><time>2026-05-01T15:19:37.972Z</time></trkpt><trkpt lat="44.3402697" lon="11.7053283"><ele>43.714285714285715</ele><time>2026-05-01T15:19:39.945Z</time></trkpt><trkpt lat="44.340192" lon="11.7053142"><ele>44.0</ele><time>2026-05-01T15:19:41.956Z</time></trkpt><trkpt lat="44.3401125" lon="11.7052839"><ele>44.0</ele><time>2026-05-01T15:19:43.973Z</time></trkpt><trkpt lat="44.3400268" lon="11.7052519"><ele>44.0</ele><time>2026-05-01T15:19:45.966Z</time></trkpt><trkpt lat="44.3399486" lon="11.705224"><ele>44.0</ele><time>2026-05-01T15:19:47.97Z</time></trkpt><trkpt lat="44.3398707" lon="11.7051918"><ele>44.0</ele><time>2026-05-01T15:19:49.977Z</time></trkpt><trkpt lat="44.3397982" lon="11.705158"><ele>44.0</ele><time>2026-05-01T15:19:51.97Z</time></trkpt><trkpt lat="44.3397188" lon="11.7051275"><ele>44.0</ele><time>2026-05-01T15:19:53.971Z</time></trkpt><trkpt lat="44.3396396" lon="11.7050958"><ele>43.5</ele><time>2026-05-01T15:19:55.967Z</time></trkpt><trkpt lat="44.3395631" lon="11.7050684"><ele>43.0</ele><time>2026-05-01T15:19:57.968Z</time></trkpt><trkpt lat="44.339487" lon="11.7050327"><ele>42.5</ele><time>2026-05-01T15:19:59.963Z</time></trkpt><trkpt lat="44.3394007" lon="11.7050013"><ele>42.0</ele><time>2026-05-01T15:20:01.97Z</time></trkpt><trkpt lat="44.3393186" lon="11.7049661"><ele>41.5</ele><time>2026-05-01T15:20:03.969Z</time></trkpt><trkpt lat="44.3392366" lon="11.7049415"><ele>41.0</ele><time>2026-05-01T15:20:05.965Z</time></trkpt><trkpt lat="44.339162" lon="11.7049356"><ele>41.0</ele><time>2026-05-01T15:20:07.97Z</time></trkpt><trkpt lat="44.3390945" lon="11.704924"><ele>41.0</ele><time>2026-05-01T15:20:09.975Z</time></trkpt><trkpt lat="44.3390223" lon="11.7049168"><ele>41.0</ele><time>2026-05-01T15:20:11.967Z</time></trkpt><trkpt lat="44.3389493" lon="11.7049182"><ele>41.0</ele><time>2026-05-01T15:20:13.968Z</time></trkpt><trkpt lat="44.3388684" lon="11.704926"><ele>41.0</ele><time>2026-05-01T15:20:15.965Z</time></trkpt><trkpt lat="44.3387897" lon="11.7049239"><ele>41.0</ele><time>2026-05-01T15:20:17.966Z</time></trkpt><trkpt lat="44.3387134" lon="11.7049103"><ele>41.33333333333333</ele><time>2026-05-01T15:20:19.953Z</time></trkpt><trkpt lat="44.3386337" lon="11.7048896"><ele>41.666666666666664</ele><time>2026-05-01T15:20:21.951Z</time></trkpt><trkpt lat="44.3385538" lon="11.704873"><ele>42.0</ele><time>2026-05-01T15:20:23.947Z</time></trkpt><trkpt lat="44.3384707" lon="11.7048615"><ele>42.333333333333336</ele><time>2026-05-01T15:20:25.949Z</time></trkpt><trkpt lat="44.3383859" lon="11.7048459"><ele>42.66666666666667</ele><time>2026-05-01T15:20:27.955Z</time></trkpt><trkpt lat="44.3383067" lon="11.7048322"><ele>43.0</ele><time>2026-05-01T15:20:29.948Z</time></trkpt><trkpt lat="44.338218" lon="11.7048176"><ele>43.0</ele><time>2026-05-01T15:20:31.954Z</time></trkpt><trkpt lat="44.3381327" lon="11.7047941"><ele>43.0</ele><time>2026-05-01T15:20:33.945Z</time></trkpt><trkpt lat="44.3380448" lon="11.7047834"><ele>43.0</ele><time>2026-05-01T15:20:35.947Z</time></trkpt><trkpt lat="44.3379604" lon="11.7047727"><ele>43.0</ele><time>2026-05-01T15:20:37.973Z</time></trkpt><trkpt lat="44.3378816" lon="11.7047585"><ele>43.0</ele><time>2026-05-01T15:20:39.974Z</time></trkpt><trkpt lat="44.3378032" lon="11.7047364"><ele>43.0</ele><time>2026-05-01T15:20:41.953Z</time></trkpt><trkpt lat="44.3377178" lon="11.7047084"><ele>43.4</ele><time>2026-05-01T15:20:43.969Z</time></trkpt><trkpt lat="44.3376394" lon="11.7046397"><ele>43.8</ele><time>2026-05-01T15:20:45.96Z</time></trkpt><trkpt lat="44.3375867" lon="11.7045263"><ele>44.2</ele><time>2026-05-01T15:20:47.975Z</time></trkpt><trkpt lat="44.3375566" lon="11.7043772"><ele>44.6</ele><time>2026-05-01T15:20:49.979Z</time></trkpt><trkpt lat="44.3375482" lon="11.7042138"><ele>45.0</ele><time>2026-05-01T15:20:51.961Z</time></trkpt><trkpt lat="44.3375539" lon="11.7041251"><ele>45.0</ele><time>2026-05-01T15:20:52.974Z</time></trkpt><trkpt lat="44.3375637" lon="11.7040337"><ele>45.0</ele><time>2026-05-01T15:20:53.976Z</time></trkpt><trkpt lat="44.337599" lon="11.703849"><ele>45.0</ele><time>2026-05-01T15:20:55.974Z</time></trkpt><trkpt lat="44.3376245" lon="11.7037611"><ele>45.0</ele><time>2026-05-01T15:20:56.953Z</time></trkpt><trkpt lat="44.3376654" lon="11.7036826"><ele>45.0</ele><time>2026-05-01T15:20:57.961Z</time></trkpt><trkpt lat="44.3377082" lon="11.7036017"><ele>45.0</ele><time>2026-05-01T15:20:58.957Z</time></trkpt><trkpt lat="44.3377564" lon="11.7035292"><ele>45.0</ele><time>2026-05-01T15:20:59.949Z</time></trkpt><trkpt lat="44.3378072" lon="11.7034543"><ele>45.0</ele><time>2026-05-01T15:21:00.953Z</time></trkpt><trkpt lat="44.3379057" lon="11.7033158"><ele>45.0</ele><time>2026-05-01T15:21:02.948Z</time></trkpt><trkpt lat="44.3380286" lon="11.7032652"><ele>45.0</ele><time>2026-05-01T15:21:04.953Z</time></trkpt><trkpt lat="44.3381184" lon="11.70326"><ele>45.0</ele><time>2026-05-01T15:21:05.957Z</time></trkpt><trkpt lat="44.3381182" lon="11.703134"><ele>45.0</ele><time>2026-05-01T15:21:08.029Z</time></trkpt><trkpt lat="44.3381016" lon="11.7030476"><ele>45.0</ele><time>2026-05-01T15:21:09.963Z</time></trkpt><trkpt lat="44.3380538" lon="11.7029614"><ele>45.0</ele><time>2026-05-01T15:21:11.961Z</time></trkpt><trkpt lat="44.3379869" lon="11.7029113"><ele>45.0</ele><time>2026-05-01T15:21:13.965Z</time></trkpt><trkpt lat="44.3379185" lon="11.70289"><ele>45.0</ele><time>2026-05-01T15:21:15.959Z</time></trkpt><trkpt lat="44.3378271" lon="11.7028638"><ele>45.0</ele><time>2026-05-01T15:21:18.965Z</time></trkpt><trkpt lat="44.3377597" lon="11.7028503"><ele>45.0</ele><time>2026-05-01T15:21:20.97Z</time></trkpt><trkpt lat="44.3376952" lon="11.7028322"><ele>45.166666666666664</ele><time>2026-05-01T15:21:22.963Z</time></trkpt><trkpt lat="44.3376138" lon="11.7027797"><ele>45.333333333333336</ele><time>2026-05-01T15:21:25.959Z</time></trkpt><trkpt lat="44.3375658" lon="11.7027088"><ele>45.5</ele><time>2026-05-01T15:21:28.969Z</time></trkpt><trkpt lat="44.3375234" lon="11.7026376"><ele>45.66666666666667</ele><time>2026-05-01T15:21:32.96Z</time></trkpt><trkpt lat="44.3375009" lon="11.7025422"><ele>45.833333333333336</ele><time>2026-05-01T15:21:40.973Z</time></trkpt><trkpt lat="44.3375862" lon="11.7025453"><ele>46.0</ele><time>2026-05-01T15:21:44.982Z</time></trkpt><trkpt lat="44.3376538" lon="11.7026286"><ele>46.5</ele><time>2026-05-01T15:21:47.959Z</time></trkpt><trkpt lat="44.3377113" lon="11.7026945"><ele>47.0</ele><time>2026-05-01T15:21:49.961Z</time></trkpt><trkpt lat="44.337783" lon="11.7027322"><ele>47.5</ele><time>2026-05-01T15:21:51.961Z</time></trkpt><trkpt lat="44.337852" lon="11.7027356"><ele>48.0</ele><time>2026-05-01T15:21:53.965Z</time></trkpt><trkpt lat="44.3379228" lon="11.7026518"><ele>48.49999999999999</ele><time>2026-05-01T15:21:56.958Z</time></trkpt><trkpt lat="44.3379593" lon="11.7025546"><ele>49.0</ele><time>2026-05-01T15:21:58.961Z</time></trkpt><trkpt lat="44.3380019" lon="11.7024541"><ele>48.99999999999999</ele><time>2026-05-01T15:22:00.963Z</time></trkpt><trkpt lat="44.3380376" lon="11.7023487"><ele>49.0</ele><time>2026-05-01T15:22:02.972Z</time></trkpt><trkpt lat="44.3380808" lon="11.7022418"><ele>49.0</ele><time>2026-05-01T15:22:04.968Z</time></trkpt><trkpt lat="44.3381268" lon="11.7021407"><ele>49.0</ele><time>2026-05-01T15:22:06.975Z</time></trkpt><trkpt lat="44.3381721" lon="11.7020303"><ele>48.99999999999999</ele><time>2026-05-01T15:22:09.049Z</time></trkpt><trkpt lat="44.3382226" lon="11.7019084"><ele>49.0</ele><time>2026-05-01T15:22:10.975Z</time></trkpt><trkpt lat="44.3382723" lon="11.7017973"><ele>47.400000000000006</ele><time>2026-05-01T15:22:13.085Z</time></trkpt><trkpt lat="44.3383309" lon="11.7016686"><ele>45.8</ele><time>2026-05-01T15:22:14.96Z</time></trkpt><trkpt lat="44.3383833" lon="11.7015378"><ele>44.2</ele><time>2026-05-01T15:22:16.96Z</time></trkpt><trkpt lat="44.3384387" lon="11.7014126"><ele>42.599999999999994</ele><time>2026-05-01T15:22:18.964Z</time></trkpt><trkpt lat="44.3384986" lon="11.7012841"><ele>41.0</ele><time>2026-05-01T15:22:20.974Z</time></trkpt><trkpt lat="44.3385562" lon="11.7011548"><ele>40.75</ele><time>2026-05-01T15:22:22.991Z</time></trkpt><trkpt lat="44.3386162" lon="11.7010086"><ele>40.5</ele><time>2026-05-01T15:22:24.98Z</time></trkpt><trkpt lat="44.3386794" lon="11.7008798"><ele>40.25</ele><time>2026-05-01T15:22:26.988Z</time></trkpt><trkpt lat="44.3387588" lon="11.700778"><ele>40.0</ele><time>2026-05-01T15:22:28.97Z</time></trkpt><trkpt lat="44.3388624" lon="11.7007235"><ele>40.0</ele><time>2026-05-01T15:22:30.966Z</time></trkpt><trkpt lat="44.3389485" lon="11.7006891"><ele>40.0</ele><time>2026-05-01T15:22:32.969Z</time></trkpt><trkpt lat="44.3390317" lon="11.7006165"><ele>40.0</ele><time>2026-05-01T15:22:35.969Z</time></trkpt><trkpt lat="44.3390693" lon="11.7004939"><ele>40.0</ele><time>2026-05-01T15:22:37.969Z</time></trkpt><trkpt lat="44.3391068" lon="11.7003648"><ele>40.0</ele><time>2026-05-01T15:22:39.969Z</time></trkpt><trkpt lat="44.3391571" lon="11.7002314"><ele>40.75</ele><time>2026-05-01T15:22:41.976Z</time></trkpt><trkpt lat="44.3392244" lon="11.700103"><ele>41.5</ele><time>2026-05-01T15:22:43.97Z</time></trkpt><trkpt lat="44.3392998" lon="11.6999613"><ele>42.25</ele><time>2026-05-01T15:22:45.968Z</time></trkpt><trkpt lat="44.3393803" lon="11.6998353"><ele>43.0</ele><time>2026-05-01T15:22:47.976Z</time></trkpt><trkpt lat="44.3394655" lon="11.6997044"><ele>43.0</ele><time>2026-05-01T15:22:49.967Z</time></trkpt><trkpt lat="44.339516" lon="11.6996418"><ele>43.0</ele><time>2026-05-01T15:22:50.974Z</time></trkpt><trkpt lat="44.3395621" lon="11.6995816"><ele>43.0</ele><time>2026-05-01T15:22:51.971Z</time></trkpt><trkpt lat="44.3396067" lon="11.6995183"><ele>43.0</ele><time>2026-05-01T15:22:52.968Z</time></trkpt><trkpt lat="44.3396554" lon="11.6994512"><ele>43.0</ele><time>2026-05-01T15:22:53.975Z</time></trkpt><trkpt lat="44.3397414" lon="11.6993361"><ele>43.0</ele><time>2026-05-01T15:22:55.968Z</time></trkpt><trkpt lat="44.3398282" lon="11.6992113"><ele>43.0</ele><time>2026-05-01T15:22:57.963Z</time></trkpt><trkpt lat="44.3399169" lon="11.6990917"><ele>43.0</ele><time>2026-05-01T15:22:59.971Z</time></trkpt><trkpt lat="44.3399654" lon="11.6990288"><ele>43.0</ele><time>2026-05-01T15:23:00.976Z</time></trkpt><trkpt lat="44.3400148" lon="11.6989649"><ele>43.0</ele><time>2026-05-01T15:23:02.092Z</time></trkpt><trkpt lat="44.3401097" lon="11.6988486"><ele>43.0</ele><time>2026-05-01T15:23:03.976Z</time></trkpt><trkpt lat="44.3401953" lon="11.6987273"><ele>43.0</ele><time>2026-05-01T15:23:05.971Z</time></trkpt><trkpt lat="44.3402846" lon="11.6986054"><ele>43.0</ele><time>2026-05-01T15:23:07.971Z</time></trkpt><trkpt lat="44.3403335" lon="11.6985472"><ele>43.0</ele><time>2026-05-01T15:23:08.976Z</time></trkpt><trkpt lat="44.3404196" lon="11.6984318"><ele>43.0</ele><time>2026-05-01T15:23:10.977Z</time></trkpt><trkpt lat="44.3405076" lon="11.6983261"><ele>43.0</ele><time>2026-05-01T15:23:12.972Z</time></trkpt><trkpt lat="44.3405952" lon="11.6982243"><ele>43.2</ele><time>2026-05-01T15:23:14.966Z</time></trkpt><trkpt lat="44.3406881" lon="11.6981181"><ele>43.4</ele><time>2026-05-01T15:23:17.03Z</time></trkpt><trkpt lat="44.340735" lon="11.6980577"><ele>43.6</ele><time>2026-05-01T15:23:17.978Z</time></trkpt><trkpt lat="44.3408251" lon="11.6979401"><ele>43.800000000000004</ele><time>2026-05-01T15:23:19.973Z</time></trkpt><trkpt lat="44.3409123" lon="11.6978268"><ele>44.0</ele><time>2026-05-01T15:23:21.974Z</time></trkpt><trkpt lat="44.3409604" lon="11.6977676"><ele>44.400000000000006</ele><time>2026-05-01T15:23:22.981Z</time></trkpt><trkpt lat="44.3410473" lon="11.6976567"><ele>44.8</ele><time>2026-05-01T15:23:24.969Z</time></trkpt><trkpt lat="44.3410921" lon="11.6975933"><ele>45.2</ele><time>2026-05-01T15:23:25.971Z</time></trkpt><trkpt lat="44.3411815" lon="11.6974747"><ele>45.599999999999994</ele><time>2026-05-01T15:23:27.975Z</time></trkpt><trkpt lat="44.341275" lon="11.6973559"><ele>46.0</ele><time>2026-05-01T15:23:29.966Z</time></trkpt><trkpt lat="44.341362" lon="11.6972405"><ele>45.75</ele><time>2026-05-01T15:23:31.968Z</time></trkpt><trkpt lat="44.3414485" lon="11.6971276"><ele>45.5</ele><time>2026-05-01T15:23:33.971Z</time></trkpt><trkpt lat="44.3415324" lon="11.6970186"><ele>45.25</ele><time>2026-05-01T15:23:35.975Z</time></trkpt><trkpt lat="44.3416134" lon="11.6969046"><ele>45.0</ele><time>2026-05-01T15:23:37.962Z</time></trkpt><trkpt lat="44.3417003" lon="11.6967981"><ele>45.0</ele><time>2026-05-01T15:23:39.968Z</time></trkpt><trkpt lat="44.341782" lon="11.6967069"><ele>45.0</ele><time>2026-05-01T15:23:41.974Z</time></trkpt><trkpt lat="44.3418569" lon="11.6966036"><ele>45.0</ele><time>2026-05-01T15:23:43.967Z</time></trkpt><trkpt lat="44.3419273" lon="11.6965138"><ele>45.0</ele><time>2026-05-01T15:23:45.97Z</time></trkpt><trkpt lat="44.3419698" lon="11.6964073"><ele>45.0</ele><time>2026-05-01T15:23:47.98Z</time></trkpt><trkpt lat="44.341985" lon="11.696271"><ele>45.0</ele><time>2026-05-01T15:23:50.035Z</time></trkpt><trkpt lat="44.3420658" lon="11.6961892"><ele>45.0</ele><time>2026-05-01T15:23:51.974Z</time></trkpt><trkpt lat="44.3421473" lon="11.696106"><ele>45.0</ele><time>2026-05-01T15:23:53.97Z</time></trkpt><trkpt lat="44.3422216" lon="11.6959909"><ele>45.0</ele><time>2026-05-01T15:23:55.975Z</time></trkpt><trkpt lat="44.3422767" lon="11.6958858"><ele>45.0</ele><time>2026-05-01T15:23:57.968Z</time></trkpt><trkpt lat="44.3423111" lon="11.6957639"><ele>45.0</ele><time>2026-05-01T15:23:59.967Z</time></trkpt><trkpt lat="44.342314" lon="11.6956297"><ele>45.0</ele><time>2026-05-01T15:24:01.982Z</time></trkpt><trkpt lat="44.3422881" lon="11.6955104"><ele>45.0</ele><time>2026-05-01T15:24:04.033Z</time></trkpt><trkpt lat="44.3422394" lon="11.6953931"><ele>45.0</ele><time>2026-05-01T15:24:05.964Z</time></trkpt><trkpt lat="44.342181" lon="11.6952785"><ele>45.0</ele><time>2026-05-01T15:24:07.959Z</time></trkpt><trkpt lat="44.3421216" lon="11.6951853"><ele>45.0</ele><time>2026-05-01T15:24:09.962Z</time></trkpt><trkpt lat="44.342074" lon="11.6950905"><ele>45.0</ele><time>2026-05-01T15:24:11.96Z</time></trkpt><trkpt lat="44.3420304" lon="11.6949981"><ele>45.0</ele><time>2026-05-01T15:24:13.969Z</time></trkpt><trkpt lat="44.341985" lon="11.6949022"><ele>45.0</ele><time>2026-05-01T15:24:15.959Z</time></trkpt><trkpt lat="44.3419412" lon="11.6947929"><ele>45.0</ele><time>2026-05-01T15:24:17.964Z</time></trkpt><trkpt lat="44.3419043" lon="11.6946909"><ele>45.0</ele><time>2026-05-01T15:24:19.96Z</time></trkpt><trkpt lat="44.3418489" lon="11.6945871"><ele>45.0</ele><time>2026-05-01T15:24:21.968Z</time></trkpt><trkpt lat="44.3417986" lon="11.6944844"><ele>45.0</ele><time>2026-05-01T15:24:23.965Z</time></trkpt><trkpt lat="44.3417597" lon="11.6943808"><ele>45.0</ele><time>2026-05-01T15:24:25.964Z</time></trkpt><trkpt lat="44.3417211" lon="11.6942704"><ele>45.0</ele><time>2026-05-01T15:24:27.958Z</time></trkpt><trkpt lat="44.3416826" lon="11.6941654"><ele>45.0</ele><time>2026-05-01T15:24:29.962Z</time></trkpt><trkpt lat="44.341643" lon="11.694058"><ele>45.0</ele><time>2026-05-01T15:24:31.965Z</time></trkpt><trkpt lat="44.3415925" lon="11.6939453"><ele>45.5</ele><time>2026-05-01T15:24:33.963Z</time></trkpt><trkpt lat="44.3415446" lon="11.6938295"><ele>46.0</ele><time>2026-05-01T15:24:35.959Z</time></trkpt><trkpt lat="44.3414999" lon="11.6937213"><ele>46.5</ele><time>2026-05-01T15:24:37.957Z</time></trkpt><trkpt lat="44.3414575" lon="11.6936235"><ele>47.0</ele><time>2026-05-01T15:24:39.959Z</time></trkpt><trkpt lat="44.3414101" lon="11.6935382"><ele>47.5</ele><time>2026-05-01T15:24:41.954Z</time></trkpt><trkpt lat="44.3414043" lon="11.6934407"><ele>48.0</ele><time>2026-05-01T15:24:43.96Z</time></trkpt><trkpt lat="44.3413747" lon="11.6933401"><ele>48.166666666666664</ele><time>2026-05-01T15:24:45.959Z</time></trkpt><trkpt lat="44.341318" lon="11.6932452"><ele>48.33333333333333</ele><time>2026-05-01T15:24:47.963Z</time></trkpt><trkpt lat="44.3412706" lon="11.6931649"><ele>48.5</ele><time>2026-05-01T15:24:49.952Z</time></trkpt><trkpt lat="44.3412162" lon="11.6930915"><ele>48.666666666666664</ele><time>2026-05-01T15:24:51.963Z</time></trkpt><trkpt lat="44.3411523" lon="11.6930078"><ele>48.83333333333333</ele><time>2026-05-01T15:24:53.967Z</time></trkpt><trkpt lat="44.3410826" lon="11.6929281"><ele>49.0</ele><time>2026-05-01T15:24:55.967Z</time></trkpt><trkpt lat="44.3410145" lon="11.6928397"><ele>49.400000000000006</ele><time>2026-05-01T15:24:57.966Z</time></trkpt><trkpt lat="44.3409491" lon="11.6927516"><ele>49.8</ele><time>2026-05-01T15:24:59.967Z</time></trkpt><trkpt lat="44.3408835" lon="11.6926699"><ele>50.2</ele><time>2026-05-01T15:25:01.984Z</time></trkpt><trkpt lat="44.3408054" lon="11.6925827"><ele>50.599999999999994</ele><time>2026-05-01T15:25:03.966Z</time></trkpt><trkpt lat="44.3407327" lon="11.6924992"><ele>51.0</ele><time>2026-05-01T15:25:05.961Z</time></trkpt><trkpt lat="44.3406606" lon="11.6924165"><ele>51.0</ele><time>2026-05-01T15:25:07.961Z</time></trkpt><trkpt lat="44.3405886" lon="11.6923285"><ele>51.0</ele><time>2026-05-01T15:25:09.963Z</time></trkpt><trkpt lat="44.3405183" lon="11.6922459"><ele>51.0</ele><time>2026-05-01T15:25:11.972Z</time></trkpt><trkpt lat="44.3404491" lon="11.6921653"><ele>51.0</ele><time>2026-05-01T15:25:13.968Z</time></trkpt><trkpt lat="44.3403904" lon="11.6920863"><ele>51.0</ele><time>2026-05-01T15:25:15.961Z</time></trkpt><trkpt lat="44.3403206" lon="11.6919988"><ele>50.8</ele><time>2026-05-01T15:25:17.963Z</time></trkpt><trkpt lat="44.3402534" lon="11.6918986"><ele>50.599999999999994</ele><time>2026-05-01T15:25:19.965Z</time></trkpt><trkpt lat="44.3401816" lon="11.6918061"><ele>50.4</ele><time>2026-05-01T15:25:21.964Z</time></trkpt><trkpt lat="44.3401025" lon="11.6917088"><ele>50.2</ele><time>2026-05-01T15:25:23.971Z</time></trkpt><trkpt lat="44.3400216" lon="11.6916243"><ele>50.0</ele><time>2026-05-01T15:25:25.963Z</time></trkpt><trkpt lat="44.339942" lon="11.6915299"><ele>50.0</ele><time>2026-05-01T15:25:28.027Z</time></trkpt><trkpt lat="44.33987" lon="11.6914237"><ele>50.0</ele><time>2026-05-01T15:25:29.973Z</time></trkpt><trkpt lat="44.3397935" lon="11.6913267"><ele>50.0</ele><time>2026-05-01T15:25:31.963Z</time></trkpt><trkpt lat="44.3397218" lon="11.6912253"><ele>50.0</ele><time>2026-05-01T15:25:33.962Z</time></trkpt><trkpt lat="44.3396453" lon="11.6911251"><ele>50.0</ele><time>2026-05-01T15:25:35.966Z</time></trkpt><trkpt lat="44.3395729" lon="11.6910167"><ele>50.2</ele><time>2026-05-01T15:25:37.959Z</time></trkpt><trkpt lat="44.3394999" lon="11.6908994"><ele>50.4</ele><time>2026-05-01T15:25:39.948Z</time></trkpt><trkpt lat="44.3394304" lon="11.6907829"><ele>50.599999999999994</ele><time>2026-05-01T15:25:41.963Z</time></trkpt><trkpt lat="44.3393657" lon="11.6906703"><ele>50.8</ele><time>2026-05-01T15:25:43.959Z</time></trkpt><trkpt lat="44.3392949" lon="11.6905572"><ele>51.0</ele><time>2026-05-01T15:25:45.957Z</time></trkpt><trkpt lat="44.3392344" lon="11.6904354"><ele>51.0</ele><time>2026-05-01T15:25:47.971Z</time></trkpt><trkpt lat="44.3391893" lon="11.6903119"><ele>51.0</ele><time>2026-05-01T15:25:49.957Z</time></trkpt><trkpt lat="44.3391357" lon="11.6901824"><ele>51.0</ele><time>2026-05-01T15:25:51.964Z</time></trkpt><trkpt lat="44.3390865" lon="11.6900508"><ele>51.0</ele><time>2026-05-01T15:25:53.967Z</time></trkpt><trkpt lat="44.3390253" lon="11.6899307"><ele>51.0</ele><time>2026-05-01T15:25:55.96Z</time></trkpt><trkpt lat="44.3389581" lon="11.6898151"><ele>51.0</ele><time>2026-05-01T15:25:57.972Z</time></trkpt><trkpt lat="44.3388915" lon="11.6896992"><ele>51.0</ele><time>2026-05-01T15:25:59.976Z</time></trkpt><trkpt lat="44.3388541" lon="11.6895814"><ele>51.0</ele><time>2026-05-01T15:26:01.978Z</time></trkpt><trkpt lat="44.3388977" lon="11.6894868"><ele>51.0</ele><time>2026-05-01T15:26:03.989Z</time></trkpt><trkpt lat="44.3388623" lon="11.6894012"><ele>51.0</ele><time>2026-05-01T15:26:05.989Z</time></trkpt><trkpt lat="44.3388255" lon="11.6893217"><ele>51.0</ele><time>2026-05-01T15:26:07.982Z</time></trkpt><trkpt lat="44.3387951" lon="11.689234"><ele>51.0</ele><time>2026-05-01T15:26:09.972Z</time></trkpt><trkpt lat="44.3387369" lon="11.6891458"><ele>51.0</ele><time>2026-05-01T15:26:11.974Z</time></trkpt><trkpt lat="44.3386789" lon="11.6890541"><ele>51.0</ele><time>2026-05-01T15:26:13.967Z</time></trkpt><trkpt lat="44.3386284" lon="11.6889774"><ele>51.0</ele><time>2026-05-01T15:26:15.957Z</time></trkpt><trkpt lat="44.3385752" lon="11.6888907"><ele>51.0</ele><time>2026-05-01T15:26:17.978Z</time></trkpt><trkpt lat="44.3385176" lon="11.6888182"><ele>51.0</ele><time>2026-05-01T15:26:19.964Z</time></trkpt><trkpt lat="44.3384662" lon="11.6887339"><ele>51.0</ele><time>2026-05-01T15:26:21.975Z</time></trkpt><trkpt lat="44.3384166" lon="11.6886399"><ele>51.0</ele><time>2026-05-01T15:26:23.977Z</time></trkpt><trkpt lat="44.3383643" lon="11.6885542"><ele>51.0</ele><time>2026-05-01T15:26:25.963Z</time></trkpt><trkpt lat="44.3383024" lon="11.6884777"><ele>51.0</ele><time>2026-05-01T15:26:27.972Z</time></trkpt><trkpt lat="44.3382546" lon="11.6883948"><ele>51.0</ele><time>2026-05-01T15:26:29.956Z</time></trkpt><trkpt lat="44.3382089" lon="11.6883226"><ele>51.0</ele><time>2026-05-01T15:26:31.96Z</time></trkpt><trkpt lat="44.3381357" lon="11.6882271"><ele>51.285714285714285</ele><time>2026-05-01T15:26:34.969Z</time></trkpt><trkpt lat="44.3380806" lon="11.6881572"><ele>51.57142857142857</ele><time>2026-05-01T15:26:36.951Z</time></trkpt><trkpt lat="44.3380303" lon="11.6880908"><ele>51.85714285714286</ele><time>2026-05-01T15:26:38.957Z</time></trkpt><trkpt lat="44.3379865" lon="11.6880229"><ele>52.14285714285714</ele><time>2026-05-01T15:26:40.953Z</time></trkpt><trkpt lat="44.3379198" lon="11.687928"><ele>52.42857142857142</ele><time>2026-05-01T15:26:43.95Z</time></trkpt><trkpt lat="44.3378689" lon="11.6878606"><ele>52.714285714285715</ele><time>2026-05-01T15:26:45.954Z</time></trkpt><trkpt lat="44.3378163" lon="11.6877929"><ele>53.0</ele><time>2026-05-01T15:26:47.976Z</time></trkpt><trkpt lat="44.3377691" lon="11.6877272"><ele>53.00000000000001</ele><time>2026-05-01T15:26:49.968Z</time></trkpt><trkpt lat="44.3377174" lon="11.6876633"><ele>53.0</ele><time>2026-05-01T15:26:51.95Z</time></trkpt><trkpt lat="44.3376634" lon="11.6875887"><ele>53.0</ele><time>2026-05-01T15:26:53.976Z</time></trkpt><trkpt lat="44.3376105" lon="11.6875087"><ele>53.0</ele><time>2026-05-01T15:26:55.955Z</time></trkpt><trkpt lat="44.3375533" lon="11.6874294"><ele>53.00000000000001</ele><time>2026-05-01T15:26:57.963Z</time></trkpt><trkpt lat="44.3375019" lon="11.6873482"><ele>53.0</ele><time>2026-05-01T15:26:59.947Z</time></trkpt><trkpt lat="44.3374535" lon="11.6872719"><ele>53.00000000000001</ele><time>2026-05-01T15:27:01.963Z</time></trkpt><trkpt lat="44.3374053" lon="11.6872062"><ele>53.0</ele><time>2026-05-01T15:27:03.987Z</time></trkpt><trkpt lat="44.3373641" lon="11.6871308"><ele>53.0</ele><time>2026-05-01T15:27:05.971Z</time></trkpt><trkpt lat="44.3372819" lon="11.6870422"><ele>53.0</ele><time>2026-05-01T15:29:42.993Z</time></trkpt><trkpt lat="44.3372256" lon="11.6869703"><ele>53.00000000000001</ele><time>2026-05-01T15:29:46.975Z</time></trkpt><trkpt lat="44.3371804" lon="11.6869075"><ele>53.0</ele><time>2026-05-01T15:29:48.964Z</time></trkpt><trkpt lat="44.3371178" lon="11.6868342"><ele>53.0</ele><time>2026-05-01T15:29:50.974Z</time></trkpt><trkpt lat="44.3370325" lon="11.6867433"><ele>53.0</ele><time>2026-05-01T15:29:52.962Z</time></trkpt><trkpt lat="44.336946" lon="11.6866308"><ele>53.0</ele><time>2026-05-01T15:29:54.96Z</time></trkpt><trkpt lat="44.3368687" lon="11.6865157"><ele>53.0</ele><time>2026-05-01T15:29:56.995Z</time></trkpt><trkpt lat="44.3367826" lon="11.6864128"><ele>53.0</ele><time>2026-05-01T15:29:58.994Z</time></trkpt><trkpt lat="44.3367133" lon="11.6863077"><ele>53.0</ele><time>2026-05-01T15:30:00.992Z</time></trkpt><trkpt lat="44.3366543" lon="11.6862042"><ele>53.0</ele><time>2026-05-01T15:30:02.999Z</time></trkpt><trkpt lat="44.3365908" lon="11.6861167"><ele>53.0</ele><time>2026-05-01T15:30:04.999Z</time></trkpt><trkpt lat="44.3365249" lon="11.6860447"><ele>53.0</ele><time>2026-05-01T15:30:06.965Z</time></trkpt><trkpt lat="44.336454" lon="11.6859607"><ele>52.599999999999994</ele><time>2026-05-01T15:30:08.964Z</time></trkpt><trkpt lat="44.3363725" lon="11.6858859"><ele>52.199999999999996</ele><time>2026-05-01T15:30:10.992Z</time></trkpt><trkpt lat="44.3362924" lon="11.6857995"><ele>51.8</ele><time>2026-05-01T15:30:12.973Z</time></trkpt><trkpt lat="44.3362119" lon="11.6857229"><ele>51.4</ele><time>2026-05-01T15:30:14.948Z</time></trkpt><trkpt lat="44.3361352" lon="11.6856394"><ele>51.0</ele><time>2026-05-01T15:30:16.956Z</time></trkpt><trkpt lat="44.3360496" lon="11.6855506"><ele>51.0</ele><time>2026-05-01T15:30:18.997Z</time></trkpt><trkpt lat="44.3359738" lon="11.6854573"><ele>51.0</ele><time>2026-05-01T15:30:20.988Z</time></trkpt><trkpt lat="44.335897" lon="11.6853649"><ele>51.0</ele><time>2026-05-01T15:30:22.992Z</time></trkpt><trkpt lat="44.3358203" lon="11.6852903"><ele>51.0</ele><time>2026-05-01T15:30:24.961Z</time></trkpt><trkpt lat="44.3357537" lon="11.6852132"><ele>51.0</ele><time>2026-05-01T15:30:26.975Z</time></trkpt><trkpt lat="44.3357265" lon="11.6850819"><ele>51.0</ele><time>2026-05-01T15:30:28.99Z</time></trkpt><trkpt lat="44.3356779" lon="11.6849687"><ele>51.0</ele><time>2026-05-01T15:30:30.975Z</time></trkpt><trkpt lat="44.335618" lon="11.684868"><ele>51.0</ele><time>2026-05-01T15:30:32.962Z</time></trkpt><trkpt lat="44.3355421" lon="11.6847748"><ele>51.0</ele><time>2026-05-01T15:30:34.984Z</time></trkpt><trkpt lat="44.3354538" lon="11.6847028"><ele>51.0</ele><time>2026-05-01T15:30:36.988Z</time></trkpt><trkpt lat="44.3353651" lon="11.6846206"><ele>51.0</ele><time>2026-05-01T15:30:38.965Z</time></trkpt><trkpt lat="44.3352818" lon="11.6845388"><ele>51.0</ele><time>2026-05-01T15:30:40.975Z</time></trkpt><trkpt lat="44.3352101" lon="11.6844392"><ele>51.0</ele><time>2026-05-01T15:30:42.977Z</time></trkpt><trkpt lat="44.3351466" lon="11.6843284"><ele>51.0</ele><time>2026-05-01T15:30:44.99Z</time></trkpt><trkpt lat="44.3350891" lon="11.6842241"><ele>51.0</ele><time>2026-05-01T15:30:46.98Z</time></trkpt><trkpt lat="44.3350218" lon="11.6841114"><ele>51.0</ele><time>2026-05-01T15:30:48.966Z</time></trkpt><trkpt lat="44.334946" lon="11.6840078"><ele>51.0</ele><time>2026-05-01T15:30:50.994Z</time></trkpt><trkpt lat="44.334863" lon="11.6839121"><ele>51.0</ele><time>2026-05-01T15:30:52.982Z</time></trkpt><trkpt lat="44.3347753" lon="11.6838176"><ele>51.0</ele><time>2026-05-01T15:30:54.987Z</time></trkpt><trkpt lat="44.334704" lon="11.6837026"><ele>51.0</ele><time>2026-05-01T15:30:56.963Z</time></trkpt><trkpt lat="44.3346345" lon="11.6835934"><ele>51.0</ele><time>2026-05-01T15:30:58.986Z</time></trkpt><trkpt lat="44.3345498" lon="11.6834918"><ele>51.0</ele><time>2026-05-01T15:31:00.979Z</time></trkpt><trkpt lat="44.3344527" lon="11.6833872"><ele>51.0</ele><time>2026-05-01T15:31:02.989Z</time></trkpt><trkpt lat="44.3343592" lon="11.6833041"><ele>51.0</ele><time>2026-05-01T15:31:04.997Z</time></trkpt><trkpt lat="44.3342647" lon="11.6832244"><ele>51.0</ele><time>2026-05-01T15:31:06.988Z</time></trkpt><trkpt lat="44.3341891" lon="11.6831146"><ele>51.0</ele><time>2026-05-01T15:31:08.989Z</time></trkpt><trkpt lat="44.3341136" lon="11.6829965"><ele>51.0</ele><time>2026-05-01T15:31:10.974Z</time></trkpt><trkpt lat="44.3340208" lon="11.6828933"><ele>51.0</ele><time>2026-05-01T15:31:12.995Z</time></trkpt><trkpt lat="44.3339417" lon="11.6827936"><ele>51.0</ele><time>2026-05-01T15:31:14.975Z</time></trkpt><trkpt lat="44.3338522" lon="11.6826858"><ele>51.0</ele><time>2026-05-01T15:31:16.98Z</time></trkpt><trkpt lat="44.3337727" lon="11.6825769"><ele>51.0</ele><time>2026-05-01T15:31:18.98Z</time></trkpt><trkpt lat="44.3336863" lon="11.6824794"><ele>51.0</ele><time>2026-05-01T15:31:20.967Z</time></trkpt><trkpt lat="44.3335926" lon="11.6824038"><ele>51.0</ele><time>2026-05-01T15:31:22.96Z</time></trkpt><trkpt lat="44.3334945" lon="11.6823411"><ele>51.0</ele><time>2026-05-01T15:31:24.957Z</time></trkpt><trkpt lat="44.3334011" lon="11.6822825"><ele>51.0</ele><time>2026-05-01T15:31:26.951Z</time></trkpt><trkpt lat="44.3333017" lon="11.6822306"><ele>51.0</ele><time>2026-05-01T15:31:28.956Z</time></trkpt><trkpt lat="44.3332046" lon="11.6821776"><ele>51.0</ele><time>2026-05-01T15:31:30.981Z</time></trkpt><trkpt lat="44.3331143" lon="11.6821229"><ele>51.0</ele><time>2026-05-01T15:31:32.959Z</time></trkpt><trkpt lat="44.3330269" lon="11.6820683"><ele>51.0</ele><time>2026-05-01T15:31:34.995Z</time></trkpt><trkpt lat="44.3329374" lon="11.6820088"><ele>51.0</ele><time>2026-05-01T15:31:36.955Z</time></trkpt><trkpt lat="44.3328456" lon="11.6819477"><ele>51.0</ele><time>2026-05-01T15:31:38.984Z</time></trkpt><trkpt lat="44.3327512" lon="11.681893"><ele>51.0</ele><time>2026-05-01T15:31:40.994Z</time></trkpt><trkpt lat="44.3326555" lon="11.681831"><ele>51.0</ele><time>2026-05-01T15:31:42.994Z</time></trkpt><trkpt lat="44.3325627" lon="11.6817642"><ele>51.0</ele><time>2026-05-01T15:31:44.966Z</time></trkpt><trkpt lat="44.3324716" lon="11.6816866"><ele>51.199999999999996</ele><time>2026-05-01T15:31:46.99Z</time></trkpt><trkpt lat="44.3323799" lon="11.6816447"><ele>51.4</ele><time>2026-05-01T15:31:48.986Z</time></trkpt><trkpt lat="44.3322906" lon="11.6816036"><ele>51.6</ele><time>2026-05-01T15:31:51.008Z</time></trkpt><trkpt lat="44.3322037" lon="11.6815542"><ele>51.8</ele><time>2026-05-01T15:31:52.977Z</time></trkpt><trkpt lat="44.3321206" lon="11.6814774"><ele>52.0</ele><time>2026-05-01T15:31:54.976Z</time></trkpt><trkpt lat="44.3320479" lon="11.6813937"><ele>52.0</ele><time>2026-05-01T15:31:56.984Z</time></trkpt><trkpt lat="44.3319759" lon="11.6812925"><ele>52.0</ele><time>2026-05-01T15:31:58.976Z</time></trkpt><trkpt lat="44.331893" lon="11.681214"><ele>52.0</ele><time>2026-05-01T15:32:00.983Z</time></trkpt><trkpt lat="44.3318095" lon="11.6811334"><ele>52.0</ele><time>2026-05-01T15:32:02.988Z</time></trkpt><trkpt lat="44.3317452" lon="11.6810556"><ele>52.0</ele><time>2026-05-01T15:32:04.986Z</time></trkpt><trkpt lat="44.3316907" lon="11.6810053"><ele>52.33333333333333</ele><time>2026-05-01T15:32:06.99Z</time></trkpt><trkpt lat="44.3316683" lon="11.6809223"><ele>52.666666666666664</ele><time>2026-05-01T15:32:09.984Z</time></trkpt><trkpt lat="44.3317125" lon="11.680805"><ele>53.0</ele><time>2026-05-01T15:32:12.973Z</time></trkpt><trkpt lat="44.3317511" lon="11.6807129"><ele>53.33333333333333</ele><time>2026-05-01T15:32:14.981Z</time></trkpt><trkpt lat="44.3317831" lon="11.6806314"><ele>53.666666666666664</ele><time>2026-05-01T15:32:16.984Z</time></trkpt><trkpt lat="44.3318271" lon="11.6805208"><ele>54.0</ele><time>2026-05-01T15:32:19.993Z</time></trkpt><trkpt lat="44.3318784" lon="11.6804426"><ele>54.0</ele><time>2026-05-01T15:32:22.988Z</time></trkpt><trkpt lat="44.3319295" lon="11.6803497"><ele>54.0</ele><time>2026-05-01T15:32:25.99Z</time></trkpt><trkpt lat="44.3320036" lon="11.6802739"><ele>54.0</ele><time>2026-05-01T15:32:29Z</time></trkpt><trkpt lat="44.3320663" lon="11.6801754"><ele>54.0</ele><time>2026-05-01T15:32:31.974Z</time></trkpt><trkpt lat="44.3321279" lon="11.6801072"><ele>54.0</ele><time>2026-05-01T15:32:33.981Z</time></trkpt><trkpt lat="44.3321896" lon="11.6800351"><ele>54.0</ele><time>2026-05-01T15:32:35.976Z</time></trkpt><trkpt lat="44.332254" lon="11.6799584"><ele>54.333333333333336</ele><time>2026-05-01T15:32:37.981Z</time></trkpt><trkpt lat="44.332323" lon="11.6798848"><ele>54.66666666666667</ele><time>2026-05-01T15:32:39.991Z</time></trkpt><trkpt lat="44.3323868" lon="11.6798093"><ele>55.0</ele><time>2026-05-01T15:32:41.967Z</time></trkpt><trkpt lat="44.3324568" lon="11.6797352"><ele>55.333333333333336</ele><time>2026-05-01T15:32:43.983Z</time></trkpt><trkpt lat="44.3325157" lon="11.6796542"><ele>55.66666666666667</ele><time>2026-05-01T15:32:45.992Z</time></trkpt><trkpt lat="44.3325415" lon="11.6795523"><ele>56.0</ele><time>2026-05-01T15:32:47.986Z</time></trkpt><trkpt lat="44.3325032" lon="11.6794482"><ele>56.0</ele><time>2026-05-01T15:32:49.954Z</time></trkpt><trkpt lat="44.3324528" lon="11.6793384"><ele>55.99999999999999</ele><time>2026-05-01T15:32:51.971Z</time></trkpt><trkpt lat="44.3323946" lon="11.6792262"><ele>55.99999999999999</ele><time>2026-05-01T15:32:53.969Z</time></trkpt><trkpt lat="44.3323416" lon="11.6791087"><ele>56.0</ele><time>2026-05-01T15:32:55.979Z</time></trkpt><trkpt lat="44.33229" lon="11.6789902"><ele>56.0</ele><time>2026-05-01T15:32:57.97Z</time></trkpt><trkpt lat="44.3322353" lon="11.6788617"><ele>55.75</ele><time>2026-05-01T15:32:59.973Z</time></trkpt><trkpt lat="44.3321733" lon="11.6787334"><ele>55.5</ele><time>2026-05-01T15:33:01.969Z</time></trkpt><trkpt lat="44.3321137" lon="11.6785913"><ele>55.25</ele><time>2026-05-01T15:33:03.973Z</time></trkpt><trkpt lat="44.3320645" lon="11.6784508"><ele>55.0</ele><time>2026-05-01T15:33:05.97Z</time></trkpt><trkpt lat="44.3320062" lon="11.6783151"><ele>55.0</ele><time>2026-05-01T15:33:07.982Z</time></trkpt><trkpt lat="44.3319488" lon="11.6781708"><ele>55.0</ele><time>2026-05-01T15:33:09.98Z</time></trkpt><trkpt lat="44.3318883" lon="11.6780285"><ele>55.0</ele><time>2026-05-01T15:33:11.976Z</time></trkpt><trkpt lat="44.3318292" lon="11.6778914"><ele>55.0</ele><time>2026-05-01T15:33:13.981Z</time></trkpt><trkpt lat="44.3317573" lon="11.6777589"><ele>55.6</ele><time>2026-05-01T15:33:15.975Z</time></trkpt><trkpt lat="44.3316904" lon="11.6776165"><ele>56.2</ele><time>2026-05-01T15:33:17.98Z</time></trkpt><trkpt lat="44.3316114" lon="11.6774918"><ele>56.8</ele><time>2026-05-01T15:33:19.975Z</time></trkpt><trkpt lat="44.331564" lon="11.6774325"><ele>57.4</ele><time>2026-05-01T15:33:20.977Z</time></trkpt><trkpt lat="44.3315128" lon="11.6773768"><ele>58.0</ele><time>2026-05-01T15:33:21.98Z</time></trkpt><trkpt lat="44.3314092" lon="11.6772835"><ele>58.0</ele><time>2026-05-01T15:33:23.98Z</time></trkpt><trkpt lat="44.3313012" lon="11.6772121"><ele>58.0</ele><time>2026-05-01T15:33:25.985Z</time></trkpt><trkpt lat="44.3311996" lon="11.6771421"><ele>58.0</ele><time>2026-05-01T15:33:27.958Z</time></trkpt><trkpt lat="44.3310979" lon="11.677103"><ele>58.0</ele><time>2026-05-01T15:33:29.984Z</time></trkpt><trkpt lat="44.3309812" lon="11.677091"><ele>58.0</ele><time>2026-05-01T15:33:31.988Z</time></trkpt><trkpt lat="44.3308706" lon="11.6771052"><ele>58.0</ele><time>2026-05-01T15:33:33.975Z</time></trkpt><trkpt lat="44.3307664" lon="11.6771125"><ele>58.0</ele><time>2026-05-01T15:33:35.981Z</time></trkpt><trkpt lat="44.3306668" lon="11.6771427"><ele>58.0</ele><time>2026-05-01T15:33:37.978Z</time></trkpt><trkpt lat="44.3305575" lon="11.677178"><ele>58.0</ele><time>2026-05-01T15:33:39.983Z</time></trkpt><trkpt lat="44.3304534" lon="11.6771972"><ele>57.599999999999994</ele><time>2026-05-01T15:33:41.977Z</time></trkpt><trkpt lat="44.3303439" lon="11.6772114"><ele>57.199999999999996</ele><time>2026-05-01T15:33:43.97Z</time></trkpt><trkpt lat="44.330236" lon="11.6772259"><ele>56.8</ele><time>2026-05-01T15:33:45.972Z</time></trkpt><trkpt lat="44.3301255" lon="11.677248"><ele>56.4</ele><time>2026-05-01T15:33:47.98Z</time></trkpt><trkpt lat="44.3300181" lon="11.6772556"><ele>56.0</ele><time>2026-05-01T15:33:49.973Z</time></trkpt><trkpt lat="44.3299098" lon="11.677247"><ele>56.0</ele><time>2026-05-01T15:33:51.966Z</time></trkpt><trkpt lat="44.3297985" lon="11.6772205"><ele>55.99999999999999</ele><time>2026-05-01T15:33:53.978Z</time></trkpt><trkpt lat="44.3296862" lon="11.6771896"><ele>55.99999999999999</ele><time>2026-05-01T15:33:55.976Z</time></trkpt><trkpt lat="44.3295854" lon="11.6771433"><ele>56.0</ele><time>2026-05-01T15:33:57.978Z</time></trkpt><trkpt lat="44.3294912" lon="11.6770961"><ele>56.0</ele><time>2026-05-01T15:33:59.981Z</time></trkpt><trkpt lat="44.3294035" lon="11.677021"><ele>56.4</ele><time>2026-05-01T15:34:01.979Z</time></trkpt><trkpt lat="44.32932" lon="11.6769394"><ele>56.8</ele><time>2026-05-01T15:34:03.984Z</time></trkpt><trkpt lat="44.3292315" lon="11.6768601"><ele>57.199999999999996</ele><time>2026-05-01T15:34:05.982Z</time></trkpt><trkpt lat="44.3291384" lon="11.6767821"><ele>57.599999999999994</ele><time>2026-05-01T15:34:07.987Z</time></trkpt><trkpt lat="44.3290481" lon="11.6767043"><ele>58.0</ele><time>2026-05-01T15:34:09.975Z</time></trkpt><trkpt lat="44.3289565" lon="11.6766262"><ele>57.8</ele><time>2026-05-01T15:34:11.976Z</time></trkpt><trkpt lat="44.3288503" lon="11.6765651"><ele>57.599999999999994</ele><time>2026-05-01T15:34:13.977Z</time></trkpt><trkpt lat="44.3287865" lon="11.6765518"><ele>57.400000000000006</ele><time>2026-05-01T15:34:14.981Z</time></trkpt><trkpt lat="44.3286668" lon="11.6765696"><ele>57.2</ele><time>2026-05-01T15:34:16.972Z</time></trkpt><trkpt lat="44.3285588" lon="11.6766133"><ele>57.0</ele><time>2026-05-01T15:34:18.97Z</time></trkpt><trkpt lat="44.3284591" lon="11.6766623"><ele>57.0</ele><time>2026-05-01T15:34:20.979Z</time></trkpt><trkpt lat="44.328358" lon="11.676705"><ele>57.0</ele><time>2026-05-01T15:34:22.969Z</time></trkpt><trkpt lat="44.328253" lon="11.6767371"><ele>57.0</ele><time>2026-05-01T15:34:24.959Z</time></trkpt><trkpt lat="44.3281581" lon="11.6767596"><ele>57.0</ele><time>2026-05-01T15:34:26.972Z</time></trkpt><trkpt lat="44.3280663" lon="11.6767773"><ele>57.0</ele><time>2026-05-01T15:34:28.984Z</time></trkpt><trkpt lat="44.3279738" lon="11.6767669"><ele>57.2</ele><time>2026-05-01T15:34:30.976Z</time></trkpt><trkpt lat="44.3278789" lon="11.6767338"><ele>57.400000000000006</ele><time>2026-05-01T15:34:32.972Z</time></trkpt><trkpt lat="44.3277989" lon="11.6766689"><ele>57.599999999999994</ele><time>2026-05-01T15:34:34.975Z</time></trkpt><trkpt lat="44.327715" lon="11.6766009"><ele>57.8</ele><time>2026-05-01T15:34:36.975Z</time></trkpt><trkpt lat="44.3276318" lon="11.6765198"><ele>58.0</ele><time>2026-05-01T15:34:38.965Z</time></trkpt><trkpt lat="44.3275403" lon="11.6764447"><ele>58.0</ele><time>2026-05-01T15:34:40.992Z</time></trkpt><trkpt lat="44.327458" lon="11.6763744"><ele>58.0</ele><time>2026-05-01T15:34:42.961Z</time></trkpt><trkpt lat="44.3273867" lon="11.6763031"><ele>58.0</ele><time>2026-05-01T15:34:45.015Z</time></trkpt><trkpt lat="44.3273048" lon="11.6762241"><ele>58.0</ele><time>2026-05-01T15:34:46.954Z</time></trkpt><trkpt lat="44.3272201" lon="11.6761553"><ele>58.0</ele><time>2026-05-01T15:34:48.964Z</time></trkpt><trkpt lat="44.3271452" lon="11.6760754"><ele>58.2</ele><time>2026-05-01T15:34:50.956Z</time></trkpt><trkpt lat="44.3270697" lon="11.6759837"><ele>58.4</ele><time>2026-05-01T15:34:52.954Z</time></trkpt><trkpt lat="44.3270024" lon="11.6758961"><ele>58.60000000000001</ele><time>2026-05-01T15:34:54.958Z</time></trkpt><trkpt lat="44.3269298" lon="11.6758157"><ele>58.800000000000004</ele><time>2026-05-01T15:34:56.99Z</time></trkpt><trkpt lat="44.3268538" lon="11.6757345"><ele>59.0</ele><time>2026-05-01T15:34:58.99Z</time></trkpt><trkpt lat="44.3267653" lon="11.6756475"><ele>59.0</ele><time>2026-05-01T15:35:00.975Z</time></trkpt><trkpt lat="44.326675" lon="11.6755537"><ele>59.00000000000001</ele><time>2026-05-01T15:35:03.003Z</time></trkpt><trkpt lat="44.3265906" lon="11.6754515"><ele>59.00000000000001</ele><time>2026-05-01T15:35:04.98Z</time></trkpt><trkpt lat="44.3265162" lon="11.6753502"><ele>59.0</ele><time>2026-05-01T15:35:06.961Z</time></trkpt><trkpt lat="44.3264532" lon="11.6752355"><ele>59.0</ele><time>2026-05-01T15:35:08.973Z</time></trkpt><trkpt lat="44.3264021" lon="11.6751079"><ele>58.0</ele><time>2026-05-01T15:35:10.978Z</time></trkpt><trkpt lat="44.3263594" lon="11.674961"><ele>57.0</ele><time>2026-05-01T15:35:12.974Z</time></trkpt><trkpt lat="44.3263338" lon="11.6748175"><ele>56.0</ele><time>2026-05-01T15:35:14.976Z</time></trkpt><trkpt lat="44.326313" lon="11.6746617"><ele>55.0</ele><time>2026-05-01T15:35:16.978Z</time></trkpt><trkpt lat="44.3263019" lon="11.6744977"><ele>55.5</ele><time>2026-05-01T15:35:18.98Z</time></trkpt><trkpt lat="44.3262925" lon="11.6743271"><ele>56.0</ele><time>2026-05-01T15:35:20.981Z</time></trkpt><trkpt lat="44.3263" lon="11.6741617"><ele>56.5</ele><time>2026-05-01T15:35:22.976Z</time></trkpt><trkpt lat="44.3262969" lon="11.6739982"><ele>57.0</ele><time>2026-05-01T15:35:24.962Z</time></trkpt><trkpt lat="44.3262932" lon="11.6738347"><ele>57.0</ele><time>2026-05-01T15:35:26.977Z</time></trkpt><trkpt lat="44.3262862" lon="11.6736662"><ele>57.0</ele><time>2026-05-01T15:35:28.973Z</time></trkpt><trkpt lat="44.3262659" lon="11.673496"><ele>57.0</ele><time>2026-05-01T15:35:30.977Z</time></trkpt><trkpt lat="44.3262424" lon="11.6733413"><ele>57.0</ele><time>2026-05-01T15:35:32.976Z</time></trkpt><trkpt lat="44.3262067" lon="11.6731821"><ele>57.25</ele><time>2026-05-01T15:35:34.968Z</time></trkpt><trkpt lat="44.3261644" lon="11.6730336"><ele>57.5</ele><time>2026-05-01T15:35:36.971Z</time></trkpt><trkpt lat="44.3261155" lon="11.6728852"><ele>57.75</ele><time>2026-05-01T15:35:38.971Z</time></trkpt><trkpt lat="44.3260691" lon="11.6727341"><ele>58.0</ele><time>2026-05-01T15:35:40.983Z</time></trkpt><trkpt lat="44.3260346" lon="11.6725821"><ele>58.4</ele><time>2026-05-01T15:35:42.978Z</time></trkpt><trkpt lat="44.3260059" lon="11.6724313"><ele>58.8</ele><time>2026-05-01T15:35:44.973Z</time></trkpt><trkpt lat="44.3259717" lon="11.672282"><ele>59.2</ele><time>2026-05-01T15:35:46.966Z</time></trkpt><trkpt lat="44.3259285" lon="11.6721407"><ele>59.6</ele><time>2026-05-01T15:35:48.972Z</time></trkpt><trkpt lat="44.3259015" lon="11.6719894"><ele>60.0</ele><time>2026-05-01T15:35:50.979Z</time></trkpt><trkpt lat="44.3258728" lon="11.671852"><ele>60.4</ele><time>2026-05-01T15:35:52.973Z</time></trkpt><trkpt lat="44.3258367" lon="11.6717116"><ele>60.8</ele><time>2026-05-01T15:35:54.979Z</time></trkpt><trkpt lat="44.3258008" lon="11.6715787"><ele>61.2</ele><time>2026-05-01T15:35:56.976Z</time></trkpt><trkpt lat="44.3257721" lon="11.6714427"><ele>61.6</ele><time>2026-05-01T15:35:58.998Z</time></trkpt><trkpt lat="44.3257366" lon="11.6712967"><ele>62.0</ele><time>2026-05-01T15:36:01.003Z</time></trkpt><trkpt lat="44.3257105" lon="11.671157"><ele>62.0</ele><time>2026-05-01T15:36:02.988Z</time></trkpt><trkpt lat="44.3256729" lon="11.6710203"><ele>62.0</ele><time>2026-05-01T15:36:04.986Z</time></trkpt><trkpt lat="44.3256368" lon="11.6708827"><ele>62.0</ele><time>2026-05-01T15:36:06.972Z</time></trkpt><trkpt lat="44.325589" lon="11.6707468"><ele>62.0</ele><time>2026-05-01T15:36:08.967Z</time></trkpt><trkpt lat="44.3255325" lon="11.6706239"><ele>62.0</ele><time>2026-05-01T15:36:10.968Z</time></trkpt><trkpt lat="44.3254755" lon="11.6704975"><ele>62.0</ele><time>2026-05-01T15:36:12.982Z</time></trkpt><trkpt lat="44.3254143" lon="11.6703866"><ele>62.0</ele><time>2026-05-01T15:36:14.973Z</time></trkpt><trkpt lat="44.3253568" lon="11.6702742"><ele>62.0</ele><time>2026-05-01T15:36:16.976Z</time></trkpt><trkpt lat="44.3253004" lon="11.6701583"><ele>62.0</ele><time>2026-05-01T15:36:18.975Z</time></trkpt><trkpt lat="44.3252279" lon="11.6700349"><ele>62.0</ele><time>2026-05-01T15:36:20.978Z</time></trkpt><trkpt lat="44.325147" lon="11.669902"><ele>62.5</ele><time>2026-05-01T15:36:22.98Z</time></trkpt><trkpt lat="44.3250684" lon="11.669772"><ele>63.0</ele><time>2026-05-01T15:36:24.975Z</time></trkpt><trkpt lat="44.3249864" lon="11.6696453"><ele>63.5</ele><time>2026-05-01T15:36:26.978Z</time></trkpt><trkpt lat="44.32491" lon="11.6695217"><ele>64.0</ele><time>2026-05-01T15:36:28.973Z</time></trkpt><trkpt lat="44.3248322" lon="11.6694053"><ele>64.25</ele><time>2026-05-01T15:36:30.977Z</time></trkpt><trkpt lat="44.3247592" lon="11.6692822"><ele>64.5</ele><time>2026-05-01T15:36:32.98Z</time></trkpt><trkpt lat="44.3246872" lon="11.669161"><ele>64.75</ele><time>2026-05-01T15:36:34.959Z</time></trkpt><trkpt lat="44.324611" lon="11.6690412"><ele>65.0</ele><time>2026-05-01T15:36:36.981Z</time></trkpt><trkpt lat="44.3245374" lon="11.6689164"><ele>65.0</ele><time>2026-05-01T15:36:38.971Z</time></trkpt><trkpt lat="44.3244555" lon="11.6688025"><ele>65.0</ele><time>2026-05-01T15:36:40.977Z</time></trkpt><trkpt lat="44.3243756" lon="11.6686855"><ele>65.0</ele><time>2026-05-01T15:36:42.972Z</time></trkpt><trkpt lat="44.3242964" lon="11.6685636"><ele>65.0</ele><time>2026-05-01T15:36:44.957Z</time></trkpt><trkpt lat="44.3242143" lon="11.6684441"><ele>64.75</ele><time>2026-05-01T15:36:46.969Z</time></trkpt><trkpt lat="44.3241354" lon="11.6683281"><ele>64.5</ele><time>2026-05-01T15:36:48.972Z</time></trkpt><trkpt lat="44.3240529" lon="11.6682137"><ele>64.25</ele><time>2026-05-01T15:36:50.968Z</time></trkpt><trkpt lat="44.3239756" lon="11.6680938"><ele>64.0</ele><time>2026-05-01T15:36:52.971Z</time></trkpt><trkpt lat="44.3238995" lon="11.6679649"><ele>64.0</ele><time>2026-05-01T15:36:54.978Z</time></trkpt><trkpt lat="44.3238255" lon="11.6678378"><ele>64.0</ele><time>2026-05-01T15:36:56.953Z</time></trkpt><trkpt lat="44.3237509" lon="11.6677201"><ele>64.0</ele><time>2026-05-01T15:36:58.948Z</time></trkpt><trkpt lat="44.3236791" lon="11.6676014"><ele>64.0</ele><time>2026-05-01T15:37:00.974Z</time></trkpt><trkpt lat="44.3236033" lon="11.6674843"><ele>64.0</ele><time>2026-05-01T15:37:02.979Z</time></trkpt><trkpt lat="44.3235223" lon="11.6673686"><ele>64.0</ele><time>2026-05-01T15:37:04.994Z</time></trkpt><trkpt lat="44.3234444" lon="11.6672536"><ele>64.0</ele><time>2026-05-01T15:37:06.972Z</time></trkpt><trkpt lat="44.3233607" lon="11.6671431"><ele>64.0</ele><time>2026-05-01T15:37:08.988Z</time></trkpt><trkpt lat="44.3232716" lon="11.6670398"><ele>64.25</ele><time>2026-05-01T15:37:10.991Z</time></trkpt><trkpt lat="44.323191" lon="11.6669324"><ele>64.5</ele><time>2026-05-01T15:37:12.965Z</time></trkpt><trkpt lat="44.3231053" lon="11.6668177"><ele>64.75</ele><time>2026-05-01T15:37:14.989Z</time></trkpt><trkpt lat="44.3230104" lon="11.6667076"><ele>65.0</ele><time>2026-05-01T15:37:16.99Z</time></trkpt><trkpt lat="44.3229204" lon="11.6666046"><ele>65.25</ele><time>2026-05-01T15:37:18.983Z</time></trkpt><trkpt lat="44.3228409" lon="11.6664901"><ele>65.5</ele><time>2026-05-01T15:37:20.996Z</time></trkpt><trkpt lat="44.3227582" lon="11.6663763"><ele>65.75</ele><time>2026-05-01T15:37:22.986Z</time></trkpt><trkpt lat="44.3226774" lon="11.6662605"><ele>66.0</ele><time>2026-05-01T15:37:24.997Z</time></trkpt><trkpt lat="44.3225893" lon="11.6661488"><ele>66.0</ele><time>2026-05-01T15:37:26.986Z</time></trkpt><trkpt lat="44.3224968" lon="11.6660433"><ele>66.0</ele><time>2026-05-01T15:37:28.994Z</time></trkpt><trkpt lat="44.3224082" lon="11.6659488"><ele>66.0</ele><time>2026-05-01T15:37:30.992Z</time></trkpt><trkpt lat="44.3223142" lon="11.6658666"><ele>66.0</ele><time>2026-05-01T15:37:32.993Z</time></trkpt><trkpt lat="44.32222" lon="11.6657785"><ele>66.0</ele><time>2026-05-01T15:37:34.991Z</time></trkpt><trkpt lat="44.3221364" lon="11.6656905"><ele>66.0</ele><time>2026-05-01T15:37:36.977Z</time></trkpt><trkpt lat="44.3220559" lon="11.6655957"><ele>66.0</ele><time>2026-05-01T15:37:38.98Z</time></trkpt><trkpt lat="44.3219717" lon="11.665505"><ele>66.0</ele><time>2026-05-01T15:37:40.996Z</time></trkpt><trkpt lat="44.3218859" lon="11.6654259"><ele>66.0</ele><time>2026-05-01T15:37:42.99Z</time></trkpt><trkpt lat="44.3217994" lon="11.6653504"><ele>66.0</ele><time>2026-05-01T15:37:44.976Z</time></trkpt><trkpt lat="44.3217109" lon="11.6652877"><ele>66.0</ele><time>2026-05-01T15:37:46.992Z</time></trkpt><trkpt lat="44.3216231" lon="11.6652256"><ele>66.0</ele><time>2026-05-01T15:37:48.988Z</time></trkpt><trkpt lat="44.3215332" lon="11.6651628"><ele>66.0</ele><time>2026-05-01T15:37:50.984Z</time></trkpt><trkpt lat="44.3214399" lon="11.6650956"><ele>66.0</ele><time>2026-05-01T15:37:52.994Z</time></trkpt><trkpt lat="44.3213482" lon="11.6650402"><ele>65.6</ele><time>2026-05-01T15:37:54.966Z</time></trkpt><trkpt lat="44.3212586" lon="11.6649672"><ele>65.19999999999999</ele><time>2026-05-01T15:37:56.987Z</time></trkpt><trkpt lat="44.3211805" lon="11.6648701"><ele>64.80000000000001</ele><time>2026-05-01T15:37:58.982Z</time></trkpt><trkpt lat="44.3211042" lon="11.6647605"><ele>64.4</ele><time>2026-05-01T15:38:00.987Z</time></trkpt><trkpt lat="44.3210252" lon="11.6646358"><ele>64.0</ele><time>2026-05-01T15:38:02.99Z</time></trkpt><trkpt lat="44.3209677" lon="11.6645019"><ele>64.4</ele><time>2026-05-01T15:38:04.989Z</time></trkpt><trkpt lat="44.3209717" lon="11.6643574"><ele>64.80000000000001</ele><time>2026-05-01T15:38:07.003Z</time></trkpt><trkpt lat="44.3210553" lon="11.664249"><ele>65.19999999999999</ele><time>2026-05-01T15:38:08.97Z</time></trkpt><trkpt lat="44.3211234" lon="11.6641489"><ele>65.6</ele><time>2026-05-01T15:38:10.994Z</time></trkpt><trkpt lat="44.3211795" lon="11.6640558"><ele>66.0</ele><time>2026-05-01T15:38:12.988Z</time></trkpt><trkpt lat="44.3212392" lon="11.6639686"><ele>66.0</ele><time>2026-05-01T15:38:14.994Z</time></trkpt><trkpt lat="44.321294" lon="11.6638718"><ele>66.0</ele><time>2026-05-01T15:38:16.99Z</time></trkpt><trkpt lat="44.3213597" lon="11.6637835"><ele>66.0</ele><time>2026-05-01T15:38:18.971Z</time></trkpt><trkpt lat="44.3214282" lon="11.6636974"><ele>66.0</ele><time>2026-05-01T15:38:20.995Z</time></trkpt><trkpt lat="44.3214945" lon="11.6636217"><ele>66.0</ele><time>2026-05-01T15:38:22.986Z</time></trkpt><trkpt lat="44.3215521" lon="11.6635419"><ele>66.0</ele><time>2026-05-01T15:38:24.991Z</time></trkpt><trkpt lat="44.321605" lon="11.6634443"><ele>66.33333333333333</ele><time>2026-05-01T15:38:26.995Z</time></trkpt><trkpt lat="44.3216652" lon="11.6633546"><ele>66.66666666666667</ele><time>2026-05-01T15:38:28.993Z</time></trkpt><trkpt lat="44.321735" lon="11.6632697"><ele>67.0</ele><time>2026-05-01T15:38:31.006Z</time></trkpt><trkpt lat="44.321798" lon="11.6631812"><ele>67.33333333333334</ele><time>2026-05-01T15:38:33Z</time></trkpt><trkpt lat="44.3218601" lon="11.6630947"><ele>67.66666666666667</ele><time>2026-05-01T15:38:34.987Z</time></trkpt><trkpt lat="44.3219155" lon="11.6630003"><ele>68.0</ele><time>2026-05-01T15:38:36.991Z</time></trkpt><trkpt lat="44.321973" lon="11.6629173"><ele>67.99999999999999</ele><time>2026-05-01T15:38:38.99Z</time></trkpt><trkpt lat="44.3220199" lon="11.662844"><ele>68.0</ele><time>2026-05-01T15:38:40.966Z</time></trkpt><trkpt lat="44.3220588" lon="11.662771"><ele>68.0</ele><time>2026-05-01T15:38:42.988Z</time></trkpt><trkpt lat="44.3221158" lon="11.6626802"><ele>68.0</ele><time>2026-05-01T15:38:45.966Z</time></trkpt><trkpt lat="44.3221634" lon="11.6625993"><ele>68.0</ele><time>2026-05-01T15:38:48.973Z</time></trkpt><trkpt lat="44.3222067" lon="11.6625151"><ele>67.99999999999999</ele><time>2026-05-01T15:38:52.969Z</time></trkpt><trkpt lat="44.3222582" lon="11.6624346"><ele>68.0</ele><time>2026-05-01T15:38:58.97Z</time></trkpt><trkpt lat="44.3222636" lon="11.6623334"><ele>68.0</ele><time>2026-05-01T15:40:04.977Z</time></trkpt><trkpt lat="44.3223178" lon="11.6622561"><ele>68.0</ele><time>2026-05-01T15:40:08.983Z</time></trkpt><trkpt lat="44.32237" lon="11.6621719"><ele>68.0</ele><time>2026-05-01T15:40:11.968Z</time></trkpt><trkpt lat="44.3224353" lon="11.6620918"><ele>68.0</ele><time>2026-05-01T15:40:14.964Z</time></trkpt><trkpt lat="44.322488" lon="11.6620245"><ele>68.0</ele><time>2026-05-01T15:40:16.988Z</time></trkpt><trkpt lat="44.322538" lon="11.661944"><ele>68.0</ele><time>2026-05-01T15:40:18.978Z</time></trkpt><trkpt lat="44.3225931" lon="11.6618731"><ele>68.16666666666667</ele><time>2026-05-01T15:40:20.993Z</time></trkpt><trkpt lat="44.3226464" lon="11.6617912"><ele>68.33333333333334</ele><time>2026-05-01T15:40:22.988Z</time></trkpt><trkpt lat="44.3227001" lon="11.6617024"><ele>68.5</ele><time>2026-05-01T15:40:24.963Z</time></trkpt><trkpt lat="44.3227601" lon="11.6616142"><ele>68.66666666666667</ele><time>2026-05-01T15:40:26.997Z</time></trkpt><trkpt lat="44.3228076" lon="11.6615245"><ele>68.83333333333333</ele><time>2026-05-01T15:40:28.968Z</time></trkpt><trkpt lat="44.3228515" lon="11.661434"><ele>69.0</ele><time>2026-05-01T15:40:31Z</time></trkpt><trkpt lat="44.3229102" lon="11.661343"><ele>69.0</ele><time>2026-05-01T15:40:32.973Z</time></trkpt><trkpt lat="44.3229674" lon="11.661253"><ele>69.0</ele><time>2026-05-01T15:40:34.976Z</time></trkpt><trkpt lat="44.3230279" lon="11.6611676"><ele>69.0</ele><time>2026-05-01T15:40:36.997Z</time></trkpt><trkpt lat="44.3230832" lon="11.6610667"><ele>69.0</ele><time>2026-05-01T15:40:38.974Z</time></trkpt><trkpt lat="44.3231321" lon="11.6609687"><ele>69.0</ele><time>2026-05-01T15:40:40.961Z</time></trkpt><trkpt lat="44.3231881" lon="11.6608635"><ele>69.0</ele><time>2026-05-01T15:40:42.966Z</time></trkpt><trkpt lat="44.3232405" lon="11.6607647"><ele>69.16666666666667</ele><time>2026-05-01T15:40:44.962Z</time></trkpt><trkpt lat="44.3232956" lon="11.6606783"><ele>69.33333333333333</ele><time>2026-05-01T15:40:46.973Z</time></trkpt><trkpt lat="44.323351" lon="11.6605908"><ele>69.5</ele><time>2026-05-01T15:40:48.966Z</time></trkpt><trkpt lat="44.3234054" lon="11.6604905"><ele>69.66666666666666</ele><time>2026-05-01T15:40:50.959Z</time></trkpt><trkpt lat="44.3234569" lon="11.6603902"><ele>69.83333333333333</ele><time>2026-05-01T15:40:52.967Z</time></trkpt><trkpt lat="44.3235088" lon="11.6603072"><ele>70.0</ele><time>2026-05-01T15:40:54.977Z</time></trkpt><trkpt lat="44.3235512" lon="11.6602211"><ele>70.0</ele><time>2026-05-01T15:40:56.953Z</time></trkpt><trkpt lat="44.3235965" lon="11.6601285"><ele>70.0</ele><time>2026-05-01T15:40:58.976Z</time></trkpt><trkpt lat="44.3236444" lon="11.6600445"><ele>70.0</ele><time>2026-05-01T15:41:00.954Z</time></trkpt><trkpt lat="44.3237044" lon="11.6599569"><ele>70.0</ele><time>2026-05-01T15:41:02.984Z</time></trkpt><trkpt lat="44.3237584" lon="11.6598662"><ele>70.0</ele><time>2026-05-01T15:41:04.973Z</time></trkpt><trkpt lat="44.3238077" lon="11.6597725"><ele>70.0</ele><time>2026-05-01T15:41:07.001Z</time></trkpt><trkpt lat="44.3238605" lon="11.6596942"><ele>70.33333333333333</ele><time>2026-05-01T15:41:08.978Z</time></trkpt><trkpt lat="44.3239126" lon="11.6596109"><ele>70.66666666666666</ele><time>2026-05-01T15:41:11.002Z</time></trkpt><trkpt lat="44.32397" lon="11.6595248"><ele>71.0</ele><time>2026-05-01T15:41:12.991Z</time></trkpt><trkpt lat="44.3240195" lon="11.6594456"><ele>71.33333333333333</ele><time>2026-05-01T15:41:14.996Z</time></trkpt><trkpt lat="44.3240649" lon="11.659367"><ele>71.66666666666667</ele><time>2026-05-01T15:41:17.001Z</time></trkpt><trkpt lat="44.3241105" lon="11.6593017"><ele>72.0</ele><time>2026-05-01T15:41:18.974Z</time></trkpt><trkpt lat="44.3241603" lon="11.6592157"><ele>72.57142857142858</ele><time>2026-05-01T15:41:20.985Z</time></trkpt><trkpt lat="44.3242104" lon="11.6591563"><ele>73.14285714285714</ele><time>2026-05-01T15:41:22.986Z</time></trkpt><trkpt lat="44.3242555" lon="11.6590882"><ele>73.71428571428572</ele><time>2026-05-01T15:41:24.99Z</time></trkpt><trkpt lat="44.324304" lon="11.6590186"><ele>74.28571428571429</ele><time>2026-05-01T15:41:26.992Z</time></trkpt><trkpt lat="44.3243497" lon="11.6589519"><ele>74.85714285714286</ele><time>2026-05-01T15:41:28.986Z</time></trkpt><trkpt lat="44.3244107" lon="11.6588744"><ele>75.42857142857143</ele><time>2026-05-01T15:41:31.997Z</time></trkpt><trkpt lat="44.3244307" lon="11.6587683"><ele>76.0</ele><time>2026-05-01T15:41:59.951Z</time></trkpt><trkpt lat="44.324434" lon="11.6586695"><ele>76.16666666666666</ele><time>2026-05-01T15:42:02.971Z</time></trkpt><trkpt lat="44.3244208" lon="11.6585798"><ele>76.33333333333333</ele><time>2026-05-01T15:42:04.984Z</time></trkpt><trkpt lat="44.3243937" lon="11.6584878"><ele>76.5</ele><time>2026-05-01T15:42:06.981Z</time></trkpt><trkpt lat="44.3243645" lon="11.6583752"><ele>76.66666666666667</ele><time>2026-05-01T15:42:08.983Z</time></trkpt><trkpt lat="44.3243289" lon="11.6582592"><ele>76.83333333333334</ele><time>2026-05-01T15:42:10.96Z</time></trkpt><trkpt lat="44.3242833" lon="11.6581459"><ele>77.0</ele><time>2026-05-01T15:42:13.002Z</time></trkpt><trkpt lat="44.3242266" lon="11.6580157"><ele>77.0</ele><time>2026-05-01T15:42:14.968Z</time></trkpt><trkpt lat="44.3241676" lon="11.6578915"><ele>77.0</ele><time>2026-05-01T15:42:16.984Z</time></trkpt><trkpt lat="44.3240982" lon="11.6577648"><ele>77.0</ele><time>2026-05-01T15:42:18.999Z</time></trkpt><trkpt lat="44.3240307" lon="11.6576504"><ele>77.0</ele><time>2026-05-01T15:42:21.001Z</time></trkpt><trkpt lat="44.3239651" lon="11.6575322"><ele>77.0</ele><time>2026-05-01T15:42:22.989Z</time></trkpt><trkpt lat="44.3238989" lon="11.6574138"><ele>76.4</ele><time>2026-05-01T15:42:24.996Z</time></trkpt><trkpt lat="44.3238342" lon="11.6572869"><ele>75.80000000000001</ele><time>2026-05-01T15:42:27.003Z</time></trkpt><trkpt lat="44.3237712" lon="11.6571623"><ele>75.2</ele><time>2026-05-01T15:42:28.994Z</time></trkpt><trkpt lat="44.3237064" lon="11.6570421"><ele>74.60000000000001</ele><time>2026-05-01T15:42:30.979Z</time></trkpt><trkpt lat="44.3236433" lon="11.6569098"><ele>74.0</ele><time>2026-05-01T15:42:32.994Z</time></trkpt><trkpt lat="44.3235752" lon="11.6567831"><ele>74.0</ele><time>2026-05-01T15:42:34.987Z</time></trkpt><trkpt lat="44.3235141" lon="11.6566503"><ele>74.0</ele><time>2026-05-01T15:42:37.005Z</time></trkpt><trkpt lat="44.3234514" lon="11.6565091"><ele>74.0</ele><time>2026-05-01T15:42:38.99Z</time></trkpt><trkpt lat="44.3233939" lon="11.6563594"><ele>74.0</ele><time>2026-05-01T15:42:40.99Z</time></trkpt><trkpt lat="44.3233249" lon="11.6562233"><ele>74.4</ele><time>2026-05-01T15:42:42.996Z</time></trkpt><trkpt lat="44.3232659" lon="11.6560859"><ele>74.80000000000001</ele><time>2026-05-01T15:42:44.997Z</time></trkpt><trkpt lat="44.323202" lon="11.6559659"><ele>75.19999999999999</ele><time>2026-05-01T15:42:46.999Z</time></trkpt><trkpt lat="44.3231406" lon="11.6558461"><ele>75.6</ele><time>2026-05-01T15:42:48.995Z</time></trkpt><trkpt lat="44.3230781" lon="11.655723"><ele>76.0</ele><time>2026-05-01T15:42:51.001Z</time></trkpt><trkpt lat="44.3230176" lon="11.6555769"><ele>76.0</ele><time>2026-05-01T15:42:53.005Z</time></trkpt><trkpt lat="44.3229595" lon="11.6554522"><ele>76.0</ele><time>2026-05-01T15:42:55.004Z</time></trkpt><trkpt lat="44.3228963" lon="11.6553419"><ele>76.0</ele><time>2026-05-01T15:42:56.989Z</time></trkpt><trkpt lat="44.3228364" lon="11.6552327"><ele>76.0</ele><time>2026-05-01T15:42:58.972Z</time></trkpt><trkpt lat="44.3227767" lon="11.6551175"><ele>76.0</ele><time>2026-05-01T15:43:00.987Z</time></trkpt><trkpt lat="44.3227126" lon="11.6550063"><ele>76.39999999999999</ele><time>2026-05-01T15:43:02.999Z</time></trkpt><trkpt lat="44.3226431" lon="11.6548953"><ele>76.8</ele><time>2026-05-01T15:43:04.99Z</time></trkpt><trkpt lat="44.3225748" lon="11.6547794"><ele>77.19999999999999</ele><time>2026-05-01T15:43:06.994Z</time></trkpt><trkpt lat="44.3225045" lon="11.6546554"><ele>77.6</ele><time>2026-05-01T15:43:08.991Z</time></trkpt><trkpt lat="44.3224276" lon="11.6545438"><ele>78.0</ele><time>2026-05-01T15:43:11.001Z</time></trkpt><trkpt lat="44.3223421" lon="11.6544307"><ele>78.2</ele><time>2026-05-01T15:43:12.986Z</time></trkpt><trkpt lat="44.3222607" lon="11.6543221"><ele>78.4</ele><time>2026-05-01T15:43:15Z</time></trkpt><trkpt lat="44.3221788" lon="11.6542182"><ele>78.60000000000001</ele><time>2026-05-01T15:43:16.996Z</time></trkpt><trkpt lat="44.3221012" lon="11.6541137"><ele>78.8</ele><time>2026-05-01T15:43:18.999Z</time></trkpt><trkpt lat="44.3220191" lon="11.6540162"><ele>79.0</ele><time>2026-05-01T15:43:20.979Z</time></trkpt><trkpt lat="44.3219299" lon="11.6539164"><ele>79.0</ele><time>2026-05-01T15:43:22.978Z</time></trkpt><trkpt lat="44.3218457" lon="11.653833"><ele>79.0</ele><time>2026-05-01T15:43:24.974Z</time></trkpt><trkpt lat="44.3217642" lon="11.6537509"><ele>79.0</ele><time>2026-05-01T15:43:26.979Z</time></trkpt><trkpt lat="44.3216804" lon="11.6536473"><ele>79.0</ele><time>2026-05-01T15:43:28.977Z</time></trkpt><trkpt lat="44.3215837" lon="11.6535511"><ele>79.0</ele><time>2026-05-01T15:43:30.975Z</time></trkpt><trkpt lat="44.3214947" lon="11.6534617"><ele>79.25</ele><time>2026-05-01T15:43:32.972Z</time></trkpt><trkpt lat="44.3214" lon="11.6533777"><ele>79.5</ele><time>2026-05-01T15:43:34.976Z</time></trkpt><trkpt lat="44.3213043" lon="11.6532913"><ele>79.75</ele><time>2026-05-01T15:43:36.98Z</time></trkpt><trkpt lat="44.321199" lon="11.6532008"><ele>80.0</ele><time>2026-05-01T15:43:38.97Z</time></trkpt><trkpt lat="44.3210865" lon="11.6531109"><ele>80.0</ele><time>2026-05-01T15:43:40.977Z</time></trkpt><trkpt lat="44.3210285" lon="11.6530742"><ele>80.0</ele><time>2026-05-01T15:43:41.981Z</time></trkpt><trkpt lat="44.3209253" lon="11.6529864"><ele>80.0</ele><time>2026-05-01T15:43:43.978Z</time></trkpt><trkpt lat="44.3208229" lon="11.6529039"><ele>80.0</ele><time>2026-05-01T15:43:46Z</time></trkpt><trkpt lat="44.3207201" lon="11.6528106"><ele>80.0</ele><time>2026-05-01T15:43:47.971Z</time></trkpt><trkpt lat="44.3206058" lon="11.6527257"><ele>80.0</ele><time>2026-05-01T15:43:49.975Z</time></trkpt><trkpt lat="44.3205499" lon="11.652685"><ele>80.0</ele><time>2026-05-01T15:43:50.969Z</time></trkpt><trkpt lat="44.3204434" lon="11.6525998"><ele>80.0</ele><time>2026-05-01T15:43:52.97Z</time></trkpt><trkpt lat="44.3203888" lon="11.652552"><ele>80.0</ele><time>2026-05-01T15:43:53.964Z</time></trkpt><trkpt lat="44.3203336" lon="11.6525084"><ele>80.0</ele><time>2026-05-01T15:43:54.975Z</time></trkpt><trkpt lat="44.3202266" lon="11.6524236"><ele>80.0</ele><time>2026-05-01T15:43:56.976Z</time></trkpt><trkpt lat="44.3201133" lon="11.6523356"><ele>80.0</ele><time>2026-05-01T15:43:58.982Z</time></trkpt><trkpt lat="44.3200553" lon="11.652295"><ele>80.0</ele><time>2026-05-01T15:43:59.982Z</time></trkpt><trkpt lat="44.3199967" lon="11.6522566"><ele>80.0</ele><time>2026-05-01T15:44:00.969Z</time></trkpt><trkpt lat="44.3199369" lon="11.6522179"><ele>80.0</ele><time>2026-05-01T15:44:01.981Z</time></trkpt><trkpt lat="44.319823" lon="11.6521371"><ele>80.0</ele><time>2026-05-01T15:44:03.976Z</time></trkpt><trkpt lat="44.319764" lon="11.652089"><ele>80.0</ele><time>2026-05-01T15:44:04.975Z</time></trkpt><trkpt lat="44.3197021" lon="11.6520444"><ele>79.71428571428571</ele><time>2026-05-01T15:44:05.98Z</time></trkpt><trkpt lat="44.3196401" lon="11.6519977"><ele>79.42857142857143</ele><time>2026-05-01T15:44:06.978Z</time></trkpt><trkpt lat="44.31958" lon="11.6519594"><ele>79.14285714285714</ele><time>2026-05-01T15:44:07.976Z</time></trkpt><trkpt lat="44.3195226" lon="11.6519096"><ele>78.85714285714286</ele><time>2026-05-01T15:44:08.978Z</time></trkpt><trkpt lat="44.3194654" lon="11.6518608"><ele>78.57142857142857</ele><time>2026-05-01T15:44:09.971Z</time></trkpt><trkpt lat="44.3194022" lon="11.651814"><ele>78.28571428571429</ele><time>2026-05-01T15:44:10.979Z</time></trkpt><trkpt lat="44.3193386" lon="11.6517759"><ele>78.0</ele><time>2026-05-01T15:44:11.977Z</time></trkpt><trkpt lat="44.3192803" lon="11.65173"><ele>78.0</ele><time>2026-05-01T15:44:12.972Z</time></trkpt><trkpt lat="44.3192218" lon="11.6516864"><ele>78.0</ele><time>2026-05-01T15:44:13.979Z</time></trkpt><trkpt lat="44.3191629" lon="11.6516371"><ele>78.0</ele><time>2026-05-01T15:44:14.973Z</time></trkpt><trkpt lat="44.3191049" lon="11.6515924"><ele>78.0</ele><time>2026-05-01T15:44:15.975Z</time></trkpt><trkpt lat="44.3190464" lon="11.6515473"><ele>78.0</ele><time>2026-05-01T15:44:16.982Z</time></trkpt><trkpt lat="44.3189874" lon="11.6515068"><ele>78.0</ele><time>2026-05-01T15:44:17.976Z</time></trkpt><trkpt lat="44.3189266" lon="11.6514668"><ele>78.0</ele><time>2026-05-01T15:44:18.98Z</time></trkpt><trkpt lat="44.3188647" lon="11.6514221"><ele>77.57142857142857</ele><time>2026-05-01T15:44:19.985Z</time></trkpt><trkpt lat="44.3188034" lon="11.6513743"><ele>77.14285714285714</ele><time>2026-05-01T15:44:20.981Z</time></trkpt><trkpt lat="44.3187432" lon="11.6513227"><ele>76.71428571428571</ele><time>2026-05-01T15:44:21.973Z</time></trkpt><trkpt lat="44.3186789" lon="11.6512709"><ele>76.28571428571428</ele><time>2026-05-01T15:44:22.98Z</time></trkpt><trkpt lat="44.3186124" lon="11.6512184"><ele>75.85714285714286</ele><time>2026-05-01T15:44:23.975Z</time></trkpt><trkpt lat="44.3185478" lon="11.6511641"><ele>75.42857142857142</ele><time>2026-05-01T15:44:24.966Z</time></trkpt><trkpt lat="44.3184822" lon="11.6511206"><ele>75.0</ele><time>2026-05-01T15:44:25.978Z</time></trkpt><trkpt lat="44.318419" lon="11.6510731"><ele>74.71428571428571</ele><time>2026-05-01T15:44:26.973Z</time></trkpt><trkpt lat="44.3183556" lon="11.6510222"><ele>74.42857142857143</ele><time>2026-05-01T15:44:27.973Z</time></trkpt><trkpt lat="44.3182932" lon="11.6509762"><ele>74.14285714285714</ele><time>2026-05-01T15:44:28.97Z</time></trkpt><trkpt lat="44.3182307" lon="11.6509319"><ele>73.85714285714286</ele><time>2026-05-01T15:44:29.978Z</time></trkpt><trkpt lat="44.318167" lon="11.6508789"><ele>73.57142857142857</ele><time>2026-05-01T15:44:30.966Z</time></trkpt><trkpt lat="44.3181048" lon="11.6508292"><ele>73.28571428571428</ele><time>2026-05-01T15:44:31.972Z</time></trkpt><trkpt lat="44.3180445" lon="11.6507824"><ele>73.0</ele><time>2026-05-01T15:44:32.976Z</time></trkpt><trkpt lat="44.3179862" lon="11.6507343"><ele>72.57142857142857</ele><time>2026-05-01T15:44:33.977Z</time></trkpt><trkpt lat="44.3179294" lon="11.6506888"><ele>72.14285714285714</ele><time>2026-05-01T15:44:34.971Z</time></trkpt><trkpt lat="44.3178674" lon="11.6506473"><ele>71.71428571428572</ele><time>2026-05-01T15:44:35.97Z</time></trkpt><trkpt lat="44.3178065" lon="11.6506041"><ele>71.28571428571428</ele><time>2026-05-01T15:44:36.98Z</time></trkpt><trkpt lat="44.3177466" lon="11.6505625"><ele>70.85714285714286</ele><time>2026-05-01T15:44:37.977Z</time></trkpt><trkpt lat="44.3176865" lon="11.6505126"><ele>70.42857142857143</ele><time>2026-05-01T15:44:38.977Z</time></trkpt><trkpt lat="44.3176261" lon="11.6504661"><ele>70.0</ele><time>2026-05-01T15:44:39.967Z</time></trkpt><trkpt lat="44.3175698" lon="11.6504212"><ele>70.0</ele><time>2026-05-01T15:44:40.955Z</time></trkpt><trkpt lat="44.3175129" lon="11.6503767"><ele>70.0</ele><time>2026-05-01T15:44:41.959Z</time></trkpt><trkpt lat="44.3174085" lon="11.6502904"><ele>70.0</ele><time>2026-05-01T15:44:43.949Z</time></trkpt><trkpt lat="44.317353" lon="11.6502466"><ele>70.0</ele><time>2026-05-01T15:44:44.959Z</time></trkpt><trkpt lat="44.3172464" lon="11.6501604"><ele>70.0</ele><time>2026-05-01T15:44:46.951Z</time></trkpt><trkpt lat="44.3171903" lon="11.6501157"><ele>70.0</ele><time>2026-05-01T15:44:47.962Z</time></trkpt><trkpt lat="44.3171328" lon="11.6500697"><ele>70.83333333333333</ele><time>2026-05-01T15:44:48.951Z</time></trkpt><trkpt lat="44.3170761" lon="11.6500269"><ele>71.66666666666666</ele><time>2026-05-01T15:44:49.982Z</time></trkpt><trkpt lat="44.3170178" lon="11.6499832"><ele>72.5</ele><time>2026-05-01T15:44:50.952Z</time></trkpt><trkpt lat="44.3169586" lon="11.6499367"><ele>73.33333333333333</ele><time>2026-05-01T15:44:51.962Z</time></trkpt><trkpt lat="44.3169003" lon="11.6498925"><ele>74.16666666666667</ele><time>2026-05-01T15:44:52.965Z</time></trkpt><trkpt lat="44.3167926" lon="11.64981"><ele>75.0</ele><time>2026-05-01T15:44:54.966Z</time></trkpt><trkpt lat="44.3166808" lon="11.6497275"><ele>75.0</ele><time>2026-05-01T15:44:56.968Z</time></trkpt><trkpt lat="44.3166241" lon="11.6496874"><ele>75.0</ele><time>2026-05-01T15:44:57.964Z</time></trkpt><trkpt lat="44.3165667" lon="11.6496461"><ele>75.0</ele><time>2026-05-01T15:44:58.968Z</time></trkpt><trkpt lat="44.3164607" lon="11.6495589"><ele>75.0</ele><time>2026-05-01T15:45:00.949Z</time></trkpt><trkpt lat="44.3163541" lon="11.6494667"><ele>75.0</ele><time>2026-05-01T15:45:02.957Z</time></trkpt><trkpt lat="44.3162458" lon="11.6493784"><ele>75.75</ele><time>2026-05-01T15:45:04.957Z</time></trkpt><trkpt lat="44.3161384" lon="11.6493041"><ele>76.5</ele><time>2026-05-01T15:45:06.957Z</time></trkpt><trkpt lat="44.316032" lon="11.6492193"><ele>77.25</ele><time>2026-05-01T15:45:08.962Z</time></trkpt><trkpt lat="44.3159285" lon="11.6491459"><ele>78.0</ele><time>2026-05-01T15:45:10.967Z</time></trkpt><trkpt lat="44.3158218" lon="11.6490707"><ele>78.0</ele><time>2026-05-01T15:45:12.965Z</time></trkpt><trkpt lat="44.3157153" lon="11.6489933"><ele>78.0</ele><time>2026-05-01T15:45:14.969Z</time></trkpt><trkpt lat="44.3156099" lon="11.6489003"><ele>78.0</ele><time>2026-05-01T15:45:16.948Z</time></trkpt><trkpt lat="44.3155051" lon="11.648817"><ele>78.0</ele><time>2026-05-01T15:45:18.964Z</time></trkpt><trkpt lat="44.3153904" lon="11.6487329"><ele>77.6</ele><time>2026-05-01T15:45:20.954Z</time></trkpt><trkpt lat="44.315334" lon="11.6486894"><ele>77.19999999999999</ele><time>2026-05-01T15:45:21.96Z</time></trkpt><trkpt lat="44.3152775" lon="11.6486455"><ele>76.8</ele><time>2026-05-01T15:45:22.964Z</time></trkpt><trkpt lat="44.3151659" lon="11.6485629"><ele>76.39999999999999</ele><time>2026-05-01T15:45:24.963Z</time></trkpt><trkpt lat="44.315107" lon="11.6485168"><ele>76.0</ele><time>2026-05-01T15:45:25.959Z</time></trkpt><trkpt lat="44.3149924" lon="11.6484287"><ele>76.0</ele><time>2026-05-01T15:45:27.961Z</time></trkpt><trkpt lat="44.3149304" lon="11.6483888"><ele>76.0</ele><time>2026-05-01T15:45:28.957Z</time></trkpt><trkpt lat="44.3148706" lon="11.6483511"><ele>76.0</ele><time>2026-05-01T15:45:29.964Z</time></trkpt><trkpt lat="44.3148137" lon="11.6483028"><ele>76.0</ele><time>2026-05-01T15:45:30.958Z</time></trkpt><trkpt lat="44.3147543" lon="11.6482592"><ele>76.0</ele><time>2026-05-01T15:45:31.963Z</time></trkpt><trkpt lat="44.3146949" lon="11.6482119"><ele>76.0</ele><time>2026-05-01T15:45:32.963Z</time></trkpt><trkpt lat="44.3146335" lon="11.6481705"><ele>76.0</ele><time>2026-05-01T15:45:33.96Z</time></trkpt><trkpt lat="44.3145701" lon="11.6481264"><ele>75.85714285714285</ele><time>2026-05-01T15:45:34.96Z</time></trkpt><trkpt lat="44.3145097" lon="11.6480753"><ele>75.71428571428572</ele><time>2026-05-01T15:45:35.965Z</time></trkpt><trkpt lat="44.3144483" lon="11.6480272"><ele>75.57142857142857</ele><time>2026-05-01T15:45:36.96Z</time></trkpt><trkpt lat="44.3143855" lon="11.6479811"><ele>75.42857142857142</ele><time>2026-05-01T15:45:37.968Z</time></trkpt><trkpt lat="44.3143216" lon="11.6479392"><ele>75.28571428571428</ele><time>2026-05-01T15:45:38.963Z</time></trkpt><trkpt lat="44.3142586" lon="11.6478899"><ele>75.14285714285714</ele><time>2026-05-01T15:45:39.974Z</time></trkpt><trkpt lat="44.3141984" lon="11.6478426"><ele>75.0</ele><time>2026-05-01T15:45:40.966Z</time></trkpt><trkpt lat="44.3141333" lon="11.6477984"><ele>74.99999999999999</ele><time>2026-05-01T15:45:41.96Z</time></trkpt><trkpt lat="44.3140698" lon="11.6477517"><ele>75.0</ele><time>2026-05-01T15:45:42.965Z</time></trkpt><trkpt lat="44.314009" lon="11.647708"><ele>75.0</ele><time>2026-05-01T15:45:43.957Z</time></trkpt><trkpt lat="44.3139514" lon="11.6476649"><ele>75.0</ele><time>2026-05-01T15:45:44.958Z</time></trkpt><trkpt lat="44.3138932" lon="11.6476174"><ele>75.0</ele><time>2026-05-01T15:45:45.96Z</time></trkpt><trkpt lat="44.3138345" lon="11.6475725"><ele>74.99999999999999</ele><time>2026-05-01T15:45:46.972Z</time></trkpt><trkpt lat="44.3137753" lon="11.6475317"><ele>75.0</ele><time>2026-05-01T15:45:47.969Z</time></trkpt><trkpt lat="44.3137178" lon="11.6474871"><ele>74.42857142857142</ele><time>2026-05-01T15:45:48.962Z</time></trkpt><trkpt lat="44.3136581" lon="11.6474468"><ele>73.85714285714286</ele><time>2026-05-01T15:45:49.97Z</time></trkpt><trkpt lat="44.3135974" lon="11.6474034"><ele>73.28571428571428</ele><time>2026-05-01T15:45:50.962Z</time></trkpt><trkpt lat="44.3135367" lon="11.6473565"><ele>72.71428571428571</ele><time>2026-05-01T15:45:51.96Z</time></trkpt><trkpt lat="44.3134781" lon="11.6473087"><ele>72.14285714285714</ele><time>2026-05-01T15:45:52.954Z</time></trkpt><trkpt lat="44.3134197" lon="11.6472615"><ele>71.57142857142857</ele><time>2026-05-01T15:45:53.961Z</time></trkpt><trkpt lat="44.3133533" lon="11.6472072"><ele>71.0</ele><time>2026-05-01T15:45:54.955Z</time></trkpt><trkpt lat="44.3132966" lon="11.6471519"><ele>71.0</ele><time>2026-05-01T15:45:55.955Z</time></trkpt><trkpt lat="44.3132421" lon="11.6470992"><ele>71.0</ele><time>2026-05-01T15:45:56.956Z</time></trkpt><trkpt lat="44.3131431" lon="11.6469943"><ele>71.0</ele><time>2026-05-01T15:45:58.955Z</time></trkpt><trkpt lat="44.3130919" lon="11.6469352"><ele>71.0</ele><time>2026-05-01T15:45:59.96Z</time></trkpt><trkpt lat="44.3130426" lon="11.6468695"><ele>71.0</ele><time>2026-05-01T15:46:00.953Z</time></trkpt><trkpt lat="44.3128944" lon="11.6466897"><ele>71.0</ele><time>2026-05-01T15:46:03.971Z</time></trkpt><trkpt lat="44.312851" lon="11.646623"><ele>71.0</ele><time>2026-05-01T15:46:04.954Z</time></trkpt><trkpt lat="44.3128059" lon="11.6465595"><ele>71.0</ele><time>2026-05-01T15:46:05.963Z</time></trkpt><trkpt lat="44.3127179" lon="11.6464189"><ele>71.0</ele><time>2026-05-01T15:46:07.966Z</time></trkpt><trkpt lat="44.3126717" lon="11.6463458"><ele>71.0</ele><time>2026-05-01T15:46:08.954Z</time></trkpt><trkpt lat="44.3126245" lon="11.6462701"><ele>71.0</ele><time>2026-05-01T15:46:09.95Z</time></trkpt><trkpt lat="44.3125797" lon="11.6461919"><ele>70.85714285714286</ele><time>2026-05-01T15:46:10.955Z</time></trkpt><trkpt lat="44.3125357" lon="11.646117"><ele>70.71428571428571</ele><time>2026-05-01T15:46:11.969Z</time></trkpt><trkpt lat="44.3124942" lon="11.6460466"><ele>70.57142857142857</ele><time>2026-05-01T15:46:12.966Z</time></trkpt><trkpt lat="44.3124514" lon="11.6459723"><ele>70.42857142857143</ele><time>2026-05-01T15:46:13.959Z</time></trkpt><trkpt lat="44.3124101" lon="11.6459026"><ele>70.28571428571428</ele><time>2026-05-01T15:46:14.963Z</time></trkpt><trkpt lat="44.3123658" lon="11.6458324"><ele>70.14285714285714</ele><time>2026-05-01T15:46:15.953Z</time></trkpt><trkpt lat="44.3123151" lon="11.6457588"><ele>70.0</ele><time>2026-05-01T15:46:16.957Z</time></trkpt><trkpt lat="44.3122397" lon="11.6456194"><ele>70.0</ele><time>2026-05-01T15:46:18.967Z</time></trkpt><trkpt lat="44.3122007" lon="11.6455467"><ele>70.0</ele><time>2026-05-01T15:46:19.97Z</time></trkpt><trkpt lat="44.3121516" lon="11.6454746"><ele>70.0</ele><time>2026-05-01T15:46:20.962Z</time></trkpt><trkpt lat="44.3121044" lon="11.6454091"><ele>70.0</ele><time>2026-05-01T15:46:21.965Z</time></trkpt><trkpt lat="44.3120651" lon="11.6453348"><ele>70.0</ele><time>2026-05-01T15:46:22.971Z</time></trkpt><trkpt lat="44.3120218" lon="11.6452571"><ele>70.0</ele><time>2026-05-01T15:46:23.958Z</time></trkpt><trkpt lat="44.3119771" lon="11.6451809"><ele>70.0</ele><time>2026-05-01T15:46:24.977Z</time></trkpt><trkpt lat="44.3119355" lon="11.6451086"><ele>70.28571428571429</ele><time>2026-05-01T15:46:25.954Z</time></trkpt><trkpt lat="44.3118924" lon="11.645036"><ele>70.57142857142857</ele><time>2026-05-01T15:46:26.953Z</time></trkpt><trkpt lat="44.3118443" lon="11.6449646"><ele>70.85714285714286</ele><time>2026-05-01T15:46:27.951Z</time></trkpt><trkpt lat="44.3117979" lon="11.6449012"><ele>71.14285714285714</ele><time>2026-05-01T15:46:28.957Z</time></trkpt><trkpt lat="44.3117533" lon="11.6448307"><ele>71.42857142857143</ele><time>2026-05-01T15:46:29.962Z</time></trkpt><trkpt lat="44.3117116" lon="11.6447632"><ele>71.71428571428572</ele><time>2026-05-01T15:46:30.956Z</time></trkpt><trkpt lat="44.3116642" lon="11.6446959"><ele>72.0</ele><time>2026-05-01T15:46:31.961Z</time></trkpt><trkpt lat="44.3116135" lon="11.6446271"><ele>72.00000000000001</ele><time>2026-05-01T15:46:32.97Z</time></trkpt><trkpt lat="44.3115696" lon="11.6445573"><ele>72.0</ele><time>2026-05-01T15:46:33.956Z</time></trkpt><trkpt lat="44.3115256" lon="11.6444884"><ele>72.0</ele><time>2026-05-01T15:46:34.963Z</time></trkpt><trkpt lat="44.3114823" lon="11.6444168"><ele>72.0</ele><time>2026-05-01T15:46:35.96Z</time></trkpt><trkpt lat="44.3114399" lon="11.6443449"><ele>72.0</ele><time>2026-05-01T15:46:36.961Z</time></trkpt><trkpt lat="44.3113961" lon="11.6442718"><ele>72.00000000000001</ele><time>2026-05-01T15:46:37.956Z</time></trkpt><trkpt lat="44.3113584" lon="11.6442008"><ele>72.0</ele><time>2026-05-01T15:46:38.962Z</time></trkpt><trkpt lat="44.3113153" lon="11.64413"><ele>72.0</ele><time>2026-05-01T15:46:39.963Z</time></trkpt><trkpt lat="44.3112705" lon="11.6440579"><ele>72.0</ele><time>2026-05-01T15:46:40.962Z</time></trkpt><trkpt lat="44.3112266" lon="11.6439885"><ele>72.0</ele><time>2026-05-01T15:46:41.967Z</time></trkpt><trkpt lat="44.3111807" lon="11.6439194"><ele>72.0</ele><time>2026-05-01T15:46:42.958Z</time></trkpt><trkpt lat="44.3111411" lon="11.6438494"><ele>72.0</ele><time>2026-05-01T15:46:43.962Z</time></trkpt><trkpt lat="44.3110992" lon="11.6437802"><ele>72.0</ele><time>2026-05-01T15:46:44.961Z</time></trkpt><trkpt lat="44.3110199" lon="11.6436442"><ele>72.66666666666667</ele><time>2026-05-01T15:46:46.958Z</time></trkpt><trkpt lat="44.3109782" lon="11.6435761"><ele>73.33333333333333</ele><time>2026-05-01T15:46:47.967Z</time></trkpt><trkpt lat="44.3109344" lon="11.643504"><ele>74.0</ele><time>2026-05-01T15:46:48.966Z</time></trkpt><trkpt lat="44.3108917" lon="11.6434303"><ele>74.66666666666666</ele><time>2026-05-01T15:46:49.963Z</time></trkpt><trkpt lat="44.3108507" lon="11.6433583"><ele>75.33333333333333</ele><time>2026-05-01T15:46:50.963Z</time></trkpt><trkpt lat="44.3107683" lon="11.6432227"><ele>76.0</ele><time>2026-05-01T15:46:52.96Z</time></trkpt><trkpt lat="44.3107273" lon="11.6431506"><ele>76.0</ele><time>2026-05-01T15:46:53.961Z</time></trkpt><trkpt lat="44.3106476" lon="11.6430192"><ele>76.0</ele><time>2026-05-01T15:46:55.959Z</time></trkpt><trkpt lat="44.3105625" lon="11.6428956"><ele>76.0</ele><time>2026-05-01T15:46:57.96Z</time></trkpt><trkpt lat="44.3105175" lon="11.6428264"><ele>76.0</ele><time>2026-05-01T15:46:58.956Z</time></trkpt><trkpt lat="44.3104382" lon="11.6426928"><ele>76.0</ele><time>2026-05-01T15:47:00.963Z</time></trkpt><trkpt lat="44.3103924" lon="11.6426225"><ele>75.14285714285714</ele><time>2026-05-01T15:47:01.959Z</time></trkpt><trkpt lat="44.3103486" lon="11.6425478"><ele>74.28571428571429</ele><time>2026-05-01T15:47:02.972Z</time></trkpt><trkpt lat="44.3103052" lon="11.6424716"><ele>73.42857142857143</ele><time>2026-05-01T15:47:03.96Z</time></trkpt><trkpt lat="44.3102592" lon="11.642397"><ele>72.57142857142857</ele><time>2026-05-01T15:47:04.96Z</time></trkpt><trkpt lat="44.3102138" lon="11.6423202"><ele>71.71428571428572</ele><time>2026-05-01T15:47:05.957Z</time></trkpt><trkpt lat="44.3101667" lon="11.6422552"><ele>70.85714285714286</ele><time>2026-05-01T15:47:06.959Z</time></trkpt><trkpt lat="44.3101212" lon="11.642182"><ele>70.0</ele><time>2026-05-01T15:47:07.958Z</time></trkpt><trkpt lat="44.3100803" lon="11.642109"><ele>70.0</ele><time>2026-05-01T15:47:08.96Z</time></trkpt><trkpt lat="44.3100394" lon="11.6420336"><ele>70.0</ele><time>2026-05-01T15:47:09.959Z</time></trkpt><trkpt lat="44.3099958" lon="11.6419606"><ele>70.0</ele><time>2026-05-01T15:47:10.959Z</time></trkpt><trkpt lat="44.3099532" lon="11.6418806"><ele>70.0</ele><time>2026-05-01T15:47:11.96Z</time></trkpt><trkpt lat="44.3099089" lon="11.6418036"><ele>70.0</ele><time>2026-05-01T15:47:12.962Z</time></trkpt><trkpt lat="44.3098644" lon="11.6417278"><ele>70.0</ele><time>2026-05-01T15:47:13.961Z</time></trkpt><trkpt lat="44.3098157" lon="11.6416547"><ele>70.0</ele><time>2026-05-01T15:47:14.963Z</time></trkpt><trkpt lat="44.3097696" lon="11.6415821"><ele>69.71428571428571</ele><time>2026-05-01T15:47:15.953Z</time></trkpt><trkpt lat="44.3097253" lon="11.641506"><ele>69.42857142857143</ele><time>2026-05-01T15:47:16.952Z</time></trkpt><trkpt lat="44.3096846" lon="11.6414321"><ele>69.14285714285714</ele><time>2026-05-01T15:47:17.958Z</time></trkpt><trkpt lat="44.309639" lon="11.6413629"><ele>68.85714285714286</ele><time>2026-05-01T15:47:18.955Z</time></trkpt><trkpt lat="44.3095919" lon="11.6412939"><ele>68.57142857142857</ele><time>2026-05-01T15:47:19.965Z</time></trkpt><trkpt lat="44.3095445" lon="11.641218"><ele>68.28571428571428</ele><time>2026-05-01T15:47:20.957Z</time></trkpt><trkpt lat="44.3095" lon="11.6411409"><ele>68.0</ele><time>2026-05-01T15:47:21.959Z</time></trkpt><trkpt lat="44.3094542" lon="11.6410682"><ele>68.57142857142857</ele><time>2026-05-01T15:47:22.956Z</time></trkpt><trkpt lat="44.3094106" lon="11.6409972"><ele>69.14285714285714</ele><time>2026-05-01T15:47:23.96Z</time></trkpt><trkpt lat="44.3093615" lon="11.6409239"><ele>69.71428571428572</ele><time>2026-05-01T15:47:24.965Z</time></trkpt><trkpt lat="44.3093156" lon="11.6408481"><ele>70.28571428571428</ele><time>2026-05-01T15:47:25.959Z</time></trkpt><trkpt lat="44.3092719" lon="11.6407764"><ele>70.85714285714286</ele><time>2026-05-01T15:47:26.96Z</time></trkpt><trkpt lat="44.3092282" lon="11.6407012"><ele>71.42857142857143</ele><time>2026-05-01T15:47:27.958Z</time></trkpt><trkpt lat="44.3091832" lon="11.6406275"><ele>72.0</ele><time>2026-05-01T15:47:28.964Z</time></trkpt><trkpt lat="44.3091382" lon="11.6405539"><ele>72.00000000000001</ele><time>2026-05-01T15:47:29.96Z</time></trkpt><trkpt lat="44.3090948" lon="11.640482"><ele>72.0</ele><time>2026-05-01T15:47:30.963Z</time></trkpt><trkpt lat="44.3090471" lon="11.6404049"><ele>72.0</ele><time>2026-05-01T15:47:31.968Z</time></trkpt><trkpt lat="44.3089993" lon="11.6403308"><ele>72.0</ele><time>2026-05-01T15:47:32.958Z</time></trkpt><trkpt lat="44.3089518" lon="11.6402578"><ele>72.0</ele><time>2026-05-01T15:47:33.96Z</time></trkpt><trkpt lat="44.3089042" lon="11.6401872"><ele>72.00000000000001</ele><time>2026-05-01T15:47:34.964Z</time></trkpt><trkpt lat="44.3088555" lon="11.6401159"><ele>72.0</ele><time>2026-05-01T15:47:35.961Z</time></trkpt><trkpt lat="44.3088065" lon="11.640044"><ele>71.71428571428572</ele><time>2026-05-01T15:47:36.962Z</time></trkpt><trkpt lat="44.308761" lon="11.6399761"><ele>71.42857142857143</ele><time>2026-05-01T15:47:37.965Z</time></trkpt><trkpt lat="44.3087074" lon="11.639912"><ele>71.14285714285714</ele><time>2026-05-01T15:47:38.958Z</time></trkpt><trkpt lat="44.3086557" lon="11.6398495"><ele>70.85714285714286</ele><time>2026-05-01T15:47:39.961Z</time></trkpt><trkpt lat="44.308605" lon="11.6397878"><ele>70.57142857142857</ele><time>2026-05-01T15:47:40.958Z</time></trkpt><trkpt lat="44.3085556" lon="11.6397311"><ele>70.28571428571429</ele><time>2026-05-01T15:47:41.962Z</time></trkpt><trkpt lat="44.3085045" lon="11.6396733"><ele>70.0</ele><time>2026-05-01T15:47:42.968Z</time></trkpt><trkpt lat="44.3084054" lon="11.6395751"><ele>70.0</ele><time>2026-05-01T15:47:44.959Z</time></trkpt><trkpt lat="44.3083525" lon="11.6395218"><ele>70.0</ele><time>2026-05-01T15:47:45.964Z</time></trkpt><trkpt lat="44.3082536" lon="11.6394174"><ele>70.0</ele><time>2026-05-01T15:47:47.968Z</time></trkpt><trkpt lat="44.3082011" lon="11.6393665"><ele>70.0</ele><time>2026-05-01T15:47:48.965Z</time></trkpt><trkpt lat="44.3081065" lon="11.6392657"><ele>70.0</ele><time>2026-05-01T15:47:50.957Z</time></trkpt><trkpt lat="44.3080024" lon="11.6391652"><ele>70.33333333333333</ele><time>2026-05-01T15:47:52.964Z</time></trkpt><trkpt lat="44.3079462" lon="11.6391206"><ele>70.66666666666666</ele><time>2026-05-01T15:47:53.958Z</time></trkpt><trkpt lat="44.3078915" lon="11.6390667"><ele>71.0</ele><time>2026-05-01T15:47:54.958Z</time></trkpt><trkpt lat="44.307838" lon="11.639018"><ele>71.33333333333333</ele><time>2026-05-01T15:47:55.964Z</time></trkpt><trkpt lat="44.307783" lon="11.6389747"><ele>71.66666666666667</ele><time>2026-05-01T15:47:56.968Z</time></trkpt><trkpt lat="44.3076776" lon="11.6388895"><ele>72.0</ele><time>2026-05-01T15:47:58.959Z</time></trkpt><trkpt lat="44.3075725" lon="11.6388053"><ele>72.0</ele><time>2026-05-01T15:48:00.963Z</time></trkpt><trkpt lat="44.3075152" lon="11.6387686"><ele>72.0</ele><time>2026-05-01T15:48:01.966Z</time></trkpt><trkpt lat="44.3074061" lon="11.6387003"><ele>72.0</ele><time>2026-05-01T15:48:03.959Z</time></trkpt><trkpt lat="44.3072945" lon="11.6386414"><ele>72.0</ele><time>2026-05-01T15:48:05.962Z</time></trkpt><trkpt lat="44.3072342" lon="11.6386155"><ele>72.0</ele><time>2026-05-01T15:48:06.961Z</time></trkpt><trkpt lat="44.3071743" lon="11.6385808"><ele>72.0</ele><time>2026-05-01T15:48:07.967Z</time></trkpt><trkpt lat="44.3070651" lon="11.6385077"><ele>72.25</ele><time>2026-05-01T15:48:09.959Z</time></trkpt><trkpt lat="44.3069559" lon="11.638451"><ele>72.5</ele><time>2026-05-01T15:48:11.954Z</time></trkpt><trkpt lat="44.3068426" lon="11.6383838"><ele>72.75</ele><time>2026-05-01T15:48:13.949Z</time></trkpt><trkpt lat="44.3067273" lon="11.638326"><ele>73.0</ele><time>2026-05-01T15:48:15.976Z</time></trkpt><trkpt lat="44.3066147" lon="11.6382694"><ele>73.0</ele><time>2026-05-01T15:48:17.957Z</time></trkpt><trkpt lat="44.3065027" lon="11.6381963"><ele>73.0</ele><time>2026-05-01T15:48:19.974Z</time></trkpt><trkpt lat="44.3064417" lon="11.6381651"><ele>73.0</ele><time>2026-05-01T15:48:20.977Z</time></trkpt><trkpt lat="44.3063828" lon="11.6381323"><ele>73.0</ele><time>2026-05-01T15:48:21.965Z</time></trkpt><trkpt lat="44.3062689" lon="11.6380741"><ele>73.0</ele><time>2026-05-01T15:48:23.981Z</time></trkpt><trkpt lat="44.3061539" lon="11.638024"><ele>73.5</ele><time>2026-05-01T15:48:25.978Z</time></trkpt><trkpt lat="44.3060926" lon="11.6379966"><ele>74.0</ele><time>2026-05-01T15:48:26.968Z</time></trkpt><trkpt lat="44.3059749" lon="11.6379319"><ele>74.5</ele><time>2026-05-01T15:48:28.965Z</time></trkpt><trkpt lat="44.3059146" lon="11.6378991"><ele>75.0</ele><time>2026-05-01T15:48:29.969Z</time></trkpt><trkpt lat="44.3058546" lon="11.6378716"><ele>75.5</ele><time>2026-05-01T15:48:30.971Z</time></trkpt><trkpt lat="44.3057416" lon="11.6378074"><ele>76.0</ele><time>2026-05-01T15:48:32.969Z</time></trkpt><trkpt lat="44.3056325" lon="11.637736"><ele>75.8</ele><time>2026-05-01T15:48:34.967Z</time></trkpt><trkpt lat="44.3055732" lon="11.6376999"><ele>75.6</ele><time>2026-05-01T15:48:35.969Z</time></trkpt><trkpt lat="44.3055128" lon="11.63766"><ele>75.4</ele><time>2026-05-01T15:48:36.972Z</time></trkpt><trkpt lat="44.3054224" lon="11.6375619"><ele>75.2</ele><time>2026-05-01T15:48:38.958Z</time></trkpt><trkpt lat="44.3053383" lon="11.6374607"><ele>75.0</ele><time>2026-05-01T15:48:40.973Z</time></trkpt><trkpt lat="44.3052928" lon="11.6373339"><ele>75.0</ele><time>2026-05-01T15:48:42.95Z</time></trkpt><trkpt lat="44.3052129" lon="11.6372534"><ele>75.0</ele><time>2026-05-01T15:48:44.956Z</time></trkpt><trkpt lat="44.3051554" lon="11.6371622"><ele>75.0</ele><time>2026-05-01T15:48:46.96Z</time></trkpt><trkpt lat="44.3050805" lon="11.6370844"><ele>75.0</ele><time>2026-05-01T15:48:48.968Z</time></trkpt><trkpt lat="44.3050074" lon="11.6369975"><ele>75.0</ele><time>2026-05-01T15:48:50.949Z</time></trkpt><trkpt lat="44.3049402" lon="11.6369124"><ele>75.2</ele><time>2026-05-01T15:48:52.972Z</time></trkpt><trkpt lat="44.3048651" lon="11.6368152"><ele>75.4</ele><time>2026-05-01T15:48:54.963Z</time></trkpt><trkpt lat="44.3047897" lon="11.6367208"><ele>75.6</ele><time>2026-05-01T15:48:56.969Z</time></trkpt><trkpt lat="44.3047072" lon="11.6366226"><ele>75.8</ele><time>2026-05-01T15:48:58.959Z</time></trkpt><trkpt lat="44.3046186" lon="11.6365287"><ele>76.0</ele><time>2026-05-01T15:49:00.976Z</time></trkpt><trkpt lat="44.3045332" lon="11.6364278"><ele>76.0</ele><time>2026-05-01T15:49:02.974Z</time></trkpt><trkpt lat="44.3044506" lon="11.6363267"><ele>76.0</ele><time>2026-05-01T15:49:04.969Z</time></trkpt><trkpt lat="44.3043654" lon="11.6362285"><ele>76.0</ele><time>2026-05-01T15:49:06.971Z</time></trkpt><trkpt lat="44.3042825" lon="11.6361255"><ele>76.0</ele><time>2026-05-01T15:49:08.955Z</time></trkpt><trkpt lat="44.304196" lon="11.636027"><ele>76.0</ele><time>2026-05-01T15:49:10.968Z</time></trkpt><trkpt lat="44.3041039" lon="11.635951"><ele>76.0</ele><time>2026-05-01T15:49:12.951Z</time></trkpt><trkpt lat="44.3040116" lon="11.6358983"><ele>76.0</ele><time>2026-05-01T15:49:14.973Z</time></trkpt><trkpt lat="44.3039005" lon="11.6358503"><ele>76.0</ele><time>2026-05-01T15:49:16.962Z</time></trkpt><trkpt lat="44.3037879" lon="11.6358029"><ele>76.0</ele><time>2026-05-01T15:49:18.953Z</time></trkpt><trkpt lat="44.3036695" lon="11.6357611"><ele>76.0</ele><time>2026-05-01T15:49:20.972Z</time></trkpt><trkpt lat="44.3035519" lon="11.6357252"><ele>76.0</ele><time>2026-05-01T15:49:22.967Z</time></trkpt><trkpt lat="44.303431" lon="11.6356803"><ele>76.0</ele><time>2026-05-01T15:49:24.975Z</time></trkpt><trkpt lat="44.3033094" lon="11.6356276"><ele>76.0</ele><time>2026-05-01T15:49:26.969Z</time></trkpt><trkpt lat="44.3031942" lon="11.6355825"><ele>76.0</ele><time>2026-05-01T15:49:28.964Z</time></trkpt><trkpt lat="44.3031316" lon="11.6355604"><ele>76.0</ele><time>2026-05-01T15:49:29.977Z</time></trkpt><trkpt lat="44.3030689" lon="11.6355332"><ele>76.0</ele><time>2026-05-01T15:49:30.968Z</time></trkpt><trkpt lat="44.3030031" lon="11.6355063"><ele>76.0</ele><time>2026-05-01T15:49:31.971Z</time></trkpt><trkpt lat="44.302939" lon="11.6354879"><ele>76.0</ele><time>2026-05-01T15:49:32.977Z</time></trkpt><trkpt lat="44.3028744" lon="11.6354717"><ele>76.0</ele><time>2026-05-01T15:49:33.969Z</time></trkpt><trkpt lat="44.3028086" lon="11.6354519"><ele>76.0</ele><time>2026-05-01T15:49:34.955Z</time></trkpt><trkpt lat="44.3027463" lon="11.6354264"><ele>75.5</ele><time>2026-05-01T15:49:35.975Z</time></trkpt><trkpt lat="44.3026224" lon="11.6353779"><ele>75.0</ele><time>2026-05-01T15:49:37.969Z</time></trkpt><trkpt lat="44.3025544" lon="11.6353547"><ele>74.5</ele><time>2026-05-01T15:49:38.96Z</time></trkpt><trkpt lat="44.3024907" lon="11.6353266"><ele>74.0</ele><time>2026-05-01T15:49:39.973Z</time></trkpt><trkpt lat="44.3024257" lon="11.6353013"><ele>73.5</ele><time>2026-05-01T15:49:40.983Z</time></trkpt><trkpt lat="44.3023632" lon="11.6352762"><ele>73.0</ele><time>2026-05-01T15:49:41.962Z</time></trkpt><trkpt lat="44.3022994" lon="11.6352491"><ele>73.0</ele><time>2026-05-01T15:49:42.963Z</time></trkpt><trkpt lat="44.3021789" lon="11.6351952"><ele>73.0</ele><time>2026-05-01T15:49:44.979Z</time></trkpt><trkpt lat="44.3020552" lon="11.6351512"><ele>73.0</ele><time>2026-05-01T15:49:46.973Z</time></trkpt><trkpt lat="44.3019892" lon="11.635128"><ele>73.0</ele><time>2026-05-01T15:49:47.979Z</time></trkpt><trkpt lat="44.3019251" lon="11.6351076"><ele>73.0</ele><time>2026-05-01T15:49:48.977Z</time></trkpt><trkpt lat="44.301806" lon="11.6350687"><ele>73.0</ele><time>2026-05-01T15:49:50.97Z</time></trkpt><trkpt lat="44.3017445" lon="11.6350475"><ele>73.0</ele><time>2026-05-01T15:49:51.982Z</time></trkpt><trkpt lat="44.301623" lon="11.6350109"><ele>73.0</ele><time>2026-05-01T15:49:53.972Z</time></trkpt><trkpt lat="44.3015012" lon="11.6349673"><ele>73.0</ele><time>2026-05-01T15:49:55.981Z</time></trkpt><trkpt lat="44.3014405" lon="11.6349415"><ele>73.0</ele><time>2026-05-01T15:49:56.975Z</time></trkpt><trkpt lat="44.3013211" lon="11.6348951"><ele>72.8</ele><time>2026-05-01T15:49:58.971Z</time></trkpt><trkpt lat="44.3012045" lon="11.6348467"><ele>72.6</ele><time>2026-05-01T15:50:00.973Z</time></trkpt><trkpt lat="44.3011432" lon="11.6348195"><ele>72.4</ele><time>2026-05-01T15:50:01.974Z</time></trkpt><trkpt lat="44.3010303" lon="11.6347675"><ele>72.2</ele><time>2026-05-01T15:50:03.98Z</time></trkpt><trkpt lat="44.3009247" lon="11.6346866"><ele>72.0</ele><time>2026-05-01T15:50:05.95Z</time></trkpt><trkpt lat="44.3008716" lon="11.6346383"><ele>72.0</ele><time>2026-05-01T15:50:06.954Z</time></trkpt><trkpt lat="44.3007721" lon="11.634534"><ele>72.0</ele><time>2026-05-01T15:50:08.965Z</time></trkpt><trkpt lat="44.3007197" lon="11.6344811"><ele>72.0</ele><time>2026-05-01T15:50:09.95Z</time></trkpt><trkpt lat="44.3006674" lon="11.6344263"><ele>72.0</ele><time>2026-05-01T15:50:10.954Z</time></trkpt><trkpt lat="44.3006183" lon="11.6343699"><ele>72.0</ele><time>2026-05-01T15:50:11.962Z</time></trkpt><trkpt lat="44.3005171" lon="11.6342649"><ele>72.0</ele><time>2026-05-01T15:50:13.968Z</time></trkpt><trkpt lat="44.3004219" lon="11.6341598"><ele>72.0</ele><time>2026-05-01T15:50:15.983Z</time></trkpt><trkpt lat="44.3003316" lon="11.6340376"><ele>72.0</ele><time>2026-05-01T15:50:17.984Z</time></trkpt><trkpt lat="44.300245" lon="11.6339122"><ele>72.0</ele><time>2026-05-01T15:50:19.965Z</time></trkpt><trkpt lat="44.3001685" lon="11.6337809"><ele>72.0</ele><time>2026-05-01T15:50:21.965Z</time></trkpt><trkpt lat="44.3000966" lon="11.6336471"><ele>72.0</ele><time>2026-05-01T15:50:23.971Z</time></trkpt><trkpt lat="44.3000631" lon="11.6335691"><ele>72.0</ele><time>2026-05-01T15:50:24.979Z</time></trkpt><trkpt lat="44.3000065" lon="11.6334249"><ele>72.0</ele><time>2026-05-01T15:50:26.978Z</time></trkpt><trkpt lat="44.2999415" lon="11.6332772"><ele>72.0</ele><time>2026-05-01T15:50:28.962Z</time></trkpt><trkpt lat="44.2998843" lon="11.6331343"><ele>72.0</ele><time>2026-05-01T15:50:30.973Z</time></trkpt><trkpt lat="44.2998244" lon="11.6329871"><ele>72.0</ele><time>2026-05-01T15:50:32.966Z</time></trkpt><trkpt lat="44.2997614" lon="11.6328384"><ele>72.0</ele><time>2026-05-01T15:50:34.959Z</time></trkpt><trkpt lat="44.2996962" lon="11.6326952"><ele>72.0</ele><time>2026-05-01T15:50:36.953Z</time></trkpt><trkpt lat="44.2996347" lon="11.6325559"><ele>72.0</ele><time>2026-05-01T15:50:38.969Z</time></trkpt><trkpt lat="44.2995808" lon="11.6324168"><ele>72.2</ele><time>2026-05-01T15:50:40.968Z</time></trkpt><trkpt lat="44.2995277" lon="11.6322798"><ele>72.4</ele><time>2026-05-01T15:50:42.985Z</time></trkpt><trkpt lat="44.2994724" lon="11.6321455"><ele>72.6</ele><time>2026-05-01T15:50:44.967Z</time></trkpt><trkpt lat="44.2994187" lon="11.6320154"><ele>72.8</ele><time>2026-05-01T15:50:46.977Z</time></trkpt><trkpt lat="44.2993646" lon="11.6318876"><ele>73.0</ele><time>2026-05-01T15:50:48.964Z</time></trkpt><trkpt lat="44.2993075" lon="11.6317684"><ele>73.5</ele><time>2026-05-01T15:50:50.965Z</time></trkpt><trkpt lat="44.2992547" lon="11.6316333"><ele>74.0</ele><time>2026-05-01T15:50:52.966Z</time></trkpt><trkpt lat="44.2991992" lon="11.6314969"><ele>74.5</ele><time>2026-05-01T15:50:54.962Z</time></trkpt><trkpt lat="44.2991405" lon="11.6313524"><ele>75.0</ele><time>2026-05-01T15:50:56.952Z</time></trkpt><trkpt lat="44.2990771" lon="11.6312003"><ele>74.75</ele><time>2026-05-01T15:50:58.953Z</time></trkpt><trkpt lat="44.2990175" lon="11.6310562"><ele>74.5</ele><time>2026-05-01T15:51:00.956Z</time></trkpt><trkpt lat="44.2989525" lon="11.6309179"><ele>74.25</ele><time>2026-05-01T15:51:02.974Z</time></trkpt><trkpt lat="44.2988924" lon="11.6307747"><ele>74.0</ele><time>2026-05-01T15:51:04.971Z</time></trkpt><trkpt lat="44.2988306" lon="11.6306301"><ele>74.0</ele><time>2026-05-01T15:51:06.963Z</time></trkpt><trkpt lat="44.2987733" lon="11.6304887"><ele>74.0</ele><time>2026-05-01T15:51:08.958Z</time></trkpt><trkpt lat="44.2987197" lon="11.6303426"><ele>74.0</ele><time>2026-05-01T15:51:10.965Z</time></trkpt><trkpt lat="44.2986535" lon="11.6302087"><ele>74.0</ele><time>2026-05-01T15:51:12.961Z</time></trkpt><trkpt lat="44.2985922" lon="11.6300832"><ele>74.0</ele><time>2026-05-01T15:51:14.959Z</time></trkpt><trkpt lat="44.2985388" lon="11.6299546"><ele>74.0</ele><time>2026-05-01T15:51:16.966Z</time></trkpt><trkpt lat="44.2984782" lon="11.6298181"><ele>74.0</ele><time>2026-05-01T15:51:18.967Z</time></trkpt><trkpt lat="44.2984239" lon="11.6296819"><ele>74.0</ele><time>2026-05-01T15:51:20.964Z</time></trkpt><trkpt lat="44.2983675" lon="11.6295436"><ele>74.0</ele><time>2026-05-01T15:51:22.962Z</time></trkpt><trkpt lat="44.2983079" lon="11.6294099"><ele>74.25</ele><time>2026-05-01T15:51:24.961Z</time></trkpt><trkpt lat="44.2982488" lon="11.6292677"><ele>74.5</ele><time>2026-05-01T15:51:26.97Z</time></trkpt><trkpt lat="44.2981875" lon="11.6291312"><ele>74.75</ele><time>2026-05-01T15:51:28.963Z</time></trkpt><trkpt lat="44.2981288" lon="11.6289916"><ele>75.0</ele><time>2026-05-01T15:51:30.961Z</time></trkpt><trkpt lat="44.2980641" lon="11.6288558"><ele>75.0</ele><time>2026-05-01T15:51:32.955Z</time></trkpt><trkpt lat="44.2980074" lon="11.6287309"><ele>75.0</ele><time>2026-05-01T15:51:34.96Z</time></trkpt><trkpt lat="44.2979509" lon="11.6285989"><ele>75.0</ele><time>2026-05-01T15:51:36.967Z</time></trkpt><trkpt lat="44.2978898" lon="11.6284615"><ele>75.0</ele><time>2026-05-01T15:51:38.959Z</time></trkpt><trkpt lat="44.2978279" lon="11.6283348"><ele>75.0</ele><time>2026-05-01T15:51:40.959Z</time></trkpt><trkpt lat="44.2977717" lon="11.6281954"><ele>75.4</ele><time>2026-05-01T15:51:42.964Z</time></trkpt><trkpt lat="44.297716" lon="11.6280605"><ele>75.8</ele><time>2026-05-01T15:51:44.969Z</time></trkpt><trkpt lat="44.2976575" lon="11.6279402"><ele>76.2</ele><time>2026-05-01T15:51:46.959Z</time></trkpt><trkpt lat="44.2976006" lon="11.6278072"><ele>76.6</ele><time>2026-05-01T15:51:48.962Z</time></trkpt><trkpt lat="44.297545" lon="11.6276756"><ele>77.0</ele><time>2026-05-01T15:51:50.963Z</time></trkpt><trkpt lat="44.2974828" lon="11.6275462"><ele>77.0</ele><time>2026-05-01T15:51:52.978Z</time></trkpt><trkpt lat="44.2974286" lon="11.6274133"><ele>77.0</ele><time>2026-05-01T15:51:54.964Z</time></trkpt><trkpt lat="44.2973756" lon="11.6272848"><ele>77.0</ele><time>2026-05-01T15:51:56.961Z</time></trkpt><trkpt lat="44.2973233" lon="11.6271496"><ele>77.0</ele><time>2026-05-01T15:51:58.967Z</time></trkpt><trkpt lat="44.2972685" lon="11.6270205"><ele>77.0</ele><time>2026-05-01T15:52:00.971Z</time></trkpt><trkpt lat="44.2972158" lon="11.6268896"><ele>77.4</ele><time>2026-05-01T15:52:02.955Z</time></trkpt><trkpt lat="44.2971677" lon="11.6267596"><ele>77.80000000000001</ele><time>2026-05-01T15:52:04.956Z</time></trkpt><trkpt lat="44.2971091" lon="11.626629"><ele>78.2</ele><time>2026-05-01T15:52:06.964Z</time></trkpt><trkpt lat="44.2970553" lon="11.6264967"><ele>78.60000000000001</ele><time>2026-05-01T15:52:08.962Z</time></trkpt><trkpt lat="44.297008" lon="11.6263825"><ele>79.0</ele><time>2026-05-01T15:52:10.961Z</time></trkpt><trkpt lat="44.2969653" lon="11.6262823"><ele>79.00000000000001</ele><time>2026-05-01T15:52:12.969Z</time></trkpt><trkpt lat="44.2969359" lon="11.6261844"><ele>79.0</ele><time>2026-05-01T15:52:14.963Z</time></trkpt><trkpt lat="44.2969556" lon="11.6260931"><ele>79.0</ele><time>2026-05-01T15:52:16.962Z</time></trkpt><trkpt lat="44.2969846" lon="11.626005"><ele>79.0</ele><time>2026-05-01T15:52:18.962Z</time></trkpt><trkpt lat="44.2970152" lon="11.6259109"><ele>79.0</ele><time>2026-05-01T15:52:20.966Z</time></trkpt><trkpt lat="44.2970517" lon="11.6258288"><ele>79.00000000000001</ele><time>2026-05-01T15:52:22.967Z</time></trkpt><trkpt lat="44.2970865" lon="11.6257419"><ele>79.0</ele><time>2026-05-01T15:52:24.964Z</time></trkpt><trkpt lat="44.2971142" lon="11.6256475"><ele>79.42857142857143</ele><time>2026-05-01T15:52:26.963Z</time></trkpt><trkpt lat="44.2971622" lon="11.6255574"><ele>79.85714285714286</ele><time>2026-05-01T15:52:29.958Z</time></trkpt><trkpt lat="44.2971843" lon="11.6254749"><ele>80.28571428571428</ele><time>2026-05-01T15:52:32.959Z</time></trkpt><trkpt lat="44.2972126" lon="11.6253689"><ele>80.71428571428572</ele><time>2026-05-01T15:52:35.962Z</time></trkpt><trkpt lat="44.2972376" lon="11.6252703"><ele>81.14285714285714</ele><time>2026-05-01T15:52:38.962Z</time></trkpt><trkpt lat="44.2972674" lon="11.6251804"><ele>81.57142857142857</ele><time>2026-05-01T15:52:41.96Z</time></trkpt><trkpt lat="44.2972917" lon="11.6250791"><ele>82.0</ele><time>2026-05-01T15:52:44.962Z</time></trkpt><trkpt lat="44.2973104" lon="11.6249815"><ele>84.0</ele><time>2026-05-01T15:52:47.951Z</time></trkpt><trkpt lat="44.2973655" lon="11.6249286"><ele>84.0</ele><time>2026-05-01T15:54:49.959Z</time></trkpt><trkpt lat="44.2974253" lon="11.6249747"><ele>84.0</ele><time>2026-05-01T16:03:57.971Z</time></trkpt><trkpt lat="44.2974821" lon="11.6250169"><ele>84.0</ele><time>2026-05-01T16:04:39.959Z</time></trkpt><trkpt lat="44.2975208" lon="11.6250979"><ele>84.0</ele><time>2026-05-01T16:05:56.951Z</time></trkpt><trkpt lat="44.2974507" lon="11.6251244"><ele>84.0</ele><time>2026-05-01T17:02:01.958Z</time></trkpt></trkseg><trkseg><trkpt lat="44.3597754" lon="11.7184731"><ele>42.0</ele><time>2026-05-02T11:36:59.462Z</time></trkpt><trkpt lat="44.3597653" lon="11.7185704"><ele>43.0</ele><time>2026-05-02T11:37:03.463Z</time></trkpt><trkpt lat="44.3597018" lon="11.7185967"><ele>43.0</ele><time>2026-05-02T11:37:13.463Z</time></trkpt><trkpt lat="44.3596473" lon="11.718664"><ele>43.0</ele><time>2026-05-02T11:37:19.474Z</time></trkpt></trkseg></trk></gpx>